<?xml version="1.0" encoding="UTF-8" standalone="no" ?>
<gpx xmlns="http://www.topografix.com/GPX/1/1" xmlns:xsi="http://www.w3.org/2001/XMLSchema-instance" xsi:schemaLocation="http://www.topografix.com/GPX/1/1 http://www.topografix.com/GPX/1/1/gpx.xsd" version="1.1" creator="VisuGPX - https://www.visugpx.com">
  <metadata>
    <name>Octocote 2016</name>
  </metadata>
  <trk>
    <name><![CDATA[Fontaines-Saint-Martin]]></name>
    <trkseg>
      <trkpt lat="45.84319" lon="4.85565">
        <ele>216.27327</ele>
        <time>2016-05-22T06:06:35Z</time>
      </trkpt>
      <trkpt lat="45.8431" lon="4.85549">
        <ele>216.162674</ele>
        <time>2016-05-22T06:06:37Z</time>
      </trkpt>
      <trkpt lat="45.84306" lon="4.85537">
        <ele>215.971146</ele>
        <time>2016-05-22T06:06:39Z</time>
      </trkpt>
      <trkpt lat="45.84308" lon="4.85524">
        <ele>215.640137</ele>
        <time>2016-05-22T06:06:41Z</time>
      </trkpt>
      <trkpt lat="45.84313" lon="4.85512">
        <ele>215.332031</ele>
        <time>2016-05-22T06:06:43Z</time>
      </trkpt>
      <trkpt lat="45.84314" lon="4.85505">
        <ele>214.821701</ele>
        <time>2016-05-22T06:06:45Z</time>
      </trkpt>
      <trkpt lat="45.84327" lon="4.85501">
        <ele>214.516266</ele>
        <time>2016-05-22T06:06:47Z</time>
      </trkpt>
      <trkpt lat="45.84342" lon="4.85497">
        <ele>214.20256</ele>
        <time>2016-05-22T06:06:49Z</time>
      </trkpt>
      <trkpt lat="45.84355" lon="4.85494">
        <ele>213.929047</ele>
        <time>2016-05-22T06:06:51Z</time>
      </trkpt>
      <trkpt lat="45.84371" lon="4.85488">
        <ele>213.821014</ele>
        <time>2016-05-22T06:06:53Z</time>
      </trkpt>
      <trkpt lat="45.8438" lon="4.85484">
        <ele>213.479416</ele>
        <time>2016-05-22T06:06:55Z</time>
      </trkpt>
      <trkpt lat="45.84389" lon="4.85481">
        <ele>213.175171</ele>
        <time>2016-05-22T06:06:57Z</time>
      </trkpt>
      <trkpt lat="45.84398" lon="4.85478">
        <ele>212.850006</ele>
        <time>2016-05-22T06:06:59Z</time>
      </trkpt>
      <trkpt lat="45.84404" lon="4.85479">
        <ele>212.671478</ele>
        <time>2016-05-22T06:07:01Z</time>
      </trkpt>
      <trkpt lat="45.84409" lon="4.85488">
        <ele>212.461823</ele>
        <time>2016-05-22T06:07:03Z</time>
      </trkpt>
      <trkpt lat="45.84414" lon="4.85496">
        <ele>212.223633</ele>
        <time>2016-05-22T06:07:05Z</time>
      </trkpt>
      <trkpt lat="45.84421" lon="4.85501">
        <ele>211.981903</ele>
        <time>2016-05-22T06:07:07Z</time>
      </trkpt>
      <trkpt lat="45.8443" lon="4.855">
        <ele>211.73819</ele>
        <time>2016-05-22T06:07:09Z</time>
      </trkpt>
      <trkpt lat="45.8444" lon="4.85495">
        <ele>211.566818</ele>
        <time>2016-05-22T06:07:11Z</time>
      </trkpt>
      <trkpt lat="45.84448" lon="4.85487">
        <ele>211.363525</ele>
        <time>2016-05-22T06:07:13Z</time>
      </trkpt>
      <trkpt lat="45.84456" lon="4.85475">
        <ele>211.224091</ele>
        <time>2016-05-22T06:07:15Z</time>
      </trkpt>
      <trkpt lat="45.8446" lon="4.85463">
        <ele>211.065964</ele>
        <time>2016-05-22T06:07:17Z</time>
      </trkpt>
      <trkpt lat="45.84458" lon="4.85451">
        <ele>211.08725</ele>
        <time>2016-05-22T06:07:19Z</time>
      </trkpt>
      <trkpt lat="45.84461" lon="4.85442">
        <ele>211.004242</ele>
        <time>2016-05-22T06:07:21Z</time>
      </trkpt>
      <trkpt lat="45.84465" lon="4.85435">
        <ele>211.081467</ele>
        <time>2016-05-22T06:07:23Z</time>
      </trkpt>
      <trkpt lat="45.84471" lon="4.85429">
        <ele>211.169281</ele>
        <time>2016-05-22T06:07:25Z</time>
      </trkpt>
      <trkpt lat="45.84477" lon="4.85426">
        <ele>211.424728</ele>
        <time>2016-05-22T06:07:27Z</time>
      </trkpt>
      <trkpt lat="45.84478" lon="4.85419">
        <ele>211.620605</ele>
        <time>2016-05-22T06:07:29Z</time>
      </trkpt>
      <trkpt lat="45.84474" lon="4.85412">
        <ele>211.786942</ele>
        <time>2016-05-22T06:07:31Z</time>
      </trkpt>
      <trkpt lat="45.8447" lon="4.85404">
        <ele>211.982819</ele>
        <time>2016-05-22T06:07:33Z</time>
      </trkpt>
      <trkpt lat="45.84467" lon="4.85398">
        <ele>212.136063</ele>
        <time>2016-05-22T06:07:35Z</time>
      </trkpt>
      <trkpt lat="45.84466" lon="4.85394">
        <ele>212.367676</ele>
        <time>2016-05-22T06:07:37Z</time>
      </trkpt>
      <trkpt lat="45.84464" lon="4.85391">
        <ele>212.985107</ele>
        <time>2016-05-22T06:07:45Z</time>
      </trkpt>
      <trkpt lat="45.84463" lon="4.85388">
        <ele>213.167938</ele>
        <time>2016-05-22T06:07:47Z</time>
      </trkpt>
      <trkpt lat="45.84462" lon="4.85385">
        <ele>213.349319</ele>
        <time>2016-05-22T06:07:49Z</time>
      </trkpt>
      <trkpt lat="45.8446" lon="4.85382">
        <ele>213.574997</ele>
        <time>2016-05-22T06:07:51Z</time>
      </trkpt>
      <trkpt lat="45.84459" lon="4.85382">
        <ele>214.41362</ele>
        <time>2016-05-22T06:08:01Z</time>
      </trkpt>
      <trkpt lat="45.8446" lon="4.85385">
        <ele>214.667877</ele>
        <time>2016-05-22T06:08:13Z</time>
      </trkpt>
      <trkpt lat="45.84462" lon="4.85388">
        <ele>214.637573</ele>
        <time>2016-05-22T06:08:17Z</time>
      </trkpt>
      <trkpt lat="45.84462" lon="4.8539">
        <ele>212.874512</ele>
        <time>2016-05-22T06:16:55Z</time>
      </trkpt>
      <trkpt lat="45.84461" lon="4.85397">
        <ele>212.59433</ele>
        <time>2016-05-22T06:17:28Z</time>
      </trkpt>
      <trkpt lat="45.84464" lon="4.8541">
        <ele>212.616653</ele>
        <time>2016-05-22T06:17:30Z</time>
      </trkpt>
      <trkpt lat="45.84466" lon="4.85417">
        <ele>212.623047</ele>
        <time>2016-05-22T06:17:32Z</time>
      </trkpt>
      <trkpt lat="45.84469" lon="4.85424">
        <ele>212.544266</ele>
        <time>2016-05-22T06:17:34Z</time>
      </trkpt>
      <trkpt lat="45.84472" lon="4.8543">
        <ele>212.513016</ele>
        <time>2016-05-22T06:17:36Z</time>
      </trkpt>
      <trkpt lat="45.84476" lon="4.85436">
        <ele>212.508743</ele>
        <time>2016-05-22T06:17:38Z</time>
      </trkpt>
      <trkpt lat="45.8448" lon="4.85438">
        <ele>212.425705</ele>
        <time>2016-05-22T06:17:40Z</time>
      </trkpt>
      <trkpt lat="45.84485" lon="4.85439">
        <ele>212.381012</ele>
        <time>2016-05-22T06:17:42Z</time>
      </trkpt>
      <trkpt lat="45.8449" lon="4.85438">
        <ele>212.343719</ele>
        <time>2016-05-22T06:17:44Z</time>
      </trkpt>
      <trkpt lat="45.84495" lon="4.85436">
        <ele>212.322754</ele>
        <time>2016-05-22T06:17:46Z</time>
      </trkpt>
      <trkpt lat="45.845" lon="4.85434">
        <ele>212.363205</ele>
        <time>2016-05-22T06:17:48Z</time>
      </trkpt>
      <trkpt lat="45.84504" lon="4.85432">
        <ele>212.416458</ele>
        <time>2016-05-22T06:17:50Z</time>
      </trkpt>
      <trkpt lat="45.84508" lon="4.85431">
        <ele>212.50647</ele>
        <time>2016-05-22T06:17:52Z</time>
      </trkpt>
      <trkpt lat="45.84512" lon="4.8543">
        <ele>212.604416</ele>
        <time>2016-05-22T06:17:54Z</time>
      </trkpt>
      <trkpt lat="45.84516" lon="4.85431">
        <ele>212.685333</ele>
        <time>2016-05-22T06:17:56Z</time>
      </trkpt>
      <trkpt lat="45.8452" lon="4.85436">
        <ele>212.713013</ele>
        <time>2016-05-22T06:17:58Z</time>
      </trkpt>
      <trkpt lat="45.84523" lon="4.85442">
        <ele>212.825043</ele>
        <time>2016-05-22T06:18:00Z</time>
      </trkpt>
      <trkpt lat="45.84526" lon="4.85449">
        <ele>212.918747</ele>
        <time>2016-05-22T06:18:02Z</time>
      </trkpt>
      <trkpt lat="45.84528" lon="4.85456">
        <ele>212.967728</ele>
        <time>2016-05-22T06:18:04Z</time>
      </trkpt>
      <trkpt lat="45.8453" lon="4.85463">
        <ele>213.067795</ele>
        <time>2016-05-22T06:18:06Z</time>
      </trkpt>
      <trkpt lat="45.84531" lon="4.85469">
        <ele>213.104324</ele>
        <time>2016-05-22T06:18:08Z</time>
      </trkpt>
      <trkpt lat="45.84531" lon="4.85475">
        <ele>213.235428</ele>
        <time>2016-05-22T06:18:10Z</time>
      </trkpt>
      <trkpt lat="45.84529" lon="4.85482">
        <ele>213.332352</ele>
        <time>2016-05-22T06:18:12Z</time>
      </trkpt>
      <trkpt lat="45.84527" lon="4.85491">
        <ele>213.400482</ele>
        <time>2016-05-22T06:18:14Z</time>
      </trkpt>
      <trkpt lat="45.84525" lon="4.85501">
        <ele>213.592087</ele>
        <time>2016-05-22T06:18:16Z</time>
      </trkpt>
      <trkpt lat="45.84522" lon="4.85512">
        <ele>213.61145</ele>
        <time>2016-05-22T06:18:18Z</time>
      </trkpt>
      <trkpt lat="45.84518" lon="4.85525">
        <ele>213.730667</ele>
        <time>2016-05-22T06:18:20Z</time>
      </trkpt>
      <trkpt lat="45.84515" lon="4.85538">
        <ele>213.730667</ele>
        <time>2016-05-22T06:18:22Z</time>
      </trkpt>
      <trkpt lat="45.84512" lon="4.85552">
        <ele>213.685593</ele>
        <time>2016-05-22T06:18:24Z</time>
      </trkpt>
      <trkpt lat="45.84509" lon="4.85567">
        <ele>213.67038</ele>
        <time>2016-05-22T06:18:26Z</time>
      </trkpt>
      <trkpt lat="45.84507" lon="4.85581">
        <ele>213.557541</ele>
        <time>2016-05-22T06:18:28Z</time>
      </trkpt>
      <trkpt lat="45.84506" lon="4.85595">
        <ele>213.497925</ele>
        <time>2016-05-22T06:18:30Z</time>
      </trkpt>
      <trkpt lat="45.84505" lon="4.8561">
        <ele>213.465988</ele>
        <time>2016-05-22T06:18:32Z</time>
      </trkpt>
      <trkpt lat="45.84504" lon="4.85624">
        <ele>213.377594</ele>
        <time>2016-05-22T06:18:34Z</time>
      </trkpt>
      <trkpt lat="45.84504" lon="4.85637">
        <ele>213.215775</ele>
        <time>2016-05-22T06:18:36Z</time>
      </trkpt>
      <trkpt lat="45.84503" lon="4.8565">
        <ele>212.94751</ele>
        <time>2016-05-22T06:18:38Z</time>
      </trkpt>
      <trkpt lat="45.84502" lon="4.85663">
        <ele>212.879761</ele>
        <time>2016-05-22T06:18:40Z</time>
      </trkpt>
      <trkpt lat="45.84501" lon="4.85677">
        <ele>212.722137</ele>
        <time>2016-05-22T06:18:42Z</time>
      </trkpt>
      <trkpt lat="45.845" lon="4.8569">
        <ele>212.569794</ele>
        <time>2016-05-22T06:18:44Z</time>
      </trkpt>
      <trkpt lat="45.84499" lon="4.85703">
        <ele>212.444183</ele>
        <time>2016-05-22T06:18:46Z</time>
      </trkpt>
      <trkpt lat="45.84499" lon="4.85716">
        <ele>212.347443</ele>
        <time>2016-05-22T06:18:48Z</time>
      </trkpt>
      <trkpt lat="45.84502" lon="4.85727">
        <ele>212.266266</ele>
        <time>2016-05-22T06:18:50Z</time>
      </trkpt>
      <trkpt lat="45.84506" lon="4.85739">
        <ele>212.070358</ele>
        <time>2016-05-22T06:18:52Z</time>
      </trkpt>
      <trkpt lat="45.8451" lon="4.85749">
        <ele>212.01712</ele>
        <time>2016-05-22T06:18:54Z</time>
      </trkpt>
      <trkpt lat="45.84515" lon="4.85759">
        <ele>211.891556</ele>
        <time>2016-05-22T06:18:56Z</time>
      </trkpt>
      <trkpt lat="45.84522" lon="4.85768">
        <ele>211.677826</ele>
        <time>2016-05-22T06:18:58Z</time>
      </trkpt>
      <trkpt lat="45.84529" lon="4.85775">
        <ele>211.592484</ele>
        <time>2016-05-22T06:19:00Z</time>
      </trkpt>
      <trkpt lat="45.84536" lon="4.85782">
        <ele>211.422165</ele>
        <time>2016-05-22T06:19:02Z</time>
      </trkpt>
      <trkpt lat="45.84544" lon="4.85788">
        <ele>211.475388</ele>
        <time>2016-05-22T06:19:04Z</time>
      </trkpt>
      <trkpt lat="45.8455" lon="4.85794">
        <ele>211.520096</ele>
        <time>2016-05-22T06:19:06Z</time>
      </trkpt>
      <trkpt lat="45.84557" lon="4.85798">
        <ele>211.579712</ele>
        <time>2016-05-22T06:19:08Z</time>
      </trkpt>
      <trkpt lat="45.84563" lon="4.85802">
        <ele>211.61377</ele>
        <time>2016-05-22T06:19:10Z</time>
      </trkpt>
      <trkpt lat="45.8457" lon="4.85807">
        <ele>211.615921</ele>
        <time>2016-05-22T06:19:12Z</time>
      </trkpt>
      <trkpt lat="45.84576" lon="4.85812">
        <ele>211.693558</ele>
        <time>2016-05-22T06:19:14Z</time>
      </trkpt>
      <trkpt lat="45.84581" lon="4.85818">
        <ele>211.72551</ele>
        <time>2016-05-22T06:19:16Z</time>
      </trkpt>
      <trkpt lat="45.84584" lon="4.85826">
        <ele>211.778732</ele>
        <time>2016-05-22T06:19:18Z</time>
      </trkpt>
      <trkpt lat="45.84586" lon="4.85835">
        <ele>211.980957</ele>
        <time>2016-05-22T06:19:20Z</time>
      </trkpt>
      <trkpt lat="45.84588" lon="4.85844">
        <ele>212.101959</ele>
        <time>2016-05-22T06:19:22Z</time>
      </trkpt>
      <trkpt lat="45.84587" lon="4.85853">
        <ele>212.209259</ele>
        <time>2016-05-22T06:19:24Z</time>
      </trkpt>
      <trkpt lat="45.84585" lon="4.85863">
        <ele>212.393524</ele>
        <time>2016-05-22T06:19:26Z</time>
      </trkpt>
      <trkpt lat="45.84583" lon="4.85873">
        <ele>212.524323</ele>
        <time>2016-05-22T06:19:28Z</time>
      </trkpt>
      <trkpt lat="45.8458" lon="4.85883">
        <ele>212.602203</ele>
        <time>2016-05-22T06:19:30Z</time>
      </trkpt>
      <trkpt lat="45.84578" lon="4.85892">
        <ele>212.723312</ele>
        <time>2016-05-22T06:19:32Z</time>
      </trkpt>
      <trkpt lat="45.84576" lon="4.85902">
        <ele>212.954681</ele>
        <time>2016-05-22T06:19:34Z</time>
      </trkpt>
      <trkpt lat="45.84573" lon="4.85912">
        <ele>213.124969</ele>
        <time>2016-05-22T06:19:36Z</time>
      </trkpt>
      <trkpt lat="45.84572" lon="4.85922">
        <ele>213.222931</ele>
        <time>2016-05-22T06:19:38Z</time>
      </trkpt>
      <trkpt lat="45.8457" lon="4.85931">
        <ele>213.538849</ele>
        <time>2016-05-22T06:19:40Z</time>
      </trkpt>
      <trkpt lat="45.84571" lon="4.85941">
        <ele>213.892334</ele>
        <time>2016-05-22T06:19:42Z</time>
      </trkpt>
      <trkpt lat="45.84571" lon="4.85951">
        <ele>214.214142</ele>
        <time>2016-05-22T06:19:44Z</time>
      </trkpt>
      <trkpt lat="45.84572" lon="4.85961">
        <ele>214.580475</ele>
        <time>2016-05-22T06:19:46Z</time>
      </trkpt>
      <trkpt lat="45.84573" lon="4.85971">
        <ele>214.848785</ele>
        <time>2016-05-22T06:19:48Z</time>
      </trkpt>
      <trkpt lat="45.84575" lon="4.8598">
        <ele>215.168793</ele>
        <time>2016-05-22T06:19:50Z</time>
      </trkpt>
      <trkpt lat="45.84579" lon="4.85988">
        <ele>215.437134</ele>
        <time>2016-05-22T06:19:52Z</time>
      </trkpt>
      <trkpt lat="45.84581" lon="4.85997">
        <ele>215.769409</ele>
        <time>2016-05-22T06:19:54Z</time>
      </trkpt>
      <trkpt lat="45.84584" lon="4.86005">
        <ele>216.082642</ele>
        <time>2016-05-22T06:19:56Z</time>
      </trkpt>
      <trkpt lat="45.84587" lon="4.86013">
        <ele>216.4617</ele>
        <time>2016-05-22T06:19:58Z</time>
      </trkpt>
      <trkpt lat="45.8459" lon="4.86021">
        <ele>216.783325</ele>
        <time>2016-05-22T06:20:00Z</time>
      </trkpt>
      <trkpt lat="45.84593" lon="4.86028">
        <ele>217.134796</ele>
        <time>2016-05-22T06:20:02Z</time>
      </trkpt>
      <trkpt lat="45.84596" lon="4.86035">
        <ele>217.27536</ele>
        <time>2016-05-22T06:20:04Z</time>
      </trkpt>
      <trkpt lat="45.84599" lon="4.86042">
        <ele>217.700119</ele>
        <time>2016-05-22T06:20:06Z</time>
      </trkpt>
      <trkpt lat="45.84604" lon="4.86049">
        <ele>217.968536</ele>
        <time>2016-05-22T06:20:08Z</time>
      </trkpt>
      <trkpt lat="45.84608" lon="4.86056">
        <ele>218.411789</ele>
        <time>2016-05-22T06:20:10Z</time>
      </trkpt>
      <trkpt lat="45.84612" lon="4.86063">
        <ele>218.871613</ele>
        <time>2016-05-22T06:20:12Z</time>
      </trkpt>
      <trkpt lat="45.84615" lon="4.86072">
        <ele>219.233124</ele>
        <time>2016-05-22T06:20:14Z</time>
      </trkpt>
      <trkpt lat="45.84619" lon="4.86079">
        <ele>219.542282</ele>
        <time>2016-05-22T06:20:16Z</time>
      </trkpt>
      <trkpt lat="45.84625" lon="4.86083">
        <ele>219.900192</ele>
        <time>2016-05-22T06:20:18Z</time>
      </trkpt>
      <trkpt lat="45.84631" lon="4.86084">
        <ele>220.245316</ele>
        <time>2016-05-22T06:20:20Z</time>
      </trkpt>
      <trkpt lat="45.84639" lon="4.86087">
        <ele>220.592606</ele>
        <time>2016-05-22T06:20:22Z</time>
      </trkpt>
      <trkpt lat="45.84645" lon="4.86092">
        <ele>220.700974</ele>
        <time>2016-05-22T06:20:24Z</time>
      </trkpt>
      <trkpt lat="45.84651" lon="4.86096">
        <ele>220.831909</ele>
        <time>2016-05-22T06:20:26Z</time>
      </trkpt>
      <trkpt lat="45.84658" lon="4.86101">
        <ele>220.927811</ele>
        <time>2016-05-22T06:20:28Z</time>
      </trkpt>
      <trkpt lat="45.84665" lon="4.86105">
        <ele>221.136566</ele>
        <time>2016-05-22T06:20:30Z</time>
      </trkpt>
      <trkpt lat="45.84672" lon="4.8611">
        <ele>221.325684</ele>
        <time>2016-05-22T06:20:32Z</time>
      </trkpt>
      <trkpt lat="45.84679" lon="4.86114">
        <ele>221.599152</ele>
        <time>2016-05-22T06:20:34Z</time>
      </trkpt>
      <trkpt lat="45.84686" lon="4.8612">
        <ele>221.772949</ele>
        <time>2016-05-22T06:20:36Z</time>
      </trkpt>
      <trkpt lat="45.84692" lon="4.86127">
        <ele>221.871307</ele>
        <time>2016-05-22T06:20:38Z</time>
      </trkpt>
      <trkpt lat="45.84698" lon="4.86135">
        <ele>221.977127</ele>
        <time>2016-05-22T06:20:40Z</time>
      </trkpt>
      <trkpt lat="45.84704" lon="4.86144">
        <ele>222.051712</ele>
        <time>2016-05-22T06:20:42Z</time>
      </trkpt>
      <trkpt lat="45.8471" lon="4.86153">
        <ele>222.192352</ele>
        <time>2016-05-22T06:20:44Z</time>
      </trkpt>
      <trkpt lat="45.84716" lon="4.86162">
        <ele>222.315094</ele>
        <time>2016-05-22T06:20:46Z</time>
      </trkpt>
      <trkpt lat="45.84721" lon="4.86171">
        <ele>222.30014</ele>
        <time>2016-05-22T06:20:48Z</time>
      </trkpt>
      <trkpt lat="45.84728" lon="4.8618">
        <ele>222.344894</ele>
        <time>2016-05-22T06:20:50Z</time>
      </trkpt>
      <trkpt lat="45.84733" lon="4.86189">
        <ele>222.497238</ele>
        <time>2016-05-22T06:20:52Z</time>
      </trkpt>
      <trkpt lat="45.84739" lon="4.86198">
        <ele>222.463165</ele>
        <time>2016-05-22T06:20:54Z</time>
      </trkpt>
      <trkpt lat="45.84745" lon="4.86207">
        <ele>222.551392</ele>
        <time>2016-05-22T06:20:56Z</time>
      </trkpt>
      <trkpt lat="45.84752" lon="4.86216">
        <ele>222.536942</ele>
        <time>2016-05-22T06:20:58Z</time>
      </trkpt>
      <trkpt lat="45.84758" lon="4.86225">
        <ele>222.55986</ele>
        <time>2016-05-22T06:21:00Z</time>
      </trkpt>
      <trkpt lat="45.84764" lon="4.86235">
        <ele>222.741013</ele>
        <time>2016-05-22T06:21:02Z</time>
      </trkpt>
      <trkpt lat="45.84769" lon="4.86245">
        <ele>222.821075</ele>
        <time>2016-05-22T06:21:04Z</time>
      </trkpt>
      <trkpt lat="45.84773" lon="4.86256">
        <ele>222.987259</ele>
        <time>2016-05-22T06:21:06Z</time>
      </trkpt>
      <trkpt lat="45.84777" lon="4.86267">
        <ele>223.071533</ele>
        <time>2016-05-22T06:21:08Z</time>
      </trkpt>
      <trkpt lat="45.8478" lon="4.86279">
        <ele>223.101364</ele>
        <time>2016-05-22T06:21:10Z</time>
      </trkpt>
      <trkpt lat="45.84782" lon="4.8629">
        <ele>223.15036</ele>
        <time>2016-05-22T06:21:12Z</time>
      </trkpt>
      <trkpt lat="45.84784" lon="4.86302">
        <ele>223.116257</ele>
        <time>2016-05-22T06:21:14Z</time>
      </trkpt>
      <trkpt lat="45.84787" lon="4.86314">
        <ele>223.104889</ele>
        <time>2016-05-22T06:21:16Z</time>
      </trkpt>
      <trkpt lat="45.8479" lon="4.86326">
        <ele>223.180344</ele>
        <time>2016-05-22T06:21:18Z</time>
      </trkpt>
      <trkpt lat="45.84793" lon="4.86337">
        <ele>223.260956</ele>
        <time>2016-05-22T06:21:20Z</time>
      </trkpt>
      <trkpt lat="45.84796" lon="4.86348">
        <ele>223.353317</ele>
        <time>2016-05-22T06:21:22Z</time>
      </trkpt>
      <trkpt lat="45.84799" lon="4.86358">
        <ele>223.462006</ele>
        <time>2016-05-22T06:21:24Z</time>
      </trkpt>
      <trkpt lat="45.84803" lon="4.86369">
        <ele>223.643188</ele>
        <time>2016-05-22T06:21:26Z</time>
      </trkpt>
      <trkpt lat="45.84808" lon="4.86379">
        <ele>223.845673</ele>
        <time>2016-05-22T06:21:28Z</time>
      </trkpt>
      <trkpt lat="45.84812" lon="4.86391">
        <ele>224.014069</ele>
        <time>2016-05-22T06:21:30Z</time>
      </trkpt>
      <trkpt lat="45.84816" lon="4.86402">
        <ele>224.113358</ele>
        <time>2016-05-22T06:21:32Z</time>
      </trkpt>
      <trkpt lat="45.8482" lon="4.86412">
        <ele>224.196487</ele>
        <time>2016-05-22T06:21:34Z</time>
      </trkpt>
      <trkpt lat="45.84826" lon="4.86421">
        <ele>224.358475</ele>
        <time>2016-05-22T06:21:36Z</time>
      </trkpt>
      <trkpt lat="45.84832" lon="4.86429">
        <ele>224.396851</ele>
        <time>2016-05-22T06:21:38Z</time>
      </trkpt>
      <trkpt lat="45.84837" lon="4.86434">
        <ele>224.650955</ele>
        <time>2016-05-22T06:21:40Z</time>
      </trkpt>
      <trkpt lat="45.84842" lon="4.86438">
        <ele>224.768188</ele>
        <time>2016-05-22T06:21:42Z</time>
      </trkpt>
      <trkpt lat="45.84847" lon="4.86441">
        <ele>224.802567</ele>
        <time>2016-05-22T06:21:44Z</time>
      </trkpt>
      <trkpt lat="45.84852" lon="4.86442">
        <ele>224.856812</ele>
        <time>2016-05-22T06:21:46Z</time>
      </trkpt>
      <trkpt lat="45.84855" lon="4.86448">
        <ele>225.06572</ele>
        <time>2016-05-22T06:21:48Z</time>
      </trkpt>
      <trkpt lat="45.84853" lon="4.86457">
        <ele>225.268234</ele>
        <time>2016-05-22T06:21:50Z</time>
      </trkpt>
      <trkpt lat="45.84852" lon="4.86464">
        <ele>225.443024</ele>
        <time>2016-05-22T06:21:52Z</time>
      </trkpt>
      <trkpt lat="45.8485" lon="4.86472">
        <ele>225.690277</ele>
        <time>2016-05-22T06:21:54Z</time>
      </trkpt>
      <trkpt lat="45.84849" lon="4.86478">
        <ele>225.876343</ele>
        <time>2016-05-22T06:21:56Z</time>
      </trkpt>
      <trkpt lat="45.84847" lon="4.86483">
        <ele>226.091644</ele>
        <time>2016-05-22T06:21:58Z</time>
      </trkpt>
      <trkpt lat="45.84845" lon="4.86489">
        <ele>226.373047</ele>
        <time>2016-05-22T06:22:00Z</time>
      </trkpt>
      <trkpt lat="45.84848" lon="4.86497">
        <ele>226.633133</ele>
        <time>2016-05-22T06:22:02Z</time>
      </trkpt>
      <trkpt lat="45.84846" lon="4.86505">
        <ele>226.854858</ele>
        <time>2016-05-22T06:22:04Z</time>
      </trkpt>
      <trkpt lat="45.84844" lon="4.8651">
        <ele>227.063766</ele>
        <time>2016-05-22T06:22:06Z</time>
      </trkpt>
      <trkpt lat="45.8484" lon="4.86513">
        <ele>227.189285</ele>
        <time>2016-05-22T06:22:08Z</time>
      </trkpt>
      <trkpt lat="45.84837" lon="4.86516">
        <ele>227.455841</ele>
        <time>2016-05-22T06:22:10Z</time>
      </trkpt>
      <trkpt lat="45.84834" lon="4.86518">
        <ele>227.75647</ele>
        <time>2016-05-22T06:22:12Z</time>
      </trkpt>
      <trkpt lat="45.84831" lon="4.86521">
        <ele>228.132645</ele>
        <time>2016-05-22T06:22:14Z</time>
      </trkpt>
      <trkpt lat="45.84827" lon="4.86523">
        <ele>228.422729</ele>
        <time>2016-05-22T06:22:16Z</time>
      </trkpt>
      <trkpt lat="45.84824" lon="4.86526">
        <ele>228.800171</ele>
        <time>2016-05-22T06:22:18Z</time>
      </trkpt>
      <trkpt lat="45.84821" lon="4.8653">
        <ele>229.365356</ele>
        <time>2016-05-22T06:22:20Z</time>
      </trkpt>
      <trkpt lat="45.84819" lon="4.86534">
        <ele>229.892166</ele>
        <time>2016-05-22T06:22:22Z</time>
      </trkpt>
      <trkpt lat="45.84817" lon="4.86537">
        <ele>230.335541</ele>
        <time>2016-05-22T06:22:24Z</time>
      </trkpt>
      <trkpt lat="45.84815" lon="4.86541">
        <ele>230.828293</ele>
        <time>2016-05-22T06:22:26Z</time>
      </trkpt>
      <trkpt lat="45.84816" lon="4.86545">
        <ele>231.36795</ele>
        <time>2016-05-22T06:22:28Z</time>
      </trkpt>
      <trkpt lat="45.84816" lon="4.8655">
        <ele>231.587646</ele>
        <time>2016-05-22T06:22:30Z</time>
      </trkpt>
      <trkpt lat="45.84819" lon="4.86553">
        <ele>232.049759</ele>
        <time>2016-05-22T06:22:32Z</time>
      </trkpt>
      <trkpt lat="45.8482" lon="4.86558">
        <ele>232.504028</ele>
        <time>2016-05-22T06:22:34Z</time>
      </trkpt>
      <trkpt lat="45.84819" lon="4.86563">
        <ele>233.4216</ele>
        <time>2016-05-22T06:22:38Z</time>
      </trkpt>
      <trkpt lat="45.8482" lon="4.86568">
        <ele>234.264206</ele>
        <time>2016-05-22T06:22:42Z</time>
      </trkpt>
      <trkpt lat="45.84823" lon="4.86573">
        <ele>234.690842</ele>
        <time>2016-05-22T06:22:44Z</time>
      </trkpt>
      <trkpt lat="45.84825" lon="4.86579">
        <ele>235.079071</ele>
        <time>2016-05-22T06:22:46Z</time>
      </trkpt>
      <trkpt lat="45.8483" lon="4.86586">
        <ele>235.260422</ele>
        <time>2016-05-22T06:22:48Z</time>
      </trkpt>
      <trkpt lat="45.84835" lon="4.86595">
        <ele>235.610962</ele>
        <time>2016-05-22T06:22:50Z</time>
      </trkpt>
      <trkpt lat="45.84839" lon="4.86604">
        <ele>235.892059</ele>
        <time>2016-05-22T06:22:52Z</time>
      </trkpt>
      <trkpt lat="45.84843" lon="4.8661">
        <ele>236.231277</ele>
        <time>2016-05-22T06:22:54Z</time>
      </trkpt>
      <trkpt lat="45.84848" lon="4.86617">
        <ele>236.395554</ele>
        <time>2016-05-22T06:22:56Z</time>
      </trkpt>
      <trkpt lat="45.84853" lon="4.86624">
        <ele>236.546997</ele>
        <time>2016-05-22T06:22:58Z</time>
      </trkpt>
      <trkpt lat="45.84861" lon="4.86631">
        <ele>236.756927</ele>
        <time>2016-05-22T06:23:00Z</time>
      </trkpt>
      <trkpt lat="45.84869" lon="4.86637">
        <ele>236.825027</ele>
        <time>2016-05-22T06:23:02Z</time>
      </trkpt>
      <trkpt lat="45.84874" lon="4.86643">
        <ele>236.869843</ele>
        <time>2016-05-22T06:23:04Z</time>
      </trkpt>
      <trkpt lat="45.8488" lon="4.86648">
        <ele>237.036331</ele>
        <time>2016-05-22T06:23:06Z</time>
      </trkpt>
      <trkpt lat="45.84885" lon="4.86653">
        <ele>236.961639</ele>
        <time>2016-05-22T06:23:08Z</time>
      </trkpt>
      <trkpt lat="45.8489" lon="4.86662">
        <ele>236.889084</ele>
        <time>2016-05-22T06:23:10Z</time>
      </trkpt>
      <trkpt lat="45.84895" lon="4.8667">
        <ele>236.92749</ele>
        <time>2016-05-22T06:23:12Z</time>
      </trkpt>
      <trkpt lat="45.84898" lon="4.86677">
        <ele>236.951736</ele>
        <time>2016-05-22T06:23:14Z</time>
      </trkpt>
      <trkpt lat="45.84902" lon="4.86684">
        <ele>237.077637</ele>
        <time>2016-05-22T06:23:16Z</time>
      </trkpt>
      <trkpt lat="45.84907" lon="4.86689">
        <ele>237.014801</ele>
        <time>2016-05-22T06:23:18Z</time>
      </trkpt>
      <trkpt lat="45.84913" lon="4.86696">
        <ele>237.016937</ele>
        <time>2016-05-22T06:23:20Z</time>
      </trkpt>
      <trkpt lat="45.84918" lon="4.86704">
        <ele>236.96785</ele>
        <time>2016-05-22T06:23:22Z</time>
      </trkpt>
      <trkpt lat="45.84924" lon="4.86708">
        <ele>237.037872</ele>
        <time>2016-05-22T06:23:24Z</time>
      </trkpt>
      <trkpt lat="45.84932" lon="4.8671">
        <ele>237.020782</ele>
        <time>2016-05-22T06:23:26Z</time>
      </trkpt>
      <trkpt lat="45.84938" lon="4.86716">
        <ele>237.050659</ele>
        <time>2016-05-22T06:23:28Z</time>
      </trkpt>
      <trkpt lat="45.84943" lon="4.86723">
        <ele>237.069504</ele>
        <time>2016-05-22T06:23:30Z</time>
      </trkpt>
      <trkpt lat="45.8495" lon="4.86729">
        <ele>237.208771</ele>
        <time>2016-05-22T06:23:32Z</time>
      </trkpt>
      <trkpt lat="45.84958" lon="4.86737">
        <ele>237.262131</ele>
        <time>2016-05-22T06:23:34Z</time>
      </trkpt>
      <trkpt lat="45.84963" lon="4.86746">
        <ele>237.210907</ele>
        <time>2016-05-22T06:23:36Z</time>
      </trkpt>
      <trkpt lat="45.84968" lon="4.86754">
        <ele>237.299637</ele>
        <time>2016-05-22T06:23:38Z</time>
      </trkpt>
      <trkpt lat="45.84972" lon="4.8676">
        <ele>237.316696</ele>
        <time>2016-05-22T06:23:40Z</time>
      </trkpt>
      <trkpt lat="45.84979" lon="4.86766">
        <ele>237.271042</ele>
        <time>2016-05-22T06:23:42Z</time>
      </trkpt>
      <trkpt lat="45.84987" lon="4.86771">
        <ele>237.177368</ele>
        <time>2016-05-22T06:23:44Z</time>
      </trkpt>
      <trkpt lat="45.84995" lon="4.86774">
        <ele>237.256378</ele>
        <time>2016-05-22T06:23:46Z</time>
      </trkpt>
      <trkpt lat="45.85004" lon="4.86779">
        <ele>237.170975</ele>
        <time>2016-05-22T06:23:48Z</time>
      </trkpt>
      <trkpt lat="45.85012" lon="4.86782">
        <ele>237.442093</ele>
        <time>2016-05-22T06:23:50Z</time>
      </trkpt>
      <trkpt lat="45.85019" lon="4.86786">
        <ele>237.495438</ele>
        <time>2016-05-22T06:23:52Z</time>
      </trkpt>
      <trkpt lat="45.85025" lon="4.86793">
        <ele>237.542404</ele>
        <time>2016-05-22T06:23:54Z</time>
      </trkpt>
      <trkpt lat="45.85029" lon="4.86803">
        <ele>237.480515</ele>
        <time>2016-05-22T06:23:56Z</time>
      </trkpt>
      <trkpt lat="45.85033" lon="4.86814">
        <ele>237.580811</ele>
        <time>2016-05-22T06:23:58Z</time>
      </trkpt>
      <trkpt lat="45.85038" lon="4.86823">
        <ele>237.779297</ele>
        <time>2016-05-22T06:24:00Z</time>
      </trkpt>
      <trkpt lat="45.85044" lon="4.86831">
        <ele>237.924438</ele>
        <time>2016-05-22T06:24:02Z</time>
      </trkpt>
      <trkpt lat="45.8505" lon="4.86838">
        <ele>237.967117</ele>
        <time>2016-05-22T06:24:04Z</time>
      </trkpt>
      <trkpt lat="45.85056" lon="4.86843">
        <ele>238.040115</ele>
        <time>2016-05-22T06:24:06Z</time>
      </trkpt>
      <trkpt lat="45.85064" lon="4.86844">
        <ele>238.328781</ele>
        <time>2016-05-22T06:24:08Z</time>
      </trkpt>
      <trkpt lat="45.85074" lon="4.8684">
        <ele>237.962723</ele>
        <time>2016-05-22T06:24:10Z</time>
      </trkpt>
      <trkpt lat="45.85083" lon="4.86838">
        <ele>237.824005</ele>
        <time>2016-05-22T06:24:12Z</time>
      </trkpt>
      <trkpt lat="45.85093" lon="4.86839">
        <ele>237.604172</ele>
        <time>2016-05-22T06:24:14Z</time>
      </trkpt>
      <trkpt lat="45.85101" lon="4.86842">
        <ele>237.647736</ele>
        <time>2016-05-22T06:24:16Z</time>
      </trkpt>
      <trkpt lat="45.85106" lon="4.86849">
        <ele>237.629425</ele>
        <time>2016-05-22T06:24:18Z</time>
      </trkpt>
      <trkpt lat="45.85109" lon="4.86858">
        <ele>237.69986</ele>
        <time>2016-05-22T06:24:20Z</time>
      </trkpt>
      <trkpt lat="45.85111" lon="4.86866">
        <ele>237.772415</ele>
        <time>2016-05-22T06:24:22Z</time>
      </trkpt>
      <trkpt lat="45.85115" lon="4.86875">
        <ele>237.819336</ele>
        <time>2016-05-22T06:24:24Z</time>
      </trkpt>
      <trkpt lat="45.85119" lon="4.8688">
        <ele>237.881195</ele>
        <time>2016-05-22T06:24:26Z</time>
      </trkpt>
      <trkpt lat="45.85123" lon="4.86885">
        <ele>237.985764</ele>
        <time>2016-05-22T06:24:28Z</time>
      </trkpt>
      <trkpt lat="45.85129" lon="4.86889">
        <ele>238.028442</ele>
        <time>2016-05-22T06:24:30Z</time>
      </trkpt>
      <trkpt lat="45.85133" lon="4.86897">
        <ele>237.893265</ele>
        <time>2016-05-22T06:24:32Z</time>
      </trkpt>
      <trkpt lat="45.85137" lon="4.86906">
        <ele>237.891113</ele>
        <time>2016-05-22T06:24:34Z</time>
      </trkpt>
      <trkpt lat="45.8514" lon="4.86915">
        <ele>237.810013</ele>
        <time>2016-05-22T06:24:36Z</time>
      </trkpt>
      <trkpt lat="45.85144" lon="4.86924">
        <ele>237.884689</ele>
        <time>2016-05-22T06:24:38Z</time>
      </trkpt>
      <trkpt lat="45.85149" lon="4.86927">
        <ele>237.888962</ele>
        <time>2016-05-22T06:24:40Z</time>
      </trkpt>
      <trkpt lat="45.85154" lon="4.86924">
        <ele>237.756638</ele>
        <time>2016-05-22T06:24:42Z</time>
      </trkpt>
      <trkpt lat="45.85162" lon="4.86924">
        <ele>237.652069</ele>
        <time>2016-05-22T06:24:44Z</time>
      </trkpt>
      <trkpt lat="45.85169" lon="4.86928">
        <ele>237.688354</ele>
        <time>2016-05-22T06:24:46Z</time>
      </trkpt>
      <trkpt lat="45.85173" lon="4.86935">
        <ele>237.66011</ele>
        <time>2016-05-22T06:24:48Z</time>
      </trkpt>
      <trkpt lat="45.85178" lon="4.86944">
        <ele>237.480759</ele>
        <time>2016-05-22T06:24:50Z</time>
      </trkpt>
      <trkpt lat="45.85182" lon="4.86952">
        <ele>237.885223</ele>
        <time>2016-05-22T06:24:52Z</time>
      </trkpt>
      <trkpt lat="45.85186" lon="4.86961">
        <ele>238.055954</ele>
        <time>2016-05-22T06:24:54Z</time>
      </trkpt>
      <trkpt lat="45.85191" lon="4.86969">
        <ele>238.162643</ele>
        <time>2016-05-22T06:24:56Z</time>
      </trkpt>
      <trkpt lat="45.85197" lon="4.86977">
        <ele>238.16391</ele>
        <time>2016-05-22T06:24:58Z</time>
      </trkpt>
      <trkpt lat="45.85202" lon="4.86986">
        <ele>238.238602</ele>
        <time>2016-05-22T06:25:00Z</time>
      </trkpt>
      <trkpt lat="45.85207" lon="4.86995">
        <ele>238.251419</ele>
        <time>2016-05-22T06:25:02Z</time>
      </trkpt>
      <trkpt lat="45.85211" lon="4.87004">
        <ele>238.277023</ele>
        <time>2016-05-22T06:25:04Z</time>
      </trkpt>
      <trkpt lat="45.85214" lon="4.87014">
        <ele>238.2258</ele>
        <time>2016-05-22T06:25:06Z</time>
      </trkpt>
      <trkpt lat="45.8522" lon="4.87022">
        <ele>238.185226</ele>
        <time>2016-05-22T06:25:08Z</time>
      </trkpt>
      <trkpt lat="45.85227" lon="4.87023">
        <ele>238.078522</ele>
        <time>2016-05-22T06:25:10Z</time>
      </trkpt>
      <trkpt lat="45.85235" lon="4.87022">
        <ele>238.128265</ele>
        <time>2016-05-22T06:25:12Z</time>
      </trkpt>
      <trkpt lat="45.85242" lon="4.87022">
        <ele>238.171066</ele>
        <time>2016-05-22T06:25:14Z</time>
      </trkpt>
      <trkpt lat="45.85249" lon="4.87021">
        <ele>238.252167</ele>
        <time>2016-05-22T06:25:16Z</time>
      </trkpt>
      <trkpt lat="45.85255" lon="4.87021">
        <ele>238.294876</ele>
        <time>2016-05-22T06:25:18Z</time>
      </trkpt>
      <trkpt lat="45.85261" lon="4.8702">
        <ele>238.356766</ele>
        <time>2016-05-22T06:25:20Z</time>
      </trkpt>
      <trkpt lat="45.85267" lon="4.87019">
        <ele>238.373825</ele>
        <time>2016-05-22T06:25:22Z</time>
      </trkpt>
      <trkpt lat="45.85271" lon="4.87017">
        <ele>238.478424</ele>
        <time>2016-05-22T06:25:24Z</time>
      </trkpt>
      <trkpt lat="45.85275" lon="4.87016">
        <ele>238.579926</ele>
        <time>2016-05-22T06:25:26Z</time>
      </trkpt>
      <trkpt lat="45.85277" lon="4.87014">
        <ele>238.620514</ele>
        <time>2016-05-22T06:25:28Z</time>
      </trkpt>
      <trkpt lat="45.85279" lon="4.87014">
        <ele>238.622635</ele>
        <time>2016-05-22T06:25:30Z</time>
      </trkpt>
      <trkpt lat="45.85281" lon="4.87015">
        <ele>238.697342</ele>
        <time>2016-05-22T06:25:32Z</time>
      </trkpt>
      <trkpt lat="45.85283" lon="4.87015">
        <ele>238.697342</ele>
        <time>2016-05-22T06:25:34Z</time>
      </trkpt>
      <trkpt lat="45.85286" lon="4.87013">
        <ele>238.710159</ele>
        <time>2016-05-22T06:25:36Z</time>
      </trkpt>
      <trkpt lat="45.8529" lon="4.87012">
        <ele>238.806198</ele>
        <time>2016-05-22T06:25:38Z</time>
      </trkpt>
      <trkpt lat="45.85295" lon="4.87011">
        <ele>238.888474</ele>
        <time>2016-05-22T06:25:40Z</time>
      </trkpt>
      <trkpt lat="45.85299" lon="4.87011">
        <ele>239.095551</ele>
        <time>2016-05-22T06:25:42Z</time>
      </trkpt>
      <trkpt lat="45.85303" lon="4.87009">
        <ele>239.270599</ele>
        <time>2016-05-22T06:25:44Z</time>
      </trkpt>
      <trkpt lat="45.85306" lon="4.87007">
        <ele>239.533173</ele>
        <time>2016-05-22T06:25:46Z</time>
      </trkpt>
      <trkpt lat="45.85306" lon="4.87003">
        <ele>239.834183</ele>
        <time>2016-05-22T06:25:48Z</time>
      </trkpt>
      <trkpt lat="45.85306" lon="4.86998">
        <ele>240.079681</ele>
        <time>2016-05-22T06:25:50Z</time>
      </trkpt>
      <trkpt lat="45.85305" lon="4.86994">
        <ele>240.451172</ele>
        <time>2016-05-22T06:25:52Z</time>
      </trkpt>
      <trkpt lat="45.85305" lon="4.8699">
        <ele>240.711624</ele>
        <time>2016-05-22T06:25:54Z</time>
      </trkpt>
      <trkpt lat="45.85306" lon="4.86986">
        <ele>241.012573</ele>
        <time>2016-05-22T06:25:56Z</time>
      </trkpt>
      <trkpt lat="45.85307" lon="4.86982">
        <ele>241.452393</ele>
        <time>2016-05-22T06:25:58Z</time>
      </trkpt>
      <trkpt lat="45.85307" lon="4.86978">
        <ele>241.85173</ele>
        <time>2016-05-22T06:26:00Z</time>
      </trkpt>
      <trkpt lat="45.85307" lon="4.86974">
        <ele>242.02681</ele>
        <time>2016-05-22T06:26:02Z</time>
      </trkpt>
      <trkpt lat="45.85306" lon="4.86969">
        <ele>242.440598</ele>
        <time>2016-05-22T06:26:04Z</time>
      </trkpt>
      <trkpt lat="45.85306" lon="4.86964">
        <ele>242.801483</ele>
        <time>2016-05-22T06:26:06Z</time>
      </trkpt>
      <trkpt lat="45.85306" lon="4.86959">
        <ele>243.27005</ele>
        <time>2016-05-22T06:26:08Z</time>
      </trkpt>
      <trkpt lat="45.85305" lon="4.86955">
        <ele>243.69072</ele>
        <time>2016-05-22T06:26:10Z</time>
      </trkpt>
      <trkpt lat="45.85305" lon="4.86951">
        <ele>244.231033</ele>
        <time>2016-05-22T06:26:12Z</time>
      </trkpt>
      <trkpt lat="45.85305" lon="4.86946">
        <ele>244.683762</ele>
        <time>2016-05-22T06:26:14Z</time>
      </trkpt>
      <trkpt lat="45.85305" lon="4.86941">
        <ele>245.258224</ele>
        <time>2016-05-22T06:26:16Z</time>
      </trkpt>
      <trkpt lat="45.85305" lon="4.86937">
        <ele>245.841263</ele>
        <time>2016-05-22T06:26:18Z</time>
      </trkpt>
      <trkpt lat="45.85306" lon="4.86933">
        <ele>246.322556</ele>
        <time>2016-05-22T06:26:20Z</time>
      </trkpt>
      <trkpt lat="45.85307" lon="4.86929">
        <ele>246.828781</ele>
        <time>2016-05-22T06:26:22Z</time>
      </trkpt>
      <trkpt lat="45.85308" lon="4.86925">
        <ele>247.311569</ele>
        <time>2016-05-22T06:26:24Z</time>
      </trkpt>
      <trkpt lat="45.85309" lon="4.86921">
        <ele>247.623459</ele>
        <time>2016-05-22T06:26:26Z</time>
      </trkpt>
      <trkpt lat="45.8531" lon="4.86917">
        <ele>248.125519</ele>
        <time>2016-05-22T06:26:28Z</time>
      </trkpt>
      <trkpt lat="45.85311" lon="4.86913">
        <ele>248.678864</ele>
        <time>2016-05-22T06:26:30Z</time>
      </trkpt>
      <trkpt lat="45.85313" lon="4.8691">
        <ele>249.190399</ele>
        <time>2016-05-22T06:26:32Z</time>
      </trkpt>
      <trkpt lat="45.85315" lon="4.86907">
        <ele>249.714767</ele>
        <time>2016-05-22T06:26:34Z</time>
      </trkpt>
      <trkpt lat="45.85317" lon="4.86903">
        <ele>250.264603</ele>
        <time>2016-05-22T06:26:36Z</time>
      </trkpt>
      <trkpt lat="45.85318" lon="4.86899">
        <ele>250.922821</ele>
        <time>2016-05-22T06:26:38Z</time>
      </trkpt>
      <trkpt lat="45.8532" lon="4.86895">
        <ele>251.477463</ele>
        <time>2016-05-22T06:26:40Z</time>
      </trkpt>
      <trkpt lat="45.85322" lon="4.86892">
        <ele>252.052444</ele>
        <time>2016-05-22T06:26:42Z</time>
      </trkpt>
      <trkpt lat="45.85324" lon="4.86888">
        <ele>252.777435</ele>
        <time>2016-05-22T06:26:44Z</time>
      </trkpt>
      <trkpt lat="45.85326" lon="4.86885">
        <ele>253.320313</ele>
        <time>2016-05-22T06:26:46Z</time>
      </trkpt>
      <trkpt lat="45.85327" lon="4.86881">
        <ele>253.925247</ele>
        <time>2016-05-22T06:26:48Z</time>
      </trkpt>
      <trkpt lat="45.85329" lon="4.86877">
        <ele>254.233063</ele>
        <time>2016-05-22T06:26:50Z</time>
      </trkpt>
      <trkpt lat="45.8533" lon="4.86873">
        <ele>254.808319</ele>
        <time>2016-05-22T06:26:52Z</time>
      </trkpt>
      <trkpt lat="45.85331" lon="4.86869">
        <ele>255.323273</ele>
        <time>2016-05-22T06:26:54Z</time>
      </trkpt>
      <trkpt lat="45.85333" lon="4.86865">
        <ele>255.951813</ele>
        <time>2016-05-22T06:26:56Z</time>
      </trkpt>
      <trkpt lat="45.85334" lon="4.86862">
        <ele>256.539734</ele>
        <time>2016-05-22T06:26:58Z</time>
      </trkpt>
      <trkpt lat="45.85334" lon="4.8686">
        <ele>257.09198</ele>
        <time>2016-05-22T06:27:00Z</time>
      </trkpt>
      <trkpt lat="45.85335" lon="4.86856">
        <ele>258.19458</ele>
        <time>2016-05-22T06:27:04Z</time>
      </trkpt>
      <trkpt lat="45.85336" lon="4.86852">
        <ele>258.703247</ele>
        <time>2016-05-22T06:27:06Z</time>
      </trkpt>
      <trkpt lat="45.85338" lon="4.86849">
        <ele>259.126648</ele>
        <time>2016-05-22T06:27:08Z</time>
      </trkpt>
      <trkpt lat="45.85339" lon="4.86845">
        <ele>259.545807</ele>
        <time>2016-05-22T06:27:10Z</time>
      </trkpt>
      <trkpt lat="45.8534" lon="4.8684">
        <ele>260.043152</ele>
        <time>2016-05-22T06:27:12Z</time>
      </trkpt>
      <trkpt lat="45.8534" lon="4.86835">
        <ele>260.265564</ele>
        <time>2016-05-22T06:27:14Z</time>
      </trkpt>
      <trkpt lat="45.85339" lon="4.86831">
        <ele>260.646454</ele>
        <time>2016-05-22T06:27:16Z</time>
      </trkpt>
      <trkpt lat="45.85339" lon="4.86827">
        <ele>260.99649</ele>
        <time>2016-05-22T06:27:18Z</time>
      </trkpt>
      <trkpt lat="45.85338" lon="4.86822">
        <ele>261.229614</ele>
        <time>2016-05-22T06:27:20Z</time>
      </trkpt>
      <trkpt lat="45.85337" lon="4.86816">
        <ele>261.521515</ele>
        <time>2016-05-22T06:27:22Z</time>
      </trkpt>
      <trkpt lat="45.8534" lon="4.8681">
        <ele>261.726868</ele>
        <time>2016-05-22T06:27:24Z</time>
      </trkpt>
      <trkpt lat="45.85344" lon="4.86807">
        <ele>261.874451</ele>
        <time>2016-05-22T06:27:26Z</time>
      </trkpt>
      <trkpt lat="45.85348" lon="4.86805">
        <ele>262.246643</ele>
        <time>2016-05-22T06:27:28Z</time>
      </trkpt>
      <trkpt lat="45.85352" lon="4.86803">
        <ele>262.477722</ele>
        <time>2016-05-22T06:27:30Z</time>
      </trkpt>
      <trkpt lat="45.85355" lon="4.868">
        <ele>262.578247</ele>
        <time>2016-05-22T06:27:32Z</time>
      </trkpt>
      <trkpt lat="45.85359" lon="4.86798">
        <ele>262.800354</ele>
        <time>2016-05-22T06:27:34Z</time>
      </trkpt>
      <trkpt lat="45.85363" lon="4.86796">
        <ele>263.113007</ele>
        <time>2016-05-22T06:27:36Z</time>
      </trkpt>
      <trkpt lat="45.85367" lon="4.86794">
        <ele>263.318756</ele>
        <time>2016-05-22T06:27:38Z</time>
      </trkpt>
      <trkpt lat="45.85372" lon="4.86792">
        <ele>263.498474</ele>
        <time>2016-05-22T06:27:40Z</time>
      </trkpt>
      <trkpt lat="45.85378" lon="4.86789">
        <ele>263.668945</ele>
        <time>2016-05-22T06:27:42Z</time>
      </trkpt>
      <trkpt lat="45.85384" lon="4.86786">
        <ele>263.868317</ele>
        <time>2016-05-22T06:27:44Z</time>
      </trkpt>
      <trkpt lat="45.85391" lon="4.86791">
        <ele>264.043365</ele>
        <time>2016-05-22T06:27:46Z</time>
      </trkpt>
      <trkpt lat="45.85395" lon="4.86799">
        <ele>264.255432</ele>
        <time>2016-05-22T06:27:48Z</time>
      </trkpt>
      <trkpt lat="45.854" lon="4.86805">
        <ele>264.495087</ele>
        <time>2016-05-22T06:27:50Z</time>
      </trkpt>
      <trkpt lat="45.85407" lon="4.86807">
        <ele>264.608459</ele>
        <time>2016-05-22T06:27:52Z</time>
      </trkpt>
      <trkpt lat="45.85413" lon="4.86806">
        <ele>264.783966</ele>
        <time>2016-05-22T06:27:54Z</time>
      </trkpt>
      <trkpt lat="45.8542" lon="4.86804">
        <ele>264.906982</ele>
        <time>2016-05-22T06:27:56Z</time>
      </trkpt>
      <trkpt lat="45.85426" lon="4.86802">
        <ele>265.086731</ele>
        <time>2016-05-22T06:27:58Z</time>
      </trkpt>
      <trkpt lat="45.85433" lon="4.86802">
        <ele>265.224609</ele>
        <time>2016-05-22T06:28:00Z</time>
      </trkpt>
      <trkpt lat="45.8544" lon="4.86801">
        <ele>265.267395</ele>
        <time>2016-05-22T06:28:02Z</time>
      </trkpt>
      <trkpt lat="45.85447" lon="4.868">
        <ele>265.321289</ele>
        <time>2016-05-22T06:28:04Z</time>
      </trkpt>
      <trkpt lat="45.85455" lon="4.86797">
        <ele>265.400543</ele>
        <time>2016-05-22T06:28:06Z</time>
      </trkpt>
      <trkpt lat="45.85463" lon="4.86794">
        <ele>265.462585</ele>
        <time>2016-05-22T06:28:08Z</time>
      </trkpt>
      <trkpt lat="45.85471" lon="4.86789">
        <ele>265.411224</ele>
        <time>2016-05-22T06:28:10Z</time>
      </trkpt>
      <trkpt lat="45.85477" lon="4.86781">
        <ele>265.349182</ele>
        <time>2016-05-22T06:28:12Z</time>
      </trkpt>
      <trkpt lat="45.85485" lon="4.86773">
        <ele>265.248718</ele>
        <time>2016-05-22T06:28:14Z</time>
      </trkpt>
      <trkpt lat="45.85493" lon="4.86764">
        <ele>265.152435</ele>
        <time>2016-05-22T06:28:16Z</time>
      </trkpt>
      <trkpt lat="45.85502" lon="4.86755">
        <ele>264.987366</ele>
        <time>2016-05-22T06:28:18Z</time>
      </trkpt>
      <trkpt lat="45.85512" lon="4.86746">
        <ele>264.711365</ele>
        <time>2016-05-22T06:28:20Z</time>
      </trkpt>
      <trkpt lat="45.85522" lon="4.86737">
        <ele>264.559448</ele>
        <time>2016-05-22T06:28:22Z</time>
      </trkpt>
      <trkpt lat="45.85533" lon="4.86728">
        <ele>264.315582</ele>
        <time>2016-05-22T06:28:24Z</time>
      </trkpt>
      <trkpt lat="45.85544" lon="4.8672">
        <ele>264.117401</ele>
        <time>2016-05-22T06:28:26Z</time>
      </trkpt>
      <trkpt lat="45.85556" lon="4.86714">
        <ele>263.946228</ele>
        <time>2016-05-22T06:28:28Z</time>
      </trkpt>
      <trkpt lat="45.85567" lon="4.86706">
        <ele>263.728027</ele>
        <time>2016-05-22T06:28:30Z</time>
      </trkpt>
      <trkpt lat="45.85578" lon="4.86697">
        <ele>263.440613</ele>
        <time>2016-05-22T06:28:32Z</time>
      </trkpt>
      <trkpt lat="45.8559" lon="4.86688">
        <ele>263.314392</ele>
        <time>2016-05-22T06:28:34Z</time>
      </trkpt>
      <trkpt lat="45.85601" lon="4.86679">
        <ele>263.038391</ele>
        <time>2016-05-22T06:28:36Z</time>
      </trkpt>
      <trkpt lat="45.85613" lon="4.86669">
        <ele>262.664032</ele>
        <time>2016-05-22T06:28:38Z</time>
      </trkpt>
      <trkpt lat="45.85624" lon="4.86661">
        <ele>262.26767</ele>
        <time>2016-05-22T06:28:40Z</time>
      </trkpt>
      <trkpt lat="45.85636" lon="4.86653">
        <ele>261.86673</ele>
        <time>2016-05-22T06:28:42Z</time>
      </trkpt>
      <trkpt lat="45.8565" lon="4.86645">
        <ele>261.393616</ele>
        <time>2016-05-22T06:28:44Z</time>
      </trkpt>
      <trkpt lat="45.85664" lon="4.86637">
        <ele>260.912323</ele>
        <time>2016-05-22T06:28:46Z</time>
      </trkpt>
      <trkpt lat="45.85679" lon="4.8663">
        <ele>260.388367</ele>
        <time>2016-05-22T06:28:48Z</time>
      </trkpt>
      <trkpt lat="45.85694" lon="4.86624">
        <ele>259.879395</ele>
        <time>2016-05-22T06:28:50Z</time>
      </trkpt>
      <trkpt lat="45.85711" lon="4.86616">
        <ele>259.370422</ele>
        <time>2016-05-22T06:28:52Z</time>
      </trkpt>
      <trkpt lat="45.8573" lon="4.86607">
        <ele>258.89566</ele>
        <time>2016-05-22T06:28:54Z</time>
      </trkpt>
      <trkpt lat="45.85749" lon="4.86598">
        <ele>258.491638</ele>
        <time>2016-05-22T06:28:56Z</time>
      </trkpt>
      <trkpt lat="45.85769" lon="4.86586">
        <ele>257.971375</ele>
        <time>2016-05-22T06:28:58Z</time>
      </trkpt>
      <trkpt lat="45.85786" lon="4.86571">
        <ele>257.184753</ele>
        <time>2016-05-22T06:29:00Z</time>
      </trkpt>
      <trkpt lat="45.858" lon="4.86552">
        <ele>256.56488</ele>
        <time>2016-05-22T06:29:02Z</time>
      </trkpt>
      <trkpt lat="45.85814" lon="4.86537">
        <ele>256.017792</ele>
        <time>2016-05-22T06:29:04Z</time>
      </trkpt>
      <trkpt lat="45.8583" lon="4.86529">
        <ele>255.443146</ele>
        <time>2016-05-22T06:29:06Z</time>
      </trkpt>
      <trkpt lat="45.85844" lon="4.86524">
        <ele>254.670898</ele>
        <time>2016-05-22T06:29:08Z</time>
      </trkpt>
      <trkpt lat="45.85854" lon="4.86529">
        <ele>253.647247</ele>
        <time>2016-05-22T06:29:10Z</time>
      </trkpt>
      <trkpt lat="45.85862" lon="4.86542">
        <ele>252.786743</ele>
        <time>2016-05-22T06:29:12Z</time>
      </trkpt>
      <trkpt lat="45.85872" lon="4.86552">
        <ele>251.927536</ele>
        <time>2016-05-22T06:29:14Z</time>
      </trkpt>
      <trkpt lat="45.85883" lon="4.86553">
        <ele>250.491898</ele>
        <time>2016-05-22T06:29:16Z</time>
      </trkpt>
      <trkpt lat="45.85892" lon="4.86549">
        <ele>249.643433</ele>
        <time>2016-05-22T06:29:18Z</time>
      </trkpt>
      <trkpt lat="45.85899" lon="4.86546">
        <ele>248.71257</ele>
        <time>2016-05-22T06:29:20Z</time>
      </trkpt>
      <trkpt lat="45.85902" lon="4.86545">
        <ele>248.439041</ele>
        <time>2016-05-22T06:29:22Z</time>
      </trkpt>
      <trkpt lat="45.85906" lon="4.86544">
        <ele>247.525848</ele>
        <time>2016-05-22T06:29:24Z</time>
      </trkpt>
      <trkpt lat="45.85911" lon="4.86541">
        <ele>246.951096</ele>
        <time>2016-05-22T06:29:26Z</time>
      </trkpt>
      <trkpt lat="45.85917" lon="4.86537">
        <ele>246.453278</ele>
        <time>2016-05-22T06:29:28Z</time>
      </trkpt>
      <trkpt lat="45.85922" lon="4.86535">
        <ele>245.846588</ele>
        <time>2016-05-22T06:29:30Z</time>
      </trkpt>
      <trkpt lat="45.85925" lon="4.86535">
        <ele>245.303925</ele>
        <time>2016-05-22T06:29:32Z</time>
      </trkpt>
      <trkpt lat="45.85926" lon="4.86534">
        <ele>244.809723</ele>
        <time>2016-05-22T06:29:34Z</time>
      </trkpt>
      <trkpt lat="45.8593" lon="4.86534">
        <ele>243.784912</ele>
        <time>2016-05-22T06:29:38Z</time>
      </trkpt>
      <trkpt lat="45.85934" lon="4.86532">
        <ele>243.112061</ele>
        <time>2016-05-22T06:29:42Z</time>
      </trkpt>
      <trkpt lat="45.85937" lon="4.8653">
        <ele>243.039459</ele>
        <time>2016-05-22T06:29:44Z</time>
      </trkpt>
      <trkpt lat="45.8594" lon="4.86526">
        <ele>242.71933</ele>
        <time>2016-05-22T06:29:46Z</time>
      </trkpt>
      <trkpt lat="45.85941" lon="4.8652">
        <ele>242.57637</ele>
        <time>2016-05-22T06:29:48Z</time>
      </trkpt>
      <trkpt lat="45.85944" lon="4.86511">
        <ele>242.506439</ele>
        <time>2016-05-22T06:29:50Z</time>
      </trkpt>
      <trkpt lat="45.85944" lon="4.86501">
        <ele>242.596115</ele>
        <time>2016-05-22T06:29:52Z</time>
      </trkpt>
      <trkpt lat="45.85944" lon="4.86496">
        <ele>242.679367</ele>
        <time>2016-05-22T06:29:54Z</time>
      </trkpt>
      <trkpt lat="45.85945" lon="4.86487">
        <ele>242.617432</ele>
        <time>2016-05-22T06:29:56Z</time>
      </trkpt>
      <trkpt lat="45.85951" lon="4.86478">
        <ele>243.054901</ele>
        <time>2016-05-22T06:29:58Z</time>
      </trkpt>
      <trkpt lat="45.85954" lon="4.86467">
        <ele>242.922516</ele>
        <time>2016-05-22T06:30:00Z</time>
      </trkpt>
      <trkpt lat="45.85952" lon="4.86457">
        <ele>243.022827</ele>
        <time>2016-05-22T06:30:02Z</time>
      </trkpt>
      <trkpt lat="45.85949" lon="4.8645">
        <ele>242.968292</ele>
        <time>2016-05-22T06:30:04Z</time>
      </trkpt>
      <trkpt lat="45.85947" lon="4.86444">
        <ele>243.096832</ele>
        <time>2016-05-22T06:30:06Z</time>
      </trkpt>
      <trkpt lat="45.85945" lon="4.8644">
        <ele>242.848969</ele>
        <time>2016-05-22T06:30:08Z</time>
      </trkpt>
      <trkpt lat="45.85944" lon="4.86436">
        <ele>242.5242</ele>
        <time>2016-05-22T06:30:12Z</time>
      </trkpt>
      <trkpt lat="45.85943" lon="4.86433">
        <ele>242.36618</ele>
        <time>2016-05-22T06:30:14Z</time>
      </trkpt>
      <trkpt lat="45.85943" lon="4.86425">
        <ele>242.023163</ele>
        <time>2016-05-22T06:30:22Z</time>
      </trkpt>
      <trkpt lat="45.85941" lon="4.86422">
        <ele>241.867401</ele>
        <time>2016-05-22T06:30:26Z</time>
      </trkpt>
      <trkpt lat="45.85939" lon="4.86418">
        <ele>241.706757</ele>
        <time>2016-05-22T06:30:28Z</time>
      </trkpt>
      <trkpt lat="45.85934" lon="4.8641">
        <ele>241.42276</ele>
        <time>2016-05-22T06:30:30Z</time>
      </trkpt>
      <trkpt lat="45.85931" lon="4.86406">
        <ele>241.162323</ele>
        <time>2016-05-22T06:30:32Z</time>
      </trkpt>
      <trkpt lat="45.85928" lon="4.86403">
        <ele>241.162323</ele>
        <time>2016-05-22T06:30:34Z</time>
      </trkpt>
      <trkpt lat="45.85924" lon="4.86399">
        <ele>241.17514</ele>
        <time>2016-05-22T06:30:36Z</time>
      </trkpt>
      <trkpt lat="45.8592" lon="4.86395">
        <ele>241.246979</ele>
        <time>2016-05-22T06:30:38Z</time>
      </trkpt>
      <trkpt lat="45.85918" lon="4.86394">
        <ele>241.266266</ele>
        <time>2016-05-22T06:30:40Z</time>
      </trkpt>
      <trkpt lat="45.85912" lon="4.86392">
        <ele>241.355957</ele>
        <time>2016-05-22T06:30:42Z</time>
      </trkpt>
      <trkpt lat="45.85906" lon="4.8639">
        <ele>241.268463</ele>
        <time>2016-05-22T06:30:44Z</time>
      </trkpt>
      <trkpt lat="45.85901" lon="4.8639">
        <ele>240.886383</ele>
        <time>2016-05-22T06:30:46Z</time>
      </trkpt>
      <trkpt lat="45.85894" lon="4.86385">
        <ele>240.891525</ele>
        <time>2016-05-22T06:30:48Z</time>
      </trkpt>
      <trkpt lat="45.85888" lon="4.86376">
        <ele>240.748703</ele>
        <time>2016-05-22T06:30:50Z</time>
      </trkpt>
      <trkpt lat="45.85883" lon="4.86364">
        <ele>240.740158</ele>
        <time>2016-05-22T06:30:52Z</time>
      </trkpt>
      <trkpt lat="45.8588" lon="4.86354">
        <ele>240.58371</ele>
        <time>2016-05-22T06:30:54Z</time>
      </trkpt>
      <trkpt lat="45.85876" lon="4.86342">
        <ele>240.359619</ele>
        <time>2016-05-22T06:30:56Z</time>
      </trkpt>
      <trkpt lat="45.8587" lon="4.86327">
        <ele>240.282761</ele>
        <time>2016-05-22T06:30:58Z</time>
      </trkpt>
      <trkpt lat="45.85864" lon="4.8631">
        <ele>240.012421</ele>
        <time>2016-05-22T06:31:00Z</time>
      </trkpt>
      <trkpt lat="45.85859" lon="4.86295">
        <ele>239.868927</ele>
        <time>2016-05-22T06:31:02Z</time>
      </trkpt>
      <trkpt lat="45.85855" lon="4.86283">
        <ele>239.442108</ele>
        <time>2016-05-22T06:31:04Z</time>
      </trkpt>
      <trkpt lat="45.85847" lon="4.8627">
        <ele>239.224396</ele>
        <time>2016-05-22T06:31:06Z</time>
      </trkpt>
      <trkpt lat="45.85839" lon="4.86256">
        <ele>238.914261</ele>
        <time>2016-05-22T06:31:08Z</time>
      </trkpt>
      <trkpt lat="45.85837" lon="4.86239">
        <ele>238.662399</ele>
        <time>2016-05-22T06:31:10Z</time>
      </trkpt>
      <trkpt lat="45.8584" lon="4.86229">
        <ele>238.54715</ele>
        <time>2016-05-22T06:31:12Z</time>
      </trkpt>
      <trkpt lat="45.85844" lon="4.86224">
        <ele>238.450928</ele>
        <time>2016-05-22T06:31:14Z</time>
      </trkpt>
      <trkpt lat="45.85848" lon="4.8622">
        <ele>237.991989</ele>
        <time>2016-05-22T06:31:16Z</time>
      </trkpt>
      <trkpt lat="45.8585" lon="4.86213">
        <ele>237.439209</ele>
        <time>2016-05-22T06:31:18Z</time>
      </trkpt>
      <trkpt lat="45.85852" lon="4.86203">
        <ele>237.019119</ele>
        <time>2016-05-22T06:31:20Z</time>
      </trkpt>
      <trkpt lat="45.85854" lon="4.86192">
        <ele>236.625458</ele>
        <time>2016-05-22T06:31:22Z</time>
      </trkpt>
      <trkpt lat="45.85855" lon="4.8618">
        <ele>236.282425</ele>
        <time>2016-05-22T06:31:24Z</time>
      </trkpt>
      <trkpt lat="45.85855" lon="4.8617">
        <ele>236.057343</ele>
        <time>2016-05-22T06:31:26Z</time>
      </trkpt>
      <trkpt lat="45.85855" lon="4.86163">
        <ele>235.759323</ele>
        <time>2016-05-22T06:31:28Z</time>
      </trkpt>
      <trkpt lat="45.85855" lon="4.86158">
        <ele>235.667572</ele>
        <time>2016-05-22T06:31:30Z</time>
      </trkpt>
      <trkpt lat="45.85858" lon="4.86153">
        <ele>235.531036</ele>
        <time>2016-05-22T06:31:32Z</time>
      </trkpt>
      <trkpt lat="45.8586" lon="4.86144">
        <ele>235.297241</ele>
        <time>2016-05-22T06:31:34Z</time>
      </trkpt>
      <trkpt lat="45.85861" lon="4.8613">
        <ele>235.5</ele>
        <time>2016-05-22T06:31:36Z</time>
      </trkpt>
      <trkpt lat="45.8586" lon="4.86117">
        <ele>235.514938</ele>
        <time>2016-05-22T06:31:38Z</time>
      </trkpt>
      <trkpt lat="45.85859" lon="4.86103">
        <ele>235.485428</ele>
        <time>2016-05-22T06:31:40Z</time>
      </trkpt>
      <trkpt lat="45.85859" lon="4.8609">
        <ele>235.450684</ele>
        <time>2016-05-22T06:31:42Z</time>
      </trkpt>
      <trkpt lat="45.85857" lon="4.86078">
        <ele>235.178101</ele>
        <time>2016-05-22T06:31:44Z</time>
      </trkpt>
      <trkpt lat="45.85852" lon="4.86067">
        <ele>235.280487</ele>
        <time>2016-05-22T06:31:46Z</time>
      </trkpt>
      <trkpt lat="45.85849" lon="4.86054">
        <ele>235.11972</ele>
        <time>2016-05-22T06:31:48Z</time>
      </trkpt>
      <trkpt lat="45.85844" lon="4.8604">
        <ele>234.92984</ele>
        <time>2016-05-22T06:31:50Z</time>
      </trkpt>
      <trkpt lat="45.8584" lon="4.86028">
        <ele>234.812469</ele>
        <time>2016-05-22T06:31:52Z</time>
      </trkpt>
      <trkpt lat="45.85837" lon="4.86016">
        <ele>234.513962</ele>
        <time>2016-05-22T06:31:54Z</time>
      </trkpt>
      <trkpt lat="45.85836" lon="4.86001">
        <ele>234.289993</ele>
        <time>2016-05-22T06:31:56Z</time>
      </trkpt>
      <trkpt lat="45.85829" lon="4.85993">
        <ele>233.991333</ele>
        <time>2016-05-22T06:31:58Z</time>
      </trkpt>
      <trkpt lat="45.85819" lon="4.85987">
        <ele>234.027588</ele>
        <time>2016-05-22T06:32:00Z</time>
      </trkpt>
      <trkpt lat="45.85812" lon="4.85975">
        <ele>233.759689</ele>
        <time>2016-05-22T06:32:02Z</time>
      </trkpt>
      <trkpt lat="45.8581" lon="4.85961">
        <ele>233.817719</ele>
        <time>2016-05-22T06:32:04Z</time>
      </trkpt>
      <trkpt lat="45.85812" lon="4.85947">
        <ele>233.868927</ele>
        <time>2016-05-22T06:32:06Z</time>
      </trkpt>
      <trkpt lat="45.85814" lon="4.85936">
        <ele>233.680099</ele>
        <time>2016-05-22T06:32:08Z</time>
      </trkpt>
      <trkpt lat="45.85815" lon="4.85924">
        <ele>233.065964</ele>
        <time>2016-05-22T06:32:10Z</time>
      </trkpt>
      <trkpt lat="45.85813" lon="4.85912">
        <ele>232.940094</ele>
        <time>2016-05-22T06:32:12Z</time>
      </trkpt>
      <trkpt lat="45.85812" lon="4.85901">
        <ele>232.917816</ele>
        <time>2016-05-22T06:32:14Z</time>
      </trkpt>
      <trkpt lat="45.85809" lon="4.8589">
        <ele>232.718536</ele>
        <time>2016-05-22T06:32:16Z</time>
      </trkpt>
      <trkpt lat="45.85804" lon="4.85876">
        <ele>232.287521</ele>
        <time>2016-05-22T06:32:18Z</time>
      </trkpt>
      <trkpt lat="45.85801" lon="4.85864">
        <ele>231.93338</ele>
        <time>2016-05-22T06:32:20Z</time>
      </trkpt>
      <trkpt lat="45.85795" lon="4.8586">
        <ele>231.705536</ele>
        <time>2016-05-22T06:32:22Z</time>
      </trkpt>
      <trkpt lat="45.85792" lon="4.85854">
        <ele>231.639435</ele>
        <time>2016-05-22T06:32:24Z</time>
      </trkpt>
      <trkpt lat="45.85792" lon="4.85849">
        <ele>231.490112</ele>
        <time>2016-05-22T06:32:26Z</time>
      </trkpt>
      <trkpt lat="45.85795" lon="4.85842">
        <ele>231.346832</ele>
        <time>2016-05-22T06:32:28Z</time>
      </trkpt>
      <trkpt lat="45.85798" lon="4.8583">
        <ele>231.289963</ele>
        <time>2016-05-22T06:32:30Z</time>
      </trkpt>
      <trkpt lat="45.85796" lon="4.85818">
        <ele>231.243042</ele>
        <time>2016-05-22T06:32:32Z</time>
      </trkpt>
      <trkpt lat="45.85793" lon="4.85809">
        <ele>231.044708</ele>
        <time>2016-05-22T06:32:34Z</time>
      </trkpt>
      <trkpt lat="45.85789" lon="4.85801">
        <ele>231.091385</ele>
        <time>2016-05-22T06:32:36Z</time>
      </trkpt>
      <trkpt lat="45.85785" lon="4.85792">
        <ele>231.070038</ele>
        <time>2016-05-22T06:32:38Z</time>
      </trkpt>
      <trkpt lat="45.8578" lon="4.85783">
        <ele>231.060028</ele>
        <time>2016-05-22T06:32:40Z</time>
      </trkpt>
      <trkpt lat="45.85777" lon="4.8577">
        <ele>230.836105</ele>
        <time>2016-05-22T06:32:42Z</time>
      </trkpt>
      <trkpt lat="45.85773" lon="4.85758">
        <ele>230.827072</ele>
        <time>2016-05-22T06:32:44Z</time>
      </trkpt>
      <trkpt lat="45.85768" lon="4.85747">
        <ele>230.577469</ele>
        <time>2016-05-22T06:32:46Z</time>
      </trkpt>
      <trkpt lat="45.85764" lon="4.85735">
        <ele>230.323608</ele>
        <time>2016-05-22T06:32:48Z</time>
      </trkpt>
      <trkpt lat="45.85762" lon="4.85721">
        <ele>230.38118</ele>
        <time>2016-05-22T06:32:50Z</time>
      </trkpt>
      <trkpt lat="45.85757" lon="4.85709">
        <ele>230.359818</ele>
        <time>2016-05-22T06:32:52Z</time>
      </trkpt>
      <trkpt lat="45.85755" lon="4.85698">
        <ele>230.125275</ele>
        <time>2016-05-22T06:32:54Z</time>
      </trkpt>
      <trkpt lat="45.85756" lon="4.85687">
        <ele>229.776199</ele>
        <time>2016-05-22T06:32:56Z</time>
      </trkpt>
      <trkpt lat="45.85755" lon="4.85675">
        <ele>229.523346</ele>
        <time>2016-05-22T06:32:58Z</time>
      </trkpt>
      <trkpt lat="45.85753" lon="4.85665">
        <ele>229.546707</ele>
        <time>2016-05-22T06:33:00Z</time>
      </trkpt>
      <trkpt lat="45.85751" lon="4.85653">
        <ele>229.697342</ele>
        <time>2016-05-22T06:33:02Z</time>
      </trkpt>
      <trkpt lat="45.85749" lon="4.8564">
        <ele>229.666595</ele>
        <time>2016-05-22T06:33:04Z</time>
      </trkpt>
      <trkpt lat="45.85746" lon="4.8563">
        <ele>229.572784</ele>
        <time>2016-05-22T06:33:06Z</time>
      </trkpt>
      <trkpt lat="45.85744" lon="4.85625">
        <ele>229.383347</ele>
        <time>2016-05-22T06:33:08Z</time>
      </trkpt>
      <trkpt lat="45.85742" lon="4.8562">
        <ele>228.790527</ele>
        <time>2016-05-22T06:33:16Z</time>
      </trkpt>
      <trkpt lat="45.85739" lon="4.85613">
        <ele>228.443161</ele>
        <time>2016-05-22T06:33:24Z</time>
      </trkpt>
      <trkpt lat="45.85737" lon="4.8561">
        <ele>228.357864</ele>
        <time>2016-05-22T06:33:26Z</time>
      </trkpt>
      <trkpt lat="45.85733" lon="4.85605">
        <ele>228.10405</ele>
        <time>2016-05-22T06:33:28Z</time>
      </trkpt>
      <trkpt lat="45.85722" lon="4.85596">
        <ele>227.949127</ele>
        <time>2016-05-22T06:33:30Z</time>
      </trkpt>
      <trkpt lat="45.85717" lon="4.85586">
        <ele>228.057816</ele>
        <time>2016-05-22T06:33:32Z</time>
      </trkpt>
      <trkpt lat="45.85714" lon="4.85578">
        <ele>228.062347</ele>
        <time>2016-05-22T06:33:34Z</time>
      </trkpt>
      <trkpt lat="45.85709" lon="4.85572">
        <ele>228.03923</ele>
        <time>2016-05-22T06:33:36Z</time>
      </trkpt>
      <trkpt lat="45.857" lon="4.85567">
        <ele>227.84317</ele>
        <time>2016-05-22T06:33:38Z</time>
      </trkpt>
      <trkpt lat="45.85693" lon="4.85556">
        <ele>227.962555</ele>
        <time>2016-05-22T06:33:40Z</time>
      </trkpt>
      <trkpt lat="45.85685" lon="4.85547">
        <ele>227.876099</ele>
        <time>2016-05-22T06:33:42Z</time>
      </trkpt>
      <trkpt lat="45.85676" lon="4.85537">
        <ele>227.594818</ele>
        <time>2016-05-22T06:33:44Z</time>
      </trkpt>
      <trkpt lat="45.85664" lon="4.85534">
        <ele>227.170624</ele>
        <time>2016-05-22T06:33:46Z</time>
      </trkpt>
      <trkpt lat="45.85653" lon="4.85534">
        <ele>227.032059</ele>
        <time>2016-05-22T06:33:48Z</time>
      </trkpt>
      <trkpt lat="45.85643" lon="4.85525">
        <ele>227.008865</ele>
        <time>2016-05-22T06:33:50Z</time>
      </trkpt>
      <trkpt lat="45.85634" lon="4.85514">
        <ele>226.974487</ele>
        <time>2016-05-22T06:33:52Z</time>
      </trkpt>
      <trkpt lat="45.85627" lon="4.85499">
        <ele>227.051315</ele>
        <time>2016-05-22T06:33:54Z</time>
      </trkpt>
      <trkpt lat="45.85619" lon="4.85486">
        <ele>226.974564</ele>
        <time>2016-05-22T06:33:56Z</time>
      </trkpt>
      <trkpt lat="45.85613" lon="4.85474">
        <ele>226.929779</ele>
        <time>2016-05-22T06:33:58Z</time>
      </trkpt>
      <trkpt lat="45.85605" lon="4.8547">
        <ele>227.039215</ele>
        <time>2016-05-22T06:34:00Z</time>
      </trkpt>
      <trkpt lat="45.85598" lon="4.8547">
        <ele>226.946213</ele>
        <time>2016-05-22T06:34:02Z</time>
      </trkpt>
      <trkpt lat="45.85592" lon="4.85473">
        <ele>227.101883</ele>
        <time>2016-05-22T06:34:04Z</time>
      </trkpt>
      <trkpt lat="45.85588" lon="4.85475">
        <ele>227.054962</ele>
        <time>2016-05-22T06:34:06Z</time>
      </trkpt>
      <trkpt lat="45.85583" lon="4.85477">
        <ele>227.074142</ele>
        <time>2016-05-22T06:34:08Z</time>
      </trkpt>
      <trkpt lat="45.85579" lon="4.8548">
        <ele>227.212448</ele>
        <time>2016-05-22T06:34:10Z</time>
      </trkpt>
      <trkpt lat="45.85575" lon="4.85482">
        <ele>227.456955</ele>
        <time>2016-05-22T06:34:12Z</time>
      </trkpt>
      <trkpt lat="45.85571" lon="4.85483">
        <ele>227.684723</ele>
        <time>2016-05-22T06:34:14Z</time>
      </trkpt>
      <trkpt lat="45.85567" lon="4.85484">
        <ele>227.891312</ele>
        <time>2016-05-22T06:34:16Z</time>
      </trkpt>
      <trkpt lat="45.85563" lon="4.85486">
        <ele>228.202515</ele>
        <time>2016-05-22T06:34:18Z</time>
      </trkpt>
      <trkpt lat="45.85558" lon="4.85488">
        <ele>228.786713</ele>
        <time>2016-05-22T06:34:20Z</time>
      </trkpt>
      <trkpt lat="45.85553" lon="4.85489">
        <ele>228.921112</ele>
        <time>2016-05-22T06:34:22Z</time>
      </trkpt>
      <trkpt lat="45.85548" lon="4.85492">
        <ele>229.319946</ele>
        <time>2016-05-22T06:34:24Z</time>
      </trkpt>
      <trkpt lat="45.85544" lon="4.85493">
        <ele>230.016891</ele>
        <time>2016-05-22T06:34:26Z</time>
      </trkpt>
      <trkpt lat="45.8554" lon="4.85495">
        <ele>230.537384</ele>
        <time>2016-05-22T06:34:28Z</time>
      </trkpt>
      <trkpt lat="45.85537" lon="4.85496">
        <ele>231.143036</ele>
        <time>2016-05-22T06:34:30Z</time>
      </trkpt>
      <trkpt lat="45.85534" lon="4.85497">
        <ele>231.714691</ele>
        <time>2016-05-22T06:34:32Z</time>
      </trkpt>
      <trkpt lat="45.8553" lon="4.85499">
        <ele>232.403641</ele>
        <time>2016-05-22T06:34:34Z</time>
      </trkpt>
      <trkpt lat="45.85526" lon="4.85501">
        <ele>232.834595</ele>
        <time>2016-05-22T06:34:36Z</time>
      </trkpt>
      <trkpt lat="45.85523" lon="4.85502">
        <ele>233.169525</ele>
        <time>2016-05-22T06:34:38Z</time>
      </trkpt>
      <trkpt lat="45.85519" lon="4.85503">
        <ele>233.749802</ele>
        <time>2016-05-22T06:34:40Z</time>
      </trkpt>
      <trkpt lat="45.85516" lon="4.85504">
        <ele>234.302444</ele>
        <time>2016-05-22T06:34:42Z</time>
      </trkpt>
      <trkpt lat="45.85513" lon="4.85506">
        <ele>235.134491</ele>
        <time>2016-05-22T06:34:44Z</time>
      </trkpt>
      <trkpt lat="45.8551" lon="4.85507">
        <ele>235.687164</ele>
        <time>2016-05-22T06:34:46Z</time>
      </trkpt>
      <trkpt lat="45.85506" lon="4.85509">
        <ele>236.408371</ele>
        <time>2016-05-22T06:34:48Z</time>
      </trkpt>
      <trkpt lat="45.85504" lon="4.8551">
        <ele>237.170456</ele>
        <time>2016-05-22T06:34:50Z</time>
      </trkpt>
      <trkpt lat="45.855" lon="4.8551">
        <ele>237.836304</ele>
        <time>2016-05-22T06:34:52Z</time>
      </trkpt>
      <trkpt lat="45.85497" lon="4.85512">
        <ele>238.515381</ele>
        <time>2016-05-22T06:34:54Z</time>
      </trkpt>
      <trkpt lat="45.85494" lon="4.85512">
        <ele>239.16301</ele>
        <time>2016-05-22T06:34:56Z</time>
      </trkpt>
      <trkpt lat="45.85491" lon="4.85513">
        <ele>239.809769</ele>
        <time>2016-05-22T06:34:58Z</time>
      </trkpt>
      <trkpt lat="45.85488" lon="4.85514">
        <ele>240.512009</ele>
        <time>2016-05-22T06:35:00Z</time>
      </trkpt>
      <trkpt lat="45.85486" lon="4.85515">
        <ele>241.092651</ele>
        <time>2016-05-22T06:35:02Z</time>
      </trkpt>
      <trkpt lat="45.85482" lon="4.85516">
        <ele>241.70105</ele>
        <time>2016-05-22T06:35:04Z</time>
      </trkpt>
      <trkpt lat="45.8548" lon="4.85518">
        <ele>241.984985</ele>
        <time>2016-05-22T06:35:06Z</time>
      </trkpt>
      <trkpt lat="45.85476" lon="4.85519">
        <ele>242.471771</ele>
        <time>2016-05-22T06:35:08Z</time>
      </trkpt>
      <trkpt lat="45.85473" lon="4.85521">
        <ele>242.967117</ele>
        <time>2016-05-22T06:35:10Z</time>
      </trkpt>
      <trkpt lat="45.8547" lon="4.85523">
        <ele>243.551346</ele>
        <time>2016-05-22T06:35:12Z</time>
      </trkpt>
      <trkpt lat="45.85466" lon="4.85526">
        <ele>244.038177</ele>
        <time>2016-05-22T06:35:14Z</time>
      </trkpt>
      <trkpt lat="45.85463" lon="4.85527">
        <ele>244.545563</ele>
        <time>2016-05-22T06:35:16Z</time>
      </trkpt>
      <trkpt lat="45.85458" lon="4.85527">
        <ele>244.942703</ele>
        <time>2016-05-22T06:35:18Z</time>
      </trkpt>
      <trkpt lat="45.85454" lon="4.85525">
        <ele>245.320679</ele>
        <time>2016-05-22T06:35:20Z</time>
      </trkpt>
      <trkpt lat="45.8545" lon="4.85521">
        <ele>245.664474</ele>
        <time>2016-05-22T06:35:22Z</time>
      </trkpt>
      <trkpt lat="45.85445" lon="4.85519">
        <ele>245.912201</ele>
        <time>2016-05-22T06:35:24Z</time>
      </trkpt>
      <trkpt lat="45.8544" lon="4.85519">
        <ele>245.972</ele>
        <time>2016-05-22T06:35:26Z</time>
      </trkpt>
      <trkpt lat="45.85432" lon="4.85517">
        <ele>246.26123</ele>
        <time>2016-05-22T06:35:28Z</time>
      </trkpt>
      <trkpt lat="45.85425" lon="4.85515">
        <ele>246.549591</ele>
        <time>2016-05-22T06:35:30Z</time>
      </trkpt>
      <trkpt lat="45.85418" lon="4.85509">
        <ele>246.645676</ele>
        <time>2016-05-22T06:35:32Z</time>
      </trkpt>
      <trkpt lat="45.85408" lon="4.85497">
        <ele>246.798706</ele>
        <time>2016-05-22T06:35:36Z</time>
      </trkpt>
      <trkpt lat="45.85406" lon="4.85493">
        <ele>246.907623</ele>
        <time>2016-05-22T06:35:38Z</time>
      </trkpt>
      <trkpt lat="45.85404" lon="4.8549">
        <ele>246.998505</ele>
        <time>2016-05-22T06:35:40Z</time>
      </trkpt>
      <trkpt lat="45.85404" lon="4.85487">
        <ele>246.934418</ele>
        <time>2016-05-22T06:35:42Z</time>
      </trkpt>
      <trkpt lat="45.85402" lon="4.85485">
        <ele>246.908539</ele>
        <time>2016-05-22T06:35:44Z</time>
      </trkpt>
      <trkpt lat="45.85401" lon="4.85477">
        <ele>246.852051</ele>
        <time>2016-05-22T06:35:46Z</time>
      </trkpt>
      <trkpt lat="45.85401" lon="4.85467">
        <ele>246.794388</ele>
        <time>2016-05-22T06:35:48Z</time>
      </trkpt>
      <trkpt lat="45.854" lon="4.85455">
        <ele>246.378998</ele>
        <time>2016-05-22T06:35:50Z</time>
      </trkpt>
      <trkpt lat="45.854" lon="4.8544">
        <ele>246.24234</ele>
        <time>2016-05-22T06:35:52Z</time>
      </trkpt>
      <trkpt lat="45.85398" lon="4.85422">
        <ele>245.726486</ele>
        <time>2016-05-22T06:35:54Z</time>
      </trkpt>
      <trkpt lat="45.85391" lon="4.85395">
        <ele>245.316498</ele>
        <time>2016-05-22T06:35:57Z</time>
      </trkpt>
      <trkpt lat="45.85387" lon="4.8537">
        <ele>244.860764</ele>
        <time>2016-05-22T06:35:59Z</time>
      </trkpt>
      <trkpt lat="45.85383" lon="4.85342">
        <ele>244.374878</ele>
        <time>2016-05-22T06:36:01Z</time>
      </trkpt>
      <trkpt lat="45.85372" lon="4.85299">
        <ele>243.188599</ele>
        <time>2016-05-22T06:36:03Z</time>
      </trkpt>
      <trkpt lat="45.85359" lon="4.8528">
        <ele>241.914795</ele>
        <time>2016-05-22T06:36:05Z</time>
      </trkpt>
      <trkpt lat="45.85349" lon="4.85262">
        <ele>241.13797</ele>
        <time>2016-05-22T06:36:07Z</time>
      </trkpt>
      <trkpt lat="45.85339" lon="4.85244">
        <ele>240.274094</ele>
        <time>2016-05-22T06:36:09Z</time>
      </trkpt>
      <trkpt lat="45.85329" lon="4.85225">
        <ele>239.272491</ele>
        <time>2016-05-22T06:36:11Z</time>
      </trkpt>
      <trkpt lat="45.85322" lon="4.85204">
        <ele>238.158478</ele>
        <time>2016-05-22T06:36:13Z</time>
      </trkpt>
      <trkpt lat="45.85318" lon="4.85183">
        <ele>236.976593</ele>
        <time>2016-05-22T06:36:15Z</time>
      </trkpt>
      <trkpt lat="45.85312" lon="4.85161">
        <ele>235.774078</ele>
        <time>2016-05-22T06:36:17Z</time>
      </trkpt>
      <trkpt lat="45.85307" lon="4.85139">
        <ele>234.921097</ele>
        <time>2016-05-22T06:36:19Z</time>
      </trkpt>
      <trkpt lat="45.853" lon="4.85119">
        <ele>233.617752</ele>
        <time>2016-05-22T06:36:21Z</time>
      </trkpt>
      <trkpt lat="45.85294" lon="4.85109">
        <ele>232.444046</ele>
        <time>2016-05-22T06:36:23Z</time>
      </trkpt>
      <trkpt lat="45.85293" lon="4.85105">
        <ele>231.28862</ele>
        <time>2016-05-22T06:36:25Z</time>
      </trkpt>
      <trkpt lat="45.85292" lon="4.85105">
        <ele>229.984329</ele>
        <time>2016-05-22T06:36:27Z</time>
      </trkpt>
      <trkpt lat="45.85293" lon="4.85106">
        <ele>228.740646</ele>
        <time>2016-05-22T06:36:29Z</time>
      </trkpt>
      <trkpt lat="45.85293" lon="4.85109">
        <ele>227.611206</ele>
        <time>2016-05-22T06:36:31Z</time>
      </trkpt>
      <trkpt lat="45.85291" lon="4.85111">
        <ele>227.295654</ele>
        <time>2016-05-22T06:36:33Z</time>
      </trkpt>
      <trkpt lat="45.85289" lon="4.85113">
        <ele>226.19722</ele>
        <time>2016-05-22T06:36:35Z</time>
      </trkpt>
      <trkpt lat="45.85286" lon="4.85115">
        <ele>225.479736</ele>
        <time>2016-05-22T06:36:37Z</time>
      </trkpt>
      <trkpt lat="45.85284" lon="4.85117">
        <ele>224.654297</ele>
        <time>2016-05-22T06:36:39Z</time>
      </trkpt>
      <trkpt lat="45.85281" lon="4.85119">
        <ele>223.804108</ele>
        <time>2016-05-22T06:36:41Z</time>
      </trkpt>
      <trkpt lat="45.8528" lon="4.85121">
        <ele>223.053299</ele>
        <time>2016-05-22T06:36:43Z</time>
      </trkpt>
      <trkpt lat="45.85277" lon="4.85123">
        <ele>223.149139</ele>
        <time>2016-05-22T06:36:45Z</time>
      </trkpt>
      <trkpt lat="45.85275" lon="4.85125">
        <ele>223.315384</ele>
        <time>2016-05-22T06:36:47Z</time>
      </trkpt>
      <trkpt lat="45.85273" lon="4.85127">
        <ele>223.067917</ele>
        <time>2016-05-22T06:36:49Z</time>
      </trkpt>
      <trkpt lat="45.85271" lon="4.85128">
        <ele>222.978851</ele>
        <time>2016-05-22T06:36:51Z</time>
      </trkpt>
      <trkpt lat="45.85269" lon="4.8513">
        <ele>223.019135</ele>
        <time>2016-05-22T06:36:53Z</time>
      </trkpt>
      <trkpt lat="45.85267" lon="4.85132">
        <ele>223.093719</ele>
        <time>2016-05-22T06:36:55Z</time>
      </trkpt>
      <trkpt lat="45.85265" lon="4.85135">
        <ele>223.383621</ele>
        <time>2016-05-22T06:36:59Z</time>
      </trkpt>
      <trkpt lat="45.85263" lon="4.85136">
        <ele>224.042191</ele>
        <time>2016-05-22T06:37:01Z</time>
      </trkpt>
      <trkpt lat="45.85262" lon="4.85137">
        <ele>224.555862</ele>
        <time>2016-05-22T06:37:03Z</time>
      </trkpt>
      <trkpt lat="45.8526" lon="4.85139">
        <ele>224.878021</ele>
        <time>2016-05-22T06:37:05Z</time>
      </trkpt>
      <trkpt lat="45.85258" lon="4.8514">
        <ele>225.327057</ele>
        <time>2016-05-22T06:37:07Z</time>
      </trkpt>
      <trkpt lat="45.85257" lon="4.85142">
        <ele>225.904739</ele>
        <time>2016-05-22T06:37:09Z</time>
      </trkpt>
      <trkpt lat="45.85255" lon="4.85143">
        <ele>226.431442</ele>
        <time>2016-05-22T06:37:11Z</time>
      </trkpt>
      <trkpt lat="45.85253" lon="4.85145">
        <ele>226.975128</ele>
        <time>2016-05-22T06:37:13Z</time>
      </trkpt>
      <trkpt lat="45.85251" lon="4.85147">
        <ele>227.537796</ele>
        <time>2016-05-22T06:37:15Z</time>
      </trkpt>
      <trkpt lat="45.85249" lon="4.85149">
        <ele>228.082443</ele>
        <time>2016-05-22T06:37:17Z</time>
      </trkpt>
      <trkpt lat="45.85247" lon="4.85151">
        <ele>228.400177</ele>
        <time>2016-05-22T06:37:19Z</time>
      </trkpt>
      <trkpt lat="45.85245" lon="4.85153">
        <ele>228.948166</ele>
        <time>2016-05-22T06:37:21Z</time>
      </trkpt>
      <trkpt lat="45.85243" lon="4.85155">
        <ele>229.458328</ele>
        <time>2016-05-22T06:37:23Z</time>
      </trkpt>
      <trkpt lat="45.85241" lon="4.85157">
        <ele>230.00415</ele>
        <time>2016-05-22T06:37:25Z</time>
      </trkpt>
      <trkpt lat="45.8524" lon="4.85159">
        <ele>230.552292</ele>
        <time>2016-05-22T06:37:27Z</time>
      </trkpt>
      <trkpt lat="45.85239" lon="4.85161">
        <ele>231.068436</ele>
        <time>2016-05-22T06:37:29Z</time>
      </trkpt>
      <trkpt lat="45.85238" lon="4.85162">
        <ele>231.580322</ele>
        <time>2016-05-22T06:37:31Z</time>
      </trkpt>
      <trkpt lat="45.85236" lon="4.85164">
        <ele>232.131866</ele>
        <time>2016-05-22T06:37:33Z</time>
      </trkpt>
      <trkpt lat="45.85235" lon="4.85166">
        <ele>232.63533</ele>
        <time>2016-05-22T06:37:35Z</time>
      </trkpt>
      <trkpt lat="45.85233" lon="4.85168">
        <ele>232.944656</ele>
        <time>2016-05-22T06:37:37Z</time>
      </trkpt>
      <trkpt lat="45.85231" lon="4.8517">
        <ele>234.529617</ele>
        <time>2016-05-22T06:37:43Z</time>
      </trkpt>
      <trkpt lat="45.85231" lon="4.85172">
        <ele>235.080124</ele>
        <time>2016-05-22T06:37:45Z</time>
      </trkpt>
      <trkpt lat="45.8523" lon="4.85177">
        <ele>236.565521</ele>
        <time>2016-05-22T06:37:51Z</time>
      </trkpt>
      <trkpt lat="45.85231" lon="4.85179">
        <ele>237.083893</ele>
        <time>2016-05-22T06:37:53Z</time>
      </trkpt>
      <trkpt lat="45.85231" lon="4.85181">
        <ele>237.529907</ele>
        <time>2016-05-22T06:37:55Z</time>
      </trkpt>
      <trkpt lat="45.85229" lon="4.85185">
        <ele>238.929108</ele>
        <time>2016-05-22T06:38:03Z</time>
      </trkpt>
      <trkpt lat="45.85227" lon="4.85186">
        <ele>239.310181</ele>
        <time>2016-05-22T06:38:05Z</time>
      </trkpt>
      <trkpt lat="45.85224" lon="4.85188">
        <ele>239.679474</ele>
        <time>2016-05-22T06:38:06Z</time>
      </trkpt>
      <trkpt lat="45.85223" lon="4.8519">
        <ele>239.867828</ele>
        <time>2016-05-22T06:38:09Z</time>
      </trkpt>
      <trkpt lat="45.8522" lon="4.85192">
        <ele>240.174103</ele>
        <time>2016-05-22T06:38:11Z</time>
      </trkpt>
      <trkpt lat="45.85217" lon="4.85189">
        <ele>240.414963</ele>
        <time>2016-05-22T06:38:13Z</time>
      </trkpt>
      <trkpt lat="45.85215" lon="4.85186">
        <ele>240.581451</ele>
        <time>2016-05-22T06:38:15Z</time>
      </trkpt>
      <trkpt lat="45.85213" lon="4.85181">
        <ele>240.77356</ele>
        <time>2016-05-22T06:38:17Z</time>
      </trkpt>
      <trkpt lat="45.8521" lon="4.85177">
        <ele>240.943924</ele>
        <time>2016-05-22T06:38:19Z</time>
      </trkpt>
      <trkpt lat="45.85206" lon="4.85172">
        <ele>240.969528</ele>
        <time>2016-05-22T06:38:21Z</time>
      </trkpt>
      <trkpt lat="45.85202" lon="4.85166">
        <ele>241.132904</ele>
        <time>2016-05-22T06:38:23Z</time>
      </trkpt>
      <trkpt lat="45.85198" lon="4.85161">
        <ele>241.252472</ele>
        <time>2016-05-22T06:38:25Z</time>
      </trkpt>
      <trkpt lat="45.85194" lon="4.85155">
        <ele>241.282349</ele>
        <time>2016-05-22T06:38:27Z</time>
      </trkpt>
      <trkpt lat="45.8519" lon="4.85149">
        <ele>241.368332</ele>
        <time>2016-05-22T06:38:29Z</time>
      </trkpt>
      <trkpt lat="45.85186" lon="4.85144">
        <ele>241.449463</ele>
        <time>2016-05-22T06:38:31Z</time>
      </trkpt>
      <trkpt lat="45.85181" lon="4.85137">
        <ele>241.519897</ele>
        <time>2016-05-22T06:38:33Z</time>
      </trkpt>
      <trkpt lat="45.85177" lon="4.85129">
        <ele>241.509232</ele>
        <time>2016-05-22T06:38:35Z</time>
      </trkpt>
      <trkpt lat="45.85172" lon="4.8512">
        <ele>241.502838</ele>
        <time>2016-05-22T06:38:37Z</time>
      </trkpt>
      <trkpt lat="45.85167" lon="4.85111">
        <ele>241.432404</ele>
        <time>2016-05-22T06:38:39Z</time>
      </trkpt>
      <trkpt lat="45.85162" lon="4.85102">
        <ele>241.413162</ele>
        <time>2016-05-22T06:38:41Z</time>
      </trkpt>
      <trkpt lat="45.85156" lon="4.85093">
        <ele>241.438797</ele>
        <time>2016-05-22T06:38:43Z</time>
      </trkpt>
      <trkpt lat="45.85151" lon="4.85084">
        <ele>241.432251</ele>
        <time>2016-05-22T06:38:45Z</time>
      </trkpt>
      <trkpt lat="45.85145" lon="4.85075">
        <ele>241.454788</ele>
        <time>2016-05-22T06:38:47Z</time>
      </trkpt>
      <trkpt lat="45.85138" lon="4.85069">
        <ele>241.375809</ele>
        <time>2016-05-22T06:38:49Z</time>
      </trkpt>
      <trkpt lat="45.85132" lon="4.85072">
        <ele>241.521683</ele>
        <time>2016-05-22T06:38:51Z</time>
      </trkpt>
      <trkpt lat="45.85126" lon="4.85078">
        <ele>241.580444</ele>
        <time>2016-05-22T06:38:53Z</time>
      </trkpt>
      <trkpt lat="45.8512" lon="4.85084">
        <ele>241.622528</ele>
        <time>2016-05-22T06:38:55Z</time>
      </trkpt>
      <trkpt lat="45.85114" lon="4.8509">
        <ele>241.831787</ele>
        <time>2016-05-22T06:38:57Z</time>
      </trkpt>
      <trkpt lat="45.85107" lon="4.85097">
        <ele>241.912918</ele>
        <time>2016-05-22T06:38:59Z</time>
      </trkpt>
      <trkpt lat="45.85101" lon="4.85103">
        <ele>241.899628</ele>
        <time>2016-05-22T06:39:01Z</time>
      </trkpt>
      <trkpt lat="45.85096" lon="4.8511">
        <ele>242.088821</ele>
        <time>2016-05-22T06:39:03Z</time>
      </trkpt>
      <trkpt lat="45.85089" lon="4.85115">
        <ele>242.148605</ele>
        <time>2016-05-22T06:39:05Z</time>
      </trkpt>
      <trkpt lat="45.85082" lon="4.85118">
        <ele>242.293823</ele>
        <time>2016-05-22T06:39:07Z</time>
      </trkpt>
      <trkpt lat="45.85075" lon="4.85114">
        <ele>242.334396</ele>
        <time>2016-05-22T06:39:09Z</time>
      </trkpt>
      <trkpt lat="45.8507" lon="4.85107">
        <ele>242.361237</ele>
        <time>2016-05-22T06:39:11Z</time>
      </trkpt>
      <trkpt lat="45.85066" lon="4.85098">
        <ele>242.348419</ele>
        <time>2016-05-22T06:39:13Z</time>
      </trkpt>
      <trkpt lat="45.85061" lon="4.85088">
        <ele>242.446655</ele>
        <time>2016-05-22T06:39:15Z</time>
      </trkpt>
      <trkpt lat="45.85056" lon="4.85079">
        <ele>242.529938</ele>
        <time>2016-05-22T06:39:17Z</time>
      </trkpt>
      <trkpt lat="45.85049" lon="4.8507">
        <ele>242.574753</ele>
        <time>2016-05-22T06:39:19Z</time>
      </trkpt>
      <trkpt lat="45.85042" lon="4.85062">
        <ele>242.666672</ele>
        <time>2016-05-22T06:39:21Z</time>
      </trkpt>
      <trkpt lat="45.85034" lon="4.85056">
        <ele>242.717926</ele>
        <time>2016-05-22T06:39:23Z</time>
      </trkpt>
      <trkpt lat="45.85026" lon="4.85051">
        <ele>242.697464</ele>
        <time>2016-05-22T06:39:25Z</time>
      </trkpt>
      <trkpt lat="45.85017" lon="4.85047">
        <ele>242.782074</ele>
        <time>2016-05-22T06:39:27Z</time>
      </trkpt>
      <trkpt lat="45.85009" lon="4.85043">
        <ele>242.747925</ele>
        <time>2016-05-22T06:39:29Z</time>
      </trkpt>
      <trkpt lat="45.85001" lon="4.85039">
        <ele>242.823364</ele>
        <time>2016-05-22T06:39:31Z</time>
      </trkpt>
      <trkpt lat="45.84993" lon="4.85035">
        <ele>242.717499</ele>
        <time>2016-05-22T06:39:33Z</time>
      </trkpt>
      <trkpt lat="45.84985" lon="4.8503">
        <ele>242.644867</ele>
        <time>2016-05-22T06:39:35Z</time>
      </trkpt>
      <trkpt lat="45.84975" lon="4.85023">
        <ele>242.652222</ele>
        <time>2016-05-22T06:39:37Z</time>
      </trkpt>
      <trkpt lat="45.84966" lon="4.85021">
        <ele>242.417404</ele>
        <time>2016-05-22T06:39:39Z</time>
      </trkpt>
      <trkpt lat="45.84958" lon="4.85021">
        <ele>242.203934</ele>
        <time>2016-05-22T06:39:41Z</time>
      </trkpt>
      <trkpt lat="45.84955" lon="4.8502">
        <ele>242.044312</ele>
        <time>2016-05-22T06:39:43Z</time>
      </trkpt>
      <trkpt lat="45.84955" lon="4.85017">
        <ele>241.794525</ele>
        <time>2016-05-22T06:39:45Z</time>
      </trkpt>
      <trkpt lat="45.84959" lon="4.85012">
        <ele>241.764679</ele>
        <time>2016-05-22T06:39:47Z</time>
      </trkpt>
      <trkpt lat="45.84963" lon="4.85005">
        <ele>241.64444</ele>
        <time>2016-05-22T06:39:49Z</time>
      </trkpt>
      <trkpt lat="45.84967" lon="4.84996">
        <ele>241.279465</ele>
        <time>2016-05-22T06:39:51Z</time>
      </trkpt>
      <trkpt lat="45.84971" lon="4.84987">
        <ele>241.023315</ele>
        <time>2016-05-22T06:39:53Z</time>
      </trkpt>
      <trkpt lat="45.84974" lon="4.84979">
        <ele>240.660492</ele>
        <time>2016-05-22T06:39:55Z</time>
      </trkpt>
      <trkpt lat="45.84981" lon="4.84972">
        <ele>240.047928</ele>
        <time>2016-05-22T06:39:57Z</time>
      </trkpt>
      <trkpt lat="45.84989" lon="4.84969">
        <ele>239.473846</ele>
        <time>2016-05-22T06:39:59Z</time>
      </trkpt>
      <trkpt lat="45.84997" lon="4.84967">
        <ele>238.998581</ele>
        <time>2016-05-22T06:40:01Z</time>
      </trkpt>
      <trkpt lat="45.85005" lon="4.84965">
        <ele>238.696014</ele>
        <time>2016-05-22T06:40:03Z</time>
      </trkpt>
      <trkpt lat="45.85013" lon="4.84963">
        <ele>238.081451</ele>
        <time>2016-05-22T06:40:05Z</time>
      </trkpt>
      <trkpt lat="45.85021" lon="4.84959">
        <ele>237.806122</ele>
        <time>2016-05-22T06:40:07Z</time>
      </trkpt>
      <trkpt lat="45.8503" lon="4.84954">
        <ele>237.16597</ele>
        <time>2016-05-22T06:40:09Z</time>
      </trkpt>
      <trkpt lat="45.85038" lon="4.84946">
        <ele>236.537933</ele>
        <time>2016-05-22T06:40:11Z</time>
      </trkpt>
      <trkpt lat="45.85043" lon="4.84933">
        <ele>236.320313</ele>
        <time>2016-05-22T06:40:13Z</time>
      </trkpt>
      <trkpt lat="45.85047" lon="4.84919">
        <ele>235.756073</ele>
        <time>2016-05-22T06:40:15Z</time>
      </trkpt>
      <trkpt lat="45.85054" lon="4.8491">
        <ele>234.764236</ele>
        <time>2016-05-22T06:40:17Z</time>
      </trkpt>
      <trkpt lat="45.85063" lon="4.84904">
        <ele>233.964081</ele>
        <time>2016-05-22T06:40:19Z</time>
      </trkpt>
      <trkpt lat="45.85074" lon="4.849">
        <ele>232.851761</ele>
        <time>2016-05-22T06:40:21Z</time>
      </trkpt>
      <trkpt lat="45.85084" lon="4.84898">
        <ele>231.986618</ele>
        <time>2016-05-22T06:40:23Z</time>
      </trkpt>
      <trkpt lat="45.85095" lon="4.84897">
        <ele>230.507538</ele>
        <time>2016-05-22T06:40:25Z</time>
      </trkpt>
      <trkpt lat="45.85104" lon="4.84892">
        <ele>228.977203</ele>
        <time>2016-05-22T06:40:27Z</time>
      </trkpt>
      <trkpt lat="45.85111" lon="4.84884">
        <ele>227.602142</ele>
        <time>2016-05-22T06:40:29Z</time>
      </trkpt>
      <trkpt lat="45.85114" lon="4.84878">
        <ele>226.260132</ele>
        <time>2016-05-22T06:40:31Z</time>
      </trkpt>
      <trkpt lat="45.8511" lon="4.84874">
        <ele>224.979202</ele>
        <time>2016-05-22T06:40:33Z</time>
      </trkpt>
      <trkpt lat="45.85104" lon="4.84868">
        <ele>223.504715</ele>
        <time>2016-05-22T06:40:35Z</time>
      </trkpt>
      <trkpt lat="45.85096" lon="4.84862">
        <ele>222.974121</ele>
        <time>2016-05-22T06:40:37Z</time>
      </trkpt>
      <trkpt lat="45.85088" lon="4.84855">
        <ele>221.869019</ele>
        <time>2016-05-22T06:40:39Z</time>
      </trkpt>
      <trkpt lat="45.8508" lon="4.84846">
        <ele>220.754715</ele>
        <time>2016-05-22T06:40:41Z</time>
      </trkpt>
      <trkpt lat="45.85071" lon="4.84842">
        <ele>219.611893</ele>
        <time>2016-05-22T06:40:43Z</time>
      </trkpt>
      <trkpt lat="45.85061" lon="4.84841">
        <ele>218.300629</ele>
        <time>2016-05-22T06:40:45Z</time>
      </trkpt>
      <trkpt lat="45.85052" lon="4.84839">
        <ele>217.224731</ele>
        <time>2016-05-22T06:40:47Z</time>
      </trkpt>
      <trkpt lat="45.85043" lon="4.84836">
        <ele>215.873703</ele>
        <time>2016-05-22T06:40:49Z</time>
      </trkpt>
      <trkpt lat="45.85035" lon="4.84835">
        <ele>214.883026</ele>
        <time>2016-05-22T06:40:51Z</time>
      </trkpt>
      <trkpt lat="45.85029" lon="4.84834">
        <ele>213.709351</ele>
        <time>2016-05-22T06:40:53Z</time>
      </trkpt>
      <trkpt lat="45.85024" lon="4.84834">
        <ele>212.512939</ele>
        <time>2016-05-22T06:40:55Z</time>
      </trkpt>
      <trkpt lat="45.85018" lon="4.84832">
        <ele>211.697235</ele>
        <time>2016-05-22T06:40:57Z</time>
      </trkpt>
      <trkpt lat="45.8501" lon="4.8483">
        <ele>211.341629</ele>
        <time>2016-05-22T06:40:59Z</time>
      </trkpt>
      <trkpt lat="45.85002" lon="4.84826">
        <ele>210.425827</ele>
        <time>2016-05-22T06:41:01Z</time>
      </trkpt>
      <trkpt lat="45.84996" lon="4.84821">
        <ele>210.00618</ele>
        <time>2016-05-22T06:41:03Z</time>
      </trkpt>
      <trkpt lat="45.84991" lon="4.84817">
        <ele>209.2771</ele>
        <time>2016-05-22T06:41:05Z</time>
      </trkpt>
      <trkpt lat="45.84987" lon="4.84809">
        <ele>209.221603</ele>
        <time>2016-05-22T06:41:07Z</time>
      </trkpt>
      <trkpt lat="45.84983" lon="4.848">
        <ele>209.191193</ele>
        <time>2016-05-22T06:41:09Z</time>
      </trkpt>
      <trkpt lat="45.84979" lon="4.84788">
        <ele>208.766968</ele>
        <time>2016-05-22T06:41:11Z</time>
      </trkpt>
      <trkpt lat="45.84976" lon="4.84778">
        <ele>208.271362</ele>
        <time>2016-05-22T06:41:13Z</time>
      </trkpt>
      <trkpt lat="45.84976" lon="4.84767">
        <ele>208.011749</ele>
        <time>2016-05-22T06:41:15Z</time>
      </trkpt>
      <trkpt lat="45.84975" lon="4.84753">
        <ele>208.03511</ele>
        <time>2016-05-22T06:41:17Z</time>
      </trkpt>
      <trkpt lat="45.84973" lon="4.84739">
        <ele>207.69809</ele>
        <time>2016-05-22T06:41:19Z</time>
      </trkpt>
      <trkpt lat="45.84972" lon="4.84725">
        <ele>207.255585</ele>
        <time>2016-05-22T06:41:21Z</time>
      </trkpt>
      <trkpt lat="45.84967" lon="4.8471">
        <ele>207.017258</ele>
        <time>2016-05-22T06:41:23Z</time>
      </trkpt>
      <trkpt lat="45.8496" lon="4.84696">
        <ele>207.017258</ele>
        <time>2016-05-22T06:41:25Z</time>
      </trkpt>
      <trkpt lat="45.84953" lon="4.84686">
        <ele>206.712845</ele>
        <time>2016-05-22T06:41:27Z</time>
      </trkpt>
      <trkpt lat="45.84944" lon="4.84684">
        <ele>206.521332</ele>
        <time>2016-05-22T06:41:29Z</time>
      </trkpt>
      <trkpt lat="45.84934" lon="4.84686">
        <ele>206.306396</ele>
        <time>2016-05-22T06:41:31Z</time>
      </trkpt>
      <trkpt lat="45.84924" lon="4.8469">
        <ele>206.07695</ele>
        <time>2016-05-22T06:41:33Z</time>
      </trkpt>
      <trkpt lat="45.84913" lon="4.84693">
        <ele>206.074249</ele>
        <time>2016-05-22T06:41:35Z</time>
      </trkpt>
      <trkpt lat="45.84902" lon="4.84695">
        <ele>206.036011</ele>
        <time>2016-05-22T06:41:37Z</time>
      </trkpt>
      <trkpt lat="45.84893" lon="4.84692">
        <ele>205.970062</ele>
        <time>2016-05-22T06:41:39Z</time>
      </trkpt>
      <trkpt lat="45.84887" lon="4.84684">
        <ele>205.633987</ele>
        <time>2016-05-22T06:41:41Z</time>
      </trkpt>
      <trkpt lat="45.84878" lon="4.84674">
        <ele>205.297806</ele>
        <time>2016-05-22T06:41:43Z</time>
      </trkpt>
      <trkpt lat="45.84869" lon="4.84664">
        <ele>205.146042</ele>
        <time>2016-05-22T06:41:45Z</time>
      </trkpt>
      <trkpt lat="45.84861" lon="4.84657">
        <ele>204.984406</ele>
        <time>2016-05-22T06:41:47Z</time>
      </trkpt>
      <trkpt lat="45.84853" lon="4.84653">
        <ele>204.867508</ele>
        <time>2016-05-22T06:41:49Z</time>
      </trkpt>
      <trkpt lat="45.84847" lon="4.84648">
        <ele>204.774521</ele>
        <time>2016-05-22T06:41:51Z</time>
      </trkpt>
      <trkpt lat="45.84842" lon="4.84638">
        <ele>205.039017</ele>
        <time>2016-05-22T06:41:53Z</time>
      </trkpt>
      <trkpt lat="45.84836" lon="4.84628">
        <ele>205.04538</ele>
        <time>2016-05-22T06:41:55Z</time>
      </trkpt>
      <trkpt lat="45.84834" lon="4.8462">
        <ele>205.055862</ele>
        <time>2016-05-22T06:41:57Z</time>
      </trkpt>
      <trkpt lat="45.84833" lon="4.84609">
        <ele>204.966476</ele>
        <time>2016-05-22T06:41:59Z</time>
      </trkpt>
      <trkpt lat="45.84827" lon="4.84599">
        <ele>204.960129</ele>
        <time>2016-05-22T06:42:01Z</time>
      </trkpt>
      <trkpt lat="45.84821" lon="4.84589">
        <ele>205.123871</ele>
        <time>2016-05-22T06:42:03Z</time>
      </trkpt>
      <trkpt lat="45.84816" lon="4.84577">
        <ele>204.753845</ele>
        <time>2016-05-22T06:42:05Z</time>
      </trkpt>
      <trkpt lat="45.84816" lon="4.84565">
        <ele>204.549286</ele>
        <time>2016-05-22T06:42:07Z</time>
      </trkpt>
      <trkpt lat="45.8482" lon="4.84556">
        <ele>204.502472</ele>
        <time>2016-05-22T06:42:09Z</time>
      </trkpt>
      <trkpt lat="45.84826" lon="4.8455">
        <ele>204.242935</ele>
        <time>2016-05-22T06:42:11Z</time>
      </trkpt>
      <trkpt lat="45.84833" lon="4.84543">
        <ele>204.274872</ele>
        <time>2016-05-22T06:42:13Z</time>
      </trkpt>
      <trkpt lat="45.8484" lon="4.84538">
        <ele>204.174469</ele>
        <time>2016-05-22T06:42:15Z</time>
      </trkpt>
      <trkpt lat="45.84845" lon="4.84531">
        <ele>203.868668</ele>
        <time>2016-05-22T06:42:17Z</time>
      </trkpt>
      <trkpt lat="45.84848" lon="4.84526">
        <ele>203.70697</ele>
        <time>2016-05-22T06:42:19Z</time>
      </trkpt>
      <trkpt lat="45.84851" lon="4.84521">
        <ele>203.487885</ele>
        <time>2016-05-22T06:42:21Z</time>
      </trkpt>
      <trkpt lat="45.84853" lon="4.84519">
        <ele>203.689667</ele>
        <time>2016-05-22T06:42:23Z</time>
      </trkpt>
      <trkpt lat="45.84855" lon="4.84518">
        <ele>203.768707</ele>
        <time>2016-05-22T06:42:25Z</time>
      </trkpt>
      <trkpt lat="45.84859" lon="4.84515">
        <ele>204.072937</ele>
        <time>2016-05-22T06:42:29Z</time>
      </trkpt>
      <trkpt lat="45.84861" lon="4.84514">
        <ele>204.136749</ele>
        <time>2016-05-22T06:42:31Z</time>
      </trkpt>
      <trkpt lat="45.84865" lon="4.84514">
        <ele>204.296341</ele>
        <time>2016-05-22T06:42:33Z</time>
      </trkpt>
      <trkpt lat="45.84868" lon="4.84513">
        <ele>204.382065</ele>
        <time>2016-05-22T06:42:35Z</time>
      </trkpt>
      <trkpt lat="45.8487" lon="4.84513">
        <ele>204.448212</ele>
        <time>2016-05-22T06:42:37Z</time>
      </trkpt>
      <trkpt lat="45.84874" lon="4.84513">
        <ele>204.630173</ele>
        <time>2016-05-22T06:42:39Z</time>
      </trkpt>
      <trkpt lat="45.84876" lon="4.84513">
        <ele>204.925934</ele>
        <time>2016-05-22T06:42:41Z</time>
      </trkpt>
      <trkpt lat="45.84879" lon="4.84513">
        <ele>205.253632</ele>
        <time>2016-05-22T06:42:43Z</time>
      </trkpt>
      <trkpt lat="45.84883" lon="4.84513">
        <ele>205.783371</ele>
        <time>2016-05-22T06:42:45Z</time>
      </trkpt>
      <trkpt lat="45.84886" lon="4.84513">
        <ele>206.204636</ele>
        <time>2016-05-22T06:42:47Z</time>
      </trkpt>
      <trkpt lat="45.8489" lon="4.84512">
        <ele>206.422211</ele>
        <time>2016-05-22T06:42:49Z</time>
      </trkpt>
      <trkpt lat="45.84893" lon="4.84512">
        <ele>207.043579</ele>
        <time>2016-05-22T06:42:51Z</time>
      </trkpt>
      <trkpt lat="45.84896" lon="4.84511">
        <ele>207.658569</ele>
        <time>2016-05-22T06:42:53Z</time>
      </trkpt>
      <trkpt lat="45.84898" lon="4.84512">
        <ele>208.143799</ele>
        <time>2016-05-22T06:42:55Z</time>
      </trkpt>
      <trkpt lat="45.84901" lon="4.84513">
        <ele>208.630585</ele>
        <time>2016-05-22T06:42:57Z</time>
      </trkpt>
      <trkpt lat="45.84903" lon="4.84514">
        <ele>209.324265</ele>
        <time>2016-05-22T06:42:59Z</time>
      </trkpt>
      <trkpt lat="45.84906" lon="4.84515">
        <ele>209.857498</ele>
        <time>2016-05-22T06:43:01Z</time>
      </trkpt>
      <trkpt lat="45.84908" lon="4.84516">
        <ele>210.612991</ele>
        <time>2016-05-22T06:43:03Z</time>
      </trkpt>
      <trkpt lat="45.84911" lon="4.84517">
        <ele>211.262131</ele>
        <time>2016-05-22T06:43:05Z</time>
      </trkpt>
      <trkpt lat="45.84914" lon="4.84518">
        <ele>211.760284</ele>
        <time>2016-05-22T06:43:07Z</time>
      </trkpt>
      <trkpt lat="45.84916" lon="4.84519">
        <ele>212.37558</ele>
        <time>2016-05-22T06:43:09Z</time>
      </trkpt>
      <trkpt lat="45.84919" lon="4.84519">
        <ele>212.763092</ele>
        <time>2016-05-22T06:43:11Z</time>
      </trkpt>
      <trkpt lat="45.84922" lon="4.84519">
        <ele>213.248459</ele>
        <time>2016-05-22T06:43:13Z</time>
      </trkpt>
      <trkpt lat="45.84925" lon="4.8452">
        <ele>213.552979</ele>
        <time>2016-05-22T06:43:15Z</time>
      </trkpt>
      <trkpt lat="45.84927" lon="4.84521">
        <ele>214.175461</ele>
        <time>2016-05-22T06:43:17Z</time>
      </trkpt>
      <trkpt lat="45.84929" lon="4.8452">
        <ele>214.731659</ele>
        <time>2016-05-22T06:43:19Z</time>
      </trkpt>
      <trkpt lat="45.84931" lon="4.84519">
        <ele>215.288498</ele>
        <time>2016-05-22T06:43:21Z</time>
      </trkpt>
      <trkpt lat="45.84935" lon="4.84517">
        <ele>216.18721</ele>
        <time>2016-05-22T06:43:25Z</time>
      </trkpt>
      <trkpt lat="45.84937" lon="4.84517">
        <ele>216.694626</ele>
        <time>2016-05-22T06:43:27Z</time>
      </trkpt>
      <trkpt lat="45.84938" lon="4.84516">
        <ele>217.22908</ele>
        <time>2016-05-22T06:43:29Z</time>
      </trkpt>
      <trkpt lat="45.84942" lon="4.84515">
        <ele>218.00769</ele>
        <time>2016-05-22T06:43:33Z</time>
      </trkpt>
      <trkpt lat="45.84944" lon="4.84515">
        <ele>218.455032</ele>
        <time>2016-05-22T06:43:35Z</time>
      </trkpt>
      <trkpt lat="45.84947" lon="4.84514">
        <ele>218.994019</ele>
        <time>2016-05-22T06:43:37Z</time>
      </trkpt>
      <trkpt lat="45.84949" lon="4.84514">
        <ele>219.54422</ele>
        <time>2016-05-22T06:43:39Z</time>
      </trkpt>
      <trkpt lat="45.8495" lon="4.84513">
        <ele>220.056488</ele>
        <time>2016-05-22T06:43:41Z</time>
      </trkpt>
      <trkpt lat="45.84955" lon="4.84513">
        <ele>221.153473</ele>
        <time>2016-05-22T06:43:47Z</time>
      </trkpt>
      <trkpt lat="45.8496" lon="4.84515">
        <ele>222.649658</ele>
        <time>2016-05-22T06:43:55Z</time>
      </trkpt>
      <trkpt lat="45.84962" lon="4.84514">
        <ele>222.920334</ele>
        <time>2016-05-22T06:43:57Z</time>
      </trkpt>
      <trkpt lat="45.84964" lon="4.84514">
        <ele>223.297043</ele>
        <time>2016-05-22T06:43:59Z</time>
      </trkpt>
      <trkpt lat="45.84966" lon="4.84514">
        <ele>223.753174</ele>
        <time>2016-05-22T06:44:01Z</time>
      </trkpt>
      <trkpt lat="45.84967" lon="4.84514">
        <ele>224.130447</ele>
        <time>2016-05-22T06:44:03Z</time>
      </trkpt>
      <trkpt lat="45.84971" lon="4.84514">
        <ele>225.103683</ele>
        <time>2016-05-22T06:44:07Z</time>
      </trkpt>
      <trkpt lat="45.84974" lon="4.84513">
        <ele>225.613281</ele>
        <time>2016-05-22T06:44:09Z</time>
      </trkpt>
      <trkpt lat="45.84976" lon="4.84514">
        <ele>226.133148</ele>
        <time>2016-05-22T06:44:11Z</time>
      </trkpt>
      <trkpt lat="45.84977" lon="4.84515">
        <ele>227.08374</ele>
        <time>2016-05-22T06:44:15Z</time>
      </trkpt>
      <trkpt lat="45.8498" lon="4.84517">
        <ele>227.981415</ele>
        <time>2016-05-22T06:44:19Z</time>
      </trkpt>
      <trkpt lat="45.84982" lon="4.84517">
        <ele>228.188263</ele>
        <time>2016-05-22T06:44:21Z</time>
      </trkpt>
      <trkpt lat="45.84985" lon="4.84519">
        <ele>229.101654</ele>
        <time>2016-05-22T06:44:25Z</time>
      </trkpt>
      <trkpt lat="45.84987" lon="4.8452">
        <ele>229.569016</ele>
        <time>2016-05-22T06:44:27Z</time>
      </trkpt>
      <trkpt lat="45.8499" lon="4.84521">
        <ele>230.106293</ele>
        <time>2016-05-22T06:44:29Z</time>
      </trkpt>
      <trkpt lat="45.84993" lon="4.84522">
        <ele>230.750092</ele>
        <time>2016-05-22T06:44:31Z</time>
      </trkpt>
      <trkpt lat="45.84995" lon="4.84522">
        <ele>231.300003</ele>
        <time>2016-05-22T06:44:33Z</time>
      </trkpt>
      <trkpt lat="45.84999" lon="4.84521">
        <ele>231.78154</ele>
        <time>2016-05-22T06:44:35Z</time>
      </trkpt>
      <trkpt lat="45.85002" lon="4.84521">
        <ele>232.886444</ele>
        <time>2016-05-22T06:44:39Z</time>
      </trkpt>
      <trkpt lat="45.85004" lon="4.8452">
        <ele>233.441162</ele>
        <time>2016-05-22T06:44:41Z</time>
      </trkpt>
      <trkpt lat="45.85006" lon="4.84519">
        <ele>234.079071</ele>
        <time>2016-05-22T06:44:43Z</time>
      </trkpt>
      <trkpt lat="45.85009" lon="4.8452">
        <ele>234.710663</ele>
        <time>2016-05-22T06:44:45Z</time>
      </trkpt>
      <trkpt lat="45.85011" lon="4.8452">
        <ele>235.281891</ele>
        <time>2016-05-22T06:44:47Z</time>
      </trkpt>
      <trkpt lat="45.85014" lon="4.84523">
        <ele>236.138306</ele>
        <time>2016-05-22T06:44:51Z</time>
      </trkpt>
      <trkpt lat="45.85015" lon="4.84524">
        <ele>236.601349</ele>
        <time>2016-05-22T06:44:53Z</time>
      </trkpt>
      <trkpt lat="45.85018" lon="4.84525">
        <ele>237.001831</ele>
        <time>2016-05-22T06:44:55Z</time>
      </trkpt>
      <trkpt lat="45.8502" lon="4.84527">
        <ele>237.590851</ele>
        <time>2016-05-22T06:44:57Z</time>
      </trkpt>
      <trkpt lat="45.85022" lon="4.84528">
        <ele>238.069</ele>
        <time>2016-05-22T06:44:59Z</time>
      </trkpt>
      <trkpt lat="45.85024" lon="4.84529">
        <ele>238.55954</ele>
        <time>2016-05-22T06:45:01Z</time>
      </trkpt>
      <trkpt lat="45.85027" lon="4.84531">
        <ele>239.073151</ele>
        <time>2016-05-22T06:45:03Z</time>
      </trkpt>
      <trkpt lat="45.85029" lon="4.84532">
        <ele>239.634445</ele>
        <time>2016-05-22T06:45:05Z</time>
      </trkpt>
      <trkpt lat="45.8503" lon="4.84534">
        <ele>240.255569</ele>
        <time>2016-05-22T06:45:07Z</time>
      </trkpt>
      <trkpt lat="45.85031" lon="4.84536">
        <ele>240.716827</ele>
        <time>2016-05-22T06:45:09Z</time>
      </trkpt>
      <trkpt lat="45.85033" lon="4.84537">
        <ele>241.049881</ele>
        <time>2016-05-22T06:45:11Z</time>
      </trkpt>
      <trkpt lat="45.85034" lon="4.84538">
        <ele>241.440552</ele>
        <time>2016-05-22T06:45:13Z</time>
      </trkpt>
      <trkpt lat="45.85035" lon="4.84539">
        <ele>241.95755</ele>
        <time>2016-05-22T06:45:15Z</time>
      </trkpt>
      <trkpt lat="45.85038" lon="4.84539">
        <ele>242.726608</ele>
        <time>2016-05-22T06:45:19Z</time>
      </trkpt>
      <trkpt lat="45.85041" lon="4.8454">
        <ele>243.52243</ele>
        <time>2016-05-22T06:45:23Z</time>
      </trkpt>
      <trkpt lat="45.85043" lon="4.84541">
        <ele>243.811157</ele>
        <time>2016-05-22T06:45:25Z</time>
      </trkpt>
      <trkpt lat="45.85045" lon="4.84541">
        <ele>244.204147</ele>
        <time>2016-05-22T06:45:27Z</time>
      </trkpt>
      <trkpt lat="45.85047" lon="4.84541">
        <ele>244.616364</ele>
        <time>2016-05-22T06:45:29Z</time>
      </trkpt>
      <trkpt lat="45.85049" lon="4.84541">
        <ele>245.043488</ele>
        <time>2016-05-22T06:45:31Z</time>
      </trkpt>
      <trkpt lat="45.85051" lon="4.84542">
        <ele>245.417236</ele>
        <time>2016-05-22T06:45:33Z</time>
      </trkpt>
      <trkpt lat="45.85054" lon="4.84539">
        <ele>246.423172</ele>
        <time>2016-05-22T06:45:37Z</time>
      </trkpt>
      <trkpt lat="45.85059" lon="4.84535">
        <ele>246.563141</ele>
        <time>2016-05-22T06:45:39Z</time>
      </trkpt>
      <trkpt lat="45.85063" lon="4.84535">
        <ele>246.964554</ele>
        <time>2016-05-22T06:45:41Z</time>
      </trkpt>
      <trkpt lat="45.85064" lon="4.84536">
        <ele>247.296356</ele>
        <time>2016-05-22T06:45:43Z</time>
      </trkpt>
      <trkpt lat="45.85066" lon="4.84537">
        <ele>247.632446</ele>
        <time>2016-05-22T06:45:45Z</time>
      </trkpt>
      <trkpt lat="45.85065" lon="4.84542">
        <ele>249.660324</ele>
        <time>2016-05-22T06:47:10Z</time>
      </trkpt>
      <trkpt lat="45.85067" lon="4.84545">
        <ele>249.767166</ele>
        <time>2016-05-22T06:47:12Z</time>
      </trkpt>
      <trkpt lat="45.85069" lon="4.84544">
        <ele>249.750977</ele>
        <time>2016-05-22T06:47:14Z</time>
      </trkpt>
      <trkpt lat="45.85071" lon="4.84542">
        <ele>249.789429</ele>
        <time>2016-05-22T06:47:16Z</time>
      </trkpt>
      <trkpt lat="45.85072" lon="4.84538">
        <ele>249.84285</ele>
        <time>2016-05-22T06:47:18Z</time>
      </trkpt>
      <trkpt lat="45.8507" lon="4.84533">
        <ele>249.929153</ele>
        <time>2016-05-22T06:47:20Z</time>
      </trkpt>
      <trkpt lat="45.85068" lon="4.84528">
        <ele>249.970673</ele>
        <time>2016-05-22T06:47:22Z</time>
      </trkpt>
      <trkpt lat="45.85066" lon="4.84524">
        <ele>250.05188</ele>
        <time>2016-05-22T06:47:24Z</time>
      </trkpt>
      <trkpt lat="45.85064" lon="4.84518">
        <ele>250.117477</ele>
        <time>2016-05-22T06:47:26Z</time>
      </trkpt>
      <trkpt lat="45.85063" lon="4.84513">
        <ele>250.143143</ele>
        <time>2016-05-22T06:47:28Z</time>
      </trkpt>
      <trkpt lat="45.85061" lon="4.84507">
        <ele>250.170929</ele>
        <time>2016-05-22T06:47:30Z</time>
      </trkpt>
      <trkpt lat="45.85059" lon="4.84502">
        <ele>250.252121</ele>
        <time>2016-05-22T06:47:32Z</time>
      </trkpt>
      <trkpt lat="45.85057" lon="4.84495">
        <ele>250.333328</ele>
        <time>2016-05-22T06:47:34Z</time>
      </trkpt>
      <trkpt lat="45.85055" lon="4.84488">
        <ele>250.452972</ele>
        <time>2016-05-22T06:47:36Z</time>
      </trkpt>
      <trkpt lat="45.85053" lon="4.8448">
        <ele>250.435883</ele>
        <time>2016-05-22T06:47:38Z</time>
      </trkpt>
      <trkpt lat="45.85051" lon="4.84473">
        <ele>250.478714</ele>
        <time>2016-05-22T06:47:40Z</time>
      </trkpt>
      <trkpt lat="45.85049" lon="4.84465">
        <ele>250.424469</ele>
        <time>2016-05-22T06:47:42Z</time>
      </trkpt>
      <trkpt lat="45.85047" lon="4.84457">
        <ele>250.448761</ele>
        <time>2016-05-22T06:47:44Z</time>
      </trkpt>
      <trkpt lat="45.85044" lon="4.84448">
        <ele>250.354782</ele>
        <time>2016-05-22T06:47:46Z</time>
      </trkpt>
      <trkpt lat="45.85041" lon="4.84439">
        <ele>250.354782</ele>
        <time>2016-05-22T06:47:48Z</time>
      </trkpt>
      <trkpt lat="45.85038" lon="4.84428">
        <ele>250.291046</ele>
        <time>2016-05-22T06:47:50Z</time>
      </trkpt>
      <trkpt lat="45.85034" lon="4.84416">
        <ele>250.241898</ele>
        <time>2016-05-22T06:47:52Z</time>
      </trkpt>
      <trkpt lat="45.8503" lon="4.84403">
        <ele>250.066696</ele>
        <time>2016-05-22T06:47:54Z</time>
      </trkpt>
      <trkpt lat="45.85026" lon="4.84387">
        <ele>249.878708</ele>
        <time>2016-05-22T06:47:56Z</time>
      </trkpt>
      <trkpt lat="45.85022" lon="4.8437">
        <ele>249.806076</ele>
        <time>2016-05-22T06:47:58Z</time>
      </trkpt>
      <trkpt lat="45.85016" lon="4.84351">
        <ele>249.461594</ele>
        <time>2016-05-22T06:48:00Z</time>
      </trkpt>
      <trkpt lat="45.85005" lon="4.84336">
        <ele>249.156403</ele>
        <time>2016-05-22T06:48:02Z</time>
      </trkpt>
      <trkpt lat="45.84991" lon="4.84329">
        <ele>248.989792</ele>
        <time>2016-05-22T06:48:04Z</time>
      </trkpt>
      <trkpt lat="45.84977" lon="4.84321">
        <ele>248.567307</ele>
        <time>2016-05-22T06:48:06Z</time>
      </trkpt>
      <trkpt lat="45.84967" lon="4.84309">
        <ele>248.319534</ele>
        <time>2016-05-22T06:48:08Z</time>
      </trkpt>
      <trkpt lat="45.84957" lon="4.84296">
        <ele>248.108063</ele>
        <time>2016-05-22T06:48:10Z</time>
      </trkpt>
      <trkpt lat="45.84947" lon="4.84283">
        <ele>247.805298</ele>
        <time>2016-05-22T06:48:12Z</time>
      </trkpt>
      <trkpt lat="45.84936" lon="4.84268">
        <ele>247.487839</ele>
        <time>2016-05-22T06:48:14Z</time>
      </trkpt>
      <trkpt lat="45.84924" lon="4.84252">
        <ele>246.697723</ele>
        <time>2016-05-22T06:48:16Z</time>
      </trkpt>
      <trkpt lat="45.84911" lon="4.84235">
        <ele>245.907623</ele>
        <time>2016-05-22T06:48:18Z</time>
      </trkpt>
      <trkpt lat="45.84898" lon="4.84217">
        <ele>245.407684</ele>
        <time>2016-05-22T06:48:20Z</time>
      </trkpt>
      <trkpt lat="45.84884" lon="4.842">
        <ele>244.476776</ele>
        <time>2016-05-22T06:48:22Z</time>
      </trkpt>
      <trkpt lat="45.84871" lon="4.84183">
        <ele>244.021118</ele>
        <time>2016-05-22T06:48:24Z</time>
      </trkpt>
      <trkpt lat="45.84858" lon="4.84169">
        <ele>243.265228</ele>
        <time>2016-05-22T06:48:26Z</time>
      </trkpt>
      <trkpt lat="45.84847" lon="4.84154">
        <ele>242.70163</ele>
        <time>2016-05-22T06:48:28Z</time>
      </trkpt>
      <trkpt lat="45.84836" lon="4.84139">
        <ele>241.998749</ele>
        <time>2016-05-22T06:48:30Z</time>
      </trkpt>
      <trkpt lat="45.84825" lon="4.84126">
        <ele>241.223831</ele>
        <time>2016-05-22T06:48:32Z</time>
      </trkpt>
      <trkpt lat="45.84814" lon="4.84115">
        <ele>240.638824</ele>
        <time>2016-05-22T06:48:34Z</time>
      </trkpt>
      <trkpt lat="45.84803" lon="4.84105">
        <ele>240.000519</ele>
        <time>2016-05-22T06:48:36Z</time>
      </trkpt>
      <trkpt lat="45.84793" lon="4.84097">
        <ele>239.752853</ele>
        <time>2016-05-22T06:48:38Z</time>
      </trkpt>
      <trkpt lat="45.84784" lon="4.84087">
        <ele>239.042358</ele>
        <time>2016-05-22T06:48:40Z</time>
      </trkpt>
      <trkpt lat="45.84775" lon="4.84077">
        <ele>238.546906</ele>
        <time>2016-05-22T06:48:42Z</time>
      </trkpt>
      <trkpt lat="45.84766" lon="4.84066">
        <ele>237.844391</ele>
        <time>2016-05-22T06:48:44Z</time>
      </trkpt>
      <trkpt lat="45.84757" lon="4.84056">
        <ele>237.099319</ele>
        <time>2016-05-22T06:48:46Z</time>
      </trkpt>
      <trkpt lat="45.84746" lon="4.84046">
        <ele>236.493286</ele>
        <time>2016-05-22T06:48:48Z</time>
      </trkpt>
      <trkpt lat="45.84736" lon="4.84037">
        <ele>235.938278</ele>
        <time>2016-05-22T06:48:50Z</time>
      </trkpt>
      <trkpt lat="45.84725" lon="4.84028">
        <ele>235.386276</ele>
        <time>2016-05-22T06:48:52Z</time>
      </trkpt>
      <trkpt lat="45.84715" lon="4.8402">
        <ele>234.860397</ele>
        <time>2016-05-22T06:48:54Z</time>
      </trkpt>
      <trkpt lat="45.84704" lon="4.84013">
        <ele>234.448517</ele>
        <time>2016-05-22T06:48:56Z</time>
      </trkpt>
      <trkpt lat="45.84694" lon="4.84004">
        <ele>234.105057</ele>
        <time>2016-05-22T06:48:58Z</time>
      </trkpt>
      <trkpt lat="45.84685" lon="4.83991">
        <ele>233.838226</ele>
        <time>2016-05-22T06:49:00Z</time>
      </trkpt>
      <trkpt lat="45.84675" lon="4.83975">
        <ele>233.509857</ele>
        <time>2016-05-22T06:49:02Z</time>
      </trkpt>
      <trkpt lat="45.84665" lon="4.83957">
        <ele>233.332855</ele>
        <time>2016-05-22T06:49:04Z</time>
      </trkpt>
      <trkpt lat="45.84652" lon="4.83937">
        <ele>232.719147</ele>
        <time>2016-05-22T06:49:06Z</time>
      </trkpt>
      <trkpt lat="45.84639" lon="4.83918">
        <ele>232.021851</ele>
        <time>2016-05-22T06:49:08Z</time>
      </trkpt>
      <trkpt lat="45.84628" lon="4.83902">
        <ele>231.313324</ele>
        <time>2016-05-22T06:49:10Z</time>
      </trkpt>
      <trkpt lat="45.84623" lon="4.83892">
        <ele>230.349686</ele>
        <time>2016-05-22T06:49:12Z</time>
      </trkpt>
      <trkpt lat="45.84617" lon="4.83882">
        <ele>229.677887</ele>
        <time>2016-05-22T06:49:14Z</time>
      </trkpt>
      <trkpt lat="45.84607" lon="4.83874">
        <ele>228.750443</ele>
        <time>2016-05-22T06:49:16Z</time>
      </trkpt>
      <trkpt lat="45.84595" lon="4.83863">
        <ele>227.980103</ele>
        <time>2016-05-22T06:49:18Z</time>
      </trkpt>
      <trkpt lat="45.84583" lon="4.83849">
        <ele>226.703003</ele>
        <time>2016-05-22T06:49:20Z</time>
      </trkpt>
      <trkpt lat="45.8457" lon="4.83832">
        <ele>225.043671</ele>
        <time>2016-05-22T06:49:22Z</time>
      </trkpt>
      <trkpt lat="45.84556" lon="4.83811">
        <ele>223.742188</ele>
        <time>2016-05-22T06:49:24Z</time>
      </trkpt>
      <trkpt lat="45.84541" lon="4.83789">
        <ele>222.123367</ele>
        <time>2016-05-22T06:49:26Z</time>
      </trkpt>
      <trkpt lat="45.84526" lon="4.83769">
        <ele>221.292847</ele>
        <time>2016-05-22T06:49:28Z</time>
      </trkpt>
      <trkpt lat="45.84511" lon="4.83756">
        <ele>220.097824</ele>
        <time>2016-05-22T06:49:30Z</time>
      </trkpt>
      <trkpt lat="45.84499" lon="4.83746">
        <ele>218.598099</ele>
        <time>2016-05-22T06:49:32Z</time>
      </trkpt>
      <trkpt lat="45.84495" lon="4.8373">
        <ele>216.967453</ele>
        <time>2016-05-22T06:49:34Z</time>
      </trkpt>
      <trkpt lat="45.84494" lon="4.83714">
        <ele>215.389114</ele>
        <time>2016-05-22T06:49:36Z</time>
      </trkpt>
      <trkpt lat="45.84493" lon="4.83701">
        <ele>213.906693</ele>
        <time>2016-05-22T06:49:38Z</time>
      </trkpt>
      <trkpt lat="45.84491" lon="4.83688">
        <ele>212.577667</ele>
        <time>2016-05-22T06:49:40Z</time>
      </trkpt>
      <trkpt lat="45.84488" lon="4.83676">
        <ele>211.190704</ele>
        <time>2016-05-22T06:49:42Z</time>
      </trkpt>
      <trkpt lat="45.84481" lon="4.83668">
        <ele>209.9617</ele>
        <time>2016-05-22T06:49:44Z</time>
      </trkpt>
      <trkpt lat="45.84472" lon="4.83663">
        <ele>208.80542</ele>
        <time>2016-05-22T06:49:46Z</time>
      </trkpt>
      <trkpt lat="45.84463" lon="4.83659">
        <ele>207.925995</ele>
        <time>2016-05-22T06:49:48Z</time>
      </trkpt>
      <trkpt lat="45.84454" lon="4.83656">
        <ele>206.896088</ele>
        <time>2016-05-22T06:49:50Z</time>
      </trkpt>
      <trkpt lat="45.84445" lon="4.83653">
        <ele>206.644928</ele>
        <time>2016-05-22T06:49:52Z</time>
      </trkpt>
      <trkpt lat="45.84436" lon="4.8365">
        <ele>206.042526</ele>
        <time>2016-05-22T06:49:54Z</time>
      </trkpt>
      <trkpt lat="45.84427" lon="4.83648">
        <ele>205.314697</ele>
        <time>2016-05-22T06:49:56Z</time>
      </trkpt>
      <trkpt lat="45.84418" lon="4.83644">
        <ele>204.654877</ele>
        <time>2016-05-22T06:49:58Z</time>
      </trkpt>
      <trkpt lat="45.84409" lon="4.83641">
        <ele>203.974518</ele>
        <time>2016-05-22T06:50:00Z</time>
      </trkpt>
      <trkpt lat="45.84399" lon="4.83638">
        <ele>203.65744</ele>
        <time>2016-05-22T06:50:02Z</time>
      </trkpt>
      <trkpt lat="45.8439" lon="4.83635">
        <ele>203.833984</ele>
        <time>2016-05-22T06:50:04Z</time>
      </trkpt>
      <trkpt lat="45.84381" lon="4.83632">
        <ele>203.911667</ele>
        <time>2016-05-22T06:50:06Z</time>
      </trkpt>
      <trkpt lat="45.84371" lon="4.8363">
        <ele>204.117996</ele>
        <time>2016-05-22T06:50:08Z</time>
      </trkpt>
      <trkpt lat="45.84362" lon="4.83626">
        <ele>204.181717</ele>
        <time>2016-05-22T06:50:10Z</time>
      </trkpt>
      <trkpt lat="45.84353" lon="4.83624">
        <ele>204.145172</ele>
        <time>2016-05-22T06:50:12Z</time>
      </trkpt>
      <trkpt lat="45.84344" lon="4.83625">
        <ele>204.300446</ele>
        <time>2016-05-22T06:50:14Z</time>
      </trkpt>
      <trkpt lat="45.84337" lon="4.83632">
        <ele>204.436539</ele>
        <time>2016-05-22T06:50:16Z</time>
      </trkpt>
      <trkpt lat="45.84334" lon="4.83643">
        <ele>204.662018</ele>
        <time>2016-05-22T06:50:18Z</time>
      </trkpt>
      <trkpt lat="45.84334" lon="4.83654">
        <ele>204.858444</ele>
        <time>2016-05-22T06:50:20Z</time>
      </trkpt>
      <trkpt lat="45.84332" lon="4.83664">
        <ele>204.964874</ele>
        <time>2016-05-22T06:50:22Z</time>
      </trkpt>
      <trkpt lat="45.84332" lon="4.83673">
        <ele>205.178177</ele>
        <time>2016-05-22T06:50:24Z</time>
      </trkpt>
      <trkpt lat="45.84333" lon="4.83681">
        <ele>205.282425</ele>
        <time>2016-05-22T06:50:26Z</time>
      </trkpt>
      <trkpt lat="45.84337" lon="4.83691">
        <ele>205.301559</ele>
        <time>2016-05-22T06:50:28Z</time>
      </trkpt>
      <trkpt lat="45.8434" lon="4.83698">
        <ele>204.967819</ele>
        <time>2016-05-22T06:50:30Z</time>
      </trkpt>
      <trkpt lat="45.84342" lon="4.83702">
        <ele>204.893387</ele>
        <time>2016-05-22T06:50:32Z</time>
      </trkpt>
      <trkpt lat="45.84344" lon="4.83706">
        <ele>204.925293</ele>
        <time>2016-05-22T06:50:34Z</time>
      </trkpt>
      <trkpt lat="45.84346" lon="4.83709">
        <ele>204.825287</ele>
        <time>2016-05-22T06:50:36Z</time>
      </trkpt>
      <trkpt lat="45.84347" lon="4.83712">
        <ele>204.793411</ele>
        <time>2016-05-22T06:50:38Z</time>
      </trkpt>
      <trkpt lat="45.84347" lon="4.83713">
        <ele>204.66362</ele>
        <time>2016-05-22T06:50:40Z</time>
      </trkpt>
      <trkpt lat="45.84349" lon="4.83716">
        <ele>204.371063</ele>
        <time>2016-05-22T06:50:46Z</time>
      </trkpt>
      <trkpt lat="45.84349" lon="4.83718">
        <ele>204.163605</ele>
        <time>2016-05-22T06:50:48Z</time>
      </trkpt>
      <trkpt lat="45.84348" lon="4.83718">
        <ele>204.02005</ele>
        <time>2016-05-22T06:50:50Z</time>
      </trkpt>
      <trkpt lat="45.84346" lon="4.83718">
        <ele>203.832016</ele>
        <time>2016-05-22T06:50:52Z</time>
      </trkpt>
      <trkpt lat="45.84343" lon="4.8372">
        <ele>203.772842</ele>
        <time>2016-05-22T06:50:54Z</time>
      </trkpt>
      <trkpt lat="45.84344" lon="4.83721">
        <ele>203.64946</ele>
        <time>2016-05-22T06:50:56Z</time>
      </trkpt>
      <trkpt lat="45.84345" lon="4.83726">
        <ele>203.477158</ele>
        <time>2016-05-22T06:50:58Z</time>
      </trkpt>
      <trkpt lat="45.84343" lon="4.83729">
        <ele>203.238907</ele>
        <time>2016-05-22T06:51:00Z</time>
      </trkpt>
      <trkpt lat="45.8434" lon="4.83726">
        <ele>203.12326</ele>
        <time>2016-05-22T06:51:02Z</time>
      </trkpt>
      <trkpt lat="45.84338" lon="4.83721">
        <ele>202.938751</ele>
        <time>2016-05-22T06:51:04Z</time>
      </trkpt>
      <trkpt lat="45.84335" lon="4.83713">
        <ele>202.676666</ele>
        <time>2016-05-22T06:51:06Z</time>
      </trkpt>
      <trkpt lat="45.84329" lon="4.83706">
        <ele>202.394974</ele>
        <time>2016-05-22T06:51:08Z</time>
      </trkpt>
      <trkpt lat="45.84318" lon="4.83699">
        <ele>201.978165</ele>
        <time>2016-05-22T06:51:10Z</time>
      </trkpt>
      <trkpt lat="45.84305" lon="4.83696">
        <ele>201.905716</ele>
        <time>2016-05-22T06:51:12Z</time>
      </trkpt>
      <trkpt lat="45.84291" lon="4.83698">
        <ele>201.531494</ele>
        <time>2016-05-22T06:51:14Z</time>
      </trkpt>
      <trkpt lat="45.84274" lon="4.83704">
        <ele>200.900009</ele>
        <time>2016-05-22T06:51:16Z</time>
      </trkpt>
      <trkpt lat="45.84257" lon="4.83702">
        <ele>200.383377</ele>
        <time>2016-05-22T06:51:18Z</time>
      </trkpt>
      <trkpt lat="45.84241" lon="4.83687">
        <ele>199.658661</ele>
        <time>2016-05-22T06:51:20Z</time>
      </trkpt>
      <trkpt lat="45.84227" lon="4.83668">
        <ele>198.931503</ele>
        <time>2016-05-22T06:51:22Z</time>
      </trkpt>
      <trkpt lat="45.84215" lon="4.83646">
        <ele>198.32843</ele>
        <time>2016-05-22T06:51:24Z</time>
      </trkpt>
      <trkpt lat="45.8421" lon="4.8363">
        <ele>197.633347</ele>
        <time>2016-05-22T06:51:26Z</time>
      </trkpt>
      <trkpt lat="45.84209" lon="4.83618">
        <ele>197.021194</ele>
        <time>2016-05-22T06:51:28Z</time>
      </trkpt>
      <trkpt lat="45.84208" lon="4.83609">
        <ele>196.45871</ele>
        <time>2016-05-22T06:51:30Z</time>
      </trkpt>
      <trkpt lat="45.84205" lon="4.83603">
        <ele>196.081421</ele>
        <time>2016-05-22T06:51:32Z</time>
      </trkpt>
      <trkpt lat="45.84203" lon="4.836">
        <ele>195.486176</ele>
        <time>2016-05-22T06:51:34Z</time>
      </trkpt>
      <trkpt lat="45.84201" lon="4.83598">
        <ele>194.793213</ele>
        <time>2016-05-22T06:51:36Z</time>
      </trkpt>
      <trkpt lat="45.842" lon="4.83593">
        <ele>194.085419</ele>
        <time>2016-05-22T06:51:38Z</time>
      </trkpt>
      <trkpt lat="45.842" lon="4.83589">
        <ele>193.500931</ele>
        <time>2016-05-22T06:51:40Z</time>
      </trkpt>
      <trkpt lat="45.842" lon="4.83585">
        <ele>192.826736</ele>
        <time>2016-05-22T06:51:42Z</time>
      </trkpt>
      <trkpt lat="45.84201" lon="4.83581">
        <ele>192.162445</ele>
        <time>2016-05-22T06:51:44Z</time>
      </trkpt>
      <trkpt lat="45.84201" lon="4.83576">
        <ele>191.291229</ele>
        <time>2016-05-22T06:51:46Z</time>
      </trkpt>
      <trkpt lat="45.84202" lon="4.83572">
        <ele>190.191986</ele>
        <time>2016-05-22T06:51:48Z</time>
      </trkpt>
      <trkpt lat="45.84203" lon="4.83568">
        <ele>189.471725</ele>
        <time>2016-05-22T06:51:50Z</time>
      </trkpt>
      <trkpt lat="45.84204" lon="4.83565">
        <ele>189.11055</ele>
        <time>2016-05-22T06:51:52Z</time>
      </trkpt>
      <trkpt lat="45.84204" lon="4.83562">
        <ele>188.489426</ele>
        <time>2016-05-22T06:51:54Z</time>
      </trkpt>
      <trkpt lat="45.84204" lon="4.8356">
        <ele>187.858597</ele>
        <time>2016-05-22T06:51:56Z</time>
      </trkpt>
      <trkpt lat="45.84206" lon="4.83559">
        <ele>186.774689</ele>
        <time>2016-05-22T06:52:00Z</time>
      </trkpt>
      <trkpt lat="45.84207" lon="4.83558">
        <ele>186.229568</ele>
        <time>2016-05-22T06:52:04Z</time>
      </trkpt>
      <trkpt lat="45.84207" lon="4.83557">
        <ele>185.806976</ele>
        <time>2016-05-22T06:52:06Z</time>
      </trkpt>
      <trkpt lat="45.84206" lon="4.83551">
        <ele>185.250732</ele>
        <time>2016-05-22T06:52:08Z</time>
      </trkpt>
      <trkpt lat="45.8421" lon="4.83544">
        <ele>185.089386</ele>
        <time>2016-05-22T06:52:10Z</time>
      </trkpt>
      <trkpt lat="45.84218" lon="4.83534">
        <ele>184.353424</ele>
        <time>2016-05-22T06:52:12Z</time>
      </trkpt>
      <trkpt lat="45.84225" lon="4.83522">
        <ele>184.024292</ele>
        <time>2016-05-22T06:52:14Z</time>
      </trkpt>
      <trkpt lat="45.8423" lon="4.83508">
        <ele>183.135864</ele>
        <time>2016-05-22T06:52:16Z</time>
      </trkpt>
      <trkpt lat="45.84237" lon="4.83503">
        <ele>182.528732</ele>
        <time>2016-05-22T06:52:18Z</time>
      </trkpt>
      <trkpt lat="45.84245" lon="4.83504">
        <ele>181.855835</ele>
        <time>2016-05-22T06:52:20Z</time>
      </trkpt>
      <trkpt lat="45.84253" lon="4.83505">
        <ele>181.131989</ele>
        <time>2016-05-22T06:52:22Z</time>
      </trkpt>
      <trkpt lat="45.84263" lon="4.83506">
        <ele>180.400146</ele>
        <time>2016-05-22T06:52:24Z</time>
      </trkpt>
      <trkpt lat="45.84271" lon="4.83506">
        <ele>180.020721</ele>
        <time>2016-05-22T06:52:26Z</time>
      </trkpt>
      <trkpt lat="45.8428" lon="4.83506">
        <ele>179.417526</ele>
        <time>2016-05-22T06:52:28Z</time>
      </trkpt>
      <trkpt lat="45.84289" lon="4.83506">
        <ele>179.209595</ele>
        <time>2016-05-22T06:52:30Z</time>
      </trkpt>
      <trkpt lat="45.84297" lon="4.83507">
        <ele>178.717941</ele>
        <time>2016-05-22T06:52:32Z</time>
      </trkpt>
      <trkpt lat="45.84303" lon="4.83507">
        <ele>178.28894</ele>
        <time>2016-05-22T06:52:34Z</time>
      </trkpt>
      <trkpt lat="45.84308" lon="4.83509">
        <ele>177.77327</ele>
        <time>2016-05-22T06:52:36Z</time>
      </trkpt>
      <trkpt lat="45.84312" lon="4.83509">
        <ele>177.440094</ele>
        <time>2016-05-22T06:52:38Z</time>
      </trkpt>
      <trkpt lat="45.84317" lon="4.83509">
        <ele>177.049637</ele>
        <time>2016-05-22T06:52:40Z</time>
      </trkpt>
      <trkpt lat="45.84321" lon="4.83508">
        <ele>176.721436</ele>
        <time>2016-05-22T06:52:42Z</time>
      </trkpt>
      <trkpt lat="45.84325" lon="4.83507">
        <ele>176.394455</ele>
        <time>2016-05-22T06:52:44Z</time>
      </trkpt>
      <trkpt lat="45.84329" lon="4.83506">
        <ele>175.980591</ele>
        <time>2016-05-22T06:52:46Z</time>
      </trkpt>
      <trkpt lat="45.84331" lon="4.83505">
        <ele>175.812958</ele>
        <time>2016-05-22T06:52:48Z</time>
      </trkpt>
      <trkpt lat="45.84335" lon="4.83504">
        <ele>175.513748</ele>
        <time>2016-05-22T06:52:50Z</time>
      </trkpt>
      <trkpt lat="45.8434" lon="4.83505">
        <ele>175.29097</ele>
        <time>2016-05-22T06:52:52Z</time>
      </trkpt>
      <trkpt lat="45.84345" lon="4.83506">
        <ele>175.253662</ele>
        <time>2016-05-22T06:52:54Z</time>
      </trkpt>
      <trkpt lat="45.8435" lon="4.83507">
        <ele>174.861038</ele>
        <time>2016-05-22T06:52:56Z</time>
      </trkpt>
      <trkpt lat="45.84355" lon="4.83508">
        <ele>175.031281</ele>
        <time>2016-05-22T06:52:58Z</time>
      </trkpt>
      <trkpt lat="45.84361" lon="4.83508">
        <ele>174.8806</ele>
        <time>2016-05-22T06:53:00Z</time>
      </trkpt>
      <trkpt lat="45.84366" lon="4.83509">
        <ele>174.929398</ele>
        <time>2016-05-22T06:53:02Z</time>
      </trkpt>
      <trkpt lat="45.84371" lon="4.83509">
        <ele>174.889084</ele>
        <time>2016-05-22T06:53:04Z</time>
      </trkpt>
      <trkpt lat="45.84375" lon="4.83508">
        <ele>175.026962</ele>
        <time>2016-05-22T06:53:06Z</time>
      </trkpt>
      <trkpt lat="45.84381" lon="4.83509">
        <ele>175.076141</ele>
        <time>2016-05-22T06:53:08Z</time>
      </trkpt>
      <trkpt lat="45.84388" lon="4.83511">
        <ele>175.099472</ele>
        <time>2016-05-22T06:53:10Z</time>
      </trkpt>
      <trkpt lat="45.84396" lon="4.83512">
        <ele>175.180084</ele>
        <time>2016-05-22T06:53:12Z</time>
      </trkpt>
      <trkpt lat="45.84406" lon="4.83514">
        <ele>175.189987</ele>
        <time>2016-05-22T06:53:14Z</time>
      </trkpt>
      <trkpt lat="45.84415" lon="4.83516">
        <ele>175.267227</ele>
        <time>2016-05-22T06:53:16Z</time>
      </trkpt>
      <trkpt lat="45.84424" lon="4.83518">
        <ele>175.297638</ele>
        <time>2016-05-22T06:53:18Z</time>
      </trkpt>
      <trkpt lat="45.84434" lon="4.83521">
        <ele>175.422806</ele>
        <time>2016-05-22T06:53:20Z</time>
      </trkpt>
      <trkpt lat="45.84444" lon="4.83523">
        <ele>175.481155</ele>
        <time>2016-05-22T06:53:22Z</time>
      </trkpt>
      <trkpt lat="45.84454" lon="4.83525">
        <ele>175.56601</ele>
        <time>2016-05-22T06:53:24Z</time>
      </trkpt>
      <trkpt lat="45.84463" lon="4.83527">
        <ele>175.604202</ele>
        <time>2016-05-22T06:53:26Z</time>
      </trkpt>
      <trkpt lat="45.84472" lon="4.83528">
        <ele>175.672089</ele>
        <time>2016-05-22T06:53:28Z</time>
      </trkpt>
      <trkpt lat="45.84479" lon="4.83528">
        <ele>175.744232</ele>
        <time>2016-05-22T06:53:30Z</time>
      </trkpt>
      <trkpt lat="45.84483" lon="4.83524">
        <ele>175.822723</ele>
        <time>2016-05-22T06:53:32Z</time>
      </trkpt>
      <trkpt lat="45.84486" lon="4.83523">
        <ele>176.309708</ele>
        <time>2016-05-22T06:53:42Z</time>
      </trkpt>
      <trkpt lat="45.84486" lon="4.8352">
        <ele>176.376892</ele>
        <time>2016-05-22T06:53:44Z</time>
      </trkpt>
      <trkpt lat="45.84487" lon="4.83513">
        <ele>176.550842</ele>
        <time>2016-05-22T06:53:46Z</time>
      </trkpt>
      <trkpt lat="45.84487" lon="4.83506">
        <ele>176.517685</ele>
        <time>2016-05-22T06:53:48Z</time>
      </trkpt>
      <trkpt lat="45.84486" lon="4.83496">
        <ele>176.604675</ele>
        <time>2016-05-22T06:53:50Z</time>
      </trkpt>
      <trkpt lat="45.84486" lon="4.83486">
        <ele>176.740463</ele>
        <time>2016-05-22T06:53:52Z</time>
      </trkpt>
      <trkpt lat="45.84488" lon="4.83475">
        <ele>176.812759</ele>
        <time>2016-05-22T06:53:54Z</time>
      </trkpt>
      <trkpt lat="45.84489" lon="4.83465">
        <ele>176.92543</ele>
        <time>2016-05-22T06:53:56Z</time>
      </trkpt>
      <trkpt lat="45.8449" lon="4.83456">
        <ele>176.938629</ele>
        <time>2016-05-22T06:53:58Z</time>
      </trkpt>
      <trkpt lat="45.84491" lon="4.83446">
        <ele>176.959854</ele>
        <time>2016-05-22T06:54:00Z</time>
      </trkpt>
      <trkpt lat="45.84493" lon="4.83436">
        <ele>177.008652</ele>
        <time>2016-05-22T06:54:02Z</time>
      </trkpt>
      <trkpt lat="45.84494" lon="4.83426">
        <ele>176.977875</ele>
        <time>2016-05-22T06:54:04Z</time>
      </trkpt>
      <trkpt lat="45.84495" lon="4.83416">
        <ele>176.986359</ele>
        <time>2016-05-22T06:54:06Z</time>
      </trkpt>
      <trkpt lat="45.84497" lon="4.83405">
        <ele>177.019501</ele>
        <time>2016-05-22T06:54:08Z</time>
      </trkpt>
      <trkpt lat="45.84499" lon="4.83395">
        <ele>177.000397</ele>
        <time>2016-05-22T06:54:10Z</time>
      </trkpt>
      <trkpt lat="45.845" lon="4.83384">
        <ele>176.977081</ele>
        <time>2016-05-22T06:54:12Z</time>
      </trkpt>
      <trkpt lat="45.84501" lon="4.83373">
        <ele>176.919785</ele>
        <time>2016-05-22T06:54:14Z</time>
      </trkpt>
      <trkpt lat="45.84502" lon="4.83363">
        <ele>176.916901</ele>
        <time>2016-05-22T06:54:16Z</time>
      </trkpt>
      <trkpt lat="45.84503" lon="4.83353">
        <ele>177.090912</ele>
        <time>2016-05-22T06:54:18Z</time>
      </trkpt>
      <trkpt lat="45.84505" lon="4.83342">
        <ele>177.086655</ele>
        <time>2016-05-22T06:54:20Z</time>
      </trkpt>
      <trkpt lat="45.84507" lon="4.83329">
        <ele>177.180023</ele>
        <time>2016-05-22T06:54:22Z</time>
      </trkpt>
      <trkpt lat="45.84509" lon="4.83316">
        <ele>177.072418</ele>
        <time>2016-05-22T06:54:24Z</time>
      </trkpt>
      <trkpt lat="45.8451" lon="4.83303">
        <ele>177.034653</ele>
        <time>2016-05-22T06:54:26Z</time>
      </trkpt>
      <trkpt lat="45.84512" lon="4.8329">
        <ele>176.868393</ele>
        <time>2016-05-22T06:54:28Z</time>
      </trkpt>
      <trkpt lat="45.84514" lon="4.83279">
        <ele>176.881134</ele>
        <time>2016-05-22T06:54:30Z</time>
      </trkpt>
      <trkpt lat="45.84515" lon="4.83271">
        <ele>176.843964</ele>
        <time>2016-05-22T06:54:32Z</time>
      </trkpt>
      <trkpt lat="45.84515" lon="4.83265">
        <ele>176.740005</ele>
        <time>2016-05-22T06:54:34Z</time>
      </trkpt>
      <trkpt lat="45.84516" lon="4.83259">
        <ele>176.722839</ele>
        <time>2016-05-22T06:54:36Z</time>
      </trkpt>
      <trkpt lat="45.84517" lon="4.83251">
        <ele>176.646179</ele>
        <time>2016-05-22T06:54:38Z</time>
      </trkpt>
      <trkpt lat="45.8452" lon="4.83245">
        <ele>176.615982</ele>
        <time>2016-05-22T06:54:40Z</time>
      </trkpt>
      <trkpt lat="45.84528" lon="4.83245">
        <ele>176.628448</ele>
        <time>2016-05-22T06:54:42Z</time>
      </trkpt>
      <trkpt lat="45.84536" lon="4.83246">
        <ele>176.503281</ele>
        <time>2016-05-22T06:54:44Z</time>
      </trkpt>
      <trkpt lat="45.84546" lon="4.83246">
        <ele>176.520248</ele>
        <time>2016-05-22T06:54:46Z</time>
      </trkpt>
      <trkpt lat="45.84555" lon="4.83246">
        <ele>176.436188</ele>
        <time>2016-05-22T06:54:48Z</time>
      </trkpt>
      <trkpt lat="45.84565" lon="4.83245">
        <ele>176.463776</ele>
        <time>2016-05-22T06:54:50Z</time>
      </trkpt>
      <trkpt lat="45.84576" lon="4.83243">
        <ele>176.514267</ele>
        <time>2016-05-22T06:54:52Z</time>
      </trkpt>
      <trkpt lat="45.84587" lon="4.83241">
        <ele>176.586395</ele>
        <time>2016-05-22T06:54:54Z</time>
      </trkpt>
      <trkpt lat="45.84596" lon="4.83243">
        <ele>176.537613</ele>
        <time>2016-05-22T06:54:56Z</time>
      </trkpt>
      <trkpt lat="45.84605" lon="4.83245">
        <ele>176.646591</ele>
        <time>2016-05-22T06:54:58Z</time>
      </trkpt>
      <trkpt lat="45.84616" lon="4.83246">
        <ele>176.428024</ele>
        <time>2016-05-22T06:55:00Z</time>
      </trkpt>
      <trkpt lat="45.84629" lon="4.83251">
        <ele>176.55751</ele>
        <time>2016-05-22T06:55:02Z</time>
      </trkpt>
      <trkpt lat="45.84642" lon="4.83254">
        <ele>176.400497</ele>
        <time>2016-05-22T06:55:04Z</time>
      </trkpt>
      <trkpt lat="45.84655" lon="4.83256">
        <ele>176.32637</ele>
        <time>2016-05-22T06:55:06Z</time>
      </trkpt>
      <trkpt lat="45.84667" lon="4.83259">
        <ele>176.236847</ele>
        <time>2016-05-22T06:55:08Z</time>
      </trkpt>
      <trkpt lat="45.84678" lon="4.83262">
        <ele>176.302612</ele>
        <time>2016-05-22T06:55:10Z</time>
      </trkpt>
      <trkpt lat="45.84688" lon="4.83264">
        <ele>176.342926</ele>
        <time>2016-05-22T06:55:12Z</time>
      </trkpt>
      <trkpt lat="45.84699" lon="4.83267">
        <ele>176.382996</ele>
        <time>2016-05-22T06:55:14Z</time>
      </trkpt>
      <trkpt lat="45.84709" lon="4.83271">
        <ele>176.28334</ele>
        <time>2016-05-22T06:55:16Z</time>
      </trkpt>
      <trkpt lat="45.8472" lon="4.83274">
        <ele>176.103012</ele>
        <time>2016-05-22T06:55:18Z</time>
      </trkpt>
      <trkpt lat="45.8473" lon="4.83278">
        <ele>176.034698</ele>
        <time>2016-05-22T06:55:20Z</time>
      </trkpt>
      <trkpt lat="45.84741" lon="4.83282">
        <ele>175.854431</ele>
        <time>2016-05-22T06:55:22Z</time>
      </trkpt>
      <trkpt lat="45.84752" lon="4.83287">
        <ele>175.680725</ele>
        <time>2016-05-22T06:55:24Z</time>
      </trkpt>
      <trkpt lat="45.84762" lon="4.83292">
        <ele>175.837738</ele>
        <time>2016-05-22T06:55:26Z</time>
      </trkpt>
      <trkpt lat="45.84774" lon="4.83296">
        <ele>175.655319</ele>
        <time>2016-05-22T06:55:28Z</time>
      </trkpt>
      <trkpt lat="45.84786" lon="4.833">
        <ele>175.648956</ele>
        <time>2016-05-22T06:55:30Z</time>
      </trkpt>
      <trkpt lat="45.84797" lon="4.83304">
        <ele>175.464828</ele>
        <time>2016-05-22T06:55:32Z</time>
      </trkpt>
      <trkpt lat="45.84808" lon="4.83307">
        <ele>175.335419</ele>
        <time>2016-05-22T06:55:34Z</time>
      </trkpt>
      <trkpt lat="45.8482" lon="4.83309">
        <ele>175.256927</ele>
        <time>2016-05-22T06:55:36Z</time>
      </trkpt>
      <trkpt lat="45.84832" lon="4.83309">
        <ele>175.191544</ele>
        <time>2016-05-22T06:55:38Z</time>
      </trkpt>
      <trkpt lat="45.84844" lon="4.83309">
        <ele>175.144867</ele>
        <time>2016-05-22T06:55:40Z</time>
      </trkpt>
      <trkpt lat="45.84856" lon="4.83308">
        <ele>175.132141</ele>
        <time>2016-05-22T06:55:42Z</time>
      </trkpt>
      <trkpt lat="45.84869" lon="4.83306">
        <ele>174.951752</ele>
        <time>2016-05-22T06:55:44Z</time>
      </trkpt>
      <trkpt lat="45.8488" lon="4.83303">
        <ele>174.901596</ele>
        <time>2016-05-22T06:55:46Z</time>
      </trkpt>
      <trkpt lat="45.84892" lon="4.83303">
        <ele>174.952377</ele>
        <time>2016-05-22T06:55:48Z</time>
      </trkpt>
      <trkpt lat="45.84903" lon="4.83306">
        <ele>175.028778</ele>
        <time>2016-05-22T06:55:50Z</time>
      </trkpt>
      <trkpt lat="45.84914" lon="4.8331">
        <ele>175.058212</ele>
        <time>2016-05-22T06:55:52Z</time>
      </trkpt>
      <trkpt lat="45.84926" lon="4.83316">
        <ele>175.203842</ele>
        <time>2016-05-22T06:55:54Z</time>
      </trkpt>
      <trkpt lat="45.84937" lon="4.83323">
        <ele>175.114731</ele>
        <time>2016-05-22T06:55:56Z</time>
      </trkpt>
      <trkpt lat="45.8495" lon="4.83326">
        <ele>175.350159</ele>
        <time>2016-05-22T06:55:58Z</time>
      </trkpt>
      <trkpt lat="45.84962" lon="4.8333">
        <ele>175.358658</ele>
        <time>2016-05-22T06:56:00Z</time>
      </trkpt>
      <trkpt lat="45.84973" lon="4.83334">
        <ele>175.466888</ele>
        <time>2016-05-22T06:56:02Z</time>
      </trkpt>
      <trkpt lat="45.84984" lon="4.83343">
        <ele>175.64389</ele>
        <time>2016-05-22T06:56:04Z</time>
      </trkpt>
      <trkpt lat="45.84994" lon="4.83353">
        <ele>175.696686</ele>
        <time>2016-05-22T06:56:06Z</time>
      </trkpt>
      <trkpt lat="45.85004" lon="4.83364">
        <ele>175.736588</ele>
        <time>2016-05-22T06:56:08Z</time>
      </trkpt>
      <trkpt lat="45.85015" lon="4.83374">
        <ele>175.750763</ele>
        <time>2016-05-22T06:56:10Z</time>
      </trkpt>
      <trkpt lat="45.85026" lon="4.83384">
        <ele>175.62146</ele>
        <time>2016-05-22T06:56:12Z</time>
      </trkpt>
      <trkpt lat="45.85037" lon="4.83394">
        <ele>175.785553</ele>
        <time>2016-05-22T06:56:14Z</time>
      </trkpt>
      <trkpt lat="45.85048" lon="4.83404">
        <ele>175.994446</ele>
        <time>2016-05-22T06:56:16Z</time>
      </trkpt>
      <trkpt lat="45.85058" lon="4.83414">
        <ele>176.149323</ele>
        <time>2016-05-22T06:56:18Z</time>
      </trkpt>
      <trkpt lat="45.85067" lon="4.83425">
        <ele>176.218964</ele>
        <time>2016-05-22T06:56:20Z</time>
      </trkpt>
      <trkpt lat="45.85077" lon="4.83436">
        <ele>176.274139</ele>
        <time>2016-05-22T06:56:22Z</time>
      </trkpt>
      <trkpt lat="45.85087" lon="4.83448">
        <ele>176.242294</ele>
        <time>2016-05-22T06:56:24Z</time>
      </trkpt>
      <trkpt lat="45.85099" lon="4.83455">
        <ele>176.138336</ele>
        <time>2016-05-22T06:56:26Z</time>
      </trkpt>
      <trkpt lat="45.8511" lon="4.83457">
        <ele>176.079361</ele>
        <time>2016-05-22T06:56:28Z</time>
      </trkpt>
      <trkpt lat="45.85119" lon="4.83451">
        <ele>176.155945</ele>
        <time>2016-05-22T06:56:30Z</time>
      </trkpt>
      <trkpt lat="45.85125" lon="4.83441">
        <ele>176.200607</ele>
        <time>2016-05-22T06:56:32Z</time>
      </trkpt>
      <trkpt lat="45.85131" lon="4.83431">
        <ele>176.136963</ele>
        <time>2016-05-22T06:56:34Z</time>
      </trkpt>
      <trkpt lat="45.85136" lon="4.8342">
        <ele>176.179657</ele>
        <time>2016-05-22T06:56:36Z</time>
      </trkpt>
      <trkpt lat="45.85141" lon="4.83408">
        <ele>176.14357</ele>
        <time>2016-05-22T06:56:38Z</time>
      </trkpt>
      <trkpt lat="45.85146" lon="4.83396">
        <ele>176.251785</ele>
        <time>2016-05-22T06:56:40Z</time>
      </trkpt>
      <trkpt lat="45.8515" lon="4.83385">
        <ele>176.344315</ele>
        <time>2016-05-22T06:56:42Z</time>
      </trkpt>
      <trkpt lat="45.85154" lon="4.83374">
        <ele>176.497055</ele>
        <time>2016-05-22T06:56:44Z</time>
      </trkpt>
      <trkpt lat="45.85158" lon="4.83363">
        <ele>176.411224</ele>
        <time>2016-05-22T06:56:46Z</time>
      </trkpt>
      <trkpt lat="45.85161" lon="4.83354">
        <ele>176.405075</ele>
        <time>2016-05-22T06:56:48Z</time>
      </trkpt>
      <trkpt lat="45.85163" lon="4.83349">
        <ele>176.572266</ele>
        <time>2016-05-22T06:56:50Z</time>
      </trkpt>
      <trkpt lat="45.85164" lon="4.83346">
        <ele>176.52626</ele>
        <time>2016-05-22T06:56:52Z</time>
      </trkpt>
      <trkpt lat="45.85166" lon="4.83345">
        <ele>176.90863</ele>
        <time>2016-05-22T06:56:54Z</time>
      </trkpt>
      <trkpt lat="45.85169" lon="4.83344">
        <ele>176.842133</ele>
        <time>2016-05-22T06:56:56Z</time>
      </trkpt>
      <trkpt lat="45.85172" lon="4.83344">
        <ele>176.822037</ele>
        <time>2016-05-22T06:56:58Z</time>
      </trkpt>
      <trkpt lat="45.85176" lon="4.83344">
        <ele>176.79657</ele>
        <time>2016-05-22T06:57:00Z</time>
      </trkpt>
      <trkpt lat="45.85179" lon="4.83342">
        <ele>176.858063</ele>
        <time>2016-05-22T06:57:02Z</time>
      </trkpt>
      <trkpt lat="45.85178" lon="4.83336">
        <ele>176.966248</ele>
        <time>2016-05-22T06:57:04Z</time>
      </trkpt>
      <trkpt lat="45.85176" lon="4.83328">
        <ele>177.044754</ele>
        <time>2016-05-22T06:57:06Z</time>
      </trkpt>
      <trkpt lat="45.85173" lon="4.83319">
        <ele>177.211884</ele>
        <time>2016-05-22T06:57:08Z</time>
      </trkpt>
      <trkpt lat="45.85173" lon="4.83308">
        <ele>177.384918</ele>
        <time>2016-05-22T06:57:10Z</time>
      </trkpt>
      <trkpt lat="45.85175" lon="4.83296">
        <ele>177.511261</ele>
        <time>2016-05-22T06:57:12Z</time>
      </trkpt>
      <trkpt lat="45.85176" lon="4.83283">
        <ele>177.622284</ele>
        <time>2016-05-22T06:57:14Z</time>
      </trkpt>
      <trkpt lat="45.85178" lon="4.83271">
        <ele>177.753815</ele>
        <time>2016-05-22T06:57:16Z</time>
      </trkpt>
      <trkpt lat="45.8518" lon="4.8326">
        <ele>177.806854</ele>
        <time>2016-05-22T06:57:18Z</time>
      </trkpt>
      <trkpt lat="45.85181" lon="4.83248">
        <ele>177.797684</ele>
        <time>2016-05-22T06:57:20Z</time>
      </trkpt>
      <trkpt lat="45.85182" lon="4.83237">
        <ele>177.814667</ele>
        <time>2016-05-22T06:57:22Z</time>
      </trkpt>
      <trkpt lat="45.85184" lon="4.83224">
        <ele>177.891876</ele>
        <time>2016-05-22T06:57:24Z</time>
      </trkpt>
      <trkpt lat="45.85186" lon="4.83212">
        <ele>178.034042</ele>
        <time>2016-05-22T06:57:26Z</time>
      </trkpt>
      <trkpt lat="45.85186" lon="4.83199">
        <ele>178.034042</ele>
        <time>2016-05-22T06:57:28Z</time>
      </trkpt>
      <trkpt lat="45.85187" lon="4.83185">
        <ele>178.116959</ele>
        <time>2016-05-22T06:57:30Z</time>
      </trkpt>
      <trkpt lat="45.85187" lon="4.83171">
        <ele>178.270554</ele>
        <time>2016-05-22T06:57:32Z</time>
      </trkpt>
      <trkpt lat="45.85188" lon="4.83158">
        <ele>178.346359</ele>
        <time>2016-05-22T06:57:34Z</time>
      </trkpt>
      <trkpt lat="45.85188" lon="4.83144">
        <ele>178.438293</ele>
        <time>2016-05-22T06:57:36Z</time>
      </trkpt>
      <trkpt lat="45.85189" lon="4.83132">
        <ele>178.557144</ele>
        <time>2016-05-22T06:57:38Z</time>
      </trkpt>
      <trkpt lat="45.85189" lon="4.83118">
        <ele>178.809677</ele>
        <time>2016-05-22T06:57:40Z</time>
      </trkpt>
      <trkpt lat="45.8519" lon="4.83107">
        <ele>178.996429</ele>
        <time>2016-05-22T06:57:42Z</time>
      </trkpt>
      <trkpt lat="45.8519" lon="4.83096">
        <ele>179.32756</ele>
        <time>2016-05-22T06:57:44Z</time>
      </trkpt>
      <trkpt lat="45.85191" lon="4.83085">
        <ele>179.511536</ele>
        <time>2016-05-22T06:57:46Z</time>
      </trkpt>
      <trkpt lat="45.85191" lon="4.83075">
        <ele>179.898346</ele>
        <time>2016-05-22T06:57:48Z</time>
      </trkpt>
      <trkpt lat="45.85193" lon="4.83066">
        <ele>180.053299</ele>
        <time>2016-05-22T06:57:50Z</time>
      </trkpt>
      <trkpt lat="45.85196" lon="4.83059">
        <ele>180.424225</ele>
        <time>2016-05-22T06:57:52Z</time>
      </trkpt>
      <trkpt lat="45.85201" lon="4.83057">
        <ele>180.684723</ele>
        <time>2016-05-22T06:57:54Z</time>
      </trkpt>
      <trkpt lat="45.85209" lon="4.83057">
        <ele>181.047562</ele>
        <time>2016-05-22T06:57:56Z</time>
      </trkpt>
      <trkpt lat="45.85218" lon="4.83059">
        <ele>181.397797</ele>
        <time>2016-05-22T06:57:58Z</time>
      </trkpt>
      <trkpt lat="45.85229" lon="4.83062">
        <ele>181.779877</ele>
        <time>2016-05-22T06:58:00Z</time>
      </trkpt>
      <trkpt lat="45.85242" lon="4.83065">
        <ele>182.131454</ele>
        <time>2016-05-22T06:58:02Z</time>
      </trkpt>
      <trkpt lat="45.85256" lon="4.83069">
        <ele>182.328857</ele>
        <time>2016-05-22T06:58:04Z</time>
      </trkpt>
      <trkpt lat="45.85272" lon="4.83071">
        <ele>182.483795</ele>
        <time>2016-05-22T06:58:06Z</time>
      </trkpt>
      <trkpt lat="45.85288" lon="4.83073">
        <ele>182.679108</ele>
        <time>2016-05-22T06:58:08Z</time>
      </trkpt>
      <trkpt lat="45.85303" lon="4.83078">
        <ele>182.816879</ele>
        <time>2016-05-22T06:58:10Z</time>
      </trkpt>
      <trkpt lat="45.85318" lon="4.8308">
        <ele>182.912384</ele>
        <time>2016-05-22T06:58:12Z</time>
      </trkpt>
      <trkpt lat="45.85333" lon="4.83085">
        <ele>182.970367</ele>
        <time>2016-05-22T06:58:14Z</time>
      </trkpt>
      <trkpt lat="45.85348" lon="4.83089">
        <ele>183.028259</ele>
        <time>2016-05-22T06:58:16Z</time>
      </trkpt>
      <trkpt lat="45.85364" lon="4.83093">
        <ele>183.020584</ele>
        <time>2016-05-22T06:58:18Z</time>
      </trkpt>
      <trkpt lat="45.85379" lon="4.83097">
        <ele>183.050293</ele>
        <time>2016-05-22T06:58:20Z</time>
      </trkpt>
      <trkpt lat="45.85395" lon="4.831">
        <ele>182.920853</ele>
        <time>2016-05-22T06:58:22Z</time>
      </trkpt>
      <trkpt lat="45.8541" lon="4.83103">
        <ele>182.871414</ele>
        <time>2016-05-22T06:58:24Z</time>
      </trkpt>
      <trkpt lat="45.85424" lon="4.83107">
        <ele>182.542419</ele>
        <time>2016-05-22T06:58:26Z</time>
      </trkpt>
      <trkpt lat="45.85438" lon="4.83111">
        <ele>182.602509</ele>
        <time>2016-05-22T06:58:28Z</time>
      </trkpt>
      <trkpt lat="45.85451" lon="4.83115">
        <ele>182.39444</ele>
        <time>2016-05-22T06:58:30Z</time>
      </trkpt>
      <trkpt lat="45.85464" lon="4.83119">
        <ele>182.130203</ele>
        <time>2016-05-22T06:58:32Z</time>
      </trkpt>
      <trkpt lat="45.85477" lon="4.83122">
        <ele>181.876007</ele>
        <time>2016-05-22T06:58:34Z</time>
      </trkpt>
      <trkpt lat="45.85492" lon="4.83126">
        <ele>181.68866</ele>
        <time>2016-05-22T06:58:36Z</time>
      </trkpt>
      <trkpt lat="45.85506" lon="4.8313">
        <ele>181.489105</ele>
        <time>2016-05-22T06:58:38Z</time>
      </trkpt>
      <trkpt lat="45.85521" lon="4.83135">
        <ele>181.34903</ele>
        <time>2016-05-22T06:58:40Z</time>
      </trkpt>
      <trkpt lat="45.85535" lon="4.83138">
        <ele>181.036957</ele>
        <time>2016-05-22T06:58:42Z</time>
      </trkpt>
      <trkpt lat="45.85548" lon="4.83141">
        <ele>180.677582</ele>
        <time>2016-05-22T06:58:44Z</time>
      </trkpt>
      <trkpt lat="45.85561" lon="4.83143">
        <ele>180.648392</ele>
        <time>2016-05-22T06:58:46Z</time>
      </trkpt>
      <trkpt lat="45.85574" lon="4.83146">
        <ele>180.635651</ele>
        <time>2016-05-22T06:58:48Z</time>
      </trkpt>
      <trkpt lat="45.85586" lon="4.83149">
        <ele>180.53801</ele>
        <time>2016-05-22T06:58:50Z</time>
      </trkpt>
      <trkpt lat="45.85598" lon="4.83151">
        <ele>180.563751</ele>
        <time>2016-05-22T06:58:52Z</time>
      </trkpt>
      <trkpt lat="45.85611" lon="4.83154">
        <ele>180.703217</ele>
        <time>2016-05-22T06:58:54Z</time>
      </trkpt>
      <trkpt lat="45.85622" lon="4.83157">
        <ele>180.845474</ele>
        <time>2016-05-22T06:58:56Z</time>
      </trkpt>
      <trkpt lat="45.85635" lon="4.8316">
        <ele>180.926163</ele>
        <time>2016-05-22T06:58:58Z</time>
      </trkpt>
      <trkpt lat="45.85648" lon="4.83165">
        <ele>180.97287</ele>
        <time>2016-05-22T06:59:00Z</time>
      </trkpt>
      <trkpt lat="45.85661" lon="4.83169">
        <ele>181.048264</ele>
        <time>2016-05-22T06:59:02Z</time>
      </trkpt>
      <trkpt lat="45.85676" lon="4.83174">
        <ele>181.063095</ele>
        <time>2016-05-22T06:59:04Z</time>
      </trkpt>
      <trkpt lat="45.85691" lon="4.83178">
        <ele>181.068512</ele>
        <time>2016-05-22T06:59:06Z</time>
      </trkpt>
      <trkpt lat="45.85706" lon="4.83182">
        <ele>181.178864</ele>
        <time>2016-05-22T06:59:08Z</time>
      </trkpt>
      <trkpt lat="45.8572" lon="4.83185">
        <ele>181.034515</ele>
        <time>2016-05-22T06:59:10Z</time>
      </trkpt>
      <trkpt lat="45.85734" lon="4.83188">
        <ele>181.104584</ele>
        <time>2016-05-22T06:59:12Z</time>
      </trkpt>
      <trkpt lat="45.85747" lon="4.83193">
        <ele>181.119415</ele>
        <time>2016-05-22T06:59:14Z</time>
      </trkpt>
      <trkpt lat="45.85761" lon="4.83198">
        <ele>181.183075</ele>
        <time>2016-05-22T06:59:16Z</time>
      </trkpt>
      <trkpt lat="45.85774" lon="4.83204">
        <ele>181.179367</ele>
        <time>2016-05-22T06:59:18Z</time>
      </trkpt>
      <trkpt lat="45.85787" lon="4.83213">
        <ele>181.155991</ele>
        <time>2016-05-22T06:59:20Z</time>
      </trkpt>
      <trkpt lat="45.85799" lon="4.83223">
        <ele>181.136993</ele>
        <time>2016-05-22T06:59:22Z</time>
      </trkpt>
      <trkpt lat="45.85811" lon="4.83233">
        <ele>181.175186</ele>
        <time>2016-05-22T06:59:24Z</time>
      </trkpt>
      <trkpt lat="45.85823" lon="4.83242">
        <ele>181.217621</ele>
        <time>2016-05-22T06:59:26Z</time>
      </trkpt>
      <trkpt lat="45.85835" lon="4.83252">
        <ele>181.103134</ele>
        <time>2016-05-22T06:59:28Z</time>
      </trkpt>
      <trkpt lat="45.85847" lon="4.83261">
        <ele>180.982147</ele>
        <time>2016-05-22T06:59:30Z</time>
      </trkpt>
      <trkpt lat="45.85859" lon="4.8327">
        <ele>180.919891</ele>
        <time>2016-05-22T06:59:32Z</time>
      </trkpt>
      <trkpt lat="45.85871" lon="4.83279">
        <ele>180.830475</ele>
        <time>2016-05-22T06:59:34Z</time>
      </trkpt>
      <trkpt lat="45.85883" lon="4.83288">
        <ele>180.501434</ele>
        <time>2016-05-22T06:59:36Z</time>
      </trkpt>
      <trkpt lat="45.85895" lon="4.83298">
        <ele>180.380417</ele>
        <time>2016-05-22T06:59:38Z</time>
      </trkpt>
      <trkpt lat="45.85906" lon="4.83306">
        <ele>180.327316</ele>
        <time>2016-05-22T06:59:40Z</time>
      </trkpt>
      <trkpt lat="45.85918" lon="4.83314">
        <ele>180.244537</ele>
        <time>2016-05-22T06:59:42Z</time>
      </trkpt>
      <trkpt lat="45.8593" lon="4.83322">
        <ele>180.099945</ele>
        <time>2016-05-22T06:59:44Z</time>
      </trkpt>
      <trkpt lat="45.85941" lon="4.83329">
        <ele>180.144516</ele>
        <time>2016-05-22T06:59:46Z</time>
      </trkpt>
      <trkpt lat="45.85954" lon="4.83337">
        <ele>180.131241</ele>
        <time>2016-05-22T06:59:48Z</time>
      </trkpt>
      <trkpt lat="45.85965" lon="4.83345">
        <ele>180.28006</ele>
        <time>2016-05-22T06:59:50Z</time>
      </trkpt>
      <trkpt lat="45.85976" lon="4.83353">
        <ele>180.163361</ele>
        <time>2016-05-22T06:59:52Z</time>
      </trkpt>
      <trkpt lat="45.85987" lon="4.83361">
        <ele>180.091187</ele>
        <time>2016-05-22T06:59:54Z</time>
      </trkpt>
      <trkpt lat="45.85997" lon="4.83364">
        <ele>180.246124</ele>
        <time>2016-05-22T06:59:56Z</time>
      </trkpt>
      <trkpt lat="45.86004" lon="4.83355">
        <ele>180.358643</ele>
        <time>2016-05-22T06:59:58Z</time>
      </trkpt>
      <trkpt lat="45.86006" lon="4.83342">
        <ele>180.481232</ele>
        <time>2016-05-22T07:00:00Z</time>
      </trkpt>
      <trkpt lat="45.86008" lon="4.83328">
        <ele>180.732117</ele>
        <time>2016-05-22T07:00:02Z</time>
      </trkpt>
      <trkpt lat="45.8601" lon="4.83314">
        <ele>180.866028</ele>
        <time>2016-05-22T07:00:04Z</time>
      </trkpt>
      <trkpt lat="45.86012" lon="4.83302">
        <ele>181.003906</ele>
        <time>2016-05-22T07:00:06Z</time>
      </trkpt>
      <trkpt lat="45.86013" lon="4.83293">
        <ele>181.199188</ele>
        <time>2016-05-22T07:00:08Z</time>
      </trkpt>
      <trkpt lat="45.86017" lon="4.83288">
        <ele>181.362793</ele>
        <time>2016-05-22T07:00:10Z</time>
      </trkpt>
      <trkpt lat="45.86023" lon="4.83286">
        <ele>181.581451</ele>
        <time>2016-05-22T07:00:12Z</time>
      </trkpt>
      <trkpt lat="45.86033" lon="4.83284">
        <ele>181.696777</ele>
        <time>2016-05-22T07:00:14Z</time>
      </trkpt>
      <trkpt lat="45.86044" lon="4.83285">
        <ele>181.885712</ele>
        <time>2016-05-22T07:00:16Z</time>
      </trkpt>
      <trkpt lat="45.86056" lon="4.83288">
        <ele>181.926041</ele>
        <time>2016-05-22T07:00:18Z</time>
      </trkpt>
      <trkpt lat="45.86068" lon="4.83291">
        <ele>182.034378</ele>
        <time>2016-05-22T07:00:20Z</time>
      </trkpt>
      <trkpt lat="45.86081" lon="4.83294">
        <ele>182.085312</ele>
        <time>2016-05-22T07:00:22Z</time>
      </trkpt>
      <trkpt lat="45.86094" lon="4.83297">
        <ele>182.143692</ele>
        <time>2016-05-22T07:00:24Z</time>
      </trkpt>
      <trkpt lat="45.86107" lon="4.833">
        <ele>182.208649</ele>
        <time>2016-05-22T07:00:26Z</time>
      </trkpt>
      <trkpt lat="45.86119" lon="4.83304">
        <ele>182.144989</ele>
        <time>2016-05-22T07:00:28Z</time>
      </trkpt>
      <trkpt lat="45.86127" lon="4.83301">
        <ele>182.125534</ele>
        <time>2016-05-22T07:00:30Z</time>
      </trkpt>
      <trkpt lat="45.86132" lon="4.83292">
        <ele>181.971405</ele>
        <time>2016-05-22T07:00:32Z</time>
      </trkpt>
      <trkpt lat="45.86132" lon="4.83285">
        <ele>182.089661</ele>
        <time>2016-05-22T07:00:35Z</time>
      </trkpt>
      <trkpt lat="45.86142" lon="4.8329">
        <ele>182.030899</ele>
        <time>2016-05-22T07:00:37Z</time>
      </trkpt>
      <trkpt lat="45.8614" lon="4.83279">
        <ele>181.905655</ele>
        <time>2016-05-22T07:00:39Z</time>
      </trkpt>
      <trkpt lat="45.86141" lon="4.83268">
        <ele>181.820724</ele>
        <time>2016-05-22T07:00:41Z</time>
      </trkpt>
      <trkpt lat="45.86147" lon="4.83267">
        <ele>181.671829</ele>
        <time>2016-05-22T07:00:43Z</time>
      </trkpt>
      <trkpt lat="45.86153" lon="4.83262">
        <ele>181.601563</ele>
        <time>2016-05-22T07:00:45Z</time>
      </trkpt>
      <trkpt lat="45.86163" lon="4.83264">
        <ele>181.493301</ele>
        <time>2016-05-22T07:00:47Z</time>
      </trkpt>
      <trkpt lat="45.86173" lon="4.83267">
        <ele>181.361679</ele>
        <time>2016-05-22T07:00:49Z</time>
      </trkpt>
      <trkpt lat="45.86185" lon="4.83271">
        <ele>181.276764</ele>
        <time>2016-05-22T07:00:51Z</time>
      </trkpt>
      <trkpt lat="45.86198" lon="4.83275">
        <ele>181.248337</ele>
        <time>2016-05-22T07:00:53Z</time>
      </trkpt>
      <trkpt lat="45.86211" lon="4.83278">
        <ele>181.118866</ele>
        <time>2016-05-22T07:00:55Z</time>
      </trkpt>
      <trkpt lat="45.86223" lon="4.83282">
        <ele>180.893845</ele>
        <time>2016-05-22T07:00:57Z</time>
      </trkpt>
      <trkpt lat="45.86234" lon="4.83285">
        <ele>180.933167</ele>
        <time>2016-05-22T07:00:59Z</time>
      </trkpt>
      <trkpt lat="45.86245" lon="4.83284">
        <ele>180.960663</ele>
        <time>2016-05-22T07:01:01Z</time>
      </trkpt>
      <trkpt lat="45.86256" lon="4.83285">
        <ele>180.903366</ele>
        <time>2016-05-22T07:01:03Z</time>
      </trkpt>
      <trkpt lat="45.86268" lon="4.83288">
        <ele>180.920502</ele>
        <time>2016-05-22T07:01:05Z</time>
      </trkpt>
      <trkpt lat="45.86281" lon="4.83292">
        <ele>180.95871</ele>
        <time>2016-05-22T07:01:07Z</time>
      </trkpt>
      <trkpt lat="45.86294" lon="4.83296">
        <ele>181.086044</ele>
        <time>2016-05-22T07:01:09Z</time>
      </trkpt>
      <trkpt lat="45.86308" lon="4.83299">
        <ele>181.186859</ele>
        <time>2016-05-22T07:01:11Z</time>
      </trkpt>
      <trkpt lat="45.86322" lon="4.83301">
        <ele>181.289291</ele>
        <time>2016-05-22T07:01:13Z</time>
      </trkpt>
      <trkpt lat="45.86335" lon="4.83304">
        <ele>181.351425</ele>
        <time>2016-05-22T07:01:15Z</time>
      </trkpt>
      <trkpt lat="45.86349" lon="4.83307">
        <ele>181.338699</ele>
        <time>2016-05-22T07:01:17Z</time>
      </trkpt>
      <trkpt lat="45.86362" lon="4.83308">
        <ele>181.172516</ele>
        <time>2016-05-22T07:01:19Z</time>
      </trkpt>
      <trkpt lat="45.86375" lon="4.83308">
        <ele>181.172516</ele>
        <time>2016-05-22T07:01:21Z</time>
      </trkpt>
      <trkpt lat="45.86388" lon="4.83307">
        <ele>181.070541</ele>
        <time>2016-05-22T07:01:23Z</time>
      </trkpt>
      <trkpt lat="45.864" lon="4.83304">
        <ele>181.072693</ele>
        <time>2016-05-22T07:01:25Z</time>
      </trkpt>
      <trkpt lat="45.86411" lon="4.83299">
        <ele>181.110916</ele>
        <time>2016-05-22T07:01:27Z</time>
      </trkpt>
      <trkpt lat="45.86421" lon="4.83293">
        <ele>181.117279</ele>
        <time>2016-05-22T07:01:29Z</time>
      </trkpt>
      <trkpt lat="45.86432" lon="4.83285">
        <ele>181.129211</ele>
        <time>2016-05-22T07:01:31Z</time>
      </trkpt>
      <trkpt lat="45.86442" lon="4.83277">
        <ele>181.110428</ele>
        <time>2016-05-22T07:01:33Z</time>
      </trkpt>
      <trkpt lat="45.86451" lon="4.83268">
        <ele>181.103653</ele>
        <time>2016-05-22T07:01:35Z</time>
      </trkpt>
      <trkpt lat="45.86461" lon="4.83258">
        <ele>181.337173</ele>
        <time>2016-05-22T07:01:37Z</time>
      </trkpt>
      <trkpt lat="45.8647" lon="4.83249">
        <ele>181.557938</ele>
        <time>2016-05-22T07:01:39Z</time>
      </trkpt>
      <trkpt lat="45.86478" lon="4.83239">
        <ele>181.675323</ele>
        <time>2016-05-22T07:01:41Z</time>
      </trkpt>
      <trkpt lat="45.86486" lon="4.8323">
        <ele>181.779343</ele>
        <time>2016-05-22T07:01:43Z</time>
      </trkpt>
      <trkpt lat="45.86494" lon="4.83222">
        <ele>181.978729</ele>
        <time>2016-05-22T07:01:45Z</time>
      </trkpt>
      <trkpt lat="45.86503" lon="4.83217">
        <ele>182.214432</ele>
        <time>2016-05-22T07:01:47Z</time>
      </trkpt>
      <trkpt lat="45.86512" lon="4.83214">
        <ele>182.532867</ele>
        <time>2016-05-22T07:01:49Z</time>
      </trkpt>
      <trkpt lat="45.86521" lon="4.83213">
        <ele>182.658142</ele>
        <time>2016-05-22T07:01:51Z</time>
      </trkpt>
      <trkpt lat="45.8653" lon="4.83212">
        <ele>182.873077</ele>
        <time>2016-05-22T07:01:53Z</time>
      </trkpt>
      <trkpt lat="45.86539" lon="4.8321">
        <ele>183.067169</ele>
        <time>2016-05-22T07:01:55Z</time>
      </trkpt>
      <trkpt lat="45.86548" lon="4.83207">
        <ele>183.366547</ele>
        <time>2016-05-22T07:01:57Z</time>
      </trkpt>
      <trkpt lat="45.86552" lon="4.83198">
        <ele>183.767563</ele>
        <time>2016-05-22T07:01:59Z</time>
      </trkpt>
      <trkpt lat="45.86553" lon="4.83188">
        <ele>184.313141</ele>
        <time>2016-05-22T07:02:01Z</time>
      </trkpt>
      <trkpt lat="45.86554" lon="4.83178">
        <ele>184.6996</ele>
        <time>2016-05-22T07:02:03Z</time>
      </trkpt>
      <trkpt lat="45.86555" lon="4.83168">
        <ele>185.090225</ele>
        <time>2016-05-22T07:02:05Z</time>
      </trkpt>
      <trkpt lat="45.86556" lon="4.83158">
        <ele>185.426025</ele>
        <time>2016-05-22T07:02:07Z</time>
      </trkpt>
      <trkpt lat="45.86557" lon="4.8315">
        <ele>185.755188</ele>
        <time>2016-05-22T07:02:09Z</time>
      </trkpt>
      <trkpt lat="45.86559" lon="4.83142">
        <ele>186.252899</ele>
        <time>2016-05-22T07:02:11Z</time>
      </trkpt>
      <trkpt lat="45.8656" lon="4.83135">
        <ele>186.666656</ele>
        <time>2016-05-22T07:02:13Z</time>
      </trkpt>
      <trkpt lat="45.86562" lon="4.83127">
        <ele>187.136398</ele>
        <time>2016-05-22T07:02:15Z</time>
      </trkpt>
      <trkpt lat="45.86565" lon="4.8312">
        <ele>187.293579</ele>
        <time>2016-05-22T07:02:17Z</time>
      </trkpt>
      <trkpt lat="45.86568" lon="4.83112">
        <ele>187.552353</ele>
        <time>2016-05-22T07:02:19Z</time>
      </trkpt>
      <trkpt lat="45.86571" lon="4.83105">
        <ele>187.934662</ele>
        <time>2016-05-22T07:02:21Z</time>
      </trkpt>
      <trkpt lat="45.86573" lon="4.83098">
        <ele>188.253632</ele>
        <time>2016-05-22T07:02:23Z</time>
      </trkpt>
      <trkpt lat="45.86575" lon="4.83091">
        <ele>188.587112</ele>
        <time>2016-05-22T07:02:25Z</time>
      </trkpt>
      <trkpt lat="45.86578" lon="4.83084">
        <ele>189.025757</ele>
        <time>2016-05-22T07:02:27Z</time>
      </trkpt>
      <trkpt lat="45.8658" lon="4.83078">
        <ele>189.310196</ele>
        <time>2016-05-22T07:02:29Z</time>
      </trkpt>
      <trkpt lat="45.86583" lon="4.83074">
        <ele>189.641586</ele>
        <time>2016-05-22T07:02:31Z</time>
      </trkpt>
      <trkpt lat="45.86586" lon="4.8307">
        <ele>190.018158</ele>
        <time>2016-05-22T07:02:33Z</time>
      </trkpt>
      <trkpt lat="45.86589" lon="4.83066">
        <ele>190.426041</ele>
        <time>2016-05-22T07:02:35Z</time>
      </trkpt>
      <trkpt lat="45.86592" lon="4.83063">
        <ele>190.617264</ele>
        <time>2016-05-22T07:02:37Z</time>
      </trkpt>
      <trkpt lat="45.86595" lon="4.83059">
        <ele>190.987152</ele>
        <time>2016-05-22T07:02:39Z</time>
      </trkpt>
      <trkpt lat="45.86598" lon="4.83056">
        <ele>191.412292</ele>
        <time>2016-05-22T07:02:41Z</time>
      </trkpt>
      <trkpt lat="45.86601" lon="4.83052">
        <ele>191.805389</ele>
        <time>2016-05-22T07:02:43Z</time>
      </trkpt>
      <trkpt lat="45.86604" lon="4.83047">
        <ele>192.156219</ele>
        <time>2016-05-22T07:02:45Z</time>
      </trkpt>
      <trkpt lat="45.86606" lon="4.83043">
        <ele>192.657654</ele>
        <time>2016-05-22T07:02:47Z</time>
      </trkpt>
      <trkpt lat="45.86609" lon="4.83039">
        <ele>193.214111</ele>
        <time>2016-05-22T07:02:49Z</time>
      </trkpt>
      <trkpt lat="45.86611" lon="4.83034">
        <ele>193.656158</ele>
        <time>2016-05-22T07:02:51Z</time>
      </trkpt>
      <trkpt lat="45.86614" lon="4.8303">
        <ele>194.007599</ele>
        <time>2016-05-22T07:02:53Z</time>
      </trkpt>
      <trkpt lat="45.86616" lon="4.83025">
        <ele>194.430527</ele>
        <time>2016-05-22T07:02:55Z</time>
      </trkpt>
      <trkpt lat="45.86618" lon="4.8302">
        <ele>194.713226</ele>
        <time>2016-05-22T07:02:57Z</time>
      </trkpt>
      <trkpt lat="45.8662" lon="4.83015">
        <ele>195.110138</ele>
        <time>2016-05-22T07:02:59Z</time>
      </trkpt>
      <trkpt lat="45.86622" lon="4.8301">
        <ele>195.545654</ele>
        <time>2016-05-22T07:03:01Z</time>
      </trkpt>
      <trkpt lat="45.86624" lon="4.83005">
        <ele>195.875092</ele>
        <time>2016-05-22T07:03:03Z</time>
      </trkpt>
      <trkpt lat="45.86626" lon="4.83">
        <ele>196.385239</ele>
        <time>2016-05-22T07:03:05Z</time>
      </trkpt>
      <trkpt lat="45.86628" lon="4.82995">
        <ele>196.908188</ele>
        <time>2016-05-22T07:03:07Z</time>
      </trkpt>
      <trkpt lat="45.86629" lon="4.8299">
        <ele>197.356781</ele>
        <time>2016-05-22T07:03:09Z</time>
      </trkpt>
      <trkpt lat="45.86631" lon="4.82985">
        <ele>197.897003</ele>
        <time>2016-05-22T07:03:11Z</time>
      </trkpt>
      <trkpt lat="45.86633" lon="4.8298">
        <ele>198.40155</ele>
        <time>2016-05-22T07:03:13Z</time>
      </trkpt>
      <trkpt lat="45.86634" lon="4.82974">
        <ele>198.675858</ele>
        <time>2016-05-22T07:03:15Z</time>
      </trkpt>
      <trkpt lat="45.86636" lon="4.82969">
        <ele>199.180573</ele>
        <time>2016-05-22T07:03:17Z</time>
      </trkpt>
      <trkpt lat="45.86639" lon="4.82965">
        <ele>199.72496</ele>
        <time>2016-05-22T07:03:19Z</time>
      </trkpt>
      <trkpt lat="45.86641" lon="4.8296">
        <ele>200.283966</ele>
        <time>2016-05-22T07:03:21Z</time>
      </trkpt>
      <trkpt lat="45.86644" lon="4.82956">
        <ele>200.729767</ele>
        <time>2016-05-22T07:03:23Z</time>
      </trkpt>
      <trkpt lat="45.86646" lon="4.82953">
        <ele>201.250824</ele>
        <time>2016-05-22T07:03:25Z</time>
      </trkpt>
      <trkpt lat="45.86649" lon="4.82951">
        <ele>201.784393</ele>
        <time>2016-05-22T07:03:27Z</time>
      </trkpt>
      <trkpt lat="45.86652" lon="4.82948">
        <ele>202.290588</ele>
        <time>2016-05-22T07:03:29Z</time>
      </trkpt>
      <trkpt lat="45.86655" lon="4.82946">
        <ele>202.688339</ele>
        <time>2016-05-22T07:03:31Z</time>
      </trkpt>
      <trkpt lat="45.86658" lon="4.82944">
        <ele>202.922348</ele>
        <time>2016-05-22T07:03:33Z</time>
      </trkpt>
      <trkpt lat="45.86661" lon="4.82942">
        <ele>203.455902</ele>
        <time>2016-05-22T07:03:35Z</time>
      </trkpt>
      <trkpt lat="45.86664" lon="4.8294">
        <ele>204.028137</ele>
        <time>2016-05-22T07:03:37Z</time>
      </trkpt>
      <trkpt lat="45.86667" lon="4.82937">
        <ele>204.511047</ele>
        <time>2016-05-22T07:03:39Z</time>
      </trkpt>
      <trkpt lat="45.8667" lon="4.82934">
        <ele>205.026413</ele>
        <time>2016-05-22T07:03:41Z</time>
      </trkpt>
      <trkpt lat="45.86673" lon="4.82931">
        <ele>205.263214</ele>
        <time>2016-05-22T07:03:43Z</time>
      </trkpt>
      <trkpt lat="45.86676" lon="4.82927">
        <ele>205.814621</ele>
        <time>2016-05-22T07:03:45Z</time>
      </trkpt>
      <trkpt lat="45.86679" lon="4.82923">
        <ele>206.369873</ele>
        <time>2016-05-22T07:03:47Z</time>
      </trkpt>
      <trkpt lat="45.86681" lon="4.82918">
        <ele>206.886917</ele>
        <time>2016-05-22T07:03:49Z</time>
      </trkpt>
      <trkpt lat="45.86683" lon="4.82913">
        <ele>207.33194</ele>
        <time>2016-05-22T07:03:51Z</time>
      </trkpt>
      <trkpt lat="45.86684" lon="4.82907">
        <ele>207.806473</ele>
        <time>2016-05-22T07:03:53Z</time>
      </trkpt>
      <trkpt lat="45.86686" lon="4.82902">
        <ele>208.327545</ele>
        <time>2016-05-22T07:03:55Z</time>
      </trkpt>
      <trkpt lat="45.86687" lon="4.82897">
        <ele>208.755325</ele>
        <time>2016-05-22T07:03:57Z</time>
      </trkpt>
      <trkpt lat="45.86688" lon="4.82891">
        <ele>209.292969</ele>
        <time>2016-05-22T07:03:59Z</time>
      </trkpt>
      <trkpt lat="45.8669" lon="4.82886">
        <ele>209.720795</ele>
        <time>2016-05-22T07:04:01Z</time>
      </trkpt>
      <trkpt lat="45.86692" lon="4.82882">
        <ele>210.165619</ele>
        <time>2016-05-22T07:04:03Z</time>
      </trkpt>
      <trkpt lat="45.86694" lon="4.82877">
        <ele>210.675095</ele>
        <time>2016-05-22T07:04:05Z</time>
      </trkpt>
      <trkpt lat="45.86695" lon="4.82872">
        <ele>210.877289</ele>
        <time>2016-05-22T07:04:07Z</time>
      </trkpt>
      <trkpt lat="45.86696" lon="4.82866">
        <ele>211.266876</ele>
        <time>2016-05-22T07:04:09Z</time>
      </trkpt>
      <trkpt lat="45.86698" lon="4.82861">
        <ele>211.74585</ele>
        <time>2016-05-22T07:04:11Z</time>
      </trkpt>
      <trkpt lat="45.86699" lon="4.82855">
        <ele>212.13266</ele>
        <time>2016-05-22T07:04:13Z</time>
      </trkpt>
      <trkpt lat="45.867" lon="4.8285">
        <ele>212.490891</ele>
        <time>2016-05-22T07:04:15Z</time>
      </trkpt>
      <trkpt lat="45.86702" lon="4.82844">
        <ele>212.903519</ele>
        <time>2016-05-22T07:04:17Z</time>
      </trkpt>
      <trkpt lat="45.86703" lon="4.82838">
        <ele>213.261322</ele>
        <time>2016-05-22T07:04:19Z</time>
      </trkpt>
      <trkpt lat="45.86704" lon="4.82832">
        <ele>213.678665</ele>
        <time>2016-05-22T07:04:21Z</time>
      </trkpt>
      <trkpt lat="45.86706" lon="4.82827">
        <ele>214.12796</ele>
        <time>2016-05-22T07:04:23Z</time>
      </trkpt>
      <trkpt lat="45.86707" lon="4.82821">
        <ele>214.649094</ele>
        <time>2016-05-22T07:04:25Z</time>
      </trkpt>
      <trkpt lat="45.86707" lon="4.82815">
        <ele>214.876984</ele>
        <time>2016-05-22T07:04:27Z</time>
      </trkpt>
      <trkpt lat="45.86708" lon="4.82809">
        <ele>215.268509</ele>
        <time>2016-05-22T07:04:29Z</time>
      </trkpt>
      <trkpt lat="45.86709" lon="4.82804">
        <ele>215.61731</ele>
        <time>2016-05-22T07:04:31Z</time>
      </trkpt>
      <trkpt lat="45.86709" lon="4.82799">
        <ele>216.094315</ele>
        <time>2016-05-22T07:04:33Z</time>
      </trkpt>
      <trkpt lat="45.8671" lon="4.82794">
        <ele>216.535187</ele>
        <time>2016-05-22T07:04:35Z</time>
      </trkpt>
      <trkpt lat="45.8671" lon="4.82789">
        <ele>216.956543</ele>
        <time>2016-05-22T07:04:37Z</time>
      </trkpt>
      <trkpt lat="45.86711" lon="4.82783">
        <ele>217.312225</ele>
        <time>2016-05-22T07:04:39Z</time>
      </trkpt>
      <trkpt lat="45.86711" lon="4.82777">
        <ele>217.665848</ele>
        <time>2016-05-22T07:04:41Z</time>
      </trkpt>
      <trkpt lat="45.86711" lon="4.82771">
        <ele>218.074829</ele>
        <time>2016-05-22T07:04:43Z</time>
      </trkpt>
      <trkpt lat="45.8671" lon="4.82766">
        <ele>218.260162</ele>
        <time>2016-05-22T07:04:45Z</time>
      </trkpt>
      <trkpt lat="45.86709" lon="4.82761">
        <ele>218.626785</ele>
        <time>2016-05-22T07:04:47Z</time>
      </trkpt>
      <trkpt lat="45.86707" lon="4.82756">
        <ele>219.018387</ele>
        <time>2016-05-22T07:04:49Z</time>
      </trkpt>
      <trkpt lat="45.86705" lon="4.82751">
        <ele>219.431641</ele>
        <time>2016-05-22T07:04:51Z</time>
      </trkpt>
      <trkpt lat="45.86702" lon="4.82747">
        <ele>219.806595</ele>
        <time>2016-05-22T07:04:53Z</time>
      </trkpt>
      <trkpt lat="45.867" lon="4.82743">
        <ele>220.241791</ele>
        <time>2016-05-22T07:04:55Z</time>
      </trkpt>
      <trkpt lat="45.86698" lon="4.82738">
        <ele>220.722702</ele>
        <time>2016-05-22T07:04:57Z</time>
      </trkpt>
      <trkpt lat="45.86696" lon="4.82734">
        <ele>221.080353</ele>
        <time>2016-05-22T07:04:59Z</time>
      </trkpt>
      <trkpt lat="45.86693" lon="4.82729">
        <ele>221.425415</ele>
        <time>2016-05-22T07:05:01Z</time>
      </trkpt>
      <trkpt lat="45.86691" lon="4.82725">
        <ele>221.634247</ele>
        <time>2016-05-22T07:05:03Z</time>
      </trkpt>
      <trkpt lat="45.86689" lon="4.82721">
        <ele>222.022247</ele>
        <time>2016-05-22T07:05:05Z</time>
      </trkpt>
      <trkpt lat="45.86686" lon="4.82717">
        <ele>222.463455</ele>
        <time>2016-05-22T07:05:07Z</time>
      </trkpt>
      <trkpt lat="45.86684" lon="4.82712">
        <ele>222.840652</ele>
        <time>2016-05-22T07:05:09Z</time>
      </trkpt>
      <trkpt lat="45.86681" lon="4.82708">
        <ele>223.250122</ele>
        <time>2016-05-22T07:05:11Z</time>
      </trkpt>
      <trkpt lat="45.8668" lon="4.82704">
        <ele>223.693817</ele>
        <time>2016-05-22T07:05:13Z</time>
      </trkpt>
      <trkpt lat="45.86677" lon="4.827">
        <ele>224.006912</ele>
        <time>2016-05-22T07:05:15Z</time>
      </trkpt>
      <trkpt lat="45.86675" lon="4.82695">
        <ele>224.333038</ele>
        <time>2016-05-22T07:05:17Z</time>
      </trkpt>
      <trkpt lat="45.86673" lon="4.82691">
        <ele>224.654877</ele>
        <time>2016-05-22T07:05:19Z</time>
      </trkpt>
      <trkpt lat="45.86671" lon="4.82687">
        <ele>224.874435</ele>
        <time>2016-05-22T07:05:21Z</time>
      </trkpt>
      <trkpt lat="45.86668" lon="4.82683">
        <ele>225.265656</ele>
        <time>2016-05-22T07:05:23Z</time>
      </trkpt>
      <trkpt lat="45.86666" lon="4.82679">
        <ele>225.575394</ele>
        <time>2016-05-22T07:05:25Z</time>
      </trkpt>
      <trkpt lat="45.86663" lon="4.82676">
        <ele>225.969803</ele>
        <time>2016-05-22T07:05:27Z</time>
      </trkpt>
      <trkpt lat="45.8666" lon="4.82674">
        <ele>226.395905</ele>
        <time>2016-05-22T07:05:29Z</time>
      </trkpt>
      <trkpt lat="45.86656" lon="4.82674">
        <ele>226.742264</ele>
        <time>2016-05-22T07:05:31Z</time>
      </trkpt>
      <trkpt lat="45.86652" lon="4.82675">
        <ele>227.077362</ele>
        <time>2016-05-22T07:05:33Z</time>
      </trkpt>
      <trkpt lat="45.86649" lon="4.82677">
        <ele>227.412079</ele>
        <time>2016-05-22T07:05:35Z</time>
      </trkpt>
      <trkpt lat="45.86646" lon="4.8268">
        <ele>227.734009</ele>
        <time>2016-05-22T07:05:37Z</time>
      </trkpt>
      <trkpt lat="45.86642" lon="4.82682">
        <ele>228.015427</ele>
        <time>2016-05-22T07:05:39Z</time>
      </trkpt>
      <trkpt lat="45.86639" lon="4.82685">
        <ele>228.348358</ele>
        <time>2016-05-22T07:05:41Z</time>
      </trkpt>
      <trkpt lat="45.86635" lon="4.82687">
        <ele>228.710815</ele>
        <time>2016-05-22T07:05:43Z</time>
      </trkpt>
      <trkpt lat="45.86631" lon="4.8269">
        <ele>228.834503</ele>
        <time>2016-05-22T07:05:45Z</time>
      </trkpt>
      <trkpt lat="45.86628" lon="4.82692">
        <ele>229.091553</ele>
        <time>2016-05-22T07:05:47Z</time>
      </trkpt>
      <trkpt lat="45.86625" lon="4.82694">
        <ele>229.309082</ele>
        <time>2016-05-22T07:05:49Z</time>
      </trkpt>
      <trkpt lat="45.86621" lon="4.82696">
        <ele>229.599121</ele>
        <time>2016-05-22T07:05:51Z</time>
      </trkpt>
      <trkpt lat="45.86618" lon="4.82699">
        <ele>229.957397</ele>
        <time>2016-05-22T07:05:53Z</time>
      </trkpt>
      <trkpt lat="45.86614" lon="4.82701">
        <ele>230.221832</ele>
        <time>2016-05-22T07:05:55Z</time>
      </trkpt>
      <trkpt lat="45.8661" lon="4.82703">
        <ele>230.550247</ele>
        <time>2016-05-22T07:05:57Z</time>
      </trkpt>
      <trkpt lat="45.86606" lon="4.82703">
        <ele>230.780548</ele>
        <time>2016-05-22T07:05:59Z</time>
      </trkpt>
      <trkpt lat="45.86602" lon="4.82703">
        <ele>231.05661</ele>
        <time>2016-05-22T07:06:01Z</time>
      </trkpt>
      <trkpt lat="45.86597" lon="4.82702">
        <ele>231.302887</ele>
        <time>2016-05-22T07:06:03Z</time>
      </trkpt>
      <trkpt lat="45.86594" lon="4.82702">
        <ele>231.583771</ele>
        <time>2016-05-22T07:06:05Z</time>
      </trkpt>
      <trkpt lat="45.86589" lon="4.82702">
        <ele>231.739456</ele>
        <time>2016-05-22T07:06:07Z</time>
      </trkpt>
      <trkpt lat="45.86586" lon="4.82701">
        <ele>231.923553</ele>
        <time>2016-05-22T07:06:09Z</time>
      </trkpt>
      <trkpt lat="45.86582" lon="4.827">
        <ele>232.151413</ele>
        <time>2016-05-22T07:06:11Z</time>
      </trkpt>
      <trkpt lat="45.86578" lon="4.82699">
        <ele>232.46431</ele>
        <time>2016-05-22T07:06:13Z</time>
      </trkpt>
      <trkpt lat="45.86574" lon="4.82699">
        <ele>232.807373</ele>
        <time>2016-05-22T07:06:15Z</time>
      </trkpt>
      <trkpt lat="45.8657" lon="4.82698">
        <ele>233.09964</ele>
        <time>2016-05-22T07:06:17Z</time>
      </trkpt>
      <trkpt lat="45.86567" lon="4.82697">
        <ele>233.455902</ele>
        <time>2016-05-22T07:06:19Z</time>
      </trkpt>
      <trkpt lat="45.86563" lon="4.82697">
        <ele>233.752441</ele>
        <time>2016-05-22T07:06:21Z</time>
      </trkpt>
      <trkpt lat="45.86559" lon="4.82697">
        <ele>234.095901</ele>
        <time>2016-05-22T07:06:23Z</time>
      </trkpt>
      <trkpt lat="45.86556" lon="4.82697">
        <ele>234.41806</ele>
        <time>2016-05-22T07:06:25Z</time>
      </trkpt>
      <trkpt lat="45.86552" lon="4.82697">
        <ele>234.749557</ele>
        <time>2016-05-22T07:06:27Z</time>
      </trkpt>
      <trkpt lat="45.86548" lon="4.82697">
        <ele>235.118652</ele>
        <time>2016-05-22T07:06:29Z</time>
      </trkpt>
      <trkpt lat="45.86544" lon="4.82698">
        <ele>235.406738</ele>
        <time>2016-05-22T07:06:31Z</time>
      </trkpt>
      <trkpt lat="45.8654" lon="4.82699">
        <ele>235.718262</ele>
        <time>2016-05-22T07:06:33Z</time>
      </trkpt>
      <trkpt lat="45.86536" lon="4.82699">
        <ele>235.861252</ele>
        <time>2016-05-22T07:06:35Z</time>
      </trkpt>
      <trkpt lat="45.86533" lon="4.827">
        <ele>236.234894</ele>
        <time>2016-05-22T07:06:37Z</time>
      </trkpt>
      <trkpt lat="45.86529" lon="4.82701">
        <ele>236.646774</ele>
        <time>2016-05-22T07:06:39Z</time>
      </trkpt>
      <trkpt lat="45.86525" lon="4.82701">
        <ele>237.077835</ele>
        <time>2016-05-22T07:06:41Z</time>
      </trkpt>
      <trkpt lat="45.86522" lon="4.82701">
        <ele>237.441803</ele>
        <time>2016-05-22T07:06:43Z</time>
      </trkpt>
      <trkpt lat="45.86518" lon="4.82702">
        <ele>237.887863</ele>
        <time>2016-05-22T07:06:45Z</time>
      </trkpt>
      <trkpt lat="45.86515" lon="4.82702">
        <ele>238.338226</ele>
        <time>2016-05-22T07:06:47Z</time>
      </trkpt>
      <trkpt lat="45.86511" lon="4.82703">
        <ele>238.779144</ele>
        <time>2016-05-22T07:06:49Z</time>
      </trkpt>
      <trkpt lat="45.86508" lon="4.82703">
        <ele>239.270462</ele>
        <time>2016-05-22T07:06:51Z</time>
      </trkpt>
      <trkpt lat="45.86504" lon="4.82704">
        <ele>239.684891</ele>
        <time>2016-05-22T07:06:53Z</time>
      </trkpt>
      <trkpt lat="45.86501" lon="4.82705">
        <ele>240.124664</ele>
        <time>2016-05-22T07:06:55Z</time>
      </trkpt>
      <trkpt lat="45.86497" lon="4.82705">
        <ele>240.564423</ele>
        <time>2016-05-22T07:06:57Z</time>
      </trkpt>
      <trkpt lat="45.86494" lon="4.82706">
        <ele>241.012772</ele>
        <time>2016-05-22T07:06:59Z</time>
      </trkpt>
      <trkpt lat="45.8649" lon="4.82706">
        <ele>241.286057</ele>
        <time>2016-05-22T07:07:01Z</time>
      </trkpt>
      <trkpt lat="45.86486" lon="4.82707">
        <ele>241.776001</ele>
        <time>2016-05-22T07:07:03Z</time>
      </trkpt>
      <trkpt lat="45.86483" lon="4.82707">
        <ele>242.200485</ele>
        <time>2016-05-22T07:07:05Z</time>
      </trkpt>
      <trkpt lat="45.8648" lon="4.82707">
        <ele>242.668579</ele>
        <time>2016-05-22T07:07:07Z</time>
      </trkpt>
      <trkpt lat="45.86478" lon="4.82707">
        <ele>243.163971</ele>
        <time>2016-05-22T07:07:09Z</time>
      </trkpt>
      <trkpt lat="45.86474" lon="4.82707">
        <ele>243.64653</ele>
        <time>2016-05-22T07:07:11Z</time>
      </trkpt>
      <trkpt lat="45.86471" lon="4.82707">
        <ele>244.139816</ele>
        <time>2016-05-22T07:07:13Z</time>
      </trkpt>
      <trkpt lat="45.86468" lon="4.82707">
        <ele>244.633987</ele>
        <time>2016-05-22T07:07:15Z</time>
      </trkpt>
      <trkpt lat="45.86465" lon="4.82708">
        <ele>245.086456</ele>
        <time>2016-05-22T07:07:17Z</time>
      </trkpt>
      <trkpt lat="45.86462" lon="4.82709">
        <ele>245.293625</ele>
        <time>2016-05-22T07:07:19Z</time>
      </trkpt>
      <trkpt lat="45.86458" lon="4.82709">
        <ele>245.674316</ele>
        <time>2016-05-22T07:07:21Z</time>
      </trkpt>
      <trkpt lat="45.86455" lon="4.82709">
        <ele>246.130692</ele>
        <time>2016-05-22T07:07:23Z</time>
      </trkpt>
      <trkpt lat="45.86451" lon="4.8271">
        <ele>246.604828</ele>
        <time>2016-05-22T07:07:25Z</time>
      </trkpt>
      <trkpt lat="45.86448" lon="4.8271">
        <ele>247.006393</ele>
        <time>2016-05-22T07:07:27Z</time>
      </trkpt>
      <trkpt lat="45.86445" lon="4.82711">
        <ele>247.401581</ele>
        <time>2016-05-22T07:07:29Z</time>
      </trkpt>
      <trkpt lat="45.86441" lon="4.82711">
        <ele>247.865326</ele>
        <time>2016-05-22T07:07:31Z</time>
      </trkpt>
      <trkpt lat="45.86438" lon="4.82712">
        <ele>248.25412</ele>
        <time>2016-05-22T07:07:33Z</time>
      </trkpt>
      <trkpt lat="45.86434" lon="4.82713">
        <ele>248.704544</ele>
        <time>2016-05-22T07:07:35Z</time>
      </trkpt>
      <trkpt lat="45.86431" lon="4.82714">
        <ele>249.048538</ele>
        <time>2016-05-22T07:07:37Z</time>
      </trkpt>
      <trkpt lat="45.86428" lon="4.82714">
        <ele>249.223724</ele>
        <time>2016-05-22T07:07:39Z</time>
      </trkpt>
      <trkpt lat="45.86424" lon="4.82715">
        <ele>249.60672</ele>
        <time>2016-05-22T07:07:41Z</time>
      </trkpt>
      <trkpt lat="45.8642" lon="4.82715">
        <ele>249.901581</ele>
        <time>2016-05-22T07:07:43Z</time>
      </trkpt>
      <trkpt lat="45.86417" lon="4.82716">
        <ele>250.263763</ele>
        <time>2016-05-22T07:07:45Z</time>
      </trkpt>
      <trkpt lat="45.86413" lon="4.82717">
        <ele>250.646118</ele>
        <time>2016-05-22T07:07:47Z</time>
      </trkpt>
      <trkpt lat="45.8641" lon="4.82717">
        <ele>251.030273</ele>
        <time>2016-05-22T07:07:49Z</time>
      </trkpt>
      <trkpt lat="45.86406" lon="4.82718">
        <ele>251.365799</ele>
        <time>2016-05-22T07:07:51Z</time>
      </trkpt>
      <trkpt lat="45.86403" lon="4.82719">
        <ele>251.686371</ele>
        <time>2016-05-22T07:07:53Z</time>
      </trkpt>
      <trkpt lat="45.86399" lon="4.8272">
        <ele>252.039017</ele>
        <time>2016-05-22T07:07:55Z</time>
      </trkpt>
      <trkpt lat="45.86395" lon="4.82721">
        <ele>252.399368</ele>
        <time>2016-05-22T07:07:57Z</time>
      </trkpt>
      <trkpt lat="45.86391" lon="4.82721">
        <ele>252.606735</ele>
        <time>2016-05-22T07:07:59Z</time>
      </trkpt>
      <trkpt lat="45.86388" lon="4.82722">
        <ele>252.962158</ele>
        <time>2016-05-22T07:08:01Z</time>
      </trkpt>
      <trkpt lat="45.86384" lon="4.82722">
        <ele>253.37204</ele>
        <time>2016-05-22T07:08:03Z</time>
      </trkpt>
      <trkpt lat="45.86381" lon="4.82723">
        <ele>253.736084</ele>
        <time>2016-05-22T07:08:05Z</time>
      </trkpt>
      <trkpt lat="45.86377" lon="4.82724">
        <ele>254.072021</ele>
        <time>2016-05-22T07:08:07Z</time>
      </trkpt>
      <trkpt lat="45.86374" lon="4.82725">
        <ele>254.439667</ele>
        <time>2016-05-22T07:08:09Z</time>
      </trkpt>
      <trkpt lat="45.86371" lon="4.82725">
        <ele>254.852295</ele>
        <time>2016-05-22T07:08:11Z</time>
      </trkpt>
      <trkpt lat="45.86367" lon="4.82727">
        <ele>255.207184</ele>
        <time>2016-05-22T07:08:13Z</time>
      </trkpt>
      <trkpt lat="45.86364" lon="4.82728">
        <ele>255.548706</ele>
        <time>2016-05-22T07:08:15Z</time>
      </trkpt>
      <trkpt lat="45.8636" lon="4.82728">
        <ele>255.965622</ele>
        <time>2016-05-22T07:08:17Z</time>
      </trkpt>
      <trkpt lat="45.86356" lon="4.82729">
        <ele>256.498047</ele>
        <time>2016-05-22T07:08:19Z</time>
      </trkpt>
      <trkpt lat="45.86353" lon="4.8273">
        <ele>256.946503</ele>
        <time>2016-05-22T07:08:21Z</time>
      </trkpt>
      <trkpt lat="45.8635" lon="4.8273">
        <ele>257.363464</ele>
        <time>2016-05-22T07:08:23Z</time>
      </trkpt>
      <trkpt lat="45.86346" lon="4.82731">
        <ele>257.79538</ele>
        <time>2016-05-22T07:08:25Z</time>
      </trkpt>
      <trkpt lat="45.86342" lon="4.82733">
        <ele>258.002808</ele>
        <time>2016-05-22T07:08:27Z</time>
      </trkpt>
      <trkpt lat="45.86339" lon="4.82733">
        <ele>258.466064</ele>
        <time>2016-05-22T07:08:29Z</time>
      </trkpt>
      <trkpt lat="45.86335" lon="4.82734">
        <ele>258.882477</ele>
        <time>2016-05-22T07:08:31Z</time>
      </trkpt>
      <trkpt lat="45.86332" lon="4.82735">
        <ele>259.400055</ele>
        <time>2016-05-22T07:08:33Z</time>
      </trkpt>
      <trkpt lat="45.86329" lon="4.82736">
        <ele>259.879059</ele>
        <time>2016-05-22T07:08:35Z</time>
      </trkpt>
      <trkpt lat="45.86325" lon="4.82737">
        <ele>260.358185</ele>
        <time>2016-05-22T07:08:37Z</time>
      </trkpt>
      <trkpt lat="45.86322" lon="4.82738">
        <ele>260.843719</ele>
        <time>2016-05-22T07:08:39Z</time>
      </trkpt>
      <trkpt lat="45.86318" lon="4.82738">
        <ele>261.343628</ele>
        <time>2016-05-22T07:08:41Z</time>
      </trkpt>
      <trkpt lat="45.86315" lon="4.82739">
        <ele>261.549011</ele>
        <time>2016-05-22T07:08:43Z</time>
      </trkpt>
      <trkpt lat="45.86311" lon="4.8274">
        <ele>261.968567</ele>
        <time>2016-05-22T07:08:45Z</time>
      </trkpt>
      <trkpt lat="45.86308" lon="4.82741">
        <ele>262.428497</ele>
        <time>2016-05-22T07:08:47Z</time>
      </trkpt>
      <trkpt lat="45.86305" lon="4.82742">
        <ele>262.962952</ele>
        <time>2016-05-22T07:08:49Z</time>
      </trkpt>
      <trkpt lat="45.86301" lon="4.82742">
        <ele>263.382263</ele>
        <time>2016-05-22T07:08:51Z</time>
      </trkpt>
      <trkpt lat="45.86297" lon="4.82743">
        <ele>263.773743</ele>
        <time>2016-05-22T07:08:53Z</time>
      </trkpt>
      <trkpt lat="45.86293" lon="4.82743">
        <ele>264.248718</ele>
        <time>2016-05-22T07:08:55Z</time>
      </trkpt>
      <trkpt lat="45.8629" lon="4.82744">
        <ele>264.724213</ele>
        <time>2016-05-22T07:08:57Z</time>
      </trkpt>
      <trkpt lat="45.86286" lon="4.82745">
        <ele>265.167145</ele>
        <time>2016-05-22T07:08:59Z</time>
      </trkpt>
      <trkpt lat="45.86282" lon="4.82746">
        <ele>265.34903</ele>
        <time>2016-05-22T07:09:01Z</time>
      </trkpt>
      <trkpt lat="45.86279" lon="4.82747">
        <ele>265.704437</ele>
        <time>2016-05-22T07:09:03Z</time>
      </trkpt>
      <trkpt lat="45.86276" lon="4.82748">
        <ele>266.140961</ele>
        <time>2016-05-22T07:09:05Z</time>
      </trkpt>
      <trkpt lat="45.86272" lon="4.82749">
        <ele>266.594666</ele>
        <time>2016-05-22T07:09:07Z</time>
      </trkpt>
      <trkpt lat="45.86268" lon="4.82749">
        <ele>267.024658</ele>
        <time>2016-05-22T07:09:09Z</time>
      </trkpt>
      <trkpt lat="45.86264" lon="4.82749">
        <ele>267.449707</ele>
        <time>2016-05-22T07:09:11Z</time>
      </trkpt>
      <trkpt lat="45.86261" lon="4.82749">
        <ele>267.901917</ele>
        <time>2016-05-22T07:09:13Z</time>
      </trkpt>
      <trkpt lat="45.86257" lon="4.8275">
        <ele>268.263672</ele>
        <time>2016-05-22T07:09:15Z</time>
      </trkpt>
      <trkpt lat="45.86253" lon="4.8275">
        <ele>268.657532</ele>
        <time>2016-05-22T07:09:17Z</time>
      </trkpt>
      <trkpt lat="45.8625" lon="4.8275">
        <ele>269.014984</ele>
        <time>2016-05-22T07:09:19Z</time>
      </trkpt>
      <trkpt lat="45.86246" lon="4.8275">
        <ele>269.177673</ele>
        <time>2016-05-22T07:09:21Z</time>
      </trkpt>
      <trkpt lat="45.86242" lon="4.82751">
        <ele>269.512787</ele>
        <time>2016-05-22T07:09:23Z</time>
      </trkpt>
      <trkpt lat="45.86239" lon="4.8275">
        <ele>269.958099</ele>
        <time>2016-05-22T07:09:25Z</time>
      </trkpt>
      <trkpt lat="45.86235" lon="4.8275">
        <ele>270.411682</ele>
        <time>2016-05-22T07:09:27Z</time>
      </trkpt>
      <trkpt lat="45.86231" lon="4.8275">
        <ele>270.782562</ele>
        <time>2016-05-22T07:09:29Z</time>
      </trkpt>
      <trkpt lat="45.86227" lon="4.82751">
        <ele>271.170105</ele>
        <time>2016-05-22T07:09:31Z</time>
      </trkpt>
      <trkpt lat="45.86223" lon="4.82751">
        <ele>271.602386</ele>
        <time>2016-05-22T07:09:33Z</time>
      </trkpt>
      <trkpt lat="45.86219" lon="4.82751">
        <ele>272.037048</ele>
        <time>2016-05-22T07:09:35Z</time>
      </trkpt>
      <trkpt lat="45.86216" lon="4.82751">
        <ele>272.469635</ele>
        <time>2016-05-22T07:09:37Z</time>
      </trkpt>
      <trkpt lat="45.86212" lon="4.82751">
        <ele>272.927917</ele>
        <time>2016-05-22T07:09:39Z</time>
      </trkpt>
      <trkpt lat="45.86208" lon="4.82751">
        <ele>273.317719</ele>
        <time>2016-05-22T07:09:41Z</time>
      </trkpt>
      <trkpt lat="45.86205" lon="4.82751">
        <ele>273.668762</ele>
        <time>2016-05-22T07:09:43Z</time>
      </trkpt>
      <trkpt lat="45.86201" lon="4.82751">
        <ele>273.863617</ele>
        <time>2016-05-22T07:09:45Z</time>
      </trkpt>
      <trkpt lat="45.86197" lon="4.8275">
        <ele>274.267792</ele>
        <time>2016-05-22T07:09:47Z</time>
      </trkpt>
      <trkpt lat="45.86194" lon="4.8275">
        <ele>274.61261</ele>
        <time>2016-05-22T07:09:49Z</time>
      </trkpt>
      <trkpt lat="45.8619" lon="4.8275">
        <ele>275.058289</ele>
        <time>2016-05-22T07:09:51Z</time>
      </trkpt>
      <trkpt lat="45.86187" lon="4.8275">
        <ele>275.473846</ele>
        <time>2016-05-22T07:09:53Z</time>
      </trkpt>
      <trkpt lat="45.86183" lon="4.82749">
        <ele>275.810425</ele>
        <time>2016-05-22T07:09:55Z</time>
      </trkpt>
      <trkpt lat="45.86179" lon="4.82749">
        <ele>276.241028</ele>
        <time>2016-05-22T07:09:57Z</time>
      </trkpt>
      <trkpt lat="45.86176" lon="4.82749">
        <ele>276.611572</ele>
        <time>2016-05-22T07:09:59Z</time>
      </trkpt>
      <trkpt lat="45.86173" lon="4.82748">
        <ele>277.05719</ele>
        <time>2016-05-22T07:10:01Z</time>
      </trkpt>
      <trkpt lat="45.86169" lon="4.82748">
        <ele>277.520935</ele>
        <time>2016-05-22T07:10:03Z</time>
      </trkpt>
      <trkpt lat="45.86166" lon="4.82748">
        <ele>277.960144</ele>
        <time>2016-05-22T07:10:05Z</time>
      </trkpt>
      <trkpt lat="45.86162" lon="4.82747">
        <ele>278.191559</ele>
        <time>2016-05-22T07:10:07Z</time>
      </trkpt>
      <trkpt lat="45.86158" lon="4.82747">
        <ele>278.526794</ele>
        <time>2016-05-22T07:10:09Z</time>
      </trkpt>
      <trkpt lat="45.86154" lon="4.82747">
        <ele>278.985657</ele>
        <time>2016-05-22T07:10:11Z</time>
      </trkpt>
      <trkpt lat="45.8615" lon="4.82747">
        <ele>279.376129</ele>
        <time>2016-05-22T07:10:13Z</time>
      </trkpt>
      <trkpt lat="45.86147" lon="4.82746">
        <ele>279.764099</ele>
        <time>2016-05-22T07:10:15Z</time>
      </trkpt>
      <trkpt lat="45.86143" lon="4.82746">
        <ele>280.181976</ele>
        <time>2016-05-22T07:10:17Z</time>
      </trkpt>
      <trkpt lat="45.86139" lon="4.82745">
        <ele>280.543762</ele>
        <time>2016-05-22T07:10:19Z</time>
      </trkpt>
      <trkpt lat="45.86136" lon="4.82745">
        <ele>280.925232</ele>
        <time>2016-05-22T07:10:21Z</time>
      </trkpt>
      <trkpt lat="45.86132" lon="4.82745">
        <ele>281.305237</ele>
        <time>2016-05-22T07:10:23Z</time>
      </trkpt>
      <trkpt lat="45.86128" lon="4.82744">
        <ele>281.791687</ele>
        <time>2016-05-22T07:10:25Z</time>
      </trkpt>
      <trkpt lat="45.86125" lon="4.82743">
        <ele>282.225281</ele>
        <time>2016-05-22T07:10:27Z</time>
      </trkpt>
      <trkpt lat="45.86121" lon="4.82742">
        <ele>282.632813</ele>
        <time>2016-05-22T07:10:29Z</time>
      </trkpt>
      <trkpt lat="45.86117" lon="4.82742">
        <ele>283.13443</ele>
        <time>2016-05-22T07:10:31Z</time>
      </trkpt>
      <trkpt lat="45.86114" lon="4.82742">
        <ele>283.363831</ele>
        <time>2016-05-22T07:10:33Z</time>
      </trkpt>
      <trkpt lat="45.8611" lon="4.82741">
        <ele>283.722717</ele>
        <time>2016-05-22T07:10:35Z</time>
      </trkpt>
      <trkpt lat="45.86107" lon="4.8274">
        <ele>284.221863</ele>
        <time>2016-05-22T07:10:37Z</time>
      </trkpt>
      <trkpt lat="45.86103" lon="4.82739">
        <ele>284.597076</ele>
        <time>2016-05-22T07:10:39Z</time>
      </trkpt>
      <trkpt lat="45.86099" lon="4.82738">
        <ele>285.120178</ele>
        <time>2016-05-22T07:10:41Z</time>
      </trkpt>
      <trkpt lat="45.86095" lon="4.82737">
        <ele>285.523254</ele>
        <time>2016-05-22T07:10:43Z</time>
      </trkpt>
      <trkpt lat="45.86092" lon="4.82737">
        <ele>285.924225</ele>
        <time>2016-05-22T07:10:45Z</time>
      </trkpt>
      <trkpt lat="45.86088" lon="4.82736">
        <ele>286.331635</ele>
        <time>2016-05-22T07:10:47Z</time>
      </trkpt>
      <trkpt lat="45.86084" lon="4.82736">
        <ele>286.78949</ele>
        <time>2016-05-22T07:10:49Z</time>
      </trkpt>
      <trkpt lat="45.8608" lon="4.82736">
        <ele>287.262543</ele>
        <time>2016-05-22T07:10:51Z</time>
      </trkpt>
      <trkpt lat="45.86076" lon="4.82735">
        <ele>287.594421</ele>
        <time>2016-05-22T07:10:53Z</time>
      </trkpt>
      <trkpt lat="45.86072" lon="4.82735">
        <ele>288.049072</ele>
        <time>2016-05-22T07:10:55Z</time>
      </trkpt>
      <trkpt lat="45.86068" lon="4.82734">
        <ele>288.278564</ele>
        <time>2016-05-22T07:10:57Z</time>
      </trkpt>
      <trkpt lat="45.86065" lon="4.82733">
        <ele>288.702972</ele>
        <time>2016-05-22T07:10:59Z</time>
      </trkpt>
      <trkpt lat="45.86061" lon="4.82733">
        <ele>289.192444</ele>
        <time>2016-05-22T07:11:01Z</time>
      </trkpt>
      <trkpt lat="45.86057" lon="4.82733">
        <ele>289.623535</ele>
        <time>2016-05-22T07:11:03Z</time>
      </trkpt>
      <trkpt lat="45.86054" lon="4.82733">
        <ele>290.088318</ele>
        <time>2016-05-22T07:11:05Z</time>
      </trkpt>
      <trkpt lat="45.8605" lon="4.82733">
        <ele>290.512299</ele>
        <time>2016-05-22T07:11:07Z</time>
      </trkpt>
      <trkpt lat="45.86047" lon="4.82732">
        <ele>290.947754</ele>
        <time>2016-05-22T07:11:09Z</time>
      </trkpt>
      <trkpt lat="45.86043" lon="4.82732">
        <ele>291.333618</ele>
        <time>2016-05-22T07:11:11Z</time>
      </trkpt>
      <trkpt lat="45.86039" lon="4.82733">
        <ele>291.727631</ele>
        <time>2016-05-22T07:11:13Z</time>
      </trkpt>
      <trkpt lat="45.86035" lon="4.82733">
        <ele>292.22879</ele>
        <time>2016-05-22T07:11:15Z</time>
      </trkpt>
      <trkpt lat="45.86032" lon="4.82733">
        <ele>292.711548</ele>
        <time>2016-05-22T07:11:17Z</time>
      </trkpt>
      <trkpt lat="45.86028" lon="4.82733">
        <ele>292.913239</ele>
        <time>2016-05-22T07:11:19Z</time>
      </trkpt>
      <trkpt lat="45.86025" lon="4.82732">
        <ele>293.33725</ele>
        <time>2016-05-22T07:11:21Z</time>
      </trkpt>
      <trkpt lat="45.86025" lon="4.82727">
        <ele>293.766418</ele>
        <time>2016-05-22T07:11:23Z</time>
      </trkpt>
      <trkpt lat="45.86026" lon="4.82723">
        <ele>294.195587</ele>
        <time>2016-05-22T07:11:25Z</time>
      </trkpt>
      <trkpt lat="45.86029" lon="4.82722">
        <ele>294.59256</ele>
        <time>2016-05-22T07:11:27Z</time>
      </trkpt>
      <trkpt lat="45.86031" lon="4.82723">
        <ele>294.935883</ele>
        <time>2016-05-22T07:11:29Z</time>
      </trkpt>
      <trkpt lat="45.86032" lon="4.82719">
        <ele>297.938751</ele>
        <time>2016-05-22T07:17:11Z</time>
      </trkpt>
      <trkpt lat="45.86038" lon="4.82714">
        <ele>298.007843</ele>
        <time>2016-05-22T07:17:15Z</time>
      </trkpt>
      <trkpt lat="45.86041" lon="4.82711">
        <ele>298.129639</ele>
        <time>2016-05-22T07:17:17Z</time>
      </trkpt>
      <trkpt lat="45.86044" lon="4.8271">
        <ele>298.271332</ele>
        <time>2016-05-22T07:17:19Z</time>
      </trkpt>
      <trkpt lat="45.86047" lon="4.82709">
        <ele>298.370056</ele>
        <time>2016-05-22T07:17:21Z</time>
      </trkpt>
      <trkpt lat="45.8605" lon="4.82707">
        <ele>298.460266</ele>
        <time>2016-05-22T07:17:23Z</time>
      </trkpt>
      <trkpt lat="45.86052" lon="4.82705">
        <ele>298.58905</ele>
        <time>2016-05-22T07:17:25Z</time>
      </trkpt>
      <trkpt lat="45.86055" lon="4.82703">
        <ele>298.661926</ele>
        <time>2016-05-22T07:17:27Z</time>
      </trkpt>
      <trkpt lat="45.86057" lon="4.82702">
        <ele>298.834808</ele>
        <time>2016-05-22T07:17:29Z</time>
      </trkpt>
      <trkpt lat="45.8606" lon="4.82699">
        <ele>298.970062</ele>
        <time>2016-05-22T07:17:31Z</time>
      </trkpt>
      <trkpt lat="45.86064" lon="4.82697">
        <ele>299.234131</ele>
        <time>2016-05-22T07:17:33Z</time>
      </trkpt>
      <trkpt lat="45.86067" lon="4.82695">
        <ele>299.453278</ele>
        <time>2016-05-22T07:17:35Z</time>
      </trkpt>
      <trkpt lat="45.86071" lon="4.82693">
        <ele>299.730286</ele>
        <time>2016-05-22T07:17:37Z</time>
      </trkpt>
      <trkpt lat="45.86074" lon="4.82691">
        <ele>300.007263</ele>
        <time>2016-05-22T07:17:39Z</time>
      </trkpt>
      <trkpt lat="45.86077" lon="4.82688">
        <ele>300.430969</ele>
        <time>2016-05-22T07:17:41Z</time>
      </trkpt>
      <trkpt lat="45.8608" lon="4.82686">
        <ele>300.715759</ele>
        <time>2016-05-22T07:17:43Z</time>
      </trkpt>
      <trkpt lat="45.86083" lon="4.82683">
        <ele>300.88324</ele>
        <time>2016-05-22T07:17:45Z</time>
      </trkpt>
      <trkpt lat="45.86086" lon="4.82681">
        <ele>301.119476</ele>
        <time>2016-05-22T07:17:47Z</time>
      </trkpt>
      <trkpt lat="45.8609" lon="4.82679">
        <ele>301.293457</ele>
        <time>2016-05-22T07:17:49Z</time>
      </trkpt>
      <trkpt lat="45.86093" lon="4.82677">
        <ele>301.632629</ele>
        <time>2016-05-22T07:17:51Z</time>
      </trkpt>
      <trkpt lat="45.86096" lon="4.82675">
        <ele>301.989105</ele>
        <time>2016-05-22T07:17:53Z</time>
      </trkpt>
      <trkpt lat="45.861" lon="4.82673">
        <ele>302.416443</ele>
        <time>2016-05-22T07:17:55Z</time>
      </trkpt>
      <trkpt lat="45.86103" lon="4.82671">
        <ele>302.770416</ele>
        <time>2016-05-22T07:17:57Z</time>
      </trkpt>
      <trkpt lat="45.86106" lon="4.8267">
        <ele>302.964264</ele>
        <time>2016-05-22T07:17:59Z</time>
      </trkpt>
      <trkpt lat="45.86108" lon="4.82668">
        <ele>303.260162</ele>
        <time>2016-05-22T07:18:01Z</time>
      </trkpt>
      <trkpt lat="45.86112" lon="4.82666">
        <ele>303.52652</ele>
        <time>2016-05-22T07:18:03Z</time>
      </trkpt>
      <trkpt lat="45.86115" lon="4.82665">
        <ele>303.818573</ele>
        <time>2016-05-22T07:18:05Z</time>
      </trkpt>
      <trkpt lat="45.86117" lon="4.82662">
        <ele>304.151062</ele>
        <time>2016-05-22T07:18:07Z</time>
      </trkpt>
      <trkpt lat="45.8612" lon="4.8266">
        <ele>304.595825</ele>
        <time>2016-05-22T07:18:09Z</time>
      </trkpt>
      <trkpt lat="45.86123" lon="4.82659">
        <ele>304.757874</ele>
        <time>2016-05-22T07:18:11Z</time>
      </trkpt>
      <trkpt lat="45.86125" lon="4.82657">
        <ele>305.136292</ele>
        <time>2016-05-22T07:18:13Z</time>
      </trkpt>
      <trkpt lat="45.86128" lon="4.82655">
        <ele>305.51004</ele>
        <time>2016-05-22T07:18:15Z</time>
      </trkpt>
      <trkpt lat="45.86132" lon="4.82654">
        <ele>305.802185</ele>
        <time>2016-05-22T07:18:17Z</time>
      </trkpt>
      <trkpt lat="45.86135" lon="4.82652">
        <ele>306.193054</ele>
        <time>2016-05-22T07:18:19Z</time>
      </trkpt>
      <trkpt lat="45.86138" lon="4.8265">
        <ele>306.587067</ele>
        <time>2016-05-22T07:18:21Z</time>
      </trkpt>
      <trkpt lat="45.86141" lon="4.82648">
        <ele>306.913666</ele>
        <time>2016-05-22T07:18:23Z</time>
      </trkpt>
      <trkpt lat="45.86144" lon="4.82645">
        <ele>307.226837</ele>
        <time>2016-05-22T07:18:25Z</time>
      </trkpt>
      <trkpt lat="45.86146" lon="4.82643">
        <ele>307.6716</ele>
        <time>2016-05-22T07:18:27Z</time>
      </trkpt>
      <trkpt lat="45.86149" lon="4.82641">
        <ele>307.965973</ele>
        <time>2016-05-22T07:18:29Z</time>
      </trkpt>
      <trkpt lat="45.86151" lon="4.82639">
        <ele>308.208771</ele>
        <time>2016-05-22T07:18:31Z</time>
      </trkpt>
      <trkpt lat="45.86154" lon="4.82638">
        <ele>308.374329</ele>
        <time>2016-05-22T07:18:33Z</time>
      </trkpt>
      <trkpt lat="45.86156" lon="4.82636">
        <ele>308.717651</ele>
        <time>2016-05-22T07:18:35Z</time>
      </trkpt>
      <trkpt lat="45.86158" lon="4.82634">
        <ele>309.042175</ele>
        <time>2016-05-22T07:18:37Z</time>
      </trkpt>
      <trkpt lat="45.86161" lon="4.82632">
        <ele>309.364563</ele>
        <time>2016-05-22T07:18:39Z</time>
      </trkpt>
      <trkpt lat="45.86164" lon="4.8263">
        <ele>309.802307</ele>
        <time>2016-05-22T07:18:41Z</time>
      </trkpt>
      <trkpt lat="45.86167" lon="4.82628">
        <ele>310.226135</ele>
        <time>2016-05-22T07:18:43Z</time>
      </trkpt>
      <trkpt lat="45.86169" lon="4.82625">
        <ele>310.675354</ele>
        <time>2016-05-22T07:18:45Z</time>
      </trkpt>
      <trkpt lat="45.86172" lon="4.82623">
        <ele>311.027618</ele>
        <time>2016-05-22T07:18:47Z</time>
      </trkpt>
      <trkpt lat="45.86174" lon="4.8262">
        <ele>311.362122</ele>
        <time>2016-05-22T07:18:49Z</time>
      </trkpt>
      <trkpt lat="45.86177" lon="4.82618">
        <ele>311.690979</ele>
        <time>2016-05-22T07:18:51Z</time>
      </trkpt>
      <trkpt lat="45.86179" lon="4.82615">
        <ele>312.157043</ele>
        <time>2016-05-22T07:18:53Z</time>
      </trkpt>
      <trkpt lat="45.86182" lon="4.82613">
        <ele>312.541809</ele>
        <time>2016-05-22T07:18:55Z</time>
      </trkpt>
      <trkpt lat="45.86184" lon="4.82611">
        <ele>312.700867</ele>
        <time>2016-05-22T07:18:57Z</time>
      </trkpt>
      <trkpt lat="45.86187" lon="4.82608">
        <ele>313.040161</ele>
        <time>2016-05-22T07:18:59Z</time>
      </trkpt>
      <trkpt lat="45.86189" lon="4.82606">
        <ele>313.390594</ele>
        <time>2016-05-22T07:19:01Z</time>
      </trkpt>
      <trkpt lat="45.86191" lon="4.82603">
        <ele>313.70578</ele>
        <time>2016-05-22T07:19:03Z</time>
      </trkpt>
      <trkpt lat="45.86194" lon="4.82601">
        <ele>313.99823</ele>
        <time>2016-05-22T07:19:05Z</time>
      </trkpt>
      <trkpt lat="45.86196" lon="4.82599">
        <ele>314.377533</ele>
        <time>2016-05-22T07:19:07Z</time>
      </trkpt>
      <trkpt lat="45.86198" lon="4.82598">
        <ele>314.672089</ele>
        <time>2016-05-22T07:19:09Z</time>
      </trkpt>
      <trkpt lat="45.86201" lon="4.82596">
        <ele>315.056946</ele>
        <time>2016-05-22T07:19:11Z</time>
      </trkpt>
      <trkpt lat="45.86203" lon="4.82594">
        <ele>315.476074</ele>
        <time>2016-05-22T07:19:13Z</time>
      </trkpt>
      <trkpt lat="45.86206" lon="4.82592">
        <ele>315.947571</ele>
        <time>2016-05-22T07:19:15Z</time>
      </trkpt>
      <trkpt lat="45.86208" lon="4.82589">
        <ele>316.345398</ele>
        <time>2016-05-22T07:19:17Z</time>
      </trkpt>
      <trkpt lat="45.86211" lon="4.82586">
        <ele>316.650757</ele>
        <time>2016-05-22T07:19:19Z</time>
      </trkpt>
      <trkpt lat="45.86213" lon="4.82583">
        <ele>316.8013</ele>
        <time>2016-05-22T07:19:21Z</time>
      </trkpt>
      <trkpt lat="45.86216" lon="4.82581">
        <ele>317.047363</ele>
        <time>2016-05-22T07:19:23Z</time>
      </trkpt>
      <trkpt lat="45.86219" lon="4.82579">
        <ele>317.400116</ele>
        <time>2016-05-22T07:19:25Z</time>
      </trkpt>
      <trkpt lat="45.86221" lon="4.82576">
        <ele>317.705566</ele>
        <time>2016-05-22T07:19:27Z</time>
      </trkpt>
      <trkpt lat="45.86224" lon="4.82574">
        <ele>318.183289</ele>
        <time>2016-05-22T07:19:29Z</time>
      </trkpt>
      <trkpt lat="45.86226" lon="4.82572">
        <ele>318.496399</ele>
        <time>2016-05-22T07:19:31Z</time>
      </trkpt>
      <trkpt lat="45.86228" lon="4.8257">
        <ele>318.791077</ele>
        <time>2016-05-22T07:19:33Z</time>
      </trkpt>
      <trkpt lat="45.86231" lon="4.82567">
        <ele>319.1073</ele>
        <time>2016-05-22T07:19:35Z</time>
      </trkpt>
      <trkpt lat="45.86233" lon="4.82565">
        <ele>319.438538</ele>
        <time>2016-05-22T07:19:37Z</time>
      </trkpt>
      <trkpt lat="45.86235" lon="4.82563">
        <ele>319.853973</ele>
        <time>2016-05-22T07:19:39Z</time>
      </trkpt>
      <trkpt lat="45.86238" lon="4.8256">
        <ele>320.13147</ele>
        <time>2016-05-22T07:19:41Z</time>
      </trkpt>
      <trkpt lat="45.8624" lon="4.82557">
        <ele>320.312195</ele>
        <time>2016-05-22T07:19:43Z</time>
      </trkpt>
      <trkpt lat="45.86242" lon="4.82554">
        <ele>320.612732</ele>
        <time>2016-05-22T07:19:45Z</time>
      </trkpt>
      <trkpt lat="45.86244" lon="4.82552">
        <ele>320.965546</ele>
        <time>2016-05-22T07:19:47Z</time>
      </trkpt>
      <trkpt lat="45.86247" lon="4.82549">
        <ele>321.229706</ele>
        <time>2016-05-22T07:19:49Z</time>
      </trkpt>
      <trkpt lat="45.8625" lon="4.82546">
        <ele>321.597626</ele>
        <time>2016-05-22T07:19:51Z</time>
      </trkpt>
      <trkpt lat="45.86253" lon="4.82543">
        <ele>321.961243</ele>
        <time>2016-05-22T07:19:53Z</time>
      </trkpt>
      <trkpt lat="45.86255" lon="4.8254">
        <ele>322.329315</ele>
        <time>2016-05-22T07:19:55Z</time>
      </trkpt>
      <trkpt lat="45.86257" lon="4.82536">
        <ele>322.56604</ele>
        <time>2016-05-22T07:19:57Z</time>
      </trkpt>
      <trkpt lat="45.86259" lon="4.82532">
        <ele>322.77478</ele>
        <time>2016-05-22T07:19:59Z</time>
      </trkpt>
      <trkpt lat="45.86261" lon="4.82529">
        <ele>323.168518</ele>
        <time>2016-05-22T07:20:01Z</time>
      </trkpt>
      <trkpt lat="45.86262" lon="4.82525">
        <ele>323.538544</ele>
        <time>2016-05-22T07:20:03Z</time>
      </trkpt>
      <trkpt lat="45.86264" lon="4.82522">
        <ele>323.687042</ele>
        <time>2016-05-22T07:20:05Z</time>
      </trkpt>
      <trkpt lat="45.86266" lon="4.82519">
        <ele>323.928711</ele>
        <time>2016-05-22T07:20:07Z</time>
      </trkpt>
      <trkpt lat="45.86268" lon="4.82516">
        <ele>324.232178</ele>
        <time>2016-05-22T07:20:09Z</time>
      </trkpt>
      <trkpt lat="45.8627" lon="4.82512">
        <ele>324.52475</ele>
        <time>2016-05-22T07:20:11Z</time>
      </trkpt>
      <trkpt lat="45.86272" lon="4.82509">
        <ele>324.882477</ele>
        <time>2016-05-22T07:20:13Z</time>
      </trkpt>
      <trkpt lat="45.86274" lon="4.82505">
        <ele>325.246185</ele>
        <time>2016-05-22T07:20:15Z</time>
      </trkpt>
      <trkpt lat="45.86276" lon="4.82501">
        <ele>325.519348</ele>
        <time>2016-05-22T07:20:17Z</time>
      </trkpt>
      <trkpt lat="45.86278" lon="4.82497">
        <ele>325.844391</ele>
        <time>2016-05-22T07:20:19Z</time>
      </trkpt>
      <trkpt lat="45.8628" lon="4.82494">
        <ele>325.988586</ele>
        <time>2016-05-22T07:20:21Z</time>
      </trkpt>
      <trkpt lat="45.86281" lon="4.82491">
        <ele>326.269257</ele>
        <time>2016-05-22T07:20:23Z</time>
      </trkpt>
      <trkpt lat="45.86283" lon="4.82487">
        <ele>326.712708</ele>
        <time>2016-05-22T07:20:25Z</time>
      </trkpt>
      <trkpt lat="45.86285" lon="4.82484">
        <ele>327.042664</ele>
        <time>2016-05-22T07:20:27Z</time>
      </trkpt>
      <trkpt lat="45.86287" lon="4.82481">
        <ele>327.384949</ele>
        <time>2016-05-22T07:20:29Z</time>
      </trkpt>
      <trkpt lat="45.8629" lon="4.82477">
        <ele>327.819824</ele>
        <time>2016-05-22T07:20:31Z</time>
      </trkpt>
      <trkpt lat="45.86291" lon="4.82473">
        <ele>328.071716</ele>
        <time>2016-05-22T07:20:33Z</time>
      </trkpt>
      <trkpt lat="45.86293" lon="4.8247">
        <ele>328.351288</ele>
        <time>2016-05-22T07:20:35Z</time>
      </trkpt>
      <trkpt lat="45.86295" lon="4.82465">
        <ele>328.532166</ele>
        <time>2016-05-22T07:20:37Z</time>
      </trkpt>
      <trkpt lat="45.86296" lon="4.82462">
        <ele>328.81897</ele>
        <time>2016-05-22T07:20:39Z</time>
      </trkpt>
      <trkpt lat="45.86298" lon="4.82458">
        <ele>329.221558</ele>
        <time>2016-05-22T07:20:41Z</time>
      </trkpt>
      <trkpt lat="45.86299" lon="4.82454">
        <ele>329.559631</ele>
        <time>2016-05-22T07:20:43Z</time>
      </trkpt>
      <trkpt lat="45.863" lon="4.82449">
        <ele>329.891205</ele>
        <time>2016-05-22T07:20:45Z</time>
      </trkpt>
      <trkpt lat="45.86301" lon="4.82445">
        <ele>330.257294</ele>
        <time>2016-05-22T07:20:47Z</time>
      </trkpt>
      <trkpt lat="45.86301" lon="4.82441">
        <ele>330.723938</ele>
        <time>2016-05-22T07:20:49Z</time>
      </trkpt>
      <trkpt lat="45.86302" lon="4.82436">
        <ele>331.042114</ele>
        <time>2016-05-22T07:20:51Z</time>
      </trkpt>
      <trkpt lat="45.86303" lon="4.82432">
        <ele>331.46637</ele>
        <time>2016-05-22T07:20:53Z</time>
      </trkpt>
      <trkpt lat="45.86304" lon="4.82428">
        <ele>331.640839</ele>
        <time>2016-05-22T07:20:55Z</time>
      </trkpt>
      <trkpt lat="45.86305" lon="4.82424">
        <ele>332.000519</ele>
        <time>2016-05-22T07:20:57Z</time>
      </trkpt>
      <trkpt lat="45.86305" lon="4.82419">
        <ele>332.47879</ele>
        <time>2016-05-22T07:20:59Z</time>
      </trkpt>
      <trkpt lat="45.86305" lon="4.82416">
        <ele>332.836365</ele>
        <time>2016-05-22T07:21:01Z</time>
      </trkpt>
      <trkpt lat="45.86306" lon="4.82412">
        <ele>333.308044</ele>
        <time>2016-05-22T07:21:03Z</time>
      </trkpt>
      <trkpt lat="45.86306" lon="4.82408">
        <ele>333.759552</ele>
        <time>2016-05-22T07:21:05Z</time>
      </trkpt>
      <trkpt lat="45.86306" lon="4.82404">
        <ele>334.106384</ele>
        <time>2016-05-22T07:21:07Z</time>
      </trkpt>
      <trkpt lat="45.86306" lon="4.824">
        <ele>334.302429</ele>
        <time>2016-05-22T07:21:09Z</time>
      </trkpt>
      <trkpt lat="45.86304" lon="4.82396">
        <ele>334.679962</ele>
        <time>2016-05-22T07:21:11Z</time>
      </trkpt>
      <trkpt lat="45.86302" lon="4.82393">
        <ele>335.059143</ele>
        <time>2016-05-22T07:21:13Z</time>
      </trkpt>
      <trkpt lat="45.863" lon="4.82391">
        <ele>335.405975</ele>
        <time>2016-05-22T07:21:15Z</time>
      </trkpt>
      <trkpt lat="45.86297" lon="4.8239">
        <ele>335.921204</ele>
        <time>2016-05-22T07:21:17Z</time>
      </trkpt>
      <trkpt lat="45.86294" lon="4.8239">
        <ele>336.248474</ele>
        <time>2016-05-22T07:21:19Z</time>
      </trkpt>
      <trkpt lat="45.86292" lon="4.8239">
        <ele>336.730652</ele>
        <time>2016-05-22T07:21:21Z</time>
      </trkpt>
      <trkpt lat="45.86289" lon="4.82392">
        <ele>336.814667</ele>
        <time>2016-05-22T07:21:23Z</time>
      </trkpt>
      <trkpt lat="45.86287" lon="4.82394">
        <ele>337.180145</ele>
        <time>2016-05-22T07:21:25Z</time>
      </trkpt>
      <trkpt lat="45.86285" lon="4.82395">
        <ele>337.544312</ele>
        <time>2016-05-22T07:21:27Z</time>
      </trkpt>
      <trkpt lat="45.86283" lon="4.82397">
        <ele>337.948273</ele>
        <time>2016-05-22T07:21:29Z</time>
      </trkpt>
      <trkpt lat="45.8628" lon="4.82399">
        <ele>338.254303</ele>
        <time>2016-05-22T07:21:31Z</time>
      </trkpt>
      <trkpt lat="45.86278" lon="4.82401">
        <ele>338.666473</ele>
        <time>2016-05-22T07:21:33Z</time>
      </trkpt>
      <trkpt lat="45.86276" lon="4.82402">
        <ele>338.944489</ele>
        <time>2016-05-22T07:21:35Z</time>
      </trkpt>
      <trkpt lat="45.86274" lon="4.82404">
        <ele>339.289307</ele>
        <time>2016-05-22T07:21:37Z</time>
      </trkpt>
      <trkpt lat="45.86271" lon="4.82406">
        <ele>339.752289</ele>
        <time>2016-05-22T07:21:39Z</time>
      </trkpt>
      <trkpt lat="45.86269" lon="4.82408">
        <ele>339.918243</ele>
        <time>2016-05-22T07:21:41Z</time>
      </trkpt>
      <trkpt lat="45.86266" lon="4.8241">
        <ele>340.196503</ele>
        <time>2016-05-22T07:21:43Z</time>
      </trkpt>
      <trkpt lat="45.86263" lon="4.82411">
        <ele>340.629761</ele>
        <time>2016-05-22T07:21:45Z</time>
      </trkpt>
      <trkpt lat="45.8626" lon="4.82412">
        <ele>340.955261</ele>
        <time>2016-05-22T07:21:47Z</time>
      </trkpt>
      <trkpt lat="45.86256" lon="4.82414">
        <ele>341.238312</ele>
        <time>2016-05-22T07:21:49Z</time>
      </trkpt>
      <trkpt lat="45.86253" lon="4.82415">
        <ele>341.489868</ele>
        <time>2016-05-22T07:21:51Z</time>
      </trkpt>
      <trkpt lat="45.8625" lon="4.82416">
        <ele>341.868713</ele>
        <time>2016-05-22T07:21:53Z</time>
      </trkpt>
      <trkpt lat="45.86247" lon="4.82417">
        <ele>342.20932</ele>
        <time>2016-05-22T07:21:55Z</time>
      </trkpt>
      <trkpt lat="45.86243" lon="4.82418">
        <ele>342.360199</ele>
        <time>2016-05-22T07:21:57Z</time>
      </trkpt>
      <trkpt lat="45.86241" lon="4.82419">
        <ele>342.56897</ele>
        <time>2016-05-22T07:21:59Z</time>
      </trkpt>
      <trkpt lat="45.86239" lon="4.8242">
        <ele>342.982056</ele>
        <time>2016-05-22T07:22:01Z</time>
      </trkpt>
      <trkpt lat="45.86236" lon="4.82421">
        <ele>343.349274</ele>
        <time>2016-05-22T07:22:03Z</time>
      </trkpt>
      <trkpt lat="45.86233" lon="4.82422">
        <ele>343.770569</ele>
        <time>2016-05-22T07:22:05Z</time>
      </trkpt>
      <trkpt lat="45.86231" lon="4.82423">
        <ele>344.228577</ele>
        <time>2016-05-22T07:22:07Z</time>
      </trkpt>
      <trkpt lat="45.86228" lon="4.82423">
        <ele>344.707275</ele>
        <time>2016-05-22T07:22:09Z</time>
      </trkpt>
      <trkpt lat="45.86225" lon="4.82424">
        <ele>345.014954</ele>
        <time>2016-05-22T07:22:11Z</time>
      </trkpt>
      <trkpt lat="45.86223" lon="4.82424">
        <ele>345.426819</ele>
        <time>2016-05-22T07:22:13Z</time>
      </trkpt>
      <trkpt lat="45.86219" lon="4.82424">
        <ele>345.821503</ele>
        <time>2016-05-22T07:22:15Z</time>
      </trkpt>
      <trkpt lat="45.86217" lon="4.82425">
        <ele>346.341248</ele>
        <time>2016-05-22T07:22:17Z</time>
      </trkpt>
      <trkpt lat="45.86214" lon="4.82425">
        <ele>346.755371</ele>
        <time>2016-05-22T07:22:19Z</time>
      </trkpt>
      <trkpt lat="45.86211" lon="4.82425">
        <ele>346.955994</ele>
        <time>2016-05-22T07:22:21Z</time>
      </trkpt>
      <trkpt lat="45.86208" lon="4.82426">
        <ele>347.407623</ele>
        <time>2016-05-22T07:22:23Z</time>
      </trkpt>
      <trkpt lat="45.86205" lon="4.82426">
        <ele>347.787018</ele>
        <time>2016-05-22T07:22:25Z</time>
      </trkpt>
      <trkpt lat="45.86202" lon="4.82426">
        <ele>348.261658</ele>
        <time>2016-05-22T07:22:27Z</time>
      </trkpt>
      <trkpt lat="45.862" lon="4.82427">
        <ele>348.76001</ele>
        <time>2016-05-22T07:22:29Z</time>
      </trkpt>
      <trkpt lat="45.86197" lon="4.82427">
        <ele>349.233948</ele>
        <time>2016-05-22T07:22:31Z</time>
      </trkpt>
      <trkpt lat="45.86194" lon="4.82427">
        <ele>349.769196</ele>
        <time>2016-05-22T07:22:33Z</time>
      </trkpt>
      <trkpt lat="45.86191" lon="4.82428">
        <ele>350.280579</ele>
        <time>2016-05-22T07:22:35Z</time>
      </trkpt>
      <trkpt lat="45.86188" lon="4.82428">
        <ele>350.70343</ele>
        <time>2016-05-22T07:22:37Z</time>
      </trkpt>
      <trkpt lat="45.86185" lon="4.82428">
        <ele>351.255859</ele>
        <time>2016-05-22T07:22:39Z</time>
      </trkpt>
      <trkpt lat="45.86182" lon="4.82428">
        <ele>351.861145</ele>
        <time>2016-05-22T07:22:41Z</time>
      </trkpt>
      <trkpt lat="45.8618" lon="4.82429">
        <ele>352.273285</ele>
        <time>2016-05-22T07:22:43Z</time>
      </trkpt>
      <trkpt lat="45.86177" lon="4.82429">
        <ele>352.546692</ele>
        <time>2016-05-22T07:22:45Z</time>
      </trkpt>
      <trkpt lat="45.86174" lon="4.82429">
        <ele>353.002838</ele>
        <time>2016-05-22T07:22:47Z</time>
      </trkpt>
      <trkpt lat="45.86171" lon="4.8243">
        <ele>353.397644</ele>
        <time>2016-05-22T07:22:49Z</time>
      </trkpt>
      <trkpt lat="45.86169" lon="4.8243">
        <ele>353.760254</ele>
        <time>2016-05-22T07:22:51Z</time>
      </trkpt>
      <trkpt lat="45.86166" lon="4.8243">
        <ele>354.248871</ele>
        <time>2016-05-22T07:22:53Z</time>
      </trkpt>
      <trkpt lat="45.86163" lon="4.82431">
        <ele>354.749664</ele>
        <time>2016-05-22T07:22:55Z</time>
      </trkpt>
      <trkpt lat="45.8616" lon="4.82431">
        <ele>355.220276</ele>
        <time>2016-05-22T07:22:57Z</time>
      </trkpt>
      <trkpt lat="45.86157" lon="4.82431">
        <ele>355.639008</ele>
        <time>2016-05-22T07:22:59Z</time>
      </trkpt>
      <trkpt lat="45.86153" lon="4.82431">
        <ele>356.05777</ele>
        <time>2016-05-22T07:23:01Z</time>
      </trkpt>
      <trkpt lat="45.8615" lon="4.82432">
        <ele>356.301758</ele>
        <time>2016-05-22T07:23:03Z</time>
      </trkpt>
      <trkpt lat="45.86147" lon="4.82432">
        <ele>356.657776</ele>
        <time>2016-05-22T07:23:05Z</time>
      </trkpt>
      <trkpt lat="45.86144" lon="4.82432">
        <ele>357.128357</ele>
        <time>2016-05-22T07:23:07Z</time>
      </trkpt>
      <trkpt lat="45.8614" lon="4.82431">
        <ele>357.337738</ele>
        <time>2016-05-22T07:23:09Z</time>
      </trkpt>
      <trkpt lat="45.86137" lon="4.82431">
        <ele>357.72641</ele>
        <time>2016-05-22T07:23:11Z</time>
      </trkpt>
      <trkpt lat="45.86134" lon="4.82429">
        <ele>358.171204</ele>
        <time>2016-05-22T07:23:13Z</time>
      </trkpt>
      <trkpt lat="45.86131" lon="4.82429">
        <ele>358.530945</ele>
        <time>2016-05-22T07:23:15Z</time>
      </trkpt>
      <trkpt lat="45.86127" lon="4.82428">
        <ele>358.848389</ele>
        <time>2016-05-22T07:23:17Z</time>
      </trkpt>
      <trkpt lat="45.86124" lon="4.82428">
        <ele>359.360168</ele>
        <time>2016-05-22T07:23:19Z</time>
      </trkpt>
      <trkpt lat="45.8612" lon="4.82427">
        <ele>359.759857</ele>
        <time>2016-05-22T07:23:21Z</time>
      </trkpt>
      <trkpt lat="45.86117" lon="4.82426">
        <ele>360.075195</ele>
        <time>2016-05-22T07:23:23Z</time>
      </trkpt>
      <trkpt lat="45.86114" lon="4.82426">
        <ele>360.548157</ele>
        <time>2016-05-22T07:23:25Z</time>
      </trkpt>
      <trkpt lat="45.8611" lon="4.82426">
        <ele>360.971863</ele>
        <time>2016-05-22T07:23:27Z</time>
      </trkpt>
      <trkpt lat="45.86107" lon="4.82426">
        <ele>361.390808</ele>
        <time>2016-05-22T07:23:29Z</time>
      </trkpt>
      <trkpt lat="45.86103" lon="4.82426">
        <ele>361.855164</ele>
        <time>2016-05-22T07:23:31Z</time>
      </trkpt>
      <trkpt lat="45.861" lon="4.82426">
        <ele>362.131683</ele>
        <time>2016-05-22T07:23:33Z</time>
      </trkpt>
      <trkpt lat="45.86096" lon="4.82427">
        <ele>362.508484</ele>
        <time>2016-05-22T07:23:35Z</time>
      </trkpt>
      <trkpt lat="45.86092" lon="4.82427">
        <ele>362.847656</ele>
        <time>2016-05-22T07:23:37Z</time>
      </trkpt>
      <trkpt lat="45.86088" lon="4.82427">
        <ele>363.130615</ele>
        <time>2016-05-22T07:23:39Z</time>
      </trkpt>
      <trkpt lat="45.86084" lon="4.82428">
        <ele>363.458984</ele>
        <time>2016-05-22T07:23:41Z</time>
      </trkpt>
      <trkpt lat="45.86079" lon="4.82429">
        <ele>363.767883</ele>
        <time>2016-05-22T07:23:43Z</time>
      </trkpt>
      <trkpt lat="45.86075" lon="4.8243">
        <ele>364.05072</ele>
        <time>2016-05-22T07:23:45Z</time>
      </trkpt>
      <trkpt lat="45.86071" lon="4.8243">
        <ele>364.510864</ele>
        <time>2016-05-22T07:23:47Z</time>
      </trkpt>
      <trkpt lat="45.86066" lon="4.82431">
        <ele>364.903717</ele>
        <time>2016-05-22T07:23:49Z</time>
      </trkpt>
      <trkpt lat="45.86062" lon="4.82431">
        <ele>365.247223</ele>
        <time>2016-05-22T07:23:51Z</time>
      </trkpt>
      <trkpt lat="45.86057" lon="4.82431">
        <ele>365.51297</ele>
        <time>2016-05-22T07:23:53Z</time>
      </trkpt>
      <trkpt lat="45.86052" lon="4.8243">
        <ele>365.93985</ele>
        <time>2016-05-22T07:23:55Z</time>
      </trkpt>
      <trkpt lat="45.86046" lon="4.82429">
        <ele>366.279053</ele>
        <time>2016-05-22T07:23:57Z</time>
      </trkpt>
      <trkpt lat="45.86041" lon="4.82429">
        <ele>366.51889</ele>
        <time>2016-05-22T07:23:59Z</time>
      </trkpt>
      <trkpt lat="45.86036" lon="4.82428">
        <ele>366.683136</ele>
        <time>2016-05-22T07:24:01Z</time>
      </trkpt>
      <trkpt lat="45.86031" lon="4.82428">
        <ele>366.964539</ele>
        <time>2016-05-22T07:24:03Z</time>
      </trkpt>
      <trkpt lat="45.86026" lon="4.82428">
        <ele>367.271393</ele>
        <time>2016-05-22T07:24:05Z</time>
      </trkpt>
      <trkpt lat="45.86021" lon="4.82427">
        <ele>367.487518</ele>
        <time>2016-05-22T07:24:07Z</time>
      </trkpt>
      <trkpt lat="45.86016" lon="4.82427">
        <ele>367.736084</ele>
        <time>2016-05-22T07:24:09Z</time>
      </trkpt>
      <trkpt lat="45.86011" lon="4.82426">
        <ele>368.060272</ele>
        <time>2016-05-22T07:24:11Z</time>
      </trkpt>
      <trkpt lat="45.86006" lon="4.82425">
        <ele>368.269928</ele>
        <time>2016-05-22T07:24:13Z</time>
      </trkpt>
      <trkpt lat="45.86" lon="4.82424">
        <ele>368.5401</ele>
        <time>2016-05-22T07:24:15Z</time>
      </trkpt>
      <trkpt lat="45.85995" lon="4.82423">
        <ele>368.827576</ele>
        <time>2016-05-22T07:24:17Z</time>
      </trkpt>
      <trkpt lat="45.85989" lon="4.82423">
        <ele>369.063171</ele>
        <time>2016-05-22T07:24:19Z</time>
      </trkpt>
      <trkpt lat="45.85983" lon="4.82422">
        <ele>369.519287</ele>
        <time>2016-05-22T07:24:21Z</time>
      </trkpt>
      <trkpt lat="45.85977" lon="4.82422">
        <ele>369.642487</ele>
        <time>2016-05-22T07:24:23Z</time>
      </trkpt>
      <trkpt lat="45.8597" lon="4.8242">
        <ele>370.073792</ele>
        <time>2016-05-22T07:24:25Z</time>
      </trkpt>
      <trkpt lat="45.85963" lon="4.82419">
        <ele>370.228943</ele>
        <time>2016-05-22T07:24:27Z</time>
      </trkpt>
      <trkpt lat="45.85957" lon="4.82416">
        <ele>370.375916</ele>
        <time>2016-05-22T07:24:29Z</time>
      </trkpt>
      <trkpt lat="45.8595" lon="4.82414">
        <ele>370.551514</ele>
        <time>2016-05-22T07:24:31Z</time>
      </trkpt>
      <trkpt lat="45.85944" lon="4.82411">
        <ele>370.784973</ele>
        <time>2016-05-22T07:24:33Z</time>
      </trkpt>
      <trkpt lat="45.85939" lon="4.82407">
        <ele>370.981262</ele>
        <time>2016-05-22T07:24:35Z</time>
      </trkpt>
      <trkpt lat="45.85934" lon="4.82404">
        <ele>371.102295</ele>
        <time>2016-05-22T07:24:37Z</time>
      </trkpt>
      <trkpt lat="45.85928" lon="4.82399">
        <ele>371.229828</ele>
        <time>2016-05-22T07:24:39Z</time>
      </trkpt>
      <trkpt lat="45.85925" lon="4.82394">
        <ele>371.296387</ele>
        <time>2016-05-22T07:24:41Z</time>
      </trkpt>
      <trkpt lat="45.8592" lon="4.82389">
        <ele>371.366455</ele>
        <time>2016-05-22T07:24:43Z</time>
      </trkpt>
      <trkpt lat="45.85915" lon="4.82384">
        <ele>371.403168</ele>
        <time>2016-05-22T07:24:45Z</time>
      </trkpt>
      <trkpt lat="45.85911" lon="4.82379">
        <ele>371.519592</ele>
        <time>2016-05-22T07:24:47Z</time>
      </trkpt>
      <trkpt lat="45.85908" lon="4.82373">
        <ele>371.658112</ele>
        <time>2016-05-22T07:24:49Z</time>
      </trkpt>
      <trkpt lat="45.85905" lon="4.82366">
        <ele>371.837585</ele>
        <time>2016-05-22T07:24:51Z</time>
      </trkpt>
      <trkpt lat="45.85903" lon="4.82359">
        <ele>372.053864</ele>
        <time>2016-05-22T07:24:53Z</time>
      </trkpt>
      <trkpt lat="45.85901" lon="4.82352">
        <ele>372.15152</ele>
        <time>2016-05-22T07:24:55Z</time>
      </trkpt>
      <trkpt lat="45.85899" lon="4.82345">
        <ele>372.240662</ele>
        <time>2016-05-22T07:24:57Z</time>
      </trkpt>
      <trkpt lat="45.85896" lon="4.82339">
        <ele>372.264465</ele>
        <time>2016-05-22T07:24:59Z</time>
      </trkpt>
      <trkpt lat="45.85894" lon="4.82333">
        <ele>372.409332</ele>
        <time>2016-05-22T07:25:01Z</time>
      </trkpt>
      <trkpt lat="45.85892" lon="4.82326">
        <ele>372.413635</ele>
        <time>2016-05-22T07:25:03Z</time>
      </trkpt>
      <trkpt lat="45.8589" lon="4.8232">
        <ele>372.576843</ele>
        <time>2016-05-22T07:25:05Z</time>
      </trkpt>
      <trkpt lat="45.85888" lon="4.82313">
        <ele>372.674133</ele>
        <time>2016-05-22T07:25:07Z</time>
      </trkpt>
      <trkpt lat="45.85885" lon="4.82307">
        <ele>372.899048</ele>
        <time>2016-05-22T07:25:09Z</time>
      </trkpt>
      <trkpt lat="45.85883" lon="4.82301">
        <ele>373.041779</ele>
        <time>2016-05-22T07:25:11Z</time>
      </trkpt>
      <trkpt lat="45.85881" lon="4.82296">
        <ele>373.222992</ele>
        <time>2016-05-22T07:25:13Z</time>
      </trkpt>
      <trkpt lat="45.85879" lon="4.8229">
        <ele>373.39032</ele>
        <time>2016-05-22T07:25:15Z</time>
      </trkpt>
      <trkpt lat="45.85877" lon="4.82284">
        <ele>373.576721</ele>
        <time>2016-05-22T07:25:17Z</time>
      </trkpt>
      <trkpt lat="45.85875" lon="4.82279">
        <ele>373.724213</ele>
        <time>2016-05-22T07:25:19Z</time>
      </trkpt>
      <trkpt lat="45.85873" lon="4.82273">
        <ele>373.94696</ele>
        <time>2016-05-22T07:25:21Z</time>
      </trkpt>
      <trkpt lat="45.85871" lon="4.82268">
        <ele>374.369141</ele>
        <time>2016-05-22T07:25:23Z</time>
      </trkpt>
      <trkpt lat="45.85869" lon="4.82262">
        <ele>374.738708</ele>
        <time>2016-05-22T07:25:25Z</time>
      </trkpt>
      <trkpt lat="45.85868" lon="4.82257">
        <ele>375.145691</ele>
        <time>2016-05-22T07:25:27Z</time>
      </trkpt>
      <trkpt lat="45.85867" lon="4.82252">
        <ele>375.500214</ele>
        <time>2016-05-22T07:25:29Z</time>
      </trkpt>
      <trkpt lat="45.85865" lon="4.82247">
        <ele>375.554291</ele>
        <time>2016-05-22T07:25:31Z</time>
      </trkpt>
      <trkpt lat="45.85864" lon="4.82242">
        <ele>375.839233</ele>
        <time>2016-05-22T07:25:33Z</time>
      </trkpt>
      <trkpt lat="45.85863" lon="4.82237">
        <ele>376.038544</ele>
        <time>2016-05-22T07:25:35Z</time>
      </trkpt>
      <trkpt lat="45.85862" lon="4.82233">
        <ele>376.440521</ele>
        <time>2016-05-22T07:25:37Z</time>
      </trkpt>
      <trkpt lat="45.85861" lon="4.82228">
        <ele>376.721252</ele>
        <time>2016-05-22T07:25:39Z</time>
      </trkpt>
      <trkpt lat="45.8586" lon="4.82223">
        <ele>377.127899</ele>
        <time>2016-05-22T07:25:41Z</time>
      </trkpt>
      <trkpt lat="45.85859" lon="4.82219">
        <ele>377.452209</ele>
        <time>2016-05-22T07:25:43Z</time>
      </trkpt>
      <trkpt lat="45.85858" lon="4.82215">
        <ele>377.739929</ele>
        <time>2016-05-22T07:25:45Z</time>
      </trkpt>
      <trkpt lat="45.85857" lon="4.82211">
        <ele>378.131531</ele>
        <time>2016-05-22T07:25:47Z</time>
      </trkpt>
      <trkpt lat="45.85856" lon="4.82206">
        <ele>378.668152</ele>
        <time>2016-05-22T07:25:49Z</time>
      </trkpt>
      <trkpt lat="45.85854" lon="4.82202">
        <ele>379.091614</ele>
        <time>2016-05-22T07:25:51Z</time>
      </trkpt>
      <trkpt lat="45.85854" lon="4.82197">
        <ele>379.472626</ele>
        <time>2016-05-22T07:25:53Z</time>
      </trkpt>
      <trkpt lat="45.85853" lon="4.82193">
        <ele>379.863403</ele>
        <time>2016-05-22T07:25:55Z</time>
      </trkpt>
      <trkpt lat="45.85852" lon="4.82188">
        <ele>380.110077</ele>
        <time>2016-05-22T07:25:57Z</time>
      </trkpt>
      <trkpt lat="45.85851" lon="4.82183">
        <ele>380.543915</ele>
        <time>2016-05-22T07:25:59Z</time>
      </trkpt>
      <trkpt lat="45.8585" lon="4.82179">
        <ele>380.997864</ele>
        <time>2016-05-22T07:26:01Z</time>
      </trkpt>
      <trkpt lat="45.85849" lon="4.82175">
        <ele>381.538849</ele>
        <time>2016-05-22T07:26:03Z</time>
      </trkpt>
      <trkpt lat="45.85849" lon="4.82171">
        <ele>381.930237</ele>
        <time>2016-05-22T07:26:05Z</time>
      </trkpt>
      <trkpt lat="45.85848" lon="4.82166">
        <ele>382.403015</ele>
        <time>2016-05-22T07:26:07Z</time>
      </trkpt>
      <trkpt lat="45.85846" lon="4.82161">
        <ele>382.944214</ele>
        <time>2016-05-22T07:26:09Z</time>
      </trkpt>
      <trkpt lat="45.85844" lon="4.82156">
        <ele>383.446411</ele>
        <time>2016-05-22T07:26:11Z</time>
      </trkpt>
      <trkpt lat="45.85843" lon="4.82152">
        <ele>383.988098</ele>
        <time>2016-05-22T07:26:13Z</time>
      </trkpt>
      <trkpt lat="45.85841" lon="4.82147">
        <ele>384.191559</ele>
        <time>2016-05-22T07:26:15Z</time>
      </trkpt>
      <trkpt lat="45.85839" lon="4.82143">
        <ele>384.687195</ele>
        <time>2016-05-22T07:26:17Z</time>
      </trkpt>
      <trkpt lat="45.85837" lon="4.82139">
        <ele>385.150848</ele>
        <time>2016-05-22T07:26:19Z</time>
      </trkpt>
      <trkpt lat="45.85834" lon="4.82136">
        <ele>385.685577</ele>
        <time>2016-05-22T07:26:21Z</time>
      </trkpt>
      <trkpt lat="45.85831" lon="4.82132">
        <ele>386.055511</ele>
        <time>2016-05-22T07:26:23Z</time>
      </trkpt>
      <trkpt lat="45.85828" lon="4.82128">
        <ele>386.54715</ele>
        <time>2016-05-22T07:26:25Z</time>
      </trkpt>
      <trkpt lat="45.85825" lon="4.82125">
        <ele>387.075378</ele>
        <time>2016-05-22T07:26:27Z</time>
      </trkpt>
      <trkpt lat="45.85822" lon="4.82122">
        <ele>387.233429</ele>
        <time>2016-05-22T07:26:29Z</time>
      </trkpt>
      <trkpt lat="45.8582" lon="4.82119">
        <ele>387.535339</ele>
        <time>2016-05-22T07:26:31Z</time>
      </trkpt>
      <trkpt lat="45.85817" lon="4.82117">
        <ele>387.780396</ele>
        <time>2016-05-22T07:26:33Z</time>
      </trkpt>
      <trkpt lat="45.85815" lon="4.82113">
        <ele>388.242249</ele>
        <time>2016-05-22T07:26:35Z</time>
      </trkpt>
      <trkpt lat="45.85812" lon="4.8211">
        <ele>388.781433</ele>
        <time>2016-05-22T07:26:37Z</time>
      </trkpt>
      <trkpt lat="45.85811" lon="4.82108">
        <ele>389.283875</ele>
        <time>2016-05-22T07:26:39Z</time>
      </trkpt>
      <trkpt lat="45.85809" lon="4.82105">
        <ele>389.529633</ele>
        <time>2016-05-22T07:26:41Z</time>
      </trkpt>
      <trkpt lat="45.85807" lon="4.82102">
        <ele>389.931335</ele>
        <time>2016-05-22T07:26:43Z</time>
      </trkpt>
      <trkpt lat="45.85804" lon="4.82099">
        <ele>390.446747</ele>
        <time>2016-05-22T07:26:45Z</time>
      </trkpt>
      <trkpt lat="45.85801" lon="4.82096">
        <ele>390.844421</ele>
        <time>2016-05-22T07:26:47Z</time>
      </trkpt>
      <trkpt lat="45.85799" lon="4.82093">
        <ele>391.253845</ele>
        <time>2016-05-22T07:26:49Z</time>
      </trkpt>
      <trkpt lat="45.85795" lon="4.82091">
        <ele>391.654602</ele>
        <time>2016-05-22T07:26:51Z</time>
      </trkpt>
      <trkpt lat="45.85792" lon="4.82088">
        <ele>391.810577</ele>
        <time>2016-05-22T07:26:53Z</time>
      </trkpt>
      <trkpt lat="45.85789" lon="4.82086">
        <ele>392.291565</ele>
        <time>2016-05-22T07:26:55Z</time>
      </trkpt>
      <trkpt lat="45.85786" lon="4.82085">
        <ele>392.46051</ele>
        <time>2016-05-22T07:26:57Z</time>
      </trkpt>
      <trkpt lat="45.85781" lon="4.82084">
        <ele>392.830902</ele>
        <time>2016-05-22T07:26:59Z</time>
      </trkpt>
      <trkpt lat="45.85776" lon="4.82083">
        <ele>393.216156</ele>
        <time>2016-05-22T07:27:01Z</time>
      </trkpt>
      <trkpt lat="45.85772" lon="4.82083">
        <ele>393.614746</ele>
        <time>2016-05-22T07:27:03Z</time>
      </trkpt>
      <trkpt lat="45.85766" lon="4.82082">
        <ele>393.965942</ele>
        <time>2016-05-22T07:27:05Z</time>
      </trkpt>
      <trkpt lat="45.85761" lon="4.82082">
        <ele>394.340759</ele>
        <time>2016-05-22T07:27:07Z</time>
      </trkpt>
      <trkpt lat="45.85755" lon="4.82081">
        <ele>394.628906</ele>
        <time>2016-05-22T07:27:09Z</time>
      </trkpt>
      <trkpt lat="45.8575" lon="4.82081">
        <ele>395.062195</ele>
        <time>2016-05-22T07:27:11Z</time>
      </trkpt>
      <trkpt lat="45.85746" lon="4.82082">
        <ele>395.436035</ele>
        <time>2016-05-22T07:27:13Z</time>
      </trkpt>
      <trkpt lat="45.8574" lon="4.82083">
        <ele>395.635651</ele>
        <time>2016-05-22T07:27:15Z</time>
      </trkpt>
      <trkpt lat="45.85735" lon="4.82085">
        <ele>395.910339</ele>
        <time>2016-05-22T07:27:17Z</time>
      </trkpt>
      <trkpt lat="45.8573" lon="4.82087">
        <ele>396.220245</ele>
        <time>2016-05-22T07:27:19Z</time>
      </trkpt>
      <trkpt lat="45.85724" lon="4.82088">
        <ele>396.352448</ele>
        <time>2016-05-22T07:27:21Z</time>
      </trkpt>
      <trkpt lat="45.85718" lon="4.82091">
        <ele>396.506256</ele>
        <time>2016-05-22T07:27:23Z</time>
      </trkpt>
      <trkpt lat="45.85712" lon="4.82095">
        <ele>396.741425</ele>
        <time>2016-05-22T07:27:25Z</time>
      </trkpt>
      <trkpt lat="45.85708" lon="4.821">
        <ele>397.01886</ele>
        <time>2016-05-22T07:27:27Z</time>
      </trkpt>
      <trkpt lat="45.85702" lon="4.82104">
        <ele>397.282288</ele>
        <time>2016-05-22T07:27:29Z</time>
      </trkpt>
      <trkpt lat="45.85698" lon="4.82107">
        <ele>397.453491</ele>
        <time>2016-05-22T07:27:31Z</time>
      </trkpt>
      <trkpt lat="45.85693" lon="4.82112">
        <ele>397.559692</ele>
        <time>2016-05-22T07:27:33Z</time>
      </trkpt>
      <trkpt lat="45.85686" lon="4.82115">
        <ele>397.731537</ele>
        <time>2016-05-22T07:27:35Z</time>
      </trkpt>
      <trkpt lat="45.85679" lon="4.82118">
        <ele>397.913574</ele>
        <time>2016-05-22T07:27:37Z</time>
      </trkpt>
      <trkpt lat="45.85673" lon="4.82119">
        <ele>398.033142</ele>
        <time>2016-05-22T07:27:39Z</time>
      </trkpt>
      <trkpt lat="45.85668" lon="4.82121">
        <ele>398.347321</ele>
        <time>2016-05-22T07:27:41Z</time>
      </trkpt>
      <trkpt lat="45.85662" lon="4.82121">
        <ele>398.624817</ele>
        <time>2016-05-22T07:27:43Z</time>
      </trkpt>
      <trkpt lat="45.85656" lon="4.82121">
        <ele>398.878448</ele>
        <time>2016-05-22T07:27:45Z</time>
      </trkpt>
      <trkpt lat="45.8565" lon="4.82122">
        <ele>399.203644</ele>
        <time>2016-05-22T07:27:47Z</time>
      </trkpt>
      <trkpt lat="45.85645" lon="4.82123">
        <ele>399.483276</ele>
        <time>2016-05-22T07:27:49Z</time>
      </trkpt>
      <trkpt lat="45.8564" lon="4.82124">
        <ele>399.630676</ele>
        <time>2016-05-22T07:27:51Z</time>
      </trkpt>
      <trkpt lat="45.85635" lon="4.82124">
        <ele>399.948242</ele>
        <time>2016-05-22T07:27:53Z</time>
      </trkpt>
      <trkpt lat="45.8563" lon="4.82125">
        <ele>400.249329</ele>
        <time>2016-05-22T07:27:55Z</time>
      </trkpt>
      <trkpt lat="45.85625" lon="4.82125">
        <ele>400.589478</ele>
        <time>2016-05-22T07:27:57Z</time>
      </trkpt>
      <trkpt lat="45.85619" lon="4.82126">
        <ele>400.919586</ele>
        <time>2016-05-22T07:27:59Z</time>
      </trkpt>
      <trkpt lat="45.85613" lon="4.82126">
        <ele>401.26001</ele>
        <time>2016-05-22T07:28:01Z</time>
      </trkpt>
      <trkpt lat="45.85607" lon="4.82127">
        <ele>401.585205</ele>
        <time>2016-05-22T07:28:03Z</time>
      </trkpt>
      <trkpt lat="45.85601" lon="4.82129">
        <ele>401.995056</ele>
        <time>2016-05-22T07:28:05Z</time>
      </trkpt>
      <trkpt lat="45.85595" lon="4.82132">
        <ele>402.328918</ele>
        <time>2016-05-22T07:28:07Z</time>
      </trkpt>
      <trkpt lat="45.85589" lon="4.82133">
        <ele>402.365784</ele>
        <time>2016-05-22T07:28:09Z</time>
      </trkpt>
      <trkpt lat="45.85583" lon="4.82134">
        <ele>402.638916</ele>
        <time>2016-05-22T07:28:11Z</time>
      </trkpt>
      <trkpt lat="45.85578" lon="4.82131">
        <ele>402.909973</ele>
        <time>2016-05-22T07:28:13Z</time>
      </trkpt>
      <trkpt lat="45.85577" lon="4.82127">
        <ele>403.194031</ele>
        <time>2016-05-22T07:28:15Z</time>
      </trkpt>
      <trkpt lat="45.85578" lon="4.82124">
        <ele>403.475281</ele>
        <time>2016-05-22T07:28:17Z</time>
      </trkpt>
      <trkpt lat="45.85579" lon="4.8212">
        <ele>403.874298</ele>
        <time>2016-05-22T07:28:19Z</time>
      </trkpt>
      <trkpt lat="45.8558" lon="4.82117">
        <ele>404.11676</ele>
        <time>2016-05-22T07:28:21Z</time>
      </trkpt>
      <trkpt lat="45.85581" lon="4.82114">
        <ele>404.257019</ele>
        <time>2016-05-22T07:28:23Z</time>
      </trkpt>
      <trkpt lat="45.85582" lon="4.8211">
        <ele>404.493439</ele>
        <time>2016-05-22T07:28:25Z</time>
      </trkpt>
      <trkpt lat="45.85583" lon="4.82107">
        <ele>404.645294</ele>
        <time>2016-05-22T07:28:27Z</time>
      </trkpt>
      <trkpt lat="45.85584" lon="4.82105">
        <ele>404.958099</ele>
        <time>2016-05-22T07:28:29Z</time>
      </trkpt>
      <trkpt lat="45.85586" lon="4.82102">
        <ele>405.156281</ele>
        <time>2016-05-22T07:28:31Z</time>
      </trkpt>
      <trkpt lat="45.85587" lon="4.82098">
        <ele>405.531067</ele>
        <time>2016-05-22T07:28:33Z</time>
      </trkpt>
      <trkpt lat="45.85588" lon="4.82094">
        <ele>405.870636</ele>
        <time>2016-05-22T07:28:35Z</time>
      </trkpt>
      <trkpt lat="45.85589" lon="4.82089">
        <ele>406.252747</ele>
        <time>2016-05-22T07:28:37Z</time>
      </trkpt>
      <trkpt lat="45.8559" lon="4.82085">
        <ele>406.348206</ele>
        <time>2016-05-22T07:28:39Z</time>
      </trkpt>
      <trkpt lat="45.8559" lon="4.8208">
        <ele>406.610779</ele>
        <time>2016-05-22T07:28:41Z</time>
      </trkpt>
      <trkpt lat="45.85589" lon="4.82076">
        <ele>406.990417</ele>
        <time>2016-05-22T07:28:43Z</time>
      </trkpt>
      <trkpt lat="45.85589" lon="4.82072">
        <ele>407.404846</ele>
        <time>2016-05-22T07:28:45Z</time>
      </trkpt>
      <trkpt lat="45.85588" lon="4.82067">
        <ele>407.7547</ele>
        <time>2016-05-22T07:28:47Z</time>
      </trkpt>
      <trkpt lat="45.85587" lon="4.82063">
        <ele>408.249451</ele>
        <time>2016-05-22T07:28:49Z</time>
      </trkpt>
      <trkpt lat="45.85587" lon="4.82059">
        <ele>408.440369</ele>
        <time>2016-05-22T07:28:51Z</time>
      </trkpt>
      <trkpt lat="45.85586" lon="4.82054">
        <ele>408.93277</ele>
        <time>2016-05-22T07:28:53Z</time>
      </trkpt>
      <trkpt lat="45.85586" lon="4.8205">
        <ele>409.387299</ele>
        <time>2016-05-22T07:28:55Z</time>
      </trkpt>
      <trkpt lat="45.85585" lon="4.82045">
        <ele>409.853912</ele>
        <time>2016-05-22T07:28:57Z</time>
      </trkpt>
      <trkpt lat="45.85585" lon="4.82041">
        <ele>410.43985</ele>
        <time>2016-05-22T07:28:59Z</time>
      </trkpt>
      <trkpt lat="45.85585" lon="4.82037">
        <ele>411.028015</ele>
        <time>2016-05-22T07:29:01Z</time>
      </trkpt>
      <trkpt lat="45.85584" lon="4.82033">
        <ele>411.528961</ele>
        <time>2016-05-22T07:29:03Z</time>
      </trkpt>
      <trkpt lat="45.85584" lon="4.82028">
        <ele>412.18512</ele>
        <time>2016-05-22T07:29:05Z</time>
      </trkpt>
      <trkpt lat="45.85584" lon="4.82024">
        <ele>412.70816</ele>
        <time>2016-05-22T07:29:07Z</time>
      </trkpt>
      <trkpt lat="45.85584" lon="4.8202">
        <ele>413.175934</ele>
        <time>2016-05-22T07:29:09Z</time>
      </trkpt>
      <trkpt lat="45.85585" lon="4.82016">
        <ele>413.5271</ele>
        <time>2016-05-22T07:29:11Z</time>
      </trkpt>
      <trkpt lat="45.85585" lon="4.82012">
        <ele>413.953918</ele>
        <time>2016-05-22T07:29:13Z</time>
      </trkpt>
      <trkpt lat="45.85585" lon="4.82009">
        <ele>414.156311</ele>
        <time>2016-05-22T07:29:15Z</time>
      </trkpt>
      <trkpt lat="45.85584" lon="4.82006">
        <ele>414.430023</ele>
        <time>2016-05-22T07:29:17Z</time>
      </trkpt>
      <trkpt lat="45.85584" lon="4.82002">
        <ele>414.729584</ele>
        <time>2016-05-22T07:29:19Z</time>
      </trkpt>
      <trkpt lat="45.85582" lon="4.81999">
        <ele>415.101013</ele>
        <time>2016-05-22T07:29:21Z</time>
      </trkpt>
      <trkpt lat="45.8558" lon="4.81996">
        <ele>415.413239</ele>
        <time>2016-05-22T07:29:23Z</time>
      </trkpt>
      <trkpt lat="45.85578" lon="4.81993">
        <ele>415.757385</ele>
        <time>2016-05-22T07:29:25Z</time>
      </trkpt>
      <trkpt lat="45.85577" lon="4.81989">
        <ele>416.246002</ele>
        <time>2016-05-22T07:29:27Z</time>
      </trkpt>
      <trkpt lat="45.85575" lon="4.81986">
        <ele>416.674805</ele>
        <time>2016-05-22T07:29:29Z</time>
      </trkpt>
      <trkpt lat="45.85574" lon="4.81981">
        <ele>416.779053</ele>
        <time>2016-05-22T07:29:31Z</time>
      </trkpt>
      <trkpt lat="45.85574" lon="4.81976">
        <ele>417.053528</ele>
        <time>2016-05-22T07:29:33Z</time>
      </trkpt>
      <trkpt lat="45.85573" lon="4.8197">
        <ele>417.316498</ele>
        <time>2016-05-22T07:29:35Z</time>
      </trkpt>
      <trkpt lat="45.85572" lon="4.81965">
        <ele>417.626038</ele>
        <time>2016-05-22T07:29:37Z</time>
      </trkpt>
      <trkpt lat="45.85572" lon="4.8196">
        <ele>417.899567</ele>
        <time>2016-05-22T07:29:39Z</time>
      </trkpt>
      <trkpt lat="45.85572" lon="4.81955">
        <ele>418.134094</ele>
        <time>2016-05-22T07:29:41Z</time>
      </trkpt>
      <trkpt lat="45.85571" lon="4.81949">
        <ele>418.218811</ele>
        <time>2016-05-22T07:29:43Z</time>
      </trkpt>
      <trkpt lat="45.85571" lon="4.81943">
        <ele>418.371246</ele>
        <time>2016-05-22T07:29:45Z</time>
      </trkpt>
      <trkpt lat="45.8557" lon="4.81936">
        <ele>418.523285</ele>
        <time>2016-05-22T07:29:47Z</time>
      </trkpt>
      <trkpt lat="45.8557" lon="4.8193">
        <ele>418.653625</ele>
        <time>2016-05-22T07:29:49Z</time>
      </trkpt>
      <trkpt lat="45.85569" lon="4.81922">
        <ele>418.706848</ele>
        <time>2016-05-22T07:29:51Z</time>
      </trkpt>
      <trkpt lat="45.85569" lon="4.81914">
        <ele>418.885742</ele>
        <time>2016-05-22T07:29:53Z</time>
      </trkpt>
      <trkpt lat="45.85568" lon="4.81907">
        <ele>419.32666</ele>
        <time>2016-05-22T07:29:55Z</time>
      </trkpt>
      <trkpt lat="45.85568" lon="4.81899">
        <ele>419.656799</ele>
        <time>2016-05-22T07:29:57Z</time>
      </trkpt>
      <trkpt lat="45.85566" lon="4.81892">
        <ele>419.918762</ele>
        <time>2016-05-22T07:29:59Z</time>
      </trkpt>
      <trkpt lat="45.85563" lon="4.81884">
        <ele>420.207581</ele>
        <time>2016-05-22T07:30:01Z</time>
      </trkpt>
      <trkpt lat="45.85561" lon="4.81875">
        <ele>420.393372</ele>
        <time>2016-05-22T07:30:03Z</time>
      </trkpt>
      <trkpt lat="45.8556" lon="4.81865">
        <ele>420.593079</ele>
        <time>2016-05-22T07:30:05Z</time>
      </trkpt>
      <trkpt lat="45.85559" lon="4.81856">
        <ele>420.991638</ele>
        <time>2016-05-22T07:30:07Z</time>
      </trkpt>
      <trkpt lat="45.85557" lon="4.81847">
        <ele>420.930817</ele>
        <time>2016-05-22T07:30:09Z</time>
      </trkpt>
      <trkpt lat="45.85552" lon="4.81837">
        <ele>420.837402</ele>
        <time>2016-05-22T07:30:11Z</time>
      </trkpt>
      <trkpt lat="45.85545" lon="4.81826">
        <ele>420.990417</ele>
        <time>2016-05-22T07:30:13Z</time>
      </trkpt>
      <trkpt lat="45.85538" lon="4.81817">
        <ele>421.10318</ele>
        <time>2016-05-22T07:30:15Z</time>
      </trkpt>
      <trkpt lat="45.85532" lon="4.81811">
        <ele>421.074951</ele>
        <time>2016-05-22T07:30:17Z</time>
      </trkpt>
      <trkpt lat="45.85528" lon="4.81807">
        <ele>421.048492</ele>
        <time>2016-05-22T07:30:19Z</time>
      </trkpt>
      <trkpt lat="45.85524" lon="4.81803">
        <ele>421.097595</ele>
        <time>2016-05-22T07:30:21Z</time>
      </trkpt>
      <trkpt lat="45.85523" lon="4.818">
        <ele>420.873932</ele>
        <time>2016-05-22T07:30:23Z</time>
      </trkpt>
      <trkpt lat="45.85523" lon="4.81796">
        <ele>420.163086</ele>
        <time>2016-05-22T07:30:35Z</time>
      </trkpt>
      <trkpt lat="45.85521" lon="4.81789">
        <ele>419.867035</ele>
        <time>2016-05-22T07:30:37Z</time>
      </trkpt>
      <trkpt lat="45.85519" lon="4.81787">
        <ele>419.146576</ele>
        <time>2016-05-22T07:30:43Z</time>
      </trkpt>
      <trkpt lat="45.85517" lon="4.81786">
        <ele>418.910797</ele>
        <time>2016-05-22T07:30:46Z</time>
      </trkpt>
      <trkpt lat="45.85516" lon="4.81785">
        <ele>418.700378</ele>
        <time>2016-05-22T07:30:48Z</time>
      </trkpt>
      <trkpt lat="45.85515" lon="4.81782">
        <ele>418.428955</ele>
        <time>2016-05-22T07:30:50Z</time>
      </trkpt>
      <trkpt lat="45.85515" lon="4.8178">
        <ele>418.165833</ele>
        <time>2016-05-22T07:30:52Z</time>
      </trkpt>
      <trkpt lat="45.85514" lon="4.81773">
        <ele>417.901367</ele>
        <time>2016-05-22T07:31:10Z</time>
      </trkpt>
      <trkpt lat="45.85514" lon="4.81768">
        <ele>417.998779</ele>
        <time>2016-05-22T07:31:12Z</time>
      </trkpt>
      <trkpt lat="45.85516" lon="4.81766">
        <ele>418.01181</ele>
        <time>2016-05-22T07:31:14Z</time>
      </trkpt>
      <trkpt lat="45.85519" lon="4.81765">
        <ele>417.99884</ele>
        <time>2016-05-22T07:31:16Z</time>
      </trkpt>
      <trkpt lat="45.85523" lon="4.81762">
        <ele>418.056732</ele>
        <time>2016-05-22T07:31:18Z</time>
      </trkpt>
      <trkpt lat="45.85528" lon="4.81757">
        <ele>418.184174</ele>
        <time>2016-05-22T07:31:20Z</time>
      </trkpt>
      <trkpt lat="45.85533" lon="4.81751">
        <ele>418.293365</ele>
        <time>2016-05-22T07:31:22Z</time>
      </trkpt>
      <trkpt lat="45.85536" lon="4.81745">
        <ele>418.391113</ele>
        <time>2016-05-22T07:31:24Z</time>
      </trkpt>
      <trkpt lat="45.85539" lon="4.81737">
        <ele>418.48349</ele>
        <time>2016-05-22T07:31:26Z</time>
      </trkpt>
      <trkpt lat="45.8554" lon="4.8173">
        <ele>418.516052</ele>
        <time>2016-05-22T07:31:28Z</time>
      </trkpt>
      <trkpt lat="45.85541" lon="4.81722">
        <ele>418.616455</ele>
        <time>2016-05-22T07:31:30Z</time>
      </trkpt>
      <trkpt lat="45.85541" lon="4.81715">
        <ele>418.607117</ele>
        <time>2016-05-22T07:31:32Z</time>
      </trkpt>
      <trkpt lat="45.8554" lon="4.81708">
        <ele>418.750732</ele>
        <time>2016-05-22T07:31:34Z</time>
      </trkpt>
      <trkpt lat="45.85539" lon="4.81701">
        <ele>418.81842</ele>
        <time>2016-05-22T07:31:36Z</time>
      </trkpt>
      <trkpt lat="45.85537" lon="4.81694">
        <ele>418.98999</ele>
        <time>2016-05-22T07:31:38Z</time>
      </trkpt>
      <trkpt lat="45.85535" lon="4.81688">
        <ele>419.248474</ele>
        <time>2016-05-22T07:31:40Z</time>
      </trkpt>
      <trkpt lat="45.85534" lon="4.81682">
        <ele>419.487457</ele>
        <time>2016-05-22T07:31:42Z</time>
      </trkpt>
      <trkpt lat="45.85531" lon="4.81676">
        <ele>419.800873</ele>
        <time>2016-05-22T07:31:44Z</time>
      </trkpt>
      <trkpt lat="45.85529" lon="4.81669">
        <ele>419.8797</ele>
        <time>2016-05-22T07:31:46Z</time>
      </trkpt>
      <trkpt lat="45.85527" lon="4.81662">
        <ele>420.138184</ele>
        <time>2016-05-22T07:31:48Z</time>
      </trkpt>
      <trkpt lat="45.85526" lon="4.81656">
        <ele>420.472107</ele>
        <time>2016-05-22T07:31:50Z</time>
      </trkpt>
      <trkpt lat="45.85524" lon="4.8165">
        <ele>420.641998</ele>
        <time>2016-05-22T07:31:52Z</time>
      </trkpt>
      <trkpt lat="45.85522" lon="4.81644">
        <ele>420.929871</ele>
        <time>2016-05-22T07:31:54Z</time>
      </trkpt>
      <trkpt lat="45.85521" lon="4.81638">
        <ele>421.381775</ele>
        <time>2016-05-22T07:31:56Z</time>
      </trkpt>
      <trkpt lat="45.85519" lon="4.81632">
        <ele>421.736267</ele>
        <time>2016-05-22T07:31:58Z</time>
      </trkpt>
      <trkpt lat="45.85518" lon="4.81626">
        <ele>422.001282</ele>
        <time>2016-05-22T07:32:00Z</time>
      </trkpt>
      <trkpt lat="45.85516" lon="4.8162">
        <ele>422.401672</ele>
        <time>2016-05-22T07:32:02Z</time>
      </trkpt>
      <trkpt lat="45.85514" lon="4.81614">
        <ele>422.740631</ele>
        <time>2016-05-22T07:32:04Z</time>
      </trkpt>
      <trkpt lat="45.85512" lon="4.81608">
        <ele>423.059814</ele>
        <time>2016-05-22T07:32:06Z</time>
      </trkpt>
      <trkpt lat="45.8551" lon="4.81602">
        <ele>423.498718</ele>
        <time>2016-05-22T07:32:08Z</time>
      </trkpt>
      <trkpt lat="45.85508" lon="4.81595">
        <ele>423.976807</ele>
        <time>2016-05-22T07:32:10Z</time>
      </trkpt>
      <trkpt lat="45.85506" lon="4.81589">
        <ele>424.533142</ele>
        <time>2016-05-22T07:32:12Z</time>
      </trkpt>
      <trkpt lat="45.85505" lon="4.81583">
        <ele>425.124176</ele>
        <time>2016-05-22T07:32:14Z</time>
      </trkpt>
      <trkpt lat="45.85503" lon="4.81577">
        <ele>425.370422</ele>
        <time>2016-05-22T07:32:16Z</time>
      </trkpt>
      <trkpt lat="45.85502" lon="4.81571">
        <ele>425.863373</ele>
        <time>2016-05-22T07:32:18Z</time>
      </trkpt>
      <trkpt lat="45.855" lon="4.81564">
        <ele>426.365082</ele>
        <time>2016-05-22T07:32:20Z</time>
      </trkpt>
      <trkpt lat="45.85498" lon="4.81559">
        <ele>426.828033</ele>
        <time>2016-05-22T07:32:22Z</time>
      </trkpt>
      <trkpt lat="45.85496" lon="4.81552">
        <ele>427.219299</ele>
        <time>2016-05-22T07:32:24Z</time>
      </trkpt>
      <trkpt lat="45.85495" lon="4.81547">
        <ele>427.616638</ele>
        <time>2016-05-22T07:32:26Z</time>
      </trkpt>
      <trkpt lat="45.85492" lon="4.81541">
        <ele>428.047119</ele>
        <time>2016-05-22T07:32:28Z</time>
      </trkpt>
      <trkpt lat="45.8549" lon="4.81535">
        <ele>428.565186</ele>
        <time>2016-05-22T07:32:30Z</time>
      </trkpt>
      <trkpt lat="45.85489" lon="4.81529">
        <ele>428.902161</ele>
        <time>2016-05-22T07:32:32Z</time>
      </trkpt>
      <trkpt lat="45.85487" lon="4.81523">
        <ele>429.13974</ele>
        <time>2016-05-22T07:32:34Z</time>
      </trkpt>
      <trkpt lat="45.85485" lon="4.81516">
        <ele>429.5578</ele>
        <time>2016-05-22T07:32:36Z</time>
      </trkpt>
      <trkpt lat="45.85483" lon="4.8151">
        <ele>430.000641</ele>
        <time>2016-05-22T07:32:38Z</time>
      </trkpt>
      <trkpt lat="45.85482" lon="4.81504">
        <ele>430.411224</ele>
        <time>2016-05-22T07:32:40Z</time>
      </trkpt>
      <trkpt lat="45.85481" lon="4.81498">
        <ele>430.874359</ele>
        <time>2016-05-22T07:32:42Z</time>
      </trkpt>
      <trkpt lat="45.85479" lon="4.81492">
        <ele>431.291016</ele>
        <time>2016-05-22T07:32:44Z</time>
      </trkpt>
      <trkpt lat="45.85477" lon="4.81486">
        <ele>431.80426</ele>
        <time>2016-05-22T07:32:46Z</time>
      </trkpt>
      <trkpt lat="45.85476" lon="4.81479">
        <ele>432.317627</ele>
        <time>2016-05-22T07:32:48Z</time>
      </trkpt>
      <trkpt lat="45.85475" lon="4.81472">
        <ele>432.523621</ele>
        <time>2016-05-22T07:32:50Z</time>
      </trkpt>
      <trkpt lat="45.85474" lon="4.81465">
        <ele>432.876465</ele>
        <time>2016-05-22T07:32:52Z</time>
      </trkpt>
      <trkpt lat="45.85472" lon="4.81459">
        <ele>433.270172</ele>
        <time>2016-05-22T07:32:54Z</time>
      </trkpt>
      <trkpt lat="45.85471" lon="4.81453">
        <ele>433.685547</ele>
        <time>2016-05-22T07:32:56Z</time>
      </trkpt>
      <trkpt lat="45.8547" lon="4.81446">
        <ele>434.138</ele>
        <time>2016-05-22T07:32:58Z</time>
      </trkpt>
      <trkpt lat="45.85469" lon="4.81439">
        <ele>434.440735</ele>
        <time>2016-05-22T07:33:00Z</time>
      </trkpt>
      <trkpt lat="45.85468" lon="4.81432">
        <ele>434.830017</ele>
        <time>2016-05-22T07:33:02Z</time>
      </trkpt>
      <trkpt lat="45.85467" lon="4.81424">
        <ele>434.986633</ele>
        <time>2016-05-22T07:33:04Z</time>
      </trkpt>
      <trkpt lat="45.85466" lon="4.81416">
        <ele>435.39444</ele>
        <time>2016-05-22T07:33:06Z</time>
      </trkpt>
      <trkpt lat="45.85465" lon="4.81409">
        <ele>435.738586</ele>
        <time>2016-05-22T07:33:08Z</time>
      </trkpt>
      <trkpt lat="45.85464" lon="4.81401">
        <ele>436.021393</ele>
        <time>2016-05-22T07:33:10Z</time>
      </trkpt>
      <trkpt lat="45.85463" lon="4.81393">
        <ele>436.353516</ele>
        <time>2016-05-22T07:33:12Z</time>
      </trkpt>
      <trkpt lat="45.85463" lon="4.81385">
        <ele>436.799561</ele>
        <time>2016-05-22T07:33:14Z</time>
      </trkpt>
      <trkpt lat="45.85463" lon="4.81377">
        <ele>437.110687</ele>
        <time>2016-05-22T07:33:16Z</time>
      </trkpt>
      <trkpt lat="45.85464" lon="4.81367">
        <ele>437.618408</ele>
        <time>2016-05-22T07:33:18Z</time>
      </trkpt>
      <trkpt lat="45.85465" lon="4.81358">
        <ele>437.97934</ele>
        <time>2016-05-22T07:33:20Z</time>
      </trkpt>
      <trkpt lat="45.85468" lon="4.8135">
        <ele>438.225189</ele>
        <time>2016-05-22T07:33:22Z</time>
      </trkpt>
      <trkpt lat="45.8547" lon="4.81341">
        <ele>438.392731</ele>
        <time>2016-05-22T07:33:24Z</time>
      </trkpt>
      <trkpt lat="45.85474" lon="4.81333">
        <ele>438.73111</ele>
        <time>2016-05-22T07:33:26Z</time>
      </trkpt>
      <trkpt lat="45.85477" lon="4.81326">
        <ele>439.015289</ele>
        <time>2016-05-22T07:33:28Z</time>
      </trkpt>
      <trkpt lat="45.85481" lon="4.8132">
        <ele>439.235046</ele>
        <time>2016-05-22T07:33:30Z</time>
      </trkpt>
      <trkpt lat="45.85486" lon="4.81314">
        <ele>439.505524</ele>
        <time>2016-05-22T07:33:32Z</time>
      </trkpt>
      <trkpt lat="45.85489" lon="4.81309">
        <ele>439.772705</ele>
        <time>2016-05-22T07:33:34Z</time>
      </trkpt>
      <trkpt lat="45.85491" lon="4.81305">
        <ele>440.042542</ele>
        <time>2016-05-22T07:33:36Z</time>
      </trkpt>
      <trkpt lat="45.85493" lon="4.81301">
        <ele>440.101257</ele>
        <time>2016-05-22T07:33:38Z</time>
      </trkpt>
      <trkpt lat="45.85494" lon="4.81298">
        <ele>440.272034</ele>
        <time>2016-05-22T07:33:40Z</time>
      </trkpt>
      <trkpt lat="45.85495" lon="4.81293">
        <ele>440.470062</ele>
        <time>2016-05-22T07:33:42Z</time>
      </trkpt>
      <trkpt lat="45.85498" lon="4.8129">
        <ele>440.659424</ele>
        <time>2016-05-22T07:33:44Z</time>
      </trkpt>
      <trkpt lat="45.855" lon="4.81287">
        <ele>440.886139</ele>
        <time>2016-05-22T07:33:46Z</time>
      </trkpt>
      <trkpt lat="45.85502" lon="4.81284">
        <ele>441.022217</ele>
        <time>2016-05-22T07:33:48Z</time>
      </trkpt>
      <trkpt lat="45.85504" lon="4.81282">
        <ele>441.087555</ele>
        <time>2016-05-22T07:33:50Z</time>
      </trkpt>
      <trkpt lat="45.85507" lon="4.81281">
        <ele>441.139801</ele>
        <time>2016-05-22T07:33:52Z</time>
      </trkpt>
      <trkpt lat="45.85509" lon="4.81283">
        <ele>441.328522</ele>
        <time>2016-05-22T07:33:54Z</time>
      </trkpt>
      <trkpt lat="45.85513" lon="4.81285">
        <ele>441.535339</ele>
        <time>2016-05-22T07:33:56Z</time>
      </trkpt>
      <trkpt lat="45.85517" lon="4.81288">
        <ele>441.531006</ele>
        <time>2016-05-22T07:33:58Z</time>
      </trkpt>
      <trkpt lat="45.85523" lon="4.81294">
        <ele>441.213318</ele>
        <time>2016-05-22T07:34:00Z</time>
      </trkpt>
      <trkpt lat="45.85531" lon="4.81299">
        <ele>441.036713</ele>
        <time>2016-05-22T07:34:02Z</time>
      </trkpt>
      <trkpt lat="45.8554" lon="4.81304">
        <ele>440.322083</ele>
        <time>2016-05-22T07:34:04Z</time>
      </trkpt>
      <trkpt lat="45.85553" lon="4.81312">
        <ele>440.378662</ele>
        <time>2016-05-22T07:34:06Z</time>
      </trkpt>
      <trkpt lat="45.85566" lon="4.81317">
        <ele>440.414795</ele>
        <time>2016-05-22T07:34:08Z</time>
      </trkpt>
      <trkpt lat="45.85578" lon="4.81323">
        <ele>440.203796</ele>
        <time>2016-05-22T07:34:10Z</time>
      </trkpt>
      <trkpt lat="45.85592" lon="4.8133">
        <ele>439.853577</ele>
        <time>2016-05-22T07:34:12Z</time>
      </trkpt>
      <trkpt lat="45.85605" lon="4.81335">
        <ele>439.629486</ele>
        <time>2016-05-22T07:34:14Z</time>
      </trkpt>
      <trkpt lat="45.85615" lon="4.81341">
        <ele>439.425354</ele>
        <time>2016-05-22T07:34:16Z</time>
      </trkpt>
      <trkpt lat="45.85624" lon="4.81345">
        <ele>438.703186</ele>
        <time>2016-05-22T07:34:18Z</time>
      </trkpt>
      <trkpt lat="45.85625" lon="4.81352">
        <ele>437.913513</ele>
        <time>2016-05-22T07:34:20Z</time>
      </trkpt>
      <trkpt lat="45.85623" lon="4.81354">
        <ele>437.408539</ele>
        <time>2016-05-22T07:34:22Z</time>
      </trkpt>
      <trkpt lat="45.85622" lon="4.81355">
        <ele>436.599457</ele>
        <time>2016-05-22T07:34:24Z</time>
      </trkpt>
      <trkpt lat="45.85615" lon="4.81358">
        <ele>435.938141</ele>
        <time>2016-05-22T07:34:26Z</time>
      </trkpt>
      <trkpt lat="45.85606" lon="4.81359">
        <ele>435.490143</ele>
        <time>2016-05-22T07:34:28Z</time>
      </trkpt>
      <trkpt lat="45.85597" lon="4.81359">
        <ele>434.81012</ele>
        <time>2016-05-22T07:34:30Z</time>
      </trkpt>
      <trkpt lat="45.85586" lon="4.81359">
        <ele>433.755676</ele>
        <time>2016-05-22T07:34:32Z</time>
      </trkpt>
      <trkpt lat="45.85576" lon="4.81359">
        <ele>433.165192</ele>
        <time>2016-05-22T07:34:34Z</time>
      </trkpt>
      <trkpt lat="45.85565" lon="4.81359">
        <ele>432.308655</ele>
        <time>2016-05-22T07:34:36Z</time>
      </trkpt>
      <trkpt lat="45.85558" lon="4.81359">
        <ele>431.35376</ele>
        <time>2016-05-22T07:34:38Z</time>
      </trkpt>
      <trkpt lat="45.85556" lon="4.81364">
        <ele>430.938324</ele>
        <time>2016-05-22T07:34:40Z</time>
      </trkpt>
      <trkpt lat="45.85561" lon="4.81369">
        <ele>429.829254</ele>
        <time>2016-05-22T07:34:42Z</time>
      </trkpt>
      <trkpt lat="45.85566" lon="4.81375">
        <ele>428.993713</ele>
        <time>2016-05-22T07:34:44Z</time>
      </trkpt>
      <trkpt lat="45.85573" lon="4.81382">
        <ele>428.135162</ele>
        <time>2016-05-22T07:34:46Z</time>
      </trkpt>
      <trkpt lat="45.85578" lon="4.81386">
        <ele>427.305573</ele>
        <time>2016-05-22T07:34:48Z</time>
      </trkpt>
      <trkpt lat="45.85579" lon="4.81389">
        <ele>426.759827</ele>
        <time>2016-05-22T07:34:50Z</time>
      </trkpt>
      <trkpt lat="45.8558" lon="4.81392">
        <ele>425.416443</ele>
        <time>2016-05-22T07:34:52Z</time>
      </trkpt>
      <trkpt lat="45.8558" lon="4.81397">
        <ele>424.449066</ele>
        <time>2016-05-22T07:34:54Z</time>
      </trkpt>
      <trkpt lat="45.85582" lon="4.81404">
        <ele>423.27774</ele>
        <time>2016-05-22T07:34:56Z</time>
      </trkpt>
      <trkpt lat="45.85584" lon="4.81416">
        <ele>422.123444</ele>
        <time>2016-05-22T07:34:58Z</time>
      </trkpt>
      <trkpt lat="45.85588" lon="4.81428">
        <ele>420.666321</ele>
        <time>2016-05-22T07:35:00Z</time>
      </trkpt>
      <trkpt lat="45.85595" lon="4.81439">
        <ele>419.370117</ele>
        <time>2016-05-22T07:35:02Z</time>
      </trkpt>
      <trkpt lat="45.85601" lon="4.81445">
        <ele>418.301849</ele>
        <time>2016-05-22T07:35:04Z</time>
      </trkpt>
      <trkpt lat="45.85605" lon="4.8145">
        <ele>417.547607</ele>
        <time>2016-05-22T07:35:06Z</time>
      </trkpt>
      <trkpt lat="45.85607" lon="4.81458">
        <ele>416.534088</ele>
        <time>2016-05-22T07:35:08Z</time>
      </trkpt>
      <trkpt lat="45.8561" lon="4.81466">
        <ele>415.229492</ele>
        <time>2016-05-22T07:35:10Z</time>
      </trkpt>
      <trkpt lat="45.85615" lon="4.81474">
        <ele>413.963867</ele>
        <time>2016-05-22T07:35:12Z</time>
      </trkpt>
      <trkpt lat="45.85621" lon="4.81481">
        <ele>412.244537</ele>
        <time>2016-05-22T07:35:14Z</time>
      </trkpt>
      <trkpt lat="45.85628" lon="4.81489">
        <ele>411.124847</ele>
        <time>2016-05-22T07:35:16Z</time>
      </trkpt>
      <trkpt lat="45.85635" lon="4.81496">
        <ele>409.410553</ele>
        <time>2016-05-22T07:35:18Z</time>
      </trkpt>
      <trkpt lat="45.8564" lon="4.81504">
        <ele>407.711761</ele>
        <time>2016-05-22T07:35:20Z</time>
      </trkpt>
      <trkpt lat="45.85644" lon="4.81512">
        <ele>406.919952</ele>
        <time>2016-05-22T07:35:22Z</time>
      </trkpt>
      <trkpt lat="45.85648" lon="4.8152">
        <ele>405.121765</ele>
        <time>2016-05-22T07:35:24Z</time>
      </trkpt>
      <trkpt lat="45.85651" lon="4.81528">
        <ele>403.874451</ele>
        <time>2016-05-22T07:35:26Z</time>
      </trkpt>
      <trkpt lat="45.85656" lon="4.81538">
        <ele>402.38681</ele>
        <time>2016-05-22T07:35:28Z</time>
      </trkpt>
      <trkpt lat="45.85662" lon="4.81547">
        <ele>400.812653</ele>
        <time>2016-05-22T07:35:30Z</time>
      </trkpt>
      <trkpt lat="45.8567" lon="4.81553">
        <ele>399.279205</ele>
        <time>2016-05-22T07:35:32Z</time>
      </trkpt>
      <trkpt lat="45.85681" lon="4.81561">
        <ele>396.944</ele>
        <time>2016-05-22T07:35:34Z</time>
      </trkpt>
      <trkpt lat="45.85691" lon="4.81571">
        <ele>395.864685</ele>
        <time>2016-05-22T07:35:36Z</time>
      </trkpt>
      <trkpt lat="45.85701" lon="4.81581">
        <ele>394.113739</ele>
        <time>2016-05-22T07:35:38Z</time>
      </trkpt>
      <trkpt lat="45.85714" lon="4.81589">
        <ele>392.56485</ele>
        <time>2016-05-22T07:35:40Z</time>
      </trkpt>
      <trkpt lat="45.85726" lon="4.81594">
        <ele>390.592346</ele>
        <time>2016-05-22T07:35:42Z</time>
      </trkpt>
      <trkpt lat="45.85738" lon="4.81598">
        <ele>388.812653</ele>
        <time>2016-05-22T07:35:44Z</time>
      </trkpt>
      <trkpt lat="45.85749" lon="4.81599">
        <ele>387.024384</ele>
        <time>2016-05-22T07:35:46Z</time>
      </trkpt>
      <trkpt lat="45.85761" lon="4.816">
        <ele>385.022156</ele>
        <time>2016-05-22T07:35:48Z</time>
      </trkpt>
      <trkpt lat="45.85771" lon="4.81601">
        <ele>383.956268</ele>
        <time>2016-05-22T07:35:50Z</time>
      </trkpt>
      <trkpt lat="45.8578" lon="4.81601">
        <ele>381.710419</ele>
        <time>2016-05-22T07:35:52Z</time>
      </trkpt>
      <trkpt lat="45.85789" lon="4.816">
        <ele>380.183228</ele>
        <time>2016-05-22T07:35:54Z</time>
      </trkpt>
      <trkpt lat="45.85799" lon="4.81599">
        <ele>377.925262</ele>
        <time>2016-05-22T07:35:56Z</time>
      </trkpt>
      <trkpt lat="45.85807" lon="4.81598">
        <ele>376.211456</ele>
        <time>2016-05-22T07:35:58Z</time>
      </trkpt>
      <trkpt lat="45.85813" lon="4.81593">
        <ele>374.541229</ele>
        <time>2016-05-22T07:36:00Z</time>
      </trkpt>
      <trkpt lat="45.85821" lon="4.8159">
        <ele>372.891296</ele>
        <time>2016-05-22T07:36:02Z</time>
      </trkpt>
      <trkpt lat="45.8583" lon="4.81584">
        <ele>370.709686</ele>
        <time>2016-05-22T07:36:04Z</time>
      </trkpt>
      <trkpt lat="45.85837" lon="4.81579">
        <ele>369.661011</ele>
        <time>2016-05-22T07:36:06Z</time>
      </trkpt>
      <trkpt lat="45.85843" lon="4.81576">
        <ele>368.170837</ele>
        <time>2016-05-22T07:36:08Z</time>
      </trkpt>
      <trkpt lat="45.85849" lon="4.8157">
        <ele>366.364044</ele>
        <time>2016-05-22T07:36:10Z</time>
      </trkpt>
      <trkpt lat="45.85856" lon="4.81565">
        <ele>364.201111</ele>
        <time>2016-05-22T07:36:12Z</time>
      </trkpt>
      <trkpt lat="45.85862" lon="4.81563">
        <ele>363.033844</ele>
        <time>2016-05-22T07:36:14Z</time>
      </trkpt>
      <trkpt lat="45.85873" lon="4.8156">
        <ele>361.391571</ele>
        <time>2016-05-22T07:36:16Z</time>
      </trkpt>
      <trkpt lat="45.85885" lon="4.81557">
        <ele>360.230225</ele>
        <time>2016-05-22T07:36:18Z</time>
      </trkpt>
      <trkpt lat="45.85897" lon="4.81553">
        <ele>358.785126</ele>
        <time>2016-05-22T07:36:20Z</time>
      </trkpt>
      <trkpt lat="45.85908" lon="4.8155">
        <ele>356.636353</ele>
        <time>2016-05-22T07:36:22Z</time>
      </trkpt>
      <trkpt lat="45.85921" lon="4.81546">
        <ele>355.487976</ele>
        <time>2016-05-22T07:36:24Z</time>
      </trkpt>
      <trkpt lat="45.85934" lon="4.81545">
        <ele>353.862122</ele>
        <time>2016-05-22T07:36:26Z</time>
      </trkpt>
      <trkpt lat="45.85946" lon="4.81545">
        <ele>352.860321</ele>
        <time>2016-05-22T07:36:28Z</time>
      </trkpt>
      <trkpt lat="45.85957" lon="4.81549">
        <ele>351.451538</ele>
        <time>2016-05-22T07:36:30Z</time>
      </trkpt>
      <trkpt lat="45.85966" lon="4.81548">
        <ele>350.62738</ele>
        <time>2016-05-22T07:36:32Z</time>
      </trkpt>
      <trkpt lat="45.85973" lon="4.81545">
        <ele>348.82074</ele>
        <time>2016-05-22T07:36:34Z</time>
      </trkpt>
      <trkpt lat="45.85976" lon="4.81544">
        <ele>347.411469</ele>
        <time>2016-05-22T07:36:36Z</time>
      </trkpt>
      <trkpt lat="45.85982" lon="4.81546">
        <ele>345.888672</ele>
        <time>2016-05-22T07:36:38Z</time>
      </trkpt>
      <trkpt lat="45.85988" lon="4.81554">
        <ele>345.016876</ele>
        <time>2016-05-22T07:36:40Z</time>
      </trkpt>
      <trkpt lat="45.85996" lon="4.81563">
        <ele>343.661804</ele>
        <time>2016-05-22T07:36:42Z</time>
      </trkpt>
      <trkpt lat="45.86002" lon="4.81573">
        <ele>342.215393</ele>
        <time>2016-05-22T07:36:44Z</time>
      </trkpt>
      <trkpt lat="45.8601" lon="4.81583">
        <ele>341.199738</ele>
        <time>2016-05-22T07:36:46Z</time>
      </trkpt>
      <trkpt lat="45.86018" lon="4.81595">
        <ele>340.199463</ele>
        <time>2016-05-22T07:36:48Z</time>
      </trkpt>
      <trkpt lat="45.86028" lon="4.81607">
        <ele>338.877625</ele>
        <time>2016-05-22T07:36:50Z</time>
      </trkpt>
      <trkpt lat="45.86038" lon="4.81621">
        <ele>337.7854</ele>
        <time>2016-05-22T07:36:52Z</time>
      </trkpt>
      <trkpt lat="45.86051" lon="4.81636">
        <ele>336.82019</ele>
        <time>2016-05-22T07:36:54Z</time>
      </trkpt>
      <trkpt lat="45.86062" lon="4.81651">
        <ele>336.443146</ele>
        <time>2016-05-22T07:36:56Z</time>
      </trkpt>
      <trkpt lat="45.86071" lon="4.81668">
        <ele>335.516785</ele>
        <time>2016-05-22T07:36:58Z</time>
      </trkpt>
      <trkpt lat="45.8608" lon="4.81683">
        <ele>334.635437</ele>
        <time>2016-05-22T07:37:00Z</time>
      </trkpt>
      <trkpt lat="45.86092" lon="4.81694">
        <ele>333.483948</ele>
        <time>2016-05-22T07:37:02Z</time>
      </trkpt>
      <trkpt lat="45.86102" lon="4.81703">
        <ele>332.611694</ele>
        <time>2016-05-22T07:37:04Z</time>
      </trkpt>
      <trkpt lat="45.86113" lon="4.81712">
        <ele>331.450562</ele>
        <time>2016-05-22T07:37:06Z</time>
      </trkpt>
      <trkpt lat="45.86126" lon="4.81724">
        <ele>330.205872</ele>
        <time>2016-05-22T07:37:08Z</time>
      </trkpt>
      <trkpt lat="45.86139" lon="4.81736">
        <ele>329.055359</ele>
        <time>2016-05-22T07:37:10Z</time>
      </trkpt>
      <trkpt lat="45.86152" lon="4.81751">
        <ele>328.644257</ele>
        <time>2016-05-22T07:37:12Z</time>
      </trkpt>
      <trkpt lat="45.86165" lon="4.81766">
        <ele>328.154114</ele>
        <time>2016-05-22T07:37:14Z</time>
      </trkpt>
      <trkpt lat="45.86178" lon="4.81782">
        <ele>327.403839</ele>
        <time>2016-05-22T07:37:16Z</time>
      </trkpt>
      <trkpt lat="45.86191" lon="4.81798">
        <ele>326.839905</ele>
        <time>2016-05-22T07:37:18Z</time>
      </trkpt>
      <trkpt lat="45.86206" lon="4.81817">
        <ele>325.714874</ele>
        <time>2016-05-22T07:37:20Z</time>
      </trkpt>
      <trkpt lat="45.86219" lon="4.81835">
        <ele>324.61322</ele>
        <time>2016-05-22T07:37:22Z</time>
      </trkpt>
      <trkpt lat="45.86234" lon="4.81852">
        <ele>323.358337</ele>
        <time>2016-05-22T07:37:24Z</time>
      </trkpt>
      <trkpt lat="45.86247" lon="4.81871">
        <ele>322.429016</ele>
        <time>2016-05-22T07:37:26Z</time>
      </trkpt>
      <trkpt lat="45.86255" lon="4.81893">
        <ele>321.468689</ele>
        <time>2016-05-22T07:37:28Z</time>
      </trkpt>
      <trkpt lat="45.86261" lon="4.81916">
        <ele>320.361023</ele>
        <time>2016-05-22T07:37:30Z</time>
      </trkpt>
      <trkpt lat="45.86269" lon="4.81936">
        <ele>319.496643</ele>
        <time>2016-05-22T07:37:32Z</time>
      </trkpt>
      <trkpt lat="45.86281" lon="4.81952">
        <ele>317.693298</ele>
        <time>2016-05-22T07:37:34Z</time>
      </trkpt>
      <trkpt lat="45.86296" lon="4.81961">
        <ele>316.516235</ele>
        <time>2016-05-22T07:37:36Z</time>
      </trkpt>
      <trkpt lat="45.86311" lon="4.81971">
        <ele>315.260071</ele>
        <time>2016-05-22T07:37:38Z</time>
      </trkpt>
      <trkpt lat="45.86328" lon="4.81982">
        <ele>314.378784</ele>
        <time>2016-05-22T07:37:40Z</time>
      </trkpt>
      <trkpt lat="45.86345" lon="4.8199">
        <ele>313.322784</ele>
        <time>2016-05-22T07:37:42Z</time>
      </trkpt>
      <trkpt lat="45.86365" lon="4.81999">
        <ele>312.121582</ele>
        <time>2016-05-22T07:37:44Z</time>
      </trkpt>
      <trkpt lat="45.86384" lon="4.82007">
        <ele>310.965363</ele>
        <time>2016-05-22T07:37:46Z</time>
      </trkpt>
      <trkpt lat="45.86402" lon="4.82014">
        <ele>309.821381</ele>
        <time>2016-05-22T07:37:48Z</time>
      </trkpt>
      <trkpt lat="45.86419" lon="4.82021">
        <ele>308.277496</ele>
        <time>2016-05-22T07:37:50Z</time>
      </trkpt>
      <trkpt lat="45.86438" lon="4.82027">
        <ele>306.571899</ele>
        <time>2016-05-22T07:37:52Z</time>
      </trkpt>
      <trkpt lat="45.86458" lon="4.82034">
        <ele>304.953552</ele>
        <time>2016-05-22T07:37:54Z</time>
      </trkpt>
      <trkpt lat="45.86476" lon="4.82039">
        <ele>303.265594</ele>
        <time>2016-05-22T07:37:56Z</time>
      </trkpt>
      <trkpt lat="45.86491" lon="4.82046">
        <ele>301.286926</ele>
        <time>2016-05-22T07:37:58Z</time>
      </trkpt>
      <trkpt lat="45.86506" lon="4.82052">
        <ele>300.565125</ele>
        <time>2016-05-22T07:38:00Z</time>
      </trkpt>
      <trkpt lat="45.86519" lon="4.8206">
        <ele>299.638611</ele>
        <time>2016-05-22T07:38:02Z</time>
      </trkpt>
      <trkpt lat="45.86531" lon="4.82069">
        <ele>298.50473</ele>
        <time>2016-05-22T07:38:04Z</time>
      </trkpt>
      <trkpt lat="45.86541" lon="4.82077">
        <ele>297.787476</ele>
        <time>2016-05-22T07:38:06Z</time>
      </trkpt>
      <trkpt lat="45.86545" lon="4.82087">
        <ele>296.739349</ele>
        <time>2016-05-22T07:38:08Z</time>
      </trkpt>
      <trkpt lat="45.86544" lon="4.82095">
        <ele>295.652893</ele>
        <time>2016-05-22T07:38:10Z</time>
      </trkpt>
      <trkpt lat="45.86543" lon="4.82102">
        <ele>294.881622</ele>
        <time>2016-05-22T07:38:12Z</time>
      </trkpt>
      <trkpt lat="45.86542" lon="4.82108">
        <ele>293.966431</ele>
        <time>2016-05-22T07:38:14Z</time>
      </trkpt>
      <trkpt lat="45.8654" lon="4.82113">
        <ele>294.033264</ele>
        <time>2016-05-22T07:38:16Z</time>
      </trkpt>
      <trkpt lat="45.86536" lon="4.82116">
        <ele>293.701477</ele>
        <time>2016-05-22T07:38:18Z</time>
      </trkpt>
      <trkpt lat="45.86532" lon="4.82117">
        <ele>293.343964</ele>
        <time>2016-05-22T07:38:20Z</time>
      </trkpt>
      <trkpt lat="45.86529" lon="4.82117">
        <ele>293.319366</ele>
        <time>2016-05-22T07:38:22Z</time>
      </trkpt>
      <trkpt lat="45.86526" lon="4.82118">
        <ele>292.829834</ele>
        <time>2016-05-22T07:38:24Z</time>
      </trkpt>
      <trkpt lat="45.86522" lon="4.82118">
        <ele>292.532745</ele>
        <time>2016-05-22T07:38:26Z</time>
      </trkpt>
      <trkpt lat="45.86519" lon="4.82119">
        <ele>292.534882</ele>
        <time>2016-05-22T07:38:28Z</time>
      </trkpt>
      <trkpt lat="45.86515" lon="4.82119">
        <ele>292.552673</ele>
        <time>2016-05-22T07:38:30Z</time>
      </trkpt>
      <trkpt lat="45.86511" lon="4.82119">
        <ele>293.462097</ele>
        <time>2016-05-22T07:38:32Z</time>
      </trkpt>
      <trkpt lat="45.86506" lon="4.82119">
        <ele>293.972473</ele>
        <time>2016-05-22T07:38:34Z</time>
      </trkpt>
      <trkpt lat="45.86502" lon="4.82119">
        <ele>294.332947</ele>
        <time>2016-05-22T07:38:36Z</time>
      </trkpt>
      <trkpt lat="45.86498" lon="4.82118">
        <ele>294.657654</ele>
        <time>2016-05-22T07:38:38Z</time>
      </trkpt>
      <trkpt lat="45.86494" lon="4.82118">
        <ele>295.181274</ele>
        <time>2016-05-22T07:38:40Z</time>
      </trkpt>
      <trkpt lat="45.8649" lon="4.82119">
        <ele>296.358368</ele>
        <time>2016-05-22T07:38:42Z</time>
      </trkpt>
      <trkpt lat="45.86486" lon="4.8212">
        <ele>296.794525</ele>
        <time>2016-05-22T07:38:44Z</time>
      </trkpt>
      <trkpt lat="45.86482" lon="4.82121">
        <ele>297.419098</ele>
        <time>2016-05-22T07:38:46Z</time>
      </trkpt>
      <trkpt lat="45.86477" lon="4.82122">
        <ele>297.814056</ele>
        <time>2016-05-22T07:38:48Z</time>
      </trkpt>
      <trkpt lat="45.86474" lon="4.82123">
        <ele>298.344208</ele>
        <time>2016-05-22T07:38:50Z</time>
      </trkpt>
      <trkpt lat="45.86469" lon="4.82124">
        <ele>298.739166</ele>
        <time>2016-05-22T07:38:52Z</time>
      </trkpt>
      <trkpt lat="45.86465" lon="4.82124">
        <ele>298.89801</ele>
        <time>2016-05-22T07:38:54Z</time>
      </trkpt>
      <trkpt lat="45.86461" lon="4.82126">
        <ele>299.264069</ele>
        <time>2016-05-22T07:38:56Z</time>
      </trkpt>
      <trkpt lat="45.86456" lon="4.82126">
        <ele>299.626892</ele>
        <time>2016-05-22T07:38:58Z</time>
      </trkpt>
      <trkpt lat="45.86452" lon="4.82127">
        <ele>300.12677</ele>
        <time>2016-05-22T07:39:00Z</time>
      </trkpt>
      <trkpt lat="45.86448" lon="4.82128">
        <ele>300.457397</ele>
        <time>2016-05-22T07:39:02Z</time>
      </trkpt>
      <trkpt lat="45.86444" lon="4.82128">
        <ele>300.896423</ele>
        <time>2016-05-22T07:39:04Z</time>
      </trkpt>
      <trkpt lat="45.8644" lon="4.82129">
        <ele>301.38385</ele>
        <time>2016-05-22T07:39:06Z</time>
      </trkpt>
      <trkpt lat="45.86437" lon="4.82129">
        <ele>301.798279</ele>
        <time>2016-05-22T07:39:08Z</time>
      </trkpt>
      <trkpt lat="45.86433" lon="4.8213">
        <ele>302.171936</ele>
        <time>2016-05-22T07:39:10Z</time>
      </trkpt>
      <trkpt lat="45.86429" lon="4.8213">
        <ele>302.47113</ele>
        <time>2016-05-22T07:39:12Z</time>
      </trkpt>
      <trkpt lat="45.86425" lon="4.8213">
        <ele>302.803284</ele>
        <time>2016-05-22T07:39:14Z</time>
      </trkpt>
      <trkpt lat="45.86421" lon="4.82131">
        <ele>303.26535</ele>
        <time>2016-05-22T07:39:16Z</time>
      </trkpt>
      <trkpt lat="45.86418" lon="4.82131">
        <ele>303.625519</ele>
        <time>2016-05-22T07:39:18Z</time>
      </trkpt>
      <trkpt lat="45.86415" lon="4.82131">
        <ele>304.060913</ele>
        <time>2016-05-22T07:39:20Z</time>
      </trkpt>
      <trkpt lat="45.86411" lon="4.8213">
        <ele>304.441101</ele>
        <time>2016-05-22T07:39:22Z</time>
      </trkpt>
      <trkpt lat="45.86408" lon="4.82129">
        <ele>304.829987</ele>
        <time>2016-05-22T07:39:24Z</time>
      </trkpt>
      <trkpt lat="45.86404" lon="4.82129">
        <ele>305.298676</ele>
        <time>2016-05-22T07:39:26Z</time>
      </trkpt>
      <trkpt lat="45.86402" lon="4.82131">
        <ele>305.687531</ele>
        <time>2016-05-22T07:39:28Z</time>
      </trkpt>
      <trkpt lat="45.864" lon="4.82133">
        <ele>306.094543</ele>
        <time>2016-05-22T07:39:30Z</time>
      </trkpt>
      <trkpt lat="45.86396" lon="4.82134">
        <ele>306.571472</ele>
        <time>2016-05-22T07:39:32Z</time>
      </trkpt>
      <trkpt lat="45.86394" lon="4.82136">
        <ele>306.837891</ele>
        <time>2016-05-22T07:39:34Z</time>
      </trkpt>
      <trkpt lat="45.86391" lon="4.82137">
        <ele>307.351471</ele>
        <time>2016-05-22T07:39:36Z</time>
      </trkpt>
      <trkpt lat="45.86389" lon="4.82139">
        <ele>307.84671</ele>
        <time>2016-05-22T07:39:38Z</time>
      </trkpt>
      <trkpt lat="45.86387" lon="4.8214">
        <ele>308.392487</ele>
        <time>2016-05-22T07:39:40Z</time>
      </trkpt>
      <trkpt lat="45.86384" lon="4.82142">
        <ele>308.884583</ele>
        <time>2016-05-22T07:39:42Z</time>
      </trkpt>
      <trkpt lat="45.86382" lon="4.82144">
        <ele>309.194031</ele>
        <time>2016-05-22T07:39:44Z</time>
      </trkpt>
      <trkpt lat="45.86381" lon="4.82146">
        <ele>309.62674</ele>
        <time>2016-05-22T07:39:46Z</time>
      </trkpt>
      <trkpt lat="45.8638" lon="4.82148">
        <ele>310.114594</ele>
        <time>2016-05-22T07:39:48Z</time>
      </trkpt>
      <trkpt lat="45.86378" lon="4.8215">
        <ele>310.664856</ele>
        <time>2016-05-22T07:39:50Z</time>
      </trkpt>
      <trkpt lat="45.86377" lon="4.82152">
        <ele>310.896973</ele>
        <time>2016-05-22T07:39:52Z</time>
      </trkpt>
      <trkpt lat="45.86375" lon="4.82154">
        <ele>311.3703</ele>
        <time>2016-05-22T07:39:54Z</time>
      </trkpt>
      <trkpt lat="45.86374" lon="4.82157">
        <ele>311.892731</ele>
        <time>2016-05-22T07:39:56Z</time>
      </trkpt>
      <trkpt lat="45.86373" lon="4.8216">
        <ele>312.394257</ele>
        <time>2016-05-22T07:39:58Z</time>
      </trkpt>
      <trkpt lat="45.86372" lon="4.82163">
        <ele>312.357697</ele>
        <time>2016-05-22T07:40:00Z</time>
      </trkpt>
      <trkpt lat="45.86371" lon="4.82166">
        <ele>312.835144</ele>
        <time>2016-05-22T07:40:02Z</time>
      </trkpt>
      <trkpt lat="45.86369" lon="4.82169">
        <ele>313.279358</ele>
        <time>2016-05-22T07:40:04Z</time>
      </trkpt>
      <trkpt lat="45.86368" lon="4.82173">
        <ele>313.791016</ele>
        <time>2016-05-22T07:40:06Z</time>
      </trkpt>
      <trkpt lat="45.86367" lon="4.82176">
        <ele>314.014587</ele>
        <time>2016-05-22T07:40:08Z</time>
      </trkpt>
      <trkpt lat="45.86366" lon="4.82178">
        <ele>314.470978</ele>
        <time>2016-05-22T07:40:10Z</time>
      </trkpt>
      <trkpt lat="45.86364" lon="4.8218">
        <ele>314.93454</ele>
        <time>2016-05-22T07:40:12Z</time>
      </trkpt>
      <trkpt lat="45.86362" lon="4.82182">
        <ele>315.445313</ele>
        <time>2016-05-22T07:40:14Z</time>
      </trkpt>
      <trkpt lat="45.86359" lon="4.82183">
        <ele>315.899017</ele>
        <time>2016-05-22T07:40:16Z</time>
      </trkpt>
      <trkpt lat="45.86356" lon="4.82183">
        <ele>316.385071</ele>
        <time>2016-05-22T07:40:18Z</time>
      </trkpt>
      <trkpt lat="45.86354" lon="4.82183">
        <ele>316.879517</ele>
        <time>2016-05-22T07:40:20Z</time>
      </trkpt>
      <trkpt lat="45.86351" lon="4.82183">
        <ele>317.131165</ele>
        <time>2016-05-22T07:40:22Z</time>
      </trkpt>
      <trkpt lat="45.8635" lon="4.82182">
        <ele>317.561707</ele>
        <time>2016-05-22T07:40:24Z</time>
      </trkpt>
      <trkpt lat="45.86348" lon="4.82179">
        <ele>317.979797</ele>
        <time>2016-05-22T07:40:26Z</time>
      </trkpt>
      <trkpt lat="45.86346" lon="4.82178">
        <ele>318.422424</ele>
        <time>2016-05-22T07:40:28Z</time>
      </trkpt>
      <trkpt lat="45.86345" lon="4.82176">
        <ele>318.935699</ele>
        <time>2016-05-22T07:40:30Z</time>
      </trkpt>
      <trkpt lat="45.86343" lon="4.82173">
        <ele>319.307831</ele>
        <time>2016-05-22T07:40:32Z</time>
      </trkpt>
      <trkpt lat="45.86343" lon="4.82171">
        <ele>319.652039</ele>
        <time>2016-05-22T07:40:34Z</time>
      </trkpt>
      <trkpt lat="45.86342" lon="4.82168">
        <ele>320.163605</ele>
        <time>2016-05-22T07:40:36Z</time>
      </trkpt>
      <trkpt lat="45.8634" lon="4.82166">
        <ele>320.389465</ele>
        <time>2016-05-22T07:40:38Z</time>
      </trkpt>
      <trkpt lat="45.86339" lon="4.82164">
        <ele>320.810242</ele>
        <time>2016-05-22T07:40:40Z</time>
      </trkpt>
      <trkpt lat="45.86338" lon="4.82161">
        <ele>321.227997</ele>
        <time>2016-05-22T07:40:42Z</time>
      </trkpt>
      <trkpt lat="45.86337" lon="4.82158">
        <ele>321.719025</ele>
        <time>2016-05-22T07:40:44Z</time>
      </trkpt>
      <trkpt lat="45.86334" lon="4.82156">
        <ele>322.225464</ele>
        <time>2016-05-22T07:40:46Z</time>
      </trkpt>
      <trkpt lat="45.86332" lon="4.82154">
        <ele>322.397644</ele>
        <time>2016-05-22T07:40:48Z</time>
      </trkpt>
      <trkpt lat="45.86331" lon="4.8215">
        <ele>322.836609</ele>
        <time>2016-05-22T07:40:50Z</time>
      </trkpt>
      <trkpt lat="45.8633" lon="4.82145">
        <ele>323.331268</ele>
        <time>2016-05-22T07:40:52Z</time>
      </trkpt>
      <trkpt lat="45.86329" lon="4.82143">
        <ele>323.747406</ele>
        <time>2016-05-22T07:40:54Z</time>
      </trkpt>
      <trkpt lat="45.86327" lon="4.8214">
        <ele>324.098175</ele>
        <time>2016-05-22T07:40:56Z</time>
      </trkpt>
      <trkpt lat="45.86326" lon="4.82138">
        <ele>324.270325</ele>
        <time>2016-05-22T07:40:58Z</time>
      </trkpt>
      <trkpt lat="45.86326" lon="4.82135">
        <ele>324.649841</ele>
        <time>2016-05-22T07:41:00Z</time>
      </trkpt>
      <trkpt lat="45.86325" lon="4.82133">
        <ele>324.998535</ele>
        <time>2016-05-22T07:41:02Z</time>
      </trkpt>
      <trkpt lat="45.86323" lon="4.8213">
        <ele>325.424683</ele>
        <time>2016-05-22T07:41:04Z</time>
      </trkpt>
      <trkpt lat="45.86321" lon="4.82127">
        <ele>325.805206</ele>
        <time>2016-05-22T07:41:06Z</time>
      </trkpt>
      <trkpt lat="45.86319" lon="4.82125">
        <ele>326.161682</ele>
        <time>2016-05-22T07:41:08Z</time>
      </trkpt>
      <trkpt lat="45.86318" lon="4.82122">
        <ele>326.314514</ele>
        <time>2016-05-22T07:41:10Z</time>
      </trkpt>
      <trkpt lat="45.86316" lon="4.8212">
        <ele>326.701111</ele>
        <time>2016-05-22T07:41:12Z</time>
      </trkpt>
      <trkpt lat="45.86314" lon="4.82117">
        <ele>327.039032</ele>
        <time>2016-05-22T07:41:14Z</time>
      </trkpt>
      <trkpt lat="45.86312" lon="4.82114">
        <ele>327.458801</ele>
        <time>2016-05-22T07:41:16Z</time>
      </trkpt>
      <trkpt lat="45.86309" lon="4.82111">
        <ele>327.803253</ele>
        <time>2016-05-22T07:41:18Z</time>
      </trkpt>
      <trkpt lat="45.86306" lon="4.82109">
        <ele>328.134827</ele>
        <time>2016-05-22T07:41:20Z</time>
      </trkpt>
      <trkpt lat="45.86304" lon="4.82107">
        <ele>328.460907</ele>
        <time>2016-05-22T07:41:22Z</time>
      </trkpt>
      <trkpt lat="45.86301" lon="4.82105">
        <ele>328.854492</ele>
        <time>2016-05-22T07:41:24Z</time>
      </trkpt>
      <trkpt lat="45.86298" lon="4.82103">
        <ele>329.056885</ele>
        <time>2016-05-22T07:41:26Z</time>
      </trkpt>
      <trkpt lat="45.86295" lon="4.82101">
        <ele>329.301208</ele>
        <time>2016-05-22T07:41:28Z</time>
      </trkpt>
      <trkpt lat="45.86292" lon="4.82099">
        <ele>329.81012</ele>
        <time>2016-05-22T07:41:30Z</time>
      </trkpt>
      <trkpt lat="45.8629" lon="4.82097">
        <ele>330.240784</ele>
        <time>2016-05-22T07:41:32Z</time>
      </trkpt>
      <trkpt lat="45.86287" lon="4.82095">
        <ele>330.471191</ele>
        <time>2016-05-22T07:41:34Z</time>
      </trkpt>
      <trkpt lat="45.86284" lon="4.82093">
        <ele>330.835815</ele>
        <time>2016-05-22T07:41:36Z</time>
      </trkpt>
      <trkpt lat="45.86281" lon="4.82091">
        <ele>331.150208</ele>
        <time>2016-05-22T07:41:38Z</time>
      </trkpt>
      <trkpt lat="45.86278" lon="4.82088">
        <ele>331.57016</ele>
        <time>2016-05-22T07:41:40Z</time>
      </trkpt>
      <trkpt lat="45.86276" lon="4.82086">
        <ele>331.982971</ele>
        <time>2016-05-22T07:41:42Z</time>
      </trkpt>
      <trkpt lat="45.86272" lon="4.82084">
        <ele>332.315247</ele>
        <time>2016-05-22T07:41:44Z</time>
      </trkpt>
      <trkpt lat="45.8627" lon="4.82082">
        <ele>332.683563</ele>
        <time>2016-05-22T07:41:46Z</time>
      </trkpt>
      <trkpt lat="45.86267" lon="4.8208">
        <ele>332.84079</ele>
        <time>2016-05-22T07:41:48Z</time>
      </trkpt>
      <trkpt lat="45.86264" lon="4.82078">
        <ele>333.043945</ele>
        <time>2016-05-22T07:41:50Z</time>
      </trkpt>
      <trkpt lat="45.86262" lon="4.82076">
        <ele>333.438171</ele>
        <time>2016-05-22T07:41:52Z</time>
      </trkpt>
      <trkpt lat="45.86259" lon="4.82073">
        <ele>333.883331</ele>
        <time>2016-05-22T07:41:54Z</time>
      </trkpt>
      <trkpt lat="45.86256" lon="4.82071">
        <ele>334.315247</ele>
        <time>2016-05-22T07:41:56Z</time>
      </trkpt>
      <trkpt lat="45.86253" lon="4.82069">
        <ele>334.782745</ele>
        <time>2016-05-22T07:41:58Z</time>
      </trkpt>
      <trkpt lat="45.8625" lon="4.82067">
        <ele>335.189911</ele>
        <time>2016-05-22T07:42:00Z</time>
      </trkpt>
      <trkpt lat="45.86247" lon="4.82065">
        <ele>335.493683</ele>
        <time>2016-05-22T07:42:02Z</time>
      </trkpt>
      <trkpt lat="45.86244" lon="4.82062">
        <ele>335.805023</ele>
        <time>2016-05-22T07:42:04Z</time>
      </trkpt>
      <trkpt lat="45.86241" lon="4.8206">
        <ele>336.182495</ele>
        <time>2016-05-22T07:42:06Z</time>
      </trkpt>
      <trkpt lat="45.86237" lon="4.82058">
        <ele>336.275146</ele>
        <time>2016-05-22T07:42:08Z</time>
      </trkpt>
      <trkpt lat="45.86235" lon="4.82056">
        <ele>336.622192</ele>
        <time>2016-05-22T07:42:10Z</time>
      </trkpt>
      <trkpt lat="45.86231" lon="4.82053">
        <ele>337.047913</ele>
        <time>2016-05-22T07:42:12Z</time>
      </trkpt>
      <trkpt lat="45.86228" lon="4.82051">
        <ele>337.36972</ele>
        <time>2016-05-22T07:42:14Z</time>
      </trkpt>
      <trkpt lat="45.86225" lon="4.82049">
        <ele>337.871826</ele>
        <time>2016-05-22T07:42:16Z</time>
      </trkpt>
      <trkpt lat="45.86221" lon="4.82047">
        <ele>338.359863</ele>
        <time>2016-05-22T07:42:18Z</time>
      </trkpt>
      <trkpt lat="45.86218" lon="4.82045">
        <ele>338.877106</ele>
        <time>2016-05-22T07:42:20Z</time>
      </trkpt>
      <trkpt lat="45.86214" lon="4.82043">
        <ele>339.269379</ele>
        <time>2016-05-22T07:42:22Z</time>
      </trkpt>
      <trkpt lat="45.86211" lon="4.82041">
        <ele>339.665985</ele>
        <time>2016-05-22T07:42:24Z</time>
      </trkpt>
      <trkpt lat="45.86208" lon="4.82039">
        <ele>339.934753</ele>
        <time>2016-05-22T07:42:26Z</time>
      </trkpt>
      <trkpt lat="45.86205" lon="4.82037">
        <ele>340.378845</ele>
        <time>2016-05-22T07:42:28Z</time>
      </trkpt>
      <trkpt lat="45.86202" lon="4.82035">
        <ele>340.815735</ele>
        <time>2016-05-22T07:42:30Z</time>
      </trkpt>
      <trkpt lat="45.86199" lon="4.82032">
        <ele>341.318909</ele>
        <time>2016-05-22T07:42:32Z</time>
      </trkpt>
      <trkpt lat="45.86195" lon="4.8203">
        <ele>341.602966</ele>
        <time>2016-05-22T07:42:34Z</time>
      </trkpt>
      <trkpt lat="45.86192" lon="4.82028">
        <ele>341.911194</ele>
        <time>2016-05-22T07:42:36Z</time>
      </trkpt>
      <trkpt lat="45.86189" lon="4.82026">
        <ele>342.093414</ele>
        <time>2016-05-22T07:42:38Z</time>
      </trkpt>
      <trkpt lat="45.86186" lon="4.82023">
        <ele>342.325256</ele>
        <time>2016-05-22T07:42:40Z</time>
      </trkpt>
      <trkpt lat="45.86183" lon="4.82021">
        <ele>342.632629</ele>
        <time>2016-05-22T07:42:42Z</time>
      </trkpt>
      <trkpt lat="45.86181" lon="4.82017">
        <ele>343.046539</ele>
        <time>2016-05-22T07:42:44Z</time>
      </trkpt>
      <trkpt lat="45.86179" lon="4.82014">
        <ele>343.512146</ele>
        <time>2016-05-22T07:42:46Z</time>
      </trkpt>
      <trkpt lat="45.86177" lon="4.82011">
        <ele>343.828674</ele>
        <time>2016-05-22T07:42:48Z</time>
      </trkpt>
      <trkpt lat="45.86175" lon="4.82008">
        <ele>344.240295</ele>
        <time>2016-05-22T07:42:50Z</time>
      </trkpt>
      <trkpt lat="45.86174" lon="4.82004">
        <ele>344.580994</ele>
        <time>2016-05-22T07:42:52Z</time>
      </trkpt>
      <trkpt lat="45.86173" lon="4.82">
        <ele>344.738373</ele>
        <time>2016-05-22T07:42:54Z</time>
      </trkpt>
      <trkpt lat="45.86171" lon="4.81996">
        <ele>345.014618</ele>
        <time>2016-05-22T07:42:56Z</time>
      </trkpt>
      <trkpt lat="45.8617" lon="4.81992">
        <ele>345.286346</ele>
        <time>2016-05-22T07:42:58Z</time>
      </trkpt>
      <trkpt lat="45.86169" lon="4.81989">
        <ele>345.550934</ele>
        <time>2016-05-22T07:43:00Z</time>
      </trkpt>
      <trkpt lat="45.86167" lon="4.81984">
        <ele>345.859375</ele>
        <time>2016-05-22T07:43:02Z</time>
      </trkpt>
      <trkpt lat="45.86166" lon="4.8198">
        <ele>346.169983</ele>
        <time>2016-05-22T07:43:04Z</time>
      </trkpt>
      <trkpt lat="45.86165" lon="4.81976">
        <ele>346.491364</ele>
        <time>2016-05-22T07:43:06Z</time>
      </trkpt>
      <trkpt lat="45.86164" lon="4.81973">
        <ele>346.936188</ele>
        <time>2016-05-22T07:43:08Z</time>
      </trkpt>
      <trkpt lat="45.86163" lon="4.81969">
        <ele>347.162659</ele>
        <time>2016-05-22T07:43:10Z</time>
      </trkpt>
      <trkpt lat="45.86161" lon="4.81965">
        <ele>347.352478</ele>
        <time>2016-05-22T07:43:12Z</time>
      </trkpt>
      <trkpt lat="45.8616" lon="4.81962">
        <ele>347.586121</ele>
        <time>2016-05-22T07:43:14Z</time>
      </trkpt>
      <trkpt lat="45.86158" lon="4.81958">
        <ele>347.998657</ele>
        <time>2016-05-22T07:43:16Z</time>
      </trkpt>
      <trkpt lat="45.86157" lon="4.81955">
        <ele>348.438751</ele>
        <time>2016-05-22T07:43:18Z</time>
      </trkpt>
      <trkpt lat="45.86155" lon="4.81951">
        <ele>348.83783</ele>
        <time>2016-05-22T07:43:20Z</time>
      </trkpt>
      <trkpt lat="45.86153" lon="4.81948">
        <ele>349.231476</ele>
        <time>2016-05-22T07:43:22Z</time>
      </trkpt>
      <trkpt lat="45.86151" lon="4.81945">
        <ele>349.540955</ele>
        <time>2016-05-22T07:43:24Z</time>
      </trkpt>
      <trkpt lat="45.86149" lon="4.81942">
        <ele>349.897766</ele>
        <time>2016-05-22T07:43:26Z</time>
      </trkpt>
      <trkpt lat="45.86146" lon="4.8194">
        <ele>350.290466</ele>
        <time>2016-05-22T07:43:28Z</time>
      </trkpt>
      <trkpt lat="45.86144" lon="4.81938">
        <ele>350.717651</ele>
        <time>2016-05-22T07:43:30Z</time>
      </trkpt>
      <trkpt lat="45.86141" lon="4.81936">
        <ele>351.223724</ele>
        <time>2016-05-22T07:43:32Z</time>
      </trkpt>
      <trkpt lat="45.86139" lon="4.81934">
        <ele>351.413605</ele>
        <time>2016-05-22T07:43:34Z</time>
      </trkpt>
      <trkpt lat="45.86137" lon="4.81931">
        <ele>351.937927</ele>
        <time>2016-05-22T07:43:36Z</time>
      </trkpt>
      <trkpt lat="45.86135" lon="4.81929">
        <ele>352.558502</ele>
        <time>2016-05-22T07:43:38Z</time>
      </trkpt>
      <trkpt lat="45.86132" lon="4.81928">
        <ele>353.085052</ele>
        <time>2016-05-22T07:43:40Z</time>
      </trkpt>
      <trkpt lat="45.8613" lon="4.81926">
        <ele>353.67865</ele>
        <time>2016-05-22T07:43:42Z</time>
      </trkpt>
      <trkpt lat="45.86128" lon="4.81925">
        <ele>354.290192</ele>
        <time>2016-05-22T07:43:44Z</time>
      </trkpt>
      <trkpt lat="45.86125" lon="4.81923">
        <ele>354.890228</ele>
        <time>2016-05-22T07:43:46Z</time>
      </trkpt>
      <trkpt lat="45.86123" lon="4.81922">
        <ele>355.101807</ele>
        <time>2016-05-22T07:43:48Z</time>
      </trkpt>
      <trkpt lat="45.8612" lon="4.8192">
        <ele>355.563721</ele>
        <time>2016-05-22T07:43:50Z</time>
      </trkpt>
      <trkpt lat="45.86118" lon="4.81918">
        <ele>356.161072</ele>
        <time>2016-05-22T07:43:52Z</time>
      </trkpt>
      <trkpt lat="45.86116" lon="4.81917">
        <ele>356.739594</ele>
        <time>2016-05-22T07:43:54Z</time>
      </trkpt>
      <trkpt lat="45.86113" lon="4.81916">
        <ele>357.277588</ele>
        <time>2016-05-22T07:43:56Z</time>
      </trkpt>
      <trkpt lat="45.86111" lon="4.81915">
        <ele>357.906555</ele>
        <time>2016-05-22T07:43:58Z</time>
      </trkpt>
      <trkpt lat="45.86108" lon="4.81912">
        <ele>358.442047</ele>
        <time>2016-05-22T07:44:00Z</time>
      </trkpt>
      <trkpt lat="45.86106" lon="4.81911">
        <ele>358.638855</ele>
        <time>2016-05-22T07:44:02Z</time>
      </trkpt>
      <trkpt lat="45.86103" lon="4.81909">
        <ele>359.127625</ele>
        <time>2016-05-22T07:44:04Z</time>
      </trkpt>
      <trkpt lat="45.86101" lon="4.81908">
        <ele>359.684753</ele>
        <time>2016-05-22T07:44:06Z</time>
      </trkpt>
      <trkpt lat="45.86098" lon="4.81906">
        <ele>360.158997</ele>
        <time>2016-05-22T07:44:08Z</time>
      </trkpt>
      <trkpt lat="45.86096" lon="4.81904">
        <ele>360.383606</ele>
        <time>2016-05-22T07:44:10Z</time>
      </trkpt>
      <trkpt lat="45.86093" lon="4.81903">
        <ele>360.872009</ele>
        <time>2016-05-22T07:44:12Z</time>
      </trkpt>
      <trkpt lat="45.86091" lon="4.81901">
        <ele>361.379486</ele>
        <time>2016-05-22T07:44:14Z</time>
      </trkpt>
      <trkpt lat="45.86088" lon="4.81899">
        <ele>361.649475</ele>
        <time>2016-05-22T07:44:16Z</time>
      </trkpt>
      <trkpt lat="45.86086" lon="4.81897">
        <ele>362.114441</ele>
        <time>2016-05-22T07:44:18Z</time>
      </trkpt>
      <trkpt lat="45.86083" lon="4.81896">
        <ele>362.587555</ele>
        <time>2016-05-22T07:44:20Z</time>
      </trkpt>
      <trkpt lat="45.86081" lon="4.81895">
        <ele>363.088776</ele>
        <time>2016-05-22T07:44:22Z</time>
      </trkpt>
      <trkpt lat="45.86078" lon="4.81893">
        <ele>363.487488</ele>
        <time>2016-05-22T07:44:24Z</time>
      </trkpt>
      <trkpt lat="45.86076" lon="4.81892">
        <ele>363.88504</ele>
        <time>2016-05-22T07:44:26Z</time>
      </trkpt>
      <trkpt lat="45.86073" lon="4.8189">
        <ele>364.070862</ele>
        <time>2016-05-22T07:44:28Z</time>
      </trkpt>
      <trkpt lat="45.8607" lon="4.81889">
        <ele>364.420135</ele>
        <time>2016-05-22T07:44:30Z</time>
      </trkpt>
      <trkpt lat="45.86068" lon="4.81887">
        <ele>364.733398</ele>
        <time>2016-05-22T07:44:32Z</time>
      </trkpt>
      <trkpt lat="45.86065" lon="4.81885">
        <ele>365.178497</ele>
        <time>2016-05-22T07:44:34Z</time>
      </trkpt>
      <trkpt lat="45.86062" lon="4.81884">
        <ele>365.578217</ele>
        <time>2016-05-22T07:44:36Z</time>
      </trkpt>
      <trkpt lat="45.8606" lon="4.81882">
        <ele>365.772705</ele>
        <time>2016-05-22T07:44:38Z</time>
      </trkpt>
      <trkpt lat="45.86057" lon="4.8188">
        <ele>366.153992</ele>
        <time>2016-05-22T07:44:40Z</time>
      </trkpt>
      <trkpt lat="45.86054" lon="4.81879">
        <ele>366.658875</ele>
        <time>2016-05-22T07:44:42Z</time>
      </trkpt>
      <trkpt lat="45.86052" lon="4.81878">
        <ele>367.119232</ele>
        <time>2016-05-22T07:44:44Z</time>
      </trkpt>
      <trkpt lat="45.86049" lon="4.81878">
        <ele>367.585724</ele>
        <time>2016-05-22T07:44:46Z</time>
      </trkpt>
      <trkpt lat="45.86046" lon="4.81877">
        <ele>368.086304</ele>
        <time>2016-05-22T07:44:48Z</time>
      </trkpt>
      <trkpt lat="45.86044" lon="4.81875">
        <ele>368.546692</ele>
        <time>2016-05-22T07:44:50Z</time>
      </trkpt>
      <trkpt lat="45.86041" lon="4.81874">
        <ele>368.987244</ele>
        <time>2016-05-22T07:44:52Z</time>
      </trkpt>
      <trkpt lat="45.86038" lon="4.81872">
        <ele>369.499084</ele>
        <time>2016-05-22T07:44:54Z</time>
      </trkpt>
      <trkpt lat="45.86035" lon="4.81871">
        <ele>369.730377</ele>
        <time>2016-05-22T07:44:56Z</time>
      </trkpt>
      <trkpt lat="45.86033" lon="4.81869">
        <ele>370.181488</ele>
        <time>2016-05-22T07:44:58Z</time>
      </trkpt>
      <trkpt lat="45.86029" lon="4.81868">
        <ele>370.649963</ele>
        <time>2016-05-22T07:45:00Z</time>
      </trkpt>
      <trkpt lat="45.86027" lon="4.81866">
        <ele>371.058533</ele>
        <time>2016-05-22T07:45:02Z</time>
      </trkpt>
      <trkpt lat="45.86024" lon="4.81864">
        <ele>371.434692</ele>
        <time>2016-05-22T07:45:04Z</time>
      </trkpt>
      <trkpt lat="45.86021" lon="4.81862">
        <ele>371.816223</ele>
        <time>2016-05-22T07:45:06Z</time>
      </trkpt>
      <trkpt lat="45.86017" lon="4.8186">
        <ele>372.191101</ele>
        <time>2016-05-22T07:45:08Z</time>
      </trkpt>
      <trkpt lat="45.86014" lon="4.81858">
        <ele>372.407288</ele>
        <time>2016-05-22T07:45:10Z</time>
      </trkpt>
      <trkpt lat="45.86012" lon="4.81857">
        <ele>372.852844</ele>
        <time>2016-05-22T07:45:12Z</time>
      </trkpt>
      <trkpt lat="45.86009" lon="4.81855">
        <ele>373.252411</ele>
        <time>2016-05-22T07:45:14Z</time>
      </trkpt>
      <trkpt lat="45.86005" lon="4.81853">
        <ele>373.704315</ele>
        <time>2016-05-22T07:45:16Z</time>
      </trkpt>
      <trkpt lat="45.86003" lon="4.81852">
        <ele>374.128143</ele>
        <time>2016-05-22T07:45:18Z</time>
      </trkpt>
      <trkpt lat="45.86" lon="4.8185">
        <ele>374.480591</ele>
        <time>2016-05-22T07:45:20Z</time>
      </trkpt>
      <trkpt lat="45.85997" lon="4.81848">
        <ele>374.922913</ele>
        <time>2016-05-22T07:45:22Z</time>
      </trkpt>
      <trkpt lat="45.85994" lon="4.81847">
        <ele>375.277618</ele>
        <time>2016-05-22T07:45:24Z</time>
      </trkpt>
      <trkpt lat="45.85991" lon="4.81845">
        <ele>375.487427</ele>
        <time>2016-05-22T07:45:26Z</time>
      </trkpt>
      <trkpt lat="45.85988" lon="4.81843">
        <ele>375.684265</ele>
        <time>2016-05-22T07:45:28Z</time>
      </trkpt>
      <trkpt lat="45.85985" lon="4.81842">
        <ele>375.992798</ele>
        <time>2016-05-22T07:45:30Z</time>
      </trkpt>
      <trkpt lat="45.85983" lon="4.81841">
        <ele>376.259491</ele>
        <time>2016-05-22T07:45:32Z</time>
      </trkpt>
      <trkpt lat="45.8598" lon="4.81839">
        <ele>376.601288</ele>
        <time>2016-05-22T07:45:34Z</time>
      </trkpt>
      <trkpt lat="45.85977" lon="4.81837">
        <ele>376.879974</ele>
        <time>2016-05-22T07:45:36Z</time>
      </trkpt>
      <trkpt lat="45.85974" lon="4.81834">
        <ele>377.10614</ele>
        <time>2016-05-22T07:45:38Z</time>
      </trkpt>
      <trkpt lat="45.85971" lon="4.81833">
        <ele>377.277649</ele>
        <time>2016-05-22T07:45:40Z</time>
      </trkpt>
      <trkpt lat="45.85968" lon="4.81831">
        <ele>377.581299</ele>
        <time>2016-05-22T07:45:42Z</time>
      </trkpt>
      <trkpt lat="45.85966" lon="4.81829">
        <ele>377.859253</ele>
        <time>2016-05-22T07:45:44Z</time>
      </trkpt>
      <trkpt lat="45.85963" lon="4.81826">
        <ele>378.119049</ele>
        <time>2016-05-22T07:45:46Z</time>
      </trkpt>
      <trkpt lat="45.8596" lon="4.81825">
        <ele>378.452209</ele>
        <time>2016-05-22T07:45:48Z</time>
      </trkpt>
      <trkpt lat="45.85958" lon="4.81822">
        <ele>378.777893</ele>
        <time>2016-05-22T07:45:50Z</time>
      </trkpt>
      <trkpt lat="45.85956" lon="4.81821">
        <ele>379.165131</ele>
        <time>2016-05-22T07:45:52Z</time>
      </trkpt>
      <trkpt lat="45.85954" lon="4.81819">
        <ele>379.518463</ele>
        <time>2016-05-22T07:45:54Z</time>
      </trkpt>
      <trkpt lat="45.85952" lon="4.81816">
        <ele>379.650879</ele>
        <time>2016-05-22T07:45:56Z</time>
      </trkpt>
      <trkpt lat="45.8595" lon="4.81814">
        <ele>379.951599</ele>
        <time>2016-05-22T07:45:58Z</time>
      </trkpt>
      <trkpt lat="45.85948" lon="4.81812">
        <ele>380.336761</ele>
        <time>2016-05-22T07:46:00Z</time>
      </trkpt>
      <trkpt lat="45.85946" lon="4.81809">
        <ele>380.687347</ele>
        <time>2016-05-22T07:46:02Z</time>
      </trkpt>
      <trkpt lat="45.85944" lon="4.81807">
        <ele>380.877747</ele>
        <time>2016-05-22T07:46:04Z</time>
      </trkpt>
      <trkpt lat="45.85941" lon="4.81805">
        <ele>381.124329</ele>
        <time>2016-05-22T07:46:06Z</time>
      </trkpt>
      <trkpt lat="45.85939" lon="4.81803">
        <ele>381.546326</ele>
        <time>2016-05-22T07:46:08Z</time>
      </trkpt>
      <trkpt lat="45.85937" lon="4.81801">
        <ele>381.728821</ele>
        <time>2016-05-22T07:46:10Z</time>
      </trkpt>
      <trkpt lat="45.85935" lon="4.81799">
        <ele>382.159119</ele>
        <time>2016-05-22T07:46:12Z</time>
      </trkpt>
      <trkpt lat="45.85933" lon="4.81797">
        <ele>382.479492</ele>
        <time>2016-05-22T07:46:14Z</time>
      </trkpt>
      <trkpt lat="45.8593" lon="4.81795">
        <ele>382.896545</ele>
        <time>2016-05-22T07:46:16Z</time>
      </trkpt>
      <trkpt lat="45.85928" lon="4.81792">
        <ele>383.30777</ele>
        <time>2016-05-22T07:46:18Z</time>
      </trkpt>
      <trkpt lat="45.85926" lon="4.8179">
        <ele>383.809418</ele>
        <time>2016-05-22T07:46:20Z</time>
      </trkpt>
      <trkpt lat="45.85923" lon="4.81787">
        <ele>384.298309</ele>
        <time>2016-05-22T07:46:22Z</time>
      </trkpt>
      <trkpt lat="45.8592" lon="4.81785">
        <ele>384.760773</ele>
        <time>2016-05-22T07:46:24Z</time>
      </trkpt>
      <trkpt lat="45.85918" lon="4.81783">
        <ele>385.219055</ele>
        <time>2016-05-22T07:46:26Z</time>
      </trkpt>
      <trkpt lat="45.85916" lon="4.81781">
        <ele>385.476471</ele>
        <time>2016-05-22T07:46:28Z</time>
      </trkpt>
      <trkpt lat="45.85913" lon="4.81779">
        <ele>385.984955</ele>
        <time>2016-05-22T07:46:30Z</time>
      </trkpt>
      <trkpt lat="45.8591" lon="4.81777">
        <ele>386.457001</ele>
        <time>2016-05-22T07:46:32Z</time>
      </trkpt>
      <trkpt lat="45.85908" lon="4.81775">
        <ele>386.961548</ele>
        <time>2016-05-22T07:46:34Z</time>
      </trkpt>
      <trkpt lat="45.85906" lon="4.81774">
        <ele>387.359955</ele>
        <time>2016-05-22T07:46:36Z</time>
      </trkpt>
      <trkpt lat="45.85903" lon="4.81772">
        <ele>387.864471</ele>
        <time>2016-05-22T07:46:38Z</time>
      </trkpt>
      <trkpt lat="45.859" lon="4.8177">
        <ele>388.338715</ele>
        <time>2016-05-22T07:46:40Z</time>
      </trkpt>
      <trkpt lat="45.85897" lon="4.81769">
        <ele>388.691681</ele>
        <time>2016-05-22T07:46:42Z</time>
      </trkpt>
      <trkpt lat="45.85895" lon="4.81767">
        <ele>389.13974</ele>
        <time>2016-05-22T07:46:44Z</time>
      </trkpt>
      <trkpt lat="45.85892" lon="4.81765">
        <ele>389.343292</ele>
        <time>2016-05-22T07:46:46Z</time>
      </trkpt>
      <trkpt lat="45.85889" lon="4.81764">
        <ele>389.965942</ele>
        <time>2016-05-22T07:46:48Z</time>
      </trkpt>
      <trkpt lat="45.85886" lon="4.81763">
        <ele>390.384094</ele>
        <time>2016-05-22T07:46:50Z</time>
      </trkpt>
      <trkpt lat="45.85883" lon="4.81763">
        <ele>390.84903</ele>
        <time>2016-05-22T07:46:52Z</time>
      </trkpt>
      <trkpt lat="45.8588" lon="4.81762">
        <ele>391.274658</ele>
        <time>2016-05-22T07:46:54Z</time>
      </trkpt>
      <trkpt lat="45.85877" lon="4.8176">
        <ele>391.774963</ele>
        <time>2016-05-22T07:46:56Z</time>
      </trkpt>
      <trkpt lat="45.85873" lon="4.81758">
        <ele>392.153748</ele>
        <time>2016-05-22T07:46:58Z</time>
      </trkpt>
      <trkpt lat="45.85869" lon="4.81756">
        <ele>392.589142</ele>
        <time>2016-05-22T07:47:00Z</time>
      </trkpt>
      <trkpt lat="45.85865" lon="4.81754">
        <ele>392.790588</ele>
        <time>2016-05-22T07:47:02Z</time>
      </trkpt>
      <trkpt lat="45.85861" lon="4.81752">
        <ele>393.098511</ele>
        <time>2016-05-22T07:47:04Z</time>
      </trkpt>
      <trkpt lat="45.85857" lon="4.81751">
        <ele>393.234985</ele>
        <time>2016-05-22T07:47:06Z</time>
      </trkpt>
      <trkpt lat="45.85853" lon="4.81749">
        <ele>393.617767</ele>
        <time>2016-05-22T07:47:08Z</time>
      </trkpt>
      <trkpt lat="45.85849" lon="4.81748">
        <ele>393.879944</ele>
        <time>2016-05-22T07:47:10Z</time>
      </trkpt>
      <trkpt lat="45.85845" lon="4.81746">
        <ele>394.179199</ele>
        <time>2016-05-22T07:47:12Z</time>
      </trkpt>
      <trkpt lat="45.8584" lon="4.81744">
        <ele>394.369873</ele>
        <time>2016-05-22T07:47:14Z</time>
      </trkpt>
      <trkpt lat="45.85836" lon="4.81743">
        <ele>394.575745</ele>
        <time>2016-05-22T07:47:16Z</time>
      </trkpt>
      <trkpt lat="45.85832" lon="4.81742">
        <ele>394.853088</ele>
        <time>2016-05-22T07:47:18Z</time>
      </trkpt>
      <trkpt lat="45.85827" lon="4.81741">
        <ele>395.100037</ele>
        <time>2016-05-22T07:47:20Z</time>
      </trkpt>
      <trkpt lat="45.85823" lon="4.81739">
        <ele>395.37738</ele>
        <time>2016-05-22T07:47:22Z</time>
      </trkpt>
      <trkpt lat="45.85818" lon="4.81738">
        <ele>395.507416</ele>
        <time>2016-05-22T07:47:24Z</time>
      </trkpt>
      <trkpt lat="45.85814" lon="4.81738">
        <ele>395.810394</ele>
        <time>2016-05-22T07:47:26Z</time>
      </trkpt>
      <trkpt lat="45.85809" lon="4.81737">
        <ele>396.056732</ele>
        <time>2016-05-22T07:47:28Z</time>
      </trkpt>
      <trkpt lat="45.85804" lon="4.81736">
        <ele>396.27655</ele>
        <time>2016-05-22T07:47:30Z</time>
      </trkpt>
      <trkpt lat="45.858" lon="4.81734">
        <ele>396.43692</ele>
        <time>2016-05-22T07:47:32Z</time>
      </trkpt>
      <trkpt lat="45.85796" lon="4.81734">
        <ele>396.638184</ele>
        <time>2016-05-22T07:47:34Z</time>
      </trkpt>
      <trkpt lat="45.85793" lon="4.81734">
        <ele>396.858582</ele>
        <time>2016-05-22T07:47:36Z</time>
      </trkpt>
      <trkpt lat="45.85788" lon="4.81733">
        <ele>396.971252</ele>
        <time>2016-05-22T07:47:38Z</time>
      </trkpt>
      <trkpt lat="45.85784" lon="4.81732">
        <ele>397.283691</ele>
        <time>2016-05-22T07:47:40Z</time>
      </trkpt>
      <trkpt lat="45.8578" lon="4.81732">
        <ele>397.54599</ele>
        <time>2016-05-22T07:47:42Z</time>
      </trkpt>
      <trkpt lat="45.85776" lon="4.8173">
        <ele>397.69281</ele>
        <time>2016-05-22T07:47:44Z</time>
      </trkpt>
      <trkpt lat="45.85772" lon="4.81729">
        <ele>397.960602</ele>
        <time>2016-05-22T07:47:46Z</time>
      </trkpt>
      <trkpt lat="45.85768" lon="4.81729">
        <ele>398.154388</ele>
        <time>2016-05-22T07:47:48Z</time>
      </trkpt>
      <trkpt lat="45.85764" lon="4.81727">
        <ele>398.332947</ele>
        <time>2016-05-22T07:47:50Z</time>
      </trkpt>
      <trkpt lat="45.8576" lon="4.81727">
        <ele>398.575836</ele>
        <time>2016-05-22T07:47:52Z</time>
      </trkpt>
      <trkpt lat="45.85756" lon="4.81727">
        <ele>398.757904</ele>
        <time>2016-05-22T07:47:54Z</time>
      </trkpt>
      <trkpt lat="45.85753" lon="4.81726">
        <ele>399.104248</ele>
        <time>2016-05-22T07:47:56Z</time>
      </trkpt>
      <trkpt lat="45.85749" lon="4.81725">
        <ele>399.470642</ele>
        <time>2016-05-22T07:47:58Z</time>
      </trkpt>
      <trkpt lat="45.85746" lon="4.81724">
        <ele>399.802368</ele>
        <time>2016-05-22T07:48:00Z</time>
      </trkpt>
      <trkpt lat="45.85742" lon="4.81724">
        <ele>400.14502</ele>
        <time>2016-05-22T07:48:02Z</time>
      </trkpt>
      <trkpt lat="45.85739" lon="4.81723">
        <ele>400.457214</ele>
        <time>2016-05-22T07:48:04Z</time>
      </trkpt>
      <trkpt lat="45.85735" lon="4.81722">
        <ele>400.626312</ele>
        <time>2016-05-22T07:48:06Z</time>
      </trkpt>
      <trkpt lat="45.85731" lon="4.81722">
        <ele>400.904938</ele>
        <time>2016-05-22T07:48:08Z</time>
      </trkpt>
      <trkpt lat="45.85728" lon="4.81721">
        <ele>401.317596</ele>
        <time>2016-05-22T07:48:10Z</time>
      </trkpt>
      <trkpt lat="45.85724" lon="4.8172">
        <ele>401.71875</ele>
        <time>2016-05-22T07:48:12Z</time>
      </trkpt>
      <trkpt lat="45.85721" lon="4.8172">
        <ele>402.11853</ele>
        <time>2016-05-22T07:48:14Z</time>
      </trkpt>
      <trkpt lat="45.85719" lon="4.81719">
        <ele>402.624115</ele>
        <time>2016-05-22T07:48:16Z</time>
      </trkpt>
      <trkpt lat="45.85716" lon="4.81718">
        <ele>402.883728</ele>
        <time>2016-05-22T07:48:18Z</time>
      </trkpt>
      <trkpt lat="45.85713" lon="4.81717">
        <ele>403.185181</ele>
        <time>2016-05-22T07:48:20Z</time>
      </trkpt>
      <trkpt lat="45.8571" lon="4.81716">
        <ele>403.540833</ele>
        <time>2016-05-22T07:48:22Z</time>
      </trkpt>
      <trkpt lat="45.85707" lon="4.81716">
        <ele>403.903015</ele>
        <time>2016-05-22T07:48:24Z</time>
      </trkpt>
      <trkpt lat="45.85704" lon="4.81716">
        <ele>404.231049</ele>
        <time>2016-05-22T07:48:26Z</time>
      </trkpt>
      <trkpt lat="45.85701" lon="4.81715">
        <ele>404.764923</ele>
        <time>2016-05-22T07:48:28Z</time>
      </trkpt>
      <trkpt lat="45.85698" lon="4.81714">
        <ele>405.267151</ele>
        <time>2016-05-22T07:48:30Z</time>
      </trkpt>
      <trkpt lat="45.85695" lon="4.81713">
        <ele>405.707001</ele>
        <time>2016-05-22T07:48:32Z</time>
      </trkpt>
      <trkpt lat="45.85691" lon="4.81712">
        <ele>406.049561</ele>
        <time>2016-05-22T07:48:34Z</time>
      </trkpt>
      <trkpt lat="45.85687" lon="4.81711">
        <ele>406.598358</ele>
        <time>2016-05-22T07:48:36Z</time>
      </trkpt>
      <trkpt lat="45.85685" lon="4.81711">
        <ele>406.730682</ele>
        <time>2016-05-22T07:48:38Z</time>
      </trkpt>
      <trkpt lat="45.85681" lon="4.8171">
        <ele>407.092468</ele>
        <time>2016-05-22T07:48:40Z</time>
      </trkpt>
      <trkpt lat="45.85678" lon="4.81709">
        <ele>407.437408</ele>
        <time>2016-05-22T07:48:42Z</time>
      </trkpt>
      <trkpt lat="45.85674" lon="4.81708">
        <ele>407.663025</ele>
        <time>2016-05-22T07:48:44Z</time>
      </trkpt>
      <trkpt lat="45.85671" lon="4.81707">
        <ele>408.068726</ele>
        <time>2016-05-22T07:48:46Z</time>
      </trkpt>
      <trkpt lat="45.85667" lon="4.81705">
        <ele>408.441925</ele>
        <time>2016-05-22T07:48:48Z</time>
      </trkpt>
      <trkpt lat="45.85663" lon="4.81703">
        <ele>408.803772</ele>
        <time>2016-05-22T07:48:50Z</time>
      </trkpt>
      <trkpt lat="45.85659" lon="4.81701">
        <ele>409.107544</ele>
        <time>2016-05-22T07:48:52Z</time>
      </trkpt>
      <trkpt lat="45.85656" lon="4.81699">
        <ele>409.414093</ele>
        <time>2016-05-22T07:48:54Z</time>
      </trkpt>
      <trkpt lat="45.85652" lon="4.81697">
        <ele>409.773438</ele>
        <time>2016-05-22T07:48:56Z</time>
      </trkpt>
      <trkpt lat="45.85648" lon="4.81695">
        <ele>409.886292</ele>
        <time>2016-05-22T07:48:58Z</time>
      </trkpt>
      <trkpt lat="45.85645" lon="4.81693">
        <ele>410.197083</ele>
        <time>2016-05-22T07:49:00Z</time>
      </trkpt>
      <trkpt lat="45.85642" lon="4.81691">
        <ele>410.505219</ele>
        <time>2016-05-22T07:49:02Z</time>
      </trkpt>
      <trkpt lat="45.85638" lon="4.81688">
        <ele>410.869873</ele>
        <time>2016-05-22T07:49:04Z</time>
      </trkpt>
      <trkpt lat="45.85634" lon="4.81685">
        <ele>411.214447</ele>
        <time>2016-05-22T07:49:06Z</time>
      </trkpt>
      <trkpt lat="45.8563" lon="4.81682">
        <ele>411.533508</ele>
        <time>2016-05-22T07:49:08Z</time>
      </trkpt>
      <trkpt lat="45.85626" lon="4.81679">
        <ele>411.848877</ele>
        <time>2016-05-22T07:49:10Z</time>
      </trkpt>
      <trkpt lat="45.85622" lon="4.81675">
        <ele>412.159271</ele>
        <time>2016-05-22T07:49:12Z</time>
      </trkpt>
      <trkpt lat="45.85618" lon="4.81673">
        <ele>412.306824</ele>
        <time>2016-05-22T07:49:14Z</time>
      </trkpt>
      <trkpt lat="45.85614" lon="4.81669">
        <ele>412.594299</ele>
        <time>2016-05-22T07:49:16Z</time>
      </trkpt>
      <trkpt lat="45.8561" lon="4.81666">
        <ele>412.839691</ele>
        <time>2016-05-22T07:49:18Z</time>
      </trkpt>
      <trkpt lat="45.85606" lon="4.81662">
        <ele>413.173981</ele>
        <time>2016-05-22T07:49:20Z</time>
      </trkpt>
      <trkpt lat="45.85603" lon="4.81658">
        <ele>413.496277</ele>
        <time>2016-05-22T07:49:22Z</time>
      </trkpt>
      <trkpt lat="45.856" lon="4.81654">
        <ele>413.87616</ele>
        <time>2016-05-22T07:49:24Z</time>
      </trkpt>
      <trkpt lat="45.85596" lon="4.8165">
        <ele>414.219147</ele>
        <time>2016-05-22T07:49:26Z</time>
      </trkpt>
      <trkpt lat="45.85593" lon="4.81646">
        <ele>414.366791</ele>
        <time>2016-05-22T07:49:28Z</time>
      </trkpt>
      <trkpt lat="45.8559" lon="4.81642">
        <ele>414.604156</ele>
        <time>2016-05-22T07:49:30Z</time>
      </trkpt>
      <trkpt lat="45.85587" lon="4.81638">
        <ele>414.829987</ele>
        <time>2016-05-22T07:49:32Z</time>
      </trkpt>
      <trkpt lat="45.85584" lon="4.81634">
        <ele>415.277252</ele>
        <time>2016-05-22T07:49:34Z</time>
      </trkpt>
      <trkpt lat="45.85581" lon="4.8163">
        <ele>415.641449</ele>
        <time>2016-05-22T07:49:36Z</time>
      </trkpt>
      <trkpt lat="45.85579" lon="4.81626">
        <ele>415.802155</ele>
        <time>2016-05-22T07:49:38Z</time>
      </trkpt>
      <trkpt lat="45.85577" lon="4.81622">
        <ele>416.066711</ele>
        <time>2016-05-22T07:49:40Z</time>
      </trkpt>
      <trkpt lat="45.85574" lon="4.81618">
        <ele>416.38446</ele>
        <time>2016-05-22T07:49:42Z</time>
      </trkpt>
      <trkpt lat="45.85572" lon="4.81614">
        <ele>416.690613</ele>
        <time>2016-05-22T07:49:44Z</time>
      </trkpt>
      <trkpt lat="45.85569" lon="4.81611">
        <ele>416.964264</ele>
        <time>2016-05-22T07:49:46Z</time>
      </trkpt>
      <trkpt lat="45.85568" lon="4.81607">
        <ele>417.231384</ele>
        <time>2016-05-22T07:49:48Z</time>
      </trkpt>
      <trkpt lat="45.85566" lon="4.81604">
        <ele>417.635742</ele>
        <time>2016-05-22T07:49:50Z</time>
      </trkpt>
      <trkpt lat="45.85564" lon="4.816">
        <ele>417.798645</ele>
        <time>2016-05-22T07:49:52Z</time>
      </trkpt>
      <trkpt lat="45.85561" lon="4.81597">
        <ele>418.120941</ele>
        <time>2016-05-22T07:49:54Z</time>
      </trkpt>
      <trkpt lat="45.8556" lon="4.81593">
        <ele>418.421478</ele>
        <time>2016-05-22T07:49:56Z</time>
      </trkpt>
      <trkpt lat="45.85558" lon="4.8159">
        <ele>418.844086</ele>
        <time>2016-05-22T07:49:58Z</time>
      </trkpt>
      <trkpt lat="45.85556" lon="4.81587">
        <ele>419.27832</ele>
        <time>2016-05-22T07:50:00Z</time>
      </trkpt>
      <trkpt lat="45.85555" lon="4.81584">
        <ele>419.47818</ele>
        <time>2016-05-22T07:50:02Z</time>
      </trkpt>
      <trkpt lat="45.85553" lon="4.81581">
        <ele>419.832184</ele>
        <time>2016-05-22T07:50:04Z</time>
      </trkpt>
      <trkpt lat="45.85552" lon="4.81578">
        <ele>420.275391</ele>
        <time>2016-05-22T07:50:06Z</time>
      </trkpt>
      <trkpt lat="45.8555" lon="4.81575">
        <ele>420.672943</ele>
        <time>2016-05-22T07:50:08Z</time>
      </trkpt>
      <trkpt lat="45.85548" lon="4.81572">
        <ele>421.122559</ele>
        <time>2016-05-22T07:50:10Z</time>
      </trkpt>
      <trkpt lat="45.85546" lon="4.81568">
        <ele>421.25943</ele>
        <time>2016-05-22T07:50:12Z</time>
      </trkpt>
      <trkpt lat="45.85544" lon="4.81565">
        <ele>421.719177</ele>
        <time>2016-05-22T07:50:14Z</time>
      </trkpt>
      <trkpt lat="45.85542" lon="4.81561">
        <ele>422.103668</ele>
        <time>2016-05-22T07:50:16Z</time>
      </trkpt>
      <trkpt lat="45.8554" lon="4.81559">
        <ele>422.255798</ele>
        <time>2016-05-22T07:50:18Z</time>
      </trkpt>
      <trkpt lat="45.85538" lon="4.81556">
        <ele>422.715515</ele>
        <time>2016-05-22T07:50:20Z</time>
      </trkpt>
      <trkpt lat="45.85536" lon="4.81552">
        <ele>422.978455</ele>
        <time>2016-05-22T07:50:22Z</time>
      </trkpt>
      <trkpt lat="45.85535" lon="4.81549">
        <ele>423.474182</ele>
        <time>2016-05-22T07:50:24Z</time>
      </trkpt>
      <trkpt lat="45.85533" lon="4.81545">
        <ele>423.871735</ele>
        <time>2016-05-22T07:50:26Z</time>
      </trkpt>
      <trkpt lat="45.85532" lon="4.81542">
        <ele>424.308533</ele>
        <time>2016-05-22T07:50:28Z</time>
      </trkpt>
      <trkpt lat="45.85531" lon="4.81538">
        <ele>424.821381</ele>
        <time>2016-05-22T07:50:30Z</time>
      </trkpt>
      <trkpt lat="45.85529" lon="4.81534">
        <ele>424.976501</ele>
        <time>2016-05-22T07:50:32Z</time>
      </trkpt>
      <trkpt lat="45.85527" lon="4.8153">
        <ele>425.386078</ele>
        <time>2016-05-22T07:50:34Z</time>
      </trkpt>
      <trkpt lat="45.85526" lon="4.81526">
        <ele>425.7164</ele>
        <time>2016-05-22T07:50:36Z</time>
      </trkpt>
      <trkpt lat="45.85524" lon="4.81522">
        <ele>426.080719</ele>
        <time>2016-05-22T07:50:38Z</time>
      </trkpt>
      <trkpt lat="45.85523" lon="4.81517">
        <ele>426.502991</ele>
        <time>2016-05-22T07:50:40Z</time>
      </trkpt>
      <trkpt lat="45.85521" lon="4.81513">
        <ele>426.769104</ele>
        <time>2016-05-22T07:50:42Z</time>
      </trkpt>
      <trkpt lat="45.8552" lon="4.81509">
        <ele>427.110291</ele>
        <time>2016-05-22T07:50:44Z</time>
      </trkpt>
      <trkpt lat="45.85518" lon="4.81506">
        <ele>427.468903</ele>
        <time>2016-05-22T07:50:46Z</time>
      </trkpt>
      <trkpt lat="45.85516" lon="4.81503">
        <ele>427.671051</ele>
        <time>2016-05-22T07:50:48Z</time>
      </trkpt>
      <trkpt lat="45.85514" lon="4.815">
        <ele>427.860168</ele>
        <time>2016-05-22T07:50:50Z</time>
      </trkpt>
      <trkpt lat="45.85511" lon="4.81496">
        <ele>428.184998</ele>
        <time>2016-05-22T07:50:52Z</time>
      </trkpt>
      <trkpt lat="45.8551" lon="4.81492">
        <ele>428.544983</ele>
        <time>2016-05-22T07:50:54Z</time>
      </trkpt>
      <trkpt lat="45.85507" lon="4.81489">
        <ele>428.966705</ele>
        <time>2016-05-22T07:50:56Z</time>
      </trkpt>
      <trkpt lat="45.85505" lon="4.81485">
        <ele>429.382019</ele>
        <time>2016-05-22T07:50:58Z</time>
      </trkpt>
      <trkpt lat="45.85503" lon="4.81481">
        <ele>429.884277</ele>
        <time>2016-05-22T07:51:00Z</time>
      </trkpt>
      <trkpt lat="45.85501" lon="4.81477">
        <ele>430.350677</ele>
        <time>2016-05-22T07:51:02Z</time>
      </trkpt>
      <trkpt lat="45.85499" lon="4.81474">
        <ele>430.733337</ele>
        <time>2016-05-22T07:51:04Z</time>
      </trkpt>
      <trkpt lat="45.85497" lon="4.8147">
        <ele>431.022552</ele>
        <time>2016-05-22T07:51:06Z</time>
      </trkpt>
      <trkpt lat="45.85495" lon="4.81466">
        <ele>431.218262</ele>
        <time>2016-05-22T07:51:08Z</time>
      </trkpt>
      <trkpt lat="45.85494" lon="4.81462">
        <ele>431.555817</ele>
        <time>2016-05-22T07:51:10Z</time>
      </trkpt>
      <trkpt lat="45.85493" lon="4.81458">
        <ele>431.969055</ele>
        <time>2016-05-22T07:51:12Z</time>
      </trkpt>
      <trkpt lat="45.85492" lon="4.81455">
        <ele>432.405334</ele>
        <time>2016-05-22T07:51:14Z</time>
      </trkpt>
      <trkpt lat="45.8549" lon="4.81451">
        <ele>432.855225</ele>
        <time>2016-05-22T07:51:16Z</time>
      </trkpt>
      <trkpt lat="45.85489" lon="4.81447">
        <ele>433.307556</ele>
        <time>2016-05-22T07:51:18Z</time>
      </trkpt>
      <trkpt lat="45.85487" lon="4.81444">
        <ele>433.522888</ele>
        <time>2016-05-22T07:51:20Z</time>
      </trkpt>
      <trkpt lat="45.85486" lon="4.81441">
        <ele>433.891022</ele>
        <time>2016-05-22T07:51:22Z</time>
      </trkpt>
      <trkpt lat="45.85483" lon="4.81437">
        <ele>434.352844</ele>
        <time>2016-05-22T07:51:24Z</time>
      </trkpt>
      <trkpt lat="45.85482" lon="4.81435">
        <ele>434.934875</ele>
        <time>2016-05-22T07:51:26Z</time>
      </trkpt>
      <trkpt lat="45.8548" lon="4.81432">
        <ele>435.400543</ele>
        <time>2016-05-22T07:51:28Z</time>
      </trkpt>
      <trkpt lat="45.85477" lon="4.81431">
        <ele>435.79364</ele>
        <time>2016-05-22T07:51:30Z</time>
      </trkpt>
      <trkpt lat="45.85474" lon="4.81428">
        <ele>436.153564</ele>
        <time>2016-05-22T07:51:32Z</time>
      </trkpt>
      <trkpt lat="45.85472" lon="4.81426">
        <ele>436.54425</ele>
        <time>2016-05-22T07:51:34Z</time>
      </trkpt>
      <trkpt lat="45.8547" lon="4.81425">
        <ele>436.76709</ele>
        <time>2016-05-22T07:51:36Z</time>
      </trkpt>
      <trkpt lat="45.85463" lon="4.81417">
        <ele>441.811432</ele>
        <time>2016-05-22T07:53:58Z</time>
      </trkpt>
      <trkpt lat="45.85461" lon="4.81412">
        <ele>441.87738</ele>
        <time>2016-05-22T07:54:00Z</time>
      </trkpt>
      <trkpt lat="45.85459" lon="4.81399">
        <ele>441.883942</ele>
        <time>2016-05-22T07:54:02Z</time>
      </trkpt>
      <trkpt lat="45.85458" lon="4.81395">
        <ele>441.883606</ele>
        <time>2016-05-22T07:54:04Z</time>
      </trkpt>
      <trkpt lat="45.85458" lon="4.8139">
        <ele>441.954651</ele>
        <time>2016-05-22T07:54:06Z</time>
      </trkpt>
      <trkpt lat="45.85458" lon="4.81385">
        <ele>441.949646</ele>
        <time>2016-05-22T07:54:08Z</time>
      </trkpt>
      <trkpt lat="45.85457" lon="4.8138">
        <ele>441.990631</ele>
        <time>2016-05-22T07:54:10Z</time>
      </trkpt>
      <trkpt lat="45.85457" lon="4.81376">
        <ele>441.997467</ele>
        <time>2016-05-22T07:54:12Z</time>
      </trkpt>
      <trkpt lat="45.85457" lon="4.81371">
        <ele>441.945251</ele>
        <time>2016-05-22T07:54:14Z</time>
      </trkpt>
      <trkpt lat="45.85458" lon="4.81366">
        <ele>441.908264</ele>
        <time>2016-05-22T07:54:16Z</time>
      </trkpt>
      <trkpt lat="45.85459" lon="4.8136">
        <ele>441.873383</ele>
        <time>2016-05-22T07:54:18Z</time>
      </trkpt>
      <trkpt lat="45.8546" lon="4.81354">
        <ele>441.791443</ele>
        <time>2016-05-22T07:54:20Z</time>
      </trkpt>
      <trkpt lat="45.85462" lon="4.81348">
        <ele>441.75885</ele>
        <time>2016-05-22T07:54:22Z</time>
      </trkpt>
      <trkpt lat="45.85465" lon="4.81342">
        <ele>441.689148</ele>
        <time>2016-05-22T07:54:24Z</time>
      </trkpt>
      <trkpt lat="45.85468" lon="4.81336">
        <ele>441.593414</ele>
        <time>2016-05-22T07:54:26Z</time>
      </trkpt>
      <trkpt lat="45.85471" lon="4.8133">
        <ele>441.534668</ele>
        <time>2016-05-22T07:54:28Z</time>
      </trkpt>
      <trkpt lat="45.85474" lon="4.81325">
        <ele>441.531433</ele>
        <time>2016-05-22T07:54:30Z</time>
      </trkpt>
      <trkpt lat="45.85479" lon="4.8132">
        <ele>441.5271</ele>
        <time>2016-05-22T07:54:32Z</time>
      </trkpt>
      <trkpt lat="45.85482" lon="4.81316">
        <ele>441.512543</ele>
        <time>2016-05-22T07:54:34Z</time>
      </trkpt>
      <trkpt lat="45.85487" lon="4.81311">
        <ele>441.503815</ele>
        <time>2016-05-22T07:54:36Z</time>
      </trkpt>
      <trkpt lat="45.8549" lon="4.81306">
        <ele>441.553864</ele>
        <time>2016-05-22T07:54:38Z</time>
      </trkpt>
      <trkpt lat="45.85493" lon="4.81303">
        <ele>441.588379</ele>
        <time>2016-05-22T07:54:40Z</time>
      </trkpt>
      <trkpt lat="45.85495" lon="4.81299">
        <ele>441.707428</ele>
        <time>2016-05-22T07:54:42Z</time>
      </trkpt>
      <trkpt lat="45.85495" lon="4.81295">
        <ele>441.881592</ele>
        <time>2016-05-22T07:54:44Z</time>
      </trkpt>
      <trkpt lat="45.85496" lon="4.81292">
        <ele>441.988281</ele>
        <time>2016-05-22T07:54:46Z</time>
      </trkpt>
      <trkpt lat="45.85497" lon="4.81289">
        <ele>442.767914</ele>
        <time>2016-05-22T07:54:54Z</time>
      </trkpt>
      <trkpt lat="45.85494" lon="4.81284">
        <ele>443.007385</ele>
        <time>2016-05-22T07:54:56Z</time>
      </trkpt>
      <trkpt lat="45.85491" lon="4.81279">
        <ele>443.278229</ele>
        <time>2016-05-22T07:54:58Z</time>
      </trkpt>
      <trkpt lat="45.85489" lon="4.81276">
        <ele>443.59613</ele>
        <time>2016-05-22T07:55:00Z</time>
      </trkpt>
      <trkpt lat="45.85487" lon="4.81274">
        <ele>443.828369</ele>
        <time>2016-05-22T07:55:02Z</time>
      </trkpt>
      <trkpt lat="45.85486" lon="4.81273">
        <ele>444.135406</ele>
        <time>2016-05-22T07:55:04Z</time>
      </trkpt>
      <trkpt lat="45.85483" lon="4.81273">
        <ele>444.499023</ele>
        <time>2016-05-22T07:55:06Z</time>
      </trkpt>
      <trkpt lat="45.85481" lon="4.81272">
        <ele>444.864746</ele>
        <time>2016-05-22T07:55:08Z</time>
      </trkpt>
      <trkpt lat="45.85479" lon="4.81267">
        <ele>445.256653</ele>
        <time>2016-05-22T07:55:10Z</time>
      </trkpt>
      <trkpt lat="45.85474" lon="4.81263">
        <ele>445.533142</ele>
        <time>2016-05-22T07:55:12Z</time>
      </trkpt>
      <trkpt lat="45.8547" lon="4.81261">
        <ele>445.841217</ele>
        <time>2016-05-22T07:55:14Z</time>
      </trkpt>
      <trkpt lat="45.85466" lon="4.81258">
        <ele>446.20639</ele>
        <time>2016-05-22T07:55:16Z</time>
      </trkpt>
      <trkpt lat="45.85462" lon="4.81255">
        <ele>446.382813</ele>
        <time>2016-05-22T07:55:18Z</time>
      </trkpt>
      <trkpt lat="45.85458" lon="4.81252">
        <ele>446.584717</ele>
        <time>2016-05-22T07:55:20Z</time>
      </trkpt>
      <trkpt lat="45.85453" lon="4.8125">
        <ele>446.933167</ele>
        <time>2016-05-22T07:55:22Z</time>
      </trkpt>
      <trkpt lat="45.85449" lon="4.81248">
        <ele>447.208557</ele>
        <time>2016-05-22T07:55:24Z</time>
      </trkpt>
      <trkpt lat="45.85445" lon="4.81246">
        <ele>447.50473</ele>
        <time>2016-05-22T07:55:26Z</time>
      </trkpt>
      <trkpt lat="45.85441" lon="4.81243">
        <ele>447.774841</ele>
        <time>2016-05-22T07:55:28Z</time>
      </trkpt>
      <trkpt lat="45.85437" lon="4.81241">
        <ele>448.037598</ele>
        <time>2016-05-22T07:55:30Z</time>
      </trkpt>
      <trkpt lat="45.85434" lon="4.81239">
        <ele>448.240143</ele>
        <time>2016-05-22T07:55:32Z</time>
      </trkpt>
      <trkpt lat="45.85431" lon="4.81237">
        <ele>448.255432</ele>
        <time>2016-05-22T07:55:34Z</time>
      </trkpt>
      <trkpt lat="45.85428" lon="4.81235">
        <ele>448.397278</ele>
        <time>2016-05-22T07:55:36Z</time>
      </trkpt>
      <trkpt lat="45.85424" lon="4.81233">
        <ele>448.660309</ele>
        <time>2016-05-22T07:55:38Z</time>
      </trkpt>
      <trkpt lat="45.85421" lon="4.81231">
        <ele>448.947845</ele>
        <time>2016-05-22T07:55:40Z</time>
      </trkpt>
      <trkpt lat="45.85418" lon="4.81229">
        <ele>449.238861</ele>
        <time>2016-05-22T07:55:42Z</time>
      </trkpt>
      <trkpt lat="45.85415" lon="4.81226">
        <ele>449.385071</ele>
        <time>2016-05-22T07:55:44Z</time>
      </trkpt>
      <trkpt lat="45.85412" lon="4.81224">
        <ele>449.833801</ele>
        <time>2016-05-22T07:55:46Z</time>
      </trkpt>
      <trkpt lat="45.85408" lon="4.81222">
        <ele>450.088684</ele>
        <time>2016-05-22T07:55:48Z</time>
      </trkpt>
      <trkpt lat="45.85406" lon="4.8122">
        <ele>450.509186</ele>
        <time>2016-05-22T07:55:50Z</time>
      </trkpt>
      <trkpt lat="45.85403" lon="4.81217">
        <ele>450.742279</ele>
        <time>2016-05-22T07:55:52Z</time>
      </trkpt>
      <trkpt lat="45.85401" lon="4.81215">
        <ele>451.108643</ele>
        <time>2016-05-22T07:55:54Z</time>
      </trkpt>
      <trkpt lat="45.85399" lon="4.81212">
        <ele>451.540039</ele>
        <time>2016-05-22T07:55:56Z</time>
      </trkpt>
      <trkpt lat="45.85395" lon="4.8121">
        <ele>451.834167</ele>
        <time>2016-05-22T07:55:58Z</time>
      </trkpt>
      <trkpt lat="45.85392" lon="4.81208">
        <ele>452.191589</ele>
        <time>2016-05-22T07:56:00Z</time>
      </trkpt>
      <trkpt lat="45.85389" lon="4.81206">
        <ele>452.736908</ele>
        <time>2016-05-22T07:56:02Z</time>
      </trkpt>
      <trkpt lat="45.85386" lon="4.81204">
        <ele>453.065979</ele>
        <time>2016-05-22T07:56:04Z</time>
      </trkpt>
      <trkpt lat="45.85383" lon="4.81201">
        <ele>453.482971</ele>
        <time>2016-05-22T07:56:06Z</time>
      </trkpt>
      <trkpt lat="45.85379" lon="4.81199">
        <ele>453.860016</ele>
        <time>2016-05-22T07:56:08Z</time>
      </trkpt>
      <trkpt lat="45.85376" lon="4.81197">
        <ele>454.191315</ele>
        <time>2016-05-22T07:56:10Z</time>
      </trkpt>
      <trkpt lat="45.85372" lon="4.81195">
        <ele>454.634369</ele>
        <time>2016-05-22T07:56:12Z</time>
      </trkpt>
      <trkpt lat="45.85369" lon="4.81193">
        <ele>455.129089</ele>
        <time>2016-05-22T07:56:14Z</time>
      </trkpt>
      <trkpt lat="45.85366" lon="4.81191">
        <ele>455.453766</ele>
        <time>2016-05-22T07:56:16Z</time>
      </trkpt>
      <trkpt lat="45.85363" lon="4.81189">
        <ele>455.963715</ele>
        <time>2016-05-22T07:56:18Z</time>
      </trkpt>
      <trkpt lat="45.8536" lon="4.81186">
        <ele>456.312408</ele>
        <time>2016-05-22T07:56:20Z</time>
      </trkpt>
      <trkpt lat="45.85357" lon="4.81184">
        <ele>456.664856</ele>
        <time>2016-05-22T07:56:22Z</time>
      </trkpt>
      <trkpt lat="45.85353" lon="4.81182">
        <ele>456.961273</ele>
        <time>2016-05-22T07:56:24Z</time>
      </trkpt>
      <trkpt lat="45.85349" lon="4.8118">
        <ele>457.319031</ele>
        <time>2016-05-22T07:56:26Z</time>
      </trkpt>
      <trkpt lat="45.85345" lon="4.81178">
        <ele>457.546722</ele>
        <time>2016-05-22T07:56:28Z</time>
      </trkpt>
      <trkpt lat="45.85342" lon="4.81175">
        <ele>457.88028</ele>
        <time>2016-05-22T07:56:30Z</time>
      </trkpt>
      <trkpt lat="45.85338" lon="4.81173">
        <ele>458.192871</ele>
        <time>2016-05-22T07:56:32Z</time>
      </trkpt>
      <trkpt lat="45.85334" lon="4.8117">
        <ele>458.530457</ele>
        <time>2016-05-22T07:56:34Z</time>
      </trkpt>
      <trkpt lat="45.85331" lon="4.81167">
        <ele>458.702728</ele>
        <time>2016-05-22T07:56:36Z</time>
      </trkpt>
      <trkpt lat="45.85327" lon="4.81164">
        <ele>458.92627</ele>
        <time>2016-05-22T07:56:38Z</time>
      </trkpt>
      <trkpt lat="45.85325" lon="4.8116">
        <ele>459.294342</ele>
        <time>2016-05-22T07:56:40Z</time>
      </trkpt>
      <trkpt lat="45.85321" lon="4.81157">
        <ele>459.549469</ele>
        <time>2016-05-22T07:56:42Z</time>
      </trkpt>
      <trkpt lat="45.85318" lon="4.81153">
        <ele>459.837494</ele>
        <time>2016-05-22T07:56:44Z</time>
      </trkpt>
      <trkpt lat="45.85315" lon="4.8115">
        <ele>460.186432</ele>
        <time>2016-05-22T07:56:46Z</time>
      </trkpt>
      <trkpt lat="45.85312" lon="4.81146">
        <ele>460.461609</ele>
        <time>2016-05-22T07:56:48Z</time>
      </trkpt>
      <trkpt lat="45.85309" lon="4.81143">
        <ele>460.636047</ele>
        <time>2016-05-22T07:56:50Z</time>
      </trkpt>
      <trkpt lat="45.85306" lon="4.8114">
        <ele>461.002136</ele>
        <time>2016-05-22T07:56:52Z</time>
      </trkpt>
      <trkpt lat="45.85303" lon="4.81137">
        <ele>461.263855</ele>
        <time>2016-05-22T07:56:54Z</time>
      </trkpt>
      <trkpt lat="45.853" lon="4.81134">
        <ele>461.455811</ele>
        <time>2016-05-22T07:56:56Z</time>
      </trkpt>
      <trkpt lat="45.85298" lon="4.81131">
        <ele>461.573578</ele>
        <time>2016-05-22T07:56:58Z</time>
      </trkpt>
      <trkpt lat="45.85296" lon="4.81128">
        <ele>461.945007</ele>
        <time>2016-05-22T07:57:00Z</time>
      </trkpt>
      <trkpt lat="45.85293" lon="4.81125">
        <ele>462.300476</ele>
        <time>2016-05-22T07:57:02Z</time>
      </trkpt>
      <trkpt lat="45.85291" lon="4.81122">
        <ele>462.632629</ele>
        <time>2016-05-22T07:57:04Z</time>
      </trkpt>
      <trkpt lat="45.85289" lon="4.81119">
        <ele>462.913971</ele>
        <time>2016-05-22T07:57:06Z</time>
      </trkpt>
      <trkpt lat="45.85286" lon="4.81115">
        <ele>463.306061</ele>
        <time>2016-05-22T07:57:08Z</time>
      </trkpt>
      <trkpt lat="45.85283" lon="4.81112">
        <ele>463.56134</ele>
        <time>2016-05-22T07:57:10Z</time>
      </trkpt>
      <trkpt lat="45.8528" lon="4.81109">
        <ele>463.918274</ele>
        <time>2016-05-22T07:57:12Z</time>
      </trkpt>
      <trkpt lat="45.85277" lon="4.81105">
        <ele>464.441101</ele>
        <time>2016-05-22T07:57:14Z</time>
      </trkpt>
      <trkpt lat="45.85274" lon="4.81101">
        <ele>464.70752</ele>
        <time>2016-05-22T07:57:16Z</time>
      </trkpt>
      <trkpt lat="45.85272" lon="4.81098">
        <ele>464.967194</ele>
        <time>2016-05-22T07:57:18Z</time>
      </trkpt>
      <trkpt lat="45.85269" lon="4.81095">
        <ele>465.326172</ele>
        <time>2016-05-22T07:57:20Z</time>
      </trkpt>
      <trkpt lat="45.85267" lon="4.81091">
        <ele>465.874207</ele>
        <time>2016-05-22T07:57:22Z</time>
      </trkpt>
      <trkpt lat="45.85264" lon="4.81087">
        <ele>466.157806</ele>
        <time>2016-05-22T07:57:24Z</time>
      </trkpt>
      <trkpt lat="45.85262" lon="4.81083">
        <ele>466.37384</ele>
        <time>2016-05-22T07:57:26Z</time>
      </trkpt>
      <trkpt lat="45.85259" lon="4.81078">
        <ele>466.724274</ele>
        <time>2016-05-22T07:57:28Z</time>
      </trkpt>
      <trkpt lat="45.85256" lon="4.81074">
        <ele>467.138855</ele>
        <time>2016-05-22T07:57:30Z</time>
      </trkpt>
      <trkpt lat="45.85253" lon="4.81071">
        <ele>467.634277</ele>
        <time>2016-05-22T07:57:32Z</time>
      </trkpt>
      <trkpt lat="45.85251" lon="4.81066">
        <ele>468.072845</ele>
        <time>2016-05-22T07:57:34Z</time>
      </trkpt>
      <trkpt lat="45.85247" lon="4.81063">
        <ele>468.328461</ele>
        <time>2016-05-22T07:57:36Z</time>
      </trkpt>
      <trkpt lat="45.85244" lon="4.81059">
        <ele>468.631775</ele>
        <time>2016-05-22T07:57:38Z</time>
      </trkpt>
      <trkpt lat="45.85242" lon="4.81055">
        <ele>469.068268</ele>
        <time>2016-05-22T07:57:40Z</time>
      </trkpt>
      <trkpt lat="45.85239" lon="4.81051">
        <ele>469.306091</ele>
        <time>2016-05-22T07:57:42Z</time>
      </trkpt>
      <trkpt lat="45.85236" lon="4.81048">
        <ele>469.569641</ele>
        <time>2016-05-22T07:57:44Z</time>
      </trkpt>
      <trkpt lat="45.85233" lon="4.81044">
        <ele>469.928284</ele>
        <time>2016-05-22T07:57:46Z</time>
      </trkpt>
      <trkpt lat="45.8523" lon="4.81043">
        <ele>470.25351</ele>
        <time>2016-05-22T07:57:48Z</time>
      </trkpt>
      <trkpt lat="45.85228" lon="4.81044">
        <ele>470.709625</ele>
        <time>2016-05-22T07:57:50Z</time>
      </trkpt>
      <trkpt lat="45.85229" lon="4.81046">
        <ele>471.100342</ele>
        <time>2016-05-22T07:57:52Z</time>
      </trkpt>
      <trkpt lat="45.85231" lon="4.81049">
        <ele>471.338135</ele>
        <time>2016-05-22T07:57:54Z</time>
      </trkpt>
      <trkpt lat="45.85233" lon="4.81052">
        <ele>471.685211</ele>
        <time>2016-05-22T07:57:56Z</time>
      </trkpt>
      <trkpt lat="45.85234" lon="4.81056">
        <ele>471.990479</ele>
        <time>2016-05-22T07:57:58Z</time>
      </trkpt>
      <trkpt lat="45.85235" lon="4.8106">
        <ele>472.189209</ele>
        <time>2016-05-22T07:58:00Z</time>
      </trkpt>
      <trkpt lat="45.85236" lon="4.81065">
        <ele>472.466156</ele>
        <time>2016-05-22T07:58:02Z</time>
      </trkpt>
      <trkpt lat="45.85237" lon="4.81069">
        <ele>472.865723</ele>
        <time>2016-05-22T07:58:04Z</time>
      </trkpt>
      <trkpt lat="45.85238" lon="4.81074">
        <ele>473.232574</ele>
        <time>2016-05-22T07:58:06Z</time>
      </trkpt>
      <trkpt lat="45.85239" lon="4.81078">
        <ele>473.582764</ele>
        <time>2016-05-22T07:58:08Z</time>
      </trkpt>
      <trkpt lat="45.8524" lon="4.81083">
        <ele>473.922028</ele>
        <time>2016-05-22T07:58:10Z</time>
      </trkpt>
      <trkpt lat="45.85241" lon="4.81088">
        <ele>474.015869</ele>
        <time>2016-05-22T07:58:12Z</time>
      </trkpt>
      <trkpt lat="45.85241" lon="4.81093">
        <ele>474.300537</ele>
        <time>2016-05-22T07:58:14Z</time>
      </trkpt>
      <trkpt lat="45.85243" lon="4.81098">
        <ele>474.678284</ele>
        <time>2016-05-22T07:58:16Z</time>
      </trkpt>
      <trkpt lat="45.85243" lon="4.81103">
        <ele>475.038635</ele>
        <time>2016-05-22T07:58:18Z</time>
      </trkpt>
      <trkpt lat="45.85243" lon="4.81107">
        <ele>475.486267</ele>
        <time>2016-05-22T07:58:20Z</time>
      </trkpt>
      <trkpt lat="45.85241" lon="4.81109">
        <ele>475.83783</ele>
        <time>2016-05-22T07:58:22Z</time>
      </trkpt>
      <trkpt lat="45.8524" lon="4.81108">
        <ele>476.110779</ele>
        <time>2016-05-22T07:58:24Z</time>
      </trkpt>
      <trkpt lat="45.85238" lon="4.81107">
        <ele>476.335297</ele>
        <time>2016-05-22T07:58:26Z</time>
      </trkpt>
      <trkpt lat="45.85235" lon="4.81105">
        <ele>476.500549</ele>
        <time>2016-05-22T07:58:28Z</time>
      </trkpt>
      <trkpt lat="45.85233" lon="4.81103">
        <ele>476.793457</ele>
        <time>2016-05-22T07:58:30Z</time>
      </trkpt>
      <trkpt lat="45.8523" lon="4.81102">
        <ele>477.174561</ele>
        <time>2016-05-22T07:58:32Z</time>
      </trkpt>
      <trkpt lat="45.85227" lon="4.81099">
        <ele>477.401703</ele>
        <time>2016-05-22T07:58:34Z</time>
      </trkpt>
      <trkpt lat="45.85223" lon="4.81097">
        <ele>477.834229</ele>
        <time>2016-05-22T07:58:36Z</time>
      </trkpt>
      <trkpt lat="45.8522" lon="4.81095">
        <ele>478.164063</ele>
        <time>2016-05-22T07:58:38Z</time>
      </trkpt>
      <trkpt lat="45.85217" lon="4.81093">
        <ele>478.498474</ele>
        <time>2016-05-22T07:58:40Z</time>
      </trkpt>
      <trkpt lat="45.85214" lon="4.8109">
        <ele>478.804352</ele>
        <time>2016-05-22T07:58:42Z</time>
      </trkpt>
      <trkpt lat="45.8521" lon="4.81087">
        <ele>479.07309</ele>
        <time>2016-05-22T07:58:44Z</time>
      </trkpt>
      <trkpt lat="45.85208" lon="4.81084">
        <ele>479.291321</ele>
        <time>2016-05-22T07:58:46Z</time>
      </trkpt>
      <trkpt lat="45.85207" lon="4.81081">
        <ele>479.361237</ele>
        <time>2016-05-22T07:58:48Z</time>
      </trkpt>
      <trkpt lat="45.85203" lon="4.81079">
        <ele>479.703033</ele>
        <time>2016-05-22T07:58:50Z</time>
      </trkpt>
      <trkpt lat="45.85201" lon="4.81076">
        <ele>480.06488</ele>
        <time>2016-05-22T07:58:52Z</time>
      </trkpt>
      <trkpt lat="45.85197" lon="4.81073">
        <ele>480.480042</ele>
        <time>2016-05-22T07:58:54Z</time>
      </trkpt>
      <trkpt lat="45.85194" lon="4.8107">
        <ele>480.767731</ele>
        <time>2016-05-22T07:58:56Z</time>
      </trkpt>
      <trkpt lat="45.85191" lon="4.81067">
        <ele>481.150238</ele>
        <time>2016-05-22T07:58:58Z</time>
      </trkpt>
      <trkpt lat="45.85189" lon="4.81064">
        <ele>481.436462</ele>
        <time>2016-05-22T07:59:00Z</time>
      </trkpt>
      <trkpt lat="45.85187" lon="4.8106">
        <ele>481.812347</ele>
        <time>2016-05-22T07:59:02Z</time>
      </trkpt>
      <trkpt lat="45.85184" lon="4.81058">
        <ele>482.131409</ele>
        <time>2016-05-22T07:59:04Z</time>
      </trkpt>
      <trkpt lat="45.85181" lon="4.81054">
        <ele>482.183838</ele>
        <time>2016-05-22T07:59:06Z</time>
      </trkpt>
      <trkpt lat="45.85179" lon="4.81049">
        <ele>482.612488</ele>
        <time>2016-05-22T07:59:08Z</time>
      </trkpt>
      <trkpt lat="45.85177" lon="4.81045">
        <ele>483.110016</ele>
        <time>2016-05-22T07:59:10Z</time>
      </trkpt>
      <trkpt lat="45.85175" lon="4.8104">
        <ele>483.485596</ele>
        <time>2016-05-22T07:59:12Z</time>
      </trkpt>
      <trkpt lat="45.85172" lon="4.81035">
        <ele>483.779602</ele>
        <time>2016-05-22T07:59:14Z</time>
      </trkpt>
      <trkpt lat="45.85168" lon="4.81029">
        <ele>484.207947</ele>
        <time>2016-05-22T07:59:16Z</time>
      </trkpt>
      <trkpt lat="45.85165" lon="4.81023">
        <ele>484.5271</ele>
        <time>2016-05-22T07:59:18Z</time>
      </trkpt>
      <trkpt lat="45.85162" lon="4.81018">
        <ele>484.817932</ele>
        <time>2016-05-22T07:59:20Z</time>
      </trkpt>
      <trkpt lat="45.85159" lon="4.81013">
        <ele>485.118011</ele>
        <time>2016-05-22T07:59:22Z</time>
      </trkpt>
      <trkpt lat="45.85156" lon="4.81008">
        <ele>485.279785</ele>
        <time>2016-05-22T07:59:24Z</time>
      </trkpt>
      <trkpt lat="45.85151" lon="4.81005">
        <ele>485.62262</ele>
        <time>2016-05-22T07:59:26Z</time>
      </trkpt>
      <trkpt lat="45.85147" lon="4.81003">
        <ele>485.950775</ele>
        <time>2016-05-22T07:59:28Z</time>
      </trkpt>
      <trkpt lat="45.85143" lon="4.81001">
        <ele>486.273773</ele>
        <time>2016-05-22T07:59:30Z</time>
      </trkpt>
      <trkpt lat="45.85139" lon="4.80997">
        <ele>486.571472</ele>
        <time>2016-05-22T07:59:32Z</time>
      </trkpt>
      <trkpt lat="45.85135" lon="4.80994">
        <ele>486.881989</ele>
        <time>2016-05-22T07:59:34Z</time>
      </trkpt>
      <trkpt lat="45.8513" lon="4.8099">
        <ele>487.074371</ele>
        <time>2016-05-22T07:59:36Z</time>
      </trkpt>
      <trkpt lat="45.85127" lon="4.80985">
        <ele>487.255798</ele>
        <time>2016-05-22T07:59:38Z</time>
      </trkpt>
      <trkpt lat="45.85124" lon="4.8098">
        <ele>487.439056</ele>
        <time>2016-05-22T07:59:40Z</time>
      </trkpt>
      <trkpt lat="45.8512" lon="4.80975">
        <ele>487.743011</ele>
        <time>2016-05-22T07:59:42Z</time>
      </trkpt>
      <trkpt lat="45.85115" lon="4.8097">
        <ele>487.913513</ele>
        <time>2016-05-22T07:59:44Z</time>
      </trkpt>
      <trkpt lat="45.85111" lon="4.80965">
        <ele>488.165039</ele>
        <time>2016-05-22T07:59:46Z</time>
      </trkpt>
      <trkpt lat="45.85106" lon="4.8096">
        <ele>488.62851</ele>
        <time>2016-05-22T07:59:48Z</time>
      </trkpt>
      <trkpt lat="45.85101" lon="4.80954">
        <ele>488.925476</ele>
        <time>2016-05-22T07:59:50Z</time>
      </trkpt>
      <trkpt lat="45.85097" lon="4.80949">
        <ele>489.289246</ele>
        <time>2016-05-22T07:59:52Z</time>
      </trkpt>
      <trkpt lat="45.85093" lon="4.80943">
        <ele>489.645691</ele>
        <time>2016-05-22T07:59:54Z</time>
      </trkpt>
      <trkpt lat="45.85089" lon="4.80938">
        <ele>490.008728</ele>
        <time>2016-05-22T07:59:56Z</time>
      </trkpt>
      <trkpt lat="45.85086" lon="4.80933">
        <ele>490.306213</ele>
        <time>2016-05-22T07:59:58Z</time>
      </trkpt>
      <trkpt lat="45.85083" lon="4.80928">
        <ele>490.500885</ele>
        <time>2016-05-22T08:00:00Z</time>
      </trkpt>
      <trkpt lat="45.85078" lon="4.80923">
        <ele>490.745422</ele>
        <time>2016-05-22T08:00:02Z</time>
      </trkpt>
      <trkpt lat="45.85075" lon="4.80918">
        <ele>491.112122</ele>
        <time>2016-05-22T08:00:04Z</time>
      </trkpt>
      <trkpt lat="45.85072" lon="4.80913">
        <ele>491.44458</ele>
        <time>2016-05-22T08:00:06Z</time>
      </trkpt>
      <trkpt lat="45.85068" lon="4.80909">
        <ele>491.575623</ele>
        <time>2016-05-22T08:00:08Z</time>
      </trkpt>
      <trkpt lat="45.85064" lon="4.80904">
        <ele>491.71991</ele>
        <time>2016-05-22T08:00:10Z</time>
      </trkpt>
      <trkpt lat="45.85061" lon="4.80899">
        <ele>492.09668</ele>
        <time>2016-05-22T08:00:12Z</time>
      </trkpt>
      <trkpt lat="45.85058" lon="4.80894">
        <ele>492.400208</ele>
        <time>2016-05-22T08:00:14Z</time>
      </trkpt>
      <trkpt lat="45.85055" lon="4.80889">
        <ele>492.667084</ele>
        <time>2016-05-22T08:00:16Z</time>
      </trkpt>
      <trkpt lat="45.85052" lon="4.80883">
        <ele>492.837738</ele>
        <time>2016-05-22T08:00:18Z</time>
      </trkpt>
      <trkpt lat="45.85049" lon="4.80878">
        <ele>493.129089</ele>
        <time>2016-05-22T08:00:20Z</time>
      </trkpt>
      <trkpt lat="45.85045" lon="4.80873">
        <ele>493.475494</ele>
        <time>2016-05-22T08:00:22Z</time>
      </trkpt>
      <trkpt lat="45.85042" lon="4.80868">
        <ele>493.788239</ele>
        <time>2016-05-22T08:00:24Z</time>
      </trkpt>
      <trkpt lat="45.85039" lon="4.80864">
        <ele>494.146973</ele>
        <time>2016-05-22T08:00:26Z</time>
      </trkpt>
      <trkpt lat="45.85035" lon="4.80856">
        <ele>494.361389</ele>
        <time>2016-05-22T08:00:28Z</time>
      </trkpt>
      <trkpt lat="45.85031" lon="4.80849">
        <ele>494.639252</ele>
        <time>2016-05-22T08:00:30Z</time>
      </trkpt>
      <trkpt lat="45.85027" lon="4.80842">
        <ele>495.00473</ele>
        <time>2016-05-22T08:00:32Z</time>
      </trkpt>
      <trkpt lat="45.85024" lon="4.80835">
        <ele>495.157959</ele>
        <time>2016-05-22T08:00:34Z</time>
      </trkpt>
      <trkpt lat="45.8502" lon="4.80827">
        <ele>495.523438</ele>
        <time>2016-05-22T08:00:36Z</time>
      </trkpt>
      <trkpt lat="45.85015" lon="4.80819">
        <ele>495.696289</ele>
        <time>2016-05-22T08:00:38Z</time>
      </trkpt>
      <trkpt lat="45.8501" lon="4.80811">
        <ele>495.720367</ele>
        <time>2016-05-22T08:00:40Z</time>
      </trkpt>
      <trkpt lat="45.85005" lon="4.80803">
        <ele>495.895111</ele>
        <time>2016-05-22T08:00:42Z</time>
      </trkpt>
      <trkpt lat="45.85001" lon="4.80793">
        <ele>496.14801</ele>
        <time>2016-05-22T08:00:44Z</time>
      </trkpt>
      <trkpt lat="45.84998" lon="4.80782">
        <ele>496.194</ele>
        <time>2016-05-22T08:00:46Z</time>
      </trkpt>
      <trkpt lat="45.84994" lon="4.8077">
        <ele>496.358093</ele>
        <time>2016-05-22T08:00:48Z</time>
      </trkpt>
      <trkpt lat="45.84988" lon="4.8076">
        <ele>496.710938</ele>
        <time>2016-05-22T08:00:50Z</time>
      </trkpt>
      <trkpt lat="45.84984" lon="4.8075">
        <ele>496.835632</ele>
        <time>2016-05-22T08:00:52Z</time>
      </trkpt>
      <trkpt lat="45.8498" lon="4.80738">
        <ele>496.997009</ele>
        <time>2016-05-22T08:00:54Z</time>
      </trkpt>
      <trkpt lat="45.84975" lon="4.80727">
        <ele>497.068298</ele>
        <time>2016-05-22T08:00:56Z</time>
      </trkpt>
      <trkpt lat="45.84971" lon="4.80717">
        <ele>497.196716</ele>
        <time>2016-05-22T08:00:58Z</time>
      </trkpt>
      <trkpt lat="45.84966" lon="4.80706">
        <ele>497.349915</ele>
        <time>2016-05-22T08:01:00Z</time>
      </trkpt>
      <trkpt lat="45.84963" lon="4.80697">
        <ele>497.369202</ele>
        <time>2016-05-22T08:01:02Z</time>
      </trkpt>
      <trkpt lat="45.84959" lon="4.8069">
        <ele>497.573883</ele>
        <time>2016-05-22T08:01:04Z</time>
      </trkpt>
      <trkpt lat="45.84956" lon="4.80685">
        <ele>497.788391</ele>
        <time>2016-05-22T08:01:06Z</time>
      </trkpt>
      <trkpt lat="45.84953" lon="4.80679">
        <ele>498.105774</ele>
        <time>2016-05-22T08:01:08Z</time>
      </trkpt>
      <trkpt lat="45.8495" lon="4.80673">
        <ele>498.156097</ele>
        <time>2016-05-22T08:01:10Z</time>
      </trkpt>
      <trkpt lat="45.84947" lon="4.80668">
        <ele>498.4245</ele>
        <time>2016-05-22T08:01:12Z</time>
      </trkpt>
      <trkpt lat="45.84943" lon="4.80663">
        <ele>498.579987</ele>
        <time>2016-05-22T08:01:14Z</time>
      </trkpt>
      <trkpt lat="45.84942" lon="4.80658">
        <ele>498.687744</ele>
        <time>2016-05-22T08:01:16Z</time>
      </trkpt>
      <trkpt lat="45.84939" lon="4.80653">
        <ele>499.009521</ele>
        <time>2016-05-22T08:01:18Z</time>
      </trkpt>
      <trkpt lat="45.84935" lon="4.80648">
        <ele>499.140289</ele>
        <time>2016-05-22T08:01:20Z</time>
      </trkpt>
      <trkpt lat="45.84932" lon="4.80644">
        <ele>499.400726</ele>
        <time>2016-05-22T08:01:22Z</time>
      </trkpt>
      <trkpt lat="45.84929" lon="4.8064">
        <ele>499.70752</ele>
        <time>2016-05-22T08:01:24Z</time>
      </trkpt>
      <trkpt lat="45.84926" lon="4.80636">
        <ele>500.03067</ele>
        <time>2016-05-22T08:01:26Z</time>
      </trkpt>
      <trkpt lat="45.84922" lon="4.80632">
        <ele>500.538574</ele>
        <time>2016-05-22T08:01:28Z</time>
      </trkpt>
      <trkpt lat="45.8492" lon="4.80628">
        <ele>500.650238</ele>
        <time>2016-05-22T08:01:30Z</time>
      </trkpt>
      <trkpt lat="45.84917" lon="4.80624">
        <ele>500.788269</ele>
        <time>2016-05-22T08:01:32Z</time>
      </trkpt>
      <trkpt lat="45.84914" lon="4.80621">
        <ele>501.147308</ele>
        <time>2016-05-22T08:01:34Z</time>
      </trkpt>
      <trkpt lat="45.84911" lon="4.80617">
        <ele>501.537659</ele>
        <time>2016-05-22T08:01:36Z</time>
      </trkpt>
      <trkpt lat="45.84908" lon="4.80614">
        <ele>501.984283</ele>
        <time>2016-05-22T08:01:38Z</time>
      </trkpt>
      <trkpt lat="45.84905" lon="4.80611">
        <ele>502.337494</ele>
        <time>2016-05-22T08:01:40Z</time>
      </trkpt>
      <trkpt lat="45.84901" lon="4.80607">
        <ele>502.744781</ele>
        <time>2016-05-22T08:01:42Z</time>
      </trkpt>
      <trkpt lat="45.84898" lon="4.80604">
        <ele>503.368805</ele>
        <time>2016-05-22T08:01:44Z</time>
      </trkpt>
      <trkpt lat="45.84895" lon="4.80601">
        <ele>503.682617</ele>
        <time>2016-05-22T08:01:46Z</time>
      </trkpt>
      <trkpt lat="45.84892" lon="4.80597">
        <ele>504.114105</ele>
        <time>2016-05-22T08:01:48Z</time>
      </trkpt>
      <trkpt lat="45.8489" lon="4.80593">
        <ele>504.249908</ele>
        <time>2016-05-22T08:01:50Z</time>
      </trkpt>
      <trkpt lat="45.84887" lon="4.8059">
        <ele>504.595154</ele>
        <time>2016-05-22T08:01:52Z</time>
      </trkpt>
      <trkpt lat="45.84884" lon="4.80587">
        <ele>504.987946</ele>
        <time>2016-05-22T08:01:54Z</time>
      </trkpt>
      <trkpt lat="45.84881" lon="4.80584">
        <ele>505.344879</ele>
        <time>2016-05-22T08:01:56Z</time>
      </trkpt>
      <trkpt lat="45.84878" lon="4.80579">
        <ele>505.602722</ele>
        <time>2016-05-22T08:01:58Z</time>
      </trkpt>
      <trkpt lat="45.84876" lon="4.80575">
        <ele>506.005768</ele>
        <time>2016-05-22T08:02:00Z</time>
      </trkpt>
      <trkpt lat="45.84873" lon="4.80571">
        <ele>506.418274</ele>
        <time>2016-05-22T08:02:02Z</time>
      </trkpt>
      <trkpt lat="45.84871" lon="4.80567">
        <ele>506.816833</ele>
        <time>2016-05-22T08:02:04Z</time>
      </trkpt>
      <trkpt lat="45.84869" lon="4.80563">
        <ele>507.020599</ele>
        <time>2016-05-22T08:02:06Z</time>
      </trkpt>
      <trkpt lat="45.84867" lon="4.8056">
        <ele>507.355652</ele>
        <time>2016-05-22T08:02:08Z</time>
      </trkpt>
      <trkpt lat="45.84864" lon="4.80557">
        <ele>507.615784</ele>
        <time>2016-05-22T08:02:10Z</time>
      </trkpt>
      <trkpt lat="45.84863" lon="4.80553">
        <ele>508.091125</ele>
        <time>2016-05-22T08:02:12Z</time>
      </trkpt>
      <trkpt lat="45.8486" lon="4.8055">
        <ele>508.575134</ele>
        <time>2016-05-22T08:02:14Z</time>
      </trkpt>
      <trkpt lat="45.84858" lon="4.80546">
        <ele>508.978119</ele>
        <time>2016-05-22T08:02:16Z</time>
      </trkpt>
      <trkpt lat="45.84856" lon="4.80543">
        <ele>509.351654</ele>
        <time>2016-05-22T08:02:18Z</time>
      </trkpt>
      <trkpt lat="45.84853" lon="4.8054">
        <ele>509.487488</ele>
        <time>2016-05-22T08:02:20Z</time>
      </trkpt>
      <trkpt lat="45.84851" lon="4.80537">
        <ele>509.872711</ele>
        <time>2016-05-22T08:02:22Z</time>
      </trkpt>
      <trkpt lat="45.84848" lon="4.80534">
        <ele>510.246399</ele>
        <time>2016-05-22T08:02:24Z</time>
      </trkpt>
      <trkpt lat="45.84846" lon="4.80531">
        <ele>510.572937</ele>
        <time>2016-05-22T08:02:26Z</time>
      </trkpt>
      <trkpt lat="45.84843" lon="4.80529">
        <ele>511.039734</ele>
        <time>2016-05-22T08:02:28Z</time>
      </trkpt>
      <trkpt lat="45.8484" lon="4.80526">
        <ele>511.3685</ele>
        <time>2016-05-22T08:02:30Z</time>
      </trkpt>
      <trkpt lat="45.84837" lon="4.80524">
        <ele>511.841949</ele>
        <time>2016-05-22T08:02:32Z</time>
      </trkpt>
      <trkpt lat="45.84835" lon="4.80521">
        <ele>512.202209</ele>
        <time>2016-05-22T08:02:34Z</time>
      </trkpt>
      <trkpt lat="45.84832" lon="4.80518">
        <ele>512.27887</ele>
        <time>2016-05-22T08:02:36Z</time>
      </trkpt>
      <trkpt lat="45.84829" lon="4.80515">
        <ele>512.731079</ele>
        <time>2016-05-22T08:02:38Z</time>
      </trkpt>
      <trkpt lat="45.84827" lon="4.80512">
        <ele>513.236694</ele>
        <time>2016-05-22T08:02:40Z</time>
      </trkpt>
      <trkpt lat="45.84824" lon="4.8051">
        <ele>513.721069</ele>
        <time>2016-05-22T08:02:42Z</time>
      </trkpt>
      <trkpt lat="45.84823" lon="4.80508">
        <ele>514.177063</ele>
        <time>2016-05-22T08:02:44Z</time>
      </trkpt>
      <trkpt lat="45.8482" lon="4.80507">
        <ele>514.606812</ele>
        <time>2016-05-22T08:02:46Z</time>
      </trkpt>
      <trkpt lat="45.84818" lon="4.80504">
        <ele>515.104431</ele>
        <time>2016-05-22T08:02:48Z</time>
      </trkpt>
      <trkpt lat="45.84815" lon="4.80501">
        <ele>515.440002</ele>
        <time>2016-05-22T08:02:50Z</time>
      </trkpt>
      <trkpt lat="45.84813" lon="4.80499">
        <ele>515.67511</ele>
        <time>2016-05-22T08:02:52Z</time>
      </trkpt>
      <trkpt lat="45.8481" lon="4.80497">
        <ele>516.05127</ele>
        <time>2016-05-22T08:02:54Z</time>
      </trkpt>
      <trkpt lat="45.84808" lon="4.80495">
        <ele>516.507385</ele>
        <time>2016-05-22T08:02:56Z</time>
      </trkpt>
      <trkpt lat="45.84805" lon="4.80493">
        <ele>516.952515</ele>
        <time>2016-05-22T08:02:58Z</time>
      </trkpt>
      <trkpt lat="45.84802" lon="4.8049">
        <ele>517.363464</ele>
        <time>2016-05-22T08:03:00Z</time>
      </trkpt>
      <trkpt lat="45.84799" lon="4.80488">
        <ele>517.883118</ele>
        <time>2016-05-22T08:03:02Z</time>
      </trkpt>
      <trkpt lat="45.84797" lon="4.80485">
        <ele>518.170776</ele>
        <time>2016-05-22T08:03:04Z</time>
      </trkpt>
      <trkpt lat="45.84795" lon="4.80482">
        <ele>518.362488</ele>
        <time>2016-05-22T08:03:06Z</time>
      </trkpt>
      <trkpt lat="45.84792" lon="4.8048">
        <ele>518.736328</ele>
        <time>2016-05-22T08:03:08Z</time>
      </trkpt>
      <trkpt lat="45.84791" lon="4.80477">
        <ele>519.104797</ele>
        <time>2016-05-22T08:03:10Z</time>
      </trkpt>
      <trkpt lat="45.84788" lon="4.80475">
        <ele>519.560974</ele>
        <time>2016-05-22T08:03:12Z</time>
      </trkpt>
      <trkpt lat="45.84786" lon="4.80473">
        <ele>519.922913</ele>
        <time>2016-05-22T08:03:14Z</time>
      </trkpt>
      <trkpt lat="45.84783" lon="4.8047">
        <ele>520.188293</ele>
        <time>2016-05-22T08:03:16Z</time>
      </trkpt>
      <trkpt lat="45.84781" lon="4.80467">
        <ele>520.447144</ele>
        <time>2016-05-22T08:03:18Z</time>
      </trkpt>
      <trkpt lat="45.84778" lon="4.80465">
        <ele>521.148926</ele>
        <time>2016-05-22T08:03:20Z</time>
      </trkpt>
      <trkpt lat="45.84776" lon="4.80462">
        <ele>521.480225</ele>
        <time>2016-05-22T08:03:22Z</time>
      </trkpt>
      <trkpt lat="45.84774" lon="4.8046">
        <ele>521.901489</ele>
        <time>2016-05-22T08:03:24Z</time>
      </trkpt>
      <trkpt lat="45.84771" lon="4.80457">
        <ele>522.164795</ele>
        <time>2016-05-22T08:03:26Z</time>
      </trkpt>
      <trkpt lat="45.84768" lon="4.80455">
        <ele>522.62561</ele>
        <time>2016-05-22T08:03:28Z</time>
      </trkpt>
      <trkpt lat="45.84765" lon="4.80452">
        <ele>522.783508</ele>
        <time>2016-05-22T08:03:30Z</time>
      </trkpt>
      <trkpt lat="45.84762" lon="4.80449">
        <ele>523.073364</ele>
        <time>2016-05-22T08:03:32Z</time>
      </trkpt>
      <trkpt lat="45.8476" lon="4.80446">
        <ele>523.55188</ele>
        <time>2016-05-22T08:03:34Z</time>
      </trkpt>
      <trkpt lat="45.84757" lon="4.80443">
        <ele>523.897156</ele>
        <time>2016-05-22T08:03:36Z</time>
      </trkpt>
      <trkpt lat="45.84755" lon="4.8044">
        <ele>524.237183</ele>
        <time>2016-05-22T08:03:38Z</time>
      </trkpt>
      <trkpt lat="45.84752" lon="4.80436">
        <ele>524.542297</ele>
        <time>2016-05-22T08:03:40Z</time>
      </trkpt>
      <trkpt lat="45.8475" lon="4.80432">
        <ele>524.99646</ele>
        <time>2016-05-22T08:03:42Z</time>
      </trkpt>
      <trkpt lat="45.84749" lon="4.80428">
        <ele>525.32782</ele>
        <time>2016-05-22T08:03:44Z</time>
      </trkpt>
      <trkpt lat="45.84746" lon="4.80425">
        <ele>525.685852</ele>
        <time>2016-05-22T08:03:46Z</time>
      </trkpt>
      <trkpt lat="45.84743" lon="4.80422">
        <ele>526.306763</ele>
        <time>2016-05-22T08:03:48Z</time>
      </trkpt>
      <trkpt lat="45.8474" lon="4.8042">
        <ele>526.667847</ele>
        <time>2016-05-22T08:03:50Z</time>
      </trkpt>
      <trkpt lat="45.84738" lon="4.80417">
        <ele>526.819214</ele>
        <time>2016-05-22T08:03:52Z</time>
      </trkpt>
      <trkpt lat="45.84737" lon="4.80415">
        <ele>527.105652</ele>
        <time>2016-05-22T08:03:54Z</time>
      </trkpt>
      <trkpt lat="45.84735" lon="4.80412">
        <ele>527.316406</ele>
        <time>2016-05-22T08:03:56Z</time>
      </trkpt>
      <trkpt lat="45.84733" lon="4.80409">
        <ele>527.577515</ele>
        <time>2016-05-22T08:03:58Z</time>
      </trkpt>
      <trkpt lat="45.84731" lon="4.80406">
        <ele>528.12854</ele>
        <time>2016-05-22T08:04:00Z</time>
      </trkpt>
      <trkpt lat="45.84729" lon="4.80404">
        <ele>528.463745</ele>
        <time>2016-05-22T08:04:02Z</time>
      </trkpt>
      <trkpt lat="45.84727" lon="4.80402">
        <ele>529.070435</ele>
        <time>2016-05-22T08:04:04Z</time>
      </trkpt>
      <trkpt lat="45.84725" lon="4.80399">
        <ele>529.309753</ele>
        <time>2016-05-22T08:04:06Z</time>
      </trkpt>
      <trkpt lat="45.84724" lon="4.80396">
        <ele>529.669312</ele>
        <time>2016-05-22T08:04:08Z</time>
      </trkpt>
      <trkpt lat="45.84722" lon="4.80393">
        <ele>530.180908</ele>
        <time>2016-05-22T08:04:10Z</time>
      </trkpt>
      <trkpt lat="45.8472" lon="4.80391">
        <ele>530.63324</ele>
        <time>2016-05-22T08:04:12Z</time>
      </trkpt>
      <trkpt lat="45.84717" lon="4.80388">
        <ele>531.127563</ele>
        <time>2016-05-22T08:04:14Z</time>
      </trkpt>
      <trkpt lat="45.84715" lon="4.80386">
        <ele>531.634521</ele>
        <time>2016-05-22T08:04:16Z</time>
      </trkpt>
      <trkpt lat="45.84713" lon="4.80383">
        <ele>532.170288</ele>
        <time>2016-05-22T08:04:18Z</time>
      </trkpt>
      <trkpt lat="45.8471" lon="4.8038">
        <ele>532.721497</ele>
        <time>2016-05-22T08:04:20Z</time>
      </trkpt>
      <trkpt lat="45.84707" lon="4.80378">
        <ele>533.200195</ele>
        <time>2016-05-22T08:04:22Z</time>
      </trkpt>
      <trkpt lat="45.84705" lon="4.80374">
        <ele>533.38031</ele>
        <time>2016-05-22T08:04:24Z</time>
      </trkpt>
      <trkpt lat="45.84702" lon="4.80371">
        <ele>533.839844</ele>
        <time>2016-05-22T08:04:26Z</time>
      </trkpt>
      <trkpt lat="45.84699" lon="4.80368">
        <ele>534.450073</ele>
        <time>2016-05-22T08:04:28Z</time>
      </trkpt>
      <trkpt lat="45.84697" lon="4.80365">
        <ele>534.836609</ele>
        <time>2016-05-22T08:04:30Z</time>
      </trkpt>
      <trkpt lat="45.84694" lon="4.80363">
        <ele>535.198975</ele>
        <time>2016-05-22T08:04:32Z</time>
      </trkpt>
      <trkpt lat="45.84692" lon="4.8036">
        <ele>535.677795</ele>
        <time>2016-05-22T08:04:34Z</time>
      </trkpt>
      <trkpt lat="45.84689" lon="4.80356">
        <ele>536.123291</ele>
        <time>2016-05-22T08:04:36Z</time>
      </trkpt>
      <trkpt lat="45.84687" lon="4.80353">
        <ele>536.667969</ele>
        <time>2016-05-22T08:04:38Z</time>
      </trkpt>
      <trkpt lat="45.84685" lon="4.8035">
        <ele>537.061157</ele>
        <time>2016-05-22T08:04:40Z</time>
      </trkpt>
      <trkpt lat="45.84683" lon="4.80348">
        <ele>537.199524</ele>
        <time>2016-05-22T08:04:42Z</time>
      </trkpt>
      <trkpt lat="45.8468" lon="4.80345">
        <ele>537.566162</ele>
        <time>2016-05-22T08:04:44Z</time>
      </trkpt>
      <trkpt lat="45.84678" lon="4.80343">
        <ele>537.813416</ele>
        <time>2016-05-22T08:04:46Z</time>
      </trkpt>
      <trkpt lat="45.84676" lon="4.8034">
        <ele>537.989197</ele>
        <time>2016-05-22T08:04:48Z</time>
      </trkpt>
      <trkpt lat="45.84673" lon="4.80337">
        <ele>538.246826</ele>
        <time>2016-05-22T08:04:50Z</time>
      </trkpt>
      <trkpt lat="45.8467" lon="4.80334">
        <ele>538.587402</ele>
        <time>2016-05-22T08:04:52Z</time>
      </trkpt>
      <trkpt lat="45.84667" lon="4.80331">
        <ele>538.873108</ele>
        <time>2016-05-22T08:04:54Z</time>
      </trkpt>
      <trkpt lat="45.84665" lon="4.80329">
        <ele>539.11438</ele>
        <time>2016-05-22T08:04:56Z</time>
      </trkpt>
      <trkpt lat="45.84662" lon="4.80325">
        <ele>539.448425</ele>
        <time>2016-05-22T08:04:58Z</time>
      </trkpt>
      <trkpt lat="45.84659" lon="4.80321">
        <ele>539.745117</ele>
        <time>2016-05-22T08:05:00Z</time>
      </trkpt>
      <trkpt lat="45.84657" lon="4.80317">
        <ele>539.892334</ele>
        <time>2016-05-22T08:05:02Z</time>
      </trkpt>
      <trkpt lat="45.84654" lon="4.80314">
        <ele>540.150208</ele>
        <time>2016-05-22T08:05:04Z</time>
      </trkpt>
      <trkpt lat="45.84651" lon="4.80311">
        <ele>540.537048</ele>
        <time>2016-05-22T08:05:06Z</time>
      </trkpt>
      <trkpt lat="45.84648" lon="4.80307">
        <ele>540.837585</ele>
        <time>2016-05-22T08:05:08Z</time>
      </trkpt>
      <trkpt lat="45.84644" lon="4.80303">
        <ele>541.11676</ele>
        <time>2016-05-22T08:05:10Z</time>
      </trkpt>
      <trkpt lat="45.84641" lon="4.80299">
        <ele>541.457397</ele>
        <time>2016-05-22T08:05:12Z</time>
      </trkpt>
      <trkpt lat="45.84636" lon="4.80297">
        <ele>541.821777</ele>
        <time>2016-05-22T08:05:14Z</time>
      </trkpt>
      <trkpt lat="45.84631" lon="4.80294">
        <ele>541.975647</ele>
        <time>2016-05-22T08:05:16Z</time>
      </trkpt>
      <trkpt lat="45.84627" lon="4.80291">
        <ele>542.324158</ele>
        <time>2016-05-22T08:05:18Z</time>
      </trkpt>
      <trkpt lat="45.84621" lon="4.80289">
        <ele>542.664917</ele>
        <time>2016-05-22T08:05:20Z</time>
      </trkpt>
      <trkpt lat="45.84615" lon="4.80287">
        <ele>542.987976</ele>
        <time>2016-05-22T08:05:22Z</time>
      </trkpt>
      <trkpt lat="45.84608" lon="4.80285">
        <ele>543.289124</ele>
        <time>2016-05-22T08:05:24Z</time>
      </trkpt>
      <trkpt lat="45.84602" lon="4.80282">
        <ele>543.493774</ele>
        <time>2016-05-22T08:05:26Z</time>
      </trkpt>
      <trkpt lat="45.84595" lon="4.80278">
        <ele>543.751953</ele>
        <time>2016-05-22T08:05:28Z</time>
      </trkpt>
      <trkpt lat="45.84589" lon="4.80274">
        <ele>544.042114</ele>
        <time>2016-05-22T08:05:30Z</time>
      </trkpt>
      <trkpt lat="45.84583" lon="4.80271">
        <ele>544.162964</ele>
        <time>2016-05-22T08:05:32Z</time>
      </trkpt>
      <trkpt lat="45.84576" lon="4.80268">
        <ele>544.280334</ele>
        <time>2016-05-22T08:05:34Z</time>
      </trkpt>
      <trkpt lat="45.8457" lon="4.80266">
        <ele>544.478149</ele>
        <time>2016-05-22T08:05:36Z</time>
      </trkpt>
      <trkpt lat="45.84564" lon="4.80266">
        <ele>544.796875</ele>
        <time>2016-05-22T08:05:38Z</time>
      </trkpt>
      <trkpt lat="45.84559" lon="4.80267">
        <ele>544.893677</ele>
        <time>2016-05-22T08:05:40Z</time>
      </trkpt>
      <trkpt lat="45.84554" lon="4.80267">
        <ele>544.927124</ele>
        <time>2016-05-22T08:05:42Z</time>
      </trkpt>
      <trkpt lat="45.84549" lon="4.80267">
        <ele>545.164673</ele>
        <time>2016-05-22T08:05:44Z</time>
      </trkpt>
      <trkpt lat="45.84544" lon="4.80267">
        <ele>545.26062</ele>
        <time>2016-05-22T08:05:46Z</time>
      </trkpt>
      <trkpt lat="45.84539" lon="4.80266">
        <ele>545.368347</ele>
        <time>2016-05-22T08:05:48Z</time>
      </trkpt>
      <trkpt lat="45.84535" lon="4.80265">
        <ele>545.441589</ele>
        <time>2016-05-22T08:05:50Z</time>
      </trkpt>
      <trkpt lat="45.8453" lon="4.80263">
        <ele>545.569153</ele>
        <time>2016-05-22T08:05:52Z</time>
      </trkpt>
      <trkpt lat="45.84526" lon="4.8026">
        <ele>545.780151</ele>
        <time>2016-05-22T08:05:54Z</time>
      </trkpt>
      <trkpt lat="45.84522" lon="4.80258">
        <ele>545.84668</ele>
        <time>2016-05-22T08:05:56Z</time>
      </trkpt>
      <trkpt lat="45.84518" lon="4.80255">
        <ele>546.068726</ele>
        <time>2016-05-22T08:05:58Z</time>
      </trkpt>
      <trkpt lat="45.84514" lon="4.80251">
        <ele>546.326294</ele>
        <time>2016-05-22T08:06:00Z</time>
      </trkpt>
      <trkpt lat="45.8451" lon="4.80249">
        <ele>546.38562</ele>
        <time>2016-05-22T08:06:02Z</time>
      </trkpt>
      <trkpt lat="45.84507" lon="4.80246">
        <ele>546.647339</ele>
        <time>2016-05-22T08:06:04Z</time>
      </trkpt>
      <trkpt lat="45.84503" lon="4.80242">
        <ele>546.869446</ele>
        <time>2016-05-22T08:06:06Z</time>
      </trkpt>
      <trkpt lat="45.845" lon="4.80239">
        <ele>546.977234</ele>
        <time>2016-05-22T08:06:08Z</time>
      </trkpt>
      <trkpt lat="45.84497" lon="4.80237">
        <ele>547.31311</ele>
        <time>2016-05-22T08:06:10Z</time>
      </trkpt>
      <trkpt lat="45.84494" lon="4.80234">
        <ele>547.569519</ele>
        <time>2016-05-22T08:06:12Z</time>
      </trkpt>
      <trkpt lat="45.84491" lon="4.80231">
        <ele>547.472961</ele>
        <time>2016-05-22T08:06:14Z</time>
      </trkpt>
      <trkpt lat="45.84488" lon="4.80228">
        <ele>547.951538</ele>
        <time>2016-05-22T08:06:16Z</time>
      </trkpt>
      <trkpt lat="45.84485" lon="4.80224">
        <ele>548.259521</ele>
        <time>2016-05-22T08:06:18Z</time>
      </trkpt>
      <trkpt lat="45.84483" lon="4.80222">
        <ele>548.473694</ele>
        <time>2016-05-22T08:06:20Z</time>
      </trkpt>
      <trkpt lat="45.8448" lon="4.80218">
        <ele>548.896057</ele>
        <time>2016-05-22T08:06:22Z</time>
      </trkpt>
      <trkpt lat="45.84478" lon="4.80215">
        <ele>549.434448</ele>
        <time>2016-05-22T08:06:24Z</time>
      </trkpt>
      <trkpt lat="45.84477" lon="4.80212">
        <ele>549.616943</ele>
        <time>2016-05-22T08:06:26Z</time>
      </trkpt>
      <trkpt lat="45.84475" lon="4.80208">
        <ele>549.912476</ele>
        <time>2016-05-22T08:06:28Z</time>
      </trkpt>
      <trkpt lat="45.84473" lon="4.80206">
        <ele>550.202881</ele>
        <time>2016-05-22T08:06:30Z</time>
      </trkpt>
      <trkpt lat="45.8447" lon="4.80202">
        <ele>550.567444</ele>
        <time>2016-05-22T08:06:32Z</time>
      </trkpt>
      <trkpt lat="45.84469" lon="4.80199">
        <ele>550.901794</ele>
        <time>2016-05-22T08:06:34Z</time>
      </trkpt>
      <trkpt lat="45.84468" lon="4.80194">
        <ele>551.229553</ele>
        <time>2016-05-22T08:06:36Z</time>
      </trkpt>
      <trkpt lat="45.84465" lon="4.8019">
        <ele>551.480408</ele>
        <time>2016-05-22T08:06:38Z</time>
      </trkpt>
      <trkpt lat="45.84463" lon="4.80185">
        <ele>551.889526</ele>
        <time>2016-05-22T08:06:40Z</time>
      </trkpt>
      <trkpt lat="45.84461" lon="4.80181">
        <ele>552.105103</ele>
        <time>2016-05-22T08:06:42Z</time>
      </trkpt>
      <trkpt lat="45.84459" lon="4.80176">
        <ele>552.514282</ele>
        <time>2016-05-22T08:06:44Z</time>
      </trkpt>
      <trkpt lat="45.84457" lon="4.80174">
        <ele>552.859436</ele>
        <time>2016-05-22T08:06:46Z</time>
      </trkpt>
      <trkpt lat="45.84454" lon="4.80172">
        <ele>553.158081</ele>
        <time>2016-05-22T08:06:48Z</time>
      </trkpt>
      <trkpt lat="45.84449" lon="4.80171">
        <ele>553.477112</ele>
        <time>2016-05-22T08:06:50Z</time>
      </trkpt>
      <trkpt lat="45.84443" lon="4.80171">
        <ele>553.6604</ele>
        <time>2016-05-22T08:06:52Z</time>
      </trkpt>
      <trkpt lat="45.84436" lon="4.8017">
        <ele>553.92749</ele>
        <time>2016-05-22T08:06:54Z</time>
      </trkpt>
      <trkpt lat="45.84429" lon="4.80166">
        <ele>554.253174</ele>
        <time>2016-05-22T08:06:56Z</time>
      </trkpt>
      <trkpt lat="45.84424" lon="4.80161">
        <ele>554.789673</ele>
        <time>2016-05-22T08:06:58Z</time>
      </trkpt>
      <trkpt lat="45.84419" lon="4.80158">
        <ele>555.025146</ele>
        <time>2016-05-22T08:07:00Z</time>
      </trkpt>
      <trkpt lat="45.84413" lon="4.80155">
        <ele>555.365601</ele>
        <time>2016-05-22T08:07:02Z</time>
      </trkpt>
      <trkpt lat="45.84407" lon="4.80153">
        <ele>555.455017</ele>
        <time>2016-05-22T08:07:04Z</time>
      </trkpt>
      <trkpt lat="45.844" lon="4.8015">
        <ele>555.569458</ele>
        <time>2016-05-22T08:07:06Z</time>
      </trkpt>
      <trkpt lat="45.84394" lon="4.80148">
        <ele>555.783081</ele>
        <time>2016-05-22T08:07:08Z</time>
      </trkpt>
      <trkpt lat="45.84388" lon="4.80145">
        <ele>555.984741</ele>
        <time>2016-05-22T08:07:10Z</time>
      </trkpt>
      <trkpt lat="45.84382" lon="4.80143">
        <ele>556.281372</ele>
        <time>2016-05-22T08:07:12Z</time>
      </trkpt>
      <trkpt lat="45.84376" lon="4.80141">
        <ele>556.611572</ele>
        <time>2016-05-22T08:07:14Z</time>
      </trkpt>
      <trkpt lat="45.8437" lon="4.8014">
        <ele>556.913147</ele>
        <time>2016-05-22T08:07:16Z</time>
      </trkpt>
      <trkpt lat="45.84363" lon="4.80137">
        <ele>557.183533</ele>
        <time>2016-05-22T08:07:18Z</time>
      </trkpt>
      <trkpt lat="45.84353" lon="4.80134">
        <ele>557.436768</ele>
        <time>2016-05-22T08:07:21Z</time>
      </trkpt>
      <trkpt lat="45.84347" lon="4.80132">
        <ele>557.482971</ele>
        <time>2016-05-22T08:07:23Z</time>
      </trkpt>
      <trkpt lat="45.8434" lon="4.8013">
        <ele>557.689392</ele>
        <time>2016-05-22T08:07:25Z</time>
      </trkpt>
      <trkpt lat="45.84334" lon="4.80127">
        <ele>557.891052</ele>
        <time>2016-05-22T08:07:27Z</time>
      </trkpt>
      <trkpt lat="45.84328" lon="4.80125">
        <ele>558.043213</ele>
        <time>2016-05-22T08:07:29Z</time>
      </trkpt>
      <trkpt lat="45.84322" lon="4.80123">
        <ele>558.180298</ele>
        <time>2016-05-22T08:07:31Z</time>
      </trkpt>
      <trkpt lat="45.84315" lon="4.80121">
        <ele>558.42688</ele>
        <time>2016-05-22T08:07:33Z</time>
      </trkpt>
      <trkpt lat="45.84308" lon="4.80119">
        <ele>558.528381</ele>
        <time>2016-05-22T08:07:35Z</time>
      </trkpt>
      <trkpt lat="45.84301" lon="4.80117">
        <ele>558.62915</ele>
        <time>2016-05-22T08:07:37Z</time>
      </trkpt>
      <trkpt lat="45.84294" lon="4.80114">
        <ele>558.946167</ele>
        <time>2016-05-22T08:07:39Z</time>
      </trkpt>
      <trkpt lat="45.84287" lon="4.80112">
        <ele>558.959351</ele>
        <time>2016-05-22T08:07:41Z</time>
      </trkpt>
      <trkpt lat="45.8428" lon="4.8011">
        <ele>559.11853</ele>
        <time>2016-05-22T08:07:43Z</time>
      </trkpt>
      <trkpt lat="45.84274" lon="4.80107">
        <ele>559.272766</ele>
        <time>2016-05-22T08:07:45Z</time>
      </trkpt>
      <trkpt lat="45.84268" lon="4.80105">
        <ele>559.431152</ele>
        <time>2016-05-22T08:07:47Z</time>
      </trkpt>
      <trkpt lat="45.84261" lon="4.80102">
        <ele>559.508972</ele>
        <time>2016-05-22T08:07:49Z</time>
      </trkpt>
      <trkpt lat="45.84255" lon="4.801">
        <ele>559.821655</ele>
        <time>2016-05-22T08:07:51Z</time>
      </trkpt>
      <trkpt lat="45.84249" lon="4.80098">
        <ele>559.749146</ele>
        <time>2016-05-22T08:07:53Z</time>
      </trkpt>
      <trkpt lat="45.84242" lon="4.80095">
        <ele>560.057922</ele>
        <time>2016-05-22T08:07:55Z</time>
      </trkpt>
      <trkpt lat="45.84235" lon="4.80093">
        <ele>560.330933</ele>
        <time>2016-05-22T08:07:57Z</time>
      </trkpt>
      <trkpt lat="45.84229" lon="4.80091">
        <ele>560.49646</ele>
        <time>2016-05-22T08:07:59Z</time>
      </trkpt>
      <trkpt lat="45.84221" lon="4.8009">
        <ele>560.615417</ele>
        <time>2016-05-22T08:08:01Z</time>
      </trkpt>
      <trkpt lat="45.84214" lon="4.80089">
        <ele>560.93689</ele>
        <time>2016-05-22T08:08:03Z</time>
      </trkpt>
      <trkpt lat="45.84208" lon="4.80088">
        <ele>561.102173</ele>
        <time>2016-05-22T08:08:05Z</time>
      </trkpt>
      <trkpt lat="45.84201" lon="4.80086">
        <ele>561.214478</ele>
        <time>2016-05-22T08:08:07Z</time>
      </trkpt>
      <trkpt lat="45.84195" lon="4.80084">
        <ele>561.557251</ele>
        <time>2016-05-22T08:08:09Z</time>
      </trkpt>
      <trkpt lat="45.84189" lon="4.80082">
        <ele>561.874329</ele>
        <time>2016-05-22T08:08:11Z</time>
      </trkpt>
      <trkpt lat="45.84182" lon="4.80081">
        <ele>562.22229</ele>
        <time>2016-05-22T08:08:13Z</time>
      </trkpt>
      <trkpt lat="45.84176" lon="4.8008">
        <ele>562.607788</ele>
        <time>2016-05-22T08:08:15Z</time>
      </trkpt>
      <trkpt lat="45.84169" lon="4.80078">
        <ele>563.08136</ele>
        <time>2016-05-22T08:08:17Z</time>
      </trkpt>
      <trkpt lat="45.84164" lon="4.80077">
        <ele>563.473816</ele>
        <time>2016-05-22T08:08:19Z</time>
      </trkpt>
      <trkpt lat="45.84158" lon="4.80076">
        <ele>563.619263</ele>
        <time>2016-05-22T08:08:21Z</time>
      </trkpt>
      <trkpt lat="45.84152" lon="4.80075">
        <ele>563.959167</ele>
        <time>2016-05-22T08:08:23Z</time>
      </trkpt>
      <trkpt lat="45.84146" lon="4.80074">
        <ele>564.294006</ele>
        <time>2016-05-22T08:08:25Z</time>
      </trkpt>
      <trkpt lat="45.8414" lon="4.80074">
        <ele>564.734558</ele>
        <time>2016-05-22T08:08:27Z</time>
      </trkpt>
      <trkpt lat="45.84134" lon="4.80072">
        <ele>565.267639</ele>
        <time>2016-05-22T08:08:29Z</time>
      </trkpt>
      <trkpt lat="45.84127" lon="4.80072">
        <ele>565.59491</ele>
        <time>2016-05-22T08:08:31Z</time>
      </trkpt>
      <trkpt lat="45.8412" lon="4.80072">
        <ele>565.826233</ele>
        <time>2016-05-22T08:08:33Z</time>
      </trkpt>
      <trkpt lat="45.84113" lon="4.80073">
        <ele>566.339417</ele>
        <time>2016-05-22T08:08:35Z</time>
      </trkpt>
      <trkpt lat="45.84105" lon="4.80074">
        <ele>566.43634</ele>
        <time>2016-05-22T08:08:37Z</time>
      </trkpt>
      <trkpt lat="45.84096" lon="4.80074">
        <ele>566.427551</ele>
        <time>2016-05-22T08:08:39Z</time>
      </trkpt>
      <trkpt lat="45.8409" lon="4.80073">
        <ele>566.623474</ele>
        <time>2016-05-22T08:08:41Z</time>
      </trkpt>
      <trkpt lat="45.84086" lon="4.80072">
        <ele>566.834656</ele>
        <time>2016-05-22T08:08:43Z</time>
      </trkpt>
      <trkpt lat="45.84083" lon="4.80072">
        <ele>567.053162</ele>
        <time>2016-05-22T08:08:47Z</time>
      </trkpt>
      <trkpt lat="45.8408" lon="4.80072">
        <ele>567.220947</ele>
        <time>2016-05-22T08:08:49Z</time>
      </trkpt>
      <trkpt lat="45.84078" lon="4.80072">
        <ele>567.180847</ele>
        <time>2016-05-22T08:08:51Z</time>
      </trkpt>
      <trkpt lat="45.84077" lon="4.80073">
        <ele>567.233765</ele>
        <time>2016-05-22T08:08:53Z</time>
      </trkpt>
      <trkpt lat="45.84075" lon="4.80074">
        <ele>566.488892</ele>
        <time>2016-05-22T08:09:16Z</time>
      </trkpt>
      <trkpt lat="45.84071" lon="4.80074">
        <ele>566.125549</ele>
        <time>2016-05-22T08:09:37Z</time>
      </trkpt>
      <trkpt lat="45.84061" lon="4.80076">
        <ele>566.014832</ele>
        <time>2016-05-22T08:09:39Z</time>
      </trkpt>
      <trkpt lat="45.84052" lon="4.80077">
        <ele>565.945435</ele>
        <time>2016-05-22T08:09:41Z</time>
      </trkpt>
      <trkpt lat="45.84041" lon="4.80079">
        <ele>565.734558</ele>
        <time>2016-05-22T08:09:43Z</time>
      </trkpt>
      <trkpt lat="45.84027" lon="4.80079">
        <ele>565.437195</ele>
        <time>2016-05-22T08:09:45Z</time>
      </trkpt>
      <trkpt lat="45.84011" lon="4.80078">
        <ele>565.073853</ele>
        <time>2016-05-22T08:09:47Z</time>
      </trkpt>
      <trkpt lat="45.83995" lon="4.80069">
        <ele>564.362671</ele>
        <time>2016-05-22T08:09:49Z</time>
      </trkpt>
      <trkpt lat="45.83983" lon="4.8005">
        <ele>564.121948</ele>
        <time>2016-05-22T08:09:51Z</time>
      </trkpt>
      <trkpt lat="45.83977" lon="4.80025">
        <ele>563.562134</ele>
        <time>2016-05-22T08:09:53Z</time>
      </trkpt>
      <trkpt lat="45.83972" lon="4.8">
        <ele>563.005798</ele>
        <time>2016-05-22T08:09:55Z</time>
      </trkpt>
      <trkpt lat="45.83964" lon="4.79974">
        <ele>561.995483</ele>
        <time>2016-05-22T08:09:57Z</time>
      </trkpt>
      <trkpt lat="45.83952" lon="4.7995">
        <ele>561.422974</ele>
        <time>2016-05-22T08:09:59Z</time>
      </trkpt>
      <trkpt lat="45.83936" lon="4.79928">
        <ele>560.782776</ele>
        <time>2016-05-22T08:10:01Z</time>
      </trkpt>
      <trkpt lat="45.83917" lon="4.79907">
        <ele>559.480408</ele>
        <time>2016-05-22T08:10:03Z</time>
      </trkpt>
      <trkpt lat="45.83894" lon="4.79895">
        <ele>558.339966</ele>
        <time>2016-05-22T08:10:05Z</time>
      </trkpt>
      <trkpt lat="45.83874" lon="4.79892">
        <ele>556.854553</ele>
        <time>2016-05-22T08:10:07Z</time>
      </trkpt>
      <trkpt lat="45.83854" lon="4.7989">
        <ele>555.517029</ele>
        <time>2016-05-22T08:10:09Z</time>
      </trkpt>
      <trkpt lat="45.83832" lon="4.79895">
        <ele>553.88501</ele>
        <time>2016-05-22T08:10:11Z</time>
      </trkpt>
      <trkpt lat="45.8381" lon="4.79903">
        <ele>552.074951</ele>
        <time>2016-05-22T08:10:13Z</time>
      </trkpt>
      <trkpt lat="45.83793" lon="4.7991">
        <ele>550.214905</ele>
        <time>2016-05-22T08:10:15Z</time>
      </trkpt>
      <trkpt lat="45.83783" lon="4.79914">
        <ele>548.30188</ele>
        <time>2016-05-22T08:10:17Z</time>
      </trkpt>
      <trkpt lat="45.83777" lon="4.79913">
        <ele>547.432983</ele>
        <time>2016-05-22T08:10:19Z</time>
      </trkpt>
      <trkpt lat="45.83772" lon="4.7991">
        <ele>545.625061</ele>
        <time>2016-05-22T08:10:21Z</time>
      </trkpt>
      <trkpt lat="45.83767" lon="4.79909">
        <ele>543.723694</ele>
        <time>2016-05-22T08:10:23Z</time>
      </trkpt>
      <trkpt lat="45.83762" lon="4.79909">
        <ele>541.904846</ele>
        <time>2016-05-22T08:10:25Z</time>
      </trkpt>
      <trkpt lat="45.83759" lon="4.7991">
        <ele>540.218018</ele>
        <time>2016-05-22T08:10:27Z</time>
      </trkpt>
      <trkpt lat="45.83754" lon="4.7991">
        <ele>538.547546</ele>
        <time>2016-05-22T08:10:29Z</time>
      </trkpt>
      <trkpt lat="45.83749" lon="4.7991">
        <ele>537.278381</ele>
        <time>2016-05-22T08:10:31Z</time>
      </trkpt>
      <trkpt lat="45.83741" lon="4.7991">
        <ele>535.434692</ele>
        <time>2016-05-22T08:10:33Z</time>
      </trkpt>
      <trkpt lat="45.83734" lon="4.7991">
        <ele>533.951599</ele>
        <time>2016-05-22T08:10:35Z</time>
      </trkpt>
      <trkpt lat="45.83726" lon="4.79909">
        <ele>532.333557</ele>
        <time>2016-05-22T08:10:37Z</time>
      </trkpt>
      <trkpt lat="45.83716" lon="4.79909">
        <ele>531.806274</ele>
        <time>2016-05-22T08:10:39Z</time>
      </trkpt>
      <trkpt lat="45.83704" lon="4.7991">
        <ele>530.377014</ele>
        <time>2016-05-22T08:10:41Z</time>
      </trkpt>
      <trkpt lat="45.83692" lon="4.7991">
        <ele>529.155579</ele>
        <time>2016-05-22T08:10:43Z</time>
      </trkpt>
      <trkpt lat="45.8368" lon="4.7991">
        <ele>528.191406</ele>
        <time>2016-05-22T08:10:45Z</time>
      </trkpt>
      <trkpt lat="45.83667" lon="4.7991">
        <ele>527.054504</ele>
        <time>2016-05-22T08:10:47Z</time>
      </trkpt>
      <trkpt lat="45.83653" lon="4.79911">
        <ele>526.187439</ele>
        <time>2016-05-22T08:10:49Z</time>
      </trkpt>
      <trkpt lat="45.83638" lon="4.79912">
        <ele>525.179382</ele>
        <time>2016-05-22T08:10:51Z</time>
      </trkpt>
      <trkpt lat="45.83622" lon="4.79911">
        <ele>524.424438</ele>
        <time>2016-05-22T08:10:53Z</time>
      </trkpt>
      <trkpt lat="45.83605" lon="4.79911">
        <ele>523.689453</ele>
        <time>2016-05-22T08:10:55Z</time>
      </trkpt>
      <trkpt lat="45.83589" lon="4.7991">
        <ele>523.088379</ele>
        <time>2016-05-22T08:10:57Z</time>
      </trkpt>
      <trkpt lat="45.83571" lon="4.79912">
        <ele>522.458862</ele>
        <time>2016-05-22T08:10:59Z</time>
      </trkpt>
      <trkpt lat="45.83553" lon="4.79912">
        <ele>521.562866</ele>
        <time>2016-05-22T08:11:01Z</time>
      </trkpt>
      <trkpt lat="45.83537" lon="4.79913">
        <ele>521.098022</ele>
        <time>2016-05-22T08:11:03Z</time>
      </trkpt>
      <trkpt lat="45.8352" lon="4.79917">
        <ele>520.480225</ele>
        <time>2016-05-22T08:11:05Z</time>
      </trkpt>
      <trkpt lat="45.83504" lon="4.7992">
        <ele>519.692993</ele>
        <time>2016-05-22T08:11:07Z</time>
      </trkpt>
      <trkpt lat="45.83487" lon="4.79926">
        <ele>518.805542</ele>
        <time>2016-05-22T08:11:09Z</time>
      </trkpt>
      <trkpt lat="45.8347" lon="4.79933">
        <ele>518.180542</ele>
        <time>2016-05-22T08:11:11Z</time>
      </trkpt>
      <trkpt lat="45.83452" lon="4.79939">
        <ele>517.316528</ele>
        <time>2016-05-22T08:11:13Z</time>
      </trkpt>
      <trkpt lat="45.83435" lon="4.79944">
        <ele>516.458862</ele>
        <time>2016-05-22T08:11:15Z</time>
      </trkpt>
      <trkpt lat="45.83419" lon="4.7995">
        <ele>515.224792</ele>
        <time>2016-05-22T08:11:17Z</time>
      </trkpt>
      <trkpt lat="45.83403" lon="4.79956">
        <ele>514.50354</ele>
        <time>2016-05-22T08:11:19Z</time>
      </trkpt>
      <trkpt lat="45.83391" lon="4.7996">
        <ele>513.500854</ele>
        <time>2016-05-22T08:11:21Z</time>
      </trkpt>
      <trkpt lat="45.83384" lon="4.79961">
        <ele>512.8302</ele>
        <time>2016-05-22T08:11:23Z</time>
      </trkpt>
      <trkpt lat="45.83378" lon="4.7996">
        <ele>512.201172</ele>
        <time>2016-05-22T08:11:25Z</time>
      </trkpt>
      <trkpt lat="45.83371" lon="4.79956">
        <ele>511.541412</ele>
        <time>2016-05-22T08:11:27Z</time>
      </trkpt>
      <trkpt lat="45.83362" lon="4.79957">
        <ele>510.794373</ele>
        <time>2016-05-22T08:11:29Z</time>
      </trkpt>
      <trkpt lat="45.83351" lon="4.7996">
        <ele>509.911438</ele>
        <time>2016-05-22T08:11:31Z</time>
      </trkpt>
      <trkpt lat="45.83338" lon="4.79965">
        <ele>509.162292</ele>
        <time>2016-05-22T08:11:33Z</time>
      </trkpt>
      <trkpt lat="45.83326" lon="4.79968">
        <ele>508.463226</ele>
        <time>2016-05-22T08:11:35Z</time>
      </trkpt>
      <trkpt lat="45.83315" lon="4.79968">
        <ele>507.9505</ele>
        <time>2016-05-22T08:11:37Z</time>
      </trkpt>
      <trkpt lat="45.83307" lon="4.79966">
        <ele>507.236176</ele>
        <time>2016-05-22T08:11:39Z</time>
      </trkpt>
      <trkpt lat="45.83303" lon="4.79967">
        <ele>507.051697</ele>
        <time>2016-05-22T08:11:41Z</time>
      </trkpt>
      <trkpt lat="45.83301" lon="4.7997">
        <ele>506.417725</ele>
        <time>2016-05-22T08:11:45Z</time>
      </trkpt>
      <trkpt lat="45.83298" lon="4.79971">
        <ele>506.097961</ele>
        <time>2016-05-22T08:11:47Z</time>
      </trkpt>
      <trkpt lat="45.83295" lon="4.7997">
        <ele>505.576721</ele>
        <time>2016-05-22T08:11:49Z</time>
      </trkpt>
      <trkpt lat="45.83291" lon="4.79969">
        <ele>505.221863</ele>
        <time>2016-05-22T08:11:51Z</time>
      </trkpt>
      <trkpt lat="45.83289" lon="4.79968">
        <ele>505.026917</ele>
        <time>2016-05-22T08:11:53Z</time>
      </trkpt>
      <trkpt lat="45.83286" lon="4.79969">
        <ele>504.62384</ele>
        <time>2016-05-22T08:11:55Z</time>
      </trkpt>
      <trkpt lat="45.83283" lon="4.79971">
        <ele>504.136383</ele>
        <time>2016-05-22T08:11:57Z</time>
      </trkpt>
      <trkpt lat="45.83281" lon="4.79972">
        <ele>503.781921</ele>
        <time>2016-05-22T08:11:59Z</time>
      </trkpt>
      <trkpt lat="45.83278" lon="4.79975">
        <ele>503.956482</ele>
        <time>2016-05-22T08:12:01Z</time>
      </trkpt>
      <trkpt lat="45.83273" lon="4.79979">
        <ele>503.492493</ele>
        <time>2016-05-22T08:12:03Z</time>
      </trkpt>
      <trkpt lat="45.8327" lon="4.79984">
        <ele>503.004211</ele>
        <time>2016-05-22T08:12:05Z</time>
      </trkpt>
      <trkpt lat="45.83264" lon="4.79988">
        <ele>502.618988</ele>
        <time>2016-05-22T08:12:07Z</time>
      </trkpt>
      <trkpt lat="45.8326" lon="4.7999">
        <ele>502.627747</ele>
        <time>2016-05-22T08:12:09Z</time>
      </trkpt>
      <trkpt lat="45.83258" lon="4.79989">
        <ele>502.393311</ele>
        <time>2016-05-22T08:12:11Z</time>
      </trkpt>
      <trkpt lat="45.83255" lon="4.79989">
        <ele>502.290039</ele>
        <time>2016-05-22T08:12:13Z</time>
      </trkpt>
      <trkpt lat="45.83253" lon="4.7999">
        <ele>502.18042</ele>
        <time>2016-05-22T08:12:15Z</time>
      </trkpt>
      <trkpt lat="45.8325" lon="4.7999">
        <ele>501.98053</ele>
        <time>2016-05-22T08:12:22Z</time>
      </trkpt>
      <trkpt lat="45.83247" lon="4.79991">
        <ele>501.93457</ele>
        <time>2016-05-22T08:12:24Z</time>
      </trkpt>
      <trkpt lat="45.83246" lon="4.79993">
        <ele>501.829346</ele>
        <time>2016-05-22T08:12:28Z</time>
      </trkpt>
      <trkpt lat="45.83243" lon="4.79997">
        <ele>501.752747</ele>
        <time>2016-05-22T08:12:30Z</time>
      </trkpt>
      <trkpt lat="45.83239" lon="4.80001">
        <ele>501.683929</ele>
        <time>2016-05-22T08:12:32Z</time>
      </trkpt>
      <trkpt lat="45.83236" lon="4.80005">
        <ele>501.473785</ele>
        <time>2016-05-22T08:12:34Z</time>
      </trkpt>
      <trkpt lat="45.83233" lon="4.80011">
        <ele>501.495758</ele>
        <time>2016-05-22T08:12:36Z</time>
      </trkpt>
      <trkpt lat="45.83232" lon="4.80016">
        <ele>501.611511</ele>
        <time>2016-05-22T08:12:38Z</time>
      </trkpt>
      <trkpt lat="45.83231" lon="4.80019">
        <ele>501.655334</ele>
        <time>2016-05-22T08:12:40Z</time>
      </trkpt>
      <trkpt lat="45.83229" lon="4.80022">
        <ele>501.591797</ele>
        <time>2016-05-22T08:12:42Z</time>
      </trkpt>
      <trkpt lat="45.83228" lon="4.80023">
        <ele>501.548584</ele>
        <time>2016-05-22T08:12:44Z</time>
      </trkpt>
      <trkpt lat="45.83225" lon="4.80026">
        <ele>502.005188</ele>
        <time>2016-05-22T08:12:48Z</time>
      </trkpt>
      <trkpt lat="45.83221" lon="4.80027">
        <ele>502.326172</ele>
        <time>2016-05-22T08:12:50Z</time>
      </trkpt>
      <trkpt lat="45.8322" lon="4.80026">
        <ele>502.164154</ele>
        <time>2016-05-22T08:12:52Z</time>
      </trkpt>
      <trkpt lat="45.8322" lon="4.80026">
        <ele>502.284607</ele>
        <time>2016-05-22T08:12:54Z</time>
      </trkpt>
      <trkpt lat="45.83219" lon="4.80025">
        <ele>502.280457</ele>
        <time>2016-05-22T08:12:56Z</time>
      </trkpt>
      <trkpt lat="45.83218" lon="4.80024">
        <ele>502.491211</ele>
        <time>2016-05-22T08:12:58Z</time>
      </trkpt>
      <trkpt lat="45.83216" lon="4.80022">
        <ele>502.640381</ele>
        <time>2016-05-22T08:13:00Z</time>
      </trkpt>
      <trkpt lat="45.83214" lon="4.8002">
        <ele>502.722809</ele>
        <time>2016-05-22T08:13:02Z</time>
      </trkpt>
      <trkpt lat="45.83213" lon="4.8002">
        <ele>503.132233</ele>
        <time>2016-05-22T08:13:06Z</time>
      </trkpt>
      <trkpt lat="45.83214" lon="4.80017">
        <ele>503.247467</ele>
        <time>2016-05-22T08:13:08Z</time>
      </trkpt>
      <trkpt lat="45.83213" lon="4.80014">
        <ele>503.614807</ele>
        <time>2016-05-22T08:13:12Z</time>
      </trkpt>
      <trkpt lat="45.83212" lon="4.80012">
        <ele>503.998047</ele>
        <time>2016-05-22T08:13:14Z</time>
      </trkpt>
      <trkpt lat="45.83212" lon="4.8001">
        <ele>504.291443</ele>
        <time>2016-05-22T08:13:16Z</time>
      </trkpt>
      <trkpt lat="45.83212" lon="4.80007">
        <ele>504.454926</ele>
        <time>2016-05-22T08:13:18Z</time>
      </trkpt>
      <trkpt lat="45.83212" lon="4.80004">
        <ele>504.790344</ele>
        <time>2016-05-22T08:13:20Z</time>
      </trkpt>
      <trkpt lat="45.8321" lon="4.8">
        <ele>505.151703</ele>
        <time>2016-05-22T08:13:22Z</time>
      </trkpt>
      <trkpt lat="45.83209" lon="4.79997">
        <ele>505.528503</ele>
        <time>2016-05-22T08:13:24Z</time>
      </trkpt>
      <trkpt lat="45.83208" lon="4.79995">
        <ele>505.920563</ele>
        <time>2016-05-22T08:13:26Z</time>
      </trkpt>
      <trkpt lat="45.83207" lon="4.79992">
        <ele>506.339691</ele>
        <time>2016-05-22T08:13:28Z</time>
      </trkpt>
      <trkpt lat="45.83205" lon="4.7999">
        <ele>506.753265</ele>
        <time>2016-05-22T08:13:30Z</time>
      </trkpt>
      <trkpt lat="45.83203" lon="4.79987">
        <ele>507.266541</ele>
        <time>2016-05-22T08:13:32Z</time>
      </trkpt>
      <trkpt lat="45.83201" lon="4.79984">
        <ele>507.890778</ele>
        <time>2016-05-22T08:13:34Z</time>
      </trkpt>
      <trkpt lat="45.83194" lon="4.79976">
        <ele>510.696228</ele>
        <time>2016-05-22T08:13:50Z</time>
      </trkpt>
      <trkpt lat="45.83193" lon="4.79974">
        <ele>511.140076</ele>
        <time>2016-05-22T08:13:52Z</time>
      </trkpt>
      <trkpt lat="45.83192" lon="4.79972">
        <ele>511.484619</ele>
        <time>2016-05-22T08:13:54Z</time>
      </trkpt>
      <trkpt lat="45.83192" lon="4.7997">
        <ele>511.719086</ele>
        <time>2016-05-22T08:13:56Z</time>
      </trkpt>
      <trkpt lat="45.83191" lon="4.79967">
        <ele>512.034912</ele>
        <time>2016-05-22T08:13:58Z</time>
      </trkpt>
      <trkpt lat="45.8319" lon="4.79965">
        <ele>512.259888</ele>
        <time>2016-05-22T08:14:00Z</time>
      </trkpt>
      <trkpt lat="45.8319" lon="4.79963">
        <ele>512.373901</ele>
        <time>2016-05-22T08:14:02Z</time>
      </trkpt>
      <trkpt lat="45.83189" lon="4.7996">
        <ele>512.64563</ele>
        <time>2016-05-22T08:14:04Z</time>
      </trkpt>
      <trkpt lat="45.83189" lon="4.79958">
        <ele>512.680725</ele>
        <time>2016-05-22T08:14:06Z</time>
      </trkpt>
      <trkpt lat="45.83187" lon="4.79955">
        <ele>512.939392</ele>
        <time>2016-05-22T08:14:10Z</time>
      </trkpt>
      <trkpt lat="45.83185" lon="4.79951">
        <ele>513.265076</ele>
        <time>2016-05-22T08:14:14Z</time>
      </trkpt>
      <trkpt lat="45.83184" lon="4.7995">
        <ele>513.418518</ele>
        <time>2016-05-22T08:14:16Z</time>
      </trkpt>
      <trkpt lat="45.83183" lon="4.79949">
        <ele>513.544067</ele>
        <time>2016-05-22T08:14:18Z</time>
      </trkpt>
      <trkpt lat="45.83181" lon="4.79948">
        <ele>513.914612</ele>
        <time>2016-05-22T08:14:22Z</time>
      </trkpt>
      <trkpt lat="45.83176" lon="4.7994">
        <ele>515.326416</ele>
        <time>2016-05-22T08:14:34Z</time>
      </trkpt>
      <trkpt lat="45.83175" lon="4.79935">
        <ele>515.957764</ele>
        <time>2016-05-22T08:14:38Z</time>
      </trkpt>
      <trkpt lat="45.83173" lon="4.79933">
        <ele>516.594727</ele>
        <time>2016-05-22T08:14:42Z</time>
      </trkpt>
      <trkpt lat="45.83169" lon="4.79927">
        <ele>518.588318</ele>
        <time>2016-05-22T08:14:54Z</time>
      </trkpt>
      <trkpt lat="45.83167" lon="4.79918">
        <ele>521.447205</ele>
        <time>2016-05-22T08:15:45Z</time>
      </trkpt>
      <trkpt lat="45.83163" lon="4.79908">
        <ele>521.376099</ele>
        <time>2016-05-22T08:15:47Z</time>
      </trkpt>
      <trkpt lat="45.83159" lon="4.79903">
        <ele>521.404053</ele>
        <time>2016-05-22T08:15:49Z</time>
      </trkpt>
      <trkpt lat="45.83156" lon="4.79897">
        <ele>521.276917</ele>
        <time>2016-05-22T08:15:51Z</time>
      </trkpt>
      <trkpt lat="45.83153" lon="4.79896">
        <ele>521.235229</ele>
        <time>2016-05-22T08:15:53Z</time>
      </trkpt>
      <trkpt lat="45.83151" lon="4.79896">
        <ele>521.167236</ele>
        <time>2016-05-22T08:15:55Z</time>
      </trkpt>
      <trkpt lat="45.83149" lon="4.79896">
        <ele>521.138733</ele>
        <time>2016-05-22T08:15:57Z</time>
      </trkpt>
      <trkpt lat="45.83148" lon="4.79894">
        <ele>521.028931</ele>
        <time>2016-05-22T08:15:59Z</time>
      </trkpt>
      <trkpt lat="45.83146" lon="4.79893">
        <ele>520.928101</ele>
        <time>2016-05-22T08:16:01Z</time>
      </trkpt>
      <trkpt lat="45.83143" lon="4.79891">
        <ele>520.69928</ele>
        <time>2016-05-22T08:16:03Z</time>
      </trkpt>
      <trkpt lat="45.83139" lon="4.7989">
        <ele>520.589539</ele>
        <time>2016-05-22T08:16:05Z</time>
      </trkpt>
      <trkpt lat="45.83135" lon="4.79891">
        <ele>520.545654</ele>
        <time>2016-05-22T08:16:07Z</time>
      </trkpt>
      <trkpt lat="45.83132" lon="4.79891">
        <ele>520.413208</ele>
        <time>2016-05-22T08:16:09Z</time>
      </trkpt>
      <trkpt lat="45.83129" lon="4.7989">
        <ele>520.165894</ele>
        <time>2016-05-22T08:16:11Z</time>
      </trkpt>
      <trkpt lat="45.83124" lon="4.7989">
        <ele>520.128601</ele>
        <time>2016-05-22T08:16:13Z</time>
      </trkpt>
      <trkpt lat="45.8312" lon="4.7989">
        <ele>519.915894</ele>
        <time>2016-05-22T08:16:15Z</time>
      </trkpt>
      <trkpt lat="45.83116" lon="4.79891">
        <ele>519.690002</ele>
        <time>2016-05-22T08:16:17Z</time>
      </trkpt>
      <trkpt lat="45.83113" lon="4.7989">
        <ele>519.563782</ele>
        <time>2016-05-22T08:16:19Z</time>
      </trkpt>
      <trkpt lat="45.8311" lon="4.79889">
        <ele>519.2052</ele>
        <time>2016-05-22T08:16:21Z</time>
      </trkpt>
      <trkpt lat="45.83107" lon="4.79889">
        <ele>518.992493</ele>
        <time>2016-05-22T08:16:23Z</time>
      </trkpt>
      <trkpt lat="45.83105" lon="4.79889">
        <ele>518.708313</ele>
        <time>2016-05-22T08:16:25Z</time>
      </trkpt>
      <trkpt lat="45.83102" lon="4.7989">
        <ele>518.675415</ele>
        <time>2016-05-22T08:16:27Z</time>
      </trkpt>
      <trkpt lat="45.83099" lon="4.7989">
        <ele>518.457031</ele>
        <time>2016-05-22T08:16:29Z</time>
      </trkpt>
      <trkpt lat="45.83097" lon="4.79891">
        <ele>518.234009</ele>
        <time>2016-05-22T08:16:31Z</time>
      </trkpt>
      <trkpt lat="45.83095" lon="4.79892">
        <ele>518.087097</ele>
        <time>2016-05-22T08:16:33Z</time>
      </trkpt>
      <trkpt lat="45.83092" lon="4.79892">
        <ele>517.907349</ele>
        <time>2016-05-22T08:16:35Z</time>
      </trkpt>
      <trkpt lat="45.83088" lon="4.79892">
        <ele>517.547485</ele>
        <time>2016-05-22T08:16:37Z</time>
      </trkpt>
      <trkpt lat="45.83084" lon="4.79891">
        <ele>516.983276</ele>
        <time>2016-05-22T08:16:39Z</time>
      </trkpt>
      <trkpt lat="45.8308" lon="4.7989">
        <ele>516.792542</ele>
        <time>2016-05-22T08:16:41Z</time>
      </trkpt>
      <trkpt lat="45.83076" lon="4.79891">
        <ele>516.59436</ele>
        <time>2016-05-22T08:16:43Z</time>
      </trkpt>
      <trkpt lat="45.83071" lon="4.79894">
        <ele>516.280945</ele>
        <time>2016-05-22T08:16:45Z</time>
      </trkpt>
      <trkpt lat="45.83067" lon="4.79895">
        <ele>516.05072</ele>
        <time>2016-05-22T08:16:47Z</time>
      </trkpt>
      <trkpt lat="45.83063" lon="4.79894">
        <ele>515.404663</ele>
        <time>2016-05-22T08:16:49Z</time>
      </trkpt>
      <trkpt lat="45.83059" lon="4.79893">
        <ele>515.061279</ele>
        <time>2016-05-22T08:16:51Z</time>
      </trkpt>
      <trkpt lat="45.83056" lon="4.79895">
        <ele>514.780701</ele>
        <time>2016-05-22T08:16:53Z</time>
      </trkpt>
      <trkpt lat="45.83051" lon="4.79898">
        <ele>514.160278</ele>
        <time>2016-05-22T08:16:55Z</time>
      </trkpt>
      <trkpt lat="45.83046" lon="4.79899">
        <ele>513.947693</ele>
        <time>2016-05-22T08:16:57Z</time>
      </trkpt>
      <trkpt lat="45.83042" lon="4.799">
        <ele>513.731506</ele>
        <time>2016-05-22T08:16:59Z</time>
      </trkpt>
      <trkpt lat="45.83037" lon="4.79902">
        <ele>513.274475</ele>
        <time>2016-05-22T08:17:01Z</time>
      </trkpt>
      <trkpt lat="45.83032" lon="4.79903">
        <ele>513.446838</ele>
        <time>2016-05-22T08:17:03Z</time>
      </trkpt>
      <trkpt lat="45.83027" lon="4.79904">
        <ele>513.01062</ele>
        <time>2016-05-22T08:17:05Z</time>
      </trkpt>
      <trkpt lat="45.8302" lon="4.79906">
        <ele>512.677368</ele>
        <time>2016-05-22T08:17:07Z</time>
      </trkpt>
      <trkpt lat="45.83015" lon="4.79908">
        <ele>512.369385</ele>
        <time>2016-05-22T08:17:09Z</time>
      </trkpt>
      <trkpt lat="45.83009" lon="4.7991">
        <ele>512.038452</ele>
        <time>2016-05-22T08:17:11Z</time>
      </trkpt>
      <trkpt lat="45.83003" lon="4.79911">
        <ele>511.424957</ele>
        <time>2016-05-22T08:17:13Z</time>
      </trkpt>
      <trkpt lat="45.82996" lon="4.79912">
        <ele>510.95816</ele>
        <time>2016-05-22T08:17:15Z</time>
      </trkpt>
      <trkpt lat="45.8299" lon="4.79914">
        <ele>510.52417</ele>
        <time>2016-05-22T08:17:17Z</time>
      </trkpt>
      <trkpt lat="45.82986" lon="4.79916">
        <ele>510.097321</ele>
        <time>2016-05-22T08:17:19Z</time>
      </trkpt>
      <trkpt lat="45.82982" lon="4.7992">
        <ele>509.922791</ele>
        <time>2016-05-22T08:17:21Z</time>
      </trkpt>
      <trkpt lat="45.82978" lon="4.79923">
        <ele>509.602112</ele>
        <time>2016-05-22T08:17:23Z</time>
      </trkpt>
      <trkpt lat="45.82974" lon="4.79923">
        <ele>509.245667</ele>
        <time>2016-05-22T08:17:25Z</time>
      </trkpt>
      <trkpt lat="45.82969" lon="4.79924">
        <ele>509.234711</ele>
        <time>2016-05-22T08:17:27Z</time>
      </trkpt>
      <trkpt lat="45.82966" lon="4.79927">
        <ele>509.068176</ele>
        <time>2016-05-22T08:17:29Z</time>
      </trkpt>
      <trkpt lat="45.82961" lon="4.79929">
        <ele>509.22998</ele>
        <time>2016-05-22T08:17:31Z</time>
      </trkpt>
      <trkpt lat="45.82955" lon="4.7993">
        <ele>509.041565</ele>
        <time>2016-05-22T08:17:33Z</time>
      </trkpt>
      <trkpt lat="45.82951" lon="4.79933">
        <ele>508.708588</ele>
        <time>2016-05-22T08:17:35Z</time>
      </trkpt>
      <trkpt lat="45.82946" lon="4.79934">
        <ele>508.461731</ele>
        <time>2016-05-22T08:17:37Z</time>
      </trkpt>
      <trkpt lat="45.82941" lon="4.79936">
        <ele>507.66449</ele>
        <time>2016-05-22T08:17:39Z</time>
      </trkpt>
      <trkpt lat="45.82938" lon="4.7994">
        <ele>507.099274</ele>
        <time>2016-05-22T08:17:41Z</time>
      </trkpt>
      <trkpt lat="45.82934" lon="4.79944">
        <ele>506.470795</ele>
        <time>2016-05-22T08:17:43Z</time>
      </trkpt>
      <trkpt lat="45.82931" lon="4.79945">
        <ele>505.468323</ele>
        <time>2016-05-22T08:17:45Z</time>
      </trkpt>
      <trkpt lat="45.82924" lon="4.79946">
        <ele>505.111328</ele>
        <time>2016-05-22T08:17:47Z</time>
      </trkpt>
      <trkpt lat="45.82918" lon="4.79948">
        <ele>504.727875</ele>
        <time>2016-05-22T08:17:49Z</time>
      </trkpt>
      <trkpt lat="45.82915" lon="4.79952">
        <ele>503.988922</ele>
        <time>2016-05-22T08:17:51Z</time>
      </trkpt>
      <trkpt lat="45.82913" lon="4.79956">
        <ele>503.844971</ele>
        <time>2016-05-22T08:17:53Z</time>
      </trkpt>
      <trkpt lat="45.82912" lon="4.79958">
        <ele>503.75946</ele>
        <time>2016-05-22T08:17:55Z</time>
      </trkpt>
      <trkpt lat="45.82907" lon="4.79961">
        <ele>502.966217</ele>
        <time>2016-05-22T08:18:01Z</time>
      </trkpt>
      <trkpt lat="45.82906" lon="4.79963">
        <ele>502.581848</ele>
        <time>2016-05-22T08:18:03Z</time>
      </trkpt>
      <trkpt lat="45.82901" lon="4.79965">
        <ele>502.09848</ele>
        <time>2016-05-22T08:18:05Z</time>
      </trkpt>
      <trkpt lat="45.82896" lon="4.7997">
        <ele>501.581726</ele>
        <time>2016-05-22T08:18:07Z</time>
      </trkpt>
      <trkpt lat="45.82893" lon="4.79972">
        <ele>501.084534</ele>
        <time>2016-05-22T08:18:09Z</time>
      </trkpt>
      <trkpt lat="45.82889" lon="4.79973">
        <ele>500.554779</ele>
        <time>2016-05-22T08:18:11Z</time>
      </trkpt>
      <trkpt lat="45.82885" lon="4.79975">
        <ele>499.985657</ele>
        <time>2016-05-22T08:18:13Z</time>
      </trkpt>
      <trkpt lat="45.82881" lon="4.79977">
        <ele>499.545502</ele>
        <time>2016-05-22T08:18:15Z</time>
      </trkpt>
      <trkpt lat="45.82876" lon="4.79977">
        <ele>499.061218</ele>
        <time>2016-05-22T08:18:17Z</time>
      </trkpt>
      <trkpt lat="45.8287" lon="4.79977">
        <ele>498.951813</ele>
        <time>2016-05-22T08:18:19Z</time>
      </trkpt>
      <trkpt lat="45.82864" lon="4.79978">
        <ele>498.864258</ele>
        <time>2016-05-22T08:18:21Z</time>
      </trkpt>
      <trkpt lat="45.82859" lon="4.79978">
        <ele>498.559509</ele>
        <time>2016-05-22T08:18:23Z</time>
      </trkpt>
      <trkpt lat="45.82855" lon="4.79976">
        <ele>498.141602</ele>
        <time>2016-05-22T08:18:25Z</time>
      </trkpt>
      <trkpt lat="45.82851" lon="4.79976">
        <ele>497.398102</ele>
        <time>2016-05-22T08:18:27Z</time>
      </trkpt>
      <trkpt lat="45.82846" lon="4.79977">
        <ele>496.587097</ele>
        <time>2016-05-22T08:18:29Z</time>
      </trkpt>
      <trkpt lat="45.8284" lon="4.79979">
        <ele>495.808441</ele>
        <time>2016-05-22T08:18:31Z</time>
      </trkpt>
      <trkpt lat="45.82835" lon="4.79984">
        <ele>495.051361</ele>
        <time>2016-05-22T08:18:33Z</time>
      </trkpt>
      <trkpt lat="45.8283" lon="4.79988">
        <ele>494.153656</ele>
        <time>2016-05-22T08:18:35Z</time>
      </trkpt>
      <trkpt lat="45.82825" lon="4.79993">
        <ele>493.102112</ele>
        <time>2016-05-22T08:18:37Z</time>
      </trkpt>
      <trkpt lat="45.8282" lon="4.79997">
        <ele>492.141937</ele>
        <time>2016-05-22T08:18:39Z</time>
      </trkpt>
      <trkpt lat="45.82814" lon="4.79998">
        <ele>491.608398</ele>
        <time>2016-05-22T08:18:41Z</time>
      </trkpt>
      <trkpt lat="45.82808" lon="4.8">
        <ele>490.48822</ele>
        <time>2016-05-22T08:18:43Z</time>
      </trkpt>
      <trkpt lat="45.828" lon="4.80002">
        <ele>489.08609</ele>
        <time>2016-05-22T08:18:45Z</time>
      </trkpt>
      <trkpt lat="45.82794" lon="4.80006">
        <ele>487.864014</ele>
        <time>2016-05-22T08:18:47Z</time>
      </trkpt>
      <trkpt lat="45.82789" lon="4.8001">
        <ele>486.639801</ele>
        <time>2016-05-22T08:18:49Z</time>
      </trkpt>
      <trkpt lat="45.82785" lon="4.80014">
        <ele>485.457458</ele>
        <time>2016-05-22T08:18:51Z</time>
      </trkpt>
      <trkpt lat="45.82782" lon="4.80018">
        <ele>484.79483</ele>
        <time>2016-05-22T08:18:53Z</time>
      </trkpt>
      <trkpt lat="45.8278" lon="4.80022">
        <ele>483.62085</ele>
        <time>2016-05-22T08:18:55Z</time>
      </trkpt>
      <trkpt lat="45.82777" lon="4.80028">
        <ele>482.777008</ele>
        <time>2016-05-22T08:18:57Z</time>
      </trkpt>
      <trkpt lat="45.82773" lon="4.80033">
        <ele>481.670746</ele>
        <time>2016-05-22T08:18:59Z</time>
      </trkpt>
      <trkpt lat="45.82768" lon="4.8004">
        <ele>480.407715</ele>
        <time>2016-05-22T08:19:01Z</time>
      </trkpt>
      <trkpt lat="45.82761" lon="4.80049">
        <ele>479.273438</ele>
        <time>2016-05-22T08:19:03Z</time>
      </trkpt>
      <trkpt lat="45.82755" lon="4.80057">
        <ele>477.846283</ele>
        <time>2016-05-22T08:19:05Z</time>
      </trkpt>
      <trkpt lat="45.82749" lon="4.80062">
        <ele>476.784607</ele>
        <time>2016-05-22T08:19:07Z</time>
      </trkpt>
      <trkpt lat="45.82745" lon="4.80067">
        <ele>475.959076</ele>
        <time>2016-05-22T08:19:09Z</time>
      </trkpt>
      <trkpt lat="45.82742" lon="4.80072">
        <ele>475.008362</ele>
        <time>2016-05-22T08:19:11Z</time>
      </trkpt>
      <trkpt lat="45.82738" lon="4.80077">
        <ele>474.58017</ele>
        <time>2016-05-22T08:19:13Z</time>
      </trkpt>
      <trkpt lat="45.82732" lon="4.80083">
        <ele>473.700134</ele>
        <time>2016-05-22T08:19:15Z</time>
      </trkpt>
      <trkpt lat="45.82726" lon="4.8009">
        <ele>472.827087</ele>
        <time>2016-05-22T08:19:17Z</time>
      </trkpt>
      <trkpt lat="45.82718" lon="4.80097">
        <ele>471.648376</ele>
        <time>2016-05-22T08:19:19Z</time>
      </trkpt>
      <trkpt lat="45.82708" lon="4.80104">
        <ele>470.985748</ele>
        <time>2016-05-22T08:19:21Z</time>
      </trkpt>
      <trkpt lat="45.82695" lon="4.80111">
        <ele>469.670105</ele>
        <time>2016-05-22T08:19:23Z</time>
      </trkpt>
      <trkpt lat="45.82681" lon="4.8012">
        <ele>468.169922</ele>
        <time>2016-05-22T08:19:25Z</time>
      </trkpt>
      <trkpt lat="45.82666" lon="4.80132">
        <ele>467.312897</ele>
        <time>2016-05-22T08:19:27Z</time>
      </trkpt>
      <trkpt lat="45.82651" lon="4.80143">
        <ele>466.30719</ele>
        <time>2016-05-22T08:19:29Z</time>
      </trkpt>
      <trkpt lat="45.82639" lon="4.80154">
        <ele>465.131836</ele>
        <time>2016-05-22T08:19:31Z</time>
      </trkpt>
      <trkpt lat="45.82627" lon="4.80165">
        <ele>463.426361</ele>
        <time>2016-05-22T08:19:33Z</time>
      </trkpt>
      <trkpt lat="45.82615" lon="4.80178">
        <ele>462.589294</ele>
        <time>2016-05-22T08:19:35Z</time>
      </trkpt>
      <trkpt lat="45.82602" lon="4.80193">
        <ele>461.43866</ele>
        <time>2016-05-22T08:19:37Z</time>
      </trkpt>
      <trkpt lat="45.8259" lon="4.80208">
        <ele>460.061523</ele>
        <time>2016-05-22T08:19:39Z</time>
      </trkpt>
      <trkpt lat="45.82578" lon="4.80218">
        <ele>458.678864</ele>
        <time>2016-05-22T08:19:41Z</time>
      </trkpt>
      <trkpt lat="45.82564" lon="4.80227">
        <ele>457.317719</ele>
        <time>2016-05-22T08:19:43Z</time>
      </trkpt>
      <trkpt lat="45.82549" lon="4.80237">
        <ele>456.210541</ele>
        <time>2016-05-22T08:19:45Z</time>
      </trkpt>
      <trkpt lat="45.82534" lon="4.8025">
        <ele>454.174255</ele>
        <time>2016-05-22T08:19:47Z</time>
      </trkpt>
      <trkpt lat="45.8252" lon="4.80263">
        <ele>452.298767</ele>
        <time>2016-05-22T08:19:49Z</time>
      </trkpt>
      <trkpt lat="45.82506" lon="4.80275">
        <ele>450.147522</ele>
        <time>2016-05-22T08:19:51Z</time>
      </trkpt>
      <trkpt lat="45.82494" lon="4.80285">
        <ele>448.428864</ele>
        <time>2016-05-22T08:19:53Z</time>
      </trkpt>
      <trkpt lat="45.82481" lon="4.80297">
        <ele>446.253357</ele>
        <time>2016-05-22T08:19:55Z</time>
      </trkpt>
      <trkpt lat="45.82468" lon="4.80308">
        <ele>444.858307</ele>
        <time>2016-05-22T08:19:57Z</time>
      </trkpt>
      <trkpt lat="45.82455" lon="4.8032">
        <ele>443.481506</ele>
        <time>2016-05-22T08:19:59Z</time>
      </trkpt>
      <trkpt lat="45.82444" lon="4.80333">
        <ele>441.549072</ele>
        <time>2016-05-22T08:20:01Z</time>
      </trkpt>
      <trkpt lat="45.82435" lon="4.80348">
        <ele>439.629456</ele>
        <time>2016-05-22T08:20:03Z</time>
      </trkpt>
      <trkpt lat="45.82427" lon="4.80363">
        <ele>438.147064</ele>
        <time>2016-05-22T08:20:05Z</time>
      </trkpt>
      <trkpt lat="45.82418" lon="4.80377">
        <ele>436.678955</ele>
        <time>2016-05-22T08:20:07Z</time>
      </trkpt>
      <trkpt lat="45.82413" lon="4.80382">
        <ele>435.09259</ele>
        <time>2016-05-22T08:20:09Z</time>
      </trkpt>
      <trkpt lat="45.82407" lon="4.80382">
        <ele>421.398376</ele>
        <time>2016-05-22T08:20:58Z</time>
      </trkpt>
      <trkpt lat="45.82407" lon="4.80371">
        <ele>421.488953</ele>
        <time>2016-05-22T08:21:00Z</time>
      </trkpt>
      <trkpt lat="45.82409" lon="4.80356">
        <ele>421.391266</ele>
        <time>2016-05-22T08:21:02Z</time>
      </trkpt>
      <trkpt lat="45.82411" lon="4.80343">
        <ele>421.331726</ele>
        <time>2016-05-22T08:21:04Z</time>
      </trkpt>
      <trkpt lat="45.82415" lon="4.80327">
        <ele>420.977783</ele>
        <time>2016-05-22T08:21:06Z</time>
      </trkpt>
      <trkpt lat="45.8242" lon="4.8031">
        <ele>421.025543</ele>
        <time>2016-05-22T08:21:08Z</time>
      </trkpt>
      <trkpt lat="45.82426" lon="4.80292">
        <ele>420.59906</ele>
        <time>2016-05-22T08:21:10Z</time>
      </trkpt>
      <trkpt lat="45.82431" lon="4.80271">
        <ele>420.119446</ele>
        <time>2016-05-22T08:21:12Z</time>
      </trkpt>
      <trkpt lat="45.82438" lon="4.80253">
        <ele>419.594238</ele>
        <time>2016-05-22T08:21:14Z</time>
      </trkpt>
      <trkpt lat="45.82445" lon="4.80236">
        <ele>419.214905</ele>
        <time>2016-05-22T08:21:16Z</time>
      </trkpt>
      <trkpt lat="45.82451" lon="4.80214">
        <ele>418.333832</ele>
        <time>2016-05-22T08:21:18Z</time>
      </trkpt>
      <trkpt lat="45.82461" lon="4.80198">
        <ele>417.435303</ele>
        <time>2016-05-22T08:21:20Z</time>
      </trkpt>
      <trkpt lat="45.82471" lon="4.80185">
        <ele>416.591125</ele>
        <time>2016-05-22T08:21:22Z</time>
      </trkpt>
      <trkpt lat="45.82481" lon="4.80174">
        <ele>415.722168</ele>
        <time>2016-05-22T08:21:24Z</time>
      </trkpt>
      <trkpt lat="45.82492" lon="4.80163">
        <ele>414.756195</ele>
        <time>2016-05-22T08:21:26Z</time>
      </trkpt>
      <trkpt lat="45.82501" lon="4.8015">
        <ele>413.877502</ele>
        <time>2016-05-22T08:21:28Z</time>
      </trkpt>
      <trkpt lat="45.82509" lon="4.80139">
        <ele>413.553894</ele>
        <time>2016-05-22T08:21:30Z</time>
      </trkpt>
      <trkpt lat="45.82517" lon="4.80129">
        <ele>412.781097</ele>
        <time>2016-05-22T08:21:32Z</time>
      </trkpt>
      <trkpt lat="45.82523" lon="4.8012">
        <ele>412.481537</ele>
        <time>2016-05-22T08:21:34Z</time>
      </trkpt>
      <trkpt lat="45.8253" lon="4.80111">
        <ele>411.694916</ele>
        <time>2016-05-22T08:21:36Z</time>
      </trkpt>
      <trkpt lat="45.82536" lon="4.80103">
        <ele>411.078125</ele>
        <time>2016-05-22T08:21:38Z</time>
      </trkpt>
      <trkpt lat="45.82542" lon="4.80094">
        <ele>410.715271</ele>
        <time>2016-05-22T08:21:40Z</time>
      </trkpt>
      <trkpt lat="45.82547" lon="4.80085">
        <ele>410.138275</ele>
        <time>2016-05-22T08:21:42Z</time>
      </trkpt>
      <trkpt lat="45.82552" lon="4.80075">
        <ele>409.743164</ele>
        <time>2016-05-22T08:21:44Z</time>
      </trkpt>
      <trkpt lat="45.82556" lon="4.80063">
        <ele>409.385742</ele>
        <time>2016-05-22T08:21:46Z</time>
      </trkpt>
      <trkpt lat="45.82558" lon="4.80051">
        <ele>409.390076</ele>
        <time>2016-05-22T08:21:48Z</time>
      </trkpt>
      <trkpt lat="45.82562" lon="4.80037">
        <ele>408.736633</ele>
        <time>2016-05-22T08:21:50Z</time>
      </trkpt>
      <trkpt lat="45.82564" lon="4.80021">
        <ele>408.406799</ele>
        <time>2016-05-22T08:21:52Z</time>
      </trkpt>
      <trkpt lat="45.82567" lon="4.80004">
        <ele>408.573792</ele>
        <time>2016-05-22T08:21:54Z</time>
      </trkpt>
      <trkpt lat="45.82572" lon="4.79989">
        <ele>408.628571</ele>
        <time>2016-05-22T08:21:56Z</time>
      </trkpt>
      <trkpt lat="45.82576" lon="4.79978">
        <ele>408.482483</ele>
        <time>2016-05-22T08:21:58Z</time>
      </trkpt>
      <trkpt lat="45.82579" lon="4.7997">
        <ele>408.912415</ele>
        <time>2016-05-22T08:22:00Z</time>
      </trkpt>
      <trkpt lat="45.82581" lon="4.79963">
        <ele>409.294159</ele>
        <time>2016-05-22T08:22:02Z</time>
      </trkpt>
      <trkpt lat="45.82582" lon="4.79956">
        <ele>409.58493</ele>
        <time>2016-05-22T08:22:04Z</time>
      </trkpt>
      <trkpt lat="45.82582" lon="4.79949">
        <ele>409.890778</ele>
        <time>2016-05-22T08:22:06Z</time>
      </trkpt>
      <trkpt lat="45.82582" lon="4.79941">
        <ele>410.253082</ele>
        <time>2016-05-22T08:22:08Z</time>
      </trkpt>
      <trkpt lat="45.82582" lon="4.79931">
        <ele>410.302917</ele>
        <time>2016-05-22T08:22:10Z</time>
      </trkpt>
      <trkpt lat="45.82583" lon="4.7992">
        <ele>410.300964</ele>
        <time>2016-05-22T08:22:12Z</time>
      </trkpt>
      <trkpt lat="45.82585" lon="4.7991">
        <ele>410.164063</ele>
        <time>2016-05-22T08:22:14Z</time>
      </trkpt>
      <trkpt lat="45.82586" lon="4.79901">
        <ele>410.292236</ele>
        <time>2016-05-22T08:22:16Z</time>
      </trkpt>
      <trkpt lat="45.82588" lon="4.79895">
        <ele>410.464417</ele>
        <time>2016-05-22T08:22:18Z</time>
      </trkpt>
      <trkpt lat="45.82589" lon="4.79891">
        <ele>410.327698</ele>
        <time>2016-05-22T08:22:20Z</time>
      </trkpt>
      <trkpt lat="45.82591" lon="4.79887">
        <ele>410.086914</ele>
        <time>2016-05-22T08:22:22Z</time>
      </trkpt>
      <trkpt lat="45.82592" lon="4.79881">
        <ele>410.039154</ele>
        <time>2016-05-22T08:22:24Z</time>
      </trkpt>
      <trkpt lat="45.82595" lon="4.79873">
        <ele>409.982758</ele>
        <time>2016-05-22T08:22:26Z</time>
      </trkpt>
      <trkpt lat="45.82598" lon="4.79864">
        <ele>410.006653</ele>
        <time>2016-05-22T08:22:28Z</time>
      </trkpt>
      <trkpt lat="45.826" lon="4.79855">
        <ele>410.236725</ele>
        <time>2016-05-22T08:22:30Z</time>
      </trkpt>
      <trkpt lat="45.82602" lon="4.79845">
        <ele>410.271423</ele>
        <time>2016-05-22T08:22:32Z</time>
      </trkpt>
      <trkpt lat="45.82605" lon="4.79835">
        <ele>410.638855</ele>
        <time>2016-05-22T08:22:34Z</time>
      </trkpt>
      <trkpt lat="45.82608" lon="4.79824">
        <ele>410.871094</ele>
        <time>2016-05-22T08:22:36Z</time>
      </trkpt>
      <trkpt lat="45.82611" lon="4.79815">
        <ele>410.907227</ele>
        <time>2016-05-22T08:22:38Z</time>
      </trkpt>
      <trkpt lat="45.82613" lon="4.79806">
        <ele>410.837799</ele>
        <time>2016-05-22T08:22:40Z</time>
      </trkpt>
      <trkpt lat="45.82615" lon="4.79795">
        <ele>410.687683</ele>
        <time>2016-05-22T08:22:42Z</time>
      </trkpt>
      <trkpt lat="45.82616" lon="4.79784">
        <ele>410.87442</ele>
        <time>2016-05-22T08:22:44Z</time>
      </trkpt>
      <trkpt lat="45.82618" lon="4.79773">
        <ele>411.001038</ele>
        <time>2016-05-22T08:22:46Z</time>
      </trkpt>
      <trkpt lat="45.8262" lon="4.79762">
        <ele>410.946777</ele>
        <time>2016-05-22T08:22:48Z</time>
      </trkpt>
      <trkpt lat="45.82623" lon="4.79748">
        <ele>410.731934</ele>
        <time>2016-05-22T08:22:50Z</time>
      </trkpt>
      <trkpt lat="45.82628" lon="4.79737">
        <ele>410.93808</ele>
        <time>2016-05-22T08:22:52Z</time>
      </trkpt>
      <trkpt lat="45.82631" lon="4.79728">
        <ele>411.019928</ele>
        <time>2016-05-22T08:22:54Z</time>
      </trkpt>
      <trkpt lat="45.82634" lon="4.79719">
        <ele>411.082916</ele>
        <time>2016-05-22T08:22:56Z</time>
      </trkpt>
      <trkpt lat="45.82638" lon="4.7971">
        <ele>411.03653</ele>
        <time>2016-05-22T08:22:58Z</time>
      </trkpt>
      <trkpt lat="45.82643" lon="4.79705">
        <ele>411.142975</ele>
        <time>2016-05-22T08:23:00Z</time>
      </trkpt>
      <trkpt lat="45.82647" lon="4.79702">
        <ele>411.301361</ele>
        <time>2016-05-22T08:23:02Z</time>
      </trkpt>
      <trkpt lat="45.8265" lon="4.79699">
        <ele>411.444916</ele>
        <time>2016-05-22T08:23:04Z</time>
      </trkpt>
      <trkpt lat="45.82653" lon="4.79695">
        <ele>411.661957</ele>
        <time>2016-05-22T08:23:06Z</time>
      </trkpt>
      <trkpt lat="45.82657" lon="4.79692">
        <ele>411.859467</ele>
        <time>2016-05-22T08:23:08Z</time>
      </trkpt>
      <trkpt lat="45.8266" lon="4.79689">
        <ele>411.868225</ele>
        <time>2016-05-22T08:23:10Z</time>
      </trkpt>
      <trkpt lat="45.82663" lon="4.79686">
        <ele>411.819916</ele>
        <time>2016-05-22T08:23:12Z</time>
      </trkpt>
      <trkpt lat="45.82667" lon="4.79683">
        <ele>411.889404</ele>
        <time>2016-05-22T08:23:14Z</time>
      </trkpt>
      <trkpt lat="45.82671" lon="4.7968">
        <ele>412.027649</ele>
        <time>2016-05-22T08:23:16Z</time>
      </trkpt>
      <trkpt lat="45.82674" lon="4.79677">
        <ele>412.209625</ele>
        <time>2016-05-22T08:23:18Z</time>
      </trkpt>
      <trkpt lat="45.82678" lon="4.79675">
        <ele>412.489685</ele>
        <time>2016-05-22T08:23:20Z</time>
      </trkpt>
      <trkpt lat="45.82682" lon="4.79672">
        <ele>412.951996</ele>
        <time>2016-05-22T08:23:22Z</time>
      </trkpt>
      <trkpt lat="45.82685" lon="4.7967">
        <ele>413.388275</ele>
        <time>2016-05-22T08:23:24Z</time>
      </trkpt>
      <trkpt lat="45.82689" lon="4.79668">
        <ele>413.562408</ele>
        <time>2016-05-22T08:23:26Z</time>
      </trkpt>
      <trkpt lat="45.82692" lon="4.79666">
        <ele>413.846832</ele>
        <time>2016-05-22T08:23:28Z</time>
      </trkpt>
      <trkpt lat="45.82696" lon="4.79664">
        <ele>414.409119</ele>
        <time>2016-05-22T08:23:30Z</time>
      </trkpt>
      <trkpt lat="45.827" lon="4.79662">
        <ele>415.15155</ele>
        <time>2016-05-22T08:23:32Z</time>
      </trkpt>
      <trkpt lat="45.82703" lon="4.7966">
        <ele>415.331787</ele>
        <time>2016-05-22T08:23:34Z</time>
      </trkpt>
      <trkpt lat="45.82707" lon="4.79658">
        <ele>415.833832</ele>
        <time>2016-05-22T08:23:36Z</time>
      </trkpt>
      <trkpt lat="45.8271" lon="4.79656">
        <ele>416.281067</ele>
        <time>2016-05-22T08:23:38Z</time>
      </trkpt>
      <trkpt lat="45.82713" lon="4.79655">
        <ele>416.922211</ele>
        <time>2016-05-22T08:23:40Z</time>
      </trkpt>
      <trkpt lat="45.82716" lon="4.79653">
        <ele>417.206604</ele>
        <time>2016-05-22T08:23:42Z</time>
      </trkpt>
      <trkpt lat="45.82719" lon="4.79652">
        <ele>417.679382</ele>
        <time>2016-05-22T08:23:44Z</time>
      </trkpt>
      <trkpt lat="45.82723" lon="4.7965">
        <ele>418.16983</ele>
        <time>2016-05-22T08:23:46Z</time>
      </trkpt>
      <trkpt lat="45.82725" lon="4.79649">
        <ele>418.619446</ele>
        <time>2016-05-22T08:23:48Z</time>
      </trkpt>
      <trkpt lat="45.82728" lon="4.79647">
        <ele>419.068939</ele>
        <time>2016-05-22T08:23:50Z</time>
      </trkpt>
      <trkpt lat="45.82732" lon="4.79646">
        <ele>419.464691</ele>
        <time>2016-05-22T08:23:52Z</time>
      </trkpt>
      <trkpt lat="45.82735" lon="4.79644">
        <ele>419.951263</ele>
        <time>2016-05-22T08:23:54Z</time>
      </trkpt>
      <trkpt lat="45.82739" lon="4.79642">
        <ele>420.174988</ele>
        <time>2016-05-22T08:23:56Z</time>
      </trkpt>
      <trkpt lat="45.82742" lon="4.7964">
        <ele>420.64859</ele>
        <time>2016-05-22T08:23:58Z</time>
      </trkpt>
      <trkpt lat="45.82745" lon="4.79638">
        <ele>421.161621</ele>
        <time>2016-05-22T08:24:00Z</time>
      </trkpt>
      <trkpt lat="45.82749" lon="4.79636">
        <ele>421.654785</ele>
        <time>2016-05-22T08:24:02Z</time>
      </trkpt>
      <trkpt lat="45.82752" lon="4.79635">
        <ele>422.128845</ele>
        <time>2016-05-22T08:24:04Z</time>
      </trkpt>
      <trkpt lat="45.82756" lon="4.79632">
        <ele>422.596619</ele>
        <time>2016-05-22T08:24:06Z</time>
      </trkpt>
      <trkpt lat="45.82759" lon="4.79631">
        <ele>423.137207</ele>
        <time>2016-05-22T08:24:08Z</time>
      </trkpt>
      <trkpt lat="45.82762" lon="4.79629">
        <ele>423.578278</ele>
        <time>2016-05-22T08:24:10Z</time>
      </trkpt>
      <trkpt lat="45.82766" lon="4.79628">
        <ele>424.052002</ele>
        <time>2016-05-22T08:24:12Z</time>
      </trkpt>
      <trkpt lat="45.82769" lon="4.79626">
        <ele>424.399719</ele>
        <time>2016-05-22T08:24:14Z</time>
      </trkpt>
      <trkpt lat="45.82773" lon="4.79625">
        <ele>424.846436</ele>
        <time>2016-05-22T08:24:16Z</time>
      </trkpt>
      <trkpt lat="45.82776" lon="4.79623">
        <ele>425.296387</ele>
        <time>2016-05-22T08:24:18Z</time>
      </trkpt>
      <trkpt lat="45.8278" lon="4.79622">
        <ele>425.483246</ele>
        <time>2016-05-22T08:24:20Z</time>
      </trkpt>
      <trkpt lat="45.82783" lon="4.79621">
        <ele>425.933167</ele>
        <time>2016-05-22T08:24:22Z</time>
      </trkpt>
      <trkpt lat="45.82787" lon="4.7962">
        <ele>426.550232</ele>
        <time>2016-05-22T08:24:24Z</time>
      </trkpt>
      <trkpt lat="45.8279" lon="4.79619">
        <ele>427.029053</ele>
        <time>2016-05-22T08:24:26Z</time>
      </trkpt>
      <trkpt lat="45.82793" lon="4.79617">
        <ele>427.500732</ele>
        <time>2016-05-22T08:24:28Z</time>
      </trkpt>
      <trkpt lat="45.82797" lon="4.79616">
        <ele>427.898529</ele>
        <time>2016-05-22T08:24:30Z</time>
      </trkpt>
      <trkpt lat="45.82801" lon="4.79616">
        <ele>428.277527</ele>
        <time>2016-05-22T08:24:32Z</time>
      </trkpt>
      <trkpt lat="45.82804" lon="4.79614">
        <ele>428.654785</ele>
        <time>2016-05-22T08:24:34Z</time>
      </trkpt>
      <trkpt lat="45.82808" lon="4.79613">
        <ele>428.998291</ele>
        <time>2016-05-22T08:24:36Z</time>
      </trkpt>
      <trkpt lat="45.82811" lon="4.79612">
        <ele>429.363525</ele>
        <time>2016-05-22T08:24:38Z</time>
      </trkpt>
      <trkpt lat="45.82814" lon="4.7961">
        <ele>429.72226</ele>
        <time>2016-05-22T08:24:40Z</time>
      </trkpt>
      <trkpt lat="45.82818" lon="4.79609">
        <ele>429.885345</ele>
        <time>2016-05-22T08:24:42Z</time>
      </trkpt>
      <trkpt lat="45.82821" lon="4.79608">
        <ele>430.231293</ele>
        <time>2016-05-22T08:24:44Z</time>
      </trkpt>
      <trkpt lat="45.82825" lon="4.79606">
        <ele>430.676605</ele>
        <time>2016-05-22T08:24:46Z</time>
      </trkpt>
      <trkpt lat="45.82828" lon="4.79604">
        <ele>431.100006</ele>
        <time>2016-05-22T08:24:48Z</time>
      </trkpt>
      <trkpt lat="45.82832" lon="4.79603">
        <ele>431.434814</ele>
        <time>2016-05-22T08:24:50Z</time>
      </trkpt>
      <trkpt lat="45.82835" lon="4.79602">
        <ele>431.817871</ele>
        <time>2016-05-22T08:24:52Z</time>
      </trkpt>
      <trkpt lat="45.82838" lon="4.796">
        <ele>432.118835</ele>
        <time>2016-05-22T08:24:54Z</time>
      </trkpt>
      <trkpt lat="45.82842" lon="4.79598">
        <ele>432.526703</ele>
        <time>2016-05-22T08:24:56Z</time>
      </trkpt>
      <trkpt lat="45.82845" lon="4.79596">
        <ele>432.916809</ele>
        <time>2016-05-22T08:24:58Z</time>
      </trkpt>
      <trkpt lat="45.82848" lon="4.79595">
        <ele>433.334381</ele>
        <time>2016-05-22T08:25:00Z</time>
      </trkpt>
      <trkpt lat="45.82851" lon="4.79593">
        <ele>433.762848</ele>
        <time>2016-05-22T08:25:02Z</time>
      </trkpt>
      <trkpt lat="45.82855" lon="4.7959">
        <ele>434.167328</ele>
        <time>2016-05-22T08:25:04Z</time>
      </trkpt>
      <trkpt lat="45.82858" lon="4.79589">
        <ele>434.41748</ele>
        <time>2016-05-22T08:25:06Z</time>
      </trkpt>
      <trkpt lat="45.82861" lon="4.79588">
        <ele>434.727844</ele>
        <time>2016-05-22T08:25:08Z</time>
      </trkpt>
      <trkpt lat="45.82864" lon="4.79586">
        <ele>435.05072</ele>
        <time>2016-05-22T08:25:10Z</time>
      </trkpt>
      <trkpt lat="45.82868" lon="4.79584">
        <ele>435.383545</ele>
        <time>2016-05-22T08:25:12Z</time>
      </trkpt>
      <trkpt lat="45.82872" lon="4.79583">
        <ele>435.815094</ele>
        <time>2016-05-22T08:25:14Z</time>
      </trkpt>
      <trkpt lat="45.82875" lon="4.79581">
        <ele>436.27301</ele>
        <time>2016-05-22T08:25:16Z</time>
      </trkpt>
      <trkpt lat="45.82878" lon="4.79578">
        <ele>436.658051</ele>
        <time>2016-05-22T08:25:18Z</time>
      </trkpt>
      <trkpt lat="45.82881" lon="4.79576">
        <ele>437.027924</ele>
        <time>2016-05-22T08:25:20Z</time>
      </trkpt>
      <trkpt lat="45.82884" lon="4.79574">
        <ele>437.46524</ele>
        <time>2016-05-22T08:25:22Z</time>
      </trkpt>
      <trkpt lat="45.82887" lon="4.79572">
        <ele>437.882751</ele>
        <time>2016-05-22T08:25:24Z</time>
      </trkpt>
      <trkpt lat="45.8289" lon="4.7957">
        <ele>438.243988</ele>
        <time>2016-05-22T08:25:26Z</time>
      </trkpt>
      <trkpt lat="45.82893" lon="4.79568">
        <ele>438.526917</ele>
        <time>2016-05-22T08:25:28Z</time>
      </trkpt>
      <trkpt lat="45.82896" lon="4.79566">
        <ele>438.894684</ele>
        <time>2016-05-22T08:25:30Z</time>
      </trkpt>
      <trkpt lat="45.829" lon="4.79564">
        <ele>439.136322</ele>
        <time>2016-05-22T08:25:32Z</time>
      </trkpt>
      <trkpt lat="45.82903" lon="4.79562">
        <ele>439.520569</ele>
        <time>2016-05-22T08:25:34Z</time>
      </trkpt>
      <trkpt lat="45.82906" lon="4.7956">
        <ele>439.899414</ele>
        <time>2016-05-22T08:25:36Z</time>
      </trkpt>
      <trkpt lat="45.82909" lon="4.79559">
        <ele>440.270416</ele>
        <time>2016-05-22T08:25:38Z</time>
      </trkpt>
      <trkpt lat="45.82912" lon="4.79557">
        <ele>440.638245</ele>
        <time>2016-05-22T08:25:40Z</time>
      </trkpt>
      <trkpt lat="45.82915" lon="4.79556">
        <ele>440.987732</ele>
        <time>2016-05-22T08:25:42Z</time>
      </trkpt>
      <trkpt lat="45.82919" lon="4.79554">
        <ele>441.345123</ele>
        <time>2016-05-22T08:25:44Z</time>
      </trkpt>
      <trkpt lat="45.82922" lon="4.79552">
        <ele>441.601654</ele>
        <time>2016-05-22T08:25:46Z</time>
      </trkpt>
      <trkpt lat="45.82926" lon="4.7955">
        <ele>441.935455</ele>
        <time>2016-05-22T08:25:48Z</time>
      </trkpt>
      <trkpt lat="45.8293" lon="4.79549">
        <ele>442.326263</ele>
        <time>2016-05-22T08:25:50Z</time>
      </trkpt>
      <trkpt lat="45.82933" lon="4.79547">
        <ele>442.671539</ele>
        <time>2016-05-22T08:25:52Z</time>
      </trkpt>
      <trkpt lat="45.82937" lon="4.79545">
        <ele>443.06781</ele>
        <time>2016-05-22T08:25:54Z</time>
      </trkpt>
      <trkpt lat="45.82941" lon="4.79543">
        <ele>443.303467</ele>
        <time>2016-05-22T08:25:56Z</time>
      </trkpt>
      <trkpt lat="45.82945" lon="4.79541">
        <ele>443.623474</ele>
        <time>2016-05-22T08:25:58Z</time>
      </trkpt>
      <trkpt lat="45.82949" lon="4.79539">
        <ele>443.910828</ele>
        <time>2016-05-22T08:26:00Z</time>
      </trkpt>
      <trkpt lat="45.82953" lon="4.79537">
        <ele>444.265717</ele>
        <time>2016-05-22T08:26:02Z</time>
      </trkpt>
      <trkpt lat="45.82956" lon="4.79535">
        <ele>444.598877</ele>
        <time>2016-05-22T08:26:04Z</time>
      </trkpt>
      <trkpt lat="45.8296" lon="4.79532">
        <ele>444.966858</ele>
        <time>2016-05-22T08:26:06Z</time>
      </trkpt>
      <trkpt lat="45.82964" lon="4.7953">
        <ele>445.220612</ele>
        <time>2016-05-22T08:26:08Z</time>
      </trkpt>
      <trkpt lat="45.82967" lon="4.79527">
        <ele>445.583252</ele>
        <time>2016-05-22T08:26:10Z</time>
      </trkpt>
      <trkpt lat="45.82971" lon="4.79526">
        <ele>445.914246</ele>
        <time>2016-05-22T08:26:12Z</time>
      </trkpt>
      <trkpt lat="45.82975" lon="4.79524">
        <ele>446.217621</ele>
        <time>2016-05-22T08:26:14Z</time>
      </trkpt>
      <trkpt lat="45.8298" lon="4.79523">
        <ele>446.588867</ele>
        <time>2016-05-22T08:26:16Z</time>
      </trkpt>
      <trkpt lat="45.82983" lon="4.79522">
        <ele>446.912933</ele>
        <time>2016-05-22T08:26:18Z</time>
      </trkpt>
      <trkpt lat="45.82988" lon="4.79521">
        <ele>447.224365</ele>
        <time>2016-05-22T08:26:20Z</time>
      </trkpt>
      <trkpt lat="45.82991" lon="4.7952">
        <ele>447.389893</ele>
        <time>2016-05-22T08:26:22Z</time>
      </trkpt>
      <trkpt lat="45.82995" lon="4.79518">
        <ele>447.721863</ele>
        <time>2016-05-22T08:26:24Z</time>
      </trkpt>
      <trkpt lat="45.82999" lon="4.79517">
        <ele>448.06778</ele>
        <time>2016-05-22T08:26:26Z</time>
      </trkpt>
      <trkpt lat="45.83003" lon="4.79515">
        <ele>448.501526</ele>
        <time>2016-05-22T08:26:28Z</time>
      </trkpt>
      <trkpt lat="45.83007" lon="4.79514">
        <ele>448.873962</ele>
        <time>2016-05-22T08:26:30Z</time>
      </trkpt>
      <trkpt lat="45.83011" lon="4.79514">
        <ele>449.24649</ele>
        <time>2016-05-22T08:26:32Z</time>
      </trkpt>
      <trkpt lat="45.83015" lon="4.79513">
        <ele>449.630676</ele>
        <time>2016-05-22T08:26:34Z</time>
      </trkpt>
      <trkpt lat="45.83019" lon="4.79511">
        <ele>449.859436</ele>
        <time>2016-05-22T08:26:36Z</time>
      </trkpt>
      <trkpt lat="45.83024" lon="4.7951">
        <ele>450.111633</ele>
        <time>2016-05-22T08:26:38Z</time>
      </trkpt>
      <trkpt lat="45.83028" lon="4.7951">
        <ele>450.414398</ele>
        <time>2016-05-22T08:26:40Z</time>
      </trkpt>
      <trkpt lat="45.83033" lon="4.79509">
        <ele>450.758606</ele>
        <time>2016-05-22T08:26:42Z</time>
      </trkpt>
      <trkpt lat="45.83037" lon="4.79508">
        <ele>451.067963</ele>
        <time>2016-05-22T08:26:44Z</time>
      </trkpt>
      <trkpt lat="45.83042" lon="4.79508">
        <ele>451.523376</ele>
        <time>2016-05-22T08:26:46Z</time>
      </trkpt>
      <trkpt lat="45.83046" lon="4.79508">
        <ele>451.874176</ele>
        <time>2016-05-22T08:26:48Z</time>
      </trkpt>
      <trkpt lat="45.83051" lon="4.79508">
        <ele>452.069092</ele>
        <time>2016-05-22T08:26:50Z</time>
      </trkpt>
      <trkpt lat="45.83056" lon="4.79507">
        <ele>452.370758</ele>
        <time>2016-05-22T08:26:52Z</time>
      </trkpt>
      <trkpt lat="45.8306" lon="4.79507">
        <ele>452.658386</ele>
        <time>2016-05-22T08:26:54Z</time>
      </trkpt>
      <trkpt lat="45.83065" lon="4.79507">
        <ele>452.965576</ele>
        <time>2016-05-22T08:26:56Z</time>
      </trkpt>
      <trkpt lat="45.8307" lon="4.79507">
        <ele>453.218353</ele>
        <time>2016-05-22T08:26:58Z</time>
      </trkpt>
      <trkpt lat="45.83075" lon="4.79506">
        <ele>453.582672</ele>
        <time>2016-05-22T08:27:00Z</time>
      </trkpt>
      <trkpt lat="45.8308" lon="4.79505">
        <ele>453.96405</ele>
        <time>2016-05-22T08:27:02Z</time>
      </trkpt>
      <trkpt lat="45.83084" lon="4.79504">
        <ele>454.304047</ele>
        <time>2016-05-22T08:27:04Z</time>
      </trkpt>
      <trkpt lat="45.83088" lon="4.79502">
        <ele>454.604828</ele>
        <time>2016-05-22T08:27:06Z</time>
      </trkpt>
      <trkpt lat="45.83093" lon="4.79501">
        <ele>454.877258</ele>
        <time>2016-05-22T08:27:08Z</time>
      </trkpt>
      <trkpt lat="45.83098" lon="4.795">
        <ele>455.180328</ele>
        <time>2016-05-22T08:27:10Z</time>
      </trkpt>
      <trkpt lat="45.83102" lon="4.79498">
        <ele>455.439758</ele>
        <time>2016-05-22T08:27:12Z</time>
      </trkpt>
      <trkpt lat="45.83107" lon="4.79494">
        <ele>455.750671</ele>
        <time>2016-05-22T08:27:14Z</time>
      </trkpt>
      <trkpt lat="45.83112" lon="4.7949">
        <ele>456.02533</ele>
        <time>2016-05-22T08:27:16Z</time>
      </trkpt>
      <trkpt lat="45.83115" lon="4.79484">
        <ele>456.383301</ele>
        <time>2016-05-22T08:27:18Z</time>
      </trkpt>
      <trkpt lat="45.83118" lon="4.79477">
        <ele>456.612152</ele>
        <time>2016-05-22T08:27:20Z</time>
      </trkpt>
      <trkpt lat="45.8312" lon="4.79471">
        <ele>457.049072</ele>
        <time>2016-05-22T08:27:22Z</time>
      </trkpt>
      <trkpt lat="45.8312" lon="4.79465">
        <ele>457.4422</ele>
        <time>2016-05-22T08:27:24Z</time>
      </trkpt>
      <trkpt lat="45.83122" lon="4.7946">
        <ele>457.869537</ele>
        <time>2016-05-22T08:27:26Z</time>
      </trkpt>
      <trkpt lat="45.83125" lon="4.79456">
        <ele>458.122498</ele>
        <time>2016-05-22T08:27:28Z</time>
      </trkpt>
      <trkpt lat="45.83128" lon="4.79453">
        <ele>458.534576</ele>
        <time>2016-05-22T08:27:30Z</time>
      </trkpt>
      <trkpt lat="45.83131" lon="4.79453">
        <ele>458.896545</ele>
        <time>2016-05-22T08:27:32Z</time>
      </trkpt>
      <trkpt lat="45.83135" lon="4.79453">
        <ele>459.376221</ele>
        <time>2016-05-22T08:27:34Z</time>
      </trkpt>
      <trkpt lat="45.8314" lon="4.79453">
        <ele>459.823242</ele>
        <time>2016-05-22T08:27:36Z</time>
      </trkpt>
      <trkpt lat="45.83145" lon="4.79454">
        <ele>460.24408</ele>
        <time>2016-05-22T08:27:38Z</time>
      </trkpt>
      <trkpt lat="45.8315" lon="4.79455">
        <ele>460.488342</ele>
        <time>2016-05-22T08:27:40Z</time>
      </trkpt>
      <trkpt lat="45.83155" lon="4.79456">
        <ele>460.864685</ele>
        <time>2016-05-22T08:27:42Z</time>
      </trkpt>
      <trkpt lat="45.8316" lon="4.79458">
        <ele>461.290039</ele>
        <time>2016-05-22T08:27:44Z</time>
      </trkpt>
      <trkpt lat="45.83164" lon="4.79459">
        <ele>461.726227</ele>
        <time>2016-05-22T08:27:46Z</time>
      </trkpt>
      <trkpt lat="45.83168" lon="4.7946">
        <ele>462.06427</ele>
        <time>2016-05-22T08:27:48Z</time>
      </trkpt>
      <trkpt lat="45.83173" lon="4.7946">
        <ele>462.543762</ele>
        <time>2016-05-22T08:27:50Z</time>
      </trkpt>
      <trkpt lat="45.83177" lon="4.79461">
        <ele>463.071472</ele>
        <time>2016-05-22T08:27:52Z</time>
      </trkpt>
      <trkpt lat="45.83181" lon="4.79462">
        <ele>463.557922</ele>
        <time>2016-05-22T08:27:54Z</time>
      </trkpt>
      <trkpt lat="45.83185" lon="4.79467">
        <ele>464.038574</ele>
        <time>2016-05-22T08:27:56Z</time>
      </trkpt>
      <trkpt lat="45.8319" lon="4.79469">
        <ele>464.516266</ele>
        <time>2016-05-22T08:27:58Z</time>
      </trkpt>
      <trkpt lat="45.83196" lon="4.79471">
        <ele>465.009277</ele>
        <time>2016-05-22T08:28:00Z</time>
      </trkpt>
      <trkpt lat="45.83201" lon="4.79473">
        <ele>465.448975</ele>
        <time>2016-05-22T08:28:02Z</time>
      </trkpt>
      <trkpt lat="45.83207" lon="4.79474">
        <ele>465.788574</ele>
        <time>2016-05-22T08:28:04Z</time>
      </trkpt>
      <trkpt lat="45.83212" lon="4.79476">
        <ele>465.987122</ele>
        <time>2016-05-22T08:28:06Z</time>
      </trkpt>
      <trkpt lat="45.83217" lon="4.79478">
        <ele>466.268066</ele>
        <time>2016-05-22T08:28:08Z</time>
      </trkpt>
      <trkpt lat="45.83222" lon="4.7948">
        <ele>466.462219</ele>
        <time>2016-05-22T08:28:10Z</time>
      </trkpt>
      <trkpt lat="45.83228" lon="4.79482">
        <ele>466.813477</ele>
        <time>2016-05-22T08:28:12Z</time>
      </trkpt>
      <trkpt lat="45.83233" lon="4.79484">
        <ele>467.086182</ele>
        <time>2016-05-22T08:28:14Z</time>
      </trkpt>
      <trkpt lat="45.83239" lon="4.79485">
        <ele>467.353607</ele>
        <time>2016-05-22T08:28:16Z</time>
      </trkpt>
      <trkpt lat="45.83245" lon="4.79487">
        <ele>467.670074</ele>
        <time>2016-05-22T08:28:18Z</time>
      </trkpt>
      <trkpt lat="45.83251" lon="4.7949">
        <ele>467.993011</ele>
        <time>2016-05-22T08:28:20Z</time>
      </trkpt>
      <trkpt lat="45.83257" lon="4.79492">
        <ele>468.358337</ele>
        <time>2016-05-22T08:28:22Z</time>
      </trkpt>
      <trkpt lat="45.83263" lon="4.79494">
        <ele>468.528503</ele>
        <time>2016-05-22T08:28:24Z</time>
      </trkpt>
      <trkpt lat="45.83269" lon="4.79495">
        <ele>468.696594</ele>
        <time>2016-05-22T08:28:26Z</time>
      </trkpt>
      <trkpt lat="45.83274" lon="4.79497">
        <ele>468.995453</ele>
        <time>2016-05-22T08:28:28Z</time>
      </trkpt>
      <trkpt lat="45.8328" lon="4.79499">
        <ele>469.305267</ele>
        <time>2016-05-22T08:28:30Z</time>
      </trkpt>
      <trkpt lat="45.83285" lon="4.79501">
        <ele>469.580658</ele>
        <time>2016-05-22T08:28:32Z</time>
      </trkpt>
      <trkpt lat="45.8329" lon="4.79504">
        <ele>469.790222</ele>
        <time>2016-05-22T08:28:34Z</time>
      </trkpt>
      <trkpt lat="45.83295" lon="4.79505">
        <ele>469.949554</ele>
        <time>2016-05-22T08:28:36Z</time>
      </trkpt>
      <trkpt lat="45.83301" lon="4.79506">
        <ele>469.844879</ele>
        <time>2016-05-22T08:28:38Z</time>
      </trkpt>
      <trkpt lat="45.83305" lon="4.79506">
        <ele>470.041321</ele>
        <time>2016-05-22T08:28:40Z</time>
      </trkpt>
      <trkpt lat="45.83311" lon="4.79507">
        <ele>470.141693</ele>
        <time>2016-05-22T08:28:42Z</time>
      </trkpt>
      <trkpt lat="45.83316" lon="4.79507">
        <ele>470.344727</ele>
        <time>2016-05-22T08:28:44Z</time>
      </trkpt>
      <trkpt lat="45.83321" lon="4.79507">
        <ele>470.678772</ele>
        <time>2016-05-22T08:28:46Z</time>
      </trkpt>
      <trkpt lat="45.83326" lon="4.7951">
        <ele>470.600189</ele>
        <time>2016-05-22T08:28:48Z</time>
      </trkpt>
      <trkpt lat="45.83331" lon="4.79512">
        <ele>470.898499</ele>
        <time>2016-05-22T08:28:50Z</time>
      </trkpt>
      <trkpt lat="45.83336" lon="4.79514">
        <ele>471.346008</ele>
        <time>2016-05-22T08:28:52Z</time>
      </trkpt>
      <trkpt lat="45.8334" lon="4.79516">
        <ele>471.500977</ele>
        <time>2016-05-22T08:28:54Z</time>
      </trkpt>
      <trkpt lat="45.83345" lon="4.79518">
        <ele>471.828217</ele>
        <time>2016-05-22T08:28:56Z</time>
      </trkpt>
      <trkpt lat="45.8335" lon="4.7952">
        <ele>472.054047</ele>
        <time>2016-05-22T08:28:58Z</time>
      </trkpt>
      <trkpt lat="45.83354" lon="4.7952">
        <ele>472.301819</ele>
        <time>2016-05-22T08:29:00Z</time>
      </trkpt>
      <trkpt lat="45.83358" lon="4.79521">
        <ele>472.708313</ele>
        <time>2016-05-22T08:29:02Z</time>
      </trkpt>
      <trkpt lat="45.83362" lon="4.79522">
        <ele>472.928162</ele>
        <time>2016-05-22T08:29:04Z</time>
      </trkpt>
      <trkpt lat="45.83367" lon="4.79523">
        <ele>473.277435</ele>
        <time>2016-05-22T08:29:06Z</time>
      </trkpt>
      <trkpt lat="45.83371" lon="4.79523">
        <ele>473.596497</ele>
        <time>2016-05-22T08:29:08Z</time>
      </trkpt>
      <trkpt lat="45.83374" lon="4.7952">
        <ele>473.677307</ele>
        <time>2016-05-22T08:29:10Z</time>
      </trkpt>
      <trkpt lat="45.83374" lon="4.79515">
        <ele>473.971588</ele>
        <time>2016-05-22T08:29:12Z</time>
      </trkpt>
      <trkpt lat="45.83371" lon="4.79511">
        <ele>474.174713</ele>
        <time>2016-05-22T08:29:14Z</time>
      </trkpt>
      <trkpt lat="45.83368" lon="4.79507">
        <ele>474.423645</ele>
        <time>2016-05-22T08:29:16Z</time>
      </trkpt>
      <trkpt lat="45.83366" lon="4.79504">
        <ele>474.681244</ele>
        <time>2016-05-22T08:29:18Z</time>
      </trkpt>
      <trkpt lat="45.83364" lon="4.795">
        <ele>475.318695</ele>
        <time>2016-05-22T08:29:20Z</time>
      </trkpt>
      <trkpt lat="45.83362" lon="4.79496">
        <ele>475.733643</ele>
        <time>2016-05-22T08:29:22Z</time>
      </trkpt>
      <trkpt lat="45.83361" lon="4.79492">
        <ele>476.225037</ele>
        <time>2016-05-22T08:29:24Z</time>
      </trkpt>
      <trkpt lat="45.8336" lon="4.79487">
        <ele>476.572327</ele>
        <time>2016-05-22T08:29:26Z</time>
      </trkpt>
      <trkpt lat="45.83361" lon="4.79482">
        <ele>476.882477</ele>
        <time>2016-05-22T08:29:28Z</time>
      </trkpt>
      <trkpt lat="45.83361" lon="4.79476">
        <ele>477.484314</ele>
        <time>2016-05-22T08:29:30Z</time>
      </trkpt>
      <trkpt lat="45.83361" lon="4.79471">
        <ele>477.532379</ele>
        <time>2016-05-22T08:29:32Z</time>
      </trkpt>
      <trkpt lat="45.83362" lon="4.79465">
        <ele>477.768982</ele>
        <time>2016-05-22T08:29:34Z</time>
      </trkpt>
      <trkpt lat="45.83361" lon="4.7946">
        <ele>478.151276</ele>
        <time>2016-05-22T08:29:36Z</time>
      </trkpt>
      <trkpt lat="45.83361" lon="4.79454">
        <ele>478.409241</ele>
        <time>2016-05-22T08:29:38Z</time>
      </trkpt>
      <trkpt lat="45.83359" lon="4.79449">
        <ele>478.7565</ele>
        <time>2016-05-22T08:29:40Z</time>
      </trkpt>
      <trkpt lat="45.83357" lon="4.79444">
        <ele>479.054779</ele>
        <time>2016-05-22T08:29:42Z</time>
      </trkpt>
      <trkpt lat="45.83355" lon="4.79441">
        <ele>479.306702</ele>
        <time>2016-05-22T08:29:44Z</time>
      </trkpt>
      <trkpt lat="45.83352" lon="4.79437">
        <ele>479.643799</ele>
        <time>2016-05-22T08:29:46Z</time>
      </trkpt>
      <trkpt lat="45.8335" lon="4.79433">
        <ele>480.133209</ele>
        <time>2016-05-22T08:29:48Z</time>
      </trkpt>
      <trkpt lat="45.83347" lon="4.7943">
        <ele>480.409576</ele>
        <time>2016-05-22T08:29:50Z</time>
      </trkpt>
      <trkpt lat="45.83345" lon="4.79426">
        <ele>480.790192</ele>
        <time>2016-05-22T08:29:52Z</time>
      </trkpt>
      <trkpt lat="45.83342" lon="4.79423">
        <ele>481.041504</ele>
        <time>2016-05-22T08:29:54Z</time>
      </trkpt>
      <trkpt lat="45.83339" lon="4.7942">
        <ele>481.460114</ele>
        <time>2016-05-22T08:29:56Z</time>
      </trkpt>
      <trkpt lat="45.83337" lon="4.79417">
        <ele>481.936584</ele>
        <time>2016-05-22T08:29:58Z</time>
      </trkpt>
      <trkpt lat="45.83334" lon="4.79414">
        <ele>482.452301</ele>
        <time>2016-05-22T08:30:00Z</time>
      </trkpt>
      <trkpt lat="45.83331" lon="4.79412">
        <ele>482.756927</ele>
        <time>2016-05-22T08:30:02Z</time>
      </trkpt>
      <trkpt lat="45.83328" lon="4.7941">
        <ele>483.101654</ele>
        <time>2016-05-22T08:30:04Z</time>
      </trkpt>
      <trkpt lat="45.83325" lon="4.79407">
        <ele>483.363922</ele>
        <time>2016-05-22T08:30:06Z</time>
      </trkpt>
      <trkpt lat="45.83322" lon="4.79405">
        <ele>483.787933</ele>
        <time>2016-05-22T08:30:08Z</time>
      </trkpt>
      <trkpt lat="45.83319" lon="4.79403">
        <ele>484.177002</ele>
        <time>2016-05-22T08:30:10Z</time>
      </trkpt>
      <trkpt lat="45.83316" lon="4.79399">
        <ele>484.529358</ele>
        <time>2016-05-22T08:30:12Z</time>
      </trkpt>
      <trkpt lat="45.83315" lon="4.79394">
        <ele>484.900146</ele>
        <time>2016-05-22T08:30:14Z</time>
      </trkpt>
      <trkpt lat="45.83316" lon="4.79388">
        <ele>485.123108</ele>
        <time>2016-05-22T08:30:16Z</time>
      </trkpt>
      <trkpt lat="45.83317" lon="4.79382">
        <ele>485.376526</ele>
        <time>2016-05-22T08:30:18Z</time>
      </trkpt>
      <trkpt lat="45.83318" lon="4.79376">
        <ele>485.516418</ele>
        <time>2016-05-22T08:30:20Z</time>
      </trkpt>
      <trkpt lat="45.83319" lon="4.79371">
        <ele>485.858215</ele>
        <time>2016-05-22T08:30:22Z</time>
      </trkpt>
      <trkpt lat="45.8332" lon="4.79366">
        <ele>486.15274</ele>
        <time>2016-05-22T08:30:24Z</time>
      </trkpt>
      <trkpt lat="45.83321" lon="4.79361">
        <ele>486.265564</ele>
        <time>2016-05-22T08:30:26Z</time>
      </trkpt>
      <trkpt lat="45.83322" lon="4.79358">
        <ele>490.844147</ele>
        <time>2016-05-22T08:35:45Z</time>
      </trkpt>
      <trkpt lat="45.83326" lon="4.79362">
        <ele>491.067383</ele>
        <time>2016-05-22T08:35:53Z</time>
      </trkpt>
      <trkpt lat="45.83322" lon="4.79362">
        <ele>491.036804</ele>
        <time>2016-05-22T08:35:55Z</time>
      </trkpt>
      <trkpt lat="45.83319" lon="4.7936">
        <ele>490.982178</ele>
        <time>2016-05-22T08:35:57Z</time>
      </trkpt>
      <trkpt lat="45.83316" lon="4.79359">
        <ele>491.021545</ele>
        <time>2016-05-22T08:35:59Z</time>
      </trkpt>
      <trkpt lat="45.83312" lon="4.79358">
        <ele>491.111328</ele>
        <time>2016-05-22T08:36:01Z</time>
      </trkpt>
      <trkpt lat="45.83307" lon="4.79357">
        <ele>491.109192</ele>
        <time>2016-05-22T08:36:03Z</time>
      </trkpt>
      <trkpt lat="45.83303" lon="4.79357">
        <ele>491.227295</ele>
        <time>2016-05-22T08:36:05Z</time>
      </trkpt>
      <trkpt lat="45.83298" lon="4.79356">
        <ele>491.35434</ele>
        <time>2016-05-22T08:36:07Z</time>
      </trkpt>
      <trkpt lat="45.83293" lon="4.79356">
        <ele>491.386383</ele>
        <time>2016-05-22T08:36:09Z</time>
      </trkpt>
      <trkpt lat="45.83289" lon="4.79355">
        <ele>491.387878</ele>
        <time>2016-05-22T08:36:11Z</time>
      </trkpt>
      <trkpt lat="45.83284" lon="4.79354">
        <ele>491.425049</ele>
        <time>2016-05-22T08:36:13Z</time>
      </trkpt>
      <trkpt lat="45.83279" lon="4.79353">
        <ele>491.407562</ele>
        <time>2016-05-22T08:36:15Z</time>
      </trkpt>
      <trkpt lat="45.83275" lon="4.79351">
        <ele>491.396637</ele>
        <time>2016-05-22T08:36:17Z</time>
      </trkpt>
      <trkpt lat="45.8327" lon="4.79348">
        <ele>491.151794</ele>
        <time>2016-05-22T08:36:19Z</time>
      </trkpt>
      <trkpt lat="45.83265" lon="4.79344">
        <ele>491.083984</ele>
        <time>2016-05-22T08:36:21Z</time>
      </trkpt>
      <trkpt lat="45.83262" lon="4.79339">
        <ele>490.983643</ele>
        <time>2016-05-22T08:36:23Z</time>
      </trkpt>
      <trkpt lat="45.83258" lon="4.79334">
        <ele>490.880707</ele>
        <time>2016-05-22T08:36:25Z</time>
      </trkpt>
      <trkpt lat="45.83257" lon="4.79327">
        <ele>490.75766</ele>
        <time>2016-05-22T08:36:27Z</time>
      </trkpt>
      <trkpt lat="45.83255" lon="4.79322">
        <ele>490.660309</ele>
        <time>2016-05-22T08:36:29Z</time>
      </trkpt>
      <trkpt lat="45.83252" lon="4.79317">
        <ele>490.588135</ele>
        <time>2016-05-22T08:36:31Z</time>
      </trkpt>
      <trkpt lat="45.83248" lon="4.79314">
        <ele>490.596863</ele>
        <time>2016-05-22T08:36:33Z</time>
      </trkpt>
      <trkpt lat="45.83242" lon="4.79312">
        <ele>490.543121</ele>
        <time>2016-05-22T08:36:35Z</time>
      </trkpt>
      <trkpt lat="45.83236" lon="4.7931">
        <ele>490.538513</ele>
        <time>2016-05-22T08:36:37Z</time>
      </trkpt>
      <trkpt lat="45.83229" lon="4.79308">
        <ele>490.560974</ele>
        <time>2016-05-22T08:36:39Z</time>
      </trkpt>
      <trkpt lat="45.83222" lon="4.79305">
        <ele>490.530273</ele>
        <time>2016-05-22T08:36:41Z</time>
      </trkpt>
      <trkpt lat="45.83214" lon="4.79303">
        <ele>490.53241</ele>
        <time>2016-05-22T08:36:43Z</time>
      </trkpt>
      <trkpt lat="45.83207" lon="4.79301">
        <ele>490.425232</ele>
        <time>2016-05-22T08:36:45Z</time>
      </trkpt>
      <trkpt lat="45.832" lon="4.79299">
        <ele>490.20874</ele>
        <time>2016-05-22T08:36:47Z</time>
      </trkpt>
      <trkpt lat="45.83192" lon="4.79297">
        <ele>490.169342</ele>
        <time>2016-05-22T08:36:49Z</time>
      </trkpt>
      <trkpt lat="45.83185" lon="4.79295">
        <ele>490.044006</ele>
        <time>2016-05-22T08:36:51Z</time>
      </trkpt>
      <trkpt lat="45.83177" lon="4.79293">
        <ele>489.910583</ele>
        <time>2016-05-22T08:36:53Z</time>
      </trkpt>
      <trkpt lat="45.83171" lon="4.79291">
        <ele>489.834045</ele>
        <time>2016-05-22T08:36:55Z</time>
      </trkpt>
      <trkpt lat="45.83165" lon="4.79287">
        <ele>489.764069</ele>
        <time>2016-05-22T08:36:57Z</time>
      </trkpt>
      <trkpt lat="45.83167" lon="4.79284">
        <ele>489.685364</ele>
        <time>2016-05-22T08:36:59Z</time>
      </trkpt>
      <trkpt lat="45.8317" lon="4.79286">
        <ele>489.847107</ele>
        <time>2016-05-22T08:37:01Z</time>
      </trkpt>
      <trkpt lat="45.83174" lon="4.79287">
        <ele>489.823059</ele>
        <time>2016-05-22T08:37:03Z</time>
      </trkpt>
      <trkpt lat="45.83178" lon="4.79287">
        <ele>489.768005</ele>
        <time>2016-05-22T08:37:05Z</time>
      </trkpt>
      <trkpt lat="45.83181" lon="4.79288">
        <ele>489.87738</ele>
        <time>2016-05-22T08:37:07Z</time>
      </trkpt>
      <trkpt lat="45.83184" lon="4.79286">
        <ele>489.950684</ele>
        <time>2016-05-22T08:37:09Z</time>
      </trkpt>
      <trkpt lat="45.83187" lon="4.79284">
        <ele>490.073151</ele>
        <time>2016-05-22T08:37:11Z</time>
      </trkpt>
      <trkpt lat="45.8319" lon="4.79283">
        <ele>490.256897</ele>
        <time>2016-05-22T08:37:13Z</time>
      </trkpt>
      <trkpt lat="45.83194" lon="4.79281">
        <ele>490.453766</ele>
        <time>2016-05-22T08:37:15Z</time>
      </trkpt>
      <trkpt lat="45.83197" lon="4.79278">
        <ele>490.633636</ele>
        <time>2016-05-22T08:37:17Z</time>
      </trkpt>
      <trkpt lat="45.83201" lon="4.79277">
        <ele>490.714783</ele>
        <time>2016-05-22T08:37:19Z</time>
      </trkpt>
      <trkpt lat="45.83204" lon="4.79275">
        <ele>490.952576</ele>
        <time>2016-05-22T08:37:21Z</time>
      </trkpt>
      <trkpt lat="45.83207" lon="4.79273">
        <ele>491.158203</ele>
        <time>2016-05-22T08:37:23Z</time>
      </trkpt>
      <trkpt lat="45.83209" lon="4.79272">
        <ele>491.442627</ele>
        <time>2016-05-22T08:37:25Z</time>
      </trkpt>
      <trkpt lat="45.83212" lon="4.79271">
        <ele>491.752258</ele>
        <time>2016-05-22T08:37:27Z</time>
      </trkpt>
      <trkpt lat="45.83214" lon="4.7927">
        <ele>492.047058</ele>
        <time>2016-05-22T08:37:29Z</time>
      </trkpt>
      <trkpt lat="45.83216" lon="4.79268">
        <ele>492.366455</ele>
        <time>2016-05-22T08:37:31Z</time>
      </trkpt>
      <trkpt lat="45.83218" lon="4.79267">
        <ele>492.714203</ele>
        <time>2016-05-22T08:37:33Z</time>
      </trkpt>
      <trkpt lat="45.8322" lon="4.79265">
        <ele>493.203369</ele>
        <time>2016-05-22T08:37:35Z</time>
      </trkpt>
      <trkpt lat="45.83221" lon="4.79263">
        <ele>493.643066</ele>
        <time>2016-05-22T08:37:37Z</time>
      </trkpt>
      <trkpt lat="45.83221" lon="4.79258">
        <ele>495.791504</ele>
        <time>2016-05-22T08:37:49Z</time>
      </trkpt>
      <trkpt lat="45.83223" lon="4.79254">
        <ele>496.755432</ele>
        <time>2016-05-22T08:37:55Z</time>
      </trkpt>
      <trkpt lat="45.83223" lon="4.79252">
        <ele>496.926117</ele>
        <time>2016-05-22T08:37:57Z</time>
      </trkpt>
      <trkpt lat="45.83224" lon="4.79249">
        <ele>497.197449</ele>
        <time>2016-05-22T08:37:59Z</time>
      </trkpt>
      <trkpt lat="45.83225" lon="4.79247">
        <ele>497.498108</ele>
        <time>2016-05-22T08:38:01Z</time>
      </trkpt>
      <trkpt lat="45.83226" lon="4.79244">
        <ele>497.714172</ele>
        <time>2016-05-22T08:38:03Z</time>
      </trkpt>
      <trkpt lat="45.83226" lon="4.79241">
        <ele>497.979004</ele>
        <time>2016-05-22T08:38:05Z</time>
      </trkpt>
      <trkpt lat="45.83227" lon="4.79238">
        <ele>498.213226</ele>
        <time>2016-05-22T08:38:07Z</time>
      </trkpt>
      <trkpt lat="45.83228" lon="4.79236">
        <ele>498.522858</ele>
        <time>2016-05-22T08:38:09Z</time>
      </trkpt>
      <trkpt lat="45.83229" lon="4.79232">
        <ele>498.665588</ele>
        <time>2016-05-22T08:38:11Z</time>
      </trkpt>
      <trkpt lat="45.83231" lon="4.79229">
        <ele>498.931244</ele>
        <time>2016-05-22T08:38:13Z</time>
      </trkpt>
      <trkpt lat="45.83233" lon="4.79227">
        <ele>499.277191</ele>
        <time>2016-05-22T08:38:15Z</time>
      </trkpt>
      <trkpt lat="45.83234" lon="4.79224">
        <ele>499.547302</ele>
        <time>2016-05-22T08:38:17Z</time>
      </trkpt>
      <trkpt lat="45.83235" lon="4.79222">
        <ele>499.834076</ele>
        <time>2016-05-22T08:38:19Z</time>
      </trkpt>
      <trkpt lat="45.83236" lon="4.79219">
        <ele>500.092377</ele>
        <time>2016-05-22T08:38:21Z</time>
      </trkpt>
      <trkpt lat="45.83237" lon="4.79215">
        <ele>500.452637</ele>
        <time>2016-05-22T08:38:23Z</time>
      </trkpt>
      <trkpt lat="45.83238" lon="4.79212">
        <ele>500.693451</ele>
        <time>2016-05-22T08:38:25Z</time>
      </trkpt>
      <trkpt lat="45.83239" lon="4.79209">
        <ele>501.004303</ele>
        <time>2016-05-22T08:38:27Z</time>
      </trkpt>
      <trkpt lat="45.83239" lon="4.79206">
        <ele>501.359314</ele>
        <time>2016-05-22T08:38:29Z</time>
      </trkpt>
      <trkpt lat="45.8324" lon="4.79203">
        <ele>501.795471</ele>
        <time>2016-05-22T08:38:31Z</time>
      </trkpt>
      <trkpt lat="45.83241" lon="4.792">
        <ele>502.186707</ele>
        <time>2016-05-22T08:38:33Z</time>
      </trkpt>
      <trkpt lat="45.83242" lon="4.79198">
        <ele>502.548035</ele>
        <time>2016-05-22T08:38:35Z</time>
      </trkpt>
      <trkpt lat="45.83242" lon="4.79195">
        <ele>502.955872</ele>
        <time>2016-05-22T08:38:37Z</time>
      </trkpt>
      <trkpt lat="45.83243" lon="4.79193">
        <ele>503.398193</ele>
        <time>2016-05-22T08:38:39Z</time>
      </trkpt>
      <trkpt lat="45.83244" lon="4.7919">
        <ele>503.577789</ele>
        <time>2016-05-22T08:38:41Z</time>
      </trkpt>
      <trkpt lat="45.83245" lon="4.79187">
        <ele>503.968414</ele>
        <time>2016-05-22T08:38:43Z</time>
      </trkpt>
      <trkpt lat="45.83246" lon="4.79184">
        <ele>504.391663</ele>
        <time>2016-05-22T08:38:45Z</time>
      </trkpt>
      <trkpt lat="45.83248" lon="4.79179">
        <ele>505.085785</ele>
        <time>2016-05-22T08:38:49Z</time>
      </trkpt>
      <trkpt lat="45.83248" lon="4.79176">
        <ele>505.427429</ele>
        <time>2016-05-22T08:38:51Z</time>
      </trkpt>
      <trkpt lat="45.8325" lon="4.79172">
        <ele>506.278412</ele>
        <time>2016-05-22T08:38:55Z</time>
      </trkpt>
      <trkpt lat="45.83251" lon="4.79169">
        <ele>506.482178</ele>
        <time>2016-05-22T08:38:57Z</time>
      </trkpt>
      <trkpt lat="45.83251" lon="4.79166">
        <ele>506.851257</ele>
        <time>2016-05-22T08:38:59Z</time>
      </trkpt>
      <trkpt lat="45.8325" lon="4.79163">
        <ele>507.633606</ele>
        <time>2016-05-22T08:39:03Z</time>
      </trkpt>
      <trkpt lat="45.83247" lon="4.79161">
        <ele>507.969666</ele>
        <time>2016-05-22T08:39:05Z</time>
      </trkpt>
      <trkpt lat="45.83243" lon="4.7916">
        <ele>508.366211</ele>
        <time>2016-05-22T08:39:07Z</time>
      </trkpt>
      <trkpt lat="45.83239" lon="4.79161">
        <ele>508.75177</ele>
        <time>2016-05-22T08:39:09Z</time>
      </trkpt>
      <trkpt lat="45.83235" lon="4.79161">
        <ele>508.887299</ele>
        <time>2016-05-22T08:39:11Z</time>
      </trkpt>
      <trkpt lat="45.83232" lon="4.79158">
        <ele>509.126526</ele>
        <time>2016-05-22T08:39:13Z</time>
      </trkpt>
      <trkpt lat="45.83231" lon="4.79157">
        <ele>509.350159</ele>
        <time>2016-05-22T08:39:15Z</time>
      </trkpt>
      <trkpt lat="45.8323" lon="4.79156">
        <ele>509.437805</ele>
        <time>2016-05-22T08:39:17Z</time>
      </trkpt>
      <trkpt lat="45.83229" lon="4.79154">
        <ele>509.656891</ele>
        <time>2016-05-22T08:39:19Z</time>
      </trkpt>
      <trkpt lat="45.83229" lon="4.79152">
        <ele>509.786133</ele>
        <time>2016-05-22T08:39:21Z</time>
      </trkpt>
      <trkpt lat="45.8323" lon="4.79149">
        <ele>510.007751</ele>
        <time>2016-05-22T08:39:23Z</time>
      </trkpt>
      <trkpt lat="45.83231" lon="4.79147">
        <ele>510.091553</ele>
        <time>2016-05-22T08:39:25Z</time>
      </trkpt>
      <trkpt lat="45.83233" lon="4.79144">
        <ele>510.207184</ele>
        <time>2016-05-22T08:39:27Z</time>
      </trkpt>
      <trkpt lat="45.83234" lon="4.7914">
        <ele>510.327545</ele>
        <time>2016-05-22T08:39:29Z</time>
      </trkpt>
      <trkpt lat="45.83235" lon="4.79137">
        <ele>510.476501</ele>
        <time>2016-05-22T08:39:31Z</time>
      </trkpt>
      <trkpt lat="45.83236" lon="4.79133">
        <ele>510.730713</ele>
        <time>2016-05-22T08:39:33Z</time>
      </trkpt>
      <trkpt lat="45.83237" lon="4.79129">
        <ele>510.974213</ele>
        <time>2016-05-22T08:39:35Z</time>
      </trkpt>
      <trkpt lat="45.83238" lon="4.79126">
        <ele>511.085999</ele>
        <time>2016-05-22T08:39:37Z</time>
      </trkpt>
      <trkpt lat="45.83239" lon="4.79122">
        <ele>511.142975</ele>
        <time>2016-05-22T08:39:39Z</time>
      </trkpt>
      <trkpt lat="45.8324" lon="4.79119">
        <ele>511.299652</ele>
        <time>2016-05-22T08:39:41Z</time>
      </trkpt>
      <trkpt lat="45.83241" lon="4.79115">
        <ele>511.416931</ele>
        <time>2016-05-22T08:39:43Z</time>
      </trkpt>
      <trkpt lat="45.83242" lon="4.79111">
        <ele>511.575439</ele>
        <time>2016-05-22T08:39:45Z</time>
      </trkpt>
      <trkpt lat="45.83243" lon="4.79108">
        <ele>511.871338</ele>
        <time>2016-05-22T08:39:47Z</time>
      </trkpt>
      <trkpt lat="45.83245" lon="4.79104">
        <ele>512.208923</ele>
        <time>2016-05-22T08:39:49Z</time>
      </trkpt>
      <trkpt lat="45.83246" lon="4.791">
        <ele>512.44165</ele>
        <time>2016-05-22T08:39:51Z</time>
      </trkpt>
      <trkpt lat="45.83247" lon="4.79096">
        <ele>512.746216</ele>
        <time>2016-05-22T08:39:53Z</time>
      </trkpt>
      <trkpt lat="45.83248" lon="4.79093">
        <ele>513.082153</ele>
        <time>2016-05-22T08:39:55Z</time>
      </trkpt>
      <trkpt lat="45.83249" lon="4.79089">
        <ele>513.462769</ele>
        <time>2016-05-22T08:39:57Z</time>
      </trkpt>
      <trkpt lat="45.8325" lon="4.79086">
        <ele>513.833252</ele>
        <time>2016-05-22T08:39:59Z</time>
      </trkpt>
      <trkpt lat="45.83252" lon="4.79082">
        <ele>514.203674</ele>
        <time>2016-05-22T08:40:01Z</time>
      </trkpt>
      <trkpt lat="45.83253" lon="4.79078">
        <ele>514.401001</ele>
        <time>2016-05-22T08:40:03Z</time>
      </trkpt>
      <trkpt lat="45.83254" lon="4.79075">
        <ele>514.765259</ele>
        <time>2016-05-22T08:40:05Z</time>
      </trkpt>
      <trkpt lat="45.83256" lon="4.79072">
        <ele>515.258484</ele>
        <time>2016-05-22T08:40:07Z</time>
      </trkpt>
      <trkpt lat="45.83257" lon="4.79068">
        <ele>515.815857</ele>
        <time>2016-05-22T08:40:09Z</time>
      </trkpt>
      <trkpt lat="45.8326" lon="4.79067">
        <ele>516.320374</ele>
        <time>2016-05-22T08:40:11Z</time>
      </trkpt>
      <trkpt lat="45.83263" lon="4.79068">
        <ele>516.708374</ele>
        <time>2016-05-22T08:40:13Z</time>
      </trkpt>
      <trkpt lat="45.83266" lon="4.79069">
        <ele>517.118469</ele>
        <time>2016-05-22T08:40:15Z</time>
      </trkpt>
      <trkpt lat="45.8327" lon="4.79069">
        <ele>517.48468</ele>
        <time>2016-05-22T08:40:17Z</time>
      </trkpt>
      <trkpt lat="45.83273" lon="4.7907">
        <ele>517.809204</ele>
        <time>2016-05-22T08:40:19Z</time>
      </trkpt>
      <trkpt lat="45.83277" lon="4.79071">
        <ele>518.216553</ele>
        <time>2016-05-22T08:40:21Z</time>
      </trkpt>
      <trkpt lat="45.83281" lon="4.79072">
        <ele>518.486267</ele>
        <time>2016-05-22T08:40:23Z</time>
      </trkpt>
      <trkpt lat="45.83286" lon="4.79073">
        <ele>518.826416</ele>
        <time>2016-05-22T08:40:25Z</time>
      </trkpt>
      <trkpt lat="45.83291" lon="4.79073">
        <ele>519.11145</ele>
        <time>2016-05-22T08:40:27Z</time>
      </trkpt>
      <trkpt lat="45.83296" lon="4.79074">
        <ele>519.326355</ele>
        <time>2016-05-22T08:40:29Z</time>
      </trkpt>
      <trkpt lat="45.83301" lon="4.79075">
        <ele>519.474976</ele>
        <time>2016-05-22T08:40:31Z</time>
      </trkpt>
      <trkpt lat="45.83305" lon="4.79073">
        <ele>519.6698</ele>
        <time>2016-05-22T08:40:33Z</time>
      </trkpt>
      <trkpt lat="45.83309" lon="4.79071">
        <ele>519.89978</ele>
        <time>2016-05-22T08:40:35Z</time>
      </trkpt>
      <trkpt lat="45.83312" lon="4.79068">
        <ele>520.064209</ele>
        <time>2016-05-22T08:40:37Z</time>
      </trkpt>
      <trkpt lat="45.83313" lon="4.79063">
        <ele>520.278564</ele>
        <time>2016-05-22T08:40:39Z</time>
      </trkpt>
      <trkpt lat="45.83314" lon="4.79058">
        <ele>520.572449</ele>
        <time>2016-05-22T08:40:41Z</time>
      </trkpt>
      <trkpt lat="45.83314" lon="4.79053">
        <ele>520.855408</ele>
        <time>2016-05-22T08:40:43Z</time>
      </trkpt>
      <trkpt lat="45.83315" lon="4.79048">
        <ele>520.938782</ele>
        <time>2016-05-22T08:40:45Z</time>
      </trkpt>
      <trkpt lat="45.83316" lon="4.79044">
        <ele>521.124023</ele>
        <time>2016-05-22T08:40:47Z</time>
      </trkpt>
      <trkpt lat="45.83318" lon="4.79041">
        <ele>521.380737</ele>
        <time>2016-05-22T08:40:49Z</time>
      </trkpt>
      <trkpt lat="45.83321" lon="4.79039">
        <ele>521.41803</ele>
        <time>2016-05-22T08:40:51Z</time>
      </trkpt>
      <trkpt lat="45.83324" lon="4.79037">
        <ele>521.565125</ele>
        <time>2016-05-22T08:40:53Z</time>
      </trkpt>
      <trkpt lat="45.83326" lon="4.79036">
        <ele>521.964478</ele>
        <time>2016-05-22T08:40:55Z</time>
      </trkpt>
      <trkpt lat="45.83329" lon="4.79034">
        <ele>522.16748</ele>
        <time>2016-05-22T08:40:57Z</time>
      </trkpt>
      <trkpt lat="45.8333" lon="4.7903">
        <ele>522.373657</ele>
        <time>2016-05-22T08:40:59Z</time>
      </trkpt>
      <trkpt lat="45.83331" lon="4.79026">
        <ele>522.595215</ele>
        <time>2016-05-22T08:41:01Z</time>
      </trkpt>
      <trkpt lat="45.83331" lon="4.79022">
        <ele>522.771179</ele>
        <time>2016-05-22T08:41:03Z</time>
      </trkpt>
      <trkpt lat="45.83331" lon="4.79018">
        <ele>522.799744</ele>
        <time>2016-05-22T08:41:05Z</time>
      </trkpt>
      <trkpt lat="45.83332" lon="4.79013">
        <ele>523.148438</ele>
        <time>2016-05-22T08:41:07Z</time>
      </trkpt>
      <trkpt lat="45.83332" lon="4.79009">
        <ele>523.462158</ele>
        <time>2016-05-22T08:41:09Z</time>
      </trkpt>
      <trkpt lat="45.83332" lon="4.79005">
        <ele>523.787415</ele>
        <time>2016-05-22T08:41:11Z</time>
      </trkpt>
      <trkpt lat="45.83332" lon="4.79001">
        <ele>524.14209</ele>
        <time>2016-05-22T08:41:13Z</time>
      </trkpt>
      <trkpt lat="45.83333" lon="4.78996">
        <ele>524.520386</ele>
        <time>2016-05-22T08:41:15Z</time>
      </trkpt>
      <trkpt lat="45.83333" lon="4.78991">
        <ele>524.882446</ele>
        <time>2016-05-22T08:41:17Z</time>
      </trkpt>
      <trkpt lat="45.83334" lon="4.78987">
        <ele>525.273071</ele>
        <time>2016-05-22T08:41:19Z</time>
      </trkpt>
      <trkpt lat="45.83334" lon="4.78983">
        <ele>525.713257</ele>
        <time>2016-05-22T08:41:21Z</time>
      </trkpt>
      <trkpt lat="45.83333" lon="4.78979">
        <ele>525.906372</ele>
        <time>2016-05-22T08:41:23Z</time>
      </trkpt>
      <trkpt lat="45.83334" lon="4.78975">
        <ele>526.218567</ele>
        <time>2016-05-22T08:41:25Z</time>
      </trkpt>
      <trkpt lat="45.83334" lon="4.78971">
        <ele>526.582825</ele>
        <time>2016-05-22T08:41:27Z</time>
      </trkpt>
      <trkpt lat="45.83334" lon="4.78967">
        <ele>526.967407</ele>
        <time>2016-05-22T08:41:29Z</time>
      </trkpt>
      <trkpt lat="45.83334" lon="4.78964">
        <ele>527.338379</ele>
        <time>2016-05-22T08:41:31Z</time>
      </trkpt>
      <trkpt lat="45.83334" lon="4.78961">
        <ele>527.819031</ele>
        <time>2016-05-22T08:41:33Z</time>
      </trkpt>
      <trkpt lat="45.83333" lon="4.78958">
        <ele>528.226379</ele>
        <time>2016-05-22T08:41:35Z</time>
      </trkpt>
      <trkpt lat="45.83333" lon="4.78954">
        <ele>528.467896</ele>
        <time>2016-05-22T08:41:37Z</time>
      </trkpt>
      <trkpt lat="45.83332" lon="4.7895">
        <ele>528.890442</ele>
        <time>2016-05-22T08:41:39Z</time>
      </trkpt>
      <trkpt lat="45.83332" lon="4.78947">
        <ele>529.342651</ele>
        <time>2016-05-22T08:41:41Z</time>
      </trkpt>
      <trkpt lat="45.83332" lon="4.78944">
        <ele>529.841003</ele>
        <time>2016-05-22T08:41:43Z</time>
      </trkpt>
      <trkpt lat="45.83332" lon="4.78941">
        <ele>530.367981</ele>
        <time>2016-05-22T08:41:45Z</time>
      </trkpt>
      <trkpt lat="45.83332" lon="4.78938">
        <ele>530.831238</ele>
        <time>2016-05-22T08:41:47Z</time>
      </trkpt>
      <trkpt lat="45.83332" lon="4.78935">
        <ele>531.028931</ele>
        <time>2016-05-22T08:41:49Z</time>
      </trkpt>
      <trkpt lat="45.83332" lon="4.78932">
        <ele>531.494385</ele>
        <time>2016-05-22T08:41:51Z</time>
      </trkpt>
      <trkpt lat="45.83332" lon="4.78928">
        <ele>531.970398</ele>
        <time>2016-05-22T08:41:53Z</time>
      </trkpt>
      <trkpt lat="45.83333" lon="4.78924">
        <ele>532.399109</ele>
        <time>2016-05-22T08:41:55Z</time>
      </trkpt>
      <trkpt lat="45.83333" lon="4.78921">
        <ele>532.912048</ele>
        <time>2016-05-22T08:41:57Z</time>
      </trkpt>
      <trkpt lat="45.83333" lon="4.78917">
        <ele>533.327209</ele>
        <time>2016-05-22T08:41:59Z</time>
      </trkpt>
      <trkpt lat="45.83333" lon="4.78913">
        <ele>533.843323</ele>
        <time>2016-05-22T08:42:01Z</time>
      </trkpt>
      <trkpt lat="45.83334" lon="4.78909">
        <ele>534.319946</ele>
        <time>2016-05-22T08:42:03Z</time>
      </trkpt>
      <trkpt lat="45.83336" lon="4.78906">
        <ele>534.793884</ele>
        <time>2016-05-22T08:42:05Z</time>
      </trkpt>
      <trkpt lat="45.83336" lon="4.78903">
        <ele>535.364929</ele>
        <time>2016-05-22T08:42:07Z</time>
      </trkpt>
      <trkpt lat="45.83335" lon="4.789">
        <ele>535.586792</ele>
        <time>2016-05-22T08:42:09Z</time>
      </trkpt>
      <trkpt lat="45.83334" lon="4.78897">
        <ele>536.039001</ele>
        <time>2016-05-22T08:42:11Z</time>
      </trkpt>
      <trkpt lat="45.83334" lon="4.78894">
        <ele>536.469604</ele>
        <time>2016-05-22T08:42:13Z</time>
      </trkpt>
      <trkpt lat="45.83334" lon="4.7889">
        <ele>536.955078</ele>
        <time>2016-05-22T08:42:15Z</time>
      </trkpt>
      <trkpt lat="45.83334" lon="4.78886">
        <ele>537.468628</ele>
        <time>2016-05-22T08:42:17Z</time>
      </trkpt>
      <trkpt lat="45.83333" lon="4.78881">
        <ele>538.06842</ele>
        <time>2016-05-22T08:42:19Z</time>
      </trkpt>
      <trkpt lat="45.83332" lon="4.78877">
        <ele>538.593628</ele>
        <time>2016-05-22T08:42:21Z</time>
      </trkpt>
      <trkpt lat="45.83332" lon="4.78873">
        <ele>539.024292</ele>
        <time>2016-05-22T08:42:23Z</time>
      </trkpt>
      <trkpt lat="45.83332" lon="4.78869">
        <ele>539.459351</ele>
        <time>2016-05-22T08:42:25Z</time>
      </trkpt>
      <trkpt lat="45.83332" lon="4.78865">
        <ele>539.832886</ele>
        <time>2016-05-22T08:42:27Z</time>
      </trkpt>
      <trkpt lat="45.83332" lon="4.78861">
        <ele>540.013062</ele>
        <time>2016-05-22T08:42:29Z</time>
      </trkpt>
      <trkpt lat="45.83332" lon="4.78858">
        <ele>540.462463</ele>
        <time>2016-05-22T08:42:31Z</time>
      </trkpt>
      <trkpt lat="45.83333" lon="4.78854">
        <ele>540.932739</ele>
        <time>2016-05-22T08:42:33Z</time>
      </trkpt>
      <trkpt lat="45.83333" lon="4.7885">
        <ele>541.336792</ele>
        <time>2016-05-22T08:42:35Z</time>
      </trkpt>
      <trkpt lat="45.83333" lon="4.78846">
        <ele>541.790466</ele>
        <time>2016-05-22T08:42:37Z</time>
      </trkpt>
      <trkpt lat="45.83333" lon="4.78843">
        <ele>542.152893</ele>
        <time>2016-05-22T08:42:39Z</time>
      </trkpt>
      <trkpt lat="45.83333" lon="4.7884">
        <ele>542.644287</ele>
        <time>2016-05-22T08:42:41Z</time>
      </trkpt>
      <trkpt lat="45.83333" lon="4.78836">
        <ele>543.075134</ele>
        <time>2016-05-22T08:42:43Z</time>
      </trkpt>
      <trkpt lat="45.83333" lon="4.78832">
        <ele>543.495056</ele>
        <time>2016-05-22T08:42:45Z</time>
      </trkpt>
      <trkpt lat="45.83333" lon="4.78828">
        <ele>543.913513</ele>
        <time>2016-05-22T08:42:47Z</time>
      </trkpt>
      <trkpt lat="45.83333" lon="4.78825">
        <ele>544.364197</ele>
        <time>2016-05-22T08:42:49Z</time>
      </trkpt>
      <trkpt lat="45.83334" lon="4.78821">
        <ele>544.68103</ele>
        <time>2016-05-22T08:42:51Z</time>
      </trkpt>
      <trkpt lat="45.83334" lon="4.78819">
        <ele>544.885498</ele>
        <time>2016-05-22T08:42:53Z</time>
      </trkpt>
      <trkpt lat="45.83334" lon="4.78809">
        <ele>547.651489</ele>
        <time>2016-05-22T08:43:11Z</time>
      </trkpt>
      <trkpt lat="45.83328" lon="4.78802">
        <ele>549.220398</ele>
        <time>2016-05-22T08:43:43Z</time>
      </trkpt>
      <trkpt lat="45.83321" lon="4.78808">
        <ele>548.960938</ele>
        <time>2016-05-22T08:43:45Z</time>
      </trkpt>
      <trkpt lat="45.83316" lon="4.78813">
        <ele>548.849182</ele>
        <time>2016-05-22T08:43:47Z</time>
      </trkpt>
      <trkpt lat="45.83308" lon="4.7882">
        <ele>548.260132</ele>
        <time>2016-05-22T08:43:49Z</time>
      </trkpt>
      <trkpt lat="45.83298" lon="4.78827">
        <ele>548.344299</ele>
        <time>2016-05-22T08:43:51Z</time>
      </trkpt>
      <trkpt lat="45.83287" lon="4.78833">
        <ele>548.294556</ele>
        <time>2016-05-22T08:43:53Z</time>
      </trkpt>
      <trkpt lat="45.83274" lon="4.78836">
        <ele>548.258484</ele>
        <time>2016-05-22T08:43:55Z</time>
      </trkpt>
      <trkpt lat="45.83261" lon="4.78841">
        <ele>547.922241</ele>
        <time>2016-05-22T08:43:57Z</time>
      </trkpt>
      <trkpt lat="45.83247" lon="4.7885">
        <ele>547.067078</ele>
        <time>2016-05-22T08:43:59Z</time>
      </trkpt>
      <trkpt lat="45.83234" lon="4.78859">
        <ele>546.904663</ele>
        <time>2016-05-22T08:44:01Z</time>
      </trkpt>
      <trkpt lat="45.83221" lon="4.78868">
        <ele>546.074768</ele>
        <time>2016-05-22T08:44:03Z</time>
      </trkpt>
      <trkpt lat="45.8321" lon="4.78875">
        <ele>545.16272</ele>
        <time>2016-05-22T08:44:05Z</time>
      </trkpt>
      <trkpt lat="45.832" lon="4.78881">
        <ele>544.55365</ele>
        <time>2016-05-22T08:44:07Z</time>
      </trkpt>
      <trkpt lat="45.83192" lon="4.78883">
        <ele>543.299194</ele>
        <time>2016-05-22T08:44:09Z</time>
      </trkpt>
      <trkpt lat="45.83188" lon="4.7888">
        <ele>542.083496</ele>
        <time>2016-05-22T08:44:11Z</time>
      </trkpt>
      <trkpt lat="45.83188" lon="4.78875">
        <ele>540.983582</ele>
        <time>2016-05-22T08:44:13Z</time>
      </trkpt>
      <trkpt lat="45.83191" lon="4.7887">
        <ele>539.854492</ele>
        <time>2016-05-22T08:44:15Z</time>
      </trkpt>
      <trkpt lat="45.83194" lon="4.78863">
        <ele>538.564941</ele>
        <time>2016-05-22T08:44:17Z</time>
      </trkpt>
      <trkpt lat="45.83199" lon="4.78854">
        <ele>537.945496</ele>
        <time>2016-05-22T08:44:19Z</time>
      </trkpt>
      <trkpt lat="45.83202" lon="4.78845">
        <ele>536.807495</ele>
        <time>2016-05-22T08:44:21Z</time>
      </trkpt>
      <trkpt lat="45.83206" lon="4.78834">
        <ele>536.008911</ele>
        <time>2016-05-22T08:44:23Z</time>
      </trkpt>
      <trkpt lat="45.8321" lon="4.78825">
        <ele>534.840576</ele>
        <time>2016-05-22T08:44:25Z</time>
      </trkpt>
      <trkpt lat="45.83214" lon="4.78817">
        <ele>534.025696</ele>
        <time>2016-05-22T08:44:27Z</time>
      </trkpt>
      <trkpt lat="45.83219" lon="4.78811">
        <ele>532.986633</ele>
        <time>2016-05-22T08:44:29Z</time>
      </trkpt>
      <trkpt lat="45.83223" lon="4.78804">
        <ele>532.512085</ele>
        <time>2016-05-22T08:44:31Z</time>
      </trkpt>
      <trkpt lat="45.83228" lon="4.78799">
        <ele>531.51825</ele>
        <time>2016-05-22T08:44:33Z</time>
      </trkpt>
      <trkpt lat="45.83233" lon="4.78795">
        <ele>530.822876</ele>
        <time>2016-05-22T08:44:35Z</time>
      </trkpt>
      <trkpt lat="45.83238" lon="4.7879">
        <ele>529.866943</ele>
        <time>2016-05-22T08:44:37Z</time>
      </trkpt>
      <trkpt lat="45.83242" lon="4.78787">
        <ele>529.338257</ele>
        <time>2016-05-22T08:44:39Z</time>
      </trkpt>
      <trkpt lat="45.83247" lon="4.78781">
        <ele>529.456726</ele>
        <time>2016-05-22T08:44:41Z</time>
      </trkpt>
      <trkpt lat="45.83252" lon="4.78776">
        <ele>528.684875</ele>
        <time>2016-05-22T08:44:43Z</time>
      </trkpt>
      <trkpt lat="45.83257" lon="4.78773">
        <ele>528.539856</ele>
        <time>2016-05-22T08:44:45Z</time>
      </trkpt>
      <trkpt lat="45.83261" lon="4.78769">
        <ele>528.443115</ele>
        <time>2016-05-22T08:44:47Z</time>
      </trkpt>
      <trkpt lat="45.83265" lon="4.78766">
        <ele>528.190674</ele>
        <time>2016-05-22T08:44:49Z</time>
      </trkpt>
      <trkpt lat="45.83268" lon="4.78763">
        <ele>528.456238</ele>
        <time>2016-05-22T08:44:51Z</time>
      </trkpt>
      <trkpt lat="45.83271" lon="4.7876">
        <ele>528.860229</ele>
        <time>2016-05-22T08:44:53Z</time>
      </trkpt>
      <trkpt lat="45.83275" lon="4.78758">
        <ele>529.167542</ele>
        <time>2016-05-22T08:44:55Z</time>
      </trkpt>
      <trkpt lat="45.83277" lon="4.78755">
        <ele>529.425171</ele>
        <time>2016-05-22T08:44:57Z</time>
      </trkpt>
      <trkpt lat="45.83279" lon="4.78752">
        <ele>529.989319</ele>
        <time>2016-05-22T08:44:59Z</time>
      </trkpt>
      <trkpt lat="45.83283" lon="4.78748">
        <ele>530.428345</ele>
        <time>2016-05-22T08:45:01Z</time>
      </trkpt>
      <trkpt lat="45.83288" lon="4.78744">
        <ele>530.790588</ele>
        <time>2016-05-22T08:45:03Z</time>
      </trkpt>
      <trkpt lat="45.83292" lon="4.78741">
        <ele>530.779602</ele>
        <time>2016-05-22T08:45:05Z</time>
      </trkpt>
      <trkpt lat="45.83296" lon="4.78738">
        <ele>531.125916</ele>
        <time>2016-05-22T08:45:07Z</time>
      </trkpt>
      <trkpt lat="45.833" lon="4.78736">
        <ele>531.472778</ele>
        <time>2016-05-22T08:45:09Z</time>
      </trkpt>
      <trkpt lat="45.83302" lon="4.78735">
        <ele>531.986572</ele>
        <time>2016-05-22T08:45:11Z</time>
      </trkpt>
      <trkpt lat="45.83305" lon="4.78735">
        <ele>532.366455</ele>
        <time>2016-05-22T08:45:13Z</time>
      </trkpt>
      <trkpt lat="45.83307" lon="4.78734">
        <ele>532.638977</ele>
        <time>2016-05-22T08:45:15Z</time>
      </trkpt>
      <trkpt lat="45.83309" lon="4.78733">
        <ele>532.922424</ele>
        <time>2016-05-22T08:45:17Z</time>
      </trkpt>
      <trkpt lat="45.83312" lon="4.78732">
        <ele>533.274292</ele>
        <time>2016-05-22T08:45:19Z</time>
      </trkpt>
      <trkpt lat="45.83315" lon="4.78731">
        <ele>533.770691</ele>
        <time>2016-05-22T08:45:21Z</time>
      </trkpt>
      <trkpt lat="45.83318" lon="4.78731">
        <ele>534.421021</ele>
        <time>2016-05-22T08:45:23Z</time>
      </trkpt>
      <trkpt lat="45.83321" lon="4.7873">
        <ele>534.814941</ele>
        <time>2016-05-22T08:45:25Z</time>
      </trkpt>
      <trkpt lat="45.83324" lon="4.78729">
        <ele>535.010437</ele>
        <time>2016-05-22T08:45:27Z</time>
      </trkpt>
      <trkpt lat="45.83326" lon="4.78728">
        <ele>535.521973</ele>
        <time>2016-05-22T08:45:29Z</time>
      </trkpt>
      <trkpt lat="45.83329" lon="4.78727">
        <ele>535.864624</ele>
        <time>2016-05-22T08:45:31Z</time>
      </trkpt>
      <trkpt lat="45.83332" lon="4.78725">
        <ele>536.304688</ele>
        <time>2016-05-22T08:45:33Z</time>
      </trkpt>
      <trkpt lat="45.83334" lon="4.78723">
        <ele>536.706726</ele>
        <time>2016-05-22T08:45:35Z</time>
      </trkpt>
      <trkpt lat="45.83337" lon="4.78723">
        <ele>537.034058</ele>
        <time>2016-05-22T08:45:37Z</time>
      </trkpt>
      <trkpt lat="45.83339" lon="4.78722">
        <ele>537.445068</ele>
        <time>2016-05-22T08:45:39Z</time>
      </trkpt>
      <trkpt lat="45.83341" lon="4.78721">
        <ele>537.746033</ele>
        <time>2016-05-22T08:45:41Z</time>
      </trkpt>
      <trkpt lat="45.83344" lon="4.7872">
        <ele>538.1745</ele>
        <time>2016-05-22T08:45:43Z</time>
      </trkpt>
      <trkpt lat="45.83347" lon="4.78718">
        <ele>538.521667</ele>
        <time>2016-05-22T08:45:45Z</time>
      </trkpt>
      <trkpt lat="45.8335" lon="4.78717">
        <ele>538.761047</ele>
        <time>2016-05-22T08:45:47Z</time>
      </trkpt>
      <trkpt lat="45.83352" lon="4.78716">
        <ele>539.1698</ele>
        <time>2016-05-22T08:45:49Z</time>
      </trkpt>
      <trkpt lat="45.83353" lon="4.78716">
        <ele>539.580627</ele>
        <time>2016-05-22T08:45:51Z</time>
      </trkpt>
      <trkpt lat="45.83356" lon="4.78715">
        <ele>539.769653</ele>
        <time>2016-05-22T08:45:53Z</time>
      </trkpt>
      <trkpt lat="45.83359" lon="4.78715">
        <ele>539.973999</ele>
        <time>2016-05-22T08:45:55Z</time>
      </trkpt>
      <trkpt lat="45.83362" lon="4.78714">
        <ele>540.414429</ele>
        <time>2016-05-22T08:45:57Z</time>
      </trkpt>
      <trkpt lat="45.83365" lon="4.78713">
        <ele>540.624207</ele>
        <time>2016-05-22T08:45:59Z</time>
      </trkpt>
      <trkpt lat="45.83368" lon="4.78713">
        <ele>540.964417</ele>
        <time>2016-05-22T08:46:01Z</time>
      </trkpt>
      <trkpt lat="45.8337" lon="4.78712">
        <ele>541.283081</ele>
        <time>2016-05-22T08:46:03Z</time>
      </trkpt>
      <trkpt lat="45.83373" lon="4.78711">
        <ele>541.656799</ele>
        <time>2016-05-22T08:46:05Z</time>
      </trkpt>
      <trkpt lat="45.83377" lon="4.78709">
        <ele>542.015015</ele>
        <time>2016-05-22T08:46:07Z</time>
      </trkpt>
      <trkpt lat="45.83379" lon="4.78707">
        <ele>542.402222</ele>
        <time>2016-05-22T08:46:09Z</time>
      </trkpt>
      <trkpt lat="45.83381" lon="4.78705">
        <ele>542.782471</ele>
        <time>2016-05-22T08:46:11Z</time>
      </trkpt>
      <trkpt lat="45.83383" lon="4.78703">
        <ele>543.089478</ele>
        <time>2016-05-22T08:46:13Z</time>
      </trkpt>
      <trkpt lat="45.83386" lon="4.78701">
        <ele>543.436768</ele>
        <time>2016-05-22T08:46:15Z</time>
      </trkpt>
      <trkpt lat="45.83388" lon="4.78699">
        <ele>543.733521</ele>
        <time>2016-05-22T08:46:17Z</time>
      </trkpt>
      <trkpt lat="45.83392" lon="4.78698">
        <ele>544.085327</ele>
        <time>2016-05-22T08:46:19Z</time>
      </trkpt>
      <trkpt lat="45.83395" lon="4.78696">
        <ele>544.264282</ele>
        <time>2016-05-22T08:46:21Z</time>
      </trkpt>
      <trkpt lat="45.83397" lon="4.78695">
        <ele>544.672913</ele>
        <time>2016-05-22T08:46:23Z</time>
      </trkpt>
      <trkpt lat="45.834" lon="4.78693">
        <ele>545.020325</ele>
        <time>2016-05-22T08:46:25Z</time>
      </trkpt>
      <trkpt lat="45.83402" lon="4.78691">
        <ele>545.422729</ele>
        <time>2016-05-22T08:46:27Z</time>
      </trkpt>
      <trkpt lat="45.83404" lon="4.7869">
        <ele>546.007446</ele>
        <time>2016-05-22T08:46:29Z</time>
      </trkpt>
      <trkpt lat="45.83408" lon="4.78688">
        <ele>546.33728</ele>
        <time>2016-05-22T08:46:31Z</time>
      </trkpt>
      <trkpt lat="45.83411" lon="4.78685">
        <ele>546.730896</ele>
        <time>2016-05-22T08:46:33Z</time>
      </trkpt>
      <trkpt lat="45.83413" lon="4.78682">
        <ele>547.258545</ele>
        <time>2016-05-22T08:46:35Z</time>
      </trkpt>
      <trkpt lat="45.83416" lon="4.7868">
        <ele>547.607056</ele>
        <time>2016-05-22T08:46:37Z</time>
      </trkpt>
      <trkpt lat="45.8342" lon="4.78676">
        <ele>547.869995</ele>
        <time>2016-05-22T08:46:39Z</time>
      </trkpt>
      <trkpt lat="45.83424" lon="4.78672">
        <ele>548.070068</ele>
        <time>2016-05-22T08:46:41Z</time>
      </trkpt>
      <trkpt lat="45.83427" lon="4.78669">
        <ele>548.476929</ele>
        <time>2016-05-22T08:46:43Z</time>
      </trkpt>
      <trkpt lat="45.8343" lon="4.78665">
        <ele>548.657227</ele>
        <time>2016-05-22T08:46:45Z</time>
      </trkpt>
      <trkpt lat="45.83433" lon="4.78662">
        <ele>548.797974</ele>
        <time>2016-05-22T08:46:47Z</time>
      </trkpt>
      <trkpt lat="45.83436" lon="4.78658">
        <ele>549.05957</ele>
        <time>2016-05-22T08:46:49Z</time>
      </trkpt>
      <trkpt lat="45.83438" lon="4.78655">
        <ele>549.303223</ele>
        <time>2016-05-22T08:46:51Z</time>
      </trkpt>
      <trkpt lat="45.8344" lon="4.78653">
        <ele>549.571594</ele>
        <time>2016-05-22T08:46:53Z</time>
      </trkpt>
      <trkpt lat="45.83444" lon="4.78649">
        <ele>549.920776</ele>
        <time>2016-05-22T08:46:55Z</time>
      </trkpt>
      <trkpt lat="45.83446" lon="4.78646">
        <ele>550.2771</ele>
        <time>2016-05-22T08:46:57Z</time>
      </trkpt>
      <trkpt lat="45.83448" lon="4.78644">
        <ele>550.633423</ele>
        <time>2016-05-22T08:46:59Z</time>
      </trkpt>
      <trkpt lat="45.83452" lon="4.7864">
        <ele>550.885986</ele>
        <time>2016-05-22T08:47:01Z</time>
      </trkpt>
      <trkpt lat="45.83454" lon="4.78637">
        <ele>551.23761</ele>
        <time>2016-05-22T08:47:03Z</time>
      </trkpt>
      <trkpt lat="45.83457" lon="4.78634">
        <ele>551.437805</ele>
        <time>2016-05-22T08:47:05Z</time>
      </trkpt>
      <trkpt lat="45.8346" lon="4.78631">
        <ele>551.739258</ele>
        <time>2016-05-22T08:47:07Z</time>
      </trkpt>
      <trkpt lat="45.83463" lon="4.78629">
        <ele>552.08252</ele>
        <time>2016-05-22T08:47:09Z</time>
      </trkpt>
      <trkpt lat="45.83465" lon="4.78626">
        <ele>552.27179</ele>
        <time>2016-05-22T08:47:11Z</time>
      </trkpt>
      <trkpt lat="45.83468" lon="4.78624">
        <ele>552.638489</ele>
        <time>2016-05-22T08:47:13Z</time>
      </trkpt>
      <trkpt lat="45.83471" lon="4.7862">
        <ele>553.012573</ele>
        <time>2016-05-22T08:47:15Z</time>
      </trkpt>
      <trkpt lat="45.83474" lon="4.78617">
        <ele>553.2854</ele>
        <time>2016-05-22T08:47:17Z</time>
      </trkpt>
      <trkpt lat="45.83476" lon="4.78615">
        <ele>553.573669</ele>
        <time>2016-05-22T08:47:19Z</time>
      </trkpt>
      <trkpt lat="45.83478" lon="4.78612">
        <ele>553.935669</ele>
        <time>2016-05-22T08:47:21Z</time>
      </trkpt>
      <trkpt lat="45.83484" lon="4.78605">
        <ele>554.382385</ele>
        <time>2016-05-22T08:47:23Z</time>
      </trkpt>
      <trkpt lat="45.83487" lon="4.78602">
        <ele>554.761597</ele>
        <time>2016-05-22T08:47:25Z</time>
      </trkpt>
      <trkpt lat="45.8349" lon="4.78598">
        <ele>555.355835</ele>
        <time>2016-05-22T08:47:27Z</time>
      </trkpt>
      <trkpt lat="45.83493" lon="4.78595">
        <ele>555.829224</ele>
        <time>2016-05-22T08:47:29Z</time>
      </trkpt>
      <trkpt lat="45.83496" lon="4.78592">
        <ele>556.258911</ele>
        <time>2016-05-22T08:47:31Z</time>
      </trkpt>
      <trkpt lat="45.835" lon="4.78589">
        <ele>556.463562</ele>
        <time>2016-05-22T08:47:33Z</time>
      </trkpt>
      <trkpt lat="45.83503" lon="4.78586">
        <ele>556.862305</ele>
        <time>2016-05-22T08:47:35Z</time>
      </trkpt>
      <trkpt lat="45.83506" lon="4.78583">
        <ele>557.237305</ele>
        <time>2016-05-22T08:47:37Z</time>
      </trkpt>
      <trkpt lat="45.8351" lon="4.7858">
        <ele>557.481628</ele>
        <time>2016-05-22T08:47:39Z</time>
      </trkpt>
      <trkpt lat="45.83513" lon="4.78578">
        <ele>557.786255</ele>
        <time>2016-05-22T08:47:41Z</time>
      </trkpt>
      <trkpt lat="45.83516" lon="4.78575">
        <ele>558.150696</ele>
        <time>2016-05-22T08:47:43Z</time>
      </trkpt>
      <trkpt lat="45.83519" lon="4.78573">
        <ele>558.510254</ele>
        <time>2016-05-22T08:47:45Z</time>
      </trkpt>
      <trkpt lat="45.83522" lon="4.7857">
        <ele>558.811829</ele>
        <time>2016-05-22T08:47:47Z</time>
      </trkpt>
      <trkpt lat="45.83525" lon="4.78567">
        <ele>559.095825</ele>
        <time>2016-05-22T08:47:49Z</time>
      </trkpt>
      <trkpt lat="45.83527" lon="4.78564">
        <ele>559.353394</ele>
        <time>2016-05-22T08:47:51Z</time>
      </trkpt>
      <trkpt lat="45.8353" lon="4.7856">
        <ele>559.589722</ele>
        <time>2016-05-22T08:47:53Z</time>
      </trkpt>
      <trkpt lat="45.83532" lon="4.78555">
        <ele>559.834106</ele>
        <time>2016-05-22T08:47:55Z</time>
      </trkpt>
      <trkpt lat="45.83535" lon="4.78551">
        <ele>559.906738</ele>
        <time>2016-05-22T08:47:57Z</time>
      </trkpt>
      <trkpt lat="45.83538" lon="4.78546">
        <ele>560.221008</ele>
        <time>2016-05-22T08:47:59Z</time>
      </trkpt>
      <trkpt lat="45.83541" lon="4.78543">
        <ele>560.491821</ele>
        <time>2016-05-22T08:48:01Z</time>
      </trkpt>
      <trkpt lat="45.83543" lon="4.78538">
        <ele>560.837097</ele>
        <time>2016-05-22T08:48:03Z</time>
      </trkpt>
      <trkpt lat="45.83546" lon="4.78533">
        <ele>561.070557</ele>
        <time>2016-05-22T08:48:05Z</time>
      </trkpt>
      <trkpt lat="45.83549" lon="4.78527">
        <ele>561.204224</ele>
        <time>2016-05-22T08:48:07Z</time>
      </trkpt>
      <trkpt lat="45.83553" lon="4.78522">
        <ele>561.302795</ele>
        <time>2016-05-22T08:48:09Z</time>
      </trkpt>
      <trkpt lat="45.83556" lon="4.78516">
        <ele>561.408447</ele>
        <time>2016-05-22T08:48:11Z</time>
      </trkpt>
      <trkpt lat="45.83559" lon="4.78509">
        <ele>561.593384</ele>
        <time>2016-05-22T08:48:13Z</time>
      </trkpt>
      <trkpt lat="45.83563" lon="4.78503">
        <ele>561.705811</ele>
        <time>2016-05-22T08:48:15Z</time>
      </trkpt>
      <trkpt lat="45.83567" lon="4.78497">
        <ele>561.895386</ele>
        <time>2016-05-22T08:48:17Z</time>
      </trkpt>
      <trkpt lat="45.83571" lon="4.7849">
        <ele>562.058044</ele>
        <time>2016-05-22T08:48:19Z</time>
      </trkpt>
      <trkpt lat="45.83575" lon="4.78483">
        <ele>562.262817</ele>
        <time>2016-05-22T08:48:21Z</time>
      </trkpt>
      <trkpt lat="45.8358" lon="4.78476">
        <ele>562.482239</ele>
        <time>2016-05-22T08:48:23Z</time>
      </trkpt>
      <trkpt lat="45.83585" lon="4.78469">
        <ele>562.624634</ele>
        <time>2016-05-22T08:48:25Z</time>
      </trkpt>
      <trkpt lat="45.8359" lon="4.78459">
        <ele>562.411072</ele>
        <time>2016-05-22T08:48:27Z</time>
      </trkpt>
      <trkpt lat="45.83595" lon="4.7845">
        <ele>562.413269</ele>
        <time>2016-05-22T08:48:29Z</time>
      </trkpt>
      <trkpt lat="45.83602" lon="4.78442">
        <ele>562.505798</ele>
        <time>2016-05-22T08:48:31Z</time>
      </trkpt>
      <trkpt lat="45.8361" lon="4.78435">
        <ele>562.298889</ele>
        <time>2016-05-22T08:48:33Z</time>
      </trkpt>
      <trkpt lat="45.83619" lon="4.78428">
        <ele>562.245972</ele>
        <time>2016-05-22T08:48:35Z</time>
      </trkpt>
      <trkpt lat="45.83629" lon="4.7842">
        <ele>561.955444</ele>
        <time>2016-05-22T08:48:37Z</time>
      </trkpt>
      <trkpt lat="45.83641" lon="4.78412">
        <ele>561.900208</ele>
        <time>2016-05-22T08:48:39Z</time>
      </trkpt>
      <trkpt lat="45.83648" lon="4.78406">
        <ele>561.541931</ele>
        <time>2016-05-22T08:48:41Z</time>
      </trkpt>
      <trkpt lat="45.83657" lon="4.78403">
        <ele>561.112671</ele>
        <time>2016-05-22T08:48:43Z</time>
      </trkpt>
      <trkpt lat="45.83669" lon="4.78402">
        <ele>561.097229</ele>
        <time>2016-05-22T08:48:45Z</time>
      </trkpt>
      <trkpt lat="45.8368" lon="4.78404">
        <ele>560.792847</ele>
        <time>2016-05-22T08:48:47Z</time>
      </trkpt>
      <trkpt lat="45.83692" lon="4.78404">
        <ele>560.639954</ele>
        <time>2016-05-22T08:48:49Z</time>
      </trkpt>
      <trkpt lat="45.83703" lon="4.78405">
        <ele>560.145142</ele>
        <time>2016-05-22T08:48:51Z</time>
      </trkpt>
      <trkpt lat="45.83711" lon="4.78406">
        <ele>559.471863</ele>
        <time>2016-05-22T08:48:53Z</time>
      </trkpt>
      <trkpt lat="45.83718" lon="4.78405">
        <ele>559.097534</ele>
        <time>2016-05-22T08:48:55Z</time>
      </trkpt>
      <trkpt lat="45.83725" lon="4.78405">
        <ele>558.610474</ele>
        <time>2016-05-22T08:48:57Z</time>
      </trkpt>
      <trkpt lat="45.83735" lon="4.78403">
        <ele>558.3573</ele>
        <time>2016-05-22T08:48:59Z</time>
      </trkpt>
      <trkpt lat="45.83744" lon="4.78402">
        <ele>557.760254</ele>
        <time>2016-05-22T08:49:01Z</time>
      </trkpt>
      <trkpt lat="45.83753" lon="4.78399">
        <ele>557.383789</ele>
        <time>2016-05-22T08:49:03Z</time>
      </trkpt>
      <trkpt lat="45.83761" lon="4.78396">
        <ele>557.04248</ele>
        <time>2016-05-22T08:49:05Z</time>
      </trkpt>
      <trkpt lat="45.8377" lon="4.78394">
        <ele>556.687988</ele>
        <time>2016-05-22T08:49:07Z</time>
      </trkpt>
      <trkpt lat="45.83777" lon="4.78393">
        <ele>556.575806</ele>
        <time>2016-05-22T08:49:09Z</time>
      </trkpt>
      <trkpt lat="45.83781" lon="4.7839">
        <ele>556.238953</ele>
        <time>2016-05-22T08:49:11Z</time>
      </trkpt>
      <trkpt lat="45.83788" lon="4.78387">
        <ele>555.77002</ele>
        <time>2016-05-22T08:49:13Z</time>
      </trkpt>
      <trkpt lat="45.83794" lon="4.78382">
        <ele>555.633606</ele>
        <time>2016-05-22T08:49:15Z</time>
      </trkpt>
      <trkpt lat="45.83799" lon="4.78377">
        <ele>555.382629</ele>
        <time>2016-05-22T08:49:17Z</time>
      </trkpt>
      <trkpt lat="45.83807" lon="4.78373">
        <ele>555.321106</ele>
        <time>2016-05-22T08:49:19Z</time>
      </trkpt>
      <trkpt lat="45.83813" lon="4.78371">
        <ele>555.233093</ele>
        <time>2016-05-22T08:49:21Z</time>
      </trkpt>
      <trkpt lat="45.83819" lon="4.78368">
        <ele>555.245483</ele>
        <time>2016-05-22T08:49:23Z</time>
      </trkpt>
      <trkpt lat="45.83824" lon="4.78368">
        <ele>555.322571</ele>
        <time>2016-05-22T08:49:25Z</time>
      </trkpt>
      <trkpt lat="45.8383" lon="4.78366">
        <ele>555.011353</ele>
        <time>2016-05-22T08:49:27Z</time>
      </trkpt>
      <trkpt lat="45.83836" lon="4.78366">
        <ele>554.990601</ele>
        <time>2016-05-22T08:49:29Z</time>
      </trkpt>
      <trkpt lat="45.83842" lon="4.78367">
        <ele>554.853027</ele>
        <time>2016-05-22T08:49:31Z</time>
      </trkpt>
      <trkpt lat="45.83848" lon="4.78367">
        <ele>554.947632</ele>
        <time>2016-05-22T08:49:33Z</time>
      </trkpt>
      <trkpt lat="45.83855" lon="4.78368">
        <ele>555.23999</ele>
        <time>2016-05-22T08:49:35Z</time>
      </trkpt>
      <trkpt lat="45.83862" lon="4.78371">
        <ele>555.230286</ele>
        <time>2016-05-22T08:49:37Z</time>
      </trkpt>
      <trkpt lat="45.83868" lon="4.78373">
        <ele>555.29187</ele>
        <time>2016-05-22T08:49:39Z</time>
      </trkpt>
      <trkpt lat="45.83875" lon="4.78371">
        <ele>555.422302</ele>
        <time>2016-05-22T08:49:41Z</time>
      </trkpt>
      <trkpt lat="45.83883" lon="4.7837">
        <ele>555.750122</ele>
        <time>2016-05-22T08:49:43Z</time>
      </trkpt>
      <trkpt lat="45.8389" lon="4.7837">
        <ele>555.77655</ele>
        <time>2016-05-22T08:49:45Z</time>
      </trkpt>
      <trkpt lat="45.83897" lon="4.78369">
        <ele>555.800781</ele>
        <time>2016-05-22T08:49:47Z</time>
      </trkpt>
      <trkpt lat="45.83904" lon="4.78369">
        <ele>555.750122</ele>
        <time>2016-05-22T08:49:49Z</time>
      </trkpt>
      <trkpt lat="45.8391" lon="4.78369">
        <ele>555.684143</ele>
        <time>2016-05-22T08:49:51Z</time>
      </trkpt>
      <trkpt lat="45.83916" lon="4.78368">
        <ele>555.866821</ele>
        <time>2016-05-22T08:49:53Z</time>
      </trkpt>
      <trkpt lat="45.83921" lon="4.78369">
        <ele>556.117737</ele>
        <time>2016-05-22T08:49:55Z</time>
      </trkpt>
      <trkpt lat="45.83926" lon="4.7837">
        <ele>556.205811</ele>
        <time>2016-05-22T08:49:57Z</time>
      </trkpt>
      <trkpt lat="45.83931" lon="4.7837">
        <ele>556.362061</ele>
        <time>2016-05-22T08:49:59Z</time>
      </trkpt>
      <trkpt lat="45.83938" lon="4.78369">
        <ele>556.573364</ele>
        <time>2016-05-22T08:50:01Z</time>
      </trkpt>
      <trkpt lat="45.83944" lon="4.78367">
        <ele>556.684204</ele>
        <time>2016-05-22T08:50:03Z</time>
      </trkpt>
      <trkpt lat="45.83951" lon="4.78364">
        <ele>556.730469</ele>
        <time>2016-05-22T08:50:05Z</time>
      </trkpt>
      <trkpt lat="45.83958" lon="4.7836">
        <ele>556.679871</ele>
        <time>2016-05-22T08:50:07Z</time>
      </trkpt>
      <trkpt lat="45.83967" lon="4.78359">
        <ele>556.618286</ele>
        <time>2016-05-22T08:50:09Z</time>
      </trkpt>
      <trkpt lat="45.83975" lon="4.78359">
        <ele>556.729126</ele>
        <time>2016-05-22T08:50:11Z</time>
      </trkpt>
      <trkpt lat="45.83986" lon="4.78359">
        <ele>556.667419</ele>
        <time>2016-05-22T08:50:13Z</time>
      </trkpt>
      <trkpt lat="45.83996" lon="4.78359">
        <ele>556.581604</ele>
        <time>2016-05-22T08:50:15Z</time>
      </trkpt>
      <trkpt lat="45.84006" lon="4.7836">
        <ele>556.537659</ele>
        <time>2016-05-22T08:50:17Z</time>
      </trkpt>
      <trkpt lat="45.84016" lon="4.7836">
        <ele>556.481323</ele>
        <time>2016-05-22T08:50:19Z</time>
      </trkpt>
      <trkpt lat="45.84026" lon="4.78362">
        <ele>556.322876</ele>
        <time>2016-05-22T08:50:21Z</time>
      </trkpt>
      <trkpt lat="45.84038" lon="4.78365">
        <ele>556.188599</ele>
        <time>2016-05-22T08:50:23Z</time>
      </trkpt>
      <trkpt lat="45.84051" lon="4.78368">
        <ele>556.083069</ele>
        <time>2016-05-22T08:50:25Z</time>
      </trkpt>
      <trkpt lat="45.84062" lon="4.78369">
        <ele>555.843872</ele>
        <time>2016-05-22T08:50:27Z</time>
      </trkpt>
      <trkpt lat="45.84074" lon="4.78371">
        <ele>555.887939</ele>
        <time>2016-05-22T08:50:29Z</time>
      </trkpt>
      <trkpt lat="45.84083" lon="4.78373">
        <ele>555.848267</ele>
        <time>2016-05-22T08:50:31Z</time>
      </trkpt>
      <trkpt lat="45.84089" lon="4.78372">
        <ele>555.828491</ele>
        <time>2016-05-22T08:50:33Z</time>
      </trkpt>
      <trkpt lat="45.84097" lon="4.78369">
        <ele>555.551147</ele>
        <time>2016-05-22T08:50:35Z</time>
      </trkpt>
      <trkpt lat="45.84106" lon="4.78365">
        <ele>555.399292</ele>
        <time>2016-05-22T08:50:37Z</time>
      </trkpt>
      <trkpt lat="45.84115" lon="4.78362">
        <ele>555.044983</ele>
        <time>2016-05-22T08:50:39Z</time>
      </trkpt>
      <trkpt lat="45.84123" lon="4.78359">
        <ele>554.867798</ele>
        <time>2016-05-22T08:50:41Z</time>
      </trkpt>
      <trkpt lat="45.84131" lon="4.78356">
        <ele>554.6521</ele>
        <time>2016-05-22T08:50:43Z</time>
      </trkpt>
      <trkpt lat="45.8414" lon="4.78353">
        <ele>554.52887</ele>
        <time>2016-05-22T08:50:45Z</time>
      </trkpt>
      <trkpt lat="45.84149" lon="4.78348">
        <ele>554.442993</ele>
        <time>2016-05-22T08:50:47Z</time>
      </trkpt>
      <trkpt lat="45.84157" lon="4.78338">
        <ele>554.432007</ele>
        <time>2016-05-22T08:50:49Z</time>
      </trkpt>
      <trkpt lat="45.84163" lon="4.78326">
        <ele>554.231079</ele>
        <time>2016-05-22T08:50:51Z</time>
      </trkpt>
      <trkpt lat="45.84168" lon="4.78314">
        <ele>554.030823</ele>
        <time>2016-05-22T08:50:53Z</time>
      </trkpt>
      <trkpt lat="45.84175" lon="4.78303">
        <ele>553.908081</ele>
        <time>2016-05-22T08:50:55Z</time>
      </trkpt>
      <trkpt lat="45.84182" lon="4.78295">
        <ele>554.070984</ele>
        <time>2016-05-22T08:50:57Z</time>
      </trkpt>
      <trkpt lat="45.8419" lon="4.78288">
        <ele>554.126099</ele>
        <time>2016-05-22T08:50:59Z</time>
      </trkpt>
      <trkpt lat="45.84196" lon="4.78284">
        <ele>554.21405</ele>
        <time>2016-05-22T08:51:01Z</time>
      </trkpt>
      <trkpt lat="45.842" lon="4.78281">
        <ele>554.385742</ele>
        <time>2016-05-22T08:51:03Z</time>
      </trkpt>
      <trkpt lat="45.84203" lon="4.7828">
        <ele>554.401062</ele>
        <time>2016-05-22T08:51:05Z</time>
      </trkpt>
      <trkpt lat="45.84206" lon="4.78279">
        <ele>554.442078</ele>
        <time>2016-05-22T08:51:07Z</time>
      </trkpt>
      <trkpt lat="45.84211" lon="4.78278">
        <ele>555.200195</ele>
        <time>2016-05-22T08:51:19Z</time>
      </trkpt>
      <trkpt lat="45.84218" lon="4.78278">
        <ele>555.397156</ele>
        <time>2016-05-22T08:51:21Z</time>
      </trkpt>
      <trkpt lat="45.84223" lon="4.78277">
        <ele>555.441589</ele>
        <time>2016-05-22T08:51:23Z</time>
      </trkpt>
      <trkpt lat="45.84227" lon="4.78274">
        <ele>555.507629</ele>
        <time>2016-05-22T08:51:25Z</time>
      </trkpt>
      <trkpt lat="45.84231" lon="4.78271">
        <ele>555.538391</ele>
        <time>2016-05-22T08:51:27Z</time>
      </trkpt>
      <trkpt lat="45.84236" lon="4.78269">
        <ele>555.657104</ele>
        <time>2016-05-22T08:51:29Z</time>
      </trkpt>
      <trkpt lat="45.8424" lon="4.78267">
        <ele>555.731934</ele>
        <time>2016-05-22T08:51:31Z</time>
      </trkpt>
      <trkpt lat="45.84245" lon="4.78266">
        <ele>555.844666</ele>
        <time>2016-05-22T08:51:33Z</time>
      </trkpt>
      <trkpt lat="45.8425" lon="4.78264">
        <ele>556.044922</ele>
        <time>2016-05-22T08:51:35Z</time>
      </trkpt>
      <trkpt lat="45.84255" lon="4.78263">
        <ele>556.22052</ele>
        <time>2016-05-22T08:51:37Z</time>
      </trkpt>
      <trkpt lat="45.84259" lon="4.78262">
        <ele>556.147705</ele>
        <time>2016-05-22T08:51:39Z</time>
      </trkpt>
      <trkpt lat="45.84264" lon="4.78261">
        <ele>556.35022</ele>
        <time>2016-05-22T08:51:41Z</time>
      </trkpt>
      <trkpt lat="45.84268" lon="4.7826">
        <ele>556.363403</ele>
        <time>2016-05-22T08:51:43Z</time>
      </trkpt>
      <trkpt lat="45.84273" lon="4.78258">
        <ele>556.515259</ele>
        <time>2016-05-22T08:51:45Z</time>
      </trkpt>
      <trkpt lat="45.84278" lon="4.78257">
        <ele>556.608521</ele>
        <time>2016-05-22T08:51:47Z</time>
      </trkpt>
      <trkpt lat="45.84283" lon="4.78256">
        <ele>556.776733</ele>
        <time>2016-05-22T08:51:49Z</time>
      </trkpt>
      <trkpt lat="45.84288" lon="4.78255">
        <ele>556.968262</ele>
        <time>2016-05-22T08:51:51Z</time>
      </trkpt>
      <trkpt lat="45.84293" lon="4.78254">
        <ele>557.133362</ele>
        <time>2016-05-22T08:51:53Z</time>
      </trkpt>
      <trkpt lat="45.84298" lon="4.78252">
        <ele>557.245667</ele>
        <time>2016-05-22T08:51:55Z</time>
      </trkpt>
      <trkpt lat="45.84304" lon="4.78251">
        <ele>557.387207</ele>
        <time>2016-05-22T08:51:57Z</time>
      </trkpt>
      <trkpt lat="45.84309" lon="4.7825">
        <ele>557.543518</ele>
        <time>2016-05-22T08:51:59Z</time>
      </trkpt>
      <trkpt lat="45.84314" lon="4.78248">
        <ele>557.816528</ele>
        <time>2016-05-22T08:52:01Z</time>
      </trkpt>
      <trkpt lat="45.84319" lon="4.78247">
        <ele>558.058716</ele>
        <time>2016-05-22T08:52:03Z</time>
      </trkpt>
      <trkpt lat="45.84323" lon="4.78245">
        <ele>558.307007</ele>
        <time>2016-05-22T08:52:05Z</time>
      </trkpt>
      <trkpt lat="45.84327" lon="4.78243">
        <ele>558.630676</ele>
        <time>2016-05-22T08:52:07Z</time>
      </trkpt>
      <trkpt lat="45.84331" lon="4.78241">
        <ele>558.967529</ele>
        <time>2016-05-22T08:52:09Z</time>
      </trkpt>
      <trkpt lat="45.84335" lon="4.7824">
        <ele>559.203186</ele>
        <time>2016-05-22T08:52:11Z</time>
      </trkpt>
      <trkpt lat="45.8434" lon="4.7824">
        <ele>559.586975</ele>
        <time>2016-05-22T08:52:13Z</time>
      </trkpt>
      <trkpt lat="45.84344" lon="4.78239">
        <ele>560.018494</ele>
        <time>2016-05-22T08:52:15Z</time>
      </trkpt>
      <trkpt lat="45.84349" lon="4.78239">
        <ele>560.39502</ele>
        <time>2016-05-22T08:52:17Z</time>
      </trkpt>
      <trkpt lat="45.84354" lon="4.78238">
        <ele>560.778198</ele>
        <time>2016-05-22T08:52:19Z</time>
      </trkpt>
      <trkpt lat="45.84359" lon="4.78239">
        <ele>561.150452</ele>
        <time>2016-05-22T08:52:21Z</time>
      </trkpt>
      <trkpt lat="45.84364" lon="4.78239">
        <ele>561.311157</ele>
        <time>2016-05-22T08:52:23Z</time>
      </trkpt>
      <trkpt lat="45.84369" lon="4.78239">
        <ele>561.751404</ele>
        <time>2016-05-22T08:52:25Z</time>
      </trkpt>
      <trkpt lat="45.84374" lon="4.7824">
        <ele>562.006958</ele>
        <time>2016-05-22T08:52:27Z</time>
      </trkpt>
      <trkpt lat="45.84379" lon="4.78241">
        <ele>562.306396</ele>
        <time>2016-05-22T08:52:29Z</time>
      </trkpt>
      <trkpt lat="45.84384" lon="4.78242">
        <ele>562.588318</ele>
        <time>2016-05-22T08:52:31Z</time>
      </trkpt>
      <trkpt lat="45.8439" lon="4.78243">
        <ele>562.94519</ele>
        <time>2016-05-22T08:52:33Z</time>
      </trkpt>
      <trkpt lat="45.84395" lon="4.78245">
        <ele>563.283936</ele>
        <time>2016-05-22T08:52:35Z</time>
      </trkpt>
      <trkpt lat="45.844" lon="4.78247">
        <ele>563.663696</ele>
        <time>2016-05-22T08:52:37Z</time>
      </trkpt>
      <trkpt lat="45.84405" lon="4.78249">
        <ele>564.123291</ele>
        <time>2016-05-22T08:52:39Z</time>
      </trkpt>
      <trkpt lat="45.8441" lon="4.78252">
        <ele>564.473572</ele>
        <time>2016-05-22T08:52:41Z</time>
      </trkpt>
      <trkpt lat="45.84415" lon="4.78253">
        <ele>564.777588</ele>
        <time>2016-05-22T08:52:43Z</time>
      </trkpt>
      <trkpt lat="45.8442" lon="4.78255">
        <ele>565.132263</ele>
        <time>2016-05-22T08:52:45Z</time>
      </trkpt>
      <trkpt lat="45.84425" lon="4.78257">
        <ele>565.442932</ele>
        <time>2016-05-22T08:52:47Z</time>
      </trkpt>
      <trkpt lat="45.8443" lon="4.78259">
        <ele>565.597107</ele>
        <time>2016-05-22T08:52:49Z</time>
      </trkpt>
      <trkpt lat="45.84434" lon="4.7826">
        <ele>565.927612</ele>
        <time>2016-05-22T08:52:51Z</time>
      </trkpt>
      <trkpt lat="45.84439" lon="4.78261">
        <ele>566.357056</ele>
        <time>2016-05-22T08:52:53Z</time>
      </trkpt>
      <trkpt lat="45.84444" lon="4.78261">
        <ele>566.685425</ele>
        <time>2016-05-22T08:52:55Z</time>
      </trkpt>
      <trkpt lat="45.84449" lon="4.78262">
        <ele>567.031372</ele>
        <time>2016-05-22T08:52:57Z</time>
      </trkpt>
      <trkpt lat="45.84454" lon="4.78262">
        <ele>567.318787</ele>
        <time>2016-05-22T08:52:59Z</time>
      </trkpt>
      <trkpt lat="45.84458" lon="4.78262">
        <ele>567.4422</ele>
        <time>2016-05-22T08:53:01Z</time>
      </trkpt>
      <trkpt lat="45.84462" lon="4.78262">
        <ele>567.74823</ele>
        <time>2016-05-22T08:53:03Z</time>
      </trkpt>
      <trkpt lat="45.84467" lon="4.78263">
        <ele>568.014832</ele>
        <time>2016-05-22T08:53:05Z</time>
      </trkpt>
      <trkpt lat="45.84472" lon="4.78263">
        <ele>568.41748</ele>
        <time>2016-05-22T08:53:07Z</time>
      </trkpt>
      <trkpt lat="45.84477" lon="4.78264">
        <ele>568.915405</ele>
        <time>2016-05-22T08:53:09Z</time>
      </trkpt>
      <trkpt lat="45.84482" lon="4.78265">
        <ele>569.4422</ele>
        <time>2016-05-22T08:53:11Z</time>
      </trkpt>
      <trkpt lat="45.84487" lon="4.78265">
        <ele>569.796997</ele>
        <time>2016-05-22T08:53:13Z</time>
      </trkpt>
      <trkpt lat="45.84493" lon="4.78266">
        <ele>570.184875</ele>
        <time>2016-05-22T08:53:15Z</time>
      </trkpt>
      <trkpt lat="45.84498" lon="4.78266">
        <ele>570.637085</ele>
        <time>2016-05-22T08:53:17Z</time>
      </trkpt>
      <trkpt lat="45.84503" lon="4.78267">
        <ele>571.038269</ele>
        <time>2016-05-22T08:53:19Z</time>
      </trkpt>
      <trkpt lat="45.84509" lon="4.78268">
        <ele>571.274902</ele>
        <time>2016-05-22T08:53:21Z</time>
      </trkpt>
      <trkpt lat="45.84514" lon="4.78268">
        <ele>571.634399</ele>
        <time>2016-05-22T08:53:23Z</time>
      </trkpt>
      <trkpt lat="45.8452" lon="4.78269">
        <ele>572.103882</ele>
        <time>2016-05-22T08:53:25Z</time>
      </trkpt>
      <trkpt lat="45.84525" lon="4.78269">
        <ele>572.479309</ele>
        <time>2016-05-22T08:53:27Z</time>
      </trkpt>
      <trkpt lat="45.8453" lon="4.78269">
        <ele>572.878296</ele>
        <time>2016-05-22T08:53:29Z</time>
      </trkpt>
      <trkpt lat="45.84535" lon="4.78269">
        <ele>573.400879</ele>
        <time>2016-05-22T08:53:31Z</time>
      </trkpt>
      <trkpt lat="45.84541" lon="4.78269">
        <ele>573.815002</ele>
        <time>2016-05-22T08:53:33Z</time>
      </trkpt>
      <trkpt lat="45.84546" lon="4.78269">
        <ele>574.264832</ele>
        <time>2016-05-22T08:53:35Z</time>
      </trkpt>
      <trkpt lat="45.84552" lon="4.78268">
        <ele>574.677185</ele>
        <time>2016-05-22T08:53:37Z</time>
      </trkpt>
      <trkpt lat="45.84557" lon="4.78269">
        <ele>575.027466</ele>
        <time>2016-05-22T08:53:39Z</time>
      </trkpt>
      <trkpt lat="45.84563" lon="4.78269">
        <ele>575.433228</ele>
        <time>2016-05-22T08:53:41Z</time>
      </trkpt>
      <trkpt lat="45.84568" lon="4.78269">
        <ele>575.92395</ele>
        <time>2016-05-22T08:53:43Z</time>
      </trkpt>
      <trkpt lat="45.84573" lon="4.78269">
        <ele>576.303406</ele>
        <time>2016-05-22T08:53:45Z</time>
      </trkpt>
      <trkpt lat="45.84579" lon="4.78269">
        <ele>576.777527</ele>
        <time>2016-05-22T08:53:47Z</time>
      </trkpt>
      <trkpt lat="45.84584" lon="4.78267">
        <ele>577.336548</ele>
        <time>2016-05-22T08:53:49Z</time>
      </trkpt>
      <trkpt lat="45.84589" lon="4.78266">
        <ele>577.711792</ele>
        <time>2016-05-22T08:53:51Z</time>
      </trkpt>
      <trkpt lat="45.84594" lon="4.78264">
        <ele>578.104492</ele>
        <time>2016-05-22T08:53:53Z</time>
      </trkpt>
      <trkpt lat="45.84599" lon="4.78261">
        <ele>578.620605</ele>
        <time>2016-05-22T08:53:55Z</time>
      </trkpt>
      <trkpt lat="45.84603" lon="4.78257">
        <ele>579.026489</ele>
        <time>2016-05-22T08:53:57Z</time>
      </trkpt>
      <trkpt lat="45.84607" lon="4.78253">
        <ele>579.496399</ele>
        <time>2016-05-22T08:53:59Z</time>
      </trkpt>
      <trkpt lat="45.84612" lon="4.78248">
        <ele>579.714722</ele>
        <time>2016-05-22T08:54:01Z</time>
      </trkpt>
      <trkpt lat="45.84616" lon="4.78244">
        <ele>580.120605</ele>
        <time>2016-05-22T08:54:03Z</time>
      </trkpt>
      <trkpt lat="45.8462" lon="4.78239">
        <ele>580.466675</ele>
        <time>2016-05-22T08:54:05Z</time>
      </trkpt>
      <trkpt lat="45.84623" lon="4.78234">
        <ele>580.839539</ele>
        <time>2016-05-22T08:54:07Z</time>
      </trkpt>
      <trkpt lat="45.84625" lon="4.78228">
        <ele>581.293335</ele>
        <time>2016-05-22T08:54:09Z</time>
      </trkpt>
      <trkpt lat="45.84628" lon="4.78221">
        <ele>581.64856</ele>
        <time>2016-05-22T08:54:11Z</time>
      </trkpt>
      <trkpt lat="45.84631" lon="4.78214">
        <ele>581.899719</ele>
        <time>2016-05-22T08:54:13Z</time>
      </trkpt>
      <trkpt lat="45.84634" lon="4.78207">
        <ele>582.195801</ele>
        <time>2016-05-22T08:54:15Z</time>
      </trkpt>
      <trkpt lat="45.84636" lon="4.782">
        <ele>582.477234</ele>
        <time>2016-05-22T08:54:17Z</time>
      </trkpt>
      <trkpt lat="45.84639" lon="4.78192">
        <ele>582.682434</ele>
        <time>2016-05-22T08:54:19Z</time>
      </trkpt>
      <trkpt lat="45.8464" lon="4.78185">
        <ele>582.973755</ele>
        <time>2016-05-22T08:54:21Z</time>
      </trkpt>
      <trkpt lat="45.84642" lon="4.78178">
        <ele>583.25177</ele>
        <time>2016-05-22T08:54:23Z</time>
      </trkpt>
      <trkpt lat="45.84644" lon="4.78171">
        <ele>583.615845</ele>
        <time>2016-05-22T08:54:25Z</time>
      </trkpt>
      <trkpt lat="45.84646" lon="4.78164">
        <ele>583.946533</ele>
        <time>2016-05-22T08:54:27Z</time>
      </trkpt>
      <trkpt lat="45.84649" lon="4.78156">
        <ele>584.30188</ele>
        <time>2016-05-22T08:54:29Z</time>
      </trkpt>
      <trkpt lat="45.84651" lon="4.78149">
        <ele>584.687805</ele>
        <time>2016-05-22T08:54:31Z</time>
      </trkpt>
      <trkpt lat="45.84653" lon="4.78142">
        <ele>584.846741</ele>
        <time>2016-05-22T08:54:33Z</time>
      </trkpt>
      <trkpt lat="45.84654" lon="4.78134">
        <ele>585.151306</ele>
        <time>2016-05-22T08:54:35Z</time>
      </trkpt>
      <trkpt lat="45.84657" lon="4.78127">
        <ele>585.433899</ele>
        <time>2016-05-22T08:54:37Z</time>
      </trkpt>
      <trkpt lat="45.84659" lon="4.7812">
        <ele>585.767212</ele>
        <time>2016-05-22T08:54:39Z</time>
      </trkpt>
      <trkpt lat="45.84662" lon="4.78113">
        <ele>586.162476</ele>
        <time>2016-05-22T08:54:41Z</time>
      </trkpt>
      <trkpt lat="45.84665" lon="4.78107">
        <ele>586.555481</ele>
        <time>2016-05-22T08:54:43Z</time>
      </trkpt>
      <trkpt lat="45.84667" lon="4.781">
        <ele>586.904541</ele>
        <time>2016-05-22T08:54:45Z</time>
      </trkpt>
      <trkpt lat="45.8467" lon="4.78092">
        <ele>587.24231</ele>
        <time>2016-05-22T08:54:47Z</time>
      </trkpt>
      <trkpt lat="45.84671" lon="4.78084">
        <ele>587.467529</ele>
        <time>2016-05-22T08:54:49Z</time>
      </trkpt>
      <trkpt lat="45.84674" lon="4.78077">
        <ele>587.836975</ele>
        <time>2016-05-22T08:54:51Z</time>
      </trkpt>
      <trkpt lat="45.84676" lon="4.78069">
        <ele>588.30658</ele>
        <time>2016-05-22T08:54:53Z</time>
      </trkpt>
      <trkpt lat="45.84678" lon="4.78062">
        <ele>588.786072</ele>
        <time>2016-05-22T08:54:55Z</time>
      </trkpt>
      <trkpt lat="45.84679" lon="4.78054">
        <ele>589.240845</ele>
        <time>2016-05-22T08:54:57Z</time>
      </trkpt>
      <trkpt lat="45.84681" lon="4.78047">
        <ele>589.690063</ele>
        <time>2016-05-22T08:54:59Z</time>
      </trkpt>
      <trkpt lat="45.84682" lon="4.78039">
        <ele>590.128784</ele>
        <time>2016-05-22T08:55:01Z</time>
      </trkpt>
      <trkpt lat="45.84683" lon="4.78032">
        <ele>590.579224</ele>
        <time>2016-05-22T08:55:03Z</time>
      </trkpt>
      <trkpt lat="45.84684" lon="4.78025">
        <ele>591.027527</ele>
        <time>2016-05-22T08:55:05Z</time>
      </trkpt>
      <trkpt lat="45.84684" lon="4.78018">
        <ele>591.376465</ele>
        <time>2016-05-22T08:55:07Z</time>
      </trkpt>
      <trkpt lat="45.84685" lon="4.78011">
        <ele>591.787598</ele>
        <time>2016-05-22T08:55:09Z</time>
      </trkpt>
      <trkpt lat="45.84684" lon="4.78004">
        <ele>592.116699</ele>
        <time>2016-05-22T08:55:11Z</time>
      </trkpt>
      <trkpt lat="45.84684" lon="4.77997">
        <ele>592.293335</ele>
        <time>2016-05-22T08:55:13Z</time>
      </trkpt>
      <trkpt lat="45.84685" lon="4.77989">
        <ele>592.548035</ele>
        <time>2016-05-22T08:55:15Z</time>
      </trkpt>
      <trkpt lat="45.84687" lon="4.7798">
        <ele>592.882141</ele>
        <time>2016-05-22T08:55:17Z</time>
      </trkpt>
      <trkpt lat="45.84691" lon="4.7797">
        <ele>593.043335</ele>
        <time>2016-05-22T08:55:19Z</time>
      </trkpt>
      <trkpt lat="45.84695" lon="4.77959">
        <ele>593.034546</ele>
        <time>2016-05-22T08:55:21Z</time>
      </trkpt>
      <trkpt lat="45.84701" lon="4.77946">
        <ele>592.888794</ele>
        <time>2016-05-22T08:55:23Z</time>
      </trkpt>
      <trkpt lat="45.84708" lon="4.7793">
        <ele>592.804565</ele>
        <time>2016-05-22T08:55:25Z</time>
      </trkpt>
      <trkpt lat="45.84716" lon="4.77914">
        <ele>592.592651</ele>
        <time>2016-05-22T08:55:27Z</time>
      </trkpt>
      <trkpt lat="45.84725" lon="4.77894">
        <ele>592.365234</ele>
        <time>2016-05-22T08:55:29Z</time>
      </trkpt>
      <trkpt lat="45.84735" lon="4.77872">
        <ele>592.028931</ele>
        <time>2016-05-22T08:55:31Z</time>
      </trkpt>
      <trkpt lat="45.84737" lon="4.77848">
        <ele>591.541687</ele>
        <time>2016-05-22T08:55:33Z</time>
      </trkpt>
      <trkpt lat="45.84725" lon="4.77832">
        <ele>591.303223</ele>
        <time>2016-05-22T08:55:35Z</time>
      </trkpt>
      <trkpt lat="45.8471" lon="4.77838">
        <ele>590.875977</ele>
        <time>2016-05-22T08:55:37Z</time>
      </trkpt>
      <trkpt lat="45.847" lon="4.77857">
        <ele>590.429077</ele>
        <time>2016-05-22T08:55:39Z</time>
      </trkpt>
      <trkpt lat="45.84692" lon="4.77878">
        <ele>589.818848</ele>
        <time>2016-05-22T08:55:41Z</time>
      </trkpt>
      <trkpt lat="45.84682" lon="4.77899">
        <ele>589.164673</ele>
        <time>2016-05-22T08:55:43Z</time>
      </trkpt>
      <trkpt lat="45.84671" lon="4.77918">
        <ele>588.292847</ele>
        <time>2016-05-22T08:55:45Z</time>
      </trkpt>
      <trkpt lat="45.84656" lon="4.77925">
        <ele>587.621704</ele>
        <time>2016-05-22T08:55:47Z</time>
      </trkpt>
      <trkpt lat="45.84644" lon="4.7791">
        <ele>586.871155</ele>
        <time>2016-05-22T08:55:49Z</time>
      </trkpt>
      <trkpt lat="45.84646" lon="4.77888">
        <ele>585.944092</ele>
        <time>2016-05-22T08:55:51Z</time>
      </trkpt>
      <trkpt lat="45.84658" lon="4.77872">
        <ele>585.456177</ele>
        <time>2016-05-22T08:55:53Z</time>
      </trkpt>
      <trkpt lat="45.84672" lon="4.77858">
        <ele>584.53009</ele>
        <time>2016-05-22T08:55:55Z</time>
      </trkpt>
      <trkpt lat="45.84683" lon="4.77839">
        <ele>583.589661</ele>
        <time>2016-05-22T08:55:57Z</time>
      </trkpt>
      <trkpt lat="45.84692" lon="4.77816">
        <ele>582.370911</ele>
        <time>2016-05-22T08:55:59Z</time>
      </trkpt>
      <trkpt lat="45.84701" lon="4.7779">
        <ele>581.263306</ele>
        <time>2016-05-22T08:56:01Z</time>
      </trkpt>
      <trkpt lat="45.84711" lon="4.77762">
        <ele>580.449158</ele>
        <time>2016-05-22T08:56:03Z</time>
      </trkpt>
      <trkpt lat="45.84721" lon="4.77732">
        <ele>579.501221</ele>
        <time>2016-05-22T08:56:05Z</time>
      </trkpt>
      <trkpt lat="45.84728" lon="4.77699">
        <ele>578.290649</ele>
        <time>2016-05-22T08:56:07Z</time>
      </trkpt>
      <trkpt lat="45.84726" lon="4.77664">
        <ele>577.144043</ele>
        <time>2016-05-22T08:56:09Z</time>
      </trkpt>
      <trkpt lat="45.84716" lon="4.77631">
        <ele>575.990845</ele>
        <time>2016-05-22T08:56:11Z</time>
      </trkpt>
      <trkpt lat="45.84704" lon="4.77599">
        <ele>574.692383</ele>
        <time>2016-05-22T08:56:13Z</time>
      </trkpt>
      <trkpt lat="45.84689" lon="4.77573">
        <ele>574.141357</ele>
        <time>2016-05-22T08:56:15Z</time>
      </trkpt>
      <trkpt lat="45.8467" lon="4.77562">
        <ele>573.058472</ele>
        <time>2016-05-22T08:56:17Z</time>
      </trkpt>
      <trkpt lat="45.84649" lon="4.77561">
        <ele>571.809387</ele>
        <time>2016-05-22T08:56:19Z</time>
      </trkpt>
      <trkpt lat="45.84629" lon="4.77562">
        <ele>570.412964</ele>
        <time>2016-05-22T08:56:21Z</time>
      </trkpt>
      <trkpt lat="45.8461" lon="4.77568">
        <ele>569.270813</ele>
        <time>2016-05-22T08:56:23Z</time>
      </trkpt>
      <trkpt lat="45.84591" lon="4.77575">
        <ele>568.086304</ele>
        <time>2016-05-22T08:56:25Z</time>
      </trkpt>
      <trkpt lat="45.84572" lon="4.77584">
        <ele>566.943726</ele>
        <time>2016-05-22T08:56:27Z</time>
      </trkpt>
      <trkpt lat="45.84552" lon="4.77593">
        <ele>565.370789</ele>
        <time>2016-05-22T08:56:29Z</time>
      </trkpt>
      <trkpt lat="45.84537" lon="4.77605">
        <ele>563.994019</ele>
        <time>2016-05-22T08:56:31Z</time>
      </trkpt>
      <trkpt lat="45.84523" lon="4.77612">
        <ele>562.747375</ele>
        <time>2016-05-22T08:56:33Z</time>
      </trkpt>
      <trkpt lat="45.84511" lon="4.77618">
        <ele>561.07959</ele>
        <time>2016-05-22T08:56:35Z</time>
      </trkpt>
      <trkpt lat="45.84498" lon="4.77626">
        <ele>558.639343</ele>
        <time>2016-05-22T08:56:37Z</time>
      </trkpt>
      <trkpt lat="45.84483" lon="4.77636">
        <ele>557.816101</ele>
        <time>2016-05-22T08:56:39Z</time>
      </trkpt>
      <trkpt lat="45.84467" lon="4.77645">
        <ele>556.595764</ele>
        <time>2016-05-22T08:56:41Z</time>
      </trkpt>
      <trkpt lat="45.84454" lon="4.77652">
        <ele>555.155762</ele>
        <time>2016-05-22T08:56:43Z</time>
      </trkpt>
      <trkpt lat="45.84443" lon="4.77656">
        <ele>553.516418</ele>
        <time>2016-05-22T08:56:45Z</time>
      </trkpt>
      <trkpt lat="45.84435" lon="4.77665">
        <ele>551.544556</ele>
        <time>2016-05-22T08:56:47Z</time>
      </trkpt>
      <trkpt lat="45.84425" lon="4.77673">
        <ele>549.940796</ele>
        <time>2016-05-22T08:56:49Z</time>
      </trkpt>
      <trkpt lat="45.84413" lon="4.7768">
        <ele>548.017151</ele>
        <time>2016-05-22T08:56:51Z</time>
      </trkpt>
      <trkpt lat="45.84396" lon="4.77688">
        <ele>546.135254</ele>
        <time>2016-05-22T08:56:53Z</time>
      </trkpt>
      <trkpt lat="45.84382" lon="4.77694">
        <ele>544.2146</ele>
        <time>2016-05-22T08:56:55Z</time>
      </trkpt>
      <trkpt lat="45.84373" lon="4.77698">
        <ele>542.015076</ele>
        <time>2016-05-22T08:56:57Z</time>
      </trkpt>
      <trkpt lat="45.84366" lon="4.77701">
        <ele>539.961609</ele>
        <time>2016-05-22T08:56:59Z</time>
      </trkpt>
      <trkpt lat="45.84359" lon="4.77707">
        <ele>538.061523</ele>
        <time>2016-05-22T08:57:01Z</time>
      </trkpt>
      <trkpt lat="45.84352" lon="4.7771">
        <ele>537.017944</ele>
        <time>2016-05-22T08:57:03Z</time>
      </trkpt>
      <trkpt lat="45.84342" lon="4.77713">
        <ele>535.00354</ele>
        <time>2016-05-22T08:57:05Z</time>
      </trkpt>
      <trkpt lat="45.8433" lon="4.77717">
        <ele>532.926147</ele>
        <time>2016-05-22T08:57:07Z</time>
      </trkpt>
      <trkpt lat="45.84319" lon="4.77722">
        <ele>530.99707</ele>
        <time>2016-05-22T08:57:09Z</time>
      </trkpt>
      <trkpt lat="45.84307" lon="4.77725">
        <ele>529.113281</ele>
        <time>2016-05-22T08:57:11Z</time>
      </trkpt>
      <trkpt lat="45.84294" lon="4.77727">
        <ele>527.028564</ele>
        <time>2016-05-22T08:57:13Z</time>
      </trkpt>
      <trkpt lat="45.84281" lon="4.77731">
        <ele>524.877075</ele>
        <time>2016-05-22T08:57:15Z</time>
      </trkpt>
      <trkpt lat="45.84268" lon="4.77736">
        <ele>522.628418</ele>
        <time>2016-05-22T08:57:17Z</time>
      </trkpt>
      <trkpt lat="45.84257" lon="4.77741">
        <ele>521.505432</ele>
        <time>2016-05-22T08:57:19Z</time>
      </trkpt>
      <trkpt lat="45.84251" lon="4.77744">
        <ele>519.596741</ele>
        <time>2016-05-22T08:57:21Z</time>
      </trkpt>
      <trkpt lat="45.84243" lon="4.77744">
        <ele>517.401245</ele>
        <time>2016-05-22T08:57:23Z</time>
      </trkpt>
      <trkpt lat="45.8423" lon="4.77743">
        <ele>515.013306</ele>
        <time>2016-05-22T08:57:25Z</time>
      </trkpt>
      <trkpt lat="45.84215" lon="4.77746">
        <ele>512.970825</ele>
        <time>2016-05-22T08:57:27Z</time>
      </trkpt>
      <trkpt lat="45.84198" lon="4.77747">
        <ele>511.813812</ele>
        <time>2016-05-22T08:57:29Z</time>
      </trkpt>
      <trkpt lat="45.84184" lon="4.77752">
        <ele>509.990082</ele>
        <time>2016-05-22T08:57:31Z</time>
      </trkpt>
      <trkpt lat="45.84173" lon="4.77758">
        <ele>508.328949</ele>
        <time>2016-05-22T08:57:33Z</time>
      </trkpt>
      <trkpt lat="45.84164" lon="4.77765">
        <ele>506.735657</ele>
        <time>2016-05-22T08:57:35Z</time>
      </trkpt>
      <trkpt lat="45.84155" lon="4.77771">
        <ele>504.96637</ele>
        <time>2016-05-22T08:57:37Z</time>
      </trkpt>
      <trkpt lat="45.84147" lon="4.77774">
        <ele>503.302307</ele>
        <time>2016-05-22T08:57:39Z</time>
      </trkpt>
      <trkpt lat="45.84138" lon="4.77774">
        <ele>501.35968</ele>
        <time>2016-05-22T08:57:41Z</time>
      </trkpt>
      <trkpt lat="45.84126" lon="4.77774">
        <ele>499.648041</ele>
        <time>2016-05-22T08:57:43Z</time>
      </trkpt>
      <trkpt lat="45.84113" lon="4.77775">
        <ele>497.904236</ele>
        <time>2016-05-22T08:57:45Z</time>
      </trkpt>
      <trkpt lat="45.84102" lon="4.77773">
        <ele>496.49472</ele>
        <time>2016-05-22T08:57:47Z</time>
      </trkpt>
      <trkpt lat="45.84094" lon="4.7777">
        <ele>494.769714</ele>
        <time>2016-05-22T08:57:49Z</time>
      </trkpt>
      <trkpt lat="45.84089" lon="4.77769">
        <ele>493.073669</ele>
        <time>2016-05-22T08:57:51Z</time>
      </trkpt>
      <trkpt lat="45.84082" lon="4.77775">
        <ele>491.32843</ele>
        <time>2016-05-22T08:57:53Z</time>
      </trkpt>
      <trkpt lat="45.84072" lon="4.77782">
        <ele>489.949066</ele>
        <time>2016-05-22T08:57:55Z</time>
      </trkpt>
      <trkpt lat="45.84059" lon="4.77787">
        <ele>488.058411</ele>
        <time>2016-05-22T08:57:57Z</time>
      </trkpt>
      <trkpt lat="45.84045" lon="4.77793">
        <ele>487.419739</ele>
        <time>2016-05-22T08:57:59Z</time>
      </trkpt>
      <trkpt lat="45.84029" lon="4.77793">
        <ele>485.594086</ele>
        <time>2016-05-22T08:58:01Z</time>
      </trkpt>
      <trkpt lat="45.84013" lon="4.77792">
        <ele>483.645935</ele>
        <time>2016-05-22T08:58:03Z</time>
      </trkpt>
      <trkpt lat="45.83995" lon="4.77793">
        <ele>481.980133</ele>
        <time>2016-05-22T08:58:05Z</time>
      </trkpt>
      <trkpt lat="45.83976" lon="4.77794">
        <ele>480.784851</ele>
        <time>2016-05-22T08:58:07Z</time>
      </trkpt>
      <trkpt lat="45.83955" lon="4.77795">
        <ele>479.16217</ele>
        <time>2016-05-22T08:58:09Z</time>
      </trkpt>
      <trkpt lat="45.83934" lon="4.77795">
        <ele>477.362061</ele>
        <time>2016-05-22T08:58:11Z</time>
      </trkpt>
      <trkpt lat="45.83913" lon="4.77798">
        <ele>475.617432</ele>
        <time>2016-05-22T08:58:13Z</time>
      </trkpt>
      <trkpt lat="45.83892" lon="4.77799">
        <ele>473.859955</ele>
        <time>2016-05-22T08:58:15Z</time>
      </trkpt>
      <trkpt lat="45.83869" lon="4.77796">
        <ele>472.310211</ele>
        <time>2016-05-22T08:58:17Z</time>
      </trkpt>
      <trkpt lat="45.83847" lon="4.77783">
        <ele>471.522217</ele>
        <time>2016-05-22T08:58:19Z</time>
      </trkpt>
      <trkpt lat="45.83831" lon="4.7776">
        <ele>470.034241</ele>
        <time>2016-05-22T08:58:21Z</time>
      </trkpt>
      <trkpt lat="45.8382" lon="4.7773">
        <ele>468.663086</ele>
        <time>2016-05-22T08:58:23Z</time>
      </trkpt>
      <trkpt lat="45.83812" lon="4.77699">
        <ele>467.180084</ele>
        <time>2016-05-22T08:58:25Z</time>
      </trkpt>
      <trkpt lat="45.83805" lon="4.77667">
        <ele>465.188538</ele>
        <time>2016-05-22T08:58:27Z</time>
      </trkpt>
      <trkpt lat="45.83797" lon="4.77634">
        <ele>463.074463</ele>
        <time>2016-05-22T08:58:29Z</time>
      </trkpt>
      <trkpt lat="45.83789" lon="4.77604">
        <ele>461.158142</ele>
        <time>2016-05-22T08:58:31Z</time>
      </trkpt>
      <trkpt lat="45.83782" lon="4.77575">
        <ele>459.126038</ele>
        <time>2016-05-22T08:58:33Z</time>
      </trkpt>
      <trkpt lat="45.83779" lon="4.77547">
        <ele>457.288818</ele>
        <time>2016-05-22T08:58:35Z</time>
      </trkpt>
      <trkpt lat="45.83776" lon="4.77522">
        <ele>456.364685</ele>
        <time>2016-05-22T08:58:37Z</time>
      </trkpt>
      <trkpt lat="45.83772" lon="4.77505">
        <ele>454.335144</ele>
        <time>2016-05-22T08:58:39Z</time>
      </trkpt>
      <trkpt lat="45.83764" lon="4.77503">
        <ele>452.598389</ele>
        <time>2016-05-22T08:58:41Z</time>
      </trkpt>
      <trkpt lat="45.83761" lon="4.77512">
        <ele>450.985992</ele>
        <time>2016-05-22T08:58:43Z</time>
      </trkpt>
      <trkpt lat="45.8376" lon="4.77525">
        <ele>449.284424</ele>
        <time>2016-05-22T08:58:45Z</time>
      </trkpt>
      <trkpt lat="45.83762" lon="4.77539">
        <ele>447.539459</ele>
        <time>2016-05-22T08:58:47Z</time>
      </trkpt>
      <trkpt lat="45.83763" lon="4.77555">
        <ele>445.888367</ele>
        <time>2016-05-22T08:58:49Z</time>
      </trkpt>
      <trkpt lat="45.83764" lon="4.77572">
        <ele>444.611328</ele>
        <time>2016-05-22T08:58:51Z</time>
      </trkpt>
      <trkpt lat="45.83764" lon="4.77589">
        <ele>443.215515</ele>
        <time>2016-05-22T08:58:53Z</time>
      </trkpt>
      <trkpt lat="45.83764" lon="4.77608">
        <ele>441.882629</ele>
        <time>2016-05-22T08:58:55Z</time>
      </trkpt>
      <trkpt lat="45.83765" lon="4.77627">
        <ele>441.288269</ele>
        <time>2016-05-22T08:58:57Z</time>
      </trkpt>
      <trkpt lat="45.83765" lon="4.77646">
        <ele>440.214691</ele>
        <time>2016-05-22T08:58:59Z</time>
      </trkpt>
      <trkpt lat="45.83765" lon="4.77666">
        <ele>439.071625</ele>
        <time>2016-05-22T08:59:01Z</time>
      </trkpt>
      <trkpt lat="45.83765" lon="4.77685">
        <ele>437.919128</ele>
        <time>2016-05-22T08:59:03Z</time>
      </trkpt>
      <trkpt lat="45.83766" lon="4.77705">
        <ele>436.943939</ele>
        <time>2016-05-22T08:59:05Z</time>
      </trkpt>
      <trkpt lat="45.83768" lon="4.77724">
        <ele>436.222168</ele>
        <time>2016-05-22T08:59:07Z</time>
      </trkpt>
      <trkpt lat="45.83772" lon="4.77742">
        <ele>435.684723</ele>
        <time>2016-05-22T08:59:09Z</time>
      </trkpt>
      <trkpt lat="45.83774" lon="4.7776">
        <ele>435.149353</ele>
        <time>2016-05-22T08:59:11Z</time>
      </trkpt>
      <trkpt lat="45.83778" lon="4.77778">
        <ele>434.732605</ele>
        <time>2016-05-22T08:59:13Z</time>
      </trkpt>
      <trkpt lat="45.83782" lon="4.77794">
        <ele>434.560699</ele>
        <time>2016-05-22T08:59:15Z</time>
      </trkpt>
      <trkpt lat="45.83787" lon="4.77808">
        <ele>434.571533</ele>
        <time>2016-05-22T08:59:17Z</time>
      </trkpt>
      <trkpt lat="45.83788" lon="4.77823">
        <ele>434.455505</ele>
        <time>2016-05-22T08:59:19Z</time>
      </trkpt>
      <trkpt lat="45.83784" lon="4.77838">
        <ele>434.387299</ele>
        <time>2016-05-22T08:59:21Z</time>
      </trkpt>
      <trkpt lat="45.83774" lon="4.77845">
        <ele>434.552643</ele>
        <time>2016-05-22T08:59:23Z</time>
      </trkpt>
      <trkpt lat="45.83763" lon="4.77845">
        <ele>434.650543</ele>
        <time>2016-05-22T08:59:25Z</time>
      </trkpt>
      <trkpt lat="45.83751" lon="4.77842">
        <ele>434.811432</ele>
        <time>2016-05-22T08:59:27Z</time>
      </trkpt>
      <trkpt lat="45.8374" lon="4.77838">
        <ele>434.99765</ele>
        <time>2016-05-22T08:59:29Z</time>
      </trkpt>
      <trkpt lat="45.83728" lon="4.77835">
        <ele>435.154236</ele>
        <time>2016-05-22T08:59:31Z</time>
      </trkpt>
      <trkpt lat="45.83718" lon="4.77832">
        <ele>435.344391</ele>
        <time>2016-05-22T08:59:33Z</time>
      </trkpt>
      <trkpt lat="45.83709" lon="4.77829">
        <ele>435.707672</ele>
        <time>2016-05-22T08:59:35Z</time>
      </trkpt>
      <trkpt lat="45.837" lon="4.77827">
        <ele>436.044922</ele>
        <time>2016-05-22T08:59:37Z</time>
      </trkpt>
      <trkpt lat="45.83691" lon="4.77825">
        <ele>436.279877</ele>
        <time>2016-05-22T08:59:39Z</time>
      </trkpt>
      <trkpt lat="45.83683" lon="4.77824">
        <ele>436.640625</ele>
        <time>2016-05-22T08:59:41Z</time>
      </trkpt>
      <trkpt lat="45.83676" lon="4.77823">
        <ele>437.097565</ele>
        <time>2016-05-22T08:59:43Z</time>
      </trkpt>
      <trkpt lat="45.83669" lon="4.77822">
        <ele>437.523987</ele>
        <time>2016-05-22T08:59:45Z</time>
      </trkpt>
      <trkpt lat="45.83664" lon="4.77821">
        <ele>437.917816</ele>
        <time>2016-05-22T08:59:47Z</time>
      </trkpt>
      <trkpt lat="45.83658" lon="4.77821">
        <ele>438.169128</ele>
        <time>2016-05-22T08:59:49Z</time>
      </trkpt>
      <trkpt lat="45.83653" lon="4.77821">
        <ele>438.687012</ele>
        <time>2016-05-22T08:59:51Z</time>
      </trkpt>
      <trkpt lat="45.83648" lon="4.77823">
        <ele>439.288879</ele>
        <time>2016-05-22T08:59:53Z</time>
      </trkpt>
      <trkpt lat="45.83645" lon="4.77825">
        <ele>439.748138</ele>
        <time>2016-05-22T08:59:55Z</time>
      </trkpt>
      <trkpt lat="45.83641" lon="4.77829">
        <ele>440.224762</ele>
        <time>2016-05-22T08:59:57Z</time>
      </trkpt>
      <trkpt lat="45.83637" lon="4.77831">
        <ele>440.734772</ele>
        <time>2016-05-22T08:59:59Z</time>
      </trkpt>
      <trkpt lat="45.83632" lon="4.77833">
        <ele>441.115662</ele>
        <time>2016-05-22T09:00:01Z</time>
      </trkpt>
      <trkpt lat="45.83627" lon="4.77836">
        <ele>441.536713</ele>
        <time>2016-05-22T09:00:03Z</time>
      </trkpt>
      <trkpt lat="45.83622" lon="4.77838">
        <ele>441.956848</ele>
        <time>2016-05-22T09:00:05Z</time>
      </trkpt>
      <trkpt lat="45.83616" lon="4.7784">
        <ele>442.366119</ele>
        <time>2016-05-22T09:00:07Z</time>
      </trkpt>
      <trkpt lat="45.8361" lon="4.77844">
        <ele>442.853821</ele>
        <time>2016-05-22T09:00:09Z</time>
      </trkpt>
      <trkpt lat="45.83604" lon="4.77849">
        <ele>443.401123</ele>
        <time>2016-05-22T09:00:11Z</time>
      </trkpt>
      <trkpt lat="45.83597" lon="4.77852">
        <ele>443.847412</ele>
        <time>2016-05-22T09:00:13Z</time>
      </trkpt>
      <trkpt lat="45.8359" lon="4.77856">
        <ele>444.274017</ele>
        <time>2016-05-22T09:00:15Z</time>
      </trkpt>
      <trkpt lat="45.83583" lon="4.77859">
        <ele>444.443848</ele>
        <time>2016-05-22T09:00:17Z</time>
      </trkpt>
      <trkpt lat="45.83575" lon="4.7786">
        <ele>444.962006</ele>
        <time>2016-05-22T09:00:19Z</time>
      </trkpt>
      <trkpt lat="45.83567" lon="4.77861">
        <ele>445.330017</ele>
        <time>2016-05-22T09:00:21Z</time>
      </trkpt>
      <trkpt lat="45.83559" lon="4.77862">
        <ele>445.720398</ele>
        <time>2016-05-22T09:00:23Z</time>
      </trkpt>
      <trkpt lat="45.83552" lon="4.77862">
        <ele>446.056488</ele>
        <time>2016-05-22T09:00:25Z</time>
      </trkpt>
      <trkpt lat="45.83545" lon="4.77863">
        <ele>446.448883</ele>
        <time>2016-05-22T09:00:27Z</time>
      </trkpt>
      <trkpt lat="45.83538" lon="4.77863">
        <ele>446.764465</ele>
        <time>2016-05-22T09:00:29Z</time>
      </trkpt>
      <trkpt lat="45.8353" lon="4.77865">
        <ele>447.029785</ele>
        <time>2016-05-22T09:00:31Z</time>
      </trkpt>
      <trkpt lat="45.83523" lon="4.77866">
        <ele>447.254059</ele>
        <time>2016-05-22T09:00:33Z</time>
      </trkpt>
      <trkpt lat="45.83517" lon="4.77867">
        <ele>447.424805</ele>
        <time>2016-05-22T09:00:35Z</time>
      </trkpt>
      <trkpt lat="45.83511" lon="4.77867">
        <ele>447.638245</ele>
        <time>2016-05-22T09:00:37Z</time>
      </trkpt>
      <trkpt lat="45.83504" lon="4.77866">
        <ele>447.727539</ele>
        <time>2016-05-22T09:00:39Z</time>
      </trkpt>
      <trkpt lat="45.83498" lon="4.77866">
        <ele>447.914856</ele>
        <time>2016-05-22T09:00:41Z</time>
      </trkpt>
      <trkpt lat="45.83492" lon="4.77866">
        <ele>448.001953</ele>
        <time>2016-05-22T09:00:43Z</time>
      </trkpt>
      <trkpt lat="45.83486" lon="4.77866">
        <ele>448.288574</ele>
        <time>2016-05-22T09:00:45Z</time>
      </trkpt>
      <trkpt lat="45.83481" lon="4.77867">
        <ele>448.608795</ele>
        <time>2016-05-22T09:00:47Z</time>
      </trkpt>
      <trkpt lat="45.83476" lon="4.77868">
        <ele>448.832764</ele>
        <time>2016-05-22T09:00:49Z</time>
      </trkpt>
      <trkpt lat="45.83471" lon="4.7787">
        <ele>449.000793</ele>
        <time>2016-05-22T09:00:51Z</time>
      </trkpt>
      <trkpt lat="45.83467" lon="4.77872">
        <ele>449.241699</ele>
        <time>2016-05-22T09:00:53Z</time>
      </trkpt>
      <trkpt lat="45.83462" lon="4.77876">
        <ele>449.546936</ele>
        <time>2016-05-22T09:00:55Z</time>
      </trkpt>
      <trkpt lat="45.83458" lon="4.7788">
        <ele>449.89325</ele>
        <time>2016-05-22T09:00:57Z</time>
      </trkpt>
      <trkpt lat="45.83454" lon="4.77885">
        <ele>450.228821</ele>
        <time>2016-05-22T09:00:59Z</time>
      </trkpt>
      <trkpt lat="45.8345" lon="4.7789">
        <ele>450.494629</ele>
        <time>2016-05-22T09:01:01Z</time>
      </trkpt>
      <trkpt lat="45.83447" lon="4.77895">
        <ele>450.830139</ele>
        <time>2016-05-22T09:01:03Z</time>
      </trkpt>
      <trkpt lat="45.83444" lon="4.77901">
        <ele>451.030609</ele>
        <time>2016-05-22T09:01:05Z</time>
      </trkpt>
      <trkpt lat="45.8344" lon="4.77906">
        <ele>451.356873</ele>
        <time>2016-05-22T09:01:07Z</time>
      </trkpt>
      <trkpt lat="45.83437" lon="4.77912">
        <ele>451.703766</ele>
        <time>2016-05-22T09:01:09Z</time>
      </trkpt>
      <trkpt lat="45.83434" lon="4.77915">
        <ele>452.035156</ele>
        <time>2016-05-22T09:01:11Z</time>
      </trkpt>
      <trkpt lat="45.8343" lon="4.77913">
        <ele>452.404877</ele>
        <time>2016-05-22T09:01:13Z</time>
      </trkpt>
      <trkpt lat="45.83428" lon="4.77909">
        <ele>452.886414</ele>
        <time>2016-05-22T09:01:15Z</time>
      </trkpt>
      <trkpt lat="45.83425" lon="4.77904">
        <ele>453.322205</ele>
        <time>2016-05-22T09:01:17Z</time>
      </trkpt>
      <trkpt lat="45.83422" lon="4.77897">
        <ele>453.542297</ele>
        <time>2016-05-22T09:01:19Z</time>
      </trkpt>
      <trkpt lat="45.83418" lon="4.77888">
        <ele>453.827057</ele>
        <time>2016-05-22T09:01:21Z</time>
      </trkpt>
      <trkpt lat="45.83414" lon="4.7788">
        <ele>454.092865</ele>
        <time>2016-05-22T09:01:23Z</time>
      </trkpt>
      <trkpt lat="45.83411" lon="4.77873">
        <ele>454.34903</ele>
        <time>2016-05-22T09:01:25Z</time>
      </trkpt>
      <trkpt lat="45.83406" lon="4.7787">
        <ele>454.342529</ele>
        <time>2016-05-22T09:01:27Z</time>
      </trkpt>
      <trkpt lat="45.83398" lon="4.77867">
        <ele>454.410065</ele>
        <time>2016-05-22T09:01:29Z</time>
      </trkpt>
      <trkpt lat="45.83389" lon="4.77866">
        <ele>454.473236</ele>
        <time>2016-05-22T09:01:31Z</time>
      </trkpt>
      <trkpt lat="45.83381" lon="4.77865">
        <ele>454.42334</ele>
        <time>2016-05-22T09:01:33Z</time>
      </trkpt>
      <trkpt lat="45.8337" lon="4.77864">
        <ele>454.202087</ele>
        <time>2016-05-22T09:01:35Z</time>
      </trkpt>
      <trkpt lat="45.83355" lon="4.77864">
        <ele>453.914124</ele>
        <time>2016-05-22T09:01:37Z</time>
      </trkpt>
      <trkpt lat="45.83337" lon="4.77861">
        <ele>453.376129</ele>
        <time>2016-05-22T09:01:39Z</time>
      </trkpt>
      <trkpt lat="45.83318" lon="4.77859">
        <ele>452.492035</ele>
        <time>2016-05-22T09:01:41Z</time>
      </trkpt>
      <trkpt lat="45.83297" lon="4.77857">
        <ele>451.523132</ele>
        <time>2016-05-22T09:01:43Z</time>
      </trkpt>
      <trkpt lat="45.83278" lon="4.77849">
        <ele>450.42804</ele>
        <time>2016-05-22T09:01:45Z</time>
      </trkpt>
      <trkpt lat="45.83259" lon="4.77838">
        <ele>449.091461</ele>
        <time>2016-05-22T09:01:47Z</time>
      </trkpt>
      <trkpt lat="45.83241" lon="4.77829">
        <ele>447.950928</ele>
        <time>2016-05-22T09:01:49Z</time>
      </trkpt>
      <trkpt lat="45.83227" lon="4.77819">
        <ele>447.173889</ele>
        <time>2016-05-22T09:01:51Z</time>
      </trkpt>
      <trkpt lat="45.83217" lon="4.77806">
        <ele>445.778412</ele>
        <time>2016-05-22T09:01:53Z</time>
      </trkpt>
      <trkpt lat="45.83212" lon="4.77796">
        <ele>444.256592</ele>
        <time>2016-05-22T09:01:55Z</time>
      </trkpt>
      <trkpt lat="45.83207" lon="4.77793">
        <ele>442.489594</ele>
        <time>2016-05-22T09:01:57Z</time>
      </trkpt>
      <trkpt lat="45.83202" lon="4.77789">
        <ele>440.803406</ele>
        <time>2016-05-22T09:01:59Z</time>
      </trkpt>
      <trkpt lat="45.83196" lon="4.77784">
        <ele>439.126373</ele>
        <time>2016-05-22T09:02:01Z</time>
      </trkpt>
      <trkpt lat="45.83188" lon="4.77777">
        <ele>437.431976</ele>
        <time>2016-05-22T09:02:03Z</time>
      </trkpt>
      <trkpt lat="45.83177" lon="4.77772">
        <ele>435.543793</ele>
        <time>2016-05-22T09:02:05Z</time>
      </trkpt>
      <trkpt lat="45.83163" lon="4.77768">
        <ele>433.606384</ele>
        <time>2016-05-22T09:02:07Z</time>
      </trkpt>
      <trkpt lat="45.83149" lon="4.77766">
        <ele>432.7789</ele>
        <time>2016-05-22T09:02:09Z</time>
      </trkpt>
      <trkpt lat="45.83134" lon="4.77762">
        <ele>430.989838</ele>
        <time>2016-05-22T09:02:11Z</time>
      </trkpt>
      <trkpt lat="45.8312" lon="4.77759">
        <ele>428.810974</ele>
        <time>2016-05-22T09:02:13Z</time>
      </trkpt>
      <trkpt lat="45.83111" lon="4.77758">
        <ele>426.701263</ele>
        <time>2016-05-22T09:02:15Z</time>
      </trkpt>
      <trkpt lat="45.83104" lon="4.77758">
        <ele>424.964661</ele>
        <time>2016-05-22T09:02:17Z</time>
      </trkpt>
      <trkpt lat="45.83099" lon="4.77753">
        <ele>423.045258</ele>
        <time>2016-05-22T09:02:19Z</time>
      </trkpt>
      <trkpt lat="45.83098" lon="4.77743">
        <ele>421.243805</ele>
        <time>2016-05-22T09:02:21Z</time>
      </trkpt>
      <trkpt lat="45.83099" lon="4.7773">
        <ele>419.757751</ele>
        <time>2016-05-22T09:02:23Z</time>
      </trkpt>
      <trkpt lat="45.83096" lon="4.77719">
        <ele>418.3349</ele>
        <time>2016-05-22T09:02:25Z</time>
      </trkpt>
      <trkpt lat="45.83088" lon="4.77716">
        <ele>416.953552</ele>
        <time>2016-05-22T09:02:27Z</time>
      </trkpt>
      <trkpt lat="45.83077" lon="4.77717">
        <ele>416.441071</ele>
        <time>2016-05-22T09:02:29Z</time>
      </trkpt>
      <trkpt lat="45.83065" lon="4.77718">
        <ele>414.871826</ele>
        <time>2016-05-22T09:02:31Z</time>
      </trkpt>
      <trkpt lat="45.83053" lon="4.77719">
        <ele>413.874695</ele>
        <time>2016-05-22T09:02:33Z</time>
      </trkpt>
      <trkpt lat="45.83039" lon="4.77721">
        <ele>412.448151</ele>
        <time>2016-05-22T09:02:35Z</time>
      </trkpt>
      <trkpt lat="45.83025" lon="4.77725">
        <ele>410.799469</ele>
        <time>2016-05-22T09:02:37Z</time>
      </trkpt>
      <trkpt lat="45.8301" lon="4.77731">
        <ele>409.660217</ele>
        <time>2016-05-22T09:02:39Z</time>
      </trkpt>
      <trkpt lat="45.82995" lon="4.77737">
        <ele>408.546356</ele>
        <time>2016-05-22T09:02:41Z</time>
      </trkpt>
      <trkpt lat="45.8298" lon="4.77741">
        <ele>407.312714</ele>
        <time>2016-05-22T09:02:43Z</time>
      </trkpt>
      <trkpt lat="45.82965" lon="4.7774">
        <ele>406.508118</ele>
        <time>2016-05-22T09:02:45Z</time>
      </trkpt>
      <trkpt lat="45.82948" lon="4.77736">
        <ele>405.22052</ele>
        <time>2016-05-22T09:02:47Z</time>
      </trkpt>
      <trkpt lat="45.82929" lon="4.77729">
        <ele>404.180878</ele>
        <time>2016-05-22T09:02:49Z</time>
      </trkpt>
      <trkpt lat="45.82912" lon="4.77719">
        <ele>402.494659</ele>
        <time>2016-05-22T09:02:51Z</time>
      </trkpt>
      <trkpt lat="45.82895" lon="4.7771">
        <ele>400.934692</ele>
        <time>2016-05-22T09:02:53Z</time>
      </trkpt>
      <trkpt lat="45.82881" lon="4.77701">
        <ele>399.656525</ele>
        <time>2016-05-22T09:02:55Z</time>
      </trkpt>
      <trkpt lat="45.82872" lon="4.77688">
        <ele>398.276093</ele>
        <time>2016-05-22T09:02:57Z</time>
      </trkpt>
      <trkpt lat="45.82867" lon="4.77675">
        <ele>396.657745</ele>
        <time>2016-05-22T09:02:59Z</time>
      </trkpt>
      <trkpt lat="45.82858" lon="4.77669">
        <ele>395.24176</ele>
        <time>2016-05-22T09:03:01Z</time>
      </trkpt>
      <trkpt lat="45.82848" lon="4.77674">
        <ele>393.786163</ele>
        <time>2016-05-22T09:03:03Z</time>
      </trkpt>
      <trkpt lat="45.82842" lon="4.77684">
        <ele>393.028046</ele>
        <time>2016-05-22T09:03:05Z</time>
      </trkpt>
      <trkpt lat="45.82839" lon="4.77697">
        <ele>391.456268</ele>
        <time>2016-05-22T09:03:07Z</time>
      </trkpt>
      <trkpt lat="45.82838" lon="4.77708">
        <ele>390.179718</ele>
        <time>2016-05-22T09:03:09Z</time>
      </trkpt>
      <trkpt lat="45.82839" lon="4.77716">
        <ele>388.524933</ele>
        <time>2016-05-22T09:03:11Z</time>
      </trkpt>
      <trkpt lat="45.82842" lon="4.77723">
        <ele>387.102997</ele>
        <time>2016-05-22T09:03:13Z</time>
      </trkpt>
      <trkpt lat="45.82845" lon="4.77732">
        <ele>385.40564</ele>
        <time>2016-05-22T09:03:15Z</time>
      </trkpt>
      <trkpt lat="45.82849" lon="4.7774">
        <ele>384.378601</ele>
        <time>2016-05-22T09:03:17Z</time>
      </trkpt>
      <trkpt lat="45.82856" lon="4.7775">
        <ele>383.72937</ele>
        <time>2016-05-22T09:03:19Z</time>
      </trkpt>
      <trkpt lat="45.82864" lon="4.77759">
        <ele>382.727417</ele>
        <time>2016-05-22T09:03:21Z</time>
      </trkpt>
      <trkpt lat="45.82875" lon="4.77767">
        <ele>380.866241</ele>
        <time>2016-05-22T09:03:23Z</time>
      </trkpt>
      <trkpt lat="45.82887" lon="4.77774">
        <ele>379.182312</ele>
        <time>2016-05-22T09:03:25Z</time>
      </trkpt>
      <trkpt lat="45.82896" lon="4.77781">
        <ele>377.890564</ele>
        <time>2016-05-22T09:03:27Z</time>
      </trkpt>
      <trkpt lat="45.829" lon="4.77785">
        <ele>376.407379</ele>
        <time>2016-05-22T09:03:29Z</time>
      </trkpt>
      <trkpt lat="45.82896" lon="4.77786">
        <ele>375.065613</ele>
        <time>2016-05-22T09:03:31Z</time>
      </trkpt>
      <trkpt lat="45.82888" lon="4.77788">
        <ele>374.007599</ele>
        <time>2016-05-22T09:03:33Z</time>
      </trkpt>
      <trkpt lat="45.82883" lon="4.778">
        <ele>372.716827</ele>
        <time>2016-05-22T09:03:35Z</time>
      </trkpt>
      <trkpt lat="45.8288" lon="4.77815">
        <ele>372.027466</ele>
        <time>2016-05-22T09:03:37Z</time>
      </trkpt>
      <trkpt lat="45.82875" lon="4.77828">
        <ele>371.028778</ele>
        <time>2016-05-22T09:03:39Z</time>
      </trkpt>
      <trkpt lat="45.82868" lon="4.77839">
        <ele>370.339539</ele>
        <time>2016-05-22T09:03:41Z</time>
      </trkpt>
      <trkpt lat="45.8286" lon="4.77848">
        <ele>369.557678</ele>
        <time>2016-05-22T09:03:43Z</time>
      </trkpt>
      <trkpt lat="45.82852" lon="4.77856">
        <ele>369.030151</ele>
        <time>2016-05-22T09:03:45Z</time>
      </trkpt>
      <trkpt lat="45.82845" lon="4.7786">
        <ele>368.567566</ele>
        <time>2016-05-22T09:03:47Z</time>
      </trkpt>
      <trkpt lat="45.82838" lon="4.77863">
        <ele>367.950256</ele>
        <time>2016-05-22T09:03:49Z</time>
      </trkpt>
      <trkpt lat="45.82833" lon="4.77865">
        <ele>367.49704</ele>
        <time>2016-05-22T09:03:51Z</time>
      </trkpt>
      <trkpt lat="45.82827" lon="4.77866">
        <ele>367.075806</ele>
        <time>2016-05-22T09:03:53Z</time>
      </trkpt>
      <trkpt lat="45.82822" lon="4.77867">
        <ele>366.730194</ele>
        <time>2016-05-22T09:03:55Z</time>
      </trkpt>
      <trkpt lat="45.82818" lon="4.77868">
        <ele>366.360535</ele>
        <time>2016-05-22T09:03:57Z</time>
      </trkpt>
      <trkpt lat="45.82814" lon="4.77868">
        <ele>366.129822</ele>
        <time>2016-05-22T09:03:59Z</time>
      </trkpt>
      <trkpt lat="45.8281" lon="4.77869">
        <ele>365.885437</ele>
        <time>2016-05-22T09:04:01Z</time>
      </trkpt>
      <trkpt lat="45.82806" lon="4.77869">
        <ele>365.720734</ele>
        <time>2016-05-22T09:04:03Z</time>
      </trkpt>
      <trkpt lat="45.82802" lon="4.77869">
        <ele>366.033691</ele>
        <time>2016-05-22T09:04:05Z</time>
      </trkpt>
      <trkpt lat="45.82798" lon="4.7787">
        <ele>366.089172</ele>
        <time>2016-05-22T09:04:07Z</time>
      </trkpt>
      <trkpt lat="45.82794" lon="4.7787">
        <ele>366.387268</ele>
        <time>2016-05-22T09:04:09Z</time>
      </trkpt>
      <trkpt lat="45.8279" lon="4.7787">
        <ele>366.460754</ele>
        <time>2016-05-22T09:04:11Z</time>
      </trkpt>
      <trkpt lat="45.82787" lon="4.77871">
        <ele>366.76236</ele>
        <time>2016-05-22T09:04:13Z</time>
      </trkpt>
      <trkpt lat="45.82785" lon="4.77871">
        <ele>367.231659</ele>
        <time>2016-05-22T09:04:15Z</time>
      </trkpt>
      <trkpt lat="45.82782" lon="4.77872">
        <ele>367.880829</ele>
        <time>2016-05-22T09:04:17Z</time>
      </trkpt>
      <trkpt lat="45.82779" lon="4.77873">
        <ele>368.693176</ele>
        <time>2016-05-22T09:04:19Z</time>
      </trkpt>
      <trkpt lat="45.82777" lon="4.77873">
        <ele>368.890747</ele>
        <time>2016-05-22T09:04:21Z</time>
      </trkpt>
      <trkpt lat="45.82774" lon="4.77874">
        <ele>369.260712</ele>
        <time>2016-05-22T09:04:23Z</time>
      </trkpt>
      <trkpt lat="45.82772" lon="4.77875">
        <ele>369.852997</ele>
        <time>2016-05-22T09:04:25Z</time>
      </trkpt>
      <trkpt lat="45.82769" lon="4.77876">
        <ele>370.341583</ele>
        <time>2016-05-22T09:04:27Z</time>
      </trkpt>
      <trkpt lat="45.82766" lon="4.77877">
        <ele>370.819366</ele>
        <time>2016-05-22T09:04:29Z</time>
      </trkpt>
      <trkpt lat="45.82763" lon="4.77878">
        <ele>371.405212</ele>
        <time>2016-05-22T09:04:31Z</time>
      </trkpt>
      <trkpt lat="45.82761" lon="4.77879">
        <ele>371.992157</ele>
        <time>2016-05-22T09:04:33Z</time>
      </trkpt>
      <trkpt lat="45.82758" lon="4.7788">
        <ele>372.562683</ele>
        <time>2016-05-22T09:04:35Z</time>
      </trkpt>
      <trkpt lat="45.82755" lon="4.7788">
        <ele>373.150513</ele>
        <time>2016-05-22T09:04:37Z</time>
      </trkpt>
      <trkpt lat="45.82753" lon="4.77881">
        <ele>373.742981</ele>
        <time>2016-05-22T09:04:39Z</time>
      </trkpt>
      <trkpt lat="45.8275" lon="4.77881">
        <ele>374.052185</ele>
        <time>2016-05-22T09:04:41Z</time>
      </trkpt>
      <trkpt lat="45.82746" lon="4.77882">
        <ele>374.450226</ele>
        <time>2016-05-22T09:04:43Z</time>
      </trkpt>
      <trkpt lat="45.82743" lon="4.77883">
        <ele>374.910858</ele>
        <time>2016-05-22T09:04:45Z</time>
      </trkpt>
      <trkpt lat="45.82739" lon="4.77883">
        <ele>375.345886</ele>
        <time>2016-05-22T09:04:47Z</time>
      </trkpt>
      <trkpt lat="45.82735" lon="4.77884">
        <ele>375.871552</ele>
        <time>2016-05-22T09:04:49Z</time>
      </trkpt>
      <trkpt lat="45.82731" lon="4.77885">
        <ele>376.353943</ele>
        <time>2016-05-22T09:04:51Z</time>
      </trkpt>
      <trkpt lat="45.82727" lon="4.77885">
        <ele>376.836243</ele>
        <time>2016-05-22T09:04:53Z</time>
      </trkpt>
      <trkpt lat="45.82717" lon="4.77886">
        <ele>377.183594</ele>
        <time>2016-05-22T09:04:57Z</time>
      </trkpt>
      <trkpt lat="45.82711" lon="4.77888">
        <ele>377.46344</ele>
        <time>2016-05-22T09:04:59Z</time>
      </trkpt>
      <trkpt lat="45.82706" lon="4.7789">
        <ele>377.923553</ele>
        <time>2016-05-22T09:05:01Z</time>
      </trkpt>
      <trkpt lat="45.827" lon="4.77891">
        <ele>378.186615</ele>
        <time>2016-05-22T09:05:03Z</time>
      </trkpt>
      <trkpt lat="45.82692" lon="4.77893">
        <ele>378.438965</ele>
        <time>2016-05-22T09:05:05Z</time>
      </trkpt>
      <trkpt lat="45.82684" lon="4.77895">
        <ele>378.563995</ele>
        <time>2016-05-22T09:05:07Z</time>
      </trkpt>
      <trkpt lat="45.82679" lon="4.77901">
        <ele>378.676483</ele>
        <time>2016-05-22T09:05:09Z</time>
      </trkpt>
      <trkpt lat="45.82678" lon="4.77908">
        <ele>378.760834</ele>
        <time>2016-05-22T09:05:11Z</time>
      </trkpt>
      <trkpt lat="45.82678" lon="4.77914">
        <ele>378.862518</ele>
        <time>2016-05-22T09:05:13Z</time>
      </trkpt>
      <trkpt lat="45.82678" lon="4.77919">
        <ele>378.957062</ele>
        <time>2016-05-22T09:05:15Z</time>
      </trkpt>
      <trkpt lat="45.82678" lon="4.77924">
        <ele>379.120117</ele>
        <time>2016-05-22T09:05:17Z</time>
      </trkpt>
      <trkpt lat="45.82678" lon="4.77929">
        <ele>379.252075</ele>
        <time>2016-05-22T09:05:19Z</time>
      </trkpt>
      <trkpt lat="45.82678" lon="4.77934">
        <ele>379.373108</ele>
        <time>2016-05-22T09:05:21Z</time>
      </trkpt>
      <trkpt lat="45.82678" lon="4.77939">
        <ele>379.485596</ele>
        <time>2016-05-22T09:05:23Z</time>
      </trkpt>
      <trkpt lat="45.82678" lon="4.77944">
        <ele>379.606628</ele>
        <time>2016-05-22T09:05:25Z</time>
      </trkpt>
      <trkpt lat="45.82677" lon="4.77949">
        <ele>379.823029</ele>
        <time>2016-05-22T09:05:27Z</time>
      </trkpt>
      <trkpt lat="45.82676" lon="4.77954">
        <ele>379.879272</ele>
        <time>2016-05-22T09:05:29Z</time>
      </trkpt>
      <trkpt lat="45.82674" lon="4.77959">
        <ele>380.049438</ele>
        <time>2016-05-22T09:05:31Z</time>
      </trkpt>
      <trkpt lat="45.82674" lon="4.77964">
        <ele>380.14975</ele>
        <time>2016-05-22T09:05:33Z</time>
      </trkpt>
      <trkpt lat="45.82673" lon="4.77969">
        <ele>380.342346</ele>
        <time>2016-05-22T09:05:35Z</time>
      </trkpt>
      <trkpt lat="45.82672" lon="4.77974">
        <ele>380.519775</ele>
        <time>2016-05-22T09:05:37Z</time>
      </trkpt>
      <trkpt lat="45.82671" lon="4.77979">
        <ele>380.767395</ele>
        <time>2016-05-22T09:05:39Z</time>
      </trkpt>
      <trkpt lat="45.8267" lon="4.77985">
        <ele>380.972198</ele>
        <time>2016-05-22T09:05:41Z</time>
      </trkpt>
      <trkpt lat="45.82669" lon="4.77991">
        <ele>381.127441</ele>
        <time>2016-05-22T09:05:43Z</time>
      </trkpt>
      <trkpt lat="45.82668" lon="4.77998">
        <ele>381.40741</ele>
        <time>2016-05-22T09:05:45Z</time>
      </trkpt>
      <trkpt lat="45.82668" lon="4.78006">
        <ele>381.515625</ele>
        <time>2016-05-22T09:05:47Z</time>
      </trkpt>
      <trkpt lat="45.82667" lon="4.78014">
        <ele>381.763245</ele>
        <time>2016-05-22T09:05:49Z</time>
      </trkpt>
      <trkpt lat="45.82668" lon="4.78023">
        <ele>382.072693</ele>
        <time>2016-05-22T09:05:51Z</time>
      </trkpt>
      <trkpt lat="45.82667" lon="4.78035">
        <ele>382.367004</ele>
        <time>2016-05-22T09:05:53Z</time>
      </trkpt>
      <trkpt lat="45.82663" lon="4.78045">
        <ele>382.544434</ele>
        <time>2016-05-22T09:05:55Z</time>
      </trkpt>
      <trkpt lat="45.82655" lon="4.78049">
        <ele>382.584045</ele>
        <time>2016-05-22T09:05:57Z</time>
      </trkpt>
      <trkpt lat="45.82643" lon="4.7805">
        <ele>382.549652</ele>
        <time>2016-05-22T09:05:59Z</time>
      </trkpt>
      <trkpt lat="45.82629" lon="4.7805">
        <ele>382.432831</ele>
        <time>2016-05-22T09:06:01Z</time>
      </trkpt>
      <trkpt lat="45.82616" lon="4.78049">
        <ele>382.307343</ele>
        <time>2016-05-22T09:06:03Z</time>
      </trkpt>
      <trkpt lat="45.82608" lon="4.78049">
        <ele>382.25412</ele>
        <time>2016-05-22T09:06:05Z</time>
      </trkpt>
      <trkpt lat="45.82604" lon="4.78055">
        <ele>382.063751</ele>
        <time>2016-05-22T09:06:07Z</time>
      </trkpt>
      <trkpt lat="45.82602" lon="4.78062">
        <ele>381.745544</ele>
        <time>2016-05-22T09:06:09Z</time>
      </trkpt>
      <trkpt lat="45.82601" lon="4.78074">
        <ele>380.900024</ele>
        <time>2016-05-22T09:06:11Z</time>
      </trkpt>
      <trkpt lat="45.82599" lon="4.78086">
        <ele>380.165527</ele>
        <time>2016-05-22T09:06:13Z</time>
      </trkpt>
      <trkpt lat="45.82599" lon="4.78097">
        <ele>379.118927</ele>
        <time>2016-05-22T09:06:15Z</time>
      </trkpt>
      <trkpt lat="45.82604" lon="4.78105">
        <ele>378.011902</ele>
        <time>2016-05-22T09:06:17Z</time>
      </trkpt>
      <trkpt lat="45.8261" lon="4.78117">
        <ele>377.238892</ele>
        <time>2016-05-22T09:06:19Z</time>
      </trkpt>
      <trkpt lat="45.82619" lon="4.7813">
        <ele>376.011017</ele>
        <time>2016-05-22T09:06:21Z</time>
      </trkpt>
      <trkpt lat="45.82628" lon="4.78145">
        <ele>374.748413</ele>
        <time>2016-05-22T09:06:23Z</time>
      </trkpt>
      <trkpt lat="45.82637" lon="4.78158">
        <ele>374.406433</ele>
        <time>2016-05-22T09:06:25Z</time>
      </trkpt>
      <trkpt lat="45.82645" lon="4.7817">
        <ele>373.433258</ele>
        <time>2016-05-22T09:06:27Z</time>
      </trkpt>
      <trkpt lat="45.82653" lon="4.78181">
        <ele>372.277008</ele>
        <time>2016-05-22T09:06:29Z</time>
      </trkpt>
      <trkpt lat="45.82661" lon="4.78191">
        <ele>371.067993</ele>
        <time>2016-05-22T09:06:31Z</time>
      </trkpt>
      <trkpt lat="45.82668" lon="4.78201">
        <ele>370.174957</ele>
        <time>2016-05-22T09:06:33Z</time>
      </trkpt>
      <trkpt lat="45.82674" lon="4.78213">
        <ele>369.098083</ele>
        <time>2016-05-22T09:06:35Z</time>
      </trkpt>
      <trkpt lat="45.8268" lon="4.78223">
        <ele>368.117157</ele>
        <time>2016-05-22T09:06:37Z</time>
      </trkpt>
      <trkpt lat="45.82687" lon="4.78231">
        <ele>367.749634</ele>
        <time>2016-05-22T09:06:39Z</time>
      </trkpt>
      <trkpt lat="45.82693" lon="4.78236">
        <ele>366.862244</ele>
        <time>2016-05-22T09:06:41Z</time>
      </trkpt>
      <trkpt lat="45.82698" lon="4.78239">
        <ele>366.30011</ele>
        <time>2016-05-22T09:06:43Z</time>
      </trkpt>
      <trkpt lat="45.82703" lon="4.78243">
        <ele>365.666748</ele>
        <time>2016-05-22T09:06:45Z</time>
      </trkpt>
      <trkpt lat="45.82703" lon="4.78251">
        <ele>364.982849</ele>
        <time>2016-05-22T09:06:47Z</time>
      </trkpt>
      <trkpt lat="45.82701" lon="4.78258">
        <ele>364.488708</ele>
        <time>2016-05-22T09:06:49Z</time>
      </trkpt>
      <trkpt lat="45.82696" lon="4.78263">
        <ele>364.004608</ele>
        <time>2016-05-22T09:06:51Z</time>
      </trkpt>
      <trkpt lat="45.82691" lon="4.78266">
        <ele>364.091064</ele>
        <time>2016-05-22T09:06:53Z</time>
      </trkpt>
      <trkpt lat="45.82686" lon="4.78269">
        <ele>364.142914</ele>
        <time>2016-05-22T09:06:55Z</time>
      </trkpt>
      <trkpt lat="45.8268" lon="4.78272">
        <ele>364.046417</ele>
        <time>2016-05-22T09:06:57Z</time>
      </trkpt>
      <trkpt lat="45.82674" lon="4.78273">
        <ele>364.476288</ele>
        <time>2016-05-22T09:06:59Z</time>
      </trkpt>
      <trkpt lat="45.82669" lon="4.78275">
        <ele>364.791138</ele>
        <time>2016-05-22T09:07:01Z</time>
      </trkpt>
      <trkpt lat="45.82662" lon="4.78276">
        <ele>364.727234</ele>
        <time>2016-05-22T09:07:03Z</time>
      </trkpt>
      <trkpt lat="45.82657" lon="4.78278">
        <ele>365.48938</ele>
        <time>2016-05-22T09:07:05Z</time>
      </trkpt>
      <trkpt lat="45.82651" lon="4.7828">
        <ele>365.660553</ele>
        <time>2016-05-22T09:07:07Z</time>
      </trkpt>
      <trkpt lat="45.82646" lon="4.78283">
        <ele>365.897827</ele>
        <time>2016-05-22T09:07:09Z</time>
      </trkpt>
      <trkpt lat="45.82641" lon="4.78287">
        <ele>366.128448</ele>
        <time>2016-05-22T09:07:11Z</time>
      </trkpt>
      <trkpt lat="45.82636" lon="4.7829">
        <ele>366.688263</ele>
        <time>2016-05-22T09:07:13Z</time>
      </trkpt>
      <trkpt lat="45.82632" lon="4.78293">
        <ele>367.049164</ele>
        <time>2016-05-22T09:07:15Z</time>
      </trkpt>
      <trkpt lat="45.82629" lon="4.78297">
        <ele>367.41217</ele>
        <time>2016-05-22T09:07:17Z</time>
      </trkpt>
      <trkpt lat="45.82627" lon="4.78299">
        <ele>367.6297</ele>
        <time>2016-05-22T09:07:19Z</time>
      </trkpt>
      <trkpt lat="45.82626" lon="4.78302">
        <ele>368.08847</ele>
        <time>2016-05-22T09:07:21Z</time>
      </trkpt>
      <trkpt lat="45.82625" lon="4.78304">
        <ele>368.43512</ele>
        <time>2016-05-22T09:07:23Z</time>
      </trkpt>
      <trkpt lat="45.82624" lon="4.78307">
        <ele>368.752869</ele>
        <time>2016-05-22T09:07:25Z</time>
      </trkpt>
      <trkpt lat="45.82624" lon="4.7831">
        <ele>369.206757</ele>
        <time>2016-05-22T09:07:27Z</time>
      </trkpt>
      <trkpt lat="45.82623" lon="4.78313">
        <ele>369.712555</ele>
        <time>2016-05-22T09:07:29Z</time>
      </trkpt>
      <trkpt lat="45.82621" lon="4.78314">
        <ele>370.26062</ele>
        <time>2016-05-22T09:07:33Z</time>
      </trkpt>
      <trkpt lat="45.8262" lon="4.78315">
        <ele>370.995911</ele>
        <time>2016-05-22T09:07:37Z</time>
      </trkpt>
      <trkpt lat="45.8262" lon="4.78317">
        <ele>371.619934</ele>
        <time>2016-05-22T09:07:41Z</time>
      </trkpt>
      <trkpt lat="45.82621" lon="4.78319">
        <ele>371.934052</ele>
        <time>2016-05-22T09:07:43Z</time>
      </trkpt>
      <trkpt lat="45.8262" lon="4.78322">
        <ele>372.192322</ele>
        <time>2016-05-22T09:07:45Z</time>
      </trkpt>
      <trkpt lat="45.8262" lon="4.78325">
        <ele>372.501648</ele>
        <time>2016-05-22T09:07:47Z</time>
      </trkpt>
      <trkpt lat="45.8262" lon="4.78328">
        <ele>372.592468</ele>
        <time>2016-05-22T09:07:49Z</time>
      </trkpt>
      <trkpt lat="45.82619" lon="4.78331">
        <ele>372.899261</ele>
        <time>2016-05-22T09:07:51Z</time>
      </trkpt>
      <trkpt lat="45.82617" lon="4.78334">
        <ele>373.841919</ele>
        <time>2016-05-22T09:07:55Z</time>
      </trkpt>
      <trkpt lat="45.82617" lon="4.78338">
        <ele>374.101196</ele>
        <time>2016-05-22T09:07:57Z</time>
      </trkpt>
      <trkpt lat="45.82616" lon="4.78342">
        <ele>374.486145</ele>
        <time>2016-05-22T09:07:59Z</time>
      </trkpt>
      <trkpt lat="45.82616" lon="4.78345">
        <ele>374.858124</ele>
        <time>2016-05-22T09:08:01Z</time>
      </trkpt>
      <trkpt lat="45.82616" lon="4.78348">
        <ele>375.062988</ele>
        <time>2016-05-22T09:08:03Z</time>
      </trkpt>
      <trkpt lat="45.82616" lon="4.78352">
        <ele>375.320557</ele>
        <time>2016-05-22T09:08:05Z</time>
      </trkpt>
      <trkpt lat="45.82616" lon="4.78355">
        <ele>375.770416</ele>
        <time>2016-05-22T09:08:07Z</time>
      </trkpt>
      <trkpt lat="45.82616" lon="4.78358">
        <ele>376.302521</ele>
        <time>2016-05-22T09:08:11Z</time>
      </trkpt>
      <trkpt lat="45.82616" lon="4.78363">
        <ele>376.816559</ele>
        <time>2016-05-22T09:08:15Z</time>
      </trkpt>
      <trkpt lat="45.82615" lon="4.78369">
        <ele>376.950287</ele>
        <time>2016-05-22T09:08:17Z</time>
      </trkpt>
      <trkpt lat="45.82615" lon="4.78379">
        <ele>377.187164</ele>
        <time>2016-05-22T09:08:19Z</time>
      </trkpt>
      <trkpt lat="45.82618" lon="4.78395">
        <ele>377.32132</ele>
        <time>2016-05-22T09:08:21Z</time>
      </trkpt>
      <trkpt lat="45.82623" lon="4.7841">
        <ele>377.472717</ele>
        <time>2016-05-22T09:08:23Z</time>
      </trkpt>
      <trkpt lat="45.82628" lon="4.78426">
        <ele>377.228363</ele>
        <time>2016-05-22T09:08:25Z</time>
      </trkpt>
      <trkpt lat="45.82631" lon="4.78442">
        <ele>377.1474</ele>
        <time>2016-05-22T09:08:27Z</time>
      </trkpt>
      <trkpt lat="45.82636" lon="4.78457">
        <ele>377.065216</ele>
        <time>2016-05-22T09:08:29Z</time>
      </trkpt>
      <trkpt lat="45.82638" lon="4.78472">
        <ele>376.859802</ele>
        <time>2016-05-22T09:08:31Z</time>
      </trkpt>
      <trkpt lat="45.82642" lon="4.78486">
        <ele>376.762756</ele>
        <time>2016-05-22T09:08:33Z</time>
      </trkpt>
      <trkpt lat="45.82646" lon="4.78498">
        <ele>376.541565</ele>
        <time>2016-05-22T09:08:35Z</time>
      </trkpt>
      <trkpt lat="45.8265" lon="4.78507">
        <ele>376.389374</ele>
        <time>2016-05-22T09:08:37Z</time>
      </trkpt>
      <trkpt lat="45.82652" lon="4.78515">
        <ele>376.102112</ele>
        <time>2016-05-22T09:08:39Z</time>
      </trkpt>
      <trkpt lat="45.82656" lon="4.78521">
        <ele>375.937775</ele>
        <time>2016-05-22T09:08:41Z</time>
      </trkpt>
      <trkpt lat="45.8266" lon="4.78528">
        <ele>375.617676</ele>
        <time>2016-05-22T09:08:43Z</time>
      </trkpt>
      <trkpt lat="45.82664" lon="4.78536">
        <ele>375.278107</ele>
        <time>2016-05-22T09:08:45Z</time>
      </trkpt>
      <trkpt lat="45.82668" lon="4.78546">
        <ele>375.091858</ele>
        <time>2016-05-22T09:08:47Z</time>
      </trkpt>
      <trkpt lat="45.82671" lon="4.78555">
        <ele>374.721985</ele>
        <time>2016-05-22T09:08:49Z</time>
      </trkpt>
      <trkpt lat="45.82676" lon="4.78564">
        <ele>374.585754</ele>
        <time>2016-05-22T09:08:51Z</time>
      </trkpt>
      <trkpt lat="45.82678" lon="4.78571">
        <ele>374.373657</ele>
        <time>2016-05-22T09:08:53Z</time>
      </trkpt>
      <trkpt lat="45.82679" lon="4.78579">
        <ele>374.068665</ele>
        <time>2016-05-22T09:08:55Z</time>
      </trkpt>
      <trkpt lat="45.82679" lon="4.78589">
        <ele>373.721741</ele>
        <time>2016-05-22T09:08:57Z</time>
      </trkpt>
      <trkpt lat="45.82679" lon="4.78597">
        <ele>373.423248</ele>
        <time>2016-05-22T09:08:59Z</time>
      </trkpt>
      <trkpt lat="45.82681" lon="4.78605">
        <ele>373.243713</ele>
        <time>2016-05-22T09:09:01Z</time>
      </trkpt>
      <trkpt lat="45.82686" lon="4.78611">
        <ele>373.295593</ele>
        <time>2016-05-22T09:09:03Z</time>
      </trkpt>
      <trkpt lat="45.8269" lon="4.78616">
        <ele>373.278259</ele>
        <time>2016-05-22T09:09:05Z</time>
      </trkpt>
      <trkpt lat="45.82694" lon="4.7862">
        <ele>373.572754</ele>
        <time>2016-05-22T09:09:07Z</time>
      </trkpt>
      <trkpt lat="45.82696" lon="4.78624">
        <ele>373.800049</ele>
        <time>2016-05-22T09:09:09Z</time>
      </trkpt>
      <trkpt lat="45.82697" lon="4.78627">
        <ele>373.93634</ele>
        <time>2016-05-22T09:09:11Z</time>
      </trkpt>
      <trkpt lat="45.82697" lon="4.78632">
        <ele>374.227386</ele>
        <time>2016-05-22T09:09:13Z</time>
      </trkpt>
      <trkpt lat="45.82696" lon="4.78637">
        <ele>374.579865</ele>
        <time>2016-05-22T09:09:15Z</time>
      </trkpt>
      <trkpt lat="45.82695" lon="4.78642">
        <ele>374.929626</ele>
        <time>2016-05-22T09:09:17Z</time>
      </trkpt>
      <trkpt lat="45.82695" lon="4.78647">
        <ele>375.238068</ele>
        <time>2016-05-22T09:09:19Z</time>
      </trkpt>
      <trkpt lat="45.82694" lon="4.78652">
        <ele>375.591858</ele>
        <time>2016-05-22T09:09:21Z</time>
      </trkpt>
      <trkpt lat="45.82695" lon="4.78659">
        <ele>377.021301</ele>
        <time>2016-05-22T09:09:29Z</time>
      </trkpt>
      <trkpt lat="45.82694" lon="4.78665">
        <ele>377.878845</ele>
        <time>2016-05-22T09:09:33Z</time>
      </trkpt>
      <trkpt lat="45.82694" lon="4.78667">
        <ele>378.101654</ele>
        <time>2016-05-22T09:09:35Z</time>
      </trkpt>
      <trkpt lat="45.82694" lon="4.7867">
        <ele>378.421051</ele>
        <time>2016-05-22T09:09:37Z</time>
      </trkpt>
      <trkpt lat="45.82693" lon="4.78673">
        <ele>378.933167</ele>
        <time>2016-05-22T09:09:39Z</time>
      </trkpt>
      <trkpt lat="45.82691" lon="4.78677">
        <ele>379.512939</ele>
        <time>2016-05-22T09:09:43Z</time>
      </trkpt>
      <trkpt lat="45.82689" lon="4.78682">
        <ele>380.587982</ele>
        <time>2016-05-22T09:09:49Z</time>
      </trkpt>
      <trkpt lat="45.82687" lon="4.78683">
        <ele>380.899323</ele>
        <time>2016-05-22T09:09:51Z</time>
      </trkpt>
      <trkpt lat="45.82687" lon="4.78685">
        <ele>381.186554</ele>
        <time>2016-05-22T09:09:53Z</time>
      </trkpt>
      <trkpt lat="45.82686" lon="4.78686">
        <ele>381.478394</ele>
        <time>2016-05-22T09:09:55Z</time>
      </trkpt>
      <trkpt lat="45.82684" lon="4.78687">
        <ele>381.83606</ele>
        <time>2016-05-22T09:09:57Z</time>
      </trkpt>
      <trkpt lat="45.82683" lon="4.78689">
        <ele>382.149109</ele>
        <time>2016-05-22T09:09:59Z</time>
      </trkpt>
      <trkpt lat="45.82682" lon="4.78691">
        <ele>382.465118</ele>
        <time>2016-05-22T09:10:01Z</time>
      </trkpt>
      <trkpt lat="45.82681" lon="4.78693">
        <ele>382.662079</ele>
        <time>2016-05-22T09:10:03Z</time>
      </trkpt>
      <trkpt lat="45.8268" lon="4.78696">
        <ele>383.012115</ele>
        <time>2016-05-22T09:10:05Z</time>
      </trkpt>
      <trkpt lat="45.8268" lon="4.78699">
        <ele>383.217651</ele>
        <time>2016-05-22T09:10:07Z</time>
      </trkpt>
      <trkpt lat="45.82679" lon="4.78701">
        <ele>383.563965</ele>
        <time>2016-05-22T09:10:09Z</time>
      </trkpt>
      <trkpt lat="45.82679" lon="4.78704">
        <ele>383.884308</ele>
        <time>2016-05-22T09:10:11Z</time>
      </trkpt>
      <trkpt lat="45.82678" lon="4.78707">
        <ele>384.128876</ele>
        <time>2016-05-22T09:10:13Z</time>
      </trkpt>
      <trkpt lat="45.82677" lon="4.78709">
        <ele>384.432129</ele>
        <time>2016-05-22T09:10:15Z</time>
      </trkpt>
      <trkpt lat="45.82677" lon="4.78712">
        <ele>384.899536</ele>
        <time>2016-05-22T09:10:17Z</time>
      </trkpt>
      <trkpt lat="45.82676" lon="4.78714">
        <ele>385.36792</ele>
        <time>2016-05-22T09:10:19Z</time>
      </trkpt>
      <trkpt lat="45.82675" lon="4.78717">
        <ele>385.781433</ele>
        <time>2016-05-22T09:10:21Z</time>
      </trkpt>
      <trkpt lat="45.82674" lon="4.78719">
        <ele>386.101868</ele>
        <time>2016-05-22T09:10:23Z</time>
      </trkpt>
      <trkpt lat="45.82673" lon="4.78722">
        <ele>386.318329</ele>
        <time>2016-05-22T09:10:25Z</time>
      </trkpt>
      <trkpt lat="45.82673" lon="4.78724">
        <ele>386.646942</ele>
        <time>2016-05-22T09:10:27Z</time>
      </trkpt>
      <trkpt lat="45.82671" lon="4.78727">
        <ele>386.921936</ele>
        <time>2016-05-22T09:10:29Z</time>
      </trkpt>
      <trkpt lat="45.8267" lon="4.78729">
        <ele>387.268768</ele>
        <time>2016-05-22T09:10:31Z</time>
      </trkpt>
      <trkpt lat="45.82669" lon="4.78732">
        <ele>387.608704</ele>
        <time>2016-05-22T09:10:33Z</time>
      </trkpt>
      <trkpt lat="45.82668" lon="4.78735">
        <ele>387.927612</ele>
        <time>2016-05-22T09:10:35Z</time>
      </trkpt>
      <trkpt lat="45.82668" lon="4.78738">
        <ele>388.262268</ele>
        <time>2016-05-22T09:10:37Z</time>
      </trkpt>
      <trkpt lat="45.82669" lon="4.7874">
        <ele>388.573792</ele>
        <time>2016-05-22T09:10:39Z</time>
      </trkpt>
      <trkpt lat="45.8267" lon="4.78743">
        <ele>388.839905</ele>
        <time>2016-05-22T09:10:41Z</time>
      </trkpt>
      <trkpt lat="45.82672" lon="4.78744">
        <ele>388.978516</ele>
        <time>2016-05-22T09:10:43Z</time>
      </trkpt>
      <trkpt lat="45.82674" lon="4.78742">
        <ele>389.143738</ele>
        <time>2016-05-22T09:10:45Z</time>
      </trkpt>
      <trkpt lat="45.82675" lon="4.7874">
        <ele>389.347412</ele>
        <time>2016-05-22T09:10:47Z</time>
      </trkpt>
      <trkpt lat="45.82677" lon="4.78737">
        <ele>389.622528</ele>
        <time>2016-05-22T09:10:49Z</time>
      </trkpt>
      <trkpt lat="45.82679" lon="4.78734">
        <ele>389.821808</ele>
        <time>2016-05-22T09:10:51Z</time>
      </trkpt>
      <trkpt lat="45.82682" lon="4.78732">
        <ele>389.961975</ele>
        <time>2016-05-22T09:10:53Z</time>
      </trkpt>
      <trkpt lat="45.82683" lon="4.78729">
        <ele>390.229431</ele>
        <time>2016-05-22T09:10:55Z</time>
      </trkpt>
      <trkpt lat="45.82685" lon="4.78727">
        <ele>390.376709</ele>
        <time>2016-05-22T09:10:57Z</time>
      </trkpt>
      <trkpt lat="45.82686" lon="4.78726">
        <ele>390.5047</ele>
        <time>2016-05-22T09:10:59Z</time>
      </trkpt>
      <trkpt lat="45.82691" lon="4.78722">
        <ele>391.207458</ele>
        <time>2016-05-22T09:11:17Z</time>
      </trkpt>
      <trkpt lat="45.82693" lon="4.78719">
        <ele>391.228729</ele>
        <time>2016-05-22T09:11:19Z</time>
      </trkpt>
      <trkpt lat="45.82695" lon="4.78716">
        <ele>391.341034</ele>
        <time>2016-05-22T09:11:21Z</time>
      </trkpt>
      <trkpt lat="45.82698" lon="4.78712">
        <ele>391.414673</ele>
        <time>2016-05-22T09:11:23Z</time>
      </trkpt>
      <trkpt lat="45.82701" lon="4.78707">
        <ele>391.432281</ele>
        <time>2016-05-22T09:11:25Z</time>
      </trkpt>
      <trkpt lat="45.82705" lon="4.78703">
        <ele>391.505219</ele>
        <time>2016-05-22T09:11:27Z</time>
      </trkpt>
      <trkpt lat="45.82708" lon="4.78698">
        <ele>391.565857</ele>
        <time>2016-05-22T09:11:29Z</time>
      </trkpt>
      <trkpt lat="45.82712" lon="4.78694">
        <ele>391.534393</ele>
        <time>2016-05-22T09:11:31Z</time>
      </trkpt>
      <trkpt lat="45.82717" lon="4.78691">
        <ele>391.536072</ele>
        <time>2016-05-22T09:11:33Z</time>
      </trkpt>
      <trkpt lat="45.82722" lon="4.78688">
        <ele>391.594574</ele>
        <time>2016-05-22T09:11:35Z</time>
      </trkpt>
      <trkpt lat="45.82728" lon="4.78685">
        <ele>391.614075</ele>
        <time>2016-05-22T09:11:37Z</time>
      </trkpt>
      <trkpt lat="45.82733" lon="4.78683">
        <ele>391.642212</ele>
        <time>2016-05-22T09:11:39Z</time>
      </trkpt>
      <trkpt lat="45.82738" lon="4.7868">
        <ele>391.766205</ele>
        <time>2016-05-22T09:11:41Z</time>
      </trkpt>
      <trkpt lat="45.82744" lon="4.78678">
        <ele>391.863708</ele>
        <time>2016-05-22T09:11:43Z</time>
      </trkpt>
      <trkpt lat="45.82749" lon="4.78675">
        <ele>391.993713</ele>
        <time>2016-05-22T09:11:45Z</time>
      </trkpt>
      <trkpt lat="45.82756" lon="4.78674">
        <ele>392.119354</ele>
        <time>2016-05-22T09:11:47Z</time>
      </trkpt>
      <trkpt lat="45.82761" lon="4.78672">
        <ele>392.290527</ele>
        <time>2016-05-22T09:11:49Z</time>
      </trkpt>
      <trkpt lat="45.82767" lon="4.7867">
        <ele>392.47467</ele>
        <time>2016-05-22T09:11:51Z</time>
      </trkpt>
      <trkpt lat="45.82772" lon="4.78668">
        <ele>392.671844</ele>
        <time>2016-05-22T09:11:53Z</time>
      </trkpt>
      <trkpt lat="45.82778" lon="4.78665">
        <ele>392.929688</ele>
        <time>2016-05-22T09:11:55Z</time>
      </trkpt>
      <trkpt lat="45.82782" lon="4.78661">
        <ele>393.246277</ele>
        <time>2016-05-22T09:11:57Z</time>
      </trkpt>
      <trkpt lat="45.82787" lon="4.78656">
        <ele>393.41745</ele>
        <time>2016-05-22T09:11:59Z</time>
      </trkpt>
      <trkpt lat="45.82793" lon="4.78649">
        <ele>393.584076</ele>
        <time>2016-05-22T09:12:01Z</time>
      </trkpt>
      <trkpt lat="45.82797" lon="4.78642">
        <ele>393.764252</ele>
        <time>2016-05-22T09:12:03Z</time>
      </trkpt>
      <trkpt lat="45.82801" lon="4.78634">
        <ele>393.959625</ele>
        <time>2016-05-22T09:12:05Z</time>
      </trkpt>
      <trkpt lat="45.82804" lon="4.78626">
        <ele>394.134216</ele>
        <time>2016-05-22T09:12:07Z</time>
      </trkpt>
      <trkpt lat="45.82806" lon="4.78618">
        <ele>394.292786</ele>
        <time>2016-05-22T09:12:09Z</time>
      </trkpt>
      <trkpt lat="45.82806" lon="4.78608">
        <ele>394.492096</ele>
        <time>2016-05-22T09:12:11Z</time>
      </trkpt>
      <trkpt lat="45.82805" lon="4.78598">
        <ele>394.735931</ele>
        <time>2016-05-22T09:12:13Z</time>
      </trkpt>
      <trkpt lat="45.82803" lon="4.78588">
        <ele>394.916443</ele>
        <time>2016-05-22T09:12:15Z</time>
      </trkpt>
      <trkpt lat="45.828" lon="4.78579">
        <ele>395.182953</ele>
        <time>2016-05-22T09:12:17Z</time>
      </trkpt>
      <trkpt lat="45.82797" lon="4.7857">
        <ele>395.289154</ele>
        <time>2016-05-22T09:12:19Z</time>
      </trkpt>
      <trkpt lat="45.82793" lon="4.78563">
        <ele>395.550873</ele>
        <time>2016-05-22T09:12:21Z</time>
      </trkpt>
      <trkpt lat="45.8279" lon="4.78554">
        <ele>395.753967</ele>
        <time>2016-05-22T09:12:23Z</time>
      </trkpt>
      <trkpt lat="45.82789" lon="4.78545">
        <ele>396.029205</ele>
        <time>2016-05-22T09:12:25Z</time>
      </trkpt>
      <trkpt lat="45.82787" lon="4.78536">
        <ele>396.23291</ele>
        <time>2016-05-22T09:12:27Z</time>
      </trkpt>
      <trkpt lat="45.82786" lon="4.78525">
        <ele>396.506927</ele>
        <time>2016-05-22T09:12:29Z</time>
      </trkpt>
      <trkpt lat="45.82786" lon="4.78516">
        <ele>396.738861</ele>
        <time>2016-05-22T09:12:31Z</time>
      </trkpt>
      <trkpt lat="45.82787" lon="4.78506">
        <ele>396.87323</ele>
        <time>2016-05-22T09:12:33Z</time>
      </trkpt>
      <trkpt lat="45.82788" lon="4.78496">
        <ele>397.055328</ele>
        <time>2016-05-22T09:12:35Z</time>
      </trkpt>
      <trkpt lat="45.8279" lon="4.78487">
        <ele>397.137695</ele>
        <time>2016-05-22T09:12:37Z</time>
      </trkpt>
      <trkpt lat="45.82794" lon="4.78479">
        <ele>397.204895</ele>
        <time>2016-05-22T09:12:39Z</time>
      </trkpt>
      <trkpt lat="45.82798" lon="4.78472">
        <ele>397.278168</ele>
        <time>2016-05-22T09:12:41Z</time>
      </trkpt>
      <trkpt lat="45.82802" lon="4.78467">
        <ele>397.595673</ele>
        <time>2016-05-22T09:12:43Z</time>
      </trkpt>
      <trkpt lat="45.82806" lon="4.78462">
        <ele>397.907501</ele>
        <time>2016-05-22T09:12:45Z</time>
      </trkpt>
      <trkpt lat="45.82808" lon="4.78459">
        <ele>398.201935</ele>
        <time>2016-05-22T09:12:47Z</time>
      </trkpt>
      <trkpt lat="45.8281" lon="4.78458">
        <ele>398.559601</ele>
        <time>2016-05-22T09:12:49Z</time>
      </trkpt>
      <trkpt lat="45.82812" lon="4.78459">
        <ele>398.828339</ele>
        <time>2016-05-22T09:12:51Z</time>
      </trkpt>
      <trkpt lat="45.82813" lon="4.78461">
        <ele>399.144836</ele>
        <time>2016-05-22T09:12:53Z</time>
      </trkpt>
      <trkpt lat="45.82815" lon="4.78462">
        <ele>399.474487</ele>
        <time>2016-05-22T09:12:55Z</time>
      </trkpt>
      <trkpt lat="45.82818" lon="4.78463">
        <ele>399.884216</ele>
        <time>2016-05-22T09:12:57Z</time>
      </trkpt>
      <trkpt lat="45.82821" lon="4.78464">
        <ele>400.172546</ele>
        <time>2016-05-22T09:12:59Z</time>
      </trkpt>
      <trkpt lat="45.82823" lon="4.78465">
        <ele>400.53717</ele>
        <time>2016-05-22T09:13:01Z</time>
      </trkpt>
      <trkpt lat="45.82826" lon="4.78465">
        <ele>400.669464</ele>
        <time>2016-05-22T09:13:03Z</time>
      </trkpt>
      <trkpt lat="45.82829" lon="4.78466">
        <ele>401.063263</ele>
        <time>2016-05-22T09:13:05Z</time>
      </trkpt>
      <trkpt lat="45.82832" lon="4.78467">
        <ele>401.507843</ele>
        <time>2016-05-22T09:13:07Z</time>
      </trkpt>
      <trkpt lat="45.82834" lon="4.78468">
        <ele>401.991486</ele>
        <time>2016-05-22T09:13:09Z</time>
      </trkpt>
      <trkpt lat="45.82836" lon="4.78469">
        <ele>402.51535</ele>
        <time>2016-05-22T09:13:11Z</time>
      </trkpt>
      <trkpt lat="45.82838" lon="4.78471">
        <ele>403.048889</ele>
        <time>2016-05-22T09:13:13Z</time>
      </trkpt>
      <trkpt lat="45.8284" lon="4.78472">
        <ele>403.68222</ele>
        <time>2016-05-22T09:13:15Z</time>
      </trkpt>
      <trkpt lat="45.82842" lon="4.78474">
        <ele>404.306885</ele>
        <time>2016-05-22T09:13:17Z</time>
      </trkpt>
      <trkpt lat="45.82844" lon="4.78476">
        <ele>404.902863</ele>
        <time>2016-05-22T09:13:19Z</time>
      </trkpt>
      <trkpt lat="45.82847" lon="4.78478">
        <ele>405.449646</ele>
        <time>2016-05-22T09:13:21Z</time>
      </trkpt>
      <trkpt lat="45.82849" lon="4.7848">
        <ele>406.12149</ele>
        <time>2016-05-22T09:13:23Z</time>
      </trkpt>
      <trkpt lat="45.82851" lon="4.78482">
        <ele>406.648682</ele>
        <time>2016-05-22T09:13:25Z</time>
      </trkpt>
      <trkpt lat="45.82853" lon="4.78483">
        <ele>406.869965</ele>
        <time>2016-05-22T09:13:27Z</time>
      </trkpt>
      <trkpt lat="45.82855" lon="4.78485">
        <ele>407.387878</ele>
        <time>2016-05-22T09:13:29Z</time>
      </trkpt>
      <trkpt lat="45.82857" lon="4.78487">
        <ele>407.915039</ele>
        <time>2016-05-22T09:13:31Z</time>
      </trkpt>
      <trkpt lat="45.82859" lon="4.78489">
        <ele>408.50946</ele>
        <time>2016-05-22T09:13:33Z</time>
      </trkpt>
      <trkpt lat="45.82861" lon="4.78491">
        <ele>409.095245</ele>
        <time>2016-05-22T09:13:35Z</time>
      </trkpt>
      <trkpt lat="45.82863" lon="4.78492">
        <ele>409.622314</ele>
        <time>2016-05-22T09:13:37Z</time>
      </trkpt>
      <trkpt lat="45.82865" lon="4.78494">
        <ele>410.11142</ele>
        <time>2016-05-22T09:13:39Z</time>
      </trkpt>
      <trkpt lat="45.82867" lon="4.78495">
        <ele>410.599609</ele>
        <time>2016-05-22T09:13:41Z</time>
      </trkpt>
      <trkpt lat="45.82868" lon="4.78497">
        <ele>411.129059</ele>
        <time>2016-05-22T09:13:43Z</time>
      </trkpt>
      <trkpt lat="45.82869" lon="4.78499">
        <ele>411.650787</ele>
        <time>2016-05-22T09:13:45Z</time>
      </trkpt>
      <trkpt lat="45.82871" lon="4.78501">
        <ele>411.980652</ele>
        <time>2016-05-22T09:13:47Z</time>
      </trkpt>
      <trkpt lat="45.82873" lon="4.78503">
        <ele>412.093506</ele>
        <time>2016-05-22T09:13:49Z</time>
      </trkpt>
      <trkpt lat="45.82875" lon="4.78506">
        <ele>412.456879</ele>
        <time>2016-05-22T09:13:51Z</time>
      </trkpt>
      <trkpt lat="45.82877" lon="4.78507">
        <ele>412.76947</ele>
        <time>2016-05-22T09:13:53Z</time>
      </trkpt>
      <trkpt lat="45.8288" lon="4.78507">
        <ele>413.084229</ele>
        <time>2016-05-22T09:13:55Z</time>
      </trkpt>
      <trkpt lat="45.82882" lon="4.78507">
        <ele>413.409851</ele>
        <time>2016-05-22T09:13:57Z</time>
      </trkpt>
      <trkpt lat="45.82885" lon="4.78507">
        <ele>413.670349</ele>
        <time>2016-05-22T09:13:59Z</time>
      </trkpt>
      <trkpt lat="45.82888" lon="4.78507">
        <ele>413.970398</ele>
        <time>2016-05-22T09:14:01Z</time>
      </trkpt>
      <trkpt lat="45.8289" lon="4.78506">
        <ele>414.245422</ele>
        <time>2016-05-22T09:14:03Z</time>
      </trkpt>
      <trkpt lat="45.82893" lon="4.78505">
        <ele>414.525482</ele>
        <time>2016-05-22T09:14:05Z</time>
      </trkpt>
      <trkpt lat="45.82895" lon="4.78505">
        <ele>414.846771</ele>
        <time>2016-05-22T09:14:07Z</time>
      </trkpt>
      <trkpt lat="45.82897" lon="4.78504">
        <ele>414.990082</ele>
        <time>2016-05-22T09:14:09Z</time>
      </trkpt>
      <trkpt lat="45.829" lon="4.78504">
        <ele>415.310547</ele>
        <time>2016-05-22T09:14:11Z</time>
      </trkpt>
      <trkpt lat="45.82902" lon="4.78503">
        <ele>415.692688</ele>
        <time>2016-05-22T09:14:13Z</time>
      </trkpt>
      <trkpt lat="45.82905" lon="4.78503">
        <ele>416.074799</ele>
        <time>2016-05-22T09:14:15Z</time>
      </trkpt>
      <trkpt lat="45.82908" lon="4.78502">
        <ele>416.417969</ele>
        <time>2016-05-22T09:14:17Z</time>
      </trkpt>
      <trkpt lat="45.82909" lon="4.78501">
        <ele>416.780579</ele>
        <time>2016-05-22T09:14:19Z</time>
      </trkpt>
      <trkpt lat="45.82912" lon="4.78501">
        <ele>417.166687</ele>
        <time>2016-05-22T09:14:21Z</time>
      </trkpt>
      <trkpt lat="45.82914" lon="4.785">
        <ele>417.537994</ele>
        <time>2016-05-22T09:14:23Z</time>
      </trkpt>
      <trkpt lat="45.82917" lon="4.785">
        <ele>417.891998</ele>
        <time>2016-05-22T09:14:25Z</time>
      </trkpt>
      <trkpt lat="45.82919" lon="4.78499">
        <ele>418.285065</ele>
        <time>2016-05-22T09:14:27Z</time>
      </trkpt>
      <trkpt lat="45.82922" lon="4.78498">
        <ele>418.678131</ele>
        <time>2016-05-22T09:14:29Z</time>
      </trkpt>
      <trkpt lat="45.82927" lon="4.78496">
        <ele>418.87793</ele>
        <time>2016-05-22T09:14:31Z</time>
      </trkpt>
      <trkpt lat="45.82933" lon="4.78492">
        <ele>419.191895</ele>
        <time>2016-05-22T09:14:33Z</time>
      </trkpt>
      <trkpt lat="45.82938" lon="4.78487">
        <ele>419.522064</ele>
        <time>2016-05-22T09:14:35Z</time>
      </trkpt>
      <trkpt lat="45.82946" lon="4.78481">
        <ele>419.758728</ele>
        <time>2016-05-22T09:14:37Z</time>
      </trkpt>
      <trkpt lat="45.82953" lon="4.78475">
        <ele>419.988953</ele>
        <time>2016-05-22T09:14:39Z</time>
      </trkpt>
      <trkpt lat="45.82961" lon="4.78469">
        <ele>420.152344</ele>
        <time>2016-05-22T09:14:41Z</time>
      </trkpt>
      <trkpt lat="45.82969" lon="4.78463">
        <ele>420.410736</ele>
        <time>2016-05-22T09:14:43Z</time>
      </trkpt>
      <trkpt lat="45.82975" lon="4.78458">
        <ele>420.626556</ele>
        <time>2016-05-22T09:14:45Z</time>
      </trkpt>
      <trkpt lat="45.82983" lon="4.78453">
        <ele>420.817688</ele>
        <time>2016-05-22T09:14:47Z</time>
      </trkpt>
      <trkpt lat="45.82991" lon="4.78449">
        <ele>420.960999</ele>
        <time>2016-05-22T09:14:49Z</time>
      </trkpt>
      <trkpt lat="45.82999" lon="4.78444">
        <ele>421.050049</ele>
        <time>2016-05-22T09:14:51Z</time>
      </trkpt>
      <trkpt lat="45.83008" lon="4.78441">
        <ele>421.212494</ele>
        <time>2016-05-22T09:14:53Z</time>
      </trkpt>
      <trkpt lat="45.83016" lon="4.78437">
        <ele>421.182129</ele>
        <time>2016-05-22T09:14:55Z</time>
      </trkpt>
      <trkpt lat="45.83025" lon="4.78433">
        <ele>421.232361</ele>
        <time>2016-05-22T09:14:57Z</time>
      </trkpt>
      <trkpt lat="45.83034" lon="4.78428">
        <ele>421.141113</ele>
        <time>2016-05-22T09:14:59Z</time>
      </trkpt>
      <trkpt lat="45.83043" lon="4.78423">
        <ele>421.123779</ele>
        <time>2016-05-22T09:15:01Z</time>
      </trkpt>
      <trkpt lat="45.83052" lon="4.78418">
        <ele>421.101654</ele>
        <time>2016-05-22T09:15:03Z</time>
      </trkpt>
      <trkpt lat="45.8306" lon="4.78412">
        <ele>421.029968</ele>
        <time>2016-05-22T09:15:05Z</time>
      </trkpt>
      <trkpt lat="45.83067" lon="4.78406">
        <ele>420.838806</ele>
        <time>2016-05-22T09:15:07Z</time>
      </trkpt>
      <trkpt lat="45.83074" lon="4.784">
        <ele>420.738922</ele>
        <time>2016-05-22T09:15:09Z</time>
      </trkpt>
      <trkpt lat="45.8308" lon="4.78395">
        <ele>420.593353</ele>
        <time>2016-05-22T09:15:11Z</time>
      </trkpt>
      <trkpt lat="45.83086" lon="4.78391">
        <ele>420.539063</ele>
        <time>2016-05-22T09:15:13Z</time>
      </trkpt>
      <trkpt lat="45.83091" lon="4.78386">
        <ele>420.432526</ele>
        <time>2016-05-22T09:15:15Z</time>
      </trkpt>
      <trkpt lat="45.83095" lon="4.7838">
        <ele>420.267395</ele>
        <time>2016-05-22T09:15:17Z</time>
      </trkpt>
      <trkpt lat="45.83099" lon="4.78372">
        <ele>420.228333</ele>
        <time>2016-05-22T09:15:19Z</time>
      </trkpt>
      <trkpt lat="45.83102" lon="4.78365">
        <ele>420.182037</ele>
        <time>2016-05-22T09:15:21Z</time>
      </trkpt>
      <trkpt lat="45.83103" lon="4.78359">
        <ele>420.199951</ele>
        <time>2016-05-22T09:15:23Z</time>
      </trkpt>
      <trkpt lat="45.83104" lon="4.78352">
        <ele>420.22641</ele>
        <time>2016-05-22T09:15:25Z</time>
      </trkpt>
      <trkpt lat="45.83104" lon="4.78346">
        <ele>420.252502</ele>
        <time>2016-05-22T09:15:27Z</time>
      </trkpt>
      <trkpt lat="45.83103" lon="4.7834">
        <ele>420.317627</ele>
        <time>2016-05-22T09:15:29Z</time>
      </trkpt>
      <trkpt lat="45.83102" lon="4.78334">
        <ele>420.406677</ele>
        <time>2016-05-22T09:15:31Z</time>
      </trkpt>
      <trkpt lat="45.83102" lon="4.78328">
        <ele>420.43277</ele>
        <time>2016-05-22T09:15:33Z</time>
      </trkpt>
      <trkpt lat="45.83102" lon="4.78322">
        <ele>420.521301</ele>
        <time>2016-05-22T09:15:35Z</time>
      </trkpt>
      <trkpt lat="45.83101" lon="4.78316">
        <ele>420.742859</ele>
        <time>2016-05-22T09:15:37Z</time>
      </trkpt>
      <trkpt lat="45.831" lon="4.7831">
        <ele>420.857758</ele>
        <time>2016-05-22T09:15:39Z</time>
      </trkpt>
      <trkpt lat="45.83099" lon="4.78305">
        <ele>421.156433</ele>
        <time>2016-05-22T09:15:41Z</time>
      </trkpt>
      <trkpt lat="45.83098" lon="4.78301">
        <ele>421.393372</ele>
        <time>2016-05-22T09:15:43Z</time>
      </trkpt>
      <trkpt lat="45.83098" lon="4.78297">
        <ele>421.673492</ele>
        <time>2016-05-22T09:15:45Z</time>
      </trkpt>
      <trkpt lat="45.83098" lon="4.78292">
        <ele>422.08197</ele>
        <time>2016-05-22T09:15:47Z</time>
      </trkpt>
      <trkpt lat="45.83099" lon="4.78289">
        <ele>422.564301</ele>
        <time>2016-05-22T09:15:49Z</time>
      </trkpt>
      <trkpt lat="45.83101" lon="4.78289">
        <ele>422.825012</ele>
        <time>2016-05-22T09:15:51Z</time>
      </trkpt>
      <trkpt lat="45.83103" lon="4.78289">
        <ele>423.226563</ele>
        <time>2016-05-22T09:15:53Z</time>
      </trkpt>
      <trkpt lat="45.83105" lon="4.78289">
        <ele>423.761139</ele>
        <time>2016-05-22T09:15:55Z</time>
      </trkpt>
      <trkpt lat="45.83106" lon="4.78289">
        <ele>424.222076</ele>
        <time>2016-05-22T09:15:57Z</time>
      </trkpt>
      <trkpt lat="45.83109" lon="4.78289">
        <ele>424.756165</ele>
        <time>2016-05-22T09:15:59Z</time>
      </trkpt>
      <trkpt lat="45.8311" lon="4.78289">
        <ele>425.242981</ele>
        <time>2016-05-22T09:16:01Z</time>
      </trkpt>
      <trkpt lat="45.83112" lon="4.78288">
        <ele>425.797913</ele>
        <time>2016-05-22T09:16:03Z</time>
      </trkpt>
      <trkpt lat="45.83114" lon="4.78288">
        <ele>426.381592</ele>
        <time>2016-05-22T09:16:05Z</time>
      </trkpt>
      <trkpt lat="45.83116" lon="4.78287">
        <ele>426.935394</ele>
        <time>2016-05-22T09:16:07Z</time>
      </trkpt>
      <trkpt lat="45.83118" lon="4.78286">
        <ele>427.196228</ele>
        <time>2016-05-22T09:16:09Z</time>
      </trkpt>
      <trkpt lat="45.83119" lon="4.78284">
        <ele>427.711731</ele>
        <time>2016-05-22T09:16:11Z</time>
      </trkpt>
      <trkpt lat="45.83121" lon="4.78284">
        <ele>428.179108</ele>
        <time>2016-05-22T09:16:13Z</time>
      </trkpt>
      <trkpt lat="45.83123" lon="4.78283">
        <ele>428.707367</ele>
        <time>2016-05-22T09:16:15Z</time>
      </trkpt>
      <trkpt lat="45.83125" lon="4.78282">
        <ele>429.244385</ele>
        <time>2016-05-22T09:16:17Z</time>
      </trkpt>
      <trkpt lat="45.83126" lon="4.78281">
        <ele>429.857513</ele>
        <time>2016-05-22T09:16:19Z</time>
      </trkpt>
      <trkpt lat="45.83129" lon="4.7828">
        <ele>430.47934</ele>
        <time>2016-05-22T09:16:21Z</time>
      </trkpt>
      <trkpt lat="45.83131" lon="4.78279">
        <ele>431.030579</ele>
        <time>2016-05-22T09:16:23Z</time>
      </trkpt>
      <trkpt lat="45.83133" lon="4.78278">
        <ele>431.542633</ele>
        <time>2016-05-22T09:16:25Z</time>
      </trkpt>
      <trkpt lat="45.83136" lon="4.78277">
        <ele>432.11676</ele>
        <time>2016-05-22T09:16:27Z</time>
      </trkpt>
      <trkpt lat="45.83138" lon="4.78276">
        <ele>432.578308</ele>
        <time>2016-05-22T09:16:29Z</time>
      </trkpt>
      <trkpt lat="45.83139" lon="4.78275">
        <ele>433.148132</ele>
        <time>2016-05-22T09:16:31Z</time>
      </trkpt>
      <trkpt lat="45.83141" lon="4.78274">
        <ele>433.635742</ele>
        <time>2016-05-22T09:16:33Z</time>
      </trkpt>
      <trkpt lat="45.83143" lon="4.78273">
        <ele>433.822815</ele>
        <time>2016-05-22T09:16:35Z</time>
      </trkpt>
      <trkpt lat="45.83146" lon="4.78272">
        <ele>434.640045</ele>
        <time>2016-05-22T09:16:39Z</time>
      </trkpt>
      <trkpt lat="45.83149" lon="4.78271">
        <ele>435.097565</ele>
        <time>2016-05-22T09:16:41Z</time>
      </trkpt>
      <trkpt lat="45.83151" lon="4.7827">
        <ele>435.482269</ele>
        <time>2016-05-22T09:16:43Z</time>
      </trkpt>
      <trkpt lat="45.83153" lon="4.7827">
        <ele>435.842285</ele>
        <time>2016-05-22T09:16:45Z</time>
      </trkpt>
      <trkpt lat="45.83155" lon="4.78269">
        <ele>436.249115</ele>
        <time>2016-05-22T09:16:47Z</time>
      </trkpt>
      <trkpt lat="45.83158" lon="4.78268">
        <ele>436.585632</ele>
        <time>2016-05-22T09:16:49Z</time>
      </trkpt>
      <trkpt lat="45.83161" lon="4.78268">
        <ele>437.053131</ele>
        <time>2016-05-22T09:16:51Z</time>
      </trkpt>
      <trkpt lat="45.83163" lon="4.78268">
        <ele>437.484436</ele>
        <time>2016-05-22T09:16:53Z</time>
      </trkpt>
      <trkpt lat="45.83167" lon="4.78268">
        <ele>437.882568</ele>
        <time>2016-05-22T09:16:55Z</time>
      </trkpt>
      <trkpt lat="45.83169" lon="4.78268">
        <ele>438.128479</ele>
        <time>2016-05-22T09:16:57Z</time>
      </trkpt>
      <trkpt lat="45.83172" lon="4.78269">
        <ele>438.505432</ele>
        <time>2016-05-22T09:16:59Z</time>
      </trkpt>
      <trkpt lat="45.83175" lon="4.78269">
        <ele>438.868835</ele>
        <time>2016-05-22T09:17:01Z</time>
      </trkpt>
      <trkpt lat="45.83178" lon="4.7827">
        <ele>439.291077</ele>
        <time>2016-05-22T09:17:03Z</time>
      </trkpt>
      <trkpt lat="45.83181" lon="4.78271">
        <ele>439.70816</ele>
        <time>2016-05-22T09:17:05Z</time>
      </trkpt>
      <trkpt lat="45.83183" lon="4.78272">
        <ele>440.187927</ele>
        <time>2016-05-22T09:17:07Z</time>
      </trkpt>
      <trkpt lat="45.83185" lon="4.78272">
        <ele>440.529358</ele>
        <time>2016-05-22T09:17:09Z</time>
      </trkpt>
      <trkpt lat="45.83188" lon="4.78272">
        <ele>440.946716</ele>
        <time>2016-05-22T09:17:11Z</time>
      </trkpt>
      <trkpt lat="45.83191" lon="4.78272">
        <ele>441.329895</ele>
        <time>2016-05-22T09:17:13Z</time>
      </trkpt>
      <trkpt lat="45.83193" lon="4.78272">
        <ele>441.595398</ele>
        <time>2016-05-22T09:17:15Z</time>
      </trkpt>
      <trkpt lat="45.83196" lon="4.78271">
        <ele>441.99762</ele>
        <time>2016-05-22T09:17:17Z</time>
      </trkpt>
      <trkpt lat="45.83199" lon="4.78272">
        <ele>442.453674</ele>
        <time>2016-05-22T09:17:19Z</time>
      </trkpt>
      <trkpt lat="45.83202" lon="4.78272">
        <ele>442.852478</ele>
        <time>2016-05-22T09:17:21Z</time>
      </trkpt>
      <trkpt lat="45.83205" lon="4.78273">
        <ele>443.248474</ele>
        <time>2016-05-22T09:17:23Z</time>
      </trkpt>
      <trkpt lat="45.83209" lon="4.78274">
        <ele>443.705902</ele>
        <time>2016-05-22T09:17:25Z</time>
      </trkpt>
      <trkpt lat="45.83212" lon="4.78275">
        <ele>444.094238</ele>
        <time>2016-05-22T09:17:27Z</time>
      </trkpt>
      <trkpt lat="45.83216" lon="4.78276">
        <ele>444.401184</ele>
        <time>2016-05-22T09:17:29Z</time>
      </trkpt>
      <trkpt lat="45.8322" lon="4.78278">
        <ele>444.713226</ele>
        <time>2016-05-22T09:17:31Z</time>
      </trkpt>
      <trkpt lat="45.83223" lon="4.78279">
        <ele>444.983215</ele>
        <time>2016-05-22T09:17:33Z</time>
      </trkpt>
      <trkpt lat="45.83226" lon="4.7828">
        <ele>445.352844</ele>
        <time>2016-05-22T09:17:35Z</time>
      </trkpt>
      <trkpt lat="45.83229" lon="4.78282">
        <ele>445.618469</ele>
        <time>2016-05-22T09:17:37Z</time>
      </trkpt>
      <trkpt lat="45.83233" lon="4.78284">
        <ele>445.962219</ele>
        <time>2016-05-22T09:17:39Z</time>
      </trkpt>
      <trkpt lat="45.83236" lon="4.78285">
        <ele>446.179993</ele>
        <time>2016-05-22T09:17:41Z</time>
      </trkpt>
      <trkpt lat="45.83239" lon="4.78287">
        <ele>446.301941</ele>
        <time>2016-05-22T09:17:43Z</time>
      </trkpt>
      <trkpt lat="45.83242" lon="4.78288">
        <ele>446.456635</ele>
        <time>2016-05-22T09:17:45Z</time>
      </trkpt>
      <trkpt lat="45.83246" lon="4.78289">
        <ele>446.659973</ele>
        <time>2016-05-22T09:17:47Z</time>
      </trkpt>
      <trkpt lat="45.83249" lon="4.7829">
        <ele>446.849426</ele>
        <time>2016-05-22T09:17:49Z</time>
      </trkpt>
      <trkpt lat="45.83252" lon="4.78291">
        <ele>447.095795</ele>
        <time>2016-05-22T09:17:51Z</time>
      </trkpt>
      <trkpt lat="45.83255" lon="4.78294">
        <ele>447.33847</ele>
        <time>2016-05-22T09:17:53Z</time>
      </trkpt>
      <trkpt lat="45.83257" lon="4.78298">
        <ele>447.56073</ele>
        <time>2016-05-22T09:17:55Z</time>
      </trkpt>
      <trkpt lat="45.83258" lon="4.78302">
        <ele>447.805176</ele>
        <time>2016-05-22T09:17:57Z</time>
      </trkpt>
      <trkpt lat="45.8326" lon="4.78307">
        <ele>448.068756</ele>
        <time>2016-05-22T09:17:59Z</time>
      </trkpt>
      <trkpt lat="45.83261" lon="4.78312">
        <ele>448.345032</ele>
        <time>2016-05-22T09:18:01Z</time>
      </trkpt>
      <trkpt lat="45.83262" lon="4.78316">
        <ele>448.630371</ele>
        <time>2016-05-22T09:18:03Z</time>
      </trkpt>
      <trkpt lat="45.83262" lon="4.78321">
        <ele>448.880951</ele>
        <time>2016-05-22T09:18:05Z</time>
      </trkpt>
      <trkpt lat="45.83262" lon="4.78326">
        <ele>449.042175</ele>
        <time>2016-05-22T09:18:07Z</time>
      </trkpt>
      <trkpt lat="45.83263" lon="4.7833">
        <ele>449.32959</ele>
        <time>2016-05-22T09:18:09Z</time>
      </trkpt>
      <trkpt lat="45.83263" lon="4.78335">
        <ele>449.719543</ele>
        <time>2016-05-22T09:18:11Z</time>
      </trkpt>
      <trkpt lat="45.83262" lon="4.78339">
        <ele>450.083405</ele>
        <time>2016-05-22T09:18:13Z</time>
      </trkpt>
      <trkpt lat="45.83262" lon="4.78344">
        <ele>450.453705</ele>
        <time>2016-05-22T09:18:15Z</time>
      </trkpt>
      <trkpt lat="45.8326" lon="4.78349">
        <ele>450.793549</ele>
        <time>2016-05-22T09:18:17Z</time>
      </trkpt>
      <trkpt lat="45.83259" lon="4.78353">
        <ele>451.217865</ele>
        <time>2016-05-22T09:18:19Z</time>
      </trkpt>
      <trkpt lat="45.83257" lon="4.78358">
        <ele>451.555603</ele>
        <time>2016-05-22T09:18:21Z</time>
      </trkpt>
      <trkpt lat="45.83256" lon="4.78363">
        <ele>452.015381</ele>
        <time>2016-05-22T09:18:23Z</time>
      </trkpt>
      <trkpt lat="45.83254" lon="4.78368">
        <ele>452.199127</ele>
        <time>2016-05-22T09:18:25Z</time>
      </trkpt>
      <trkpt lat="45.83252" lon="4.78374">
        <ele>452.639801</ele>
        <time>2016-05-22T09:18:27Z</time>
      </trkpt>
      <trkpt lat="45.8325" lon="4.78381">
        <ele>453.088684</ele>
        <time>2016-05-22T09:18:29Z</time>
      </trkpt>
      <trkpt lat="45.83248" lon="4.78388">
        <ele>453.526215</ele>
        <time>2016-05-22T09:18:31Z</time>
      </trkpt>
      <trkpt lat="45.83246" lon="4.78395">
        <ele>453.975159</ele>
        <time>2016-05-22T09:18:33Z</time>
      </trkpt>
      <trkpt lat="45.83243" lon="4.78401">
        <ele>454.354187</ele>
        <time>2016-05-22T09:18:35Z</time>
      </trkpt>
      <trkpt lat="45.83241" lon="4.78408">
        <ele>454.68985</ele>
        <time>2016-05-22T09:18:37Z</time>
      </trkpt>
      <trkpt lat="45.83239" lon="4.78415">
        <ele>454.997131</ele>
        <time>2016-05-22T09:18:39Z</time>
      </trkpt>
      <trkpt lat="45.83236" lon="4.78423">
        <ele>455.171478</ele>
        <time>2016-05-22T09:18:41Z</time>
      </trkpt>
      <trkpt lat="45.83233" lon="4.78432">
        <ele>455.530945</ele>
        <time>2016-05-22T09:18:43Z</time>
      </trkpt>
      <trkpt lat="45.83227" lon="4.78441">
        <ele>455.809723</ele>
        <time>2016-05-22T09:18:45Z</time>
      </trkpt>
      <trkpt lat="45.8322" lon="4.78449">
        <ele>456.03418</ele>
        <time>2016-05-22T09:18:47Z</time>
      </trkpt>
      <trkpt lat="45.83213" lon="4.78456">
        <ele>456.20639</ele>
        <time>2016-05-22T09:18:49Z</time>
      </trkpt>
      <trkpt lat="45.83204" lon="4.78461">
        <ele>456.442139</ele>
        <time>2016-05-22T09:18:51Z</time>
      </trkpt>
      <trkpt lat="45.83197" lon="4.78469">
        <ele>456.527161</ele>
        <time>2016-05-22T09:18:53Z</time>
      </trkpt>
      <trkpt lat="45.83189" lon="4.78479">
        <ele>456.723145</ele>
        <time>2016-05-22T09:18:55Z</time>
      </trkpt>
      <trkpt lat="45.83183" lon="4.78489">
        <ele>456.883881</ele>
        <time>2016-05-22T09:18:57Z</time>
      </trkpt>
      <trkpt lat="45.83176" lon="4.785">
        <ele>456.947113</ele>
        <time>2016-05-22T09:18:59Z</time>
      </trkpt>
      <trkpt lat="45.8317" lon="4.7851">
        <ele>456.982605</ele>
        <time>2016-05-22T09:19:01Z</time>
      </trkpt>
      <trkpt lat="45.83162" lon="4.78517">
        <ele>456.997864</ele>
        <time>2016-05-22T09:19:03Z</time>
      </trkpt>
      <trkpt lat="45.83154" lon="4.78523">
        <ele>456.988586</ele>
        <time>2016-05-22T09:19:05Z</time>
      </trkpt>
      <trkpt lat="45.83146" lon="4.78527">
        <ele>456.998718</ele>
        <time>2016-05-22T09:19:07Z</time>
      </trkpt>
      <trkpt lat="45.83141" lon="4.78533">
        <ele>456.977936</ele>
        <time>2016-05-22T09:19:09Z</time>
      </trkpt>
      <trkpt lat="45.83135" lon="4.78538">
        <ele>457.110931</ele>
        <time>2016-05-22T09:19:11Z</time>
      </trkpt>
      <trkpt lat="45.83129" lon="4.78542">
        <ele>457.161469</ele>
        <time>2016-05-22T09:19:13Z</time>
      </trkpt>
      <trkpt lat="45.83123" lon="4.78547">
        <ele>457.257416</ele>
        <time>2016-05-22T09:19:15Z</time>
      </trkpt>
      <trkpt lat="45.83118" lon="4.78552">
        <ele>457.356873</ele>
        <time>2016-05-22T09:19:17Z</time>
      </trkpt>
      <trkpt lat="45.83112" lon="4.78557">
        <ele>457.509521</ele>
        <time>2016-05-22T09:19:19Z</time>
      </trkpt>
      <trkpt lat="45.83107" lon="4.78564">
        <ele>457.561859</ele>
        <time>2016-05-22T09:19:21Z</time>
      </trkpt>
      <trkpt lat="45.83102" lon="4.78569">
        <ele>457.651276</ele>
        <time>2016-05-22T09:19:23Z</time>
      </trkpt>
      <trkpt lat="45.83098" lon="4.78576">
        <ele>457.778717</ele>
        <time>2016-05-22T09:19:25Z</time>
      </trkpt>
      <trkpt lat="45.83093" lon="4.78582">
        <ele>457.975159</ele>
        <time>2016-05-22T09:19:27Z</time>
      </trkpt>
      <trkpt lat="45.83088" lon="4.78588">
        <ele>458.212067</ele>
        <time>2016-05-22T09:19:29Z</time>
      </trkpt>
      <trkpt lat="45.83083" lon="4.78595">
        <ele>458.567474</ele>
        <time>2016-05-22T09:19:31Z</time>
      </trkpt>
      <trkpt lat="45.83079" lon="4.78602">
        <ele>458.874939</ele>
        <time>2016-05-22T09:19:33Z</time>
      </trkpt>
      <trkpt lat="45.83075" lon="4.78609">
        <ele>459.245667</ele>
        <time>2016-05-22T09:19:35Z</time>
      </trkpt>
      <trkpt lat="45.83072" lon="4.78617">
        <ele>459.603424</ele>
        <time>2016-05-22T09:19:37Z</time>
      </trkpt>
      <trkpt lat="45.83068" lon="4.78625">
        <ele>459.952942</ele>
        <time>2016-05-22T09:19:39Z</time>
      </trkpt>
      <trkpt lat="45.83064" lon="4.78634">
        <ele>460.095306</ele>
        <time>2016-05-22T09:19:41Z</time>
      </trkpt>
      <trkpt lat="45.83059" lon="4.78644">
        <ele>460.537415</ele>
        <time>2016-05-22T09:19:43Z</time>
      </trkpt>
      <trkpt lat="45.83053" lon="4.78655">
        <ele>460.813232</ele>
        <time>2016-05-22T09:19:45Z</time>
      </trkpt>
      <trkpt lat="45.83048" lon="4.78666">
        <ele>461.123444</ele>
        <time>2016-05-22T09:19:47Z</time>
      </trkpt>
      <trkpt lat="45.83041" lon="4.78678">
        <ele>461.391602</ele>
        <time>2016-05-22T09:19:49Z</time>
      </trkpt>
      <trkpt lat="45.83036" lon="4.7869">
        <ele>461.754089</ele>
        <time>2016-05-22T09:19:51Z</time>
      </trkpt>
      <trkpt lat="45.8303" lon="4.78702">
        <ele>461.864685</ele>
        <time>2016-05-22T09:19:53Z</time>
      </trkpt>
      <trkpt lat="45.83025" lon="4.78714">
        <ele>462.054443</ele>
        <time>2016-05-22T09:19:55Z</time>
      </trkpt>
      <trkpt lat="45.83019" lon="4.78727">
        <ele>462.154785</ele>
        <time>2016-05-22T09:19:57Z</time>
      </trkpt>
      <trkpt lat="45.83013" lon="4.78739">
        <ele>462.20929</ele>
        <time>2016-05-22T09:19:59Z</time>
      </trkpt>
      <trkpt lat="45.83006" lon="4.78752">
        <ele>462.095886</ele>
        <time>2016-05-22T09:20:01Z</time>
      </trkpt>
      <trkpt lat="45.82998" lon="4.78763">
        <ele>462.137299</ele>
        <time>2016-05-22T09:20:03Z</time>
      </trkpt>
      <trkpt lat="45.82991" lon="4.78775">
        <ele>462.266418</ele>
        <time>2016-05-22T09:20:05Z</time>
      </trkpt>
      <trkpt lat="45.82983" lon="4.78785">
        <ele>462.24292</ele>
        <time>2016-05-22T09:20:07Z</time>
      </trkpt>
      <trkpt lat="45.82975" lon="4.78794">
        <ele>462.190582</ele>
        <time>2016-05-22T09:20:09Z</time>
      </trkpt>
      <trkpt lat="45.82967" lon="4.78802">
        <ele>462.243652</ele>
        <time>2016-05-22T09:20:11Z</time>
      </trkpt>
      <trkpt lat="45.8296" lon="4.78807">
        <ele>462.150726</ele>
        <time>2016-05-22T09:20:13Z</time>
      </trkpt>
      <trkpt lat="45.82954" lon="4.78812">
        <ele>462.082764</ele>
        <time>2016-05-22T09:20:15Z</time>
      </trkpt>
      <trkpt lat="45.82949" lon="4.78817">
        <ele>462.068695</ele>
        <time>2016-05-22T09:20:17Z</time>
      </trkpt>
      <trkpt lat="45.82944" lon="4.78821">
        <ele>461.995056</ele>
        <time>2016-05-22T09:20:19Z</time>
      </trkpt>
      <trkpt lat="45.82939" lon="4.78826">
        <ele>462.014069</ele>
        <time>2016-05-22T09:20:21Z</time>
      </trkpt>
      <trkpt lat="45.82935" lon="4.7883">
        <ele>462.011292</ele>
        <time>2016-05-22T09:20:23Z</time>
      </trkpt>
      <trkpt lat="45.82932" lon="4.78835">
        <ele>462.057922</ele>
        <time>2016-05-22T09:20:25Z</time>
      </trkpt>
      <trkpt lat="45.82932" lon="4.78843">
        <ele>462.257507</ele>
        <time>2016-05-22T09:20:27Z</time>
      </trkpt>
      <trkpt lat="45.82929" lon="4.78848">
        <ele>462.436584</ele>
        <time>2016-05-22T09:20:29Z</time>
      </trkpt>
      <trkpt lat="45.82925" lon="4.78853">
        <ele>462.685303</ele>
        <time>2016-05-22T09:20:31Z</time>
      </trkpt>
      <trkpt lat="45.82924" lon="4.78858">
        <ele>462.855469</ele>
        <time>2016-05-22T09:20:33Z</time>
      </trkpt>
      <trkpt lat="45.82922" lon="4.78863">
        <ele>463.15274</ele>
        <time>2016-05-22T09:20:35Z</time>
      </trkpt>
      <trkpt lat="45.8292" lon="4.78867">
        <ele>463.416687</ele>
        <time>2016-05-22T09:20:37Z</time>
      </trkpt>
      <trkpt lat="45.82918" lon="4.78872">
        <ele>463.623383</ele>
        <time>2016-05-22T09:20:39Z</time>
      </trkpt>
      <trkpt lat="45.82915" lon="4.78876">
        <ele>463.786957</ele>
        <time>2016-05-22T09:20:41Z</time>
      </trkpt>
      <trkpt lat="45.82912" lon="4.7888">
        <ele>464.110016</ele>
        <time>2016-05-22T09:20:43Z</time>
      </trkpt>
      <trkpt lat="45.82908" lon="4.78884">
        <ele>464.537537</ele>
        <time>2016-05-22T09:20:45Z</time>
      </trkpt>
      <trkpt lat="45.82904" lon="4.78887">
        <ele>464.833832</ele>
        <time>2016-05-22T09:20:47Z</time>
      </trkpt>
      <trkpt lat="45.82901" lon="4.78891">
        <ele>465.222107</ele>
        <time>2016-05-22T09:20:49Z</time>
      </trkpt>
      <trkpt lat="45.82898" lon="4.78895">
        <ele>465.619141</ele>
        <time>2016-05-22T09:20:51Z</time>
      </trkpt>
      <trkpt lat="45.82895" lon="4.78899">
        <ele>465.974792</ele>
        <time>2016-05-22T09:20:53Z</time>
      </trkpt>
      <trkpt lat="45.8289" lon="4.78903">
        <ele>466.312103</ele>
        <time>2016-05-22T09:20:55Z</time>
      </trkpt>
      <trkpt lat="45.82887" lon="4.78906">
        <ele>466.779449</ele>
        <time>2016-05-22T09:20:57Z</time>
      </trkpt>
      <trkpt lat="45.82883" lon="4.7891">
        <ele>466.967529</ele>
        <time>2016-05-22T09:20:59Z</time>
      </trkpt>
      <trkpt lat="45.82879" lon="4.78914">
        <ele>467.345306</ele>
        <time>2016-05-22T09:21:01Z</time>
      </trkpt>
      <trkpt lat="45.82876" lon="4.78919">
        <ele>467.782135</ele>
        <time>2016-05-22T09:21:03Z</time>
      </trkpt>
      <trkpt lat="45.82873" lon="4.78924">
        <ele>468.157471</ele>
        <time>2016-05-22T09:21:05Z</time>
      </trkpt>
      <trkpt lat="45.8287" lon="4.78929">
        <ele>468.512848</ele>
        <time>2016-05-22T09:21:07Z</time>
      </trkpt>
      <trkpt lat="45.82866" lon="4.78933">
        <ele>468.818359</ele>
        <time>2016-05-22T09:21:09Z</time>
      </trkpt>
      <trkpt lat="45.82863" lon="4.78937">
        <ele>469.063812</ele>
        <time>2016-05-22T09:21:11Z</time>
      </trkpt>
      <trkpt lat="45.82859" lon="4.78942">
        <ele>469.356293</ele>
        <time>2016-05-22T09:21:13Z</time>
      </trkpt>
      <trkpt lat="45.82856" lon="4.78946">
        <ele>469.52655</ele>
        <time>2016-05-22T09:21:15Z</time>
      </trkpt>
      <trkpt lat="45.82853" lon="4.7895">
        <ele>469.844391</ele>
        <time>2016-05-22T09:21:17Z</time>
      </trkpt>
      <trkpt lat="45.82849" lon="4.78954">
        <ele>470.243835</ele>
        <time>2016-05-22T09:21:19Z</time>
      </trkpt>
      <trkpt lat="45.82846" lon="4.78959">
        <ele>470.474426</ele>
        <time>2016-05-22T09:21:21Z</time>
      </trkpt>
      <trkpt lat="45.82843" lon="4.78965">
        <ele>470.825104</ele>
        <time>2016-05-22T09:21:23Z</time>
      </trkpt>
      <trkpt lat="45.8284" lon="4.78971">
        <ele>471.193512</ele>
        <time>2016-05-22T09:21:25Z</time>
      </trkpt>
      <trkpt lat="45.82836" lon="4.78976">
        <ele>471.470398</ele>
        <time>2016-05-22T09:21:27Z</time>
      </trkpt>
      <trkpt lat="45.82832" lon="4.78982">
        <ele>471.786285</ele>
        <time>2016-05-22T09:21:29Z</time>
      </trkpt>
      <trkpt lat="45.82828" lon="4.78989">
        <ele>472.113708</ele>
        <time>2016-05-22T09:21:31Z</time>
      </trkpt>
      <trkpt lat="45.82824" lon="4.78997">
        <ele>472.124664</ele>
        <time>2016-05-22T09:21:33Z</time>
      </trkpt>
      <trkpt lat="45.8282" lon="4.79007">
        <ele>472.407654</ele>
        <time>2016-05-22T09:21:35Z</time>
      </trkpt>
      <trkpt lat="45.82818" lon="4.79017">
        <ele>472.621582</ele>
        <time>2016-05-22T09:21:37Z</time>
      </trkpt>
      <trkpt lat="45.82822" lon="4.79021">
        <ele>472.756897</ele>
        <time>2016-05-22T09:21:39Z</time>
      </trkpt>
      <trkpt lat="45.82825" lon="4.79021">
        <ele>472.880615</ele>
        <time>2016-05-22T09:21:41Z</time>
      </trkpt>
      <trkpt lat="45.82829" lon="4.7902">
        <ele>473.032379</ele>
        <time>2016-05-22T09:21:43Z</time>
      </trkpt>
      <trkpt lat="45.82832" lon="4.79018">
        <ele>473.15625</ele>
        <time>2016-05-22T09:21:45Z</time>
      </trkpt>
      <trkpt lat="45.82835" lon="4.79017">
        <ele>473.250153</ele>
        <time>2016-05-22T09:21:47Z</time>
      </trkpt>
      <trkpt lat="45.82838" lon="4.79016">
        <ele>473.464172</ele>
        <time>2016-05-22T09:21:49Z</time>
      </trkpt>
      <trkpt lat="45.82841" lon="4.79015">
        <ele>473.620514</ele>
        <time>2016-05-22T09:21:51Z</time>
      </trkpt>
      <trkpt lat="45.82843" lon="4.79014">
        <ele>473.909668</ele>
        <time>2016-05-22T09:21:53Z</time>
      </trkpt>
      <trkpt lat="45.82846" lon="4.79013">
        <ele>474.036316</ele>
        <time>2016-05-22T09:21:55Z</time>
      </trkpt>
      <trkpt lat="45.82848" lon="4.79011">
        <ele>474.25766</ele>
        <time>2016-05-22T09:21:57Z</time>
      </trkpt>
      <trkpt lat="45.82851" lon="4.79009">
        <ele>474.492188</ele>
        <time>2016-05-22T09:21:59Z</time>
      </trkpt>
      <trkpt lat="45.82854" lon="4.79007">
        <ele>474.642914</ele>
        <time>2016-05-22T09:22:01Z</time>
      </trkpt>
      <trkpt lat="45.82856" lon="4.79006">
        <ele>474.897125</ele>
        <time>2016-05-22T09:22:03Z</time>
      </trkpt>
      <trkpt lat="45.82859" lon="4.79005">
        <ele>475.127869</ele>
        <time>2016-05-22T09:22:05Z</time>
      </trkpt>
      <trkpt lat="45.82862" lon="4.79003">
        <ele>475.33783</ele>
        <time>2016-05-22T09:22:07Z</time>
      </trkpt>
      <trkpt lat="45.82864" lon="4.79002">
        <ele>475.543518</ele>
        <time>2016-05-22T09:22:09Z</time>
      </trkpt>
      <trkpt lat="45.82867" lon="4.79">
        <ele>475.873962</ele>
        <time>2016-05-22T09:22:11Z</time>
      </trkpt>
      <trkpt lat="45.82869" lon="4.78999">
        <ele>476.10553</ele>
        <time>2016-05-22T09:22:13Z</time>
      </trkpt>
      <trkpt lat="45.82871" lon="4.78997">
        <ele>476.53653</ele>
        <time>2016-05-22T09:22:15Z</time>
      </trkpt>
      <trkpt lat="45.82873" lon="4.78996">
        <ele>476.728699</ele>
        <time>2016-05-22T09:22:17Z</time>
      </trkpt>
      <trkpt lat="45.82876" lon="4.78994">
        <ele>477.03476</ele>
        <time>2016-05-22T09:22:19Z</time>
      </trkpt>
      <trkpt lat="45.82879" lon="4.78992">
        <ele>477.449768</ele>
        <time>2016-05-22T09:22:21Z</time>
      </trkpt>
      <trkpt lat="45.82881" lon="4.7899">
        <ele>477.836914</ele>
        <time>2016-05-22T09:22:23Z</time>
      </trkpt>
      <trkpt lat="45.82884" lon="4.78988">
        <ele>478.271881</ele>
        <time>2016-05-22T09:22:25Z</time>
      </trkpt>
      <trkpt lat="45.82886" lon="4.78987">
        <ele>478.716248</ele>
        <time>2016-05-22T09:22:27Z</time>
      </trkpt>
      <trkpt lat="45.82888" lon="4.78985">
        <ele>479.096344</ele>
        <time>2016-05-22T09:22:29Z</time>
      </trkpt>
      <trkpt lat="45.82891" lon="4.78983">
        <ele>479.537659</ele>
        <time>2016-05-22T09:22:31Z</time>
      </trkpt>
      <trkpt lat="45.82893" lon="4.78982">
        <ele>479.796295</ele>
        <time>2016-05-22T09:22:33Z</time>
      </trkpt>
      <trkpt lat="45.82896" lon="4.78981">
        <ele>480.134918</ele>
        <time>2016-05-22T09:22:35Z</time>
      </trkpt>
      <trkpt lat="45.82899" lon="4.78979">
        <ele>480.563141</ele>
        <time>2016-05-22T09:22:37Z</time>
      </trkpt>
      <trkpt lat="45.82902" lon="4.78979">
        <ele>480.866119</ele>
        <time>2016-05-22T09:22:39Z</time>
      </trkpt>
      <trkpt lat="45.82904" lon="4.78977">
        <ele>481.165466</ele>
        <time>2016-05-22T09:22:41Z</time>
      </trkpt>
      <trkpt lat="45.82908" lon="4.78977">
        <ele>481.665924</ele>
        <time>2016-05-22T09:22:43Z</time>
      </trkpt>
      <trkpt lat="45.82911" lon="4.78977">
        <ele>482.103333</ele>
        <time>2016-05-22T09:22:45Z</time>
      </trkpt>
      <trkpt lat="45.82914" lon="4.78976">
        <ele>482.516663</ele>
        <time>2016-05-22T09:22:47Z</time>
      </trkpt>
      <trkpt lat="45.82917" lon="4.78975">
        <ele>482.960266</ele>
        <time>2016-05-22T09:22:49Z</time>
      </trkpt>
      <trkpt lat="45.8292" lon="4.78973">
        <ele>483.331726</ele>
        <time>2016-05-22T09:22:51Z</time>
      </trkpt>
      <trkpt lat="45.82923" lon="4.78974">
        <ele>483.622406</ele>
        <time>2016-05-22T09:22:53Z</time>
      </trkpt>
      <trkpt lat="45.82926" lon="4.78973">
        <ele>483.86499</ele>
        <time>2016-05-22T09:22:55Z</time>
      </trkpt>
      <trkpt lat="45.82928" lon="4.78973">
        <ele>484.185242</ele>
        <time>2016-05-22T09:22:57Z</time>
      </trkpt>
      <trkpt lat="45.8293" lon="4.78971">
        <ele>484.563721</ele>
        <time>2016-05-22T09:22:59Z</time>
      </trkpt>
      <trkpt lat="45.82932" lon="4.7897">
        <ele>484.986389</ele>
        <time>2016-05-22T09:23:01Z</time>
      </trkpt>
      <trkpt lat="45.82933" lon="4.78968">
        <ele>485.382263</ele>
        <time>2016-05-22T09:23:03Z</time>
      </trkpt>
      <trkpt lat="45.82936" lon="4.78967">
        <ele>485.831146</ele>
        <time>2016-05-22T09:23:05Z</time>
      </trkpt>
      <trkpt lat="45.82939" lon="4.78966">
        <ele>486.235596</ele>
        <time>2016-05-22T09:23:07Z</time>
      </trkpt>
      <trkpt lat="45.82941" lon="4.78964">
        <ele>486.531189</ele>
        <time>2016-05-22T09:23:09Z</time>
      </trkpt>
      <trkpt lat="45.82945" lon="4.78962">
        <ele>487.012146</ele>
        <time>2016-05-22T09:23:11Z</time>
      </trkpt>
      <trkpt lat="45.82947" lon="4.7896">
        <ele>487.342285</ele>
        <time>2016-05-22T09:23:13Z</time>
      </trkpt>
      <trkpt lat="45.82949" lon="4.78959">
        <ele>487.709656</ele>
        <time>2016-05-22T09:23:15Z</time>
      </trkpt>
      <trkpt lat="45.82951" lon="4.78957">
        <ele>488.072601</ele>
        <time>2016-05-22T09:23:17Z</time>
      </trkpt>
      <trkpt lat="45.82953" lon="4.78956">
        <ele>488.512146</ele>
        <time>2016-05-22T09:23:19Z</time>
      </trkpt>
      <trkpt lat="45.82956" lon="4.78955">
        <ele>488.6521</ele>
        <time>2016-05-22T09:23:21Z</time>
      </trkpt>
      <trkpt lat="45.82959" lon="4.78954">
        <ele>489.016357</ele>
        <time>2016-05-22T09:23:23Z</time>
      </trkpt>
      <trkpt lat="45.82962" lon="4.78953">
        <ele>489.361969</ele>
        <time>2016-05-22T09:23:25Z</time>
      </trkpt>
      <trkpt lat="45.82964" lon="4.78952">
        <ele>489.777496</ele>
        <time>2016-05-22T09:23:27Z</time>
      </trkpt>
      <trkpt lat="45.82966" lon="4.78951">
        <ele>490.096039</ele>
        <time>2016-05-22T09:23:29Z</time>
      </trkpt>
      <trkpt lat="45.82969" lon="4.7895">
        <ele>490.459076</ele>
        <time>2016-05-22T09:23:31Z</time>
      </trkpt>
      <trkpt lat="45.82971" lon="4.78948">
        <ele>490.882324</ele>
        <time>2016-05-22T09:23:33Z</time>
      </trkpt>
      <trkpt lat="45.82974" lon="4.78947">
        <ele>491.236633</ele>
        <time>2016-05-22T09:23:35Z</time>
      </trkpt>
      <trkpt lat="45.82976" lon="4.78946">
        <ele>491.589783</ele>
        <time>2016-05-22T09:23:37Z</time>
      </trkpt>
      <trkpt lat="45.82978" lon="4.78945">
        <ele>491.903381</ele>
        <time>2016-05-22T09:23:39Z</time>
      </trkpt>
      <trkpt lat="45.8298" lon="4.78944">
        <ele>492.309906</ele>
        <time>2016-05-22T09:23:41Z</time>
      </trkpt>
      <trkpt lat="45.82982" lon="4.78943">
        <ele>492.527588</ele>
        <time>2016-05-22T09:23:43Z</time>
      </trkpt>
      <trkpt lat="45.82986" lon="4.78941">
        <ele>493.84552</ele>
        <time>2016-05-22T09:23:51Z</time>
      </trkpt>
      <trkpt lat="45.82987" lon="4.7894">
        <ele>494.11026</ele>
        <time>2016-05-22T09:23:53Z</time>
      </trkpt>
      <trkpt lat="45.8299" lon="4.78939">
        <ele>494.716003</ele>
        <time>2016-05-22T09:23:57Z</time>
      </trkpt>
      <trkpt lat="45.82991" lon="4.78939">
        <ele>494.984467</ele>
        <time>2016-05-22T09:23:59Z</time>
      </trkpt>
      <trkpt lat="45.82995" lon="4.78939">
        <ele>495.23175</ele>
        <time>2016-05-22T09:24:01Z</time>
      </trkpt>
      <trkpt lat="45.82997" lon="4.7894">
        <ele>495.458008</ele>
        <time>2016-05-22T09:24:03Z</time>
      </trkpt>
      <trkpt lat="45.82999" lon="4.78941">
        <ele>495.895599</ele>
        <time>2016-05-22T09:24:05Z</time>
      </trkpt>
      <trkpt lat="45.83" lon="4.78944">
        <ele>495.92627</ele>
        <time>2016-05-22T09:24:07Z</time>
      </trkpt>
      <trkpt lat="45.83002" lon="4.78946">
        <ele>496.150879</ele>
        <time>2016-05-22T09:24:09Z</time>
      </trkpt>
      <trkpt lat="45.83003" lon="4.78949">
        <ele>496.382904</ele>
        <time>2016-05-22T09:24:11Z</time>
      </trkpt>
      <trkpt lat="45.83004" lon="4.78952">
        <ele>496.70459</ele>
        <time>2016-05-22T09:24:13Z</time>
      </trkpt>
      <trkpt lat="45.83004" lon="4.78955">
        <ele>497.022949</ele>
        <time>2016-05-22T09:24:15Z</time>
      </trkpt>
      <trkpt lat="45.83005" lon="4.78958">
        <ele>497.346863</ele>
        <time>2016-05-22T09:24:17Z</time>
      </trkpt>
      <trkpt lat="45.83006" lon="4.78961">
        <ele>497.570007</ele>
        <time>2016-05-22T09:24:19Z</time>
      </trkpt>
      <trkpt lat="45.83007" lon="4.78964">
        <ele>497.82959</ele>
        <time>2016-05-22T09:24:21Z</time>
      </trkpt>
      <trkpt lat="45.83008" lon="4.78967">
        <ele>498.016113</ele>
        <time>2016-05-22T09:24:23Z</time>
      </trkpt>
      <trkpt lat="45.83009" lon="4.7897">
        <ele>498.241028</ele>
        <time>2016-05-22T09:24:25Z</time>
      </trkpt>
      <trkpt lat="45.83011" lon="4.78973">
        <ele>498.374512</ele>
        <time>2016-05-22T09:24:27Z</time>
      </trkpt>
      <trkpt lat="45.83012" lon="4.78976">
        <ele>498.656921</ele>
        <time>2016-05-22T09:24:29Z</time>
      </trkpt>
      <trkpt lat="45.83014" lon="4.78979">
        <ele>498.860443</ele>
        <time>2016-05-22T09:24:31Z</time>
      </trkpt>
      <trkpt lat="45.83015" lon="4.78982">
        <ele>499.055847</ele>
        <time>2016-05-22T09:24:33Z</time>
      </trkpt>
      <trkpt lat="45.83017" lon="4.78986">
        <ele>499.307617</ele>
        <time>2016-05-22T09:24:35Z</time>
      </trkpt>
      <trkpt lat="45.83019" lon="4.78989">
        <ele>499.535583</ele>
        <time>2016-05-22T09:24:37Z</time>
      </trkpt>
      <trkpt lat="45.8302" lon="4.78992">
        <ele>499.767639</ele>
        <time>2016-05-22T09:24:39Z</time>
      </trkpt>
      <trkpt lat="45.83022" lon="4.78994">
        <ele>500.0755</ele>
        <time>2016-05-22T09:24:41Z</time>
      </trkpt>
      <trkpt lat="45.83024" lon="4.78996">
        <ele>500.32666</ele>
        <time>2016-05-22T09:24:43Z</time>
      </trkpt>
      <trkpt lat="45.83027" lon="4.78997">
        <ele>500.633118</ele>
        <time>2016-05-22T09:24:45Z</time>
      </trkpt>
      <trkpt lat="45.83028" lon="4.78997">
        <ele>500.838959</ele>
        <time>2016-05-22T09:24:47Z</time>
      </trkpt>
      <trkpt lat="45.8303" lon="4.78997">
        <ele>501.168152</ele>
        <time>2016-05-22T09:24:49Z</time>
      </trkpt>
      <trkpt lat="45.83032" lon="4.78997">
        <ele>501.447906</ele>
        <time>2016-05-22T09:24:51Z</time>
      </trkpt>
      <trkpt lat="45.83033" lon="4.78996">
        <ele>501.739105</ele>
        <time>2016-05-22T09:24:53Z</time>
      </trkpt>
      <trkpt lat="45.83035" lon="4.78996">
        <ele>501.966858</ele>
        <time>2016-05-22T09:24:55Z</time>
      </trkpt>
      <trkpt lat="45.83036" lon="4.78995">
        <ele>502.133209</ele>
        <time>2016-05-22T09:24:57Z</time>
      </trkpt>
      <trkpt lat="45.83038" lon="4.78994">
        <ele>502.452789</ele>
        <time>2016-05-22T09:24:59Z</time>
      </trkpt>
      <trkpt lat="45.83039" lon="4.78994">
        <ele>502.809753</ele>
        <time>2016-05-22T09:25:01Z</time>
      </trkpt>
      <trkpt lat="45.83044" lon="4.78992">
        <ele>505.319092</ele>
        <time>2016-05-22T09:25:20Z</time>
      </trkpt>
      <trkpt lat="45.83045" lon="4.78991">
        <ele>505.611816</ele>
        <time>2016-05-22T09:25:22Z</time>
      </trkpt>
      <trkpt lat="45.83047" lon="4.78991">
        <ele>505.765137</ele>
        <time>2016-05-22T09:25:24Z</time>
      </trkpt>
      <trkpt lat="45.83048" lon="4.7899">
        <ele>505.957764</ele>
        <time>2016-05-22T09:25:26Z</time>
      </trkpt>
      <trkpt lat="45.8305" lon="4.78989">
        <ele>506.198669</ele>
        <time>2016-05-22T09:25:28Z</time>
      </trkpt>
      <trkpt lat="45.83052" lon="4.78988">
        <ele>506.422028</ele>
        <time>2016-05-22T09:25:30Z</time>
      </trkpt>
      <trkpt lat="45.83054" lon="4.78987">
        <ele>507.0289</ele>
        <time>2016-05-22T09:25:34Z</time>
      </trkpt>
      <trkpt lat="45.83056" lon="4.78986">
        <ele>507.295013</ele>
        <time>2016-05-22T09:25:36Z</time>
      </trkpt>
      <trkpt lat="45.83058" lon="4.78985">
        <ele>507.509705</ele>
        <time>2016-05-22T09:25:38Z</time>
      </trkpt>
      <trkpt lat="45.8306" lon="4.78985">
        <ele>507.687317</ele>
        <time>2016-05-22T09:25:40Z</time>
      </trkpt>
      <trkpt lat="45.83062" lon="4.78983">
        <ele>507.92926</ele>
        <time>2016-05-22T09:25:42Z</time>
      </trkpt>
      <trkpt lat="45.83064" lon="4.78983">
        <ele>508.1922</ele>
        <time>2016-05-22T09:25:44Z</time>
      </trkpt>
      <trkpt lat="45.83066" lon="4.78981">
        <ele>508.283112</ele>
        <time>2016-05-22T09:25:46Z</time>
      </trkpt>
      <trkpt lat="45.83068" lon="4.7898">
        <ele>508.547455</ele>
        <time>2016-05-22T09:25:48Z</time>
      </trkpt>
      <trkpt lat="45.8307" lon="4.78978">
        <ele>508.707367</ele>
        <time>2016-05-22T09:25:50Z</time>
      </trkpt>
      <trkpt lat="45.83072" lon="4.78977">
        <ele>508.998352</ele>
        <time>2016-05-22T09:25:52Z</time>
      </trkpt>
      <trkpt lat="45.83075" lon="4.78976">
        <ele>509.272278</ele>
        <time>2016-05-22T09:25:54Z</time>
      </trkpt>
      <trkpt lat="45.83077" lon="4.78975">
        <ele>509.774109</ele>
        <time>2016-05-22T09:25:56Z</time>
      </trkpt>
      <trkpt lat="45.83079" lon="4.78973">
        <ele>510.190491</ele>
        <time>2016-05-22T09:25:58Z</time>
      </trkpt>
      <trkpt lat="45.83082" lon="4.78971">
        <ele>510.697205</ele>
        <time>2016-05-22T09:26:00Z</time>
      </trkpt>
      <trkpt lat="45.83084" lon="4.78969">
        <ele>511.011566</ele>
        <time>2016-05-22T09:26:02Z</time>
      </trkpt>
      <trkpt lat="45.83086" lon="4.78967">
        <ele>511.267914</ele>
        <time>2016-05-22T09:26:04Z</time>
      </trkpt>
      <trkpt lat="45.83088" lon="4.78966">
        <ele>511.652191</ele>
        <time>2016-05-22T09:26:06Z</time>
      </trkpt>
      <trkpt lat="45.8309" lon="4.78964">
        <ele>512.051025</ele>
        <time>2016-05-22T09:26:08Z</time>
      </trkpt>
      <trkpt lat="45.83091" lon="4.78963">
        <ele>512.509155</ele>
        <time>2016-05-22T09:26:10Z</time>
      </trkpt>
      <trkpt lat="45.83094" lon="4.78962">
        <ele>512.579224</ele>
        <time>2016-05-22T09:26:12Z</time>
      </trkpt>
      <trkpt lat="45.83097" lon="4.7896">
        <ele>512.774841</ele>
        <time>2016-05-22T09:26:14Z</time>
      </trkpt>
      <trkpt lat="45.83099" lon="4.78958">
        <ele>513.182556</ele>
        <time>2016-05-22T09:26:16Z</time>
      </trkpt>
      <trkpt lat="45.83101" lon="4.78957">
        <ele>513.555725</ele>
        <time>2016-05-22T09:26:18Z</time>
      </trkpt>
      <trkpt lat="45.83103" lon="4.78955">
        <ele>513.932678</ele>
        <time>2016-05-22T09:26:20Z</time>
      </trkpt>
      <trkpt lat="45.83106" lon="4.78953">
        <ele>514.46106</ele>
        <time>2016-05-22T09:26:22Z</time>
      </trkpt>
      <trkpt lat="45.83108" lon="4.78951">
        <ele>514.843689</ele>
        <time>2016-05-22T09:26:24Z</time>
      </trkpt>
      <trkpt lat="45.8311" lon="4.7895">
        <ele>515.202881</ele>
        <time>2016-05-22T09:26:26Z</time>
      </trkpt>
      <trkpt lat="45.83112" lon="4.78948">
        <ele>515.860474</ele>
        <time>2016-05-22T09:26:28Z</time>
      </trkpt>
      <trkpt lat="45.83114" lon="4.78947">
        <ele>516.248596</ele>
        <time>2016-05-22T09:26:30Z</time>
      </trkpt>
      <trkpt lat="45.83117" lon="4.78945">
        <ele>516.619507</ele>
        <time>2016-05-22T09:26:32Z</time>
      </trkpt>
      <trkpt lat="45.83119" lon="4.78944">
        <ele>516.880432</ele>
        <time>2016-05-22T09:26:34Z</time>
      </trkpt>
      <trkpt lat="45.83121" lon="4.78942">
        <ele>517.308838</ele>
        <time>2016-05-22T09:26:36Z</time>
      </trkpt>
      <trkpt lat="45.83123" lon="4.7894">
        <ele>517.55658</ele>
        <time>2016-05-22T09:26:38Z</time>
      </trkpt>
      <trkpt lat="45.83125" lon="4.78939">
        <ele>517.865784</ele>
        <time>2016-05-22T09:26:40Z</time>
      </trkpt>
      <trkpt lat="45.83127" lon="4.78937">
        <ele>518.1521</ele>
        <time>2016-05-22T09:26:42Z</time>
      </trkpt>
      <trkpt lat="45.83129" lon="4.78936">
        <ele>518.563354</ele>
        <time>2016-05-22T09:26:44Z</time>
      </trkpt>
      <trkpt lat="45.83131" lon="4.78934">
        <ele>518.690552</ele>
        <time>2016-05-22T09:26:46Z</time>
      </trkpt>
      <trkpt lat="45.83133" lon="4.78932">
        <ele>519.111694</ele>
        <time>2016-05-22T09:26:48Z</time>
      </trkpt>
      <trkpt lat="45.83135" lon="4.7893">
        <ele>519.341248</ele>
        <time>2016-05-22T09:26:50Z</time>
      </trkpt>
      <trkpt lat="45.83137" lon="4.78928">
        <ele>519.547424</ele>
        <time>2016-05-22T09:26:52Z</time>
      </trkpt>
      <trkpt lat="45.83139" lon="4.78926">
        <ele>519.696472</ele>
        <time>2016-05-22T09:26:54Z</time>
      </trkpt>
      <trkpt lat="45.8314" lon="4.78924">
        <ele>520.096497</ele>
        <time>2016-05-22T09:26:56Z</time>
      </trkpt>
      <trkpt lat="45.83142" lon="4.78922">
        <ele>520.256653</ele>
        <time>2016-05-22T09:26:58Z</time>
      </trkpt>
      <trkpt lat="45.83144" lon="4.7892">
        <ele>520.445862</ele>
        <time>2016-05-22T09:27:00Z</time>
      </trkpt>
      <trkpt lat="45.83146" lon="4.78918">
        <ele>520.736328</ele>
        <time>2016-05-22T09:27:02Z</time>
      </trkpt>
      <trkpt lat="45.83147" lon="4.78915">
        <ele>520.916321</ele>
        <time>2016-05-22T09:27:04Z</time>
      </trkpt>
      <trkpt lat="45.83149" lon="4.78913">
        <ele>521.157593</ele>
        <time>2016-05-22T09:27:06Z</time>
      </trkpt>
      <trkpt lat="45.83151" lon="4.78911">
        <ele>521.526001</ele>
        <time>2016-05-22T09:27:08Z</time>
      </trkpt>
      <trkpt lat="45.83152" lon="4.78909">
        <ele>521.714661</ele>
        <time>2016-05-22T09:27:10Z</time>
      </trkpt>
      <trkpt lat="45.83155" lon="4.78906">
        <ele>522.072205</ele>
        <time>2016-05-22T09:27:12Z</time>
      </trkpt>
      <trkpt lat="45.83157" lon="4.78905">
        <ele>522.423279</ele>
        <time>2016-05-22T09:27:14Z</time>
      </trkpt>
      <trkpt lat="45.83159" lon="4.78903">
        <ele>522.68573</ele>
        <time>2016-05-22T09:27:16Z</time>
      </trkpt>
      <trkpt lat="45.83161" lon="4.78902">
        <ele>522.878784</ele>
        <time>2016-05-22T09:27:18Z</time>
      </trkpt>
      <trkpt lat="45.83163" lon="4.78901">
        <ele>523.09906</ele>
        <time>2016-05-22T09:27:20Z</time>
      </trkpt>
      <trkpt lat="45.83165" lon="4.789">
        <ele>523.393066</ele>
        <time>2016-05-22T09:27:22Z</time>
      </trkpt>
      <trkpt lat="45.83168" lon="4.78898">
        <ele>523.616821</ele>
        <time>2016-05-22T09:27:24Z</time>
      </trkpt>
      <trkpt lat="45.8317" lon="4.78897">
        <ele>523.883118</ele>
        <time>2016-05-22T09:27:26Z</time>
      </trkpt>
      <trkpt lat="45.83172" lon="4.78896">
        <ele>524.400818</ele>
        <time>2016-05-22T09:27:28Z</time>
      </trkpt>
      <trkpt lat="45.83174" lon="4.78894">
        <ele>524.520386</ele>
        <time>2016-05-22T09:27:30Z</time>
      </trkpt>
      <trkpt lat="45.83177" lon="4.78893">
        <ele>524.937927</ele>
        <time>2016-05-22T09:27:32Z</time>
      </trkpt>
      <trkpt lat="45.83179" lon="4.78893">
        <ele>525.354858</ele>
        <time>2016-05-22T09:27:34Z</time>
      </trkpt>
      <trkpt lat="45.83181" lon="4.78892">
        <ele>525.794556</ele>
        <time>2016-05-22T09:27:36Z</time>
      </trkpt>
      <trkpt lat="45.83183" lon="4.78891">
        <ele>525.945984</ele>
        <time>2016-05-22T09:27:38Z</time>
      </trkpt>
      <trkpt lat="45.83186" lon="4.7889">
        <ele>526.184692</ele>
        <time>2016-05-22T09:27:40Z</time>
      </trkpt>
      <trkpt lat="45.83188" lon="4.78888">
        <ele>526.613037</ele>
        <time>2016-05-22T09:27:42Z</time>
      </trkpt>
      <trkpt lat="45.83189" lon="4.78887">
        <ele>527.024597</ele>
        <time>2016-05-22T09:27:44Z</time>
      </trkpt>
      <trkpt lat="45.83192" lon="4.78886">
        <ele>527.384521</ele>
        <time>2016-05-22T09:27:46Z</time>
      </trkpt>
      <trkpt lat="45.83194" lon="4.78885">
        <ele>527.788696</ele>
        <time>2016-05-22T09:27:48Z</time>
      </trkpt>
      <trkpt lat="45.83196" lon="4.78883">
        <ele>528.153564</ele>
        <time>2016-05-22T09:27:50Z</time>
      </trkpt>
      <trkpt lat="45.83198" lon="4.78883">
        <ele>528.491577</ele>
        <time>2016-05-22T09:27:52Z</time>
      </trkpt>
      <trkpt lat="45.83199" lon="4.78881">
        <ele>528.794556</ele>
        <time>2016-05-22T09:27:54Z</time>
      </trkpt>
      <trkpt lat="45.83202" lon="4.7888">
        <ele>529.079895</ele>
        <time>2016-05-22T09:27:56Z</time>
      </trkpt>
      <trkpt lat="45.83204" lon="4.78879">
        <ele>529.420166</ele>
        <time>2016-05-22T09:27:58Z</time>
      </trkpt>
      <trkpt lat="45.83206" lon="4.78878">
        <ele>529.726624</ele>
        <time>2016-05-22T09:28:00Z</time>
      </trkpt>
      <trkpt lat="45.83208" lon="4.78876">
        <ele>529.99231</ele>
        <time>2016-05-22T09:28:02Z</time>
      </trkpt>
      <trkpt lat="45.8321" lon="4.78874">
        <ele>530.303894</ele>
        <time>2016-05-22T09:28:04Z</time>
      </trkpt>
      <trkpt lat="45.83213" lon="4.78873">
        <ele>530.815552</ele>
        <time>2016-05-22T09:28:06Z</time>
      </trkpt>
      <trkpt lat="45.83215" lon="4.78872">
        <ele>531.111267</ele>
        <time>2016-05-22T09:28:08Z</time>
      </trkpt>
      <trkpt lat="45.83217" lon="4.7887">
        <ele>531.495178</ele>
        <time>2016-05-22T09:28:10Z</time>
      </trkpt>
      <trkpt lat="45.83218" lon="4.78868">
        <ele>531.865295</ele>
        <time>2016-05-22T09:28:12Z</time>
      </trkpt>
      <trkpt lat="45.8322" lon="4.78867">
        <ele>532.253967</ele>
        <time>2016-05-22T09:28:14Z</time>
      </trkpt>
      <trkpt lat="45.83222" lon="4.78866">
        <ele>532.57135</ele>
        <time>2016-05-22T09:28:16Z</time>
      </trkpt>
      <trkpt lat="45.83224" lon="4.78864">
        <ele>532.946899</ele>
        <time>2016-05-22T09:28:18Z</time>
      </trkpt>
      <trkpt lat="45.83226" lon="4.78862">
        <ele>533.252563</ele>
        <time>2016-05-22T09:28:20Z</time>
      </trkpt>
      <trkpt lat="45.83228" lon="4.7886">
        <ele>533.700256</ele>
        <time>2016-05-22T09:28:22Z</time>
      </trkpt>
      <trkpt lat="45.83231" lon="4.78859">
        <ele>533.820923</ele>
        <time>2016-05-22T09:28:24Z</time>
      </trkpt>
      <trkpt lat="45.83233" lon="4.78857">
        <ele>534.06665</ele>
        <time>2016-05-22T09:28:26Z</time>
      </trkpt>
      <trkpt lat="45.83236" lon="4.78856">
        <ele>534.338928</ele>
        <time>2016-05-22T09:28:28Z</time>
      </trkpt>
      <trkpt lat="45.83238" lon="4.78854">
        <ele>534.687866</ele>
        <time>2016-05-22T09:28:30Z</time>
      </trkpt>
      <trkpt lat="45.8324" lon="4.78852">
        <ele>534.836548</ele>
        <time>2016-05-22T09:28:32Z</time>
      </trkpt>
      <trkpt lat="45.83242" lon="4.78851">
        <ele>535.17688</ele>
        <time>2016-05-22T09:28:34Z</time>
      </trkpt>
      <trkpt lat="45.83244" lon="4.78849">
        <ele>535.464722</ele>
        <time>2016-05-22T09:28:36Z</time>
      </trkpt>
      <trkpt lat="45.83247" lon="4.78848">
        <ele>535.794189</ele>
        <time>2016-05-22T09:28:38Z</time>
      </trkpt>
      <trkpt lat="45.83249" lon="4.78846">
        <ele>536.183044</ele>
        <time>2016-05-22T09:28:40Z</time>
      </trkpt>
      <trkpt lat="45.83251" lon="4.78845">
        <ele>536.50824</ele>
        <time>2016-05-22T09:28:42Z</time>
      </trkpt>
      <trkpt lat="45.83254" lon="4.78844">
        <ele>536.591736</ele>
        <time>2016-05-22T09:28:44Z</time>
      </trkpt>
      <trkpt lat="45.83256" lon="4.78843">
        <ele>536.84845</ele>
        <time>2016-05-22T09:28:46Z</time>
      </trkpt>
      <trkpt lat="45.83258" lon="4.78842">
        <ele>536.905579</ele>
        <time>2016-05-22T09:28:48Z</time>
      </trkpt>
      <trkpt lat="45.8326" lon="4.78841">
        <ele>537.175781</ele>
        <time>2016-05-22T09:28:50Z</time>
      </trkpt>
      <trkpt lat="45.83263" lon="4.78841">
        <ele>537.435364</ele>
        <time>2016-05-22T09:28:52Z</time>
      </trkpt>
      <trkpt lat="45.83265" lon="4.78841">
        <ele>537.731995</ele>
        <time>2016-05-22T09:28:54Z</time>
      </trkpt>
      <trkpt lat="45.83267" lon="4.7884">
        <ele>538.050598</ele>
        <time>2016-05-22T09:28:56Z</time>
      </trkpt>
      <trkpt lat="45.8327" lon="4.7884">
        <ele>538.416626</ele>
        <time>2016-05-22T09:28:58Z</time>
      </trkpt>
      <trkpt lat="45.83272" lon="4.78839">
        <ele>538.700134</ele>
        <time>2016-05-22T09:29:00Z</time>
      </trkpt>
      <trkpt lat="45.83275" lon="4.78839">
        <ele>539.029724</ele>
        <time>2016-05-22T09:29:02Z</time>
      </trkpt>
      <trkpt lat="45.83277" lon="4.78838">
        <ele>539.374756</ele>
        <time>2016-05-22T09:29:04Z</time>
      </trkpt>
      <trkpt lat="45.83279" lon="4.78837">
        <ele>539.559326</ele>
        <time>2016-05-22T09:29:06Z</time>
      </trkpt>
      <trkpt lat="45.8328" lon="4.78836">
        <ele>539.960571</ele>
        <time>2016-05-22T09:29:08Z</time>
      </trkpt>
      <trkpt lat="45.83282" lon="4.78835">
        <ele>540.125366</ele>
        <time>2016-05-22T09:29:10Z</time>
      </trkpt>
      <trkpt lat="45.83284" lon="4.78833">
        <ele>540.505615</ele>
        <time>2016-05-22T09:29:12Z</time>
      </trkpt>
      <trkpt lat="45.83286" lon="4.78832">
        <ele>541.071106</ele>
        <time>2016-05-22T09:29:14Z</time>
      </trkpt>
      <trkpt lat="45.83287" lon="4.78831">
        <ele>541.370239</ele>
        <time>2016-05-22T09:29:16Z</time>
      </trkpt>
      <trkpt lat="45.83289" lon="4.78829">
        <ele>541.783447</ele>
        <time>2016-05-22T09:29:18Z</time>
      </trkpt>
      <trkpt lat="45.83292" lon="4.78827">
        <ele>542.163696</ele>
        <time>2016-05-22T09:29:20Z</time>
      </trkpt>
      <trkpt lat="45.83293" lon="4.78826">
        <ele>542.418701</ele>
        <time>2016-05-22T09:29:22Z</time>
      </trkpt>
      <trkpt lat="45.83295" lon="4.78824">
        <ele>542.726379</ele>
        <time>2016-05-22T09:29:24Z</time>
      </trkpt>
      <trkpt lat="45.83297" lon="4.78823">
        <ele>543.170898</ele>
        <time>2016-05-22T09:29:26Z</time>
      </trkpt>
      <trkpt lat="45.83299" lon="4.78822">
        <ele>543.495667</ele>
        <time>2016-05-22T09:29:28Z</time>
      </trkpt>
      <trkpt lat="45.833" lon="4.7882">
        <ele>543.983582</ele>
        <time>2016-05-22T09:29:30Z</time>
      </trkpt>
      <trkpt lat="45.83302" lon="4.78818">
        <ele>544.212219</ele>
        <time>2016-05-22T09:29:32Z</time>
      </trkpt>
      <trkpt lat="45.83304" lon="4.78816">
        <ele>544.60437</ele>
        <time>2016-05-22T09:29:34Z</time>
      </trkpt>
      <trkpt lat="45.83306" lon="4.78814">
        <ele>545.105652</ele>
        <time>2016-05-22T09:29:36Z</time>
      </trkpt>
      <trkpt lat="45.83308" lon="4.78812">
        <ele>545.363647</ele>
        <time>2016-05-22T09:29:38Z</time>
      </trkpt>
      <trkpt lat="45.8331" lon="4.78811">
        <ele>545.722046</ele>
        <time>2016-05-22T09:29:40Z</time>
      </trkpt>
      <trkpt lat="45.83312" lon="4.78809">
        <ele>545.966125</ele>
        <time>2016-05-22T09:29:42Z</time>
      </trkpt>
      <trkpt lat="45.83315" lon="4.78808">
        <ele>546.522583</ele>
        <time>2016-05-22T09:29:44Z</time>
      </trkpt>
      <trkpt lat="45.83317" lon="4.78806">
        <ele>546.894226</ele>
        <time>2016-05-22T09:29:46Z</time>
      </trkpt>
      <trkpt lat="45.83319" lon="4.78804">
        <ele>547.258301</ele>
        <time>2016-05-22T09:29:48Z</time>
      </trkpt>
      <trkpt lat="45.83321" lon="4.78802">
        <ele>547.458435</ele>
        <time>2016-05-22T09:29:50Z</time>
      </trkpt>
      <trkpt lat="45.83323" lon="4.788">
        <ele>548.384155</ele>
        <time>2016-05-22T09:29:56Z</time>
      </trkpt>
      <trkpt lat="45.83326" lon="4.78798">
        <ele>548.799744</ele>
        <time>2016-05-22T09:29:58Z</time>
      </trkpt>
      <trkpt lat="45.83328" lon="4.78796">
        <ele>549.006775</ele>
        <time>2016-05-22T09:30:00Z</time>
      </trkpt>
      <trkpt lat="45.8333" lon="4.78795">
        <ele>549.327942</ele>
        <time>2016-05-22T09:30:02Z</time>
      </trkpt>
      <trkpt lat="45.83333" lon="4.78793">
        <ele>549.55011</ele>
        <time>2016-05-22T09:30:04Z</time>
      </trkpt>
      <trkpt lat="45.83336" lon="4.78791">
        <ele>549.986267</ele>
        <time>2016-05-22T09:30:06Z</time>
      </trkpt>
      <trkpt lat="45.83339" lon="4.78789">
        <ele>550.193054</ele>
        <time>2016-05-22T09:30:08Z</time>
      </trkpt>
      <trkpt lat="45.83342" lon="4.78787">
        <ele>550.492737</ele>
        <time>2016-05-22T09:30:10Z</time>
      </trkpt>
      <trkpt lat="45.83345" lon="4.78785">
        <ele>550.74353</ele>
        <time>2016-05-22T09:30:12Z</time>
      </trkpt>
      <trkpt lat="45.83348" lon="4.78783">
        <ele>551.023865</ele>
        <time>2016-05-22T09:30:14Z</time>
      </trkpt>
      <trkpt lat="45.83352" lon="4.78781">
        <ele>551.346436</ele>
        <time>2016-05-22T09:30:16Z</time>
      </trkpt>
      <trkpt lat="45.83356" lon="4.78779">
        <ele>551.469604</ele>
        <time>2016-05-22T09:30:19Z</time>
      </trkpt>
      <trkpt lat="45.83358" lon="4.78776">
        <ele>551.69165</ele>
        <time>2016-05-22T09:30:21Z</time>
      </trkpt>
      <trkpt lat="45.83361" lon="4.78774">
        <ele>551.903564</ele>
        <time>2016-05-22T09:30:23Z</time>
      </trkpt>
      <trkpt lat="45.83365" lon="4.78771">
        <ele>552.165161</ele>
        <time>2016-05-22T09:30:25Z</time>
      </trkpt>
      <trkpt lat="45.83368" lon="4.78768">
        <ele>552.490662</ele>
        <time>2016-05-22T09:30:27Z</time>
      </trkpt>
      <trkpt lat="45.83372" lon="4.78766">
        <ele>552.584167</ele>
        <time>2016-05-22T09:30:29Z</time>
      </trkpt>
      <trkpt lat="45.83376" lon="4.78765">
        <ele>552.839417</ele>
        <time>2016-05-22T09:30:31Z</time>
      </trkpt>
      <trkpt lat="45.83379" lon="4.78764">
        <ele>553.006653</ele>
        <time>2016-05-22T09:30:33Z</time>
      </trkpt>
      <trkpt lat="45.83383" lon="4.78763">
        <ele>553.20697</ele>
        <time>2016-05-22T09:30:35Z</time>
      </trkpt>
      <trkpt lat="45.83386" lon="4.78762">
        <ele>553.459961</ele>
        <time>2016-05-22T09:30:37Z</time>
      </trkpt>
      <trkpt lat="45.83389" lon="4.78761">
        <ele>553.796631</ele>
        <time>2016-05-22T09:30:39Z</time>
      </trkpt>
      <trkpt lat="45.83392" lon="4.7876">
        <ele>554.076111</ele>
        <time>2016-05-22T09:30:41Z</time>
      </trkpt>
      <trkpt lat="45.83395" lon="4.78759">
        <ele>554.390747</ele>
        <time>2016-05-22T09:30:43Z</time>
      </trkpt>
      <trkpt lat="45.83398" lon="4.78757">
        <ele>554.685425</ele>
        <time>2016-05-22T09:30:45Z</time>
      </trkpt>
      <trkpt lat="45.834" lon="4.78756">
        <ele>554.995667</ele>
        <time>2016-05-22T09:30:47Z</time>
      </trkpt>
      <trkpt lat="45.83403" lon="4.78755">
        <ele>555.145325</ele>
        <time>2016-05-22T09:30:49Z</time>
      </trkpt>
      <trkpt lat="45.83406" lon="4.78753">
        <ele>555.375427</ele>
        <time>2016-05-22T09:30:51Z</time>
      </trkpt>
      <trkpt lat="45.83409" lon="4.78753">
        <ele>555.731995</ele>
        <time>2016-05-22T09:30:53Z</time>
      </trkpt>
      <trkpt lat="45.83411" lon="4.78753">
        <ele>556.121521</ele>
        <time>2016-05-22T09:30:55Z</time>
      </trkpt>
      <trkpt lat="45.83415" lon="4.78752">
        <ele>556.437561</ele>
        <time>2016-05-22T09:30:57Z</time>
      </trkpt>
      <trkpt lat="45.83419" lon="4.7875">
        <ele>556.780823</ele>
        <time>2016-05-22T09:31:00Z</time>
      </trkpt>
      <trkpt lat="45.83421" lon="4.78748">
        <ele>557.0802</ele>
        <time>2016-05-22T09:31:02Z</time>
      </trkpt>
      <trkpt lat="45.83424" lon="4.78747">
        <ele>557.236694</ele>
        <time>2016-05-22T09:31:04Z</time>
      </trkpt>
      <trkpt lat="45.83427" lon="4.78746">
        <ele>557.584106</ele>
        <time>2016-05-22T09:31:06Z</time>
      </trkpt>
      <trkpt lat="45.83429" lon="4.78745">
        <ele>557.9021</ele>
        <time>2016-05-22T09:31:08Z</time>
      </trkpt>
      <trkpt lat="45.83432" lon="4.78743">
        <ele>558.236755</ele>
        <time>2016-05-22T09:31:10Z</time>
      </trkpt>
      <trkpt lat="45.83435" lon="4.78742">
        <ele>558.565674</ele>
        <time>2016-05-22T09:31:12Z</time>
      </trkpt>
      <trkpt lat="45.83438" lon="4.78741">
        <ele>558.959839</ele>
        <time>2016-05-22T09:31:14Z</time>
      </trkpt>
      <trkpt lat="45.8344" lon="4.7874">
        <ele>559.463989</ele>
        <time>2016-05-22T09:31:16Z</time>
      </trkpt>
      <trkpt lat="45.83442" lon="4.78739">
        <ele>559.860229</ele>
        <time>2016-05-22T09:31:18Z</time>
      </trkpt>
      <trkpt lat="45.83444" lon="4.78738">
        <ele>560.274292</ele>
        <time>2016-05-22T09:31:20Z</time>
      </trkpt>
      <trkpt lat="45.83447" lon="4.78737">
        <ele>560.664001</ele>
        <time>2016-05-22T09:31:22Z</time>
      </trkpt>
      <trkpt lat="45.8345" lon="4.78737">
        <ele>561.064819</ele>
        <time>2016-05-22T09:31:24Z</time>
      </trkpt>
      <trkpt lat="45.83452" lon="4.78736">
        <ele>561.487671</ele>
        <time>2016-05-22T09:31:26Z</time>
      </trkpt>
      <trkpt lat="45.83455" lon="4.78735">
        <ele>561.71228</ele>
        <time>2016-05-22T09:31:28Z</time>
      </trkpt>
      <trkpt lat="45.83457" lon="4.78734">
        <ele>562.089294</ele>
        <time>2016-05-22T09:31:30Z</time>
      </trkpt>
      <trkpt lat="45.8346" lon="4.78733">
        <ele>562.479126</ele>
        <time>2016-05-22T09:31:32Z</time>
      </trkpt>
      <trkpt lat="45.83463" lon="4.78732">
        <ele>562.882568</ele>
        <time>2016-05-22T09:31:34Z</time>
      </trkpt>
      <trkpt lat="45.83465" lon="4.78731">
        <ele>563.257019</ele>
        <time>2016-05-22T09:31:36Z</time>
      </trkpt>
      <trkpt lat="45.83468" lon="4.7873">
        <ele>563.585205</ele>
        <time>2016-05-22T09:31:38Z</time>
      </trkpt>
      <trkpt lat="45.8347" lon="4.78728">
        <ele>563.860535</ele>
        <time>2016-05-22T09:31:40Z</time>
      </trkpt>
      <trkpt lat="45.83473" lon="4.78727">
        <ele>564.338684</ele>
        <time>2016-05-22T09:31:42Z</time>
      </trkpt>
      <trkpt lat="45.83476" lon="4.78726">
        <ele>564.735168</ele>
        <time>2016-05-22T09:31:44Z</time>
      </trkpt>
      <trkpt lat="45.83478" lon="4.78725">
        <ele>565.174683</ele>
        <time>2016-05-22T09:31:46Z</time>
      </trkpt>
      <trkpt lat="45.83481" lon="4.78724">
        <ele>565.572388</ele>
        <time>2016-05-22T09:31:48Z</time>
      </trkpt>
      <trkpt lat="45.83484" lon="4.78723">
        <ele>565.786011</ele>
        <time>2016-05-22T09:31:50Z</time>
      </trkpt>
      <trkpt lat="45.83486" lon="4.78722">
        <ele>566.149109</ele>
        <time>2016-05-22T09:31:52Z</time>
      </trkpt>
      <trkpt lat="45.83489" lon="4.78721">
        <ele>566.581177</ele>
        <time>2016-05-22T09:31:54Z</time>
      </trkpt>
      <trkpt lat="45.83492" lon="4.78721">
        <ele>566.902954</ele>
        <time>2016-05-22T09:31:56Z</time>
      </trkpt>
      <trkpt lat="45.83494" lon="4.7872">
        <ele>567.204895</ele>
        <time>2016-05-22T09:31:58Z</time>
      </trkpt>
      <trkpt lat="45.83497" lon="4.78719">
        <ele>567.55304</ele>
        <time>2016-05-22T09:32:00Z</time>
      </trkpt>
      <trkpt lat="45.83499" lon="4.78718">
        <ele>567.95636</ele>
        <time>2016-05-22T09:32:02Z</time>
      </trkpt>
      <trkpt lat="45.83501" lon="4.78717">
        <ele>568.319153</ele>
        <time>2016-05-22T09:32:04Z</time>
      </trkpt>
      <trkpt lat="45.83504" lon="4.78716">
        <ele>568.693726</ele>
        <time>2016-05-22T09:32:06Z</time>
      </trkpt>
      <trkpt lat="45.83507" lon="4.78715">
        <ele>569.039734</ele>
        <time>2016-05-22T09:32:08Z</time>
      </trkpt>
      <trkpt lat="45.83509" lon="4.78714">
        <ele>569.400757</ele>
        <time>2016-05-22T09:32:10Z</time>
      </trkpt>
      <trkpt lat="45.83511" lon="4.78714">
        <ele>569.764343</ele>
        <time>2016-05-22T09:32:12Z</time>
      </trkpt>
      <trkpt lat="45.83514" lon="4.78713">
        <ele>569.947266</ele>
        <time>2016-05-22T09:32:14Z</time>
      </trkpt>
      <trkpt lat="45.83516" lon="4.78713">
        <ele>570.158875</ele>
        <time>2016-05-22T09:32:16Z</time>
      </trkpt>
      <trkpt lat="45.83519" lon="4.78712">
        <ele>570.407837</ele>
        <time>2016-05-22T09:32:18Z</time>
      </trkpt>
      <trkpt lat="45.83521" lon="4.78711">
        <ele>570.712036</ele>
        <time>2016-05-22T09:32:20Z</time>
      </trkpt>
      <trkpt lat="45.83524" lon="4.7871">
        <ele>571.071472</ele>
        <time>2016-05-22T09:32:22Z</time>
      </trkpt>
      <trkpt lat="45.83526" lon="4.7871">
        <ele>571.362427</ele>
        <time>2016-05-22T09:32:24Z</time>
      </trkpt>
      <trkpt lat="45.83528" lon="4.78709">
        <ele>571.651245</ele>
        <time>2016-05-22T09:32:26Z</time>
      </trkpt>
      <trkpt lat="45.8353" lon="4.78708">
        <ele>571.938171</ele>
        <time>2016-05-22T09:32:28Z</time>
      </trkpt>
      <trkpt lat="45.83533" lon="4.78707">
        <ele>572.249023</ele>
        <time>2016-05-22T09:32:30Z</time>
      </trkpt>
      <trkpt lat="45.83535" lon="4.78706">
        <ele>572.637512</ele>
        <time>2016-05-22T09:32:32Z</time>
      </trkpt>
      <trkpt lat="45.83538" lon="4.78705">
        <ele>572.919739</ele>
        <time>2016-05-22T09:32:34Z</time>
      </trkpt>
      <trkpt lat="45.8354" lon="4.78703">
        <ele>573.252625</ele>
        <time>2016-05-22T09:32:36Z</time>
      </trkpt>
      <trkpt lat="45.83542" lon="4.78702">
        <ele>573.398132</ele>
        <time>2016-05-22T09:32:38Z</time>
      </trkpt>
      <trkpt lat="45.83545" lon="4.78701">
        <ele>573.731018</ele>
        <time>2016-05-22T09:32:40Z</time>
      </trkpt>
      <trkpt lat="45.83547" lon="4.78699">
        <ele>574.057678</ele>
        <time>2016-05-22T09:32:42Z</time>
      </trkpt>
      <trkpt lat="45.8355" lon="4.78698">
        <ele>574.364136</ele>
        <time>2016-05-22T09:32:44Z</time>
      </trkpt>
      <trkpt lat="45.83553" lon="4.78697">
        <ele>574.704529</ele>
        <time>2016-05-22T09:32:46Z</time>
      </trkpt>
      <trkpt lat="45.83555" lon="4.78695">
        <ele>575.004395</ele>
        <time>2016-05-22T09:32:48Z</time>
      </trkpt>
      <trkpt lat="45.83558" lon="4.78694">
        <ele>575.26886</ele>
        <time>2016-05-22T09:32:50Z</time>
      </trkpt>
      <trkpt lat="45.83561" lon="4.78692">
        <ele>575.518066</ele>
        <time>2016-05-22T09:32:52Z</time>
      </trkpt>
      <trkpt lat="45.83564" lon="4.78691">
        <ele>575.720947</ele>
        <time>2016-05-22T09:32:54Z</time>
      </trkpt>
      <trkpt lat="45.83566" lon="4.78689">
        <ele>576.14563</ele>
        <time>2016-05-22T09:32:56Z</time>
      </trkpt>
      <trkpt lat="45.83569" lon="4.78687">
        <ele>576.513916</ele>
        <time>2016-05-22T09:32:58Z</time>
      </trkpt>
      <trkpt lat="45.83571" lon="4.78686">
        <ele>576.90863</ele>
        <time>2016-05-22T09:33:00Z</time>
      </trkpt>
      <trkpt lat="45.83574" lon="4.78685">
        <ele>577.204224</ele>
        <time>2016-05-22T09:33:02Z</time>
      </trkpt>
      <trkpt lat="45.83576" lon="4.78684">
        <ele>577.543579</ele>
        <time>2016-05-22T09:33:04Z</time>
      </trkpt>
      <trkpt lat="45.83579" lon="4.78682">
        <ele>577.684753</ele>
        <time>2016-05-22T09:33:06Z</time>
      </trkpt>
      <trkpt lat="45.83581" lon="4.78681">
        <ele>577.921692</ele>
        <time>2016-05-22T09:33:08Z</time>
      </trkpt>
      <trkpt lat="45.83584" lon="4.7868">
        <ele>578.331604</ele>
        <time>2016-05-22T09:33:10Z</time>
      </trkpt>
      <trkpt lat="45.83586" lon="4.78679">
        <ele>578.668274</ele>
        <time>2016-05-22T09:33:12Z</time>
      </trkpt>
      <trkpt lat="45.83589" lon="4.78679">
        <ele>579.019043</ele>
        <time>2016-05-22T09:33:14Z</time>
      </trkpt>
      <trkpt lat="45.83591" lon="4.78678">
        <ele>579.323486</ele>
        <time>2016-05-22T09:33:16Z</time>
      </trkpt>
      <trkpt lat="45.83594" lon="4.78678">
        <ele>579.593018</ele>
        <time>2016-05-22T09:33:18Z</time>
      </trkpt>
      <trkpt lat="45.83596" lon="4.78677">
        <ele>579.911804</ele>
        <time>2016-05-22T09:33:20Z</time>
      </trkpt>
      <trkpt lat="45.83599" lon="4.78675">
        <ele>580.273315</ele>
        <time>2016-05-22T09:33:22Z</time>
      </trkpt>
      <trkpt lat="45.83601" lon="4.78674">
        <ele>580.575562</ele>
        <time>2016-05-22T09:33:24Z</time>
      </trkpt>
      <trkpt lat="45.83604" lon="4.78673">
        <ele>580.765381</ele>
        <time>2016-05-22T09:33:26Z</time>
      </trkpt>
      <trkpt lat="45.83607" lon="4.78673">
        <ele>581.010071</ele>
        <time>2016-05-22T09:33:28Z</time>
      </trkpt>
      <trkpt lat="45.8361" lon="4.78672">
        <ele>581.32782</ele>
        <time>2016-05-22T09:33:30Z</time>
      </trkpt>
      <trkpt lat="45.83613" lon="4.78669">
        <ele>581.683228</ele>
        <time>2016-05-22T09:33:32Z</time>
      </trkpt>
      <trkpt lat="45.83616" lon="4.78667">
        <ele>582.069763</ele>
        <time>2016-05-22T09:33:34Z</time>
      </trkpt>
      <trkpt lat="45.83619" lon="4.78666">
        <ele>582.597168</ele>
        <time>2016-05-22T09:33:36Z</time>
      </trkpt>
      <trkpt lat="45.83622" lon="4.78665">
        <ele>582.959961</ele>
        <time>2016-05-22T09:33:38Z</time>
      </trkpt>
      <trkpt lat="45.83625" lon="4.78663">
        <ele>583.337341</ele>
        <time>2016-05-22T09:33:40Z</time>
      </trkpt>
      <trkpt lat="45.83627" lon="4.78662">
        <ele>583.696045</ele>
        <time>2016-05-22T09:33:42Z</time>
      </trkpt>
      <trkpt lat="45.8363" lon="4.78659">
        <ele>584.049133</ele>
        <time>2016-05-22T09:33:44Z</time>
      </trkpt>
      <trkpt lat="45.83632" lon="4.78657">
        <ele>584.371338</ele>
        <time>2016-05-22T09:33:46Z</time>
      </trkpt>
      <trkpt lat="45.83634" lon="4.78655">
        <ele>584.701477</ele>
        <time>2016-05-22T09:33:48Z</time>
      </trkpt>
      <trkpt lat="45.83637" lon="4.78654">
        <ele>584.875793</ele>
        <time>2016-05-22T09:33:50Z</time>
      </trkpt>
      <trkpt lat="45.8364" lon="4.78652">
        <ele>585.092468</ele>
        <time>2016-05-22T09:33:52Z</time>
      </trkpt>
      <trkpt lat="45.83642" lon="4.7865">
        <ele>585.33606</ele>
        <time>2016-05-22T09:33:54Z</time>
      </trkpt>
      <trkpt lat="45.83645" lon="4.78648">
        <ele>585.53479</ele>
        <time>2016-05-22T09:33:56Z</time>
      </trkpt>
      <trkpt lat="45.83648" lon="4.78646">
        <ele>585.848206</ele>
        <time>2016-05-22T09:33:58Z</time>
      </trkpt>
      <trkpt lat="45.8365" lon="4.78645">
        <ele>586.114868</ele>
        <time>2016-05-22T09:34:00Z</time>
      </trkpt>
      <trkpt lat="45.83653" lon="4.78644">
        <ele>586.39386</ele>
        <time>2016-05-22T09:34:02Z</time>
      </trkpt>
      <trkpt lat="45.83656" lon="4.78643">
        <ele>586.541748</ele>
        <time>2016-05-22T09:34:04Z</time>
      </trkpt>
      <trkpt lat="45.83659" lon="4.78642">
        <ele>586.72937</ele>
        <time>2016-05-22T09:34:06Z</time>
      </trkpt>
      <trkpt lat="45.83663" lon="4.78641">
        <ele>586.934937</ele>
        <time>2016-05-22T09:34:08Z</time>
      </trkpt>
      <trkpt lat="45.83667" lon="4.78641">
        <ele>587.005493</ele>
        <time>2016-05-22T09:34:10Z</time>
      </trkpt>
      <trkpt lat="45.83668" lon="4.78641">
        <ele>591.804382</ele>
        <time>2016-05-22T09:38:25Z</time>
      </trkpt>
      <trkpt lat="45.83662" lon="4.78642">
        <ele>591.867004</ele>
        <time>2016-05-22T09:38:27Z</time>
      </trkpt>
      <trkpt lat="45.83658" lon="4.78644">
        <ele>591.827271</ele>
        <time>2016-05-22T09:38:29Z</time>
      </trkpt>
      <trkpt lat="45.83653" lon="4.78647">
        <ele>591.875183</ele>
        <time>2016-05-22T09:38:31Z</time>
      </trkpt>
      <trkpt lat="45.83647" lon="4.78651">
        <ele>591.680908</ele>
        <time>2016-05-22T09:38:33Z</time>
      </trkpt>
      <trkpt lat="45.8364" lon="4.78656">
        <ele>591.75824</ele>
        <time>2016-05-22T09:38:35Z</time>
      </trkpt>
      <trkpt lat="45.83632" lon="4.78662">
        <ele>591.74054</ele>
        <time>2016-05-22T09:38:37Z</time>
      </trkpt>
      <trkpt lat="45.83625" lon="4.7867">
        <ele>591.367371</ele>
        <time>2016-05-22T09:38:39Z</time>
      </trkpt>
      <trkpt lat="45.83626" lon="4.78682">
        <ele>591.155396</ele>
        <time>2016-05-22T09:38:41Z</time>
      </trkpt>
      <trkpt lat="45.83633" lon="4.78692">
        <ele>591.007446</ele>
        <time>2016-05-22T09:38:43Z</time>
      </trkpt>
      <trkpt lat="45.83643" lon="4.78696">
        <ele>590.867554</ele>
        <time>2016-05-22T09:38:45Z</time>
      </trkpt>
      <trkpt lat="45.83654" lon="4.78697">
        <ele>590.597229</ele>
        <time>2016-05-22T09:38:47Z</time>
      </trkpt>
      <trkpt lat="45.83664" lon="4.78696">
        <ele>590.15564</ele>
        <time>2016-05-22T09:38:49Z</time>
      </trkpt>
      <trkpt lat="45.83674" lon="4.78693">
        <ele>589.832336</ele>
        <time>2016-05-22T09:38:51Z</time>
      </trkpt>
      <trkpt lat="45.83683" lon="4.78692">
        <ele>589.403992</ele>
        <time>2016-05-22T09:38:53Z</time>
      </trkpt>
      <trkpt lat="45.83691" lon="4.7869">
        <ele>588.916077</ele>
        <time>2016-05-22T09:38:55Z</time>
      </trkpt>
      <trkpt lat="45.83696" lon="4.78689">
        <ele>588.536255</ele>
        <time>2016-05-22T09:38:57Z</time>
      </trkpt>
      <trkpt lat="45.83701" lon="4.78687">
        <ele>588.028442</ele>
        <time>2016-05-22T09:38:59Z</time>
      </trkpt>
      <trkpt lat="45.83706" lon="4.78684">
        <ele>587.787659</ele>
        <time>2016-05-22T09:39:01Z</time>
      </trkpt>
      <trkpt lat="45.8371" lon="4.78682">
        <ele>587.51239</ele>
        <time>2016-05-22T09:39:03Z</time>
      </trkpt>
      <trkpt lat="45.83715" lon="4.78681">
        <ele>587.167969</ele>
        <time>2016-05-22T09:39:05Z</time>
      </trkpt>
      <trkpt lat="45.83718" lon="4.78681">
        <ele>586.743652</ele>
        <time>2016-05-22T09:39:07Z</time>
      </trkpt>
      <trkpt lat="45.83722" lon="4.78682">
        <ele>586.371948</ele>
        <time>2016-05-22T09:39:09Z</time>
      </trkpt>
      <trkpt lat="45.83727" lon="4.78685">
        <ele>586.065125</ele>
        <time>2016-05-22T09:39:11Z</time>
      </trkpt>
      <trkpt lat="45.83732" lon="4.7869">
        <ele>585.6745</ele>
        <time>2016-05-22T09:39:13Z</time>
      </trkpt>
      <trkpt lat="45.83735" lon="4.78695">
        <ele>585.524353</ele>
        <time>2016-05-22T09:39:15Z</time>
      </trkpt>
      <trkpt lat="45.83737" lon="4.787">
        <ele>585.124756</ele>
        <time>2016-05-22T09:39:17Z</time>
      </trkpt>
      <trkpt lat="45.83738" lon="4.78705">
        <ele>584.69873</ele>
        <time>2016-05-22T09:39:19Z</time>
      </trkpt>
      <trkpt lat="45.8374" lon="4.7871">
        <ele>584.594971</ele>
        <time>2016-05-22T09:39:21Z</time>
      </trkpt>
      <trkpt lat="45.83741" lon="4.78714">
        <ele>584.358765</ele>
        <time>2016-05-22T09:39:23Z</time>
      </trkpt>
      <trkpt lat="45.83744" lon="4.7872">
        <ele>584.050659</ele>
        <time>2016-05-22T09:39:25Z</time>
      </trkpt>
      <trkpt lat="45.83748" lon="4.78726">
        <ele>583.995483</ele>
        <time>2016-05-22T09:39:27Z</time>
      </trkpt>
      <trkpt lat="45.83754" lon="4.78731">
        <ele>583.802307</ele>
        <time>2016-05-22T09:39:29Z</time>
      </trkpt>
      <trkpt lat="45.83762" lon="4.78735">
        <ele>583.623535</ele>
        <time>2016-05-22T09:39:31Z</time>
      </trkpt>
      <trkpt lat="45.8377" lon="4.78739">
        <ele>583.214172</ele>
        <time>2016-05-22T09:39:33Z</time>
      </trkpt>
      <trkpt lat="45.83779" lon="4.78743">
        <ele>583.007935</ele>
        <time>2016-05-22T09:39:35Z</time>
      </trkpt>
      <trkpt lat="45.83789" lon="4.78749">
        <ele>582.666077</ele>
        <time>2016-05-22T09:39:37Z</time>
      </trkpt>
      <trkpt lat="45.83799" lon="4.78757">
        <ele>582.385803</ele>
        <time>2016-05-22T09:39:39Z</time>
      </trkpt>
      <trkpt lat="45.8381" lon="4.78766">
        <ele>582.03064</ele>
        <time>2016-05-22T09:39:41Z</time>
      </trkpt>
      <trkpt lat="45.83823" lon="4.78776">
        <ele>581.756226</ele>
        <time>2016-05-22T09:39:43Z</time>
      </trkpt>
      <trkpt lat="45.83836" lon="4.78789">
        <ele>581.242249</ele>
        <time>2016-05-22T09:39:45Z</time>
      </trkpt>
      <trkpt lat="45.83851" lon="4.78802">
        <ele>580.640015</ele>
        <time>2016-05-22T09:39:47Z</time>
      </trkpt>
      <trkpt lat="45.83867" lon="4.78816">
        <ele>579.830627</ele>
        <time>2016-05-22T09:39:49Z</time>
      </trkpt>
      <trkpt lat="45.83883" lon="4.78832">
        <ele>578.924316</ele>
        <time>2016-05-22T09:39:51Z</time>
      </trkpt>
      <trkpt lat="45.839" lon="4.78848">
        <ele>578.443604</ele>
        <time>2016-05-22T09:39:53Z</time>
      </trkpt>
      <trkpt lat="45.83917" lon="4.78863">
        <ele>577.690002</ele>
        <time>2016-05-22T09:39:55Z</time>
      </trkpt>
      <trkpt lat="45.83934" lon="4.78879">
        <ele>576.759521</ele>
        <time>2016-05-22T09:39:57Z</time>
      </trkpt>
      <trkpt lat="45.83952" lon="4.78895">
        <ele>576.007446</ele>
        <time>2016-05-22T09:39:59Z</time>
      </trkpt>
      <trkpt lat="45.8397" lon="4.78912">
        <ele>574.929504</ele>
        <time>2016-05-22T09:40:01Z</time>
      </trkpt>
      <trkpt lat="45.83987" lon="4.78928">
        <ele>574.085083</ele>
        <time>2016-05-22T09:40:03Z</time>
      </trkpt>
      <trkpt lat="45.84002" lon="4.78946">
        <ele>573.273621</ele>
        <time>2016-05-22T09:40:05Z</time>
      </trkpt>
      <trkpt lat="45.8401" lon="4.78971">
        <ele>571.889832</ele>
        <time>2016-05-22T09:40:07Z</time>
      </trkpt>
      <trkpt lat="45.84015" lon="4.78998">
        <ele>571.153687</ele>
        <time>2016-05-22T09:40:09Z</time>
      </trkpt>
      <trkpt lat="45.84031" lon="4.79017">
        <ele>570.030945</ele>
        <time>2016-05-22T09:40:11Z</time>
      </trkpt>
      <trkpt lat="45.84051" lon="4.79027">
        <ele>568.616699</ele>
        <time>2016-05-22T09:40:13Z</time>
      </trkpt>
      <trkpt lat="45.84072" lon="4.79041">
        <ele>567.407349</ele>
        <time>2016-05-22T09:40:15Z</time>
      </trkpt>
      <trkpt lat="45.8409" lon="4.79061">
        <ele>566.038208</ele>
        <time>2016-05-22T09:40:17Z</time>
      </trkpt>
      <trkpt lat="45.84106" lon="4.79083">
        <ele>564.908691</ele>
        <time>2016-05-22T09:40:19Z</time>
      </trkpt>
      <trkpt lat="45.84123" lon="4.79106">
        <ele>562.937988</ele>
        <time>2016-05-22T09:40:21Z</time>
      </trkpt>
      <trkpt lat="45.8414" lon="4.79129">
        <ele>561.497742</ele>
        <time>2016-05-22T09:40:23Z</time>
      </trkpt>
      <trkpt lat="45.84157" lon="4.79153">
        <ele>559.815125</ele>
        <time>2016-05-22T09:40:25Z</time>
      </trkpt>
      <trkpt lat="45.84174" lon="4.79176">
        <ele>558.562378</ele>
        <time>2016-05-22T09:40:27Z</time>
      </trkpt>
      <trkpt lat="45.84191" lon="4.792">
        <ele>557.249207</ele>
        <time>2016-05-22T09:40:29Z</time>
      </trkpt>
      <trkpt lat="45.84208" lon="4.79222">
        <ele>556.117676</ele>
        <time>2016-05-22T09:40:31Z</time>
      </trkpt>
      <trkpt lat="45.84224" lon="4.79245">
        <ele>554.808411</ele>
        <time>2016-05-22T09:40:33Z</time>
      </trkpt>
      <trkpt lat="45.84232" lon="4.79272">
        <ele>554.062683</ele>
        <time>2016-05-22T09:40:35Z</time>
      </trkpt>
      <trkpt lat="45.84227" lon="4.79298">
        <ele>552.556458</ele>
        <time>2016-05-22T09:40:37Z</time>
      </trkpt>
      <trkpt lat="45.84216" lon="4.79312">
        <ele>551.258362</ele>
        <time>2016-05-22T09:40:39Z</time>
      </trkpt>
      <trkpt lat="45.84204" lon="4.79319">
        <ele>549.557373</ele>
        <time>2016-05-22T09:40:41Z</time>
      </trkpt>
      <trkpt lat="45.84191" lon="4.79326">
        <ele>548.367371</ele>
        <time>2016-05-22T09:40:43Z</time>
      </trkpt>
      <trkpt lat="45.84178" lon="4.79334">
        <ele>546.891235</ele>
        <time>2016-05-22T09:40:45Z</time>
      </trkpt>
      <trkpt lat="45.84168" lon="4.79341">
        <ele>545.454529</ele>
        <time>2016-05-22T09:40:47Z</time>
      </trkpt>
      <trkpt lat="45.84158" lon="4.79345">
        <ele>544.579468</ele>
        <time>2016-05-22T09:40:49Z</time>
      </trkpt>
      <trkpt lat="45.84149" lon="4.7935">
        <ele>543.421143</ele>
        <time>2016-05-22T09:40:51Z</time>
      </trkpt>
      <trkpt lat="45.8414" lon="4.79354">
        <ele>542.572449</ele>
        <time>2016-05-22T09:40:53Z</time>
      </trkpt>
      <trkpt lat="45.84131" lon="4.79358">
        <ele>542.093201</ele>
        <time>2016-05-22T09:40:55Z</time>
      </trkpt>
      <trkpt lat="45.84122" lon="4.79363">
        <ele>541.298096</ele>
        <time>2016-05-22T09:40:57Z</time>
      </trkpt>
      <trkpt lat="45.84115" lon="4.79367">
        <ele>540.618713</ele>
        <time>2016-05-22T09:40:59Z</time>
      </trkpt>
      <trkpt lat="45.84107" lon="4.79372">
        <ele>539.916565</ele>
        <time>2016-05-22T09:41:01Z</time>
      </trkpt>
      <trkpt lat="45.841" lon="4.79376">
        <ele>539.786743</ele>
        <time>2016-05-22T09:41:03Z</time>
      </trkpt>
      <trkpt lat="45.84093" lon="4.79381">
        <ele>539.397705</ele>
        <time>2016-05-22T09:41:05Z</time>
      </trkpt>
      <trkpt lat="45.84086" lon="4.79386">
        <ele>539.230591</ele>
        <time>2016-05-22T09:41:07Z</time>
      </trkpt>
      <trkpt lat="45.84081" lon="4.79391">
        <ele>538.753113</ele>
        <time>2016-05-22T09:41:09Z</time>
      </trkpt>
      <trkpt lat="45.84074" lon="4.79395">
        <ele>538.307739</ele>
        <time>2016-05-22T09:41:11Z</time>
      </trkpt>
      <trkpt lat="45.84069" lon="4.794">
        <ele>537.870483</ele>
        <time>2016-05-22T09:41:13Z</time>
      </trkpt>
      <trkpt lat="45.84063" lon="4.79404">
        <ele>537.890259</ele>
        <time>2016-05-22T09:41:15Z</time>
      </trkpt>
      <trkpt lat="45.84057" lon="4.79409">
        <ele>537.914795</ele>
        <time>2016-05-22T09:41:17Z</time>
      </trkpt>
      <trkpt lat="45.8405" lon="4.79413">
        <ele>537.913391</ele>
        <time>2016-05-22T09:41:19Z</time>
      </trkpt>
      <trkpt lat="45.84044" lon="4.79418">
        <ele>537.968323</ele>
        <time>2016-05-22T09:41:21Z</time>
      </trkpt>
      <trkpt lat="45.84038" lon="4.79422">
        <ele>538.227905</ele>
        <time>2016-05-22T09:41:23Z</time>
      </trkpt>
      <trkpt lat="45.84032" lon="4.79427">
        <ele>538.504761</ele>
        <time>2016-05-22T09:41:25Z</time>
      </trkpt>
      <trkpt lat="45.84026" lon="4.79432">
        <ele>538.694275</ele>
        <time>2016-05-22T09:41:27Z</time>
      </trkpt>
      <trkpt lat="45.8402" lon="4.79436">
        <ele>538.882324</ele>
        <time>2016-05-22T09:41:29Z</time>
      </trkpt>
      <trkpt lat="45.84014" lon="4.79441">
        <ele>539.104248</ele>
        <time>2016-05-22T09:41:31Z</time>
      </trkpt>
      <trkpt lat="45.84008" lon="4.79447">
        <ele>539.251465</ele>
        <time>2016-05-22T09:41:33Z</time>
      </trkpt>
      <trkpt lat="45.84002" lon="4.79452">
        <ele>539.488831</ele>
        <time>2016-05-22T09:41:35Z</time>
      </trkpt>
      <trkpt lat="45.83995" lon="4.79457">
        <ele>539.730469</ele>
        <time>2016-05-22T09:41:37Z</time>
      </trkpt>
      <trkpt lat="45.83989" lon="4.79462">
        <ele>539.914307</ele>
        <time>2016-05-22T09:41:39Z</time>
      </trkpt>
      <trkpt lat="45.83983" lon="4.79467">
        <ele>540.021973</ele>
        <time>2016-05-22T09:41:41Z</time>
      </trkpt>
      <trkpt lat="45.83976" lon="4.79472">
        <ele>540.115051</ele>
        <time>2016-05-22T09:41:43Z</time>
      </trkpt>
      <trkpt lat="45.8397" lon="4.79477">
        <ele>540.240295</ele>
        <time>2016-05-22T09:41:45Z</time>
      </trkpt>
      <trkpt lat="45.83963" lon="4.79482">
        <ele>540.356812</ele>
        <time>2016-05-22T09:41:47Z</time>
      </trkpt>
      <trkpt lat="45.83957" lon="4.79488">
        <ele>540.319458</ele>
        <time>2016-05-22T09:41:49Z</time>
      </trkpt>
      <trkpt lat="45.8395" lon="4.79494">
        <ele>540.341431</ele>
        <time>2016-05-22T09:41:51Z</time>
      </trkpt>
      <trkpt lat="45.83943" lon="4.79499">
        <ele>540.405151</ele>
        <time>2016-05-22T09:41:53Z</time>
      </trkpt>
      <trkpt lat="45.83936" lon="4.79505">
        <ele>540.53894</ele>
        <time>2016-05-22T09:41:55Z</time>
      </trkpt>
      <trkpt lat="45.8393" lon="4.79511">
        <ele>540.582886</ele>
        <time>2016-05-22T09:41:57Z</time>
      </trkpt>
      <trkpt lat="45.83924" lon="4.79518">
        <ele>540.463806</ele>
        <time>2016-05-22T09:41:59Z</time>
      </trkpt>
      <trkpt lat="45.83918" lon="4.79525">
        <ele>540.35614</ele>
        <time>2016-05-22T09:42:01Z</time>
      </trkpt>
      <trkpt lat="45.83913" lon="4.79533">
        <ele>540.255066</ele>
        <time>2016-05-22T09:42:03Z</time>
      </trkpt>
      <trkpt lat="45.83907" lon="4.79542">
        <ele>540.189148</ele>
        <time>2016-05-22T09:42:05Z</time>
      </trkpt>
      <trkpt lat="45.83903" lon="4.7955">
        <ele>539.866089</ele>
        <time>2016-05-22T09:42:07Z</time>
      </trkpt>
      <trkpt lat="45.83898" lon="4.7956">
        <ele>539.72937</ele>
        <time>2016-05-22T09:42:09Z</time>
      </trkpt>
      <trkpt lat="45.83893" lon="4.7957">
        <ele>539.532532</ele>
        <time>2016-05-22T09:42:11Z</time>
      </trkpt>
      <trkpt lat="45.83888" lon="4.7958">
        <ele>539.367676</ele>
        <time>2016-05-22T09:42:13Z</time>
      </trkpt>
      <trkpt lat="45.83884" lon="4.79591">
        <ele>539.268799</ele>
        <time>2016-05-22T09:42:15Z</time>
      </trkpt>
      <trkpt lat="45.83879" lon="4.796">
        <ele>539.196045</ele>
        <time>2016-05-22T09:42:17Z</time>
      </trkpt>
      <trkpt lat="45.83875" lon="4.79609">
        <ele>539.002686</ele>
        <time>2016-05-22T09:42:19Z</time>
      </trkpt>
      <trkpt lat="45.8387" lon="4.79618">
        <ele>538.855225</ele>
        <time>2016-05-22T09:42:21Z</time>
      </trkpt>
      <trkpt lat="45.83867" lon="4.79626">
        <ele>538.765503</ele>
        <time>2016-05-22T09:42:23Z</time>
      </trkpt>
      <trkpt lat="45.83862" lon="4.79635">
        <ele>538.570435</ele>
        <time>2016-05-22T09:42:25Z</time>
      </trkpt>
      <trkpt lat="45.83859" lon="4.79645">
        <ele>538.247437</ele>
        <time>2016-05-22T09:42:27Z</time>
      </trkpt>
      <trkpt lat="45.83856" lon="4.79654">
        <ele>537.957397</ele>
        <time>2016-05-22T09:42:29Z</time>
      </trkpt>
      <trkpt lat="45.83853" lon="4.79664">
        <ele>537.654175</ele>
        <time>2016-05-22T09:42:31Z</time>
      </trkpt>
      <trkpt lat="45.8385" lon="4.79674">
        <ele>537.311401</ele>
        <time>2016-05-22T09:42:33Z</time>
      </trkpt>
      <trkpt lat="45.83848" lon="4.79684">
        <ele>536.942566</ele>
        <time>2016-05-22T09:42:35Z</time>
      </trkpt>
      <trkpt lat="45.83845" lon="4.79695">
        <ele>536.687683</ele>
        <time>2016-05-22T09:42:37Z</time>
      </trkpt>
      <trkpt lat="45.83843" lon="4.79707">
        <ele>536.437195</ele>
        <time>2016-05-22T09:42:39Z</time>
      </trkpt>
      <trkpt lat="45.8384" lon="4.79715">
        <ele>536.434998</ele>
        <time>2016-05-22T09:42:41Z</time>
      </trkpt>
      <trkpt lat="45.83838" lon="4.79721">
        <ele>536.424011</ele>
        <time>2016-05-22T09:42:43Z</time>
      </trkpt>
      <trkpt lat="45.83836" lon="4.79725">
        <ele>536.235046</ele>
        <time>2016-05-22T09:42:45Z</time>
      </trkpt>
      <trkpt lat="45.83836" lon="4.79729">
        <ele>536.105408</ele>
        <time>2016-05-22T09:42:47Z</time>
      </trkpt>
      <trkpt lat="45.83835" lon="4.79733">
        <ele>536.0755</ele>
        <time>2016-05-22T09:42:49Z</time>
      </trkpt>
      <trkpt lat="45.83835" lon="4.79737">
        <ele>535.954102</ele>
        <time>2016-05-22T09:42:51Z</time>
      </trkpt>
      <trkpt lat="45.83835" lon="4.79741">
        <ele>535.806946</ele>
        <time>2016-05-22T09:42:53Z</time>
      </trkpt>
      <trkpt lat="45.83837" lon="4.79741">
        <ele>535.738892</ele>
        <time>2016-05-22T09:42:55Z</time>
      </trkpt>
      <trkpt lat="45.83838" lon="4.79737">
        <ele>535.642395</ele>
        <time>2016-05-22T09:42:57Z</time>
      </trkpt>
      <trkpt lat="45.83841" lon="4.79732">
        <ele>535.420532</ele>
        <time>2016-05-22T09:42:59Z</time>
      </trkpt>
      <trkpt lat="45.83843" lon="4.79727">
        <ele>535.37439</ele>
        <time>2016-05-22T09:43:01Z</time>
      </trkpt>
      <trkpt lat="45.83844" lon="4.7972">
        <ele>535.228149</ele>
        <time>2016-05-22T09:43:03Z</time>
      </trkpt>
      <trkpt lat="45.83847" lon="4.79713">
        <ele>535.054321</ele>
        <time>2016-05-22T09:43:05Z</time>
      </trkpt>
      <trkpt lat="45.83848" lon="4.79706">
        <ele>534.912415</ele>
        <time>2016-05-22T09:43:07Z</time>
      </trkpt>
      <trkpt lat="45.8385" lon="4.797">
        <ele>534.952759</ele>
        <time>2016-05-22T09:43:09Z</time>
      </trkpt>
      <trkpt lat="45.83852" lon="4.79694">
        <ele>534.961548</ele>
        <time>2016-05-22T09:43:11Z</time>
      </trkpt>
      <trkpt lat="45.83854" lon="4.79688">
        <ele>535.036255</ele>
        <time>2016-05-22T09:43:13Z</time>
      </trkpt>
      <trkpt lat="45.83855" lon="4.79682">
        <ele>535.179016</ele>
        <time>2016-05-22T09:43:15Z</time>
      </trkpt>
      <trkpt lat="45.83854" lon="4.79676">
        <ele>535.249268</ele>
        <time>2016-05-22T09:43:17Z</time>
      </trkpt>
      <trkpt lat="45.83854" lon="4.7967">
        <ele>535.402771</ele>
        <time>2016-05-22T09:43:19Z</time>
      </trkpt>
      <trkpt lat="45.83854" lon="4.79665">
        <ele>534.63562</ele>
        <time>2016-05-22T09:53:11Z</time>
      </trkpt>
      <trkpt lat="45.83852" lon="4.79675">
        <ele>534.626099</ele>
        <time>2016-05-22T09:53:13Z</time>
      </trkpt>
      <trkpt lat="45.83849" lon="4.79684">
        <ele>534.456909</ele>
        <time>2016-05-22T09:53:15Z</time>
      </trkpt>
      <trkpt lat="45.83847" lon="4.79696">
        <ele>534.38855</ele>
        <time>2016-05-22T09:53:17Z</time>
      </trkpt>
      <trkpt lat="45.83845" lon="4.79707">
        <ele>534.370972</ele>
        <time>2016-05-22T09:53:19Z</time>
      </trkpt>
      <trkpt lat="45.83843" lon="4.79719">
        <ele>534.32074</ele>
        <time>2016-05-22T09:53:21Z</time>
      </trkpt>
      <trkpt lat="45.83839" lon="4.79731">
        <ele>534.335876</ele>
        <time>2016-05-22T09:53:23Z</time>
      </trkpt>
      <trkpt lat="45.83835" lon="4.79744">
        <ele>534.410583</ele>
        <time>2016-05-22T09:53:25Z</time>
      </trkpt>
      <trkpt lat="45.8383" lon="4.79757">
        <ele>534.417175</ele>
        <time>2016-05-22T09:53:27Z</time>
      </trkpt>
      <trkpt lat="45.83824" lon="4.7977">
        <ele>534.33374</ele>
        <time>2016-05-22T09:53:29Z</time>
      </trkpt>
      <trkpt lat="45.83818" lon="4.79784">
        <ele>534.252136</ele>
        <time>2016-05-22T09:53:31Z</time>
      </trkpt>
      <trkpt lat="45.83812" lon="4.79797">
        <ele>534.181885</ele>
        <time>2016-05-22T09:53:33Z</time>
      </trkpt>
      <trkpt lat="45.83805" lon="4.79811">
        <ele>534.135742</ele>
        <time>2016-05-22T09:53:35Z</time>
      </trkpt>
      <trkpt lat="45.83798" lon="4.79825">
        <ele>534.080444</ele>
        <time>2016-05-22T09:53:37Z</time>
      </trkpt>
      <trkpt lat="45.83791" lon="4.79839">
        <ele>533.916138</ele>
        <time>2016-05-22T09:53:39Z</time>
      </trkpt>
      <trkpt lat="45.83783" lon="4.79854">
        <ele>533.753967</ele>
        <time>2016-05-22T09:53:41Z</time>
      </trkpt>
      <trkpt lat="45.83777" lon="4.79868">
        <ele>533.468079</ele>
        <time>2016-05-22T09:53:43Z</time>
      </trkpt>
      <trkpt lat="45.83771" lon="4.7988">
        <ele>533.248474</ele>
        <time>2016-05-22T09:53:45Z</time>
      </trkpt>
      <trkpt lat="45.83767" lon="4.79888">
        <ele>533.048706</ele>
        <time>2016-05-22T09:53:47Z</time>
      </trkpt>
      <trkpt lat="45.83765" lon="4.79895">
        <ele>532.945801</ele>
        <time>2016-05-22T09:53:49Z</time>
      </trkpt>
      <trkpt lat="45.83763" lon="4.79901">
        <ele>532.807312</ele>
        <time>2016-05-22T09:53:51Z</time>
      </trkpt>
      <trkpt lat="45.83762" lon="4.79906">
        <ele>532.598694</ele>
        <time>2016-05-22T09:53:53Z</time>
      </trkpt>
      <trkpt lat="45.83761" lon="4.79912">
        <ele>532.298706</ele>
        <time>2016-05-22T09:53:55Z</time>
      </trkpt>
      <trkpt lat="45.8376" lon="4.79916">
        <ele>532.043884</ele>
        <time>2016-05-22T09:53:57Z</time>
      </trkpt>
      <trkpt lat="45.83759" lon="4.79921">
        <ele>531.892456</ele>
        <time>2016-05-22T09:53:59Z</time>
      </trkpt>
      <trkpt lat="45.83756" lon="4.79925">
        <ele>531.655212</ele>
        <time>2016-05-22T09:54:01Z</time>
      </trkpt>
      <trkpt lat="45.83752" lon="4.79927">
        <ele>531.413818</ele>
        <time>2016-05-22T09:54:03Z</time>
      </trkpt>
      <trkpt lat="45.83747" lon="4.7993">
        <ele>531.431396</ele>
        <time>2016-05-22T09:54:05Z</time>
      </trkpt>
      <trkpt lat="45.8374" lon="4.79935">
        <ele>531.036011</ele>
        <time>2016-05-22T09:54:07Z</time>
      </trkpt>
      <trkpt lat="45.8373" lon="4.7994">
        <ele>530.48053</ele>
        <time>2016-05-22T09:54:09Z</time>
      </trkpt>
      <trkpt lat="45.83719" lon="4.79945">
        <ele>530.253784</ele>
        <time>2016-05-22T09:54:11Z</time>
      </trkpt>
      <trkpt lat="45.83707" lon="4.79952">
        <ele>529.843567</ele>
        <time>2016-05-22T09:54:13Z</time>
      </trkpt>
      <trkpt lat="45.83695" lon="4.7996">
        <ele>529.130798</ele>
        <time>2016-05-22T09:54:15Z</time>
      </trkpt>
      <trkpt lat="45.83681" lon="4.79968">
        <ele>528.540527</ele>
        <time>2016-05-22T09:54:17Z</time>
      </trkpt>
      <trkpt lat="45.83668" lon="4.79977">
        <ele>527.969116</ele>
        <time>2016-05-22T09:54:19Z</time>
      </trkpt>
      <trkpt lat="45.83653" lon="4.79988">
        <ele>527.39209</ele>
        <time>2016-05-22T09:54:21Z</time>
      </trkpt>
      <trkpt lat="45.83637" lon="4.79998">
        <ele>526.812927</ele>
        <time>2016-05-22T09:54:23Z</time>
      </trkpt>
      <trkpt lat="45.83622" lon="4.80008">
        <ele>526.319214</ele>
        <time>2016-05-22T09:54:25Z</time>
      </trkpt>
      <trkpt lat="45.8361" lon="4.80023">
        <ele>525.812378</ele>
        <time>2016-05-22T09:54:27Z</time>
      </trkpt>
      <trkpt lat="45.83597" lon="4.80039">
        <ele>525.51178</ele>
        <time>2016-05-22T09:54:29Z</time>
      </trkpt>
      <trkpt lat="45.83583" lon="4.80055">
        <ele>524.452637</ele>
        <time>2016-05-22T09:54:31Z</time>
      </trkpt>
      <trkpt lat="45.83569" lon="4.80073">
        <ele>522.921692</ele>
        <time>2016-05-22T09:54:33Z</time>
      </trkpt>
      <trkpt lat="45.83556" lon="4.80095">
        <ele>521.906921</ele>
        <time>2016-05-22T09:54:35Z</time>
      </trkpt>
      <trkpt lat="45.83545" lon="4.80114">
        <ele>520.188599</ele>
        <time>2016-05-22T09:54:37Z</time>
      </trkpt>
      <trkpt lat="45.83535" lon="4.80127">
        <ele>519.585632</ele>
        <time>2016-05-22T09:54:39Z</time>
      </trkpt>
      <trkpt lat="45.83529" lon="4.80134">
        <ele>518.449707</ele>
        <time>2016-05-22T09:54:41Z</time>
      </trkpt>
      <trkpt lat="45.83526" lon="4.80138">
        <ele>516.768677</ele>
        <time>2016-05-22T09:54:43Z</time>
      </trkpt>
      <trkpt lat="45.83523" lon="4.80141">
        <ele>515.233215</ele>
        <time>2016-05-22T09:54:45Z</time>
      </trkpt>
      <trkpt lat="45.83521" lon="4.80146">
        <ele>513.672546</ele>
        <time>2016-05-22T09:54:47Z</time>
      </trkpt>
      <trkpt lat="45.83518" lon="4.80154">
        <ele>511.886047</ele>
        <time>2016-05-22T09:54:49Z</time>
      </trkpt>
      <trkpt lat="45.83514" lon="4.80164">
        <ele>510.240326</ele>
        <time>2016-05-22T09:54:51Z</time>
      </trkpt>
      <trkpt lat="45.8351" lon="4.80177">
        <ele>508.280945</ele>
        <time>2016-05-22T09:54:53Z</time>
      </trkpt>
      <trkpt lat="45.83507" lon="4.80191">
        <ele>506.878723</ele>
        <time>2016-05-22T09:54:55Z</time>
      </trkpt>
      <trkpt lat="45.83506" lon="4.80204">
        <ele>504.79364</ele>
        <time>2016-05-22T09:54:57Z</time>
      </trkpt>
      <trkpt lat="45.83507" lon="4.80221">
        <ele>503.64209</ele>
        <time>2016-05-22T09:54:59Z</time>
      </trkpt>
      <trkpt lat="45.83507" lon="4.80238">
        <ele>501.998352</ele>
        <time>2016-05-22T09:55:01Z</time>
      </trkpt>
      <trkpt lat="45.83509" lon="4.80254">
        <ele>501.003021</ele>
        <time>2016-05-22T09:55:03Z</time>
      </trkpt>
      <trkpt lat="45.83514" lon="4.80267">
        <ele>499.201752</ele>
        <time>2016-05-22T09:55:05Z</time>
      </trkpt>
      <trkpt lat="45.8352" lon="4.80282">
        <ele>497.354187</ele>
        <time>2016-05-22T09:55:07Z</time>
      </trkpt>
      <trkpt lat="45.83526" lon="4.80297">
        <ele>495.167969</ele>
        <time>2016-05-22T09:55:09Z</time>
      </trkpt>
      <trkpt lat="45.83533" lon="4.80313">
        <ele>493.261536</ele>
        <time>2016-05-22T09:55:11Z</time>
      </trkpt>
      <trkpt lat="45.83541" lon="4.80329">
        <ele>492.022278</ele>
        <time>2016-05-22T09:55:13Z</time>
      </trkpt>
      <trkpt lat="45.83548" lon="4.80344">
        <ele>491.508057</ele>
        <time>2016-05-22T09:55:15Z</time>
      </trkpt>
      <trkpt lat="45.83556" lon="4.80357">
        <ele>490.434662</ele>
        <time>2016-05-22T09:55:17Z</time>
      </trkpt>
      <trkpt lat="45.83566" lon="4.80364">
        <ele>488.675049</ele>
        <time>2016-05-22T09:55:19Z</time>
      </trkpt>
      <trkpt lat="45.83575" lon="4.80366">
        <ele>487.052307</ele>
        <time>2016-05-22T09:55:21Z</time>
      </trkpt>
      <trkpt lat="45.83583" lon="4.80379">
        <ele>485.855896</ele>
        <time>2016-05-22T09:55:23Z</time>
      </trkpt>
      <trkpt lat="45.83589" lon="4.80396">
        <ele>485.108734</ele>
        <time>2016-05-22T09:55:25Z</time>
      </trkpt>
      <trkpt lat="45.83596" lon="4.80411">
        <ele>483.888916</ele>
        <time>2016-05-22T09:55:27Z</time>
      </trkpt>
      <trkpt lat="45.83598" lon="4.80421">
        <ele>483.558685</ele>
        <time>2016-05-22T09:55:29Z</time>
      </trkpt>
      <trkpt lat="45.83596" lon="4.80426">
        <ele>482.470032</ele>
        <time>2016-05-22T09:55:31Z</time>
      </trkpt>
      <trkpt lat="45.83592" lon="4.80428">
        <ele>481.50824</ele>
        <time>2016-05-22T09:55:33Z</time>
      </trkpt>
      <trkpt lat="45.83588" lon="4.8043">
        <ele>481.018951</ele>
        <time>2016-05-22T09:55:35Z</time>
      </trkpt>
      <trkpt lat="45.83584" lon="4.80434">
        <ele>479.819244</ele>
        <time>2016-05-22T09:55:37Z</time>
      </trkpt>
      <trkpt lat="45.83576" lon="4.80438">
        <ele>479.305847</ele>
        <time>2016-05-22T09:55:39Z</time>
      </trkpt>
      <trkpt lat="45.83566" lon="4.80443">
        <ele>477.975769</ele>
        <time>2016-05-22T09:55:41Z</time>
      </trkpt>
      <trkpt lat="45.83556" lon="4.80451">
        <ele>476.732819</ele>
        <time>2016-05-22T09:55:43Z</time>
      </trkpt>
      <trkpt lat="45.83548" lon="4.80458">
        <ele>475.951324</ele>
        <time>2016-05-22T09:55:45Z</time>
      </trkpt>
      <trkpt lat="45.8354" lon="4.80463">
        <ele>475.475281</ele>
        <time>2016-05-22T09:55:47Z</time>
      </trkpt>
      <trkpt lat="45.83532" lon="4.80472">
        <ele>473.995911</ele>
        <time>2016-05-22T09:55:49Z</time>
      </trkpt>
      <trkpt lat="45.83522" lon="4.80482">
        <ele>473.758057</ele>
        <time>2016-05-22T09:55:51Z</time>
      </trkpt>
      <trkpt lat="45.83514" lon="4.80489">
        <ele>472.970123</ele>
        <time>2016-05-22T09:55:53Z</time>
      </trkpt>
      <trkpt lat="45.83505" lon="4.80497">
        <ele>471.279358</ele>
        <time>2016-05-22T09:55:55Z</time>
      </trkpt>
      <trkpt lat="45.83495" lon="4.80503">
        <ele>469.851135</ele>
        <time>2016-05-22T09:55:57Z</time>
      </trkpt>
      <trkpt lat="45.83483" lon="4.80509">
        <ele>468.300934</ele>
        <time>2016-05-22T09:55:59Z</time>
      </trkpt>
      <trkpt lat="45.83471" lon="4.80513">
        <ele>468.249847</ele>
        <time>2016-05-22T09:56:01Z</time>
      </trkpt>
      <trkpt lat="45.83461" lon="4.80515">
        <ele>467.161438</ele>
        <time>2016-05-22T09:56:03Z</time>
      </trkpt>
      <trkpt lat="45.83452" lon="4.8052">
        <ele>465.935364</ele>
        <time>2016-05-22T09:56:05Z</time>
      </trkpt>
      <trkpt lat="45.83445" lon="4.80526">
        <ele>464.462708</ele>
        <time>2016-05-22T09:56:07Z</time>
      </trkpt>
      <trkpt lat="45.83437" lon="4.80533">
        <ele>463.507233</ele>
        <time>2016-05-22T09:56:09Z</time>
      </trkpt>
      <trkpt lat="45.83431" lon="4.80539">
        <ele>461.999817</ele>
        <time>2016-05-22T09:56:11Z</time>
      </trkpt>
      <trkpt lat="45.83424" lon="4.80542">
        <ele>461.317963</ele>
        <time>2016-05-22T09:56:13Z</time>
      </trkpt>
      <trkpt lat="45.83416" lon="4.80545">
        <ele>459.830505</ele>
        <time>2016-05-22T09:56:15Z</time>
      </trkpt>
      <trkpt lat="45.83407" lon="4.80549">
        <ele>458.71283</ele>
        <time>2016-05-22T09:56:17Z</time>
      </trkpt>
      <trkpt lat="45.83397" lon="4.80553">
        <ele>457.361481</ele>
        <time>2016-05-22T09:56:19Z</time>
      </trkpt>
      <trkpt lat="45.83389" lon="4.80557">
        <ele>455.854828</ele>
        <time>2016-05-22T09:56:21Z</time>
      </trkpt>
      <trkpt lat="45.83383" lon="4.80562">
        <ele>454.980652</ele>
        <time>2016-05-22T09:56:23Z</time>
      </trkpt>
      <trkpt lat="45.83383" lon="4.80569">
        <ele>453.858643</ele>
        <time>2016-05-22T09:56:25Z</time>
      </trkpt>
      <trkpt lat="45.83385" lon="4.80576">
        <ele>451.818176</ele>
        <time>2016-05-22T09:56:27Z</time>
      </trkpt>
      <trkpt lat="45.83386" lon="4.80598">
        <ele>451.130676</ele>
        <time>2016-05-22T09:56:31Z</time>
      </trkpt>
      <trkpt lat="45.83386" lon="4.80612">
        <ele>450.69635</ele>
        <time>2016-05-22T09:56:33Z</time>
      </trkpt>
      <trkpt lat="45.83387" lon="4.80627">
        <ele>449.523773</ele>
        <time>2016-05-22T09:56:35Z</time>
      </trkpt>
      <trkpt lat="45.83389" lon="4.80641">
        <ele>449.264557</ele>
        <time>2016-05-22T09:56:37Z</time>
      </trkpt>
      <trkpt lat="45.8339" lon="4.80655">
        <ele>448.920258</ele>
        <time>2016-05-22T09:56:39Z</time>
      </trkpt>
      <trkpt lat="45.83394" lon="4.80667">
        <ele>448.427643</ele>
        <time>2016-05-22T09:56:41Z</time>
      </trkpt>
      <trkpt lat="45.834" lon="4.80678">
        <ele>447.729492</ele>
        <time>2016-05-22T09:56:43Z</time>
      </trkpt>
      <trkpt lat="45.83406" lon="4.80691">
        <ele>447.016998</ele>
        <time>2016-05-22T09:56:45Z</time>
      </trkpt>
      <trkpt lat="45.83411" lon="4.80703">
        <ele>446.646667</ele>
        <time>2016-05-22T09:56:47Z</time>
      </trkpt>
      <trkpt lat="45.83415" lon="4.80709">
        <ele>446.132996</ele>
        <time>2016-05-22T09:56:49Z</time>
      </trkpt>
      <trkpt lat="45.83417" lon="4.80713">
        <ele>445.63092</ele>
        <time>2016-05-22T09:56:51Z</time>
      </trkpt>
      <trkpt lat="45.83417" lon="4.80716">
        <ele>445.445007</ele>
        <time>2016-05-22T09:56:53Z</time>
      </trkpt>
      <trkpt lat="45.83414" lon="4.80722">
        <ele>443.316986</ele>
        <time>2016-05-22T09:57:07Z</time>
      </trkpt>
      <trkpt lat="45.83413" lon="4.80725">
        <ele>443.144043</ele>
        <time>2016-05-22T09:57:11Z</time>
      </trkpt>
      <trkpt lat="45.8341" lon="4.80729">
        <ele>443.059998</ele>
        <time>2016-05-22T09:57:15Z</time>
      </trkpt>
      <trkpt lat="45.83405" lon="4.80734">
        <ele>442.874817</ele>
        <time>2016-05-22T09:57:17Z</time>
      </trkpt>
      <trkpt lat="45.83398" lon="4.80742">
        <ele>442.829834</ele>
        <time>2016-05-22T09:57:19Z</time>
      </trkpt>
      <trkpt lat="45.83389" lon="4.80751">
        <ele>442.733337</ele>
        <time>2016-05-22T09:57:21Z</time>
      </trkpt>
      <trkpt lat="45.8338" lon="4.80759">
        <ele>442.739899</ele>
        <time>2016-05-22T09:57:23Z</time>
      </trkpt>
      <trkpt lat="45.8337" lon="4.80768">
        <ele>441.780853</ele>
        <time>2016-05-22T09:57:25Z</time>
      </trkpt>
      <trkpt lat="45.8336" lon="4.80779">
        <ele>441.986511</ele>
        <time>2016-05-22T09:57:27Z</time>
      </trkpt>
      <trkpt lat="45.8335" lon="4.80789">
        <ele>441.83847</ele>
        <time>2016-05-22T09:57:29Z</time>
      </trkpt>
      <trkpt lat="45.83339" lon="4.808">
        <ele>441.814056</ele>
        <time>2016-05-22T09:57:31Z</time>
      </trkpt>
      <trkpt lat="45.8333" lon="4.8081">
        <ele>441.455139</ele>
        <time>2016-05-22T09:57:33Z</time>
      </trkpt>
      <trkpt lat="45.83323" lon="4.80819">
        <ele>441.151123</ele>
        <time>2016-05-22T09:57:35Z</time>
      </trkpt>
      <trkpt lat="45.83316" lon="4.80826">
        <ele>440.933533</ele>
        <time>2016-05-22T09:57:37Z</time>
      </trkpt>
      <trkpt lat="45.8331" lon="4.80834">
        <ele>440.273254</ele>
        <time>2016-05-22T09:57:39Z</time>
      </trkpt>
      <trkpt lat="45.83303" lon="4.80841">
        <ele>439.329346</ele>
        <time>2016-05-22T09:57:41Z</time>
      </trkpt>
      <trkpt lat="45.83298" lon="4.80841">
        <ele>438.883453</ele>
        <time>2016-05-22T09:57:43Z</time>
      </trkpt>
      <trkpt lat="45.83295" lon="4.80834">
        <ele>438.16095</ele>
        <time>2016-05-22T09:57:45Z</time>
      </trkpt>
      <trkpt lat="45.83292" lon="4.80824">
        <ele>436.967224</ele>
        <time>2016-05-22T09:57:47Z</time>
      </trkpt>
      <trkpt lat="45.8329" lon="4.80817">
        <ele>435.932129</ele>
        <time>2016-05-22T09:57:49Z</time>
      </trkpt>
      <trkpt lat="45.83289" lon="4.80813">
        <ele>435.4776</ele>
        <time>2016-05-22T09:57:51Z</time>
      </trkpt>
      <trkpt lat="45.83288" lon="4.8081">
        <ele>434.522461</ele>
        <time>2016-05-22T09:57:53Z</time>
      </trkpt>
      <trkpt lat="45.83288" lon="4.80807">
        <ele>433.550873</ele>
        <time>2016-05-22T09:57:55Z</time>
      </trkpt>
      <trkpt lat="45.83287" lon="4.80803">
        <ele>432.709167</ele>
        <time>2016-05-22T09:57:57Z</time>
      </trkpt>
      <trkpt lat="45.83286" lon="4.80801">
        <ele>431.879639</ele>
        <time>2016-05-22T09:57:59Z</time>
      </trkpt>
      <trkpt lat="45.83285" lon="4.80799">
        <ele>430.92041</ele>
        <time>2016-05-22T09:58:01Z</time>
      </trkpt>
      <trkpt lat="45.83284" lon="4.80796">
        <ele>429.638367</ele>
        <time>2016-05-22T09:58:05Z</time>
      </trkpt>
      <trkpt lat="45.83281" lon="4.80795">
        <ele>428.822601</ele>
        <time>2016-05-22T09:58:07Z</time>
      </trkpt>
      <trkpt lat="45.8328" lon="4.80793">
        <ele>428.23941</ele>
        <time>2016-05-22T09:58:09Z</time>
      </trkpt>
      <trkpt lat="45.83279" lon="4.80791">
        <ele>427.888672</ele>
        <time>2016-05-22T09:58:11Z</time>
      </trkpt>
      <trkpt lat="45.83278" lon="4.80788">
        <ele>427.388275</ele>
        <time>2016-05-22T09:58:13Z</time>
      </trkpt>
      <trkpt lat="45.83276" lon="4.80786">
        <ele>426.667816</ele>
        <time>2016-05-22T09:58:15Z</time>
      </trkpt>
      <trkpt lat="45.83275" lon="4.80786">
        <ele>426.2435</ele>
        <time>2016-05-22T09:58:17Z</time>
      </trkpt>
      <trkpt lat="45.83273" lon="4.80786">
        <ele>425.837982</ele>
        <time>2016-05-22T09:58:19Z</time>
      </trkpt>
      <trkpt lat="45.8327" lon="4.80789">
        <ele>425.304779</ele>
        <time>2016-05-22T09:58:21Z</time>
      </trkpt>
      <trkpt lat="45.83266" lon="4.80788">
        <ele>425.015472</ele>
        <time>2016-05-22T09:58:23Z</time>
      </trkpt>
      <trkpt lat="45.83262" lon="4.80784">
        <ele>425.28717</ele>
        <time>2016-05-22T09:58:25Z</time>
      </trkpt>
      <trkpt lat="45.83257" lon="4.80782">
        <ele>425.177551</ele>
        <time>2016-05-22T09:58:27Z</time>
      </trkpt>
      <trkpt lat="45.8325" lon="4.80784">
        <ele>425.570862</ele>
        <time>2016-05-22T09:58:29Z</time>
      </trkpt>
      <trkpt lat="45.83243" lon="4.80789">
        <ele>425.764221</ele>
        <time>2016-05-22T09:58:31Z</time>
      </trkpt>
      <trkpt lat="45.83236" lon="4.80798">
        <ele>425.976227</ele>
        <time>2016-05-22T09:58:33Z</time>
      </trkpt>
      <trkpt lat="45.83228" lon="4.80811">
        <ele>425.803802</ele>
        <time>2016-05-22T09:58:35Z</time>
      </trkpt>
      <trkpt lat="45.8322" lon="4.80822">
        <ele>425.768158</ele>
        <time>2016-05-22T09:58:37Z</time>
      </trkpt>
      <trkpt lat="45.83211" lon="4.80827">
        <ele>425.708832</ele>
        <time>2016-05-22T09:58:39Z</time>
      </trkpt>
      <trkpt lat="45.83207" lon="4.80834">
        <ele>425.569641</ele>
        <time>2016-05-22T09:58:41Z</time>
      </trkpt>
      <trkpt lat="45.83205" lon="4.80843">
        <ele>425.350189</ele>
        <time>2016-05-22T09:58:43Z</time>
      </trkpt>
      <trkpt lat="45.83201" lon="4.80849">
        <ele>425.162262</ele>
        <time>2016-05-22T09:58:45Z</time>
      </trkpt>
      <trkpt lat="45.83194" lon="4.80852">
        <ele>424.721283</ele>
        <time>2016-05-22T09:58:47Z</time>
      </trkpt>
      <trkpt lat="45.83189" lon="4.80859">
        <ele>424.297546</ele>
        <time>2016-05-22T09:58:49Z</time>
      </trkpt>
      <trkpt lat="45.83182" lon="4.80865">
        <ele>423.625092</ele>
        <time>2016-05-22T09:58:51Z</time>
      </trkpt>
      <trkpt lat="45.83179" lon="4.80878">
        <ele>422.439545</ele>
        <time>2016-05-22T09:58:53Z</time>
      </trkpt>
      <trkpt lat="45.8318" lon="4.80894">
        <ele>420.634277</ele>
        <time>2016-05-22T09:58:55Z</time>
      </trkpt>
      <trkpt lat="45.83177" lon="4.80913">
        <ele>420.070862</ele>
        <time>2016-05-22T09:58:57Z</time>
      </trkpt>
      <trkpt lat="45.83172" lon="4.80929">
        <ele>419.347961</ele>
        <time>2016-05-22T09:58:59Z</time>
      </trkpt>
      <trkpt lat="45.83165" lon="4.80942">
        <ele>418.14679</ele>
        <time>2016-05-22T09:59:01Z</time>
      </trkpt>
      <trkpt lat="45.83156" lon="4.80951">
        <ele>417.150543</ele>
        <time>2016-05-22T09:59:03Z</time>
      </trkpt>
      <trkpt lat="45.83146" lon="4.8096">
        <ele>416.037109</ele>
        <time>2016-05-22T09:59:05Z</time>
      </trkpt>
      <trkpt lat="45.83135" lon="4.80967">
        <ele>414.992004</ele>
        <time>2016-05-22T09:59:07Z</time>
      </trkpt>
      <trkpt lat="45.83127" lon="4.80971">
        <ele>413.599915</ele>
        <time>2016-05-22T09:59:09Z</time>
      </trkpt>
      <trkpt lat="45.83123" lon="4.80974">
        <ele>412.20636</ele>
        <time>2016-05-22T09:59:11Z</time>
      </trkpt>
      <trkpt lat="45.8312" lon="4.80978">
        <ele>410.775726</ele>
        <time>2016-05-22T09:59:13Z</time>
      </trkpt>
      <trkpt lat="45.83116" lon="4.80982">
        <ele>409.485016</ele>
        <time>2016-05-22T09:59:15Z</time>
      </trkpt>
      <trkpt lat="45.83111" lon="4.80987">
        <ele>408.141022</ele>
        <time>2016-05-22T09:59:17Z</time>
      </trkpt>
      <trkpt lat="45.83107" lon="4.80991">
        <ele>407.194</ele>
        <time>2016-05-22T09:59:19Z</time>
      </trkpt>
      <trkpt lat="45.83103" lon="4.80997">
        <ele>406.720917</ele>
        <time>2016-05-22T09:59:21Z</time>
      </trkpt>
      <trkpt lat="45.831" lon="4.81002">
        <ele>405.5737</ele>
        <time>2016-05-22T09:59:23Z</time>
      </trkpt>
      <trkpt lat="45.83096" lon="4.81007">
        <ele>404.49118</ele>
        <time>2016-05-22T09:59:25Z</time>
      </trkpt>
      <trkpt lat="45.83092" lon="4.81013">
        <ele>403.665344</ele>
        <time>2016-05-22T09:59:27Z</time>
      </trkpt>
      <trkpt lat="45.83089" lon="4.81017">
        <ele>402.936157</ele>
        <time>2016-05-22T09:59:29Z</time>
      </trkpt>
      <trkpt lat="45.83086" lon="4.81022">
        <ele>402.646545</ele>
        <time>2016-05-22T09:59:31Z</time>
      </trkpt>
      <trkpt lat="45.83083" lon="4.81027">
        <ele>401.883057</ele>
        <time>2016-05-22T09:59:33Z</time>
      </trkpt>
      <trkpt lat="45.8308" lon="4.81031">
        <ele>401.388031</ele>
        <time>2016-05-22T09:59:35Z</time>
      </trkpt>
      <trkpt lat="45.83077" lon="4.81035">
        <ele>401.325134</ele>
        <time>2016-05-22T09:59:37Z</time>
      </trkpt>
      <trkpt lat="45.83073" lon="4.81038">
        <ele>401.88205</ele>
        <time>2016-05-22T09:59:39Z</time>
      </trkpt>
      <trkpt lat="45.83071" lon="4.8104">
        <ele>401.595306</ele>
        <time>2016-05-22T09:59:41Z</time>
      </trkpt>
      <trkpt lat="45.83069" lon="4.81042">
        <ele>401.339661</ele>
        <time>2016-05-22T09:59:43Z</time>
      </trkpt>
      <trkpt lat="45.83065" lon="4.81044">
        <ele>401.37915</ele>
        <time>2016-05-22T09:59:45Z</time>
      </trkpt>
      <trkpt lat="45.83062" lon="4.81045">
        <ele>401.239716</ele>
        <time>2016-05-22T09:59:47Z</time>
      </trkpt>
      <trkpt lat="45.8306" lon="4.81046">
        <ele>401.786591</ele>
        <time>2016-05-22T09:59:49Z</time>
      </trkpt>
      <trkpt lat="45.83057" lon="4.81046">
        <ele>401.971375</ele>
        <time>2016-05-22T09:59:51Z</time>
      </trkpt>
      <trkpt lat="45.83054" lon="4.81048">
        <ele>402.101471</ele>
        <time>2016-05-22T09:59:53Z</time>
      </trkpt>
      <trkpt lat="45.83051" lon="4.81049">
        <ele>402.376434</ele>
        <time>2016-05-22T09:59:55Z</time>
      </trkpt>
      <trkpt lat="45.83049" lon="4.8105">
        <ele>402.677856</ele>
        <time>2016-05-22T09:59:57Z</time>
      </trkpt>
      <trkpt lat="45.83046" lon="4.81051">
        <ele>402.903381</ele>
        <time>2016-05-22T09:59:59Z</time>
      </trkpt>
      <trkpt lat="45.83044" lon="4.81052">
        <ele>403.274109</ele>
        <time>2016-05-22T10:00:01Z</time>
      </trkpt>
      <trkpt lat="45.83042" lon="4.81052">
        <ele>403.58429</ele>
        <time>2016-05-22T10:00:03Z</time>
      </trkpt>
      <trkpt lat="45.8304" lon="4.81053">
        <ele>403.944092</ele>
        <time>2016-05-22T10:00:05Z</time>
      </trkpt>
      <trkpt lat="45.83038" lon="4.81054">
        <ele>404.355896</ele>
        <time>2016-05-22T10:00:07Z</time>
      </trkpt>
      <trkpt lat="45.83035" lon="4.81056">
        <ele>404.720276</ele>
        <time>2016-05-22T10:00:09Z</time>
      </trkpt>
      <trkpt lat="45.83032" lon="4.81057">
        <ele>404.869934</ele>
        <time>2016-05-22T10:00:11Z</time>
      </trkpt>
      <trkpt lat="45.83029" lon="4.81058">
        <ele>405.02179</ele>
        <time>2016-05-22T10:00:13Z</time>
      </trkpt>
      <trkpt lat="45.83026" lon="4.81059">
        <ele>405.359558</ele>
        <time>2016-05-22T10:00:15Z</time>
      </trkpt>
      <trkpt lat="45.83024" lon="4.81061">
        <ele>405.791199</ele>
        <time>2016-05-22T10:00:17Z</time>
      </trkpt>
      <trkpt lat="45.83021" lon="4.81062">
        <ele>406.216309</ele>
        <time>2016-05-22T10:00:19Z</time>
      </trkpt>
      <trkpt lat="45.83017" lon="4.81063">
        <ele>406.509155</ele>
        <time>2016-05-22T10:00:21Z</time>
      </trkpt>
      <trkpt lat="45.83014" lon="4.81064">
        <ele>406.910461</ele>
        <time>2016-05-22T10:00:23Z</time>
      </trkpt>
      <trkpt lat="45.83011" lon="4.81064">
        <ele>407.166473</ele>
        <time>2016-05-22T10:00:25Z</time>
      </trkpt>
      <trkpt lat="45.83008" lon="4.81065">
        <ele>407.455017</ele>
        <time>2016-05-22T10:00:27Z</time>
      </trkpt>
      <trkpt lat="45.83005" lon="4.81065">
        <ele>407.583038</ele>
        <time>2016-05-22T10:00:29Z</time>
      </trkpt>
      <trkpt lat="45.83002" lon="4.81066">
        <ele>407.814819</ele>
        <time>2016-05-22T10:00:31Z</time>
      </trkpt>
      <trkpt lat="45.82999" lon="4.81067">
        <ele>408.096893</ele>
        <time>2016-05-22T10:00:33Z</time>
      </trkpt>
      <trkpt lat="45.82996" lon="4.81068">
        <ele>408.346405</ele>
        <time>2016-05-22T10:00:35Z</time>
      </trkpt>
      <trkpt lat="45.82993" lon="4.8107">
        <ele>408.798126</ele>
        <time>2016-05-22T10:00:37Z</time>
      </trkpt>
      <trkpt lat="45.8299" lon="4.81072">
        <ele>409.070435</ele>
        <time>2016-05-22T10:00:39Z</time>
      </trkpt>
      <trkpt lat="45.82987" lon="4.81074">
        <ele>409.480591</ele>
        <time>2016-05-22T10:00:41Z</time>
      </trkpt>
      <trkpt lat="45.82983" lon="4.81075">
        <ele>409.675934</ele>
        <time>2016-05-22T10:00:43Z</time>
      </trkpt>
      <trkpt lat="45.8298" lon="4.81077">
        <ele>409.945618</ele>
        <time>2016-05-22T10:00:45Z</time>
      </trkpt>
      <trkpt lat="45.82977" lon="4.81079">
        <ele>410.214691</ele>
        <time>2016-05-22T10:00:47Z</time>
      </trkpt>
      <trkpt lat="45.82974" lon="4.81081">
        <ele>410.551117</ele>
        <time>2016-05-22T10:00:49Z</time>
      </trkpt>
      <trkpt lat="45.82971" lon="4.81083">
        <ele>410.881012</ele>
        <time>2016-05-22T10:00:51Z</time>
      </trkpt>
      <trkpt lat="45.82969" lon="4.81085">
        <ele>411.104553</ele>
        <time>2016-05-22T10:00:53Z</time>
      </trkpt>
      <trkpt lat="45.82966" lon="4.81088">
        <ele>411.490814</ele>
        <time>2016-05-22T10:00:55Z</time>
      </trkpt>
      <trkpt lat="45.82963" lon="4.8109">
        <ele>411.815521</ele>
        <time>2016-05-22T10:00:57Z</time>
      </trkpt>
      <trkpt lat="45.82961" lon="4.81091">
        <ele>412.143311</ele>
        <time>2016-05-22T10:00:59Z</time>
      </trkpt>
      <trkpt lat="45.82958" lon="4.81093">
        <ele>412.28009</ele>
        <time>2016-05-22T10:01:01Z</time>
      </trkpt>
      <trkpt lat="45.82955" lon="4.81094">
        <ele>412.573547</ele>
        <time>2016-05-22T10:01:03Z</time>
      </trkpt>
      <trkpt lat="45.82952" lon="4.81095">
        <ele>412.820984</ele>
        <time>2016-05-22T10:01:05Z</time>
      </trkpt>
      <trkpt lat="45.82949" lon="4.81097">
        <ele>413.231262</ele>
        <time>2016-05-22T10:01:07Z</time>
      </trkpt>
      <trkpt lat="45.82946" lon="4.81098">
        <ele>413.625824</ele>
        <time>2016-05-22T10:01:09Z</time>
      </trkpt>
      <trkpt lat="45.82943" lon="4.81099">
        <ele>413.968811</ele>
        <time>2016-05-22T10:01:11Z</time>
      </trkpt>
      <trkpt lat="45.82941" lon="4.81099">
        <ele>414.331635</ele>
        <time>2016-05-22T10:01:13Z</time>
      </trkpt>
      <trkpt lat="45.82938" lon="4.811">
        <ele>414.527039</ele>
        <time>2016-05-22T10:01:15Z</time>
      </trkpt>
      <trkpt lat="45.82935" lon="4.81101">
        <ele>414.866364</ele>
        <time>2016-05-22T10:01:17Z</time>
      </trkpt>
      <trkpt lat="45.82931" lon="4.81102">
        <ele>415.155182</ele>
        <time>2016-05-22T10:01:19Z</time>
      </trkpt>
      <trkpt lat="45.82927" lon="4.81103">
        <ele>415.513428</ele>
        <time>2016-05-22T10:01:21Z</time>
      </trkpt>
      <trkpt lat="45.82924" lon="4.81104">
        <ele>415.859772</ele>
        <time>2016-05-22T10:01:23Z</time>
      </trkpt>
      <trkpt lat="45.82919" lon="4.81105">
        <ele>415.97052</ele>
        <time>2016-05-22T10:01:25Z</time>
      </trkpt>
      <trkpt lat="45.82916" lon="4.81106">
        <ele>416.303864</ele>
        <time>2016-05-22T10:01:27Z</time>
      </trkpt>
      <trkpt lat="45.82912" lon="4.81107">
        <ele>416.653473</ele>
        <time>2016-05-22T10:01:29Z</time>
      </trkpt>
      <trkpt lat="45.82908" lon="4.81108">
        <ele>416.97052</ele>
        <time>2016-05-22T10:01:31Z</time>
      </trkpt>
      <trkpt lat="45.82905" lon="4.81109">
        <ele>417.437439</ele>
        <time>2016-05-22T10:01:33Z</time>
      </trkpt>
      <trkpt lat="45.82902" lon="4.81111">
        <ele>417.871765</ele>
        <time>2016-05-22T10:01:35Z</time>
      </trkpt>
      <trkpt lat="45.829" lon="4.81112">
        <ele>418.197601</ele>
        <time>2016-05-22T10:01:37Z</time>
      </trkpt>
      <trkpt lat="45.82898" lon="4.81113">
        <ele>418.395264</ele>
        <time>2016-05-22T10:01:39Z</time>
      </trkpt>
      <trkpt lat="45.82895" lon="4.81112">
        <ele>418.770599</ele>
        <time>2016-05-22T10:01:41Z</time>
      </trkpt>
      <trkpt lat="45.8289" lon="4.81112">
        <ele>419.178955</ele>
        <time>2016-05-22T10:01:43Z</time>
      </trkpt>
      <trkpt lat="45.82885" lon="4.81112">
        <ele>419.443451</ele>
        <time>2016-05-22T10:01:45Z</time>
      </trkpt>
      <trkpt lat="45.82882" lon="4.8111">
        <ele>419.677979</ele>
        <time>2016-05-22T10:01:47Z</time>
      </trkpt>
      <trkpt lat="45.82879" lon="4.81108">
        <ele>419.849548</ele>
        <time>2016-05-22T10:01:49Z</time>
      </trkpt>
      <trkpt lat="45.82874" lon="4.81107">
        <ele>420.044037</ele>
        <time>2016-05-22T10:01:51Z</time>
      </trkpt>
      <trkpt lat="45.82869" lon="4.81109">
        <ele>420.235199</ele>
        <time>2016-05-22T10:01:53Z</time>
      </trkpt>
      <trkpt lat="45.82862" lon="4.81113">
        <ele>420.474121</ele>
        <time>2016-05-22T10:01:55Z</time>
      </trkpt>
      <trkpt lat="45.82856" lon="4.81118">
        <ele>420.593567</ele>
        <time>2016-05-22T10:01:57Z</time>
      </trkpt>
      <trkpt lat="45.8285" lon="4.81124">
        <ele>420.650452</ele>
        <time>2016-05-22T10:01:59Z</time>
      </trkpt>
      <trkpt lat="45.82845" lon="4.8113">
        <ele>420.852631</ele>
        <time>2016-05-22T10:02:01Z</time>
      </trkpt>
      <trkpt lat="45.8284" lon="4.81136">
        <ele>421.028503</ele>
        <time>2016-05-22T10:02:03Z</time>
      </trkpt>
      <trkpt lat="45.82834" lon="4.81142">
        <ele>421.069763</ele>
        <time>2016-05-22T10:02:05Z</time>
      </trkpt>
      <trkpt lat="45.8283" lon="4.8115">
        <ele>421.184326</ele>
        <time>2016-05-22T10:02:07Z</time>
      </trkpt>
      <trkpt lat="45.82826" lon="4.81158">
        <ele>421.325928</ele>
        <time>2016-05-22T10:02:09Z</time>
      </trkpt>
      <trkpt lat="45.82822" lon="4.81166">
        <ele>421.297668</ele>
        <time>2016-05-22T10:02:11Z</time>
      </trkpt>
      <trkpt lat="45.82819" lon="4.81174">
        <ele>421.384583</ele>
        <time>2016-05-22T10:02:13Z</time>
      </trkpt>
      <trkpt lat="45.82815" lon="4.81182">
        <ele>421.427399</ele>
        <time>2016-05-22T10:02:15Z</time>
      </trkpt>
      <trkpt lat="45.82813" lon="4.8119">
        <ele>421.260101</ele>
        <time>2016-05-22T10:02:17Z</time>
      </trkpt>
      <trkpt lat="45.8281" lon="4.81198">
        <ele>421.302002</ele>
        <time>2016-05-22T10:02:19Z</time>
      </trkpt>
      <trkpt lat="45.82808" lon="4.81205">
        <ele>421.38678</ele>
        <time>2016-05-22T10:02:21Z</time>
      </trkpt>
      <trkpt lat="45.82806" lon="4.81213">
        <ele>421.467529</ele>
        <time>2016-05-22T10:02:23Z</time>
      </trkpt>
      <trkpt lat="45.82803" lon="4.8122">
        <ele>421.48056</ele>
        <time>2016-05-22T10:02:25Z</time>
      </trkpt>
      <trkpt lat="45.82801" lon="4.81227">
        <ele>421.500092</ele>
        <time>2016-05-22T10:02:27Z</time>
      </trkpt>
      <trkpt lat="45.82799" lon="4.81235">
        <ele>421.641174</ele>
        <time>2016-05-22T10:02:29Z</time>
      </trkpt>
      <trkpt lat="45.82797" lon="4.81242">
        <ele>421.822449</ele>
        <time>2016-05-22T10:02:31Z</time>
      </trkpt>
      <trkpt lat="45.82796" lon="4.81249">
        <ele>421.99292</ele>
        <time>2016-05-22T10:02:33Z</time>
      </trkpt>
      <trkpt lat="45.82795" lon="4.81256">
        <ele>422.26236</ele>
        <time>2016-05-22T10:02:35Z</time>
      </trkpt>
      <trkpt lat="45.82793" lon="4.81264">
        <ele>422.384033</ele>
        <time>2016-05-22T10:02:37Z</time>
      </trkpt>
      <trkpt lat="45.82792" lon="4.81272">
        <ele>422.570892</ele>
        <time>2016-05-22T10:02:39Z</time>
      </trkpt>
      <trkpt lat="45.82791" lon="4.8128">
        <ele>422.815979</ele>
        <time>2016-05-22T10:02:41Z</time>
      </trkpt>
      <trkpt lat="45.8279" lon="4.81287">
        <ele>422.910736</ele>
        <time>2016-05-22T10:02:43Z</time>
      </trkpt>
      <trkpt lat="45.82788" lon="4.81295">
        <ele>423.089539</ele>
        <time>2016-05-22T10:02:45Z</time>
      </trkpt>
      <trkpt lat="45.82786" lon="4.81302">
        <ele>423.456787</ele>
        <time>2016-05-22T10:02:47Z</time>
      </trkpt>
      <trkpt lat="45.82785" lon="4.8131">
        <ele>423.620544</ele>
        <time>2016-05-22T10:02:49Z</time>
      </trkpt>
      <trkpt lat="45.82784" lon="4.81317">
        <ele>423.875427</ele>
        <time>2016-05-22T10:02:51Z</time>
      </trkpt>
      <trkpt lat="45.82783" lon="4.81324">
        <ele>424.210052</ele>
        <time>2016-05-22T10:02:53Z</time>
      </trkpt>
      <trkpt lat="45.82782" lon="4.81332">
        <ele>424.581635</ele>
        <time>2016-05-22T10:02:55Z</time>
      </trkpt>
      <trkpt lat="45.82781" lon="4.81339">
        <ele>424.779968</ele>
        <time>2016-05-22T10:02:57Z</time>
      </trkpt>
      <trkpt lat="45.8278" lon="4.81346">
        <ele>425.122253</ele>
        <time>2016-05-22T10:02:59Z</time>
      </trkpt>
      <trkpt lat="45.82778" lon="4.81353">
        <ele>425.509186</ele>
        <time>2016-05-22T10:03:01Z</time>
      </trkpt>
      <trkpt lat="45.82777" lon="4.8136">
        <ele>425.780853</ele>
        <time>2016-05-22T10:03:03Z</time>
      </trkpt>
      <trkpt lat="45.82776" lon="4.81366">
        <ele>426.130798</ele>
        <time>2016-05-22T10:03:05Z</time>
      </trkpt>
      <trkpt lat="45.82774" lon="4.81373">
        <ele>426.489441</ele>
        <time>2016-05-22T10:03:07Z</time>
      </trkpt>
      <trkpt lat="45.82773" lon="4.81379">
        <ele>426.65683</ele>
        <time>2016-05-22T10:03:09Z</time>
      </trkpt>
      <trkpt lat="45.82772" lon="4.81386">
        <ele>426.97467</ele>
        <time>2016-05-22T10:03:11Z</time>
      </trkpt>
      <trkpt lat="45.82772" lon="4.81392">
        <ele>427.43335</ele>
        <time>2016-05-22T10:03:13Z</time>
      </trkpt>
      <trkpt lat="45.82772" lon="4.81397">
        <ele>427.832367</ele>
        <time>2016-05-22T10:03:15Z</time>
      </trkpt>
      <trkpt lat="45.82772" lon="4.81401">
        <ele>427.964996</ele>
        <time>2016-05-22T10:03:17Z</time>
      </trkpt>
      <trkpt lat="45.82773" lon="4.81404">
        <ele>428.330566</ele>
        <time>2016-05-22T10:03:19Z</time>
      </trkpt>
      <trkpt lat="45.82772" lon="4.81408">
        <ele>428.782776</ele>
        <time>2016-05-22T10:03:21Z</time>
      </trkpt>
      <trkpt lat="45.8277" lon="4.81412">
        <ele>429.074066</ele>
        <time>2016-05-22T10:03:23Z</time>
      </trkpt>
      <trkpt lat="45.8277" lon="4.81415">
        <ele>429.511078</ele>
        <time>2016-05-22T10:03:25Z</time>
      </trkpt>
      <trkpt lat="45.82769" lon="4.81419">
        <ele>429.919128</ele>
        <time>2016-05-22T10:03:27Z</time>
      </trkpt>
      <trkpt lat="45.82769" lon="4.81422">
        <ele>430.164856</ele>
        <time>2016-05-22T10:03:29Z</time>
      </trkpt>
      <trkpt lat="45.82769" lon="4.81425">
        <ele>430.476654</ele>
        <time>2016-05-22T10:03:31Z</time>
      </trkpt>
      <trkpt lat="45.82768" lon="4.81429">
        <ele>430.99765</ele>
        <time>2016-05-22T10:03:33Z</time>
      </trkpt>
      <trkpt lat="45.82767" lon="4.81432">
        <ele>431.388763</ele>
        <time>2016-05-22T10:03:35Z</time>
      </trkpt>
      <trkpt lat="45.82766" lon="4.81435">
        <ele>431.836731</ele>
        <time>2016-05-22T10:03:37Z</time>
      </trkpt>
      <trkpt lat="45.82765" lon="4.81438">
        <ele>431.984558</ele>
        <time>2016-05-22T10:03:39Z</time>
      </trkpt>
      <trkpt lat="45.82764" lon="4.81441">
        <ele>432.347229</ele>
        <time>2016-05-22T10:03:41Z</time>
      </trkpt>
      <trkpt lat="45.82764" lon="4.81444">
        <ele>432.789734</ele>
        <time>2016-05-22T10:03:43Z</time>
      </trkpt>
      <trkpt lat="45.82762" lon="4.81447">
        <ele>433.291351</ele>
        <time>2016-05-22T10:03:45Z</time>
      </trkpt>
      <trkpt lat="45.82761" lon="4.8145">
        <ele>433.756775</ele>
        <time>2016-05-22T10:03:47Z</time>
      </trkpt>
      <trkpt lat="45.82761" lon="4.81453">
        <ele>434.176605</ele>
        <time>2016-05-22T10:03:49Z</time>
      </trkpt>
      <trkpt lat="45.8276" lon="4.81456">
        <ele>434.421448</ele>
        <time>2016-05-22T10:03:51Z</time>
      </trkpt>
      <trkpt lat="45.82759" lon="4.8146">
        <ele>434.606293</ele>
        <time>2016-05-22T10:03:53Z</time>
      </trkpt>
      <trkpt lat="45.82758" lon="4.81463">
        <ele>435.049316</ele>
        <time>2016-05-22T10:03:55Z</time>
      </trkpt>
      <trkpt lat="45.82757" lon="4.81467">
        <ele>435.401764</ele>
        <time>2016-05-22T10:03:57Z</time>
      </trkpt>
      <trkpt lat="45.82756" lon="4.8147">
        <ele>435.780273</ele>
        <time>2016-05-22T10:03:59Z</time>
      </trkpt>
      <trkpt lat="45.82755" lon="4.81473">
        <ele>436.132324</ele>
        <time>2016-05-22T10:04:01Z</time>
      </trkpt>
      <trkpt lat="45.82755" lon="4.81477">
        <ele>436.445648</ele>
        <time>2016-05-22T10:04:03Z</time>
      </trkpt>
      <trkpt lat="45.82755" lon="4.8148">
        <ele>436.904724</ele>
        <time>2016-05-22T10:04:05Z</time>
      </trkpt>
      <trkpt lat="45.82754" lon="4.81484">
        <ele>437.176697</ele>
        <time>2016-05-22T10:04:07Z</time>
      </trkpt>
      <trkpt lat="45.82754" lon="4.81488">
        <ele>437.540466</ele>
        <time>2016-05-22T10:04:09Z</time>
      </trkpt>
      <trkpt lat="45.82753" lon="4.81491">
        <ele>437.977844</ele>
        <time>2016-05-22T10:04:11Z</time>
      </trkpt>
      <trkpt lat="45.82752" lon="4.81495">
        <ele>438.396973</ele>
        <time>2016-05-22T10:04:13Z</time>
      </trkpt>
      <trkpt lat="45.82752" lon="4.81499">
        <ele>438.773438</ele>
        <time>2016-05-22T10:04:15Z</time>
      </trkpt>
      <trkpt lat="45.82751" lon="4.81502">
        <ele>439.182556</ele>
        <time>2016-05-22T10:04:17Z</time>
      </trkpt>
      <trkpt lat="45.82749" lon="4.81504">
        <ele>439.382385</ele>
        <time>2016-05-22T10:04:19Z</time>
      </trkpt>
      <trkpt lat="45.82747" lon="4.81506">
        <ele>439.745911</ele>
        <time>2016-05-22T10:04:21Z</time>
      </trkpt>
      <trkpt lat="45.82744" lon="4.81507">
        <ele>440.181702</ele>
        <time>2016-05-22T10:04:23Z</time>
      </trkpt>
      <trkpt lat="45.82742" lon="4.8151">
        <ele>440.57782</ele>
        <time>2016-05-22T10:04:25Z</time>
      </trkpt>
      <trkpt lat="45.8274" lon="4.81512">
        <ele>440.917389</ele>
        <time>2016-05-22T10:04:27Z</time>
      </trkpt>
      <trkpt lat="45.82738" lon="4.81514">
        <ele>441.241699</ele>
        <time>2016-05-22T10:04:29Z</time>
      </trkpt>
      <trkpt lat="45.82735" lon="4.81516">
        <ele>441.589935</ele>
        <time>2016-05-22T10:04:31Z</time>
      </trkpt>
      <trkpt lat="45.82734" lon="4.81518">
        <ele>442.023102</ele>
        <time>2016-05-22T10:04:33Z</time>
      </trkpt>
      <trkpt lat="45.82731" lon="4.81519">
        <ele>442.204742</ele>
        <time>2016-05-22T10:04:35Z</time>
      </trkpt>
      <trkpt lat="45.82728" lon="4.81521">
        <ele>442.585358</ele>
        <time>2016-05-22T10:04:37Z</time>
      </trkpt>
      <trkpt lat="45.82726" lon="4.81523">
        <ele>442.885803</ele>
        <time>2016-05-22T10:04:39Z</time>
      </trkpt>
      <trkpt lat="45.82724" lon="4.81527">
        <ele>443.164398</ele>
        <time>2016-05-22T10:04:41Z</time>
      </trkpt>
      <trkpt lat="45.82724" lon="4.81531">
        <ele>443.510559</ele>
        <time>2016-05-22T10:04:43Z</time>
      </trkpt>
      <trkpt lat="45.82723" lon="4.81535">
        <ele>443.799988</ele>
        <time>2016-05-22T10:04:45Z</time>
      </trkpt>
      <trkpt lat="45.82723" lon="4.81538">
        <ele>444.095276</ele>
        <time>2016-05-22T10:04:47Z</time>
      </trkpt>
      <trkpt lat="45.82721" lon="4.81542">
        <ele>444.347839</ele>
        <time>2016-05-22T10:04:49Z</time>
      </trkpt>
      <trkpt lat="45.8272" lon="4.81545">
        <ele>444.756744</ele>
        <time>2016-05-22T10:04:51Z</time>
      </trkpt>
      <trkpt lat="45.82719" lon="4.81549">
        <ele>445.157379</ele>
        <time>2016-05-22T10:04:53Z</time>
      </trkpt>
      <trkpt lat="45.82719" lon="4.81553">
        <ele>445.486176</ele>
        <time>2016-05-22T10:04:55Z</time>
      </trkpt>
      <trkpt lat="45.82718" lon="4.81558">
        <ele>445.847717</ele>
        <time>2016-05-22T10:04:57Z</time>
      </trkpt>
      <trkpt lat="45.82716" lon="4.81562">
        <ele>446.22226</ele>
        <time>2016-05-22T10:04:59Z</time>
      </trkpt>
      <trkpt lat="45.82715" lon="4.81566">
        <ele>446.556152</ele>
        <time>2016-05-22T10:05:01Z</time>
      </trkpt>
      <trkpt lat="45.82714" lon="4.8157">
        <ele>446.63443</ele>
        <time>2016-05-22T10:05:03Z</time>
      </trkpt>
      <trkpt lat="45.82712" lon="4.81575">
        <ele>446.967468</ele>
        <time>2016-05-22T10:05:05Z</time>
      </trkpt>
      <trkpt lat="45.8271" lon="4.81578">
        <ele>447.306488</ele>
        <time>2016-05-22T10:05:07Z</time>
      </trkpt>
      <trkpt lat="45.82708" lon="4.81582">
        <ele>447.513428</ele>
        <time>2016-05-22T10:05:09Z</time>
      </trkpt>
      <trkpt lat="45.82707" lon="4.81587">
        <ele>447.715973</ele>
        <time>2016-05-22T10:05:11Z</time>
      </trkpt>
      <trkpt lat="45.82705" lon="4.81592">
        <ele>448.059967</ele>
        <time>2016-05-22T10:05:13Z</time>
      </trkpt>
      <trkpt lat="45.82704" lon="4.81596">
        <ele>448.375732</ele>
        <time>2016-05-22T10:05:15Z</time>
      </trkpt>
      <trkpt lat="45.82703" lon="4.81601">
        <ele>448.685059</ele>
        <time>2016-05-22T10:05:17Z</time>
      </trkpt>
      <trkpt lat="45.82702" lon="4.81606">
        <ele>448.852783</ele>
        <time>2016-05-22T10:05:19Z</time>
      </trkpt>
      <trkpt lat="45.82702" lon="4.81612">
        <ele>449.147888</ele>
        <time>2016-05-22T10:05:21Z</time>
      </trkpt>
      <trkpt lat="45.82701" lon="4.81617">
        <ele>449.483307</ele>
        <time>2016-05-22T10:05:23Z</time>
      </trkpt>
      <trkpt lat="45.827" lon="4.81623">
        <ele>449.731628</ele>
        <time>2016-05-22T10:05:25Z</time>
      </trkpt>
      <trkpt lat="45.82699" lon="4.81629">
        <ele>449.899353</ele>
        <time>2016-05-22T10:05:27Z</time>
      </trkpt>
      <trkpt lat="45.82698" lon="4.81634">
        <ele>450.190582</ele>
        <time>2016-05-22T10:05:29Z</time>
      </trkpt>
      <trkpt lat="45.82697" lon="4.81638">
        <ele>450.60318</ele>
        <time>2016-05-22T10:05:31Z</time>
      </trkpt>
      <trkpt lat="45.82696" lon="4.81644">
        <ele>450.718658</ele>
        <time>2016-05-22T10:05:33Z</time>
      </trkpt>
      <trkpt lat="45.82695" lon="4.8165">
        <ele>450.9086</ele>
        <time>2016-05-22T10:05:35Z</time>
      </trkpt>
      <trkpt lat="45.82694" lon="4.81656">
        <ele>451.141785</ele>
        <time>2016-05-22T10:05:37Z</time>
      </trkpt>
      <trkpt lat="45.82693" lon="4.81662">
        <ele>451.420715</ele>
        <time>2016-05-22T10:05:39Z</time>
      </trkpt>
      <trkpt lat="45.82692" lon="4.81668">
        <ele>451.56015</ele>
        <time>2016-05-22T10:05:41Z</time>
      </trkpt>
      <trkpt lat="45.82692" lon="4.81674">
        <ele>451.828217</ele>
        <time>2016-05-22T10:05:43Z</time>
      </trkpt>
      <trkpt lat="45.82691" lon="4.81679">
        <ele>452.168213</ele>
        <time>2016-05-22T10:05:45Z</time>
      </trkpt>
      <trkpt lat="45.8269" lon="4.81685">
        <ele>452.545227</ele>
        <time>2016-05-22T10:05:47Z</time>
      </trkpt>
      <trkpt lat="45.8269" lon="4.81691">
        <ele>452.686829</ele>
        <time>2016-05-22T10:05:49Z</time>
      </trkpt>
      <trkpt lat="45.82689" lon="4.81697">
        <ele>452.973785</ele>
        <time>2016-05-22T10:05:51Z</time>
      </trkpt>
      <trkpt lat="45.82689" lon="4.81702">
        <ele>453.36676</ele>
        <time>2016-05-22T10:05:53Z</time>
      </trkpt>
      <trkpt lat="45.82688" lon="4.81707">
        <ele>453.85498</ele>
        <time>2016-05-22T10:05:55Z</time>
      </trkpt>
      <trkpt lat="45.82687" lon="4.81713">
        <ele>454.077393</ele>
        <time>2016-05-22T10:05:57Z</time>
      </trkpt>
      <trkpt lat="45.82686" lon="4.81718">
        <ele>454.513916</ele>
        <time>2016-05-22T10:05:59Z</time>
      </trkpt>
      <trkpt lat="45.82686" lon="4.81724">
        <ele>454.812103</ele>
        <time>2016-05-22T10:06:01Z</time>
      </trkpt>
      <trkpt lat="45.82685" lon="4.8173">
        <ele>455.054047</ele>
        <time>2016-05-22T10:06:03Z</time>
      </trkpt>
      <trkpt lat="45.82684" lon="4.81735">
        <ele>455.424072</ele>
        <time>2016-05-22T10:06:05Z</time>
      </trkpt>
      <trkpt lat="45.82684" lon="4.81742">
        <ele>455.757507</ele>
        <time>2016-05-22T10:06:07Z</time>
      </trkpt>
      <trkpt lat="45.82683" lon="4.81747">
        <ele>456.171631</ele>
        <time>2016-05-22T10:06:09Z</time>
      </trkpt>
      <trkpt lat="45.82682" lon="4.81753">
        <ele>456.649017</ele>
        <time>2016-05-22T10:06:11Z</time>
      </trkpt>
      <trkpt lat="45.82681" lon="4.81758">
        <ele>456.961426</ele>
        <time>2016-05-22T10:06:13Z</time>
      </trkpt>
      <trkpt lat="45.82681" lon="4.81763">
        <ele>457.229584</ele>
        <time>2016-05-22T10:06:15Z</time>
      </trkpt>
      <trkpt lat="45.8268" lon="4.8177">
        <ele>457.458435</ele>
        <time>2016-05-22T10:06:17Z</time>
      </trkpt>
      <trkpt lat="45.82679" lon="4.81775">
        <ele>457.998596</ele>
        <time>2016-05-22T10:06:19Z</time>
      </trkpt>
      <trkpt lat="45.82678" lon="4.81781">
        <ele>458.3703</ele>
        <time>2016-05-22T10:06:21Z</time>
      </trkpt>
      <trkpt lat="45.82676" lon="4.81788">
        <ele>458.690765</ele>
        <time>2016-05-22T10:06:23Z</time>
      </trkpt>
      <trkpt lat="45.82675" lon="4.81794">
        <ele>459.115906</ele>
        <time>2016-05-22T10:06:25Z</time>
      </trkpt>
      <trkpt lat="45.82675" lon="4.81801">
        <ele>459.35791</ele>
        <time>2016-05-22T10:06:27Z</time>
      </trkpt>
      <trkpt lat="45.82674" lon="4.81807">
        <ele>459.595642</ele>
        <time>2016-05-22T10:06:29Z</time>
      </trkpt>
      <trkpt lat="45.82673" lon="4.81814">
        <ele>459.81723</ele>
        <time>2016-05-22T10:06:31Z</time>
      </trkpt>
      <trkpt lat="45.82672" lon="4.8182">
        <ele>460.426514</ele>
        <time>2016-05-22T10:06:33Z</time>
      </trkpt>
      <trkpt lat="45.82671" lon="4.81826">
        <ele>460.718658</ele>
        <time>2016-05-22T10:06:35Z</time>
      </trkpt>
      <trkpt lat="45.82669" lon="4.81833">
        <ele>460.917145</ele>
        <time>2016-05-22T10:06:37Z</time>
      </trkpt>
      <trkpt lat="45.82668" lon="4.81839">
        <ele>461.353271</ele>
        <time>2016-05-22T10:06:39Z</time>
      </trkpt>
      <trkpt lat="45.82665" lon="4.81846">
        <ele>461.518982</ele>
        <time>2016-05-22T10:06:41Z</time>
      </trkpt>
      <trkpt lat="45.82663" lon="4.81852">
        <ele>461.703033</ele>
        <time>2016-05-22T10:06:43Z</time>
      </trkpt>
      <trkpt lat="45.8266" lon="4.81858">
        <ele>461.94989</ele>
        <time>2016-05-22T10:06:45Z</time>
      </trkpt>
      <trkpt lat="45.82658" lon="4.81865">
        <ele>462.146332</ele>
        <time>2016-05-22T10:06:47Z</time>
      </trkpt>
      <trkpt lat="45.82656" lon="4.81872">
        <ele>462.436432</ele>
        <time>2016-05-22T10:06:49Z</time>
      </trkpt>
      <trkpt lat="45.82654" lon="4.81879">
        <ele>462.549866</ele>
        <time>2016-05-22T10:06:51Z</time>
      </trkpt>
      <trkpt lat="45.82653" lon="4.81886">
        <ele>462.980469</ele>
        <time>2016-05-22T10:06:53Z</time>
      </trkpt>
      <trkpt lat="45.82652" lon="4.81893">
        <ele>463.030853</ele>
        <time>2016-05-22T10:06:55Z</time>
      </trkpt>
      <trkpt lat="45.8265" lon="4.81902">
        <ele>463.314392</ele>
        <time>2016-05-22T10:06:57Z</time>
      </trkpt>
      <trkpt lat="45.82648" lon="4.8191">
        <ele>463.539063</ele>
        <time>2016-05-22T10:06:59Z</time>
      </trkpt>
      <trkpt lat="45.82645" lon="4.81918">
        <ele>463.617584</ele>
        <time>2016-05-22T10:07:01Z</time>
      </trkpt>
      <trkpt lat="45.82642" lon="4.81927">
        <ele>463.831055</ele>
        <time>2016-05-22T10:07:03Z</time>
      </trkpt>
      <trkpt lat="45.82639" lon="4.81938">
        <ele>464.058838</ele>
        <time>2016-05-22T10:07:05Z</time>
      </trkpt>
      <trkpt lat="45.82637" lon="4.81949">
        <ele>464.244232</ele>
        <time>2016-05-22T10:07:07Z</time>
      </trkpt>
      <trkpt lat="45.82634" lon="4.8196">
        <ele>464.362061</ele>
        <time>2016-05-22T10:07:09Z</time>
      </trkpt>
      <trkpt lat="45.82632" lon="4.81971">
        <ele>464.680573</ele>
        <time>2016-05-22T10:07:11Z</time>
      </trkpt>
      <trkpt lat="45.8263" lon="4.81982">
        <ele>464.591125</ele>
        <time>2016-05-22T10:07:13Z</time>
      </trkpt>
      <trkpt lat="45.82629" lon="4.81988">
        <ele>464.702942</ele>
        <time>2016-05-22T10:07:15Z</time>
      </trkpt>
      <trkpt lat="45.82628" lon="4.81992">
        <ele>464.604675</ele>
        <time>2016-05-22T10:07:17Z</time>
      </trkpt>
      <trkpt lat="45.82626" lon="4.82003">
        <ele>464.590149</ele>
        <time>2016-05-22T10:07:29Z</time>
      </trkpt>
      <trkpt lat="45.82626" lon="4.82007">
        <ele>464.534424</ele>
        <time>2016-05-22T10:07:31Z</time>
      </trkpt>
      <trkpt lat="45.82628" lon="4.82008">
        <ele>464.388275</ele>
        <time>2016-05-22T10:07:33Z</time>
      </trkpt>
      <trkpt lat="45.82632" lon="4.82008">
        <ele>464.324158</ele>
        <time>2016-05-22T10:07:35Z</time>
      </trkpt>
      <trkpt lat="45.82638" lon="4.82012">
        <ele>463.861481</ele>
        <time>2016-05-22T10:07:37Z</time>
      </trkpt>
      <trkpt lat="45.82641" lon="4.82016">
        <ele>463.752838</ele>
        <time>2016-05-22T10:07:39Z</time>
      </trkpt>
      <trkpt lat="45.82648" lon="4.82016">
        <ele>463.236084</ele>
        <time>2016-05-22T10:07:41Z</time>
      </trkpt>
      <trkpt lat="45.82653" lon="4.82018">
        <ele>462.983154</ele>
        <time>2016-05-22T10:07:43Z</time>
      </trkpt>
      <trkpt lat="45.82656" lon="4.82018">
        <ele>462.568512</ele>
        <time>2016-05-22T10:07:45Z</time>
      </trkpt>
      <trkpt lat="45.82659" lon="4.82015">
        <ele>461.650787</ele>
        <time>2016-05-22T10:07:47Z</time>
      </trkpt>
      <trkpt lat="45.82663" lon="4.8201">
        <ele>460.637451</ele>
        <time>2016-05-22T10:07:49Z</time>
      </trkpt>
      <trkpt lat="45.82667" lon="4.82004">
        <ele>459.739258</ele>
        <time>2016-05-22T10:07:51Z</time>
      </trkpt>
      <trkpt lat="45.82671" lon="4.81996">
        <ele>458.869476</ele>
        <time>2016-05-22T10:07:53Z</time>
      </trkpt>
      <trkpt lat="45.82679" lon="4.81996">
        <ele>457.8974</ele>
        <time>2016-05-22T10:07:55Z</time>
      </trkpt>
      <trkpt lat="45.82684" lon="4.81997">
        <ele>456.677429</ele>
        <time>2016-05-22T10:07:57Z</time>
      </trkpt>
      <trkpt lat="45.8269" lon="4.81997">
        <ele>455.400787</ele>
        <time>2016-05-22T10:07:59Z</time>
      </trkpt>
      <trkpt lat="45.82694" lon="4.81996">
        <ele>453.943542</ele>
        <time>2016-05-22T10:08:01Z</time>
      </trkpt>
      <trkpt lat="45.82701" lon="4.81996">
        <ele>453.326996</ele>
        <time>2016-05-22T10:08:03Z</time>
      </trkpt>
      <trkpt lat="45.82708" lon="4.81999">
        <ele>451.990479</ele>
        <time>2016-05-22T10:08:05Z</time>
      </trkpt>
      <trkpt lat="45.82716" lon="4.81999">
        <ele>450.037506</ele>
        <time>2016-05-22T10:08:07Z</time>
      </trkpt>
      <trkpt lat="45.82722" lon="4.81998">
        <ele>448.635315</ele>
        <time>2016-05-22T10:08:09Z</time>
      </trkpt>
      <trkpt lat="45.82729" lon="4.81998">
        <ele>446.858398</ele>
        <time>2016-05-22T10:08:11Z</time>
      </trkpt>
      <trkpt lat="45.82738" lon="4.81997">
        <ele>445.048492</ele>
        <time>2016-05-22T10:08:13Z</time>
      </trkpt>
      <trkpt lat="45.82743" lon="4.81998">
        <ele>443.187195</ele>
        <time>2016-05-22T10:08:15Z</time>
      </trkpt>
      <trkpt lat="45.82747" lon="4.81999">
        <ele>441.145203</ele>
        <time>2016-05-22T10:08:17Z</time>
      </trkpt>
      <trkpt lat="45.82752" lon="4.82">
        <ele>439.358307</ele>
        <time>2016-05-22T10:08:19Z</time>
      </trkpt>
      <trkpt lat="45.82755" lon="4.82">
        <ele>438.397797</ele>
        <time>2016-05-22T10:08:21Z</time>
      </trkpt>
      <trkpt lat="45.82761" lon="4.81999">
        <ele>436.737854</ele>
        <time>2016-05-22T10:08:23Z</time>
      </trkpt>
      <trkpt lat="45.82765" lon="4.81999">
        <ele>434.975647</ele>
        <time>2016-05-22T10:08:25Z</time>
      </trkpt>
      <trkpt lat="45.82769" lon="4.82">
        <ele>433.107178</ele>
        <time>2016-05-22T10:08:27Z</time>
      </trkpt>
      <trkpt lat="45.82778" lon="4.82003">
        <ele>431.5979</ele>
        <time>2016-05-22T10:08:29Z</time>
      </trkpt>
      <trkpt lat="45.8279" lon="4.82005">
        <ele>430.082458</ele>
        <time>2016-05-22T10:08:31Z</time>
      </trkpt>
      <trkpt lat="45.82799" lon="4.82008">
        <ele>429.26709</ele>
        <time>2016-05-22T10:08:33Z</time>
      </trkpt>
      <trkpt lat="45.8281" lon="4.8201">
        <ele>427.472748</ele>
        <time>2016-05-22T10:08:35Z</time>
      </trkpt>
      <trkpt lat="45.82821" lon="4.82008">
        <ele>425.746033</ele>
        <time>2016-05-22T10:08:37Z</time>
      </trkpt>
      <trkpt lat="45.82831" lon="4.82008">
        <ele>424.387146</ele>
        <time>2016-05-22T10:08:39Z</time>
      </trkpt>
      <trkpt lat="45.82842" lon="4.8201">
        <ele>422.592682</ele>
        <time>2016-05-22T10:08:41Z</time>
      </trkpt>
      <trkpt lat="45.82847" lon="4.82011">
        <ele>420.970459</ele>
        <time>2016-05-22T10:08:43Z</time>
      </trkpt>
      <trkpt lat="45.82856" lon="4.82009">
        <ele>420.106018</ele>
        <time>2016-05-22T10:08:45Z</time>
      </trkpt>
      <trkpt lat="45.82863" lon="4.82006">
        <ele>418.31958</ele>
        <time>2016-05-22T10:08:47Z</time>
      </trkpt>
      <trkpt lat="45.8287" lon="4.82004">
        <ele>417.28125</ele>
        <time>2016-05-22T10:08:49Z</time>
      </trkpt>
      <trkpt lat="45.82876" lon="4.82001">
        <ele>415.826508</ele>
        <time>2016-05-22T10:08:51Z</time>
      </trkpt>
      <trkpt lat="45.8288" lon="4.82001">
        <ele>413.993317</ele>
        <time>2016-05-22T10:08:53Z</time>
      </trkpt>
      <trkpt lat="45.82888" lon="4.82002">
        <ele>412.648041</ele>
        <time>2016-05-22T10:08:55Z</time>
      </trkpt>
      <trkpt lat="45.82896" lon="4.82">
        <ele>411.660004</ele>
        <time>2016-05-22T10:08:57Z</time>
      </trkpt>
      <trkpt lat="45.82907" lon="4.81994">
        <ele>410.256165</ele>
        <time>2016-05-22T10:08:59Z</time>
      </trkpt>
      <trkpt lat="45.82915" lon="4.81994">
        <ele>408.707031</ele>
        <time>2016-05-22T10:09:01Z</time>
      </trkpt>
      <trkpt lat="45.82922" lon="4.81995">
        <ele>407.021912</ele>
        <time>2016-05-22T10:09:03Z</time>
      </trkpt>
      <trkpt lat="45.82926" lon="4.81993">
        <ele>405.004303</ele>
        <time>2016-05-22T10:09:05Z</time>
      </trkpt>
      <trkpt lat="45.8293" lon="4.81994">
        <ele>404.329681</ele>
        <time>2016-05-22T10:09:07Z</time>
      </trkpt>
      <trkpt lat="45.82942" lon="4.82002">
        <ele>402.640717</ele>
        <time>2016-05-22T10:09:09Z</time>
      </trkpt>
      <trkpt lat="45.82953" lon="4.82009">
        <ele>400.693939</ele>
        <time>2016-05-22T10:09:11Z</time>
      </trkpt>
      <trkpt lat="45.82961" lon="4.82015">
        <ele>399.095856</ele>
        <time>2016-05-22T10:09:13Z</time>
      </trkpt>
      <trkpt lat="45.82966" lon="4.82021">
        <ele>397.647644</ele>
        <time>2016-05-22T10:09:15Z</time>
      </trkpt>
      <trkpt lat="45.82971" lon="4.82025">
        <ele>396.03009</ele>
        <time>2016-05-22T10:09:17Z</time>
      </trkpt>
      <trkpt lat="45.82976" lon="4.82029">
        <ele>394.517395</ele>
        <time>2016-05-22T10:09:19Z</time>
      </trkpt>
      <trkpt lat="45.82981" lon="4.82034">
        <ele>393.353516</ele>
        <time>2016-05-22T10:09:21Z</time>
      </trkpt>
      <trkpt lat="45.82988" lon="4.82041">
        <ele>392.51001</ele>
        <time>2016-05-22T10:09:23Z</time>
      </trkpt>
      <trkpt lat="45.82998" lon="4.82049">
        <ele>391.620605</ele>
        <time>2016-05-22T10:09:25Z</time>
      </trkpt>
      <trkpt lat="45.83007" lon="4.8206">
        <ele>390.531158</ele>
        <time>2016-05-22T10:09:27Z</time>
      </trkpt>
      <trkpt lat="45.83019" lon="4.82073">
        <ele>389.044922</ele>
        <time>2016-05-22T10:09:29Z</time>
      </trkpt>
      <trkpt lat="45.83032" lon="4.82087">
        <ele>388.262878</ele>
        <time>2016-05-22T10:09:31Z</time>
      </trkpt>
      <trkpt lat="45.83044" lon="4.82102">
        <ele>387.580566</ele>
        <time>2016-05-22T10:09:33Z</time>
      </trkpt>
      <trkpt lat="45.83056" lon="4.82118">
        <ele>386.405334</ele>
        <time>2016-05-22T10:09:35Z</time>
      </trkpt>
      <trkpt lat="45.8307" lon="4.82135">
        <ele>384.912079</ele>
        <time>2016-05-22T10:09:37Z</time>
      </trkpt>
      <trkpt lat="45.83082" lon="4.82157">
        <ele>384.586121</ele>
        <time>2016-05-22T10:09:39Z</time>
      </trkpt>
      <trkpt lat="45.83092" lon="4.82178">
        <ele>383.61554</ele>
        <time>2016-05-22T10:09:41Z</time>
      </trkpt>
      <trkpt lat="45.83099" lon="4.822">
        <ele>382.568207</ele>
        <time>2016-05-22T10:09:43Z</time>
      </trkpt>
      <trkpt lat="45.83104" lon="4.82221">
        <ele>381.406219</ele>
        <time>2016-05-22T10:09:45Z</time>
      </trkpt>
      <trkpt lat="45.83107" lon="4.82241">
        <ele>380.277618</ele>
        <time>2016-05-22T10:09:47Z</time>
      </trkpt>
      <trkpt lat="45.8311" lon="4.82263">
        <ele>379.524628</ele>
        <time>2016-05-22T10:09:49Z</time>
      </trkpt>
      <trkpt lat="45.83114" lon="4.82288">
        <ele>379.189392</ele>
        <time>2016-05-22T10:09:51Z</time>
      </trkpt>
      <trkpt lat="45.8312" lon="4.82313">
        <ele>377.910461</ele>
        <time>2016-05-22T10:09:53Z</time>
      </trkpt>
      <trkpt lat="45.83122" lon="4.82336">
        <ele>376.978699</ele>
        <time>2016-05-22T10:09:55Z</time>
      </trkpt>
      <trkpt lat="45.83122" lon="4.82359">
        <ele>375.534607</ele>
        <time>2016-05-22T10:09:57Z</time>
      </trkpt>
      <trkpt lat="45.8312" lon="4.8238">
        <ele>374.198517</ele>
        <time>2016-05-22T10:09:59Z</time>
      </trkpt>
      <trkpt lat="45.83119" lon="4.82398">
        <ele>372.864471</ele>
        <time>2016-05-22T10:10:01Z</time>
      </trkpt>
      <trkpt lat="45.8312" lon="4.82416">
        <ele>372.427673</ele>
        <time>2016-05-22T10:10:03Z</time>
      </trkpt>
      <trkpt lat="45.83121" lon="4.82434">
        <ele>371.432007</ele>
        <time>2016-05-22T10:10:05Z</time>
      </trkpt>
      <trkpt lat="45.83122" lon="4.82453">
        <ele>370.136932</ele>
        <time>2016-05-22T10:10:07Z</time>
      </trkpt>
      <trkpt lat="45.83122" lon="4.82475">
        <ele>368.756317</ele>
        <time>2016-05-22T10:10:09Z</time>
      </trkpt>
      <trkpt lat="45.83122" lon="4.82496">
        <ele>367.975952</ele>
        <time>2016-05-22T10:10:11Z</time>
      </trkpt>
      <trkpt lat="45.8312" lon="4.82515">
        <ele>366.57428</ele>
        <time>2016-05-22T10:10:13Z</time>
      </trkpt>
      <trkpt lat="45.83115" lon="4.82534">
        <ele>365.528595</ele>
        <time>2016-05-22T10:10:15Z</time>
      </trkpt>
      <trkpt lat="45.8311" lon="4.82554">
        <ele>363.561829</ele>
        <time>2016-05-22T10:10:17Z</time>
      </trkpt>
      <trkpt lat="45.83104" lon="4.82572">
        <ele>362.160919</ele>
        <time>2016-05-22T10:10:19Z</time>
      </trkpt>
      <trkpt lat="45.83098" lon="4.82588">
        <ele>361.06131</ele>
        <time>2016-05-22T10:10:21Z</time>
      </trkpt>
      <trkpt lat="45.83093" lon="4.82602">
        <ele>360.780701</ele>
        <time>2016-05-22T10:10:23Z</time>
      </trkpt>
      <trkpt lat="45.83087" lon="4.82615">
        <ele>359.570282</ele>
        <time>2016-05-22T10:10:25Z</time>
      </trkpt>
      <trkpt lat="45.83081" lon="4.82627">
        <ele>358.659302</ele>
        <time>2016-05-22T10:10:27Z</time>
      </trkpt>
      <trkpt lat="45.83073" lon="4.8264">
        <ele>357.594513</ele>
        <time>2016-05-22T10:10:29Z</time>
      </trkpt>
      <trkpt lat="45.83065" lon="4.82653">
        <ele>356.953339</ele>
        <time>2016-05-22T10:10:31Z</time>
      </trkpt>
      <trkpt lat="45.83057" lon="4.82666">
        <ele>355.814209</ele>
        <time>2016-05-22T10:10:33Z</time>
      </trkpt>
      <trkpt lat="45.83051" lon="4.8268">
        <ele>355.153015</ele>
        <time>2016-05-22T10:10:35Z</time>
      </trkpt>
      <trkpt lat="45.83047" lon="4.82696">
        <ele>354.535492</ele>
        <time>2016-05-22T10:10:37Z</time>
      </trkpt>
      <trkpt lat="45.83042" lon="4.82709">
        <ele>354.172119</ele>
        <time>2016-05-22T10:10:39Z</time>
      </trkpt>
      <trkpt lat="45.83037" lon="4.82722">
        <ele>354.212555</ele>
        <time>2016-05-22T10:10:41Z</time>
      </trkpt>
      <trkpt lat="45.8303" lon="4.82734">
        <ele>354.127625</ele>
        <time>2016-05-22T10:10:43Z</time>
      </trkpt>
      <trkpt lat="45.83022" lon="4.82746">
        <ele>353.83136</ele>
        <time>2016-05-22T10:10:45Z</time>
      </trkpt>
      <trkpt lat="45.83013" lon="4.82755">
        <ele>353.555023</ele>
        <time>2016-05-22T10:10:47Z</time>
      </trkpt>
      <trkpt lat="45.83005" lon="4.82766">
        <ele>353.128479</ele>
        <time>2016-05-22T10:10:49Z</time>
      </trkpt>
      <trkpt lat="45.82999" lon="4.82775">
        <ele>352.478271</ele>
        <time>2016-05-22T10:10:51Z</time>
      </trkpt>
      <trkpt lat="45.82993" lon="4.82782">
        <ele>352.35968</ele>
        <time>2016-05-22T10:10:53Z</time>
      </trkpt>
      <trkpt lat="45.82988" lon="4.82786">
        <ele>352.312195</ele>
        <time>2016-05-22T10:10:55Z</time>
      </trkpt>
      <trkpt lat="45.82986" lon="4.82791">
        <ele>352.953705</ele>
        <time>2016-05-22T10:11:05Z</time>
      </trkpt>
      <trkpt lat="45.82986" lon="4.82794">
        <ele>352.912689</ele>
        <time>2016-05-22T10:11:07Z</time>
      </trkpt>
      <trkpt lat="45.82984" lon="4.82798">
        <ele>353.003326</ele>
        <time>2016-05-22T10:11:09Z</time>
      </trkpt>
      <trkpt lat="45.82983" lon="4.82803">
        <ele>352.996735</ele>
        <time>2016-05-22T10:11:11Z</time>
      </trkpt>
      <trkpt lat="45.82985" lon="4.82806">
        <ele>352.883118</ele>
        <time>2016-05-22T10:11:13Z</time>
      </trkpt>
      <trkpt lat="45.82987" lon="4.8281">
        <ele>353.301666</ele>
        <time>2016-05-22T10:11:15Z</time>
      </trkpt>
      <trkpt lat="45.82991" lon="4.82814">
        <ele>353.251923</ele>
        <time>2016-05-22T10:11:17Z</time>
      </trkpt>
      <trkpt lat="45.82995" lon="4.82818">
        <ele>353.232544</ele>
        <time>2016-05-22T10:11:19Z</time>
      </trkpt>
      <trkpt lat="45.82997" lon="4.82821">
        <ele>353.308655</ele>
        <time>2016-05-22T10:11:21Z</time>
      </trkpt>
      <trkpt lat="45.83" lon="4.82822">
        <ele>352.993866</ele>
        <time>2016-05-22T10:11:23Z</time>
      </trkpt>
      <trkpt lat="45.83003" lon="4.82824">
        <ele>352.487976</ele>
        <time>2016-05-22T10:11:25Z</time>
      </trkpt>
      <trkpt lat="45.83005" lon="4.82825">
        <ele>351.971558</ele>
        <time>2016-05-22T10:11:27Z</time>
      </trkpt>
      <trkpt lat="45.83007" lon="4.82829">
        <ele>350.259338</ele>
        <time>2016-05-22T10:11:33Z</time>
      </trkpt>
      <trkpt lat="45.83007" lon="4.82831">
        <ele>349.551331</ele>
        <time>2016-05-22T10:11:35Z</time>
      </trkpt>
      <trkpt lat="45.8302" lon="4.82827">
        <ele>340.654572</ele>
        <time>2016-05-22T10:11:59Z</time>
      </trkpt>
      <trkpt lat="45.83023" lon="4.82827">
        <ele>338.010956</ele>
        <time>2016-05-22T10:12:59Z</time>
      </trkpt>
      <trkpt lat="45.83034" lon="4.82839">
        <ele>337.801941</ele>
        <time>2016-05-22T10:13:01Z</time>
      </trkpt>
      <trkpt lat="45.83036" lon="4.82839">
        <ele>337.720734</ele>
        <time>2016-05-22T10:13:03Z</time>
      </trkpt>
      <trkpt lat="45.8304" lon="4.82842">
        <ele>336.942352</ele>
        <time>2016-05-22T10:13:09Z</time>
      </trkpt>
      <trkpt lat="45.83041" lon="4.82842">
        <ele>336.813049</ele>
        <time>2016-05-22T10:13:11Z</time>
      </trkpt>
      <trkpt lat="45.83043" lon="4.82842">
        <ele>336.553833</ele>
        <time>2016-05-22T10:13:13Z</time>
      </trkpt>
      <trkpt lat="45.83046" lon="4.82844">
        <ele>336.319031</ele>
        <time>2016-05-22T10:13:15Z</time>
      </trkpt>
      <trkpt lat="45.83048" lon="4.82847">
        <ele>335.802063</ele>
        <time>2016-05-22T10:13:17Z</time>
      </trkpt>
      <trkpt lat="45.83048" lon="4.82847">
        <ele>335.274384</ele>
        <time>2016-05-22T10:13:19Z</time>
      </trkpt>
      <trkpt lat="45.83048" lon="4.82847">
        <ele>334.785461</ele>
        <time>2016-05-22T10:13:21Z</time>
      </trkpt>
      <trkpt lat="45.83049" lon="4.82849">
        <ele>334.258514</ele>
        <time>2016-05-22T10:13:23Z</time>
      </trkpt>
      <trkpt lat="45.83051" lon="4.8285">
        <ele>333.67923</ele>
        <time>2016-05-22T10:13:25Z</time>
      </trkpt>
      <trkpt lat="45.83052" lon="4.82852">
        <ele>332.975006</ele>
        <time>2016-05-22T10:13:27Z</time>
      </trkpt>
      <trkpt lat="45.83054" lon="4.82859">
        <ele>331.554138</ele>
        <time>2016-05-22T10:13:33Z</time>
      </trkpt>
      <trkpt lat="45.83052" lon="4.82869">
        <ele>330.861877</ele>
        <time>2016-05-22T10:13:35Z</time>
      </trkpt>
      <trkpt lat="45.83049" lon="4.82881">
        <ele>330.418152</ele>
        <time>2016-05-22T10:13:37Z</time>
      </trkpt>
      <trkpt lat="45.83046" lon="4.82895">
        <ele>329.713257</ele>
        <time>2016-05-22T10:13:39Z</time>
      </trkpt>
      <trkpt lat="45.83046" lon="4.82909">
        <ele>329.097137</ele>
        <time>2016-05-22T10:13:41Z</time>
      </trkpt>
      <trkpt lat="45.83044" lon="4.82924">
        <ele>328.673126</ele>
        <time>2016-05-22T10:13:43Z</time>
      </trkpt>
      <trkpt lat="45.83041" lon="4.8294">
        <ele>327.852966</ele>
        <time>2016-05-22T10:13:45Z</time>
      </trkpt>
      <trkpt lat="45.8304" lon="4.82954">
        <ele>327.28186</ele>
        <time>2016-05-22T10:13:47Z</time>
      </trkpt>
      <trkpt lat="45.83039" lon="4.82966">
        <ele>326.733337</ele>
        <time>2016-05-22T10:13:49Z</time>
      </trkpt>
      <trkpt lat="45.83038" lon="4.82979">
        <ele>326.4104</ele>
        <time>2016-05-22T10:13:51Z</time>
      </trkpt>
      <trkpt lat="45.83038" lon="4.82993">
        <ele>326.192932</ele>
        <time>2016-05-22T10:13:53Z</time>
      </trkpt>
      <trkpt lat="45.83037" lon="4.83006">
        <ele>325.627502</ele>
        <time>2016-05-22T10:13:55Z</time>
      </trkpt>
      <trkpt lat="45.83036" lon="4.83018">
        <ele>325.392761</ele>
        <time>2016-05-22T10:13:57Z</time>
      </trkpt>
      <trkpt lat="45.83035" lon="4.83029">
        <ele>325.287262</ele>
        <time>2016-05-22T10:13:59Z</time>
      </trkpt>
      <trkpt lat="45.83034" lon="4.8304">
        <ele>325.349457</ele>
        <time>2016-05-22T10:14:01Z</time>
      </trkpt>
      <trkpt lat="45.83032" lon="4.83051">
        <ele>325.330109</ele>
        <time>2016-05-22T10:14:03Z</time>
      </trkpt>
      <trkpt lat="45.83031" lon="4.83062">
        <ele>325.266418</ele>
        <time>2016-05-22T10:14:05Z</time>
      </trkpt>
      <trkpt lat="45.83036" lon="4.83067">
        <ele>325.087341</ele>
        <time>2016-05-22T10:14:07Z</time>
      </trkpt>
      <trkpt lat="45.83044" lon="4.83068">
        <ele>325.184204</ele>
        <time>2016-05-22T10:14:09Z</time>
      </trkpt>
      <trkpt lat="45.83052" lon="4.8307">
        <ele>325.141022</ele>
        <time>2016-05-22T10:14:11Z</time>
      </trkpt>
      <trkpt lat="45.83062" lon="4.83073">
        <ele>324.9198</ele>
        <time>2016-05-22T10:14:13Z</time>
      </trkpt>
      <trkpt lat="45.83073" lon="4.83076">
        <ele>324.844666</ele>
        <time>2016-05-22T10:14:15Z</time>
      </trkpt>
      <trkpt lat="45.83085" lon="4.83078">
        <ele>324.256409</ele>
        <time>2016-05-22T10:14:17Z</time>
      </trkpt>
      <trkpt lat="45.83098" lon="4.83081">
        <ele>323.471283</ele>
        <time>2016-05-22T10:14:19Z</time>
      </trkpt>
      <trkpt lat="45.83109" lon="4.83085">
        <ele>323.154968</ele>
        <time>2016-05-22T10:14:21Z</time>
      </trkpt>
      <trkpt lat="45.83117" lon="4.83087">
        <ele>322.853821</ele>
        <time>2016-05-22T10:14:23Z</time>
      </trkpt>
      <trkpt lat="45.83121" lon="4.83079">
        <ele>322.139954</ele>
        <time>2016-05-22T10:14:25Z</time>
      </trkpt>
      <trkpt lat="45.83123" lon="4.83067">
        <ele>321.741455</ele>
        <time>2016-05-22T10:14:27Z</time>
      </trkpt>
      <trkpt lat="45.83127" lon="4.83055">
        <ele>321.701416</ele>
        <time>2016-05-22T10:14:29Z</time>
      </trkpt>
      <trkpt lat="45.8313" lon="4.83043">
        <ele>321.306458</ele>
        <time>2016-05-22T10:14:31Z</time>
      </trkpt>
      <trkpt lat="45.83133" lon="4.83026">
        <ele>320.39801</ele>
        <time>2016-05-22T10:14:33Z</time>
      </trkpt>
      <trkpt lat="45.83137" lon="4.83006">
        <ele>319.717834</ele>
        <time>2016-05-22T10:14:35Z</time>
      </trkpt>
      <trkpt lat="45.8314" lon="4.82984">
        <ele>318.612854</ele>
        <time>2016-05-22T10:14:37Z</time>
      </trkpt>
      <trkpt lat="45.83144" lon="4.82965">
        <ele>317.295258</ele>
        <time>2016-05-22T10:14:39Z</time>
      </trkpt>
      <trkpt lat="45.83153" lon="4.82952">
        <ele>316.024475</ele>
        <time>2016-05-22T10:14:41Z</time>
      </trkpt>
      <trkpt lat="45.83163" lon="4.82935">
        <ele>314.786163</ele>
        <time>2016-05-22T10:14:43Z</time>
      </trkpt>
      <trkpt lat="45.83172" lon="4.8292">
        <ele>314.280731</ele>
        <time>2016-05-22T10:14:45Z</time>
      </trkpt>
      <trkpt lat="45.8318" lon="4.82903">
        <ele>313.20575</ele>
        <time>2016-05-22T10:14:47Z</time>
      </trkpt>
      <trkpt lat="45.83186" lon="4.82888">
        <ele>311.927551</ele>
        <time>2016-05-22T10:14:49Z</time>
      </trkpt>
      <trkpt lat="45.83192" lon="4.82874">
        <ele>310.843933</ele>
        <time>2016-05-22T10:14:51Z</time>
      </trkpt>
      <trkpt lat="45.83197" lon="4.8286">
        <ele>309.921692</ele>
        <time>2016-05-22T10:14:53Z</time>
      </trkpt>
      <trkpt lat="45.83202" lon="4.82847">
        <ele>309.650909</ele>
        <time>2016-05-22T10:14:55Z</time>
      </trkpt>
      <trkpt lat="45.83203" lon="4.82834">
        <ele>308.679504</ele>
        <time>2016-05-22T10:14:57Z</time>
      </trkpt>
      <trkpt lat="45.83202" lon="4.82826">
        <ele>307.722351</ele>
        <time>2016-05-22T10:14:59Z</time>
      </trkpt>
      <trkpt lat="45.83202" lon="4.82821">
        <ele>307.589142</ele>
        <time>2016-05-22T10:15:01Z</time>
      </trkpt>
      <trkpt lat="45.83202" lon="4.82818">
        <ele>307.079712</ele>
        <time>2016-05-22T10:15:03Z</time>
      </trkpt>
      <trkpt lat="45.83211" lon="4.82807">
        <ele>305.152496</ele>
        <time>2016-05-22T10:15:53Z</time>
      </trkpt>
      <trkpt lat="45.8322" lon="4.82802">
        <ele>304.96347</ele>
        <time>2016-05-22T10:15:55Z</time>
      </trkpt>
      <trkpt lat="45.83229" lon="4.82794">
        <ele>304.922668</ele>
        <time>2016-05-22T10:15:57Z</time>
      </trkpt>
      <trkpt lat="45.83239" lon="4.82786">
        <ele>304.64093</ele>
        <time>2016-05-22T10:15:59Z</time>
      </trkpt>
      <trkpt lat="45.83252" lon="4.82777">
        <ele>304.517334</ele>
        <time>2016-05-22T10:16:01Z</time>
      </trkpt>
      <trkpt lat="45.83269" lon="4.82768">
        <ele>304.465118</ele>
        <time>2016-05-22T10:16:03Z</time>
      </trkpt>
      <trkpt lat="45.83283" lon="4.82759">
        <ele>303.877594</ele>
        <time>2016-05-22T10:16:05Z</time>
      </trkpt>
      <trkpt lat="45.83296" lon="4.82752">
        <ele>303.410889</ele>
        <time>2016-05-22T10:16:07Z</time>
      </trkpt>
      <trkpt lat="45.83308" lon="4.82746">
        <ele>302.580231</ele>
        <time>2016-05-22T10:16:09Z</time>
      </trkpt>
      <trkpt lat="45.83319" lon="4.82738">
        <ele>301.758148</ele>
        <time>2016-05-22T10:16:11Z</time>
      </trkpt>
      <trkpt lat="45.83331" lon="4.82733">
        <ele>300.608093</ele>
        <time>2016-05-22T10:16:13Z</time>
      </trkpt>
      <trkpt lat="45.83344" lon="4.82727">
        <ele>299.979401</ele>
        <time>2016-05-22T10:16:15Z</time>
      </trkpt>
      <trkpt lat="45.83353" lon="4.82714">
        <ele>299.378937</ele>
        <time>2016-05-22T10:16:17Z</time>
      </trkpt>
      <trkpt lat="45.83364" lon="4.82703">
        <ele>299.069153</ele>
        <time>2016-05-22T10:16:19Z</time>
      </trkpt>
      <trkpt lat="45.8338" lon="4.82694">
        <ele>298.144257</ele>
        <time>2016-05-22T10:16:21Z</time>
      </trkpt>
      <trkpt lat="45.83398" lon="4.82682">
        <ele>296.40509</ele>
        <time>2016-05-22T10:16:23Z</time>
      </trkpt>
      <trkpt lat="45.83415" lon="4.82668">
        <ele>295.320282</ele>
        <time>2016-05-22T10:16:25Z</time>
      </trkpt>
      <trkpt lat="45.83431" lon="4.82653">
        <ele>293.593536</ele>
        <time>2016-05-22T10:16:27Z</time>
      </trkpt>
      <trkpt lat="45.83444" lon="4.82641">
        <ele>291.789276</ele>
        <time>2016-05-22T10:16:29Z</time>
      </trkpt>
      <trkpt lat="45.83452" lon="4.82638">
        <ele>289.256165</ele>
        <time>2016-05-22T10:16:31Z</time>
      </trkpt>
      <trkpt lat="45.83456" lon="4.82646">
        <ele>286.813202</ele>
        <time>2016-05-22T10:16:33Z</time>
      </trkpt>
      <trkpt lat="45.83457" lon="4.82658">
        <ele>284.470337</ele>
        <time>2016-05-22T10:16:35Z</time>
      </trkpt>
      <trkpt lat="45.8346" lon="4.82669">
        <ele>282.50946</ele>
        <time>2016-05-22T10:16:37Z</time>
      </trkpt>
      <trkpt lat="45.83469" lon="4.82674">
        <ele>280.375061</ele>
        <time>2016-05-22T10:16:39Z</time>
      </trkpt>
      <trkpt lat="45.8348" lon="4.82675">
        <ele>279.069885</ele>
        <time>2016-05-22T10:16:41Z</time>
      </trkpt>
      <trkpt lat="45.83485" lon="4.82677">
        <ele>276.654602</ele>
        <time>2016-05-22T10:16:43Z</time>
      </trkpt>
      <trkpt lat="45.83486" lon="4.82683">
        <ele>274.344299</ele>
        <time>2016-05-22T10:16:45Z</time>
      </trkpt>
      <trkpt lat="45.83484" lon="4.82688">
        <ele>272.002899</ele>
        <time>2016-05-22T10:16:47Z</time>
      </trkpt>
      <trkpt lat="45.83481" lon="4.82692">
        <ele>270.135315</ele>
        <time>2016-05-22T10:16:49Z</time>
      </trkpt>
      <trkpt lat="45.83478" lon="4.82697">
        <ele>268.062439</ele>
        <time>2016-05-22T10:16:51Z</time>
      </trkpt>
      <trkpt lat="45.83476" lon="4.82703">
        <ele>266.427277</ele>
        <time>2016-05-22T10:16:53Z</time>
      </trkpt>
      <trkpt lat="45.83473" lon="4.82709">
        <ele>264.752747</ele>
        <time>2016-05-22T10:16:55Z</time>
      </trkpt>
      <trkpt lat="45.8347" lon="4.82714">
        <ele>264.142761</ele>
        <time>2016-05-22T10:16:57Z</time>
      </trkpt>
      <trkpt lat="45.83468" lon="4.8272">
        <ele>262.846832</ele>
        <time>2016-05-22T10:16:59Z</time>
      </trkpt>
      <trkpt lat="45.83464" lon="4.82725">
        <ele>260.982635</ele>
        <time>2016-05-22T10:17:01Z</time>
      </trkpt>
      <trkpt lat="45.83461" lon="4.8273">
        <ele>259.274475</ele>
        <time>2016-05-22T10:17:03Z</time>
      </trkpt>
      <trkpt lat="45.83458" lon="4.82735">
        <ele>258.172089</ele>
        <time>2016-05-22T10:17:05Z</time>
      </trkpt>
      <trkpt lat="45.83456" lon="4.82741">
        <ele>257.902588</ele>
        <time>2016-05-22T10:17:07Z</time>
      </trkpt>
      <trkpt lat="45.83453" lon="4.82747">
        <ele>257.374207</ele>
        <time>2016-05-22T10:17:09Z</time>
      </trkpt>
      <trkpt lat="45.83451" lon="4.82753">
        <ele>256.916107</ele>
        <time>2016-05-22T10:17:11Z</time>
      </trkpt>
      <trkpt lat="45.83449" lon="4.82759">
        <ele>256.971619</ele>
        <time>2016-05-22T10:17:13Z</time>
      </trkpt>
      <trkpt lat="45.83448" lon="4.82765">
        <ele>257.226105</ele>
        <time>2016-05-22T10:17:15Z</time>
      </trkpt>
      <trkpt lat="45.83447" lon="4.82771">
        <ele>257.208954</ele>
        <time>2016-05-22T10:17:17Z</time>
      </trkpt>
      <trkpt lat="45.83446" lon="4.82777">
        <ele>257.236725</ele>
        <time>2016-05-22T10:17:19Z</time>
      </trkpt>
      <trkpt lat="45.83445" lon="4.82783">
        <ele>257.247009</ele>
        <time>2016-05-22T10:17:21Z</time>
      </trkpt>
      <trkpt lat="45.83445" lon="4.8279">
        <ele>257.365479</ele>
        <time>2016-05-22T10:17:23Z</time>
      </trkpt>
      <trkpt lat="45.83444" lon="4.82798">
        <ele>257.560242</ele>
        <time>2016-05-22T10:17:25Z</time>
      </trkpt>
      <trkpt lat="45.83444" lon="4.82805">
        <ele>258.039246</ele>
        <time>2016-05-22T10:17:27Z</time>
      </trkpt>
      <trkpt lat="45.83443" lon="4.82813">
        <ele>258.421997</ele>
        <time>2016-05-22T10:17:29Z</time>
      </trkpt>
      <trkpt lat="45.83443" lon="4.82821">
        <ele>258.873291</ele>
        <time>2016-05-22T10:17:31Z</time>
      </trkpt>
      <trkpt lat="45.83442" lon="4.82829">
        <ele>259.099976</ele>
        <time>2016-05-22T10:17:33Z</time>
      </trkpt>
      <trkpt lat="45.8344" lon="4.82839">
        <ele>259.522186</ele>
        <time>2016-05-22T10:17:35Z</time>
      </trkpt>
      <trkpt lat="45.83438" lon="4.82849">
        <ele>259.850708</ele>
        <time>2016-05-22T10:17:37Z</time>
      </trkpt>
      <trkpt lat="45.83435" lon="4.82859">
        <ele>260.265625</ele>
        <time>2016-05-22T10:17:39Z</time>
      </trkpt>
      <trkpt lat="45.83432" lon="4.82871">
        <ele>260.49942</ele>
        <time>2016-05-22T10:17:41Z</time>
      </trkpt>
      <trkpt lat="45.83428" lon="4.82884">
        <ele>260.709167</ele>
        <time>2016-05-22T10:17:43Z</time>
      </trkpt>
      <trkpt lat="45.83424" lon="4.82897">
        <ele>260.877899</ele>
        <time>2016-05-22T10:17:45Z</time>
      </trkpt>
      <trkpt lat="45.83421" lon="4.8291">
        <ele>261.081085</ele>
        <time>2016-05-22T10:17:47Z</time>
      </trkpt>
      <trkpt lat="45.83418" lon="4.82924">
        <ele>261.205994</ele>
        <time>2016-05-22T10:17:49Z</time>
      </trkpt>
      <trkpt lat="45.83415" lon="4.82937">
        <ele>261.41156</ele>
        <time>2016-05-22T10:17:51Z</time>
      </trkpt>
      <trkpt lat="45.83411" lon="4.82948">
        <ele>261.649902</ele>
        <time>2016-05-22T10:17:53Z</time>
      </trkpt>
      <trkpt lat="45.83406" lon="4.82958">
        <ele>261.825317</ele>
        <time>2016-05-22T10:17:55Z</time>
      </trkpt>
      <trkpt lat="45.83399" lon="4.82966">
        <ele>262.069183</ele>
        <time>2016-05-22T10:17:57Z</time>
      </trkpt>
      <trkpt lat="45.83392" lon="4.82972">
        <ele>262.188995</ele>
        <time>2016-05-22T10:17:59Z</time>
      </trkpt>
      <trkpt lat="45.83384" lon="4.82978">
        <ele>262.407196</ele>
        <time>2016-05-22T10:18:01Z</time>
      </trkpt>
      <trkpt lat="45.83376" lon="4.82984">
        <ele>262.512024</ele>
        <time>2016-05-22T10:18:03Z</time>
      </trkpt>
      <trkpt lat="45.83369" lon="4.82991">
        <ele>262.645813</ele>
        <time>2016-05-22T10:18:05Z</time>
      </trkpt>
      <trkpt lat="45.83362" lon="4.82999">
        <ele>262.809235</ele>
        <time>2016-05-22T10:18:07Z</time>
      </trkpt>
      <trkpt lat="45.83356" lon="4.83007">
        <ele>262.929047</ele>
        <time>2016-05-22T10:18:09Z</time>
      </trkpt>
      <trkpt lat="45.8335" lon="4.83017">
        <ele>263.093811</ele>
        <time>2016-05-22T10:18:11Z</time>
      </trkpt>
      <trkpt lat="45.83345" lon="4.83027">
        <ele>263.160095</ele>
        <time>2016-05-22T10:18:13Z</time>
      </trkpt>
      <trkpt lat="45.83339" lon="4.83037">
        <ele>263.242889</ele>
        <time>2016-05-22T10:18:15Z</time>
      </trkpt>
      <trkpt lat="45.83335" lon="4.83048">
        <ele>263.338226</ele>
        <time>2016-05-22T10:18:17Z</time>
      </trkpt>
      <trkpt lat="45.8333" lon="4.83058">
        <ele>263.633484</ele>
        <time>2016-05-22T10:18:19Z</time>
      </trkpt>
      <trkpt lat="45.83326" lon="4.83067">
        <ele>263.785431</ele>
        <time>2016-05-22T10:18:21Z</time>
      </trkpt>
      <trkpt lat="45.83322" lon="4.83077">
        <ele>263.945892</ele>
        <time>2016-05-22T10:18:23Z</time>
      </trkpt>
      <trkpt lat="45.83318" lon="4.83085">
        <ele>264.179138</ele>
        <time>2016-05-22T10:18:25Z</time>
      </trkpt>
      <trkpt lat="45.83315" lon="4.83093">
        <ele>264.501465</ele>
        <time>2016-05-22T10:18:27Z</time>
      </trkpt>
      <trkpt lat="45.83311" lon="4.83101">
        <ele>264.895142</ele>
        <time>2016-05-22T10:18:29Z</time>
      </trkpt>
      <trkpt lat="45.83308" lon="4.83108">
        <ele>265.293152</ele>
        <time>2016-05-22T10:18:31Z</time>
      </trkpt>
      <trkpt lat="45.83305" lon="4.83116">
        <ele>265.694916</ele>
        <time>2016-05-22T10:18:33Z</time>
      </trkpt>
      <trkpt lat="45.83301" lon="4.83123">
        <ele>265.986145</ele>
        <time>2016-05-22T10:18:35Z</time>
      </trkpt>
      <trkpt lat="45.83298" lon="4.83131">
        <ele>266.373505</ele>
        <time>2016-05-22T10:18:37Z</time>
      </trkpt>
      <trkpt lat="45.83295" lon="4.83139">
        <ele>266.590302</ele>
        <time>2016-05-22T10:18:39Z</time>
      </trkpt>
      <trkpt lat="45.83292" lon="4.83146">
        <ele>266.710144</ele>
        <time>2016-05-22T10:18:41Z</time>
      </trkpt>
      <trkpt lat="45.83288" lon="4.83154">
        <ele>267.106354</ele>
        <time>2016-05-22T10:18:43Z</time>
      </trkpt>
      <trkpt lat="45.83283" lon="4.83161">
        <ele>267.408478</ele>
        <time>2016-05-22T10:18:45Z</time>
      </trkpt>
      <trkpt lat="45.83278" lon="4.8317">
        <ele>267.706848</ele>
        <time>2016-05-22T10:18:47Z</time>
      </trkpt>
      <trkpt lat="45.83271" lon="4.83179">
        <ele>268.024933</ele>
        <time>2016-05-22T10:18:49Z</time>
      </trkpt>
      <trkpt lat="45.83265" lon="4.83191">
        <ele>268.258209</ele>
        <time>2016-05-22T10:18:51Z</time>
      </trkpt>
      <trkpt lat="45.83259" lon="4.83204">
        <ele>268.595764</ele>
        <time>2016-05-22T10:18:53Z</time>
      </trkpt>
      <trkpt lat="45.83252" lon="4.83217">
        <ele>268.803375</ele>
        <time>2016-05-22T10:18:55Z</time>
      </trkpt>
      <trkpt lat="45.83245" lon="4.83231">
        <ele>269.140137</ele>
        <time>2016-05-22T10:18:57Z</time>
      </trkpt>
      <trkpt lat="45.83238" lon="4.83245">
        <ele>269.253601</ele>
        <time>2016-05-22T10:18:59Z</time>
      </trkpt>
      <trkpt lat="45.83229" lon="4.83256">
        <ele>269.554504</ele>
        <time>2016-05-22T10:19:01Z</time>
      </trkpt>
      <trkpt lat="45.83221" lon="4.83268">
        <ele>269.689331</ele>
        <time>2016-05-22T10:19:03Z</time>
      </trkpt>
      <trkpt lat="45.83213" lon="4.8328">
        <ele>269.879578</ele>
        <time>2016-05-22T10:19:05Z</time>
      </trkpt>
      <trkpt lat="45.83206" lon="4.83292">
        <ele>269.939514</ele>
        <time>2016-05-22T10:19:07Z</time>
      </trkpt>
      <trkpt lat="45.83198" lon="4.83303">
        <ele>270.004456</ele>
        <time>2016-05-22T10:19:09Z</time>
      </trkpt>
      <trkpt lat="45.8319" lon="4.83313">
        <ele>270.109619</ele>
        <time>2016-05-22T10:19:11Z</time>
      </trkpt>
      <trkpt lat="45.83181" lon="4.83322">
        <ele>270.326843</ele>
        <time>2016-05-22T10:19:13Z</time>
      </trkpt>
      <trkpt lat="45.83173" lon="4.83333">
        <ele>270.42749</ele>
        <time>2016-05-22T10:19:15Z</time>
      </trkpt>
      <trkpt lat="45.83164" lon="4.83344">
        <ele>270.578186</ele>
        <time>2016-05-22T10:19:17Z</time>
      </trkpt>
      <trkpt lat="45.83155" lon="4.83353">
        <ele>270.580139</ele>
        <time>2016-05-22T10:19:19Z</time>
      </trkpt>
      <trkpt lat="45.83148" lon="4.8336">
        <ele>270.560883</ele>
        <time>2016-05-22T10:19:21Z</time>
      </trkpt>
      <trkpt lat="45.83143" lon="4.83367">
        <ele>270.612213</ele>
        <time>2016-05-22T10:19:23Z</time>
      </trkpt>
      <trkpt lat="45.83143" lon="4.83374">
        <ele>270.602142</ele>
        <time>2016-05-22T10:19:25Z</time>
      </trkpt>
      <trkpt lat="45.83144" lon="4.83381">
        <ele>270.64032</ele>
        <time>2016-05-22T10:19:27Z</time>
      </trkpt>
      <trkpt lat="45.83145" lon="4.8339">
        <ele>270.327881</ele>
        <time>2016-05-22T10:19:29Z</time>
      </trkpt>
      <trkpt lat="45.83149" lon="4.83397">
        <ele>270.192352</ele>
        <time>2016-05-22T10:19:31Z</time>
      </trkpt>
      <trkpt lat="45.83155" lon="4.83401">
        <ele>270.003357</ele>
        <time>2016-05-22T10:19:33Z</time>
      </trkpt>
      <trkpt lat="45.83164" lon="4.83402">
        <ele>269.714264</ele>
        <time>2016-05-22T10:19:35Z</time>
      </trkpt>
      <trkpt lat="45.83175" lon="4.83402">
        <ele>269.275574</ele>
        <time>2016-05-22T10:19:37Z</time>
      </trkpt>
      <trkpt lat="45.83186" lon="4.83399">
        <ele>269.047882</ele>
        <time>2016-05-22T10:19:39Z</time>
      </trkpt>
      <trkpt lat="45.83197" lon="4.83394">
        <ele>268.799561</ele>
        <time>2016-05-22T10:19:41Z</time>
      </trkpt>
      <trkpt lat="45.83205" lon="4.83389">
        <ele>268.246185</ele>
        <time>2016-05-22T10:19:43Z</time>
      </trkpt>
      <trkpt lat="45.83214" lon="4.83384">
        <ele>267.488922</ele>
        <time>2016-05-22T10:19:45Z</time>
      </trkpt>
      <trkpt lat="45.83225" lon="4.83374">
        <ele>267.075958</ele>
        <time>2016-05-22T10:19:47Z</time>
      </trkpt>
      <trkpt lat="45.83235" lon="4.83359">
        <ele>266.389374</ele>
        <time>2016-05-22T10:19:49Z</time>
      </trkpt>
      <trkpt lat="45.83244" lon="4.83346">
        <ele>265.979889</ele>
        <time>2016-05-22T10:19:51Z</time>
      </trkpt>
      <trkpt lat="45.83252" lon="4.83333">
        <ele>265.100494</ele>
        <time>2016-05-22T10:19:53Z</time>
      </trkpt>
      <trkpt lat="45.83258" lon="4.83318">
        <ele>264.590179</ele>
        <time>2016-05-22T10:19:55Z</time>
      </trkpt>
      <trkpt lat="45.83264" lon="4.83304">
        <ele>263.846863</ele>
        <time>2016-05-22T10:19:57Z</time>
      </trkpt>
      <trkpt lat="45.83271" lon="4.83291">
        <ele>263.515137</ele>
        <time>2016-05-22T10:19:59Z</time>
      </trkpt>
      <trkpt lat="45.83279" lon="4.83277">
        <ele>262.747559</ele>
        <time>2016-05-22T10:20:01Z</time>
      </trkpt>
      <trkpt lat="45.83287" lon="4.83266">
        <ele>262.317932</ele>
        <time>2016-05-22T10:20:03Z</time>
      </trkpt>
      <trkpt lat="45.83296" lon="4.83259">
        <ele>261.498108</ele>
        <time>2016-05-22T10:20:05Z</time>
      </trkpt>
      <trkpt lat="45.83304" lon="4.83256">
        <ele>260.795471</ele>
        <time>2016-05-22T10:20:07Z</time>
      </trkpt>
      <trkpt lat="45.83309" lon="4.83256">
        <ele>260.065826</ele>
        <time>2016-05-22T10:20:09Z</time>
      </trkpt>
      <trkpt lat="45.83318" lon="4.83256">
        <ele>259.390717</ele>
        <time>2016-05-22T10:20:11Z</time>
      </trkpt>
      <trkpt lat="45.83329" lon="4.83256">
        <ele>259.093353</ele>
        <time>2016-05-22T10:20:13Z</time>
      </trkpt>
      <trkpt lat="45.83341" lon="4.83256">
        <ele>258.601013</ele>
        <time>2016-05-22T10:20:15Z</time>
      </trkpt>
      <trkpt lat="45.83354" lon="4.83258">
        <ele>257.727783</ele>
        <time>2016-05-22T10:20:17Z</time>
      </trkpt>
      <trkpt lat="45.83366" lon="4.8326">
        <ele>257.360107</ele>
        <time>2016-05-22T10:20:19Z</time>
      </trkpt>
      <trkpt lat="45.83378" lon="4.83265">
        <ele>256.30069</ele>
        <time>2016-05-22T10:20:21Z</time>
      </trkpt>
      <trkpt lat="45.8339" lon="4.83271">
        <ele>255.836578</ele>
        <time>2016-05-22T10:20:23Z</time>
      </trkpt>
      <trkpt lat="45.83404" lon="4.8327">
        <ele>255.229538</ele>
        <time>2016-05-22T10:20:25Z</time>
      </trkpt>
      <trkpt lat="45.83418" lon="4.8327">
        <ele>254.530914</ele>
        <time>2016-05-22T10:20:27Z</time>
      </trkpt>
      <trkpt lat="45.83429" lon="4.83267">
        <ele>253.930222</ele>
        <time>2016-05-22T10:20:29Z</time>
      </trkpt>
      <trkpt lat="45.83433" lon="4.83257">
        <ele>253.263519</ele>
        <time>2016-05-22T10:20:31Z</time>
      </trkpt>
      <trkpt lat="45.83434" lon="4.8325">
        <ele>252.750778</ele>
        <time>2016-05-22T10:20:33Z</time>
      </trkpt>
      <trkpt lat="45.83434" lon="4.83239">
        <ele>251.901077</ele>
        <time>2016-05-22T10:20:35Z</time>
      </trkpt>
      <trkpt lat="45.83432" lon="4.83229">
        <ele>250.920364</ele>
        <time>2016-05-22T10:20:37Z</time>
      </trkpt>
      <trkpt lat="45.83429" lon="4.83215">
        <ele>250.181305</ele>
        <time>2016-05-22T10:20:39Z</time>
      </trkpt>
      <trkpt lat="45.83427" lon="4.83206">
        <ele>249.026443</ele>
        <time>2016-05-22T10:20:41Z</time>
      </trkpt>
      <trkpt lat="45.8343" lon="4.83203">
        <ele>248.341141</ele>
        <time>2016-05-22T10:20:43Z</time>
      </trkpt>
      <trkpt lat="45.83436" lon="4.83202">
        <ele>247.331299</ele>
        <time>2016-05-22T10:20:45Z</time>
      </trkpt>
      <trkpt lat="45.83444" lon="4.83197">
        <ele>245.898285</ele>
        <time>2016-05-22T10:20:47Z</time>
      </trkpt>
      <trkpt lat="45.83453" lon="4.83192">
        <ele>244.61911</ele>
        <time>2016-05-22T10:20:49Z</time>
      </trkpt>
      <trkpt lat="45.83464" lon="4.83185">
        <ele>242.419159</ele>
        <time>2016-05-22T10:20:51Z</time>
      </trkpt>
      <trkpt lat="45.83475" lon="4.83178">
        <ele>241.161179</ele>
        <time>2016-05-22T10:20:53Z</time>
      </trkpt>
      <trkpt lat="45.83487" lon="4.83173">
        <ele>240.506378</ele>
        <time>2016-05-22T10:20:55Z</time>
      </trkpt>
      <trkpt lat="45.83497" lon="4.83168">
        <ele>238.633179</ele>
        <time>2016-05-22T10:20:57Z</time>
      </trkpt>
      <trkpt lat="45.83506" lon="4.83161">
        <ele>236.585526</ele>
        <time>2016-05-22T10:20:59Z</time>
      </trkpt>
      <trkpt lat="45.83515" lon="4.83156">
        <ele>234.609985</ele>
        <time>2016-05-22T10:21:01Z</time>
      </trkpt>
      <trkpt lat="45.83523" lon="4.83148">
        <ele>232.809723</ele>
        <time>2016-05-22T10:21:03Z</time>
      </trkpt>
      <trkpt lat="45.83532" lon="4.83139">
        <ele>230.914642</ele>
        <time>2016-05-22T10:21:05Z</time>
      </trkpt>
      <trkpt lat="45.83542" lon="4.83129">
        <ele>228.835648</ele>
        <time>2016-05-22T10:21:07Z</time>
      </trkpt>
      <trkpt lat="45.83552" lon="4.83117">
        <ele>226.916901</ele>
        <time>2016-05-22T10:21:09Z</time>
      </trkpt>
      <trkpt lat="45.83564" lon="4.83105">
        <ele>226.153717</ele>
        <time>2016-05-22T10:21:11Z</time>
      </trkpt>
      <trkpt lat="45.83575" lon="4.83093">
        <ele>224.115402</ele>
        <time>2016-05-22T10:21:13Z</time>
      </trkpt>
      <trkpt lat="45.83587" lon="4.8308">
        <ele>222.361649</ele>
        <time>2016-05-22T10:21:15Z</time>
      </trkpt>
      <trkpt lat="45.836" lon="4.83067">
        <ele>220.693604</ele>
        <time>2016-05-22T10:21:17Z</time>
      </trkpt>
      <trkpt lat="45.83611" lon="4.83055">
        <ele>218.967682</ele>
        <time>2016-05-22T10:21:19Z</time>
      </trkpt>
      <trkpt lat="45.83619" lon="4.83042">
        <ele>217.207001</ele>
        <time>2016-05-22T10:21:21Z</time>
      </trkpt>
      <trkpt lat="45.83629" lon="4.83028">
        <ele>215.845551</ele>
        <time>2016-05-22T10:21:23Z</time>
      </trkpt>
      <trkpt lat="45.83637" lon="4.83015">
        <ele>214.442383</ele>
        <time>2016-05-22T10:21:25Z</time>
      </trkpt>
      <trkpt lat="45.83646" lon="4.83004">
        <ele>213.635895</ele>
        <time>2016-05-22T10:21:27Z</time>
      </trkpt>
      <trkpt lat="45.83659" lon="4.82993">
        <ele>212.577545</ele>
        <time>2016-05-22T10:21:29Z</time>
      </trkpt>
      <trkpt lat="45.83672" lon="4.82981">
        <ele>211.365692</ele>
        <time>2016-05-22T10:21:31Z</time>
      </trkpt>
      <trkpt lat="45.83687" lon="4.82968">
        <ele>210.305145</ele>
        <time>2016-05-22T10:21:33Z</time>
      </trkpt>
      <trkpt lat="45.83701" lon="4.82955">
        <ele>210.026535</ele>
        <time>2016-05-22T10:21:35Z</time>
      </trkpt>
      <trkpt lat="45.83714" lon="4.8295">
        <ele>208.815353</ele>
        <time>2016-05-22T10:21:37Z</time>
      </trkpt>
      <trkpt lat="45.83728" lon="4.82944">
        <ele>207.610672</ele>
        <time>2016-05-22T10:21:39Z</time>
      </trkpt>
      <trkpt lat="45.8374" lon="4.8294">
        <ele>206.921341</ele>
        <time>2016-05-22T10:21:41Z</time>
      </trkpt>
      <trkpt lat="45.83748" lon="4.82944">
        <ele>206.623581</ele>
        <time>2016-05-22T10:21:43Z</time>
      </trkpt>
      <trkpt lat="45.83755" lon="4.82953">
        <ele>205.775635</ele>
        <time>2016-05-22T10:21:45Z</time>
      </trkpt>
      <trkpt lat="45.83765" lon="4.82958">
        <ele>204.998688</ele>
        <time>2016-05-22T10:21:47Z</time>
      </trkpt>
      <trkpt lat="45.83775" lon="4.82958">
        <ele>204.127609</ele>
        <time>2016-05-22T10:21:49Z</time>
      </trkpt>
      <trkpt lat="45.83786" lon="4.82953">
        <ele>203.340805</ele>
        <time>2016-05-22T10:21:51Z</time>
      </trkpt>
      <trkpt lat="45.83798" lon="4.82941">
        <ele>202.392548</ele>
        <time>2016-05-22T10:21:53Z</time>
      </trkpt>
      <trkpt lat="45.83811" lon="4.82927">
        <ele>201.320419</ele>
        <time>2016-05-22T10:21:55Z</time>
      </trkpt>
      <trkpt lat="45.83826" lon="4.82913">
        <ele>200.42868</ele>
        <time>2016-05-22T10:21:57Z</time>
      </trkpt>
      <trkpt lat="45.83842" lon="4.82901">
        <ele>200.060822</ele>
        <time>2016-05-22T10:21:59Z</time>
      </trkpt>
      <trkpt lat="45.83859" lon="4.82889">
        <ele>199.041092</ele>
        <time>2016-05-22T10:22:01Z</time>
      </trkpt>
      <trkpt lat="45.83875" lon="4.8288">
        <ele>198.299179</ele>
        <time>2016-05-22T10:22:03Z</time>
      </trkpt>
      <trkpt lat="45.83891" lon="4.8287">
        <ele>197.43071</ele>
        <time>2016-05-22T10:22:05Z</time>
      </trkpt>
      <trkpt lat="45.83905" lon="4.82863">
        <ele>196.510178</ele>
        <time>2016-05-22T10:22:07Z</time>
      </trkpt>
      <trkpt lat="45.8392" lon="4.82859">
        <ele>195.669479</ele>
        <time>2016-05-22T10:22:09Z</time>
      </trkpt>
      <trkpt lat="45.83933" lon="4.82854">
        <ele>195.201645</ele>
        <time>2016-05-22T10:22:11Z</time>
      </trkpt>
      <trkpt lat="45.83944" lon="4.82847">
        <ele>194.346222</ele>
        <time>2016-05-22T10:22:13Z</time>
      </trkpt>
      <trkpt lat="45.83952" lon="4.82837">
        <ele>193.721176</ele>
        <time>2016-05-22T10:22:15Z</time>
      </trkpt>
      <trkpt lat="45.8396" lon="4.82834">
        <ele>192.874985</ele>
        <time>2016-05-22T10:22:17Z</time>
      </trkpt>
      <trkpt lat="45.83966" lon="4.82844">
        <ele>192.300003</ele>
        <time>2016-05-22T10:22:19Z</time>
      </trkpt>
      <trkpt lat="45.8397" lon="4.82853">
        <ele>191.683578</ele>
        <time>2016-05-22T10:22:21Z</time>
      </trkpt>
      <trkpt lat="45.83972" lon="4.82856">
        <ele>191.454102</ele>
        <time>2016-05-22T10:22:23Z</time>
      </trkpt>
      <trkpt lat="45.83974" lon="4.82854">
        <ele>190.040314</ele>
        <time>2016-05-22T10:22:29Z</time>
      </trkpt>
      <trkpt lat="45.83973" lon="4.82852">
        <ele>189.498489</ele>
        <time>2016-05-22T10:22:33Z</time>
      </trkpt>
      <trkpt lat="45.83971" lon="4.8285">
        <ele>189.451752</ele>
        <time>2016-05-22T10:22:35Z</time>
      </trkpt>
      <trkpt lat="45.8397" lon="4.82848">
        <ele>189.464493</ele>
        <time>2016-05-22T10:22:37Z</time>
      </trkpt>
      <trkpt lat="45.8397" lon="4.82845">
        <ele>189.3965</ele>
        <time>2016-05-22T10:22:39Z</time>
      </trkpt>
      <trkpt lat="45.8397" lon="4.82842">
        <ele>189.481476</ele>
        <time>2016-05-22T10:22:41Z</time>
      </trkpt>
      <trkpt lat="45.83967" lon="4.82838">
        <ele>189.378616</ele>
        <time>2016-05-22T10:22:43Z</time>
      </trkpt>
      <trkpt lat="45.83969" lon="4.82834">
        <ele>189.752472</ele>
        <time>2016-05-22T10:22:45Z</time>
      </trkpt>
      <trkpt lat="45.83972" lon="4.82838">
        <ele>189.748199</ele>
        <time>2016-05-22T10:22:47Z</time>
      </trkpt>
      <trkpt lat="45.83976" lon="4.82845">
        <ele>189.853333</ele>
        <time>2016-05-22T10:22:49Z</time>
      </trkpt>
      <trkpt lat="45.83978" lon="4.82849">
        <ele>189.946808</ele>
        <time>2016-05-22T10:22:51Z</time>
      </trkpt>
      <trkpt lat="45.83979" lon="4.82852">
        <ele>189.972595</ele>
        <time>2016-05-22T10:22:53Z</time>
      </trkpt>
      <trkpt lat="45.8398" lon="4.82854">
        <ele>189.990082</ele>
        <time>2016-05-22T10:22:55Z</time>
      </trkpt>
      <trkpt lat="45.83982" lon="4.82855">
        <ele>190.006287</ele>
        <time>2016-05-22T10:22:57Z</time>
      </trkpt>
      <trkpt lat="45.83986" lon="4.82854">
        <ele>190.496475</ele>
        <time>2016-05-22T10:23:07Z</time>
      </trkpt>
      <trkpt lat="45.83987" lon="4.82853">
        <ele>190.757767</ele>
        <time>2016-05-22T10:23:09Z</time>
      </trkpt>
      <trkpt lat="45.83989" lon="4.82851">
        <ele>190.916092</ele>
        <time>2016-05-22T10:23:11Z</time>
      </trkpt>
      <trkpt lat="45.83991" lon="4.82849">
        <ele>191.198929</ele>
        <time>2016-05-22T10:23:15Z</time>
      </trkpt>
      <trkpt lat="45.83994" lon="4.82847">
        <ele>191.365189</ele>
        <time>2016-05-22T10:23:17Z</time>
      </trkpt>
      <trkpt lat="45.83999" lon="4.82844">
        <ele>191.579803</ele>
        <time>2016-05-22T10:23:19Z</time>
      </trkpt>
      <trkpt lat="45.84005" lon="4.82841">
        <ele>191.737045</ele>
        <time>2016-05-22T10:23:21Z</time>
      </trkpt>
      <trkpt lat="45.84011" lon="4.82838">
        <ele>191.756165</ele>
        <time>2016-05-22T10:23:23Z</time>
      </trkpt>
      <trkpt lat="45.84019" lon="4.82834">
        <ele>191.827194</ele>
        <time>2016-05-22T10:23:25Z</time>
      </trkpt>
      <trkpt lat="45.84028" lon="4.82831">
        <ele>191.842072</ele>
        <time>2016-05-22T10:23:27Z</time>
      </trkpt>
      <trkpt lat="45.84036" lon="4.82827">
        <ele>191.877274</ele>
        <time>2016-05-22T10:23:29Z</time>
      </trkpt>
      <trkpt lat="45.84045" lon="4.82824">
        <ele>192.251404</ele>
        <time>2016-05-22T10:23:31Z</time>
      </trkpt>
      <trkpt lat="45.84054" lon="4.82822">
        <ele>192.289658</ele>
        <time>2016-05-22T10:23:33Z</time>
      </trkpt>
      <trkpt lat="45.84062" lon="4.82818">
        <ele>192.406219</ele>
        <time>2016-05-22T10:23:35Z</time>
      </trkpt>
      <trkpt lat="45.8407" lon="4.82815">
        <ele>192.519653</ele>
        <time>2016-05-22T10:23:37Z</time>
      </trkpt>
      <trkpt lat="45.84079" lon="4.82811">
        <ele>192.664932</ele>
        <time>2016-05-22T10:23:39Z</time>
      </trkpt>
      <trkpt lat="45.84087" lon="4.82808">
        <ele>192.837997</ele>
        <time>2016-05-22T10:23:41Z</time>
      </trkpt>
      <trkpt lat="45.84096" lon="4.82806">
        <ele>192.663834</ele>
        <time>2016-05-22T10:23:43Z</time>
      </trkpt>
      <trkpt lat="45.84103" lon="4.82804">
        <ele>192.846588</ele>
        <time>2016-05-22T10:23:45Z</time>
      </trkpt>
      <trkpt lat="45.84111" lon="4.82802">
        <ele>193.02002</ele>
        <time>2016-05-22T10:23:47Z</time>
      </trkpt>
      <trkpt lat="45.84118" lon="4.82801">
        <ele>193.147537</ele>
        <time>2016-05-22T10:23:49Z</time>
      </trkpt>
      <trkpt lat="45.84124" lon="4.82798">
        <ele>193.245285</ele>
        <time>2016-05-22T10:23:51Z</time>
      </trkpt>
      <trkpt lat="45.84131" lon="4.82797">
        <ele>193.36644</ele>
        <time>2016-05-22T10:23:53Z</time>
      </trkpt>
      <trkpt lat="45.84138" lon="4.82794">
        <ele>193.490433</ele>
        <time>2016-05-22T10:23:55Z</time>
      </trkpt>
      <trkpt lat="45.84146" lon="4.82792">
        <ele>193.60733</ele>
        <time>2016-05-22T10:23:57Z</time>
      </trkpt>
      <trkpt lat="45.84154" lon="4.8279">
        <ele>193.744949</ele>
        <time>2016-05-22T10:23:59Z</time>
      </trkpt>
      <trkpt lat="45.84163" lon="4.8279">
        <ele>193.917755</ele>
        <time>2016-05-22T10:24:01Z</time>
      </trkpt>
      <trkpt lat="45.84172" lon="4.82789">
        <ele>193.828476</ele>
        <time>2016-05-22T10:24:03Z</time>
      </trkpt>
      <trkpt lat="45.8418" lon="4.82786">
        <ele>194.045242</ele>
        <time>2016-05-22T10:24:05Z</time>
      </trkpt>
      <trkpt lat="45.84189" lon="4.82786">
        <ele>194.316971</ele>
        <time>2016-05-22T10:24:07Z</time>
      </trkpt>
      <trkpt lat="45.84197" lon="4.82786">
        <ele>194.457245</ele>
        <time>2016-05-22T10:24:09Z</time>
      </trkpt>
      <trkpt lat="45.84206" lon="4.82786">
        <ele>194.592072</ele>
        <time>2016-05-22T10:24:11Z</time>
      </trkpt>
      <trkpt lat="45.84217" lon="4.82786">
        <ele>194.449982</ele>
        <time>2016-05-22T10:24:13Z</time>
      </trkpt>
      <trkpt lat="45.84229" lon="4.82786">
        <ele>194.639023</ele>
        <time>2016-05-22T10:24:15Z</time>
      </trkpt>
      <trkpt lat="45.8424" lon="4.82786">
        <ele>194.747421</ele>
        <time>2016-05-22T10:24:17Z</time>
      </trkpt>
      <trkpt lat="45.84252" lon="4.82785">
        <ele>194.926453</ele>
        <time>2016-05-22T10:24:19Z</time>
      </trkpt>
      <trkpt lat="45.84264" lon="4.82784">
        <ele>194.915024</ele>
        <time>2016-05-22T10:24:21Z</time>
      </trkpt>
      <trkpt lat="45.84275" lon="4.82784">
        <ele>194.855621</ele>
        <time>2016-05-22T10:24:23Z</time>
      </trkpt>
      <trkpt lat="45.84286" lon="4.82784">
        <ele>194.908676</ele>
        <time>2016-05-22T10:24:25Z</time>
      </trkpt>
      <trkpt lat="45.84297" lon="4.82784">
        <ele>194.929947</ele>
        <time>2016-05-22T10:24:27Z</time>
      </trkpt>
      <trkpt lat="45.84307" lon="4.82784">
        <ele>194.921417</ele>
        <time>2016-05-22T10:24:29Z</time>
      </trkpt>
      <trkpt lat="45.84317" lon="4.82785">
        <ele>194.711075</ele>
        <time>2016-05-22T10:24:31Z</time>
      </trkpt>
      <trkpt lat="45.84327" lon="4.82786">
        <ele>194.713196</ele>
        <time>2016-05-22T10:24:33Z</time>
      </trkpt>
      <trkpt lat="45.84337" lon="4.82786">
        <ele>194.715317</ele>
        <time>2016-05-22T10:24:35Z</time>
      </trkpt>
      <trkpt lat="45.84346" lon="4.82787">
        <ele>194.634583</ele>
        <time>2016-05-22T10:24:37Z</time>
      </trkpt>
      <trkpt lat="45.84355" lon="4.82788">
        <ele>194.713226</ele>
        <time>2016-05-22T10:24:39Z</time>
      </trkpt>
      <trkpt lat="45.84364" lon="4.82788">
        <ele>194.732361</ele>
        <time>2016-05-22T10:24:41Z</time>
      </trkpt>
      <trkpt lat="45.84372" lon="4.8279">
        <ele>194.813446</ele>
        <time>2016-05-22T10:24:43Z</time>
      </trkpt>
      <trkpt lat="45.84381" lon="4.82794">
        <ele>194.963959</ele>
        <time>2016-05-22T10:24:45Z</time>
      </trkpt>
      <trkpt lat="45.84389" lon="4.82798">
        <ele>194.995819</ele>
        <time>2016-05-22T10:24:47Z</time>
      </trkpt>
      <trkpt lat="45.84398" lon="4.828">
        <ele>195.011017</ele>
        <time>2016-05-22T10:24:49Z</time>
      </trkpt>
      <trkpt lat="45.84406" lon="4.82802">
        <ele>194.934479</ele>
        <time>2016-05-22T10:24:51Z</time>
      </trkpt>
      <trkpt lat="45.84412" lon="4.82803">
        <ele>194.966354</ele>
        <time>2016-05-22T10:24:53Z</time>
      </trkpt>
      <trkpt lat="45.84417" lon="4.82805">
        <ele>194.963837</ele>
        <time>2016-05-22T10:24:55Z</time>
      </trkpt>
      <trkpt lat="45.84428" lon="4.82805">
        <ele>196.111374</ele>
        <time>2016-05-22T10:25:15Z</time>
      </trkpt>
      <trkpt lat="45.84434" lon="4.82808">
        <ele>196.23999</ele>
        <time>2016-05-22T10:25:17Z</time>
      </trkpt>
      <trkpt lat="45.84442" lon="4.82811">
        <ele>196.43338</ele>
        <time>2016-05-22T10:25:19Z</time>
      </trkpt>
      <trkpt lat="45.8445" lon="4.82814">
        <ele>196.639572</ele>
        <time>2016-05-22T10:25:21Z</time>
      </trkpt>
      <trkpt lat="45.84459" lon="4.82815">
        <ele>196.626831</ele>
        <time>2016-05-22T10:25:23Z</time>
      </trkpt>
      <trkpt lat="45.84465" lon="4.82814">
        <ele>196.610992</ele>
        <time>2016-05-22T10:25:25Z</time>
      </trkpt>
      <trkpt lat="45.84472" lon="4.82816">
        <ele>196.626266</ele>
        <time>2016-05-22T10:25:27Z</time>
      </trkpt>
      <trkpt lat="45.84479" lon="4.82821">
        <ele>196.654861</ele>
        <time>2016-05-22T10:25:29Z</time>
      </trkpt>
      <trkpt lat="45.84484" lon="4.8283">
        <ele>196.88028</ele>
        <time>2016-05-22T10:25:31Z</time>
      </trkpt>
      <trkpt lat="45.84485" lon="4.82844">
        <ele>197.043976</ele>
        <time>2016-05-22T10:25:33Z</time>
      </trkpt>
      <trkpt lat="45.84486" lon="4.82859">
        <ele>196.988724</ele>
        <time>2016-05-22T10:25:35Z</time>
      </trkpt>
      <trkpt lat="45.84487" lon="4.82873">
        <ele>196.995819</ele>
        <time>2016-05-22T10:25:37Z</time>
      </trkpt>
      <trkpt lat="45.84486" lon="4.82889">
        <ele>196.898788</ele>
        <time>2016-05-22T10:25:39Z</time>
      </trkpt>
      <trkpt lat="45.84487" lon="4.82906">
        <ele>196.74791</ele>
        <time>2016-05-22T10:25:41Z</time>
      </trkpt>
      <trkpt lat="45.84491" lon="4.82924">
        <ele>196.616455</ele>
        <time>2016-05-22T10:25:43Z</time>
      </trkpt>
      <trkpt lat="45.84498" lon="4.82942">
        <ele>196.482086</ele>
        <time>2016-05-22T10:25:45Z</time>
      </trkpt>
      <trkpt lat="45.84504" lon="4.82961">
        <ele>196.26207</ele>
        <time>2016-05-22T10:25:47Z</time>
      </trkpt>
      <trkpt lat="45.8451" lon="4.82982">
        <ele>196.021942</ele>
        <time>2016-05-22T10:25:49Z</time>
      </trkpt>
      <trkpt lat="45.84516" lon="4.83003">
        <ele>195.834137</ele>
        <time>2016-05-22T10:25:51Z</time>
      </trkpt>
      <trkpt lat="45.84522" lon="4.83025">
        <ele>195.495331</ele>
        <time>2016-05-22T10:25:53Z</time>
      </trkpt>
      <trkpt lat="45.84526" lon="4.83047">
        <ele>195.042755</ele>
        <time>2016-05-22T10:25:55Z</time>
      </trkpt>
      <trkpt lat="45.84531" lon="4.8307">
        <ele>194.432968</ele>
        <time>2016-05-22T10:25:57Z</time>
      </trkpt>
      <trkpt lat="45.84536" lon="4.83092">
        <ele>194.316132</ele>
        <time>2016-05-22T10:25:59Z</time>
      </trkpt>
      <trkpt lat="45.84541" lon="4.83114">
        <ele>193.805298</ele>
        <time>2016-05-22T10:26:01Z</time>
      </trkpt>
      <trkpt lat="45.84545" lon="4.83132">
        <ele>193.148773</ele>
        <time>2016-05-22T10:26:03Z</time>
      </trkpt>
      <trkpt lat="45.84547" lon="4.83146">
        <ele>192.553802</ele>
        <time>2016-05-22T10:26:05Z</time>
      </trkpt>
      <trkpt lat="45.84541" lon="4.83153">
        <ele>191.965256</ele>
        <time>2016-05-22T10:26:07Z</time>
      </trkpt>
      <trkpt lat="45.84533" lon="4.83156">
        <ele>191.368195</ele>
        <time>2016-05-22T10:26:09Z</time>
      </trkpt>
      <trkpt lat="45.84532" lon="4.83168">
        <ele>190.776016</ele>
        <time>2016-05-22T10:26:11Z</time>
      </trkpt>
      <trkpt lat="45.84531" lon="4.83181">
        <ele>190.157745</ele>
        <time>2016-05-22T10:26:13Z</time>
      </trkpt>
      <trkpt lat="45.8453" lon="4.83193">
        <ele>189.277878</ele>
        <time>2016-05-22T10:26:15Z</time>
      </trkpt>
      <trkpt lat="45.84528" lon="4.83204">
        <ele>189.003815</ele>
        <time>2016-05-22T10:26:17Z</time>
      </trkpt>
      <trkpt lat="45.84528" lon="4.83212">
        <ele>188.526443</ele>
        <time>2016-05-22T10:26:19Z</time>
      </trkpt>
      <trkpt lat="45.84527" lon="4.83217">
        <ele>187.994568</ele>
        <time>2016-05-22T10:26:21Z</time>
      </trkpt>
      <trkpt lat="45.84526" lon="4.83221">
        <ele>187.520844</ele>
        <time>2016-05-22T10:26:23Z</time>
      </trkpt>
      <trkpt lat="45.84525" lon="4.8323">
        <ele>186.221939</ele>
        <time>2016-05-22T10:26:31Z</time>
      </trkpt>
      <trkpt lat="45.84523" lon="4.83237">
        <ele>185.92218</ele>
        <time>2016-05-22T10:26:33Z</time>
      </trkpt>
      <trkpt lat="45.84521" lon="4.83248">
        <ele>185.642914</ele>
        <time>2016-05-22T10:26:35Z</time>
      </trkpt>
      <trkpt lat="45.8452" lon="4.8326">
        <ele>185.619537</ele>
        <time>2016-05-22T10:26:37Z</time>
      </trkpt>
      <trkpt lat="45.84518" lon="4.83272">
        <ele>185.7173</ele>
        <time>2016-05-22T10:26:39Z</time>
      </trkpt>
      <trkpt lat="45.84517" lon="4.83283">
        <ele>185.814972</ele>
        <time>2016-05-22T10:26:41Z</time>
      </trkpt>
      <trkpt lat="45.84515" lon="4.83295">
        <ele>185.712799</ele>
        <time>2016-05-22T10:26:43Z</time>
      </trkpt>
      <trkpt lat="45.84513" lon="4.83306">
        <ele>185.818985</ele>
        <time>2016-05-22T10:26:45Z</time>
      </trkpt>
      <trkpt lat="45.84512" lon="4.83318">
        <ele>186.003754</ele>
        <time>2016-05-22T10:26:47Z</time>
      </trkpt>
      <trkpt lat="45.8451" lon="4.8333">
        <ele>186.120575</ele>
        <time>2016-05-22T10:26:49Z</time>
      </trkpt>
      <trkpt lat="45.84509" lon="4.83342">
        <ele>186.180023</ele>
        <time>2016-05-22T10:26:51Z</time>
      </trkpt>
      <trkpt lat="45.84507" lon="4.83355">
        <ele>186.28154</ele>
        <time>2016-05-22T10:26:53Z</time>
      </trkpt>
      <trkpt lat="45.84506" lon="4.83368">
        <ele>186.494492</ele>
        <time>2016-05-22T10:26:55Z</time>
      </trkpt>
      <trkpt lat="45.84504" lon="4.83381">
        <ele>186.524231</ele>
        <time>2016-05-22T10:26:57Z</time>
      </trkpt>
      <trkpt lat="45.84502" lon="4.83394">
        <ele>186.68988</ele>
        <time>2016-05-22T10:26:59Z</time>
      </trkpt>
      <trkpt lat="45.84499" lon="4.83407">
        <ele>186.759308</ele>
        <time>2016-05-22T10:27:01Z</time>
      </trkpt>
      <trkpt lat="45.84498" lon="4.8342">
        <ele>186.793289</ele>
        <time>2016-05-22T10:27:03Z</time>
      </trkpt>
      <trkpt lat="45.84496" lon="4.83432">
        <ele>186.918106</ele>
        <time>2016-05-22T10:27:05Z</time>
      </trkpt>
      <trkpt lat="45.84494" lon="4.83443">
        <ele>187.058701</ele>
        <time>2016-05-22T10:27:07Z</time>
      </trkpt>
      <trkpt lat="45.84494" lon="4.8345">
        <ele>187.182037</ele>
        <time>2016-05-22T10:27:09Z</time>
      </trkpt>
      <trkpt lat="45.84492" lon="4.83458">
        <ele>187.281845</ele>
        <time>2016-05-22T10:27:11Z</time>
      </trkpt>
      <trkpt lat="45.8449" lon="4.83465">
        <ele>187.388031</ele>
        <time>2016-05-22T10:27:13Z</time>
      </trkpt>
      <trkpt lat="45.84489" lon="4.83472">
        <ele>187.388031</ele>
        <time>2016-05-22T10:27:15Z</time>
      </trkpt>
      <trkpt lat="45.84487" lon="4.83475">
        <ele>187.452423</ele>
        <time>2016-05-22T10:27:17Z</time>
      </trkpt>
      <trkpt lat="45.84483" lon="4.83476">
        <ele>187.560715</ele>
        <time>2016-05-22T10:27:19Z</time>
      </trkpt>
      <trkpt lat="45.84477" lon="4.83474">
        <ele>187.458801</ele>
        <time>2016-05-22T10:27:21Z</time>
      </trkpt>
      <trkpt lat="45.8447" lon="4.83472">
        <ele>187.285187</ele>
        <time>2016-05-22T10:27:23Z</time>
      </trkpt>
      <trkpt lat="45.84464" lon="4.83467">
        <ele>187.252823</ele>
        <time>2016-05-22T10:27:25Z</time>
      </trkpt>
      <trkpt lat="45.84457" lon="4.83459">
        <ele>187.055344</ele>
        <time>2016-05-22T10:27:27Z</time>
      </trkpt>
      <trkpt lat="45.84448" lon="4.83452">
        <ele>186.906708</ele>
        <time>2016-05-22T10:27:29Z</time>
      </trkpt>
      <trkpt lat="45.84438" lon="4.83444">
        <ele>186.603012</ele>
        <time>2016-05-22T10:27:31Z</time>
      </trkpt>
      <trkpt lat="45.84427" lon="4.83436">
        <ele>186.473495</ele>
        <time>2016-05-22T10:27:33Z</time>
      </trkpt>
      <trkpt lat="45.84415" lon="4.83428">
        <ele>186.208359</ele>
        <time>2016-05-22T10:27:35Z</time>
      </trkpt>
      <trkpt lat="45.84402" lon="4.83422">
        <ele>185.986664</ele>
        <time>2016-05-22T10:27:37Z</time>
      </trkpt>
      <trkpt lat="45.84388" lon="4.83417">
        <ele>185.636292</ele>
        <time>2016-05-22T10:27:39Z</time>
      </trkpt>
      <trkpt lat="45.84375" lon="4.83412">
        <ele>185.389984</ele>
        <time>2016-05-22T10:27:41Z</time>
      </trkpt>
      <trkpt lat="45.84363" lon="4.83408">
        <ele>185.069366</ele>
        <time>2016-05-22T10:27:43Z</time>
      </trkpt>
      <trkpt lat="45.84351" lon="4.83404">
        <ele>184.889313</ele>
        <time>2016-05-22T10:27:45Z</time>
      </trkpt>
      <trkpt lat="45.84339" lon="4.834">
        <ele>184.613754</ele>
        <time>2016-05-22T10:27:47Z</time>
      </trkpt>
      <trkpt lat="45.84327" lon="4.83396">
        <ele>184.379761</ele>
        <time>2016-05-22T10:27:49Z</time>
      </trkpt>
      <trkpt lat="45.84316" lon="4.83392">
        <ele>184.130844</ele>
        <time>2016-05-22T10:27:51Z</time>
      </trkpt>
      <trkpt lat="45.84304" lon="4.83388">
        <ele>183.778366</ele>
        <time>2016-05-22T10:27:53Z</time>
      </trkpt>
      <trkpt lat="45.84293" lon="4.83384">
        <ele>183.438675</ele>
        <time>2016-05-22T10:27:55Z</time>
      </trkpt>
      <trkpt lat="45.84282" lon="4.83381">
        <ele>183.196625</ele>
        <time>2016-05-22T10:27:57Z</time>
      </trkpt>
      <trkpt lat="45.84271" lon="4.83377">
        <ele>182.860748</ele>
        <time>2016-05-22T10:27:59Z</time>
      </trkpt>
      <trkpt lat="45.84261" lon="4.83374">
        <ele>182.593216</ele>
        <time>2016-05-22T10:28:01Z</time>
      </trkpt>
      <trkpt lat="45.8425" lon="4.8337">
        <ele>182.476456</ele>
        <time>2016-05-22T10:28:03Z</time>
      </trkpt>
      <trkpt lat="45.8424" lon="4.83367">
        <ele>182.423248</ele>
        <time>2016-05-22T10:28:05Z</time>
      </trkpt>
      <trkpt lat="45.84231" lon="4.83364">
        <ele>182.128708</ele>
        <time>2016-05-22T10:28:07Z</time>
      </trkpt>
      <trkpt lat="45.84222" lon="4.83361">
        <ele>181.899963</ele>
        <time>2016-05-22T10:28:09Z</time>
      </trkpt>
      <trkpt lat="45.84213" lon="4.83358">
        <ele>181.849014</ele>
        <time>2016-05-22T10:28:11Z</time>
      </trkpt>
      <trkpt lat="45.84203" lon="4.83359">
        <ele>181.624069</ele>
        <time>2016-05-22T10:28:13Z</time>
      </trkpt>
      <trkpt lat="45.84193" lon="4.83363">
        <ele>181.82579</ele>
        <time>2016-05-22T10:28:15Z</time>
      </trkpt>
      <trkpt lat="45.84184" lon="4.83365">
        <ele>181.868179</ele>
        <time>2016-05-22T10:28:17Z</time>
      </trkpt>
      <trkpt lat="45.84176" lon="4.83364">
        <ele>181.835068</ele>
        <time>2016-05-22T10:28:19Z</time>
      </trkpt>
      <trkpt lat="45.84168" lon="4.83362">
        <ele>182.011703</ele>
        <time>2016-05-22T10:28:21Z</time>
      </trkpt>
      <trkpt lat="45.84161" lon="4.83361">
        <ele>182.071152</ele>
        <time>2016-05-22T10:28:23Z</time>
      </trkpt>
      <trkpt lat="45.84153" lon="4.8336">
        <ele>182.026581</ele>
        <time>2016-05-22T10:28:25Z</time>
      </trkpt>
      <trkpt lat="45.84144" lon="4.8336">
        <ele>181.996445</ele>
        <time>2016-05-22T10:28:27Z</time>
      </trkpt>
      <trkpt lat="45.84136" lon="4.83359">
        <ele>182.04953</ele>
        <time>2016-05-22T10:28:29Z</time>
      </trkpt>
      <trkpt lat="45.84127" lon="4.83358">
        <ele>181.989197</ele>
        <time>2016-05-22T10:28:31Z</time>
      </trkpt>
      <trkpt lat="45.84119" lon="4.83356">
        <ele>182.276886</ele>
        <time>2016-05-22T10:28:33Z</time>
      </trkpt>
      <trkpt lat="45.84111" lon="4.83354">
        <ele>182.499817</ele>
        <time>2016-05-22T10:28:35Z</time>
      </trkpt>
      <trkpt lat="45.84103" lon="4.83352">
        <ele>182.563538</ele>
        <time>2016-05-22T10:28:37Z</time>
      </trkpt>
      <trkpt lat="45.84094" lon="4.8335">
        <ele>182.701523</ele>
        <time>2016-05-22T10:28:39Z</time>
      </trkpt>
      <trkpt lat="45.84084" lon="4.83349">
        <ele>182.869232</ele>
        <time>2016-05-22T10:28:41Z</time>
      </trkpt>
      <trkpt lat="45.84076" lon="4.83349">
        <ele>182.79921</ele>
        <time>2016-05-22T10:28:43Z</time>
      </trkpt>
      <trkpt lat="45.84067" lon="4.83348">
        <ele>182.909576</ele>
        <time>2016-05-22T10:28:45Z</time>
      </trkpt>
      <trkpt lat="45.84058" lon="4.83347">
        <ele>183.007355</ele>
        <time>2016-05-22T10:28:47Z</time>
      </trkpt>
      <trkpt lat="45.8405" lon="4.83347">
        <ele>183.012604</ele>
        <time>2016-05-22T10:28:49Z</time>
      </trkpt>
      <trkpt lat="45.84042" lon="4.83346">
        <ele>183.326401</ele>
        <time>2016-05-22T10:28:51Z</time>
      </trkpt>
      <trkpt lat="45.84034" lon="4.83347">
        <ele>182.972153</ele>
        <time>2016-05-22T10:28:53Z</time>
      </trkpt>
      <trkpt lat="45.84025" lon="4.8335">
        <ele>183.434952</ele>
        <time>2016-05-22T10:28:55Z</time>
      </trkpt>
      <trkpt lat="45.84016" lon="4.83352">
        <ele>183.636719</ele>
        <time>2016-05-22T10:28:57Z</time>
      </trkpt>
      <trkpt lat="45.84008" lon="4.83354">
        <ele>183.626297</ele>
        <time>2016-05-22T10:28:59Z</time>
      </trkpt>
      <trkpt lat="45.84" lon="4.83355">
        <ele>183.583878</ele>
        <time>2016-05-22T10:29:01Z</time>
      </trkpt>
      <trkpt lat="45.83992" lon="4.83356">
        <ele>183.702347</ele>
        <time>2016-05-22T10:29:03Z</time>
      </trkpt>
      <trkpt lat="45.83987" lon="4.83361">
        <ele>183.78389</ele>
        <time>2016-05-22T10:29:05Z</time>
      </trkpt>
      <trkpt lat="45.83983" lon="4.83368">
        <ele>183.822113</ele>
        <time>2016-05-22T10:29:07Z</time>
      </trkpt>
      <trkpt lat="45.83976" lon="4.8337">
        <ele>184.034393</ele>
        <time>2016-05-22T10:29:09Z</time>
      </trkpt>
      <trkpt lat="45.83966" lon="4.83369">
        <ele>183.981308</ele>
        <time>2016-05-22T10:29:11Z</time>
      </trkpt>
      <trkpt lat="45.83956" lon="4.83368">
        <ele>183.994949</ele>
        <time>2016-05-22T10:29:13Z</time>
      </trkpt>
      <trkpt lat="45.83946" lon="4.83367">
        <ele>183.788422</ele>
        <time>2016-05-22T10:29:15Z</time>
      </trkpt>
      <trkpt lat="45.8394" lon="4.83368">
        <ele>183.633423</ele>
        <time>2016-05-22T10:29:17Z</time>
      </trkpt>
      <trkpt lat="45.83939" lon="4.83375">
        <ele>183.539993</ele>
        <time>2016-05-22T10:29:19Z</time>
      </trkpt>
      <trkpt lat="45.83941" lon="4.83385">
        <ele>183.479416</ele>
        <time>2016-05-22T10:29:21Z</time>
      </trkpt>
      <trkpt lat="45.83944" lon="4.83397">
        <ele>183.472076</ele>
        <time>2016-05-22T10:29:23Z</time>
      </trkpt>
      <trkpt lat="45.83946" lon="4.83407">
        <ele>183.310425</ele>
        <time>2016-05-22T10:29:25Z</time>
      </trkpt>
      <trkpt lat="45.83951" lon="4.83416">
        <ele>183.49295</ele>
        <time>2016-05-22T10:29:27Z</time>
      </trkpt>
      <trkpt lat="45.83954" lon="4.83424">
        <ele>183.323166</ele>
        <time>2016-05-22T10:29:29Z</time>
      </trkpt>
      <trkpt lat="45.83952" lon="4.8343">
        <ele>183.185089</ele>
        <time>2016-05-22T10:29:31Z</time>
      </trkpt>
      <trkpt lat="45.83947" lon="4.83433">
        <ele>183.088501</ele>
        <time>2016-05-22T10:29:33Z</time>
      </trkpt>
      <trkpt lat="45.83939" lon="4.83437">
        <ele>183.056076</ele>
        <time>2016-05-22T10:29:35Z</time>
      </trkpt>
      <trkpt lat="45.8393" lon="4.83442">
        <ele>183.208588</ele>
        <time>2016-05-22T10:29:37Z</time>
      </trkpt>
      <trkpt lat="45.83921" lon="4.83446">
        <ele>182.955963</ele>
        <time>2016-05-22T10:29:39Z</time>
      </trkpt>
      <trkpt lat="45.83913" lon="4.83452">
        <ele>182.563126</ele>
        <time>2016-05-22T10:29:41Z</time>
      </trkpt>
      <trkpt lat="45.83905" lon="4.83458">
        <ele>182.601318</ele>
        <time>2016-05-22T10:29:43Z</time>
      </trkpt>
      <trkpt lat="45.83896" lon="4.83464">
        <ele>182.452667</ele>
        <time>2016-05-22T10:29:45Z</time>
      </trkpt>
      <trkpt lat="45.83887" lon="4.8347">
        <ele>182.123169</ele>
        <time>2016-05-22T10:29:47Z</time>
      </trkpt>
      <trkpt lat="45.83878" lon="4.83477">
        <ele>181.929962</ele>
        <time>2016-05-22T10:29:49Z</time>
      </trkpt>
      <trkpt lat="45.83868" lon="4.83484">
        <ele>181.747406</ele>
        <time>2016-05-22T10:29:51Z</time>
      </trkpt>
      <trkpt lat="45.83859" lon="4.83492">
        <ele>181.76651</ele>
        <time>2016-05-22T10:29:53Z</time>
      </trkpt>
      <trkpt lat="45.8385" lon="4.835">
        <ele>181.672363</ele>
        <time>2016-05-22T10:29:55Z</time>
      </trkpt>
      <trkpt lat="45.83841" lon="4.83509">
        <ele>181.595963</ele>
        <time>2016-05-22T10:29:57Z</time>
      </trkpt>
      <trkpt lat="45.83832" lon="4.83517">
        <ele>181.595978</ele>
        <time>2016-05-22T10:29:59Z</time>
      </trkpt>
      <trkpt lat="45.83823" lon="4.83526">
        <ele>181.506821</ele>
        <time>2016-05-22T10:30:01Z</time>
      </trkpt>
      <trkpt lat="45.83814" lon="4.83535">
        <ele>181.591736</ele>
        <time>2016-05-22T10:30:03Z</time>
      </trkpt>
      <trkpt lat="45.83806" lon="4.83545">
        <ele>181.56102</ele>
        <time>2016-05-22T10:30:05Z</time>
      </trkpt>
      <trkpt lat="45.83797" lon="4.83554">
        <ele>181.515594</ele>
        <time>2016-05-22T10:30:07Z</time>
      </trkpt>
      <trkpt lat="45.83789" lon="4.83564">
        <ele>181.717621</ele>
        <time>2016-05-22T10:30:09Z</time>
      </trkpt>
      <trkpt lat="45.83781" lon="4.83574">
        <ele>181.709122</ele>
        <time>2016-05-22T10:30:11Z</time>
      </trkpt>
      <trkpt lat="45.83772" lon="4.83585">
        <ele>181.895905</ele>
        <time>2016-05-22T10:30:13Z</time>
      </trkpt>
      <trkpt lat="45.83764" lon="4.83596">
        <ele>181.961853</ele>
        <time>2016-05-22T10:30:15Z</time>
      </trkpt>
      <trkpt lat="45.83756" lon="4.83607">
        <ele>181.944122</ele>
        <time>2016-05-22T10:30:17Z</time>
      </trkpt>
      <trkpt lat="45.83747" lon="4.83618">
        <ele>181.875137</ele>
        <time>2016-05-22T10:30:19Z</time>
      </trkpt>
      <trkpt lat="45.83739" lon="4.83629">
        <ele>181.887878</ele>
        <time>2016-05-22T10:30:21Z</time>
      </trkpt>
      <trkpt lat="45.83732" lon="4.83641">
        <ele>181.879379</ele>
        <time>2016-05-22T10:30:23Z</time>
      </trkpt>
      <trkpt lat="45.83724" lon="4.83652">
        <ele>181.991882</ele>
        <time>2016-05-22T10:30:25Z</time>
      </trkpt>
      <trkpt lat="45.83717" lon="4.83663">
        <ele>181.9664</ele>
        <time>2016-05-22T10:30:27Z</time>
      </trkpt>
      <trkpt lat="45.83709" lon="4.83675">
        <ele>181.968948</ele>
        <time>2016-05-22T10:30:29Z</time>
      </trkpt>
      <trkpt lat="45.83702" lon="4.83685">
        <ele>182.000336</ele>
        <time>2016-05-22T10:30:31Z</time>
      </trkpt>
      <trkpt lat="45.83695" lon="4.83696">
        <ele>182.043945</ele>
        <time>2016-05-22T10:30:33Z</time>
      </trkpt>
      <trkpt lat="45.83687" lon="4.83707">
        <ele>182.209503</ele>
        <time>2016-05-22T10:30:35Z</time>
      </trkpt>
      <trkpt lat="45.8368" lon="4.83719">
        <ele>182.051056</ele>
        <time>2016-05-22T10:30:37Z</time>
      </trkpt>
      <trkpt lat="45.83673" lon="4.8373">
        <ele>182.193268</ele>
        <time>2016-05-22T10:30:39Z</time>
      </trkpt>
      <trkpt lat="45.83666" lon="4.8374">
        <ele>182.243744</ele>
        <time>2016-05-22T10:30:41Z</time>
      </trkpt>
      <trkpt lat="45.83658" lon="4.83751">
        <ele>182.268204</ele>
        <time>2016-05-22T10:30:43Z</time>
      </trkpt>
      <trkpt lat="45.83651" lon="4.83762">
        <ele>182.348389</ele>
        <time>2016-05-22T10:30:45Z</time>
      </trkpt>
      <trkpt lat="45.83645" lon="4.83773">
        <ele>182.484268</ele>
        <time>2016-05-22T10:30:47Z</time>
      </trkpt>
      <trkpt lat="45.83639" lon="4.83784">
        <ele>182.624084</ele>
        <time>2016-05-22T10:30:49Z</time>
      </trkpt>
      <trkpt lat="45.83634" lon="4.83795">
        <ele>182.541245</ele>
        <time>2016-05-22T10:30:51Z</time>
      </trkpt>
      <trkpt lat="45.8363" lon="4.83806">
        <ele>182.672852</ele>
        <time>2016-05-22T10:30:53Z</time>
      </trkpt>
      <trkpt lat="45.83627" lon="4.83817">
        <ele>182.67923</ele>
        <time>2016-05-22T10:30:55Z</time>
      </trkpt>
      <trkpt lat="45.83624" lon="4.83827">
        <ele>182.568802</ele>
        <time>2016-05-22T10:30:57Z</time>
      </trkpt>
      <trkpt lat="45.83626" lon="4.83836">
        <ele>182.706802</ele>
        <time>2016-05-22T10:30:59Z</time>
      </trkpt>
      <trkpt lat="45.83629" lon="4.83843">
        <ele>182.797699</ele>
        <time>2016-05-22T10:31:01Z</time>
      </trkpt>
      <trkpt lat="45.83626" lon="4.8385">
        <ele>182.965454</ele>
        <time>2016-05-22T10:31:03Z</time>
      </trkpt>
      <trkpt lat="45.83621" lon="4.83856">
        <ele>182.971817</ele>
        <time>2016-05-22T10:31:05Z</time>
      </trkpt>
      <trkpt lat="45.83616" lon="4.83863">
        <ele>183.050354</ele>
        <time>2016-05-22T10:31:07Z</time>
      </trkpt>
      <trkpt lat="45.83611" lon="4.8387">
        <ele>183.119568</ele>
        <time>2016-05-22T10:31:09Z</time>
      </trkpt>
      <trkpt lat="45.83609" lon="4.8388">
        <ele>183.136154</ele>
        <time>2016-05-22T10:31:11Z</time>
      </trkpt>
      <trkpt lat="45.83606" lon="4.8389">
        <ele>183.176498</ele>
        <time>2016-05-22T10:31:13Z</time>
      </trkpt>
      <trkpt lat="45.83601" lon="4.83899">
        <ele>183.225327</ele>
        <time>2016-05-22T10:31:15Z</time>
      </trkpt>
      <trkpt lat="45.83596" lon="4.83909">
        <ele>183.266632</ele>
        <time>2016-05-22T10:31:17Z</time>
      </trkpt>
      <trkpt lat="45.83592" lon="4.83922">
        <ele>183.389755</ele>
        <time>2016-05-22T10:31:19Z</time>
      </trkpt>
      <trkpt lat="45.83587" lon="4.83935">
        <ele>183.464157</ele>
        <time>2016-05-22T10:31:21Z</time>
      </trkpt>
      <trkpt lat="45.83583" lon="4.83949">
        <ele>183.496002</ele>
        <time>2016-05-22T10:31:23Z</time>
      </trkpt>
      <trkpt lat="45.83579" lon="4.83963">
        <ele>183.549789</ele>
        <time>2016-05-22T10:31:25Z</time>
      </trkpt>
      <trkpt lat="45.83574" lon="4.83978">
        <ele>183.569931</ele>
        <time>2016-05-22T10:31:27Z</time>
      </trkpt>
      <trkpt lat="45.83569" lon="4.83992">
        <ele>183.635742</ele>
        <time>2016-05-22T10:31:29Z</time>
      </trkpt>
      <trkpt lat="45.83563" lon="4.84007">
        <ele>183.584778</ele>
        <time>2016-05-22T10:31:31Z</time>
      </trkpt>
      <trkpt lat="45.83556" lon="4.84022">
        <ele>183.511078</ele>
        <time>2016-05-22T10:31:33Z</time>
      </trkpt>
      <trkpt lat="45.8355" lon="4.84035">
        <ele>183.517456</ele>
        <time>2016-05-22T10:31:35Z</time>
      </trkpt>
      <trkpt lat="45.83543" lon="4.84048">
        <ele>183.518723</ele>
        <time>2016-05-22T10:31:37Z</time>
      </trkpt>
      <trkpt lat="45.83535" lon="4.8406">
        <ele>183.378632</ele>
        <time>2016-05-22T10:31:39Z</time>
      </trkpt>
      <trkpt lat="45.83528" lon="4.84072">
        <ele>183.236404</ele>
        <time>2016-05-22T10:31:41Z</time>
      </trkpt>
      <trkpt lat="45.83519" lon="4.84084">
        <ele>182.91153</ele>
        <time>2016-05-22T10:31:43Z</time>
      </trkpt>
      <trkpt lat="45.83509" lon="4.84096">
        <ele>182.792603</ele>
        <time>2016-05-22T10:31:45Z</time>
      </trkpt>
      <trkpt lat="45.835" lon="4.8411">
        <ele>182.537979</ele>
        <time>2016-05-22T10:31:47Z</time>
      </trkpt>
      <trkpt lat="45.8349" lon="4.84124">
        <ele>182.487396</ele>
        <time>2016-05-22T10:31:49Z</time>
      </trkpt>
      <trkpt lat="45.83485" lon="4.84139">
        <ele>182.295837</ele>
        <time>2016-05-22T10:31:51Z</time>
      </trkpt>
      <trkpt lat="45.83482" lon="4.84154">
        <ele>182.10054</ele>
        <time>2016-05-22T10:31:53Z</time>
      </trkpt>
      <trkpt lat="45.83479" lon="4.84169">
        <ele>182.070816</ele>
        <time>2016-05-22T10:31:55Z</time>
      </trkpt>
      <trkpt lat="45.83477" lon="4.84183">
        <ele>182.083542</ele>
        <time>2016-05-22T10:31:57Z</time>
      </trkpt>
      <trkpt lat="45.83476" lon="4.84195">
        <ele>182.011368</ele>
        <time>2016-05-22T10:31:59Z</time>
      </trkpt>
      <trkpt lat="45.83483" lon="4.84202">
        <ele>182.032593</ele>
        <time>2016-05-22T10:32:01Z</time>
      </trkpt>
      <trkpt lat="45.83493" lon="4.84204">
        <ele>181.963226</ele>
        <time>2016-05-22T10:32:03Z</time>
      </trkpt>
      <trkpt lat="45.83505" lon="4.84204">
        <ele>181.74025</ele>
        <time>2016-05-22T10:32:05Z</time>
      </trkpt>
      <trkpt lat="45.83517" lon="4.84205">
        <ele>181.611542</ele>
        <time>2016-05-22T10:32:07Z</time>
      </trkpt>
      <trkpt lat="45.83529" lon="4.84206">
        <ele>181.467545</ele>
        <time>2016-05-22T10:32:09Z</time>
      </trkpt>
      <trkpt lat="45.83539" lon="4.84206">
        <ele>181.391129</ele>
        <time>2016-05-22T10:32:11Z</time>
      </trkpt>
      <trkpt lat="45.8355" lon="4.84206">
        <ele>181.139618</ele>
        <time>2016-05-22T10:32:13Z</time>
      </trkpt>
      <trkpt lat="45.8356" lon="4.84206">
        <ele>181.18631</ele>
        <time>2016-05-22T10:32:15Z</time>
      </trkpt>
      <trkpt lat="45.83571" lon="4.84207">
        <ele>181.228165</ele>
        <time>2016-05-22T10:32:17Z</time>
      </trkpt>
      <trkpt lat="45.83581" lon="4.84207">
        <ele>181.216278</ele>
        <time>2016-05-22T10:32:19Z</time>
      </trkpt>
      <trkpt lat="45.8359" lon="4.84206">
        <ele>181.246979</ele>
        <time>2016-05-22T10:32:21Z</time>
      </trkpt>
      <trkpt lat="45.836" lon="4.84207">
        <ele>181.404068</ele>
        <time>2016-05-22T10:32:23Z</time>
      </trkpt>
      <trkpt lat="45.83608" lon="4.84208">
        <ele>181.624847</ele>
        <time>2016-05-22T10:32:25Z</time>
      </trkpt>
      <trkpt lat="45.83617" lon="4.84209">
        <ele>181.879578</ele>
        <time>2016-05-22T10:32:27Z</time>
      </trkpt>
      <trkpt lat="45.83624" lon="4.84211">
        <ele>182.29129</ele>
        <time>2016-05-22T10:32:29Z</time>
      </trkpt>
      <trkpt lat="45.8363" lon="4.84212">
        <ele>182.402084</ele>
        <time>2016-05-22T10:32:31Z</time>
      </trkpt>
      <trkpt lat="45.83636" lon="4.84213">
        <ele>182.660309</ele>
        <time>2016-05-22T10:32:33Z</time>
      </trkpt>
      <trkpt lat="45.83642" lon="4.84209">
        <ele>182.874725</ele>
        <time>2016-05-22T10:32:35Z</time>
      </trkpt>
      <trkpt lat="45.83648" lon="4.84202">
        <ele>182.999985</ele>
        <time>2016-05-22T10:32:37Z</time>
      </trkpt>
      <trkpt lat="45.83653" lon="4.84193">
        <ele>183.015991</ele>
        <time>2016-05-22T10:32:39Z</time>
      </trkpt>
      <trkpt lat="45.83659" lon="4.84184">
        <ele>183.120026</ele>
        <time>2016-05-22T10:32:41Z</time>
      </trkpt>
      <trkpt lat="45.83665" lon="4.84174">
        <ele>183.258026</ele>
        <time>2016-05-22T10:32:43Z</time>
      </trkpt>
      <trkpt lat="45.8367" lon="4.84164">
        <ele>183.348602</ele>
        <time>2016-05-22T10:32:45Z</time>
      </trkpt>
      <trkpt lat="45.83675" lon="4.84152">
        <ele>183.648865</ele>
        <time>2016-05-22T10:32:47Z</time>
      </trkpt>
      <trkpt lat="45.8368" lon="4.84141">
        <ele>183.873886</ele>
        <time>2016-05-22T10:32:49Z</time>
      </trkpt>
      <trkpt lat="45.83684" lon="4.8413">
        <ele>184.127731</ele>
        <time>2016-05-22T10:32:51Z</time>
      </trkpt>
      <trkpt lat="45.83691" lon="4.84123">
        <ele>184.359161</ele>
        <time>2016-05-22T10:32:53Z</time>
      </trkpt>
      <trkpt lat="45.837" lon="4.84119">
        <ele>184.579956</ele>
        <time>2016-05-22T10:32:55Z</time>
      </trkpt>
      <trkpt lat="45.83709" lon="4.84114">
        <ele>184.727493</ele>
        <time>2016-05-22T10:32:57Z</time>
      </trkpt>
      <trkpt lat="45.83718" lon="4.84109">
        <ele>184.931351</ele>
        <time>2016-05-22T10:32:59Z</time>
      </trkpt>
      <trkpt lat="45.83727" lon="4.84106">
        <ele>184.958954</ele>
        <time>2016-05-22T10:33:01Z</time>
      </trkpt>
      <trkpt lat="45.83736" lon="4.84102">
        <ele>185.316803</ele>
        <time>2016-05-22T10:33:03Z</time>
      </trkpt>
      <trkpt lat="45.83744" lon="4.84101">
        <ele>185.454422</ele>
        <time>2016-05-22T10:33:05Z</time>
      </trkpt>
      <trkpt lat="45.83752" lon="4.84099">
        <ele>185.70079</ele>
        <time>2016-05-22T10:33:07Z</time>
      </trkpt>
      <trkpt lat="45.83761" lon="4.84097">
        <ele>185.61586</ele>
        <time>2016-05-22T10:33:09Z</time>
      </trkpt>
      <trkpt lat="45.83769" lon="4.84095">
        <ele>185.85318</ele>
        <time>2016-05-22T10:33:11Z</time>
      </trkpt>
      <trkpt lat="45.83777" lon="4.84094">
        <ele>185.903381</ele>
        <time>2016-05-22T10:33:13Z</time>
      </trkpt>
      <trkpt lat="45.83785" lon="4.84093">
        <ele>186.088135</ele>
        <time>2016-05-22T10:33:15Z</time>
      </trkpt>
      <trkpt lat="45.83792" lon="4.84094">
        <ele>186.298386</ele>
        <time>2016-05-22T10:33:17Z</time>
      </trkpt>
      <trkpt lat="45.83797" lon="4.841">
        <ele>186.553253</ele>
        <time>2016-05-22T10:33:19Z</time>
      </trkpt>
      <trkpt lat="45.83803" lon="4.84106">
        <ele>186.777191</ele>
        <time>2016-05-22T10:33:21Z</time>
      </trkpt>
      <trkpt lat="45.83808" lon="4.84114">
        <ele>186.9216</ele>
        <time>2016-05-22T10:33:23Z</time>
      </trkpt>
      <trkpt lat="45.83813" lon="4.84122">
        <ele>187.136765</ele>
        <time>2016-05-22T10:33:25Z</time>
      </trkpt>
      <trkpt lat="45.83817" lon="4.84131">
        <ele>187.329178</ele>
        <time>2016-05-22T10:33:27Z</time>
      </trkpt>
      <trkpt lat="45.83823" lon="4.84139">
        <ele>187.538483</ele>
        <time>2016-05-22T10:33:29Z</time>
      </trkpt>
      <trkpt lat="45.83828" lon="4.84148">
        <ele>187.653152</ele>
        <time>2016-05-22T10:33:31Z</time>
      </trkpt>
      <trkpt lat="45.83833" lon="4.84159">
        <ele>187.891037</ele>
        <time>2016-05-22T10:33:33Z</time>
      </trkpt>
      <trkpt lat="45.83838" lon="4.84171">
        <ele>188.069458</ele>
        <time>2016-05-22T10:33:35Z</time>
      </trkpt>
      <trkpt lat="45.83843" lon="4.84183">
        <ele>188.29248</ele>
        <time>2016-05-22T10:33:37Z</time>
      </trkpt>
      <trkpt lat="45.83847" lon="4.84194">
        <ele>188.358322</ele>
        <time>2016-05-22T10:33:39Z</time>
      </trkpt>
      <trkpt lat="45.83852" lon="4.84207">
        <ele>188.450806</ele>
        <time>2016-05-22T10:33:41Z</time>
      </trkpt>
      <trkpt lat="45.83856" lon="4.84218">
        <ele>188.641968</ele>
        <time>2016-05-22T10:33:43Z</time>
      </trkpt>
      <trkpt lat="45.8386" lon="4.84229">
        <ele>188.928711</ele>
        <time>2016-05-22T10:33:45Z</time>
      </trkpt>
      <trkpt lat="45.83865" lon="4.84241">
        <ele>189.04129</ele>
        <time>2016-05-22T10:33:47Z</time>
      </trkpt>
      <trkpt lat="45.83868" lon="4.84253">
        <ele>189.177658</ele>
        <time>2016-05-22T10:33:49Z</time>
      </trkpt>
      <trkpt lat="45.83872" lon="4.84265">
        <ele>189.623749</ele>
        <time>2016-05-22T10:33:51Z</time>
      </trkpt>
      <trkpt lat="45.83875" lon="4.84277">
        <ele>189.858002</ele>
        <time>2016-05-22T10:33:53Z</time>
      </trkpt>
      <trkpt lat="45.83879" lon="4.8429">
        <ele>190.204254</ele>
        <time>2016-05-22T10:33:55Z</time>
      </trkpt>
      <trkpt lat="45.83883" lon="4.84302">
        <ele>190.355072</ele>
        <time>2016-05-22T10:33:57Z</time>
      </trkpt>
      <trkpt lat="45.83887" lon="4.84314">
        <ele>190.578278</ele>
        <time>2016-05-22T10:33:59Z</time>
      </trkpt>
      <trkpt lat="45.83892" lon="4.84325">
        <ele>190.725388</ele>
        <time>2016-05-22T10:34:01Z</time>
      </trkpt>
      <trkpt lat="45.83898" lon="4.84335">
        <ele>191.003738</ele>
        <time>2016-05-22T10:34:03Z</time>
      </trkpt>
      <trkpt lat="45.83905" lon="4.84344">
        <ele>191.192871</ele>
        <time>2016-05-22T10:34:05Z</time>
      </trkpt>
      <trkpt lat="45.83913" lon="4.84353">
        <ele>191.383438</ele>
        <time>2016-05-22T10:34:07Z</time>
      </trkpt>
      <trkpt lat="45.8392" lon="4.84361">
        <ele>191.700867</ele>
        <time>2016-05-22T10:34:09Z</time>
      </trkpt>
      <trkpt lat="45.83927" lon="4.8437">
        <ele>191.951614</ele>
        <time>2016-05-22T10:34:11Z</time>
      </trkpt>
      <trkpt lat="45.83934" lon="4.84378">
        <ele>192.272476</ele>
        <time>2016-05-22T10:34:13Z</time>
      </trkpt>
      <trkpt lat="45.83942" lon="4.84386">
        <ele>192.612457</ele>
        <time>2016-05-22T10:34:15Z</time>
      </trkpt>
      <trkpt lat="45.83949" lon="4.84394">
        <ele>192.854721</ele>
        <time>2016-05-22T10:34:17Z</time>
      </trkpt>
      <trkpt lat="45.83956" lon="4.84403">
        <ele>193.175583</ele>
        <time>2016-05-22T10:34:19Z</time>
      </trkpt>
      <trkpt lat="45.83962" lon="4.84414">
        <ele>193.400818</ele>
        <time>2016-05-22T10:34:21Z</time>
      </trkpt>
      <trkpt lat="45.83968" lon="4.84426">
        <ele>193.633392</ele>
        <time>2016-05-22T10:34:23Z</time>
      </trkpt>
      <trkpt lat="45.83973" lon="4.84438">
        <ele>193.917938</ele>
        <time>2016-05-22T10:34:25Z</time>
      </trkpt>
      <trkpt lat="45.83978" lon="4.8445">
        <ele>194.007187</ele>
        <time>2016-05-22T10:34:27Z</time>
      </trkpt>
      <trkpt lat="45.83983" lon="4.84463">
        <ele>194.311676</ele>
        <time>2016-05-22T10:34:29Z</time>
      </trkpt>
      <trkpt lat="45.83988" lon="4.84476">
        <ele>194.543335</ele>
        <time>2016-05-22T10:34:31Z</time>
      </trkpt>
      <trkpt lat="45.83994" lon="4.84489">
        <ele>194.746246</ele>
        <time>2016-05-22T10:34:33Z</time>
      </trkpt>
      <trkpt lat="45.83999" lon="4.84503">
        <ele>194.783783</ele>
        <time>2016-05-22T10:34:35Z</time>
      </trkpt>
      <trkpt lat="45.84003" lon="4.84518">
        <ele>195.02182</ele>
        <time>2016-05-22T10:34:37Z</time>
      </trkpt>
      <trkpt lat="45.84007" lon="4.84533">
        <ele>195.272659</ele>
        <time>2016-05-22T10:34:39Z</time>
      </trkpt>
      <trkpt lat="45.8401" lon="4.84548">
        <ele>195.378815</ele>
        <time>2016-05-22T10:34:41Z</time>
      </trkpt>
      <trkpt lat="45.84013" lon="4.84564">
        <ele>195.595245</ele>
        <time>2016-05-22T10:34:43Z</time>
      </trkpt>
      <trkpt lat="45.84016" lon="4.8458">
        <ele>195.873718</ele>
        <time>2016-05-22T10:34:45Z</time>
      </trkpt>
      <trkpt lat="45.8402" lon="4.84595">
        <ele>195.962006</ele>
        <time>2016-05-22T10:34:47Z</time>
      </trkpt>
      <trkpt lat="45.84022" lon="4.84611">
        <ele>196.197906</ele>
        <time>2016-05-22T10:34:49Z</time>
      </trkpt>
      <trkpt lat="45.84024" lon="4.84627">
        <ele>196.423218</ele>
        <time>2016-05-22T10:34:51Z</time>
      </trkpt>
      <trkpt lat="45.84026" lon="4.84642">
        <ele>196.510376</ele>
        <time>2016-05-22T10:34:53Z</time>
      </trkpt>
      <trkpt lat="45.84028" lon="4.84656">
        <ele>196.602737</ele>
        <time>2016-05-22T10:34:55Z</time>
      </trkpt>
      <trkpt lat="45.84028" lon="4.8467">
        <ele>196.602737</ele>
        <time>2016-05-22T10:34:57Z</time>
      </trkpt>
      <trkpt lat="45.84028" lon="4.84685">
        <ele>196.702438</ele>
        <time>2016-05-22T10:34:59Z</time>
      </trkpt>
      <trkpt lat="45.84028" lon="4.84699">
        <ele>196.866287</ele>
        <time>2016-05-22T10:35:01Z</time>
      </trkpt>
      <trkpt lat="45.84031" lon="4.84713">
        <ele>197.131958</ele>
        <time>2016-05-22T10:35:03Z</time>
      </trkpt>
      <trkpt lat="45.84033" lon="4.84728">
        <ele>197.204254</ele>
        <time>2016-05-22T10:35:05Z</time>
      </trkpt>
      <trkpt lat="45.84035" lon="4.84742">
        <ele>197.37027</ele>
        <time>2016-05-22T10:35:07Z</time>
      </trkpt>
      <trkpt lat="45.84036" lon="4.84757">
        <ele>197.600128</ele>
        <time>2016-05-22T10:35:09Z</time>
      </trkpt>
      <trkpt lat="45.84038" lon="4.84771">
        <ele>197.678177</ele>
        <time>2016-05-22T10:35:11Z</time>
      </trkpt>
      <trkpt lat="45.84039" lon="4.84786">
        <ele>197.866547</ele>
        <time>2016-05-22T10:35:13Z</time>
      </trkpt>
      <trkpt lat="45.8404" lon="4.84799">
        <ele>198.047272</ele>
        <time>2016-05-22T10:35:15Z</time>
      </trkpt>
      <trkpt lat="45.84041" lon="4.84811">
        <ele>198.29422</ele>
        <time>2016-05-22T10:35:17Z</time>
      </trkpt>
      <trkpt lat="45.84041" lon="4.84823">
        <ele>198.473312</ele>
        <time>2016-05-22T10:35:19Z</time>
      </trkpt>
      <trkpt lat="45.84042" lon="4.84835">
        <ele>198.605148</ele>
        <time>2016-05-22T10:35:21Z</time>
      </trkpt>
      <trkpt lat="45.84045" lon="4.84847">
        <ele>198.609421</ele>
        <time>2016-05-22T10:35:23Z</time>
      </trkpt>
      <trkpt lat="45.84048" lon="4.84859">
        <ele>198.71347</ele>
        <time>2016-05-22T10:35:25Z</time>
      </trkpt>
      <trkpt lat="45.8405" lon="4.84872">
        <ele>198.931854</ele>
        <time>2016-05-22T10:35:27Z</time>
      </trkpt>
      <trkpt lat="45.84051" lon="4.84885">
        <ele>199.04129</ele>
        <time>2016-05-22T10:35:29Z</time>
      </trkpt>
      <trkpt lat="45.84052" lon="4.84898">
        <ele>199.184448</ele>
        <time>2016-05-22T10:35:31Z</time>
      </trkpt>
      <trkpt lat="45.84052" lon="4.84911">
        <ele>199.284393</ele>
        <time>2016-05-22T10:35:33Z</time>
      </trkpt>
      <trkpt lat="45.84053" lon="4.84924">
        <ele>199.491013</ele>
        <time>2016-05-22T10:35:35Z</time>
      </trkpt>
      <trkpt lat="45.84055" lon="4.84936">
        <ele>199.718552</ele>
        <time>2016-05-22T10:35:37Z</time>
      </trkpt>
      <trkpt lat="45.84055" lon="4.8495">
        <ele>199.953583</ele>
        <time>2016-05-22T10:35:39Z</time>
      </trkpt>
      <trkpt lat="45.84057" lon="4.84963">
        <ele>200.128143</ele>
        <time>2016-05-22T10:35:41Z</time>
      </trkpt>
      <trkpt lat="45.84058" lon="4.84977">
        <ele>200.402344</ele>
        <time>2016-05-22T10:35:43Z</time>
      </trkpt>
      <trkpt lat="45.84059" lon="4.8499">
        <ele>200.481003</ele>
        <time>2016-05-22T10:35:45Z</time>
      </trkpt>
      <trkpt lat="45.8406" lon="4.85004">
        <ele>200.59668</ele>
        <time>2016-05-22T10:35:47Z</time>
      </trkpt>
      <trkpt lat="45.84063" lon="4.85017">
        <ele>200.804291</ele>
        <time>2016-05-22T10:35:49Z</time>
      </trkpt>
      <trkpt lat="45.84066" lon="4.8503">
        <ele>200.98291</ele>
        <time>2016-05-22T10:35:51Z</time>
      </trkpt>
      <trkpt lat="45.84069" lon="4.85042">
        <ele>201.184662</ele>
        <time>2016-05-22T10:35:53Z</time>
      </trkpt>
      <trkpt lat="45.84074" lon="4.85053">
        <ele>201.436447</ele>
        <time>2016-05-22T10:35:55Z</time>
      </trkpt>
      <trkpt lat="45.84079" lon="4.85064">
        <ele>201.587921</ele>
        <time>2016-05-22T10:35:57Z</time>
      </trkpt>
      <trkpt lat="45.84086" lon="4.85074">
        <ele>201.74263</ele>
        <time>2016-05-22T10:35:59Z</time>
      </trkpt>
      <trkpt lat="45.84092" lon="4.85083">
        <ele>201.83699</ele>
        <time>2016-05-22T10:36:01Z</time>
      </trkpt>
      <trkpt lat="45.841" lon="4.85092">
        <ele>201.972244</ele>
        <time>2016-05-22T10:36:03Z</time>
      </trkpt>
      <trkpt lat="45.84107" lon="4.85101">
        <ele>202.072189</ele>
        <time>2016-05-22T10:36:05Z</time>
      </trkpt>
      <trkpt lat="45.84115" lon="4.85108">
        <ele>202.391144</ele>
        <time>2016-05-22T10:36:07Z</time>
      </trkpt>
      <trkpt lat="45.84124" lon="4.85113">
        <ele>202.547073</ele>
        <time>2016-05-22T10:36:09Z</time>
      </trkpt>
      <trkpt lat="45.84133" lon="4.85118">
        <ele>202.615143</ele>
        <time>2016-05-22T10:36:11Z</time>
      </trkpt>
      <trkpt lat="45.84141" lon="4.85125">
        <ele>202.755493</ele>
        <time>2016-05-22T10:36:13Z</time>
      </trkpt>
      <trkpt lat="45.8415" lon="4.85133">
        <ele>202.990921</ele>
        <time>2016-05-22T10:36:15Z</time>
      </trkpt>
      <trkpt lat="45.84156" lon="4.85144">
        <ele>203.120316</ele>
        <time>2016-05-22T10:36:17Z</time>
      </trkpt>
      <trkpt lat="45.84163" lon="4.85155">
        <ele>203.172882</ele>
        <time>2016-05-22T10:36:19Z</time>
      </trkpt>
      <trkpt lat="45.84168" lon="4.85167">
        <ele>203.304749</ele>
        <time>2016-05-22T10:36:21Z</time>
      </trkpt>
      <trkpt lat="45.84172" lon="4.85179">
        <ele>203.398331</ele>
        <time>2016-05-22T10:36:23Z</time>
      </trkpt>
      <trkpt lat="45.84178" lon="4.85191">
        <ele>203.512817</ele>
        <time>2016-05-22T10:36:25Z</time>
      </trkpt>
      <trkpt lat="45.84182" lon="4.85203">
        <ele>203.718948</ele>
        <time>2016-05-22T10:36:27Z</time>
      </trkpt>
      <trkpt lat="45.84187" lon="4.85215">
        <ele>203.901031</ele>
        <time>2016-05-22T10:36:29Z</time>
      </trkpt>
      <trkpt lat="45.84192" lon="4.85226">
        <ele>203.963486</ele>
        <time>2016-05-22T10:36:31Z</time>
      </trkpt>
      <trkpt lat="45.84197" lon="4.85237">
        <ele>204.229401</ele>
        <time>2016-05-22T10:36:33Z</time>
      </trkpt>
      <trkpt lat="45.84202" lon="4.85248">
        <ele>204.276199</ele>
        <time>2016-05-22T10:36:35Z</time>
      </trkpt>
      <trkpt lat="45.84207" lon="4.85259">
        <ele>204.353012</ele>
        <time>2016-05-22T10:36:37Z</time>
      </trkpt>
      <trkpt lat="45.84212" lon="4.8527">
        <ele>204.467545</ele>
        <time>2016-05-22T10:36:39Z</time>
      </trkpt>
      <trkpt lat="45.84217" lon="4.85281">
        <ele>204.589371</ele>
        <time>2016-05-22T10:36:41Z</time>
      </trkpt>
      <trkpt lat="45.84222" lon="4.85291">
        <ele>204.719147</ele>
        <time>2016-05-22T10:36:43Z</time>
      </trkpt>
      <trkpt lat="45.84226" lon="4.85303">
        <ele>204.903229</ele>
        <time>2016-05-22T10:36:45Z</time>
      </trkpt>
      <trkpt lat="45.84229" lon="4.85315">
        <ele>205.135132</ele>
        <time>2016-05-22T10:36:47Z</time>
      </trkpt>
      <trkpt lat="45.84231" lon="4.85328">
        <ele>205.326935</ele>
        <time>2016-05-22T10:36:49Z</time>
      </trkpt>
      <trkpt lat="45.84233" lon="4.85341">
        <ele>205.475861</ele>
        <time>2016-05-22T10:36:51Z</time>
      </trkpt>
      <trkpt lat="45.84235" lon="4.85354">
        <ele>205.558807</ele>
        <time>2016-05-22T10:36:53Z</time>
      </trkpt>
      <trkpt lat="45.84239" lon="4.85367">
        <ele>205.726349</ele>
        <time>2016-05-22T10:36:55Z</time>
      </trkpt>
      <trkpt lat="45.84243" lon="4.85377">
        <ele>205.879517</ele>
        <time>2016-05-22T10:36:57Z</time>
      </trkpt>
      <trkpt lat="45.84248" lon="4.85386">
        <ele>205.956131</ele>
        <time>2016-05-22T10:36:59Z</time>
      </trkpt>
      <trkpt lat="45.84255" lon="4.85395">
        <ele>206.231232</ele>
        <time>2016-05-22T10:37:01Z</time>
      </trkpt>
      <trkpt lat="45.84261" lon="4.85404">
        <ele>206.416336</ele>
        <time>2016-05-22T10:37:03Z</time>
      </trkpt>
      <trkpt lat="45.84267" lon="4.85416">
        <ele>206.622726</ele>
        <time>2016-05-22T10:37:05Z</time>
      </trkpt>
      <trkpt lat="45.84272" lon="4.85428">
        <ele>206.738007</ele>
        <time>2016-05-22T10:37:07Z</time>
      </trkpt>
      <trkpt lat="45.84276" lon="4.85439">
        <ele>206.92392</ele>
        <time>2016-05-22T10:37:09Z</time>
      </trkpt>
      <trkpt lat="45.8428" lon="4.85449">
        <ele>206.976608</ele>
        <time>2016-05-22T10:37:11Z</time>
      </trkpt>
      <trkpt lat="45.84284" lon="4.85458">
        <ele>207.189377</ele>
        <time>2016-05-22T10:37:13Z</time>
      </trkpt>
      <trkpt lat="45.84287" lon="4.85468">
        <ele>207.404297</ele>
        <time>2016-05-22T10:37:15Z</time>
      </trkpt>
      <trkpt lat="45.8429" lon="4.85477">
        <ele>207.536224</ele>
        <time>2016-05-22T10:37:17Z</time>
      </trkpt>
      <trkpt lat="45.84293" lon="4.85485">
        <ele>207.744537</ele>
        <time>2016-05-22T10:37:19Z</time>
      </trkpt>
      <trkpt lat="45.84296" lon="4.85492">
        <ele>207.814667</ele>
        <time>2016-05-22T10:37:21Z</time>
      </trkpt>
      <trkpt lat="45.84298" lon="4.85499">
        <ele>207.950348</ele>
        <time>2016-05-22T10:37:23Z</time>
      </trkpt>
      <trkpt lat="45.84299" lon="4.85507">
        <ele>208.131195</ele>
        <time>2016-05-22T10:37:25Z</time>
      </trkpt>
      <trkpt lat="45.843" lon="4.85514">
        <ele>208.199295</ele>
        <time>2016-05-22T10:37:27Z</time>
      </trkpt>
      <trkpt lat="45.843" lon="4.85522">
        <ele>208.26738</ele>
        <time>2016-05-22T10:37:29Z</time>
      </trkpt>
      <trkpt lat="45.84302" lon="4.85528">
        <ele>208.447952</ele>
        <time>2016-05-22T10:37:31Z</time>
      </trkpt>
      <trkpt lat="45.84306" lon="4.85533">
        <ele>208.582031</ele>
        <time>2016-05-22T10:37:33Z</time>
      </trkpt>
      <trkpt lat="45.84312" lon="4.85534">
        <ele>208.777802</ele>
        <time>2016-05-22T10:37:35Z</time>
      </trkpt>
      <trkpt lat="45.84319" lon="4.85529">
        <ele>208.857101</ele>
        <time>2016-05-22T10:37:37Z</time>
      </trkpt>
      <trkpt lat="45.84324" lon="4.8552">
        <ele>209.01265</ele>
        <time>2016-05-22T10:37:39Z</time>
      </trkpt>
      <trkpt lat="45.84328" lon="4.85511">
        <ele>209.120316</ele>
        <time>2016-05-22T10:37:41Z</time>
      </trkpt>
      <trkpt lat="45.84335" lon="4.85505">
        <ele>209.279938</ele>
        <time>2016-05-22T10:37:43Z</time>
      </trkpt>
      <trkpt lat="45.84342" lon="4.85501">
        <ele>209.369339</ele>
        <time>2016-05-22T10:37:45Z</time>
      </trkpt>
      <trkpt lat="45.84349" lon="4.85498">
        <ele>209.392731</ele>
        <time>2016-05-22T10:37:47Z</time>
      </trkpt>
      <trkpt lat="45.84354" lon="4.85495">
        <ele>209.556641</ele>
        <time>2016-05-22T10:37:49Z</time>
      </trkpt>
      <trkpt lat="45.8436" lon="4.85494">
        <ele>209.628448</ele>
        <time>2016-05-22T10:37:51Z</time>
      </trkpt>
      <trkpt lat="45.84366" lon="4.85491">
        <ele>209.684769</ele>
        <time>2016-05-22T10:37:53Z</time>
      </trkpt>
      <trkpt lat="45.84372" lon="4.85488">
        <ele>209.831619</ele>
        <time>2016-05-22T10:37:55Z</time>
      </trkpt>
      <trkpt lat="45.84378" lon="4.85486">
        <ele>209.9189</ele>
        <time>2016-05-22T10:37:57Z</time>
      </trkpt>
      <trkpt lat="45.84384" lon="4.85485">
        <ele>210.0168</ele>
        <time>2016-05-22T10:37:59Z</time>
      </trkpt>
      <trkpt lat="45.84391" lon="4.85483">
        <ele>210.029572</ele>
        <time>2016-05-22T10:38:01Z</time>
      </trkpt>
      <trkpt lat="45.84397" lon="4.85484">
        <ele>210.161667</ele>
        <time>2016-05-22T10:38:03Z</time>
      </trkpt>
      <trkpt lat="45.84403" lon="4.8549">
        <ele>210.25798</ele>
        <time>2016-05-22T10:38:05Z</time>
      </trkpt>
      <trkpt lat="45.84407" lon="4.85497">
        <ele>210.307892</ele>
        <time>2016-05-22T10:38:07Z</time>
      </trkpt>
      <trkpt lat="45.84413" lon="4.85501">
        <ele>210.435593</ele>
        <time>2016-05-22T10:38:09Z</time>
      </trkpt>
      <trkpt lat="45.84419" lon="4.85505">
        <ele>210.501587</ele>
        <time>2016-05-22T10:38:11Z</time>
      </trkpt>
      <trkpt lat="45.84425" lon="4.85505">
        <ele>210.665497</ele>
        <time>2016-05-22T10:38:13Z</time>
      </trkpt>
      <trkpt lat="45.8443" lon="4.85501">
        <ele>210.686432</ele>
        <time>2016-05-22T10:38:15Z</time>
      </trkpt>
      <trkpt lat="45.84433" lon="4.85497">
        <ele>210.577911</ele>
        <time>2016-05-22T10:38:17Z</time>
      </trkpt>
      <trkpt lat="45.84437" lon="4.8549">
        <ele>210.592804</ele>
        <time>2016-05-22T10:38:19Z</time>
      </trkpt>
      <trkpt lat="45.8444" lon="4.85481">
        <ele>210.728851</ele>
        <time>2016-05-22T10:38:21Z</time>
      </trkpt>
      <trkpt lat="45.8444" lon="4.85472">
        <ele>210.757416</ele>
        <time>2016-05-22T10:38:23Z</time>
      </trkpt>
      <trkpt lat="45.84441" lon="4.85464">
        <ele>210.754395</ele>
        <time>2016-05-22T10:38:25Z</time>
      </trkpt>
      <trkpt lat="45.84443" lon="4.85457">
        <ele>210.768875</ele>
        <time>2016-05-22T10:38:27Z</time>
      </trkpt>
      <trkpt lat="45.84446" lon="4.85452">
        <ele>210.780197</ele>
        <time>2016-05-22T10:38:29Z</time>
      </trkpt>
      <trkpt lat="45.8445" lon="4.85447">
        <ele>210.951996</ele>
        <time>2016-05-22T10:38:31Z</time>
      </trkpt>
      <trkpt lat="45.84454" lon="4.85444">
        <ele>210.930664</ele>
        <time>2016-05-22T10:38:33Z</time>
      </trkpt>
      <trkpt lat="45.84458" lon="4.85441">
        <ele>211.053665</ele>
        <time>2016-05-22T10:38:35Z</time>
      </trkpt>
      <trkpt lat="45.84461" lon="4.85439">
        <ele>211.081345</ele>
        <time>2016-05-22T10:38:37Z</time>
      </trkpt>
      <trkpt lat="45.84464" lon="4.85435">
        <ele>211.221848</ele>
        <time>2016-05-22T10:38:39Z</time>
      </trkpt>
      <trkpt lat="45.84463" lon="4.8543">
        <ele>211.277191</ele>
        <time>2016-05-22T10:38:41Z</time>
      </trkpt>
      <trkpt lat="45.84462" lon="4.85425">
        <ele>211.270798</ele>
        <time>2016-05-22T10:38:43Z</time>
      </trkpt>
      <trkpt lat="45.8446" lon="4.85419">
        <ele>211.368866</ele>
        <time>2016-05-22T10:38:45Z</time>
      </trkpt>
      <trkpt lat="45.84458" lon="4.85414">
        <ele>211.462555</ele>
        <time>2016-05-22T10:38:47Z</time>
      </trkpt>
      <trkpt lat="45.84456" lon="4.85408">
        <ele>211.616013</ele>
        <time>2016-05-22T10:38:49Z</time>
      </trkpt>
      <trkpt lat="45.84455" lon="4.85404">
        <ele>211.642746</ele>
        <time>2016-05-22T10:38:51Z</time>
      </trkpt>
    </trkseg>
  </trk>
</gpx>